<?xml version='1.0' encoding='UTF-8'?><gpx version="1.1" creator="JPX - https://github.com/jenetics/jpx" xmlns="http://www.topografix.com/GPX/1/1"><trk><trkseg><trkpt lat="42.49673510518521" lon="-2.5723220482559452"><ele>453.0</ele><time>2026-03-22T08:30:23Z</time></trkpt><trkpt lat="42.496681953347434" lon="-2.5724482895221024"><ele>452.99999999999994</ele><time>2026-03-22T08:31:39.999Z</time></trkpt><trkpt lat="42.49663599574129" lon="-2.5725240178428104"><ele>452.99999999999994</ele><time>2026-03-22T08:31:40.999Z</time></trkpt><trkpt lat="42.49658093210516" lon="-2.5726696447195425"><ele>453.0</ele><time>2026-03-22T08:31:42.999Z</time></trkpt><trkpt lat="42.4966048023061" lon="-2.5727573474152656"><ele>453.0</ele><time>2026-03-22T08:31:43.999Z</time></trkpt><trkpt lat="42.49643715793883" lon="-2.572764475962341"><ele>453.0</ele><time>2026-03-22T08:31:46.999Z</time></trkpt><trkpt lat="42.49633641192601" lon="-2.5727301310138597"><ele>452.99999999999994</ele><time>2026-03-22T08:31:48.999Z</time></trkpt><trkpt lat="42.49625827777128" lon="-2.5726698264237045"><ele>452.99999999999994</ele><time>2026-03-22T08:31:50.999Z</time></trkpt><trkpt lat="42.49618139078628" lon="-2.572670761784592"><ele>453.0</ele><time>2026-03-22T08:31:52.999Z</time></trkpt><trkpt lat="42.496092710018495" lon="-2.5726602481463567"><ele>453.0</ele><time>2026-03-22T08:31:54.999Z</time></trkpt><trkpt lat="42.495997209229415" lon="-2.5725934168573206"><ele>451.6666666666667</ele><time>2026-03-22T08:31:56.999Z</time></trkpt><trkpt lat="42.49593822232962" lon="-2.5725358332868566"><ele>450.33333333333337</ele><time>2026-03-22T08:31:58.998Z</time></trkpt><trkpt lat="42.49589946662226" lon="-2.5726665904749146"><ele>449.0</ele><time>2026-03-22T08:32:02.998Z</time></trkpt><trkpt lat="42.49586330924098" lon="-2.5727533050991944"><ele>447.6666666666667</ele><time>2026-03-22T08:32:03.998Z</time></trkpt><trkpt lat="42.49584836684604" lon="-2.5728547325964293"><ele>446.33333333333337</ele><time>2026-03-22T08:32:04.998Z</time></trkpt><trkpt lat="42.495816182180015" lon="-2.572951350839279"><ele>445.0</ele><time>2026-03-22T08:32:05.998Z</time></trkpt><trkpt lat="42.49576498536176" lon="-2.5730347910343343"><ele>445.0</ele><time>2026-03-22T08:32:06.998Z</time></trkpt><trkpt lat="42.49566614311831" lon="-2.5730894843881384"><ele>445.0</ele><time>2026-03-22T08:32:07.998Z</time></trkpt><trkpt lat="42.495553068802906" lon="-2.573077018665987"><ele>445.0</ele><time>2026-03-22T08:32:08.998Z</time></trkpt><trkpt lat="42.49543793032838" lon="-2.5730783586783463"><ele>445.0</ele><time>2026-03-22T08:32:09.998Z</time></trkpt><trkpt lat="42.49532000407255" lon="-2.573062919494135"><ele>443.25</ele><time>2026-03-22T08:32:10.998Z</time></trkpt><trkpt lat="42.49519952951727" lon="-2.5730464296165887"><ele>441.5</ele><time>2026-03-22T08:32:11.998Z</time></trkpt><trkpt lat="42.49508523926895" lon="-2.5730392728963563"><ele>439.75</ele><time>2026-03-22T08:32:12.998Z</time></trkpt><trkpt lat="42.49496677216974" lon="-2.5730443712055133"><ele>438.0</ele><time>2026-03-22T08:32:13.998Z</time></trkpt><trkpt lat="42.49486796362438" lon="-2.5730818189753406"><ele>438.0</ele><time>2026-03-22T08:32:14.998Z</time></trkpt><trkpt lat="42.494779575881054" lon="-2.573139053224326"><ele>437.99999999999994</ele><time>2026-03-22T08:32:15.998Z</time></trkpt><trkpt lat="42.494683526095685" lon="-2.5731775036040485"><ele>437.99999999999994</ele><time>2026-03-22T08:32:16.998Z</time></trkpt><trkpt lat="42.494585188991884" lon="-2.5731879593056113"><ele>438.0</ele><time>2026-03-22T08:32:17.998Z</time></trkpt><trkpt lat="42.49447909072129" lon="-2.573233462031405"><ele>438.0</ele><time>2026-03-22T08:32:18.998Z</time></trkpt><trkpt lat="42.49437841362136" lon="-2.5732606886734266"><ele>437.2</ele><time>2026-03-22T08:32:19.998Z</time></trkpt><trkpt lat="42.49428155857353" lon="-2.573286881685813"><ele>436.4</ele><time>2026-03-22T08:32:20.998Z</time></trkpt><trkpt lat="42.494183427549665" lon="-2.573313419826165"><ele>435.59999999999997</ele><time>2026-03-22T08:32:21.998Z</time></trkpt><trkpt lat="42.49408665641497" lon="-2.573339433700982"><ele>434.79999999999995</ele><time>2026-03-22T08:32:22.998Z</time></trkpt><trkpt lat="42.49398909169368" lon="-2.5733656732702217"><ele>434.0</ele><time>2026-03-22T08:32:23.998Z</time></trkpt><trkpt lat="42.49389778056729" lon="-2.573388737685607"><ele>433.99999999999994</ele><time>2026-03-22T08:32:25Z</time></trkpt><trkpt lat="42.49383161397962" lon="-2.5734047741263724"><ele>434.0</ele><time>2026-03-22T08:32:26Z</time></trkpt><trkpt lat="42.49374480195197" lon="-2.5734367446669677"><ele>434.0</ele><time>2026-03-22T08:32:28Z</time></trkpt><trkpt lat="42.49371608629768" lon="-2.573268482111255"><ele>434.0</ele><time>2026-03-22T08:32:31Z</time></trkpt><trkpt lat="42.493764556886745" lon="-2.5731984910361816"><ele>433.99999999999994</ele><time>2026-03-22T08:32:33Z</time></trkpt><trkpt lat="42.49381725576328" lon="-2.5732511516972325"><ele>434.0</ele><time>2026-03-22T08:51:52Z</time></trkpt><trkpt lat="42.4937419249704" lon="-2.57324102285733"><ele>433.49999999999994</ele><time>2026-03-22T08:52:36.999Z</time></trkpt><trkpt lat="42.49369902159781" lon="-2.5733422064575397"><ele>433.0</ele><time>2026-03-22T08:52:38.999Z</time></trkpt><trkpt lat="42.49362907792063" lon="-2.5734642558250065"><ele>432.5</ele><time>2026-03-22T08:52:40.999Z</time></trkpt><trkpt lat="42.49358354331513" lon="-2.57354832620196"><ele>432.0</ele><time>2026-03-22T08:52:41.999Z</time></trkpt><trkpt lat="42.49354681348251" lon="-2.573642340808727"><ele>431.49999999999994</ele><time>2026-03-22T08:52:42.999Z</time></trkpt><trkpt lat="42.493564334825386" lon="-2.5737556154949726"><ele>431.0</ele><time>2026-03-22T08:52:43.999Z</time></trkpt><trkpt lat="42.4935299977002" lon="-2.573863744160265"><ele>431.0</ele><time>2026-03-22T08:52:44.999Z</time></trkpt><trkpt lat="42.49350217167837" lon="-2.573963956793897"><ele>431.0</ele><time>2026-03-22T08:52:45.999Z</time></trkpt><trkpt lat="42.49347630338131" lon="-2.5740430885945274"><ele>431.0</ele><time>2026-03-22T08:52:46.999Z</time></trkpt><trkpt lat="42.493429553286404" lon="-2.574186092098173"><ele>431.0</ele><time>2026-03-22T08:52:48.999Z</time></trkpt><trkpt lat="42.493336891398805" lon="-2.574301993503365"><ele>431.0</ele><time>2026-03-22T08:52:50.999Z</time></trkpt><trkpt lat="42.49326320845399" lon="-2.5744030083391274"><ele>430.99999999999994</ele><time>2026-03-22T08:52:52.999Z</time></trkpt><trkpt lat="42.49319802286384" lon="-2.574478592399699"><ele>431.0</ele><time>2026-03-22T08:52:54.999Z</time></trkpt><trkpt lat="42.49320621137692" lon="-2.5745704781002625"><ele>431.0</ele><time>2026-03-22T08:52:56.999Z</time></trkpt><trkpt lat="42.4931029310835" lon="-2.574470499913383"><ele>431.0</ele><time>2026-03-22T08:52:59.999Z</time></trkpt><trkpt lat="42.49306655426279" lon="-2.5743776599986794"><ele>430.99999999999994</ele><time>2026-03-22T08:53:01.998Z</time></trkpt><trkpt lat="42.49304234051105" lon="-2.574278085399841"><ele>431.0</ele><time>2026-03-22T08:53:03.998Z</time></trkpt><trkpt lat="42.4930345596973" lon="-2.574115026832289"><ele>430.99999999999994</ele><time>2026-03-22T08:53:05.998Z</time></trkpt><trkpt lat="42.49305660170708" lon="-2.574013950584679"><ele>431.0</ele><time>2026-03-22T08:53:06.998Z</time></trkpt><trkpt lat="42.493057326096825" lon="-2.5739076266919927"><ele>431.0</ele><time>2026-03-22T08:53:07.998Z</time></trkpt><trkpt lat="42.4930665641301" lon="-2.5737995377272087"><ele>431.0</ele><time>2026-03-22T08:53:08.998Z</time></trkpt><trkpt lat="42.49307354182621" lon="-2.573694046006109"><ele>430.99999999999994</ele><time>2026-03-22T08:53:09.998Z</time></trkpt><trkpt lat="42.493088426127585" lon="-2.5735908921204427"><ele>431.0</ele><time>2026-03-22T08:53:10.998Z</time></trkpt><trkpt lat="42.49311744970717" lon="-2.573488369791788"><ele>429.49999999999994</ele><time>2026-03-22T08:53:11.998Z</time></trkpt><trkpt lat="42.493150317445746" lon="-2.573383915789446"><ele>428.0</ele><time>2026-03-22T08:53:12.998Z</time></trkpt><trkpt lat="42.49316456723385" lon="-2.5732705669889877"><ele>426.5</ele><time>2026-03-22T08:53:13.998Z</time></trkpt><trkpt lat="42.49320547411307" lon="-2.5731681920912566"><ele>425.0</ele><time>2026-03-22T08:53:14.998Z</time></trkpt><trkpt lat="42.49324418970123" lon="-2.57305450170984"><ele>423.49999999999994</ele><time>2026-03-22T08:53:15.998Z</time></trkpt><trkpt lat="42.49328000730868" lon="-2.5729425161343653"><ele>422.0</ele><time>2026-03-22T08:53:16.998Z</time></trkpt><trkpt lat="42.493316523529295" lon="-2.572844146753596"><ele>419.66666666666663</ele><time>2026-03-22T08:53:17.998Z</time></trkpt><trkpt lat="42.49335132445269" lon="-2.572755333051173"><ele>417.3333333333333</ele><time>2026-03-22T08:53:18.998Z</time></trkpt><trkpt lat="42.49337680813838" lon="-2.5726739530505736"><ele>415.0</ele><time>2026-03-22T08:53:19.998Z</time></trkpt><trkpt lat="42.49340892944665" lon="-2.572545994702754"><ele>412.66666666666663</ele><time>2026-03-22T08:53:21.998Z</time></trkpt><trkpt lat="42.49346193179829" lon="-2.5723916426823297"><ele>410.3333333333333</ele><time>2026-03-22T08:53:23.998Z</time></trkpt><trkpt lat="42.49350601229104" lon="-2.5722937181243113"><ele>408.0</ele><time>2026-03-22T08:53:25Z</time></trkpt><trkpt lat="42.49355940929735" lon="-2.572182074912496"><ele>408.0</ele><time>2026-03-22T08:53:26Z</time></trkpt><trkpt lat="42.49362221349295" lon="-2.572050753104274"><ele>408.0</ele><time>2026-03-22T08:53:27Z</time></trkpt><trkpt lat="42.49368311074869" lon="-2.571904953849208"><ele>408.0</ele><time>2026-03-22T08:53:28Z</time></trkpt><trkpt lat="42.493735258313976" lon="-2.5717561384203633"><ele>408.0</ele><time>2026-03-22T08:53:29Z</time></trkpt><trkpt lat="42.4937776357477" lon="-2.5716006654932726"><ele>407.75</ele><time>2026-03-22T08:53:30Z</time></trkpt><trkpt lat="42.49380542870674" lon="-2.5714369517415703"><ele>407.5</ele><time>2026-03-22T08:53:31Z</time></trkpt><trkpt lat="42.493837236589584" lon="-2.571275427356151"><ele>407.25</ele><time>2026-03-22T08:53:32Z</time></trkpt><trkpt lat="42.49388479293902" lon="-2.5711214107871627"><ele>407.0</ele><time>2026-03-22T08:53:33Z</time></trkpt><trkpt lat="42.4939564233895" lon="-2.5709686529893716"><ele>407.0</ele><time>2026-03-22T08:53:34Z</time></trkpt><trkpt lat="42.4940632046222" lon="-2.570797907909097"><ele>407.0</ele><time>2026-03-22T08:53:35Z</time></trkpt><trkpt lat="42.49416747957061" lon="-2.5706279250247897"><ele>407.0</ele><time>2026-03-22T08:53:36Z</time></trkpt><trkpt lat="42.49427314342123" lon="-2.5704438561053697"><ele>402.66666666666663</ele><time>2026-03-22T08:53:37Z</time></trkpt><trkpt lat="42.494373091841574" lon="-2.570254086040959"><ele>398.33333333333337</ele><time>2026-03-22T08:53:38Z</time></trkpt><trkpt lat="42.49446009988638" lon="-2.57005622843272"><ele>394.0</ele><time>2026-03-22T08:53:39Z</time></trkpt><trkpt lat="42.494538625485816" lon="-2.5698532318691814"><ele>395.6666666666667</ele><time>2026-03-22T08:53:40Z</time></trkpt><trkpt lat="42.494611886276864" lon="-2.569649322153535"><ele>397.33333333333337</ele><time>2026-03-22T08:53:41Z</time></trkpt><trkpt lat="42.494678680209354" lon="-2.569458819908141"><ele>399.0</ele><time>2026-03-22T08:53:42Z</time></trkpt><trkpt lat="42.49474429905155" lon="-2.5692759385223773"><ele>399.0</ele><time>2026-03-22T08:53:43Z</time></trkpt><trkpt lat="42.494803597363536" lon="-2.5690927675549076"><ele>399.0</ele><time>2026-03-22T08:53:44Z</time></trkpt><trkpt lat="42.49483742549786" lon="-2.56889831827891"><ele>399.0</ele><time>2026-03-22T08:53:45Z</time></trkpt><trkpt lat="42.49484745829521" lon="-2.5686950880359753"><ele>399.0</ele><time>2026-03-22T08:53:46Z</time></trkpt><trkpt lat="42.4948143171727" lon="-2.5684962105321216"><ele>399.33333333333337</ele><time>2026-03-22T08:53:47Z</time></trkpt><trkpt lat="42.49475170208619" lon="-2.568297291369962"><ele>399.6666666666667</ele><time>2026-03-22T08:53:48Z</time></trkpt><trkpt lat="42.494705615028906" lon="-2.5680806548163004"><ele>400.0</ele><time>2026-03-22T08:53:49Z</time></trkpt><trkpt lat="42.494637738331555" lon="-2.567872014987578"><ele>396.6666666666667</ele><time>2026-03-22T08:53:50Z</time></trkpt><trkpt lat="42.49458346918212" lon="-2.5676517548789963"><ele>393.33333333333337</ele><time>2026-03-22T08:53:51Z</time></trkpt><trkpt lat="42.49454294764684" lon="-2.5674143584715754"><ele>390.0</ele><time>2026-03-22T08:53:52Z</time></trkpt><trkpt lat="42.494486317013504" lon="-2.5671832214296413"><ele>396.33333333333337</ele><time>2026-03-22T08:53:53Z</time></trkpt><trkpt lat="42.494401488836914" lon="-2.5669663880521836"><ele>402.6666666666667</ele><time>2026-03-22T08:53:54Z</time></trkpt><trkpt lat="42.4942966873547" lon="-2.5667637958827036"><ele>409.0</ele><time>2026-03-22T08:53:55Z</time></trkpt><trkpt lat="42.49416938801568" lon="-2.5665833116107297"><ele>409.0</ele><time>2026-03-22T08:53:56Z</time></trkpt><trkpt lat="42.49404604231613" lon="-2.5663912914166707"><ele>409.0</ele><time>2026-03-22T08:53:57Z</time></trkpt><trkpt lat="42.49391881038312" lon="-2.5661970511456094"><ele>409.0</ele><time>2026-03-22T08:53:58Z</time></trkpt><trkpt lat="42.49380299142529" lon="-2.565989021752491"><ele>405.0</ele><time>2026-03-22T08:53:59Z</time></trkpt><trkpt lat="42.49370088658858" lon="-2.565798358943486"><ele>401.0</ele><time>2026-03-22T08:54:00Z</time></trkpt><trkpt lat="42.49360041799254" lon="-2.565618376731738"><ele>397.0</ele><time>2026-03-22T08:54:01Z</time></trkpt><trkpt lat="42.49348939357078" lon="-2.565427659105879"><ele>402.0</ele><time>2026-03-22T08:54:02Z</time></trkpt><trkpt lat="42.49337465542695" lon="-2.5652287575031174"><ele>407.0</ele><time>2026-03-22T08:54:03Z</time></trkpt><trkpt lat="42.49325595220481" lon="-2.5650208497014773"><ele>412.0</ele><time>2026-03-22T08:54:04Z</time></trkpt><trkpt lat="42.49313231425477" lon="-2.5648077102618076"><ele>412.0</ele><time>2026-03-22T08:54:05Z</time></trkpt><trkpt lat="42.49300332476792" lon="-2.5645908296070017"><ele>412.0</ele><time>2026-03-22T08:54:06Z</time></trkpt><trkpt lat="42.492868258305016" lon="-2.56437691444496"><ele>412.0</ele><time>2026-03-22T08:54:07Z</time></trkpt><trkpt lat="42.49272095708252" lon="-2.564176933733922"><ele>410.33333333333337</ele><time>2026-03-22T08:54:08Z</time></trkpt><trkpt lat="42.49257087066949" lon="-2.563997308119959"><ele>408.66666666666663</ele><time>2026-03-22T08:54:09Z</time></trkpt><trkpt lat="42.492426843462724" lon="-2.563830407740686"><ele>407.0</ele><time>2026-03-22T08:54:09.999Z</time></trkpt><trkpt lat="42.49230620494385" lon="-2.563647534343713"><ele>407.0</ele><time>2026-03-22T08:54:10.999Z</time></trkpt><trkpt lat="42.492205677581445" lon="-2.5634318443276616"><ele>407.0</ele><time>2026-03-22T08:54:11.999Z</time></trkpt><trkpt lat="42.49211295872028" lon="-2.563199159778299"><ele>407.0</ele><time>2026-03-22T08:54:12.999Z</time></trkpt><trkpt lat="42.492023188733704" lon="-2.562963266247382"><ele>404.3333333333333</ele><time>2026-03-22T08:54:13.999Z</time></trkpt><trkpt lat="42.49193119248928" lon="-2.562721307363771"><ele>401.66666666666663</ele><time>2026-03-22T08:54:14.999Z</time></trkpt><trkpt lat="42.491839852105805" lon="-2.562481257019973"><ele>399.0</ele><time>2026-03-22T08:54:15.999Z</time></trkpt><trkpt lat="42.49174370602443" lon="-2.5622483698703626"><ele>402.0</ele><time>2026-03-22T08:54:16.999Z</time></trkpt><trkpt lat="42.49164255192574" lon="-2.562025472441205"><ele>405.0</ele><time>2026-03-22T08:54:17.999Z</time></trkpt><trkpt lat="42.49153611353168" lon="-2.561823000002743"><ele>408.0</ele><time>2026-03-22T08:54:18.999Z</time></trkpt><trkpt lat="42.4914489540857" lon="-2.5616103381635966"><ele>408.0</ele><time>2026-03-22T08:54:19.999Z</time></trkpt><trkpt lat="42.49138250326139" lon="-2.561387837484237"><ele>408.0</ele><time>2026-03-22T08:54:20.999Z</time></trkpt><trkpt lat="42.49132550667362" lon="-2.561161267265252"><ele>408.0</ele><time>2026-03-22T08:54:21.999Z</time></trkpt><trkpt lat="42.49127134546243" lon="-2.5609342788502896"><ele>405.0</ele><time>2026-03-22T08:54:22.999Z</time></trkpt><trkpt lat="42.491229840873636" lon="-2.560726627650107"><ele>402.0</ele><time>2026-03-22T08:54:23.999Z</time></trkpt><trkpt lat="42.49120867894354" lon="-2.5605288095080145"><ele>399.0</ele><time>2026-03-22T08:54:24.999Z</time></trkpt><trkpt lat="42.49121107980413" lon="-2.560325989027889"><ele>399.0</ele><time>2026-03-22T08:54:25.999Z</time></trkpt><trkpt lat="42.491231597840255" lon="-2.5601203243629045"><ele>399.0</ele><time>2026-03-22T08:54:26.999Z</time></trkpt><trkpt lat="42.49123571801655" lon="-2.5599327770360296"><ele>399.0</ele><time>2026-03-22T08:54:27.999Z</time></trkpt><trkpt lat="42.4912055148688" lon="-2.5597585028858783"><ele>399.0</ele><time>2026-03-22T08:54:28.999Z</time></trkpt><trkpt lat="42.491145408817474" lon="-2.5596171119623388"><ele>402.0</ele><time>2026-03-22T08:54:29.999Z</time></trkpt><trkpt lat="42.49105824892208" lon="-2.5594916472975466"><ele>405.0</ele><time>2026-03-22T08:54:30.999Z</time></trkpt><trkpt lat="42.49093020007267" lon="-2.559413746622617"><ele>408.0</ele><time>2026-03-22T08:54:31.999Z</time></trkpt><trkpt lat="42.490796731195466" lon="-2.559344191142514"><ele>411.0</ele><time>2026-03-22T08:54:32.999Z</time></trkpt><trkpt lat="42.49068334768497" lon="-2.5592589016188017"><ele>411.0</ele><time>2026-03-22T08:54:33.999Z</time></trkpt><trkpt lat="42.490575463583916" lon="-2.5591558212031877"><ele>411.0</ele><time>2026-03-22T08:54:34.999Z</time></trkpt><trkpt lat="42.49048107290296" lon="-2.5590110807485207"><ele>411.0</ele><time>2026-03-22T08:54:35.999Z</time></trkpt><trkpt lat="42.49039214034397" lon="-2.5588468701602407"><ele>411.0</ele><time>2026-03-22T08:54:36.999Z</time></trkpt><trkpt lat="42.49031052501533" lon="-2.5586786634098315"><ele>408.75</ele><time>2026-03-22T08:54:37.999Z</time></trkpt><trkpt lat="42.49025003610534" lon="-2.5585222794048286"><ele>406.5</ele><time>2026-03-22T08:54:38.999Z</time></trkpt><trkpt lat="42.49022450060828" lon="-2.5583697167200428"><ele>404.25</ele><time>2026-03-22T08:54:39.999Z</time></trkpt><trkpt lat="42.49022565735925" lon="-2.5582087913128313"><ele>402.0</ele><time>2026-03-22T08:54:40.999Z</time></trkpt><trkpt lat="42.49026758932417" lon="-2.558043367858572"><ele>402.0</ele><time>2026-03-22T08:54:41.999Z</time></trkpt><trkpt lat="42.49032289796905" lon="-2.557876725171507"><ele>402.0</ele><time>2026-03-22T08:54:42.999Z</time></trkpt><trkpt lat="42.490380040911596" lon="-2.557698360345055"><ele>402.0</ele><time>2026-03-22T08:54:43.999Z</time></trkpt><trkpt lat="42.49043584957358" lon="-2.557501332030881"><ele>402.0</ele><time>2026-03-22T08:54:44.999Z</time></trkpt><trkpt lat="42.49049611684061" lon="-2.5572885533293173"><ele>405.66666666666663</ele><time>2026-03-22T08:54:45.999Z</time></trkpt><trkpt lat="42.490561608408655" lon="-2.5570634431524195"><ele>409.3333333333333</ele><time>2026-03-22T08:54:46.999Z</time></trkpt><trkpt lat="42.49063057729315" lon="-2.5568228718179475"><ele>413.0</ele><time>2026-03-22T08:54:47.999Z</time></trkpt><trkpt lat="42.49070766571609" lon="-2.5565664289427206"><ele>413.0</ele><time>2026-03-22T08:54:48.999Z</time></trkpt><trkpt lat="42.49078389810845" lon="-2.5563197251956584"><ele>413.0</ele><time>2026-03-22T08:54:49.999Z</time></trkpt><trkpt lat="42.490861157962" lon="-2.556062835576795"><ele>413.0</ele><time>2026-03-22T08:54:50.999Z</time></trkpt><trkpt lat="42.49093989767905" lon="-2.555799193423244"><ele>412.3333333333333</ele><time>2026-03-22T08:54:51.999Z</time></trkpt><trkpt lat="42.49101618568899" lon="-2.5555283292892974"><ele>411.66666666666663</ele><time>2026-03-22T08:54:52.999Z</time></trkpt><trkpt lat="42.491090780874366" lon="-2.555252813925244"><ele>411.0</ele><time>2026-03-22T08:54:53.999Z</time></trkpt><trkpt lat="42.4911708812261" lon="-2.5549752198363254"><ele>411.0</ele><time>2026-03-22T08:54:54.999Z</time></trkpt><trkpt lat="42.491253979549725" lon="-2.55470094823299"><ele>411.0</ele><time>2026-03-22T08:54:55.999Z</time></trkpt><trkpt lat="42.491338383227514" lon="-2.554427888305707"><ele>411.0</ele><time>2026-03-22T08:54:56.999Z</time></trkpt><trkpt lat="42.49141923258868" lon="-2.5541654483020997"><ele>412.33333333333337</ele><time>2026-03-22T08:54:57.999Z</time></trkpt><trkpt lat="42.49150734840963" lon="-2.553920215468052"><ele>413.6666666666667</ele><time>2026-03-22T08:54:58.999Z</time></trkpt><trkpt lat="42.491612944908894" lon="-2.553689889339917"><ele>415.0</ele><time>2026-03-22T08:54:59.999Z</time></trkpt><trkpt lat="42.49173402701285" lon="-2.553469122836785"><ele>415.0</ele><time>2026-03-22T08:55:00.999Z</time></trkpt><trkpt lat="42.49185813710373" lon="-2.5532470738821935"><ele>415.0</ele><time>2026-03-22T08:55:01.999Z</time></trkpt><trkpt lat="42.4919837456828" lon="-2.5530263271753197"><ele>415.0</ele><time>2026-03-22T08:55:02.999Z</time></trkpt><trkpt lat="42.492112432112044" lon="-2.552805300045814"><ele>417.33333333333337</ele><time>2026-03-22T08:55:03.999Z</time></trkpt><trkpt lat="42.49224064935194" lon="-2.552581208054123"><ele>419.66666666666663</ele><time>2026-03-22T08:55:04.999Z</time></trkpt><trkpt lat="42.4923670279873" lon="-2.552353274236663"><ele>422.0</ele><time>2026-03-22T08:55:05.999Z</time></trkpt><trkpt lat="42.49249117296937" lon="-2.55212454198294"><ele>421.66666666666663</ele><time>2026-03-22T08:55:06.999Z</time></trkpt><trkpt lat="42.49261723118452" lon="-2.551897313731016"><ele>421.33333333333337</ele><time>2026-03-22T08:55:07.998Z</time></trkpt><trkpt lat="42.49274863487858" lon="-2.551678325200523"><ele>421.0</ele><time>2026-03-22T08:55:08.998Z</time></trkpt><trkpt lat="42.49289899422454" lon="-2.5514864660598087"><ele>422.0</ele><time>2026-03-22T08:55:09.998Z</time></trkpt><trkpt lat="42.493064362968255" lon="-2.5513203493551964"><ele>423.0</ele><time>2026-03-22T08:55:10.998Z</time></trkpt><trkpt lat="42.49323345924053" lon="-2.551159813993723"><ele>424.0</ele><time>2026-03-22T08:55:11.998Z</time></trkpt><trkpt lat="42.493399163043655" lon="-2.5509980067372275"><ele>424.0</ele><time>2026-03-22T08:55:12.998Z</time></trkpt><trkpt lat="42.49356611822127" lon="-2.5508339755098883"><ele>424.0</ele><time>2026-03-22T08:55:13.998Z</time></trkpt><trkpt lat="42.49373541052992" lon="-2.5506663236718845"><ele>424.0</ele><time>2026-03-22T08:55:14.998Z</time></trkpt><trkpt lat="42.49390554809265" lon="-2.550495604129166"><ele>425.0</ele><time>2026-03-22T08:55:15.998Z</time></trkpt><trkpt lat="42.4940765111705" lon="-2.5503275487767088"><ele>426.0</ele><time>2026-03-22T08:55:16.998Z</time></trkpt><trkpt lat="42.49424724535765" lon="-2.550161050295393"><ele>427.0</ele><time>2026-03-22T08:55:17.998Z</time></trkpt><trkpt lat="42.49441685801814" lon="-2.5499925883988857"><ele>427.0</ele><time>2026-03-22T08:55:18.998Z</time></trkpt><trkpt lat="42.49458405930665" lon="-2.5498231791054713"><ele>427.0</ele><time>2026-03-22T08:55:19.998Z</time></trkpt><trkpt lat="42.494752781385024" lon="-2.549652128214799"><ele>427.0</ele><time>2026-03-22T08:55:20.998Z</time></trkpt><trkpt lat="42.49493350246568" lon="-2.549474951837571"><ele>427.0</ele><time>2026-03-22T08:55:21.998Z</time></trkpt><trkpt lat="42.49511324295481" lon="-2.549294118290815"><ele>427.0</ele><time>2026-03-22T08:55:22.998Z</time></trkpt><trkpt lat="42.49528952676633" lon="-2.54912572924656"><ele>427.0</ele><time>2026-03-22T08:55:23.998Z</time></trkpt><trkpt lat="42.49546249338593" lon="-2.548957156556655"><ele>425.33333333333337</ele><time>2026-03-22T08:55:24.998Z</time></trkpt><trkpt lat="42.495628214588194" lon="-2.5487804595851955"><ele>423.66666666666663</ele><time>2026-03-22T08:55:25.998Z</time></trkpt><trkpt lat="42.495767309262476" lon="-2.548570333889151"><ele>422.0</ele><time>2026-03-22T08:55:26.998Z</time></trkpt><trkpt lat="42.49588612538757" lon="-2.5483246482666595"><ele>422.0</ele><time>2026-03-22T08:55:27.998Z</time></trkpt><trkpt lat="42.49598272724377" lon="-2.5480636410625546"><ele>422.0</ele><time>2026-03-22T08:55:28.998Z</time></trkpt><trkpt lat="42.49607149108971" lon="-2.547818399443911"><ele>422.0</ele><time>2026-03-22T08:55:29.998Z</time></trkpt><trkpt lat="42.4961551395976" lon="-2.547610994199069"><ele>422.0</ele><time>2026-03-22T08:55:31Z</time></trkpt><trkpt lat="42.496225913513484" lon="-2.5474350123854457"><ele>422.0</ele><time>2026-03-22T08:55:32Z</time></trkpt><trkpt lat="42.49629437618347" lon="-2.5472725986334135"><ele>422.0</ele><time>2026-03-22T08:55:33Z</time></trkpt><trkpt lat="42.496369050515504" lon="-2.547112034001562"><ele>422.0</ele><time>2026-03-22T08:55:34Z</time></trkpt><trkpt lat="42.49644188762752" lon="-2.5469420973283246"><ele>420.66666666666663</ele><time>2026-03-22T08:55:35Z</time></trkpt><trkpt lat="42.496515208661705" lon="-2.546765996456752"><ele>419.33333333333337</ele><time>2026-03-22T08:55:36Z</time></trkpt><trkpt lat="42.49659044837982" lon="-2.546588263129085"><ele>418.0</ele><time>2026-03-22T08:55:37Z</time></trkpt><trkpt lat="42.49666997796566" lon="-2.5464022259990693"><ele>418.0</ele><time>2026-03-22T08:55:38Z</time></trkpt><trkpt lat="42.496754176617735" lon="-2.546216628106386"><ele>418.0</ele><time>2026-03-22T08:55:39Z</time></trkpt><trkpt lat="42.49685728677752" lon="-2.5460431658375113"><ele>418.0</ele><time>2026-03-22T08:55:40Z</time></trkpt><trkpt lat="42.49698047570011" lon="-2.5458869832151274"><ele>416.33333333333337</ele><time>2026-03-22T08:55:41Z</time></trkpt><trkpt lat="42.49711537901531" lon="-2.545749565269385"><ele>414.66666666666663</ele><time>2026-03-22T08:55:42Z</time></trkpt><trkpt lat="42.497256033021095" lon="-2.545613663701072"><ele>413.0</ele><time>2026-03-22T08:55:43Z</time></trkpt><trkpt lat="42.49739719572123" lon="-2.5454659691370014"><ele>412.66666666666663</ele><time>2026-03-22T08:55:44Z</time></trkpt><trkpt lat="42.4975381417311" lon="-2.5453165835204232"><ele>412.33333333333337</ele><time>2026-03-22T08:55:45Z</time></trkpt><trkpt lat="42.49768198902918" lon="-2.545164546857555"><ele>412.0</ele><time>2026-03-22T08:55:46Z</time></trkpt><trkpt lat="42.49782744368284" lon="-2.5450089409085463"><ele>411.6666666666667</ele><time>2026-03-22T08:55:47Z</time></trkpt><trkpt lat="42.497972607440325" lon="-2.5448497485796997"><ele>411.33333333333337</ele><time>2026-03-22T08:55:48Z</time></trkpt><trkpt lat="42.49812169430774" lon="-2.544688425407909"><ele>411.0</ele><time>2026-03-22T08:55:49Z</time></trkpt><trkpt lat="42.498274460284925" lon="-2.5445257725044557"><ele>411.0</ele><time>2026-03-22T08:55:50Z</time></trkpt><trkpt lat="42.49842804793335" lon="-2.544361784791627"><ele>411.0</ele><time>2026-03-22T08:55:51Z</time></trkpt><trkpt lat="42.498585759590604" lon="-2.5441941268049115"><ele>411.0</ele><time>2026-03-22T08:55:52Z</time></trkpt><trkpt lat="42.498744708879464" lon="-2.544028934403544"><ele>410.0</ele><time>2026-03-22T08:55:53Z</time></trkpt><trkpt lat="42.49890584938" lon="-2.5438618419507355"><ele>409.0</ele><time>2026-03-22T08:55:54Z</time></trkpt><trkpt lat="42.499067783058294" lon="-2.5436961264753264"><ele>408.0</ele><time>2026-03-22T08:55:55Z</time></trkpt><trkpt lat="42.49923229936088" lon="-2.5435284815789805"><ele>408.0</ele><time>2026-03-22T08:55:56Z</time></trkpt><trkpt lat="42.499397145452235" lon="-2.5433563239371297"><ele>408.0</ele><time>2026-03-22T08:55:57Z</time></trkpt><trkpt lat="42.49956301717458" lon="-2.5431743755886025"><ele>408.0</ele><time>2026-03-22T08:55:58Z</time></trkpt><trkpt lat="42.499727943772854" lon="-2.542987470949506"><ele>408.0</ele><time>2026-03-22T08:55:59Z</time></trkpt><trkpt lat="42.499899649314514" lon="-2.5428041586323733"><ele>408.0</ele><time>2026-03-22T08:56:00Z</time></trkpt><trkpt lat="42.50007487409476" lon="-2.542622700254589"><ele>408.0</ele><time>2026-03-22T08:56:01Z</time></trkpt><trkpt lat="42.50025264307938" lon="-2.5424374347958634"><ele>408.0</ele><time>2026-03-22T08:56:02Z</time></trkpt><trkpt lat="42.500429441674186" lon="-2.542251390906182"><ele>408.0</ele><time>2026-03-22T08:56:03Z</time></trkpt><trkpt lat="42.500606902378635" lon="-2.5420600741999273"><ele>408.5</ele><time>2026-03-22T08:56:04Z</time></trkpt><trkpt lat="42.500788274513354" lon="-2.5418701644468733"><ele>409.0</ele><time>2026-03-22T08:56:05Z</time></trkpt><trkpt lat="42.500972963592965" lon="-2.541674232919135"><ele>409.0</ele><time>2026-03-22T08:56:06Z</time></trkpt><trkpt lat="42.50115446106427" lon="-2.5414751310465618"><ele>409.0</ele><time>2026-03-22T08:56:07Z</time></trkpt><trkpt lat="42.50132834081119" lon="-2.5412578191971513"><ele>408.0</ele><time>2026-03-22T08:56:08Z</time></trkpt><trkpt lat="42.501488450466525" lon="-2.5410249629150257"><ele>407.0</ele><time>2026-03-22T08:56:09Z</time></trkpt><trkpt lat="42.501646657497844" lon="-2.54078864795099"><ele>407.0</ele><time>2026-03-22T08:56:10Z</time></trkpt><trkpt lat="42.501807102731576" lon="-2.540557560349726"><ele>407.0</ele><time>2026-03-22T08:56:11Z</time></trkpt><trkpt lat="42.50197011633462" lon="-2.5403254745562216"><ele>407.5</ele><time>2026-03-22T08:56:12Z</time></trkpt><trkpt lat="42.50213547642646" lon="-2.540095521664086"><ele>408.0</ele><time>2026-03-22T08:56:13Z</time></trkpt><trkpt lat="42.50229786860486" lon="-2.539867453245972"><ele>408.0</ele><time>2026-03-22T08:56:14Z</time></trkpt><trkpt lat="42.502455804394835" lon="-2.5396388902053744"><ele>408.0</ele><time>2026-03-22T08:56:15Z</time></trkpt><trkpt lat="42.50260617565122" lon="-2.5394205581959235"><ele>406.66666666666663</ele><time>2026-03-22T08:56:15.999Z</time></trkpt><trkpt lat="42.502738113673736" lon="-2.5391950112323896"><ele>405.3333333333333</ele><time>2026-03-22T08:56:16.999Z</time></trkpt><trkpt lat="42.50284005162641" lon="-2.5389491024857835"><ele>404.0</ele><time>2026-03-22T08:56:17.999Z</time></trkpt><trkpt lat="42.50290869180203" lon="-2.5386773374627007"><ele>406.3333333333333</ele><time>2026-03-22T08:56:18.999Z</time></trkpt><trkpt lat="42.5029602542785" lon="-2.538390353722123"><ele>408.66666666666663</ele><time>2026-03-22T08:56:19.999Z</time></trkpt><trkpt lat="42.502998192873534" lon="-2.5380935816260815"><ele>411.0</ele><time>2026-03-22T08:56:20.999Z</time></trkpt><trkpt lat="42.50303265540535" lon="-2.5377916852351006"><ele>411.0</ele><time>2026-03-22T08:56:21.999Z</time></trkpt><trkpt lat="42.50306948176484" lon="-2.5374864330716425"><ele>411.0</ele><time>2026-03-22T08:56:22.999Z</time></trkpt><trkpt lat="42.50310529713811" lon="-2.5371737417721443"><ele>410.5</ele><time>2026-03-22T08:56:23.999Z</time></trkpt><trkpt lat="42.5031337404365" lon="-2.536855772710561"><ele>410.0</ele><time>2026-03-22T08:56:24.999Z</time></trkpt><trkpt lat="42.50315022033979" lon="-2.5365320517013124"><ele>410.0</ele><time>2026-03-22T08:56:25.999Z</time></trkpt><trkpt lat="42.50315928560787" lon="-2.53620490035063"><ele>410.0</ele><time>2026-03-22T08:56:26.999Z</time></trkpt><trkpt lat="42.50317259221721" lon="-2.5358747833996387"><ele>410.0</ele><time>2026-03-22T08:56:27.999Z</time></trkpt><trkpt lat="42.50319094778335" lon="-2.535545756832689"><ele>410.0</ele><time>2026-03-22T08:56:28.999Z</time></trkpt><trkpt lat="42.503210533905545" lon="-2.535211880780315"><ele>409.5</ele><time>2026-03-22T08:56:29.999Z</time></trkpt><trkpt lat="42.50322954564639" lon="-2.534876339626504"><ele>409.0</ele><time>2026-03-22T08:56:30.999Z</time></trkpt><trkpt lat="42.503246255257004" lon="-2.5345435740165714"><ele>407.0</ele><time>2026-03-22T08:56:31.999Z</time></trkpt><trkpt lat="42.50326221058874" lon="-2.5342130993231646"><ele>405.0</ele><time>2026-03-22T08:56:32.999Z</time></trkpt><trkpt lat="42.50328122733286" lon="-2.5338815140263806"><ele>404.5</ele><time>2026-03-22T08:56:33.999Z</time></trkpt><trkpt lat="42.50330184035937" lon="-2.5335473224647904"><ele>404.0</ele><time>2026-03-22T08:56:34.999Z</time></trkpt><trkpt lat="42.50332006001074" lon="-2.5332098207987728"><ele>404.0</ele><time>2026-03-22T08:56:35.999Z</time></trkpt><trkpt lat="42.503337159895445" lon="-2.532869516959692"><ele>404.0</ele><time>2026-03-22T08:56:36.999Z</time></trkpt><trkpt lat="42.50335315081518" lon="-2.532528644704915"><ele>404.0</ele><time>2026-03-22T08:56:37.999Z</time></trkpt><trkpt lat="42.50336927525705" lon="-2.532187239994222"><ele>404.0</ele><time>2026-03-22T08:56:38.999Z</time></trkpt><trkpt lat="42.50338624494635" lon="-2.5318499875874467"><ele>403.5</ele><time>2026-03-22T08:56:39.999Z</time></trkpt><trkpt lat="42.503404055601635" lon="-2.5315225876044427"><ele>403.0</ele><time>2026-03-22T08:56:40.999Z</time></trkpt><trkpt lat="42.503417138780236" lon="-2.5312086697876315"><ele>403.0</ele><time>2026-03-22T08:56:41.999Z</time></trkpt><trkpt lat="42.503426248567344" lon="-2.530918372214553"><ele>403.0</ele><time>2026-03-22T08:56:42.999Z</time></trkpt><trkpt lat="42.50343765063874" lon="-2.5306676242488617"><ele>403.0</ele><time>2026-03-22T08:56:43.999Z</time></trkpt><trkpt lat="42.50346188726459" lon="-2.5304409788231133"><ele>401.33333333333337</ele><time>2026-03-22T08:56:44.999Z</time></trkpt><trkpt lat="42.50352298795967" lon="-2.5302371228548544"><ele>399.66666666666663</ele><time>2026-03-22T08:56:45.999Z</time></trkpt><trkpt lat="42.50360303632077" lon="-2.5300383662155475"><ele>398.0</ele><time>2026-03-22T08:56:46.999Z</time></trkpt><trkpt lat="42.503691004660666" lon="-2.5298464023229315"><ele>401.3333333333333</ele><time>2026-03-22T08:56:47.999Z</time></trkpt><trkpt lat="42.50378195421474" lon="-2.529645670794276"><ele>404.66666666666663</ele><time>2026-03-22T08:56:48.999Z</time></trkpt><trkpt lat="42.50387668457618" lon="-2.5294215831129585"><ele>408.0</ele><time>2026-03-22T08:56:49.999Z</time></trkpt><trkpt lat="42.50397277053122" lon="-2.529187558848172"><ele>408.0</ele><time>2026-03-22T08:56:50.999Z</time></trkpt><trkpt lat="42.50407328443792" lon="-2.5289453684114798"><ele>408.0</ele><time>2026-03-22T08:56:51.999Z</time></trkpt><trkpt lat="42.504176449102474" lon="-2.528693507082137"><ele>408.0</ele><time>2026-03-22T08:56:52.999Z</time></trkpt><trkpt lat="42.504279204930555" lon="-2.5284354824602375"><ele>408.0</ele><time>2026-03-22T08:56:53.999Z</time></trkpt><trkpt lat="42.504385579607494" lon="-2.5281764949238417"><ele>408.0</ele><time>2026-03-22T08:56:54.999Z</time></trkpt><trkpt lat="42.50450738334093" lon="-2.5279341509258257"><ele>408.0</ele><time>2026-03-22T08:56:55.999Z</time></trkpt><trkpt lat="42.50464292667138" lon="-2.5276969685441797"><ele>408.0</ele><time>2026-03-22T08:56:56.999Z</time></trkpt><trkpt lat="42.504790587781294" lon="-2.5274606162818016"><ele>408.0</ele><time>2026-03-22T08:56:57.999Z</time></trkpt><trkpt lat="42.5049125144089" lon="-2.5271935783922936"><ele>403.5</ele><time>2026-03-22T08:56:58.999Z</time></trkpt><trkpt lat="42.50508542848095" lon="-2.5269825908757166"><ele>399.0</ele><time>2026-03-22T08:56:59.999Z</time></trkpt><trkpt lat="42.50522726282668" lon="-2.526749815984225"><ele>399.0</ele><time>2026-03-22T08:57:00.999Z</time></trkpt><trkpt lat="42.50537377897364" lon="-2.526528227496723"><ele>399.0</ele><time>2026-03-22T08:57:01.999Z</time></trkpt><trkpt lat="42.50554066447231" lon="-2.526333714463333"><ele>399.0</ele><time>2026-03-22T08:57:02.999Z</time></trkpt><trkpt lat="42.50573057750846" lon="-2.526169019148614"><ele>400.0</ele><time>2026-03-22T08:57:03.999Z</time></trkpt><trkpt lat="42.505932876803996" lon="-2.5260215735334293"><ele>401.0</ele><time>2026-03-22T08:57:04.999Z</time></trkpt><trkpt lat="42.50613325500317" lon="-2.5258754512424595"><ele>402.0</ele><time>2026-03-22T08:57:05.999Z</time></trkpt><trkpt lat="42.50633171998581" lon="-2.52573039909835"><ele>403.0</ele><time>2026-03-22T08:57:06.999Z</time></trkpt><trkpt lat="42.50652915410074" lon="-2.5255865259009114"><ele>403.0</ele><time>2026-03-22T08:57:07.999Z</time></trkpt><trkpt lat="42.506727029859235" lon="-2.5254439086244527"><ele>403.0</ele><time>2026-03-22T08:57:08.999Z</time></trkpt><trkpt lat="42.50691872753795" lon="-2.525314801407157"><ele>403.0</ele><time>2026-03-22T08:57:09.999Z</time></trkpt><trkpt lat="42.50710480820539" lon="-2.525197370918439"><ele>402.6666666666667</ele><time>2026-03-22T08:57:10.999Z</time></trkpt><trkpt lat="42.50729283694238" lon="-2.525088618096115"><ele>402.33333333333337</ele><time>2026-03-22T08:57:11.999Z</time></trkpt><trkpt lat="42.50749809249201" lon="-2.5249971182451367"><ele>402.0</ele><time>2026-03-22T08:57:12.999Z</time></trkpt><trkpt lat="42.50771615800716" lon="-2.524911403322727"><ele>402.5</ele><time>2026-03-22T08:57:13.998Z</time></trkpt><trkpt lat="42.50794075616242" lon="-2.524819187981531"><ele>403.0</ele><time>2026-03-22T08:57:14.998Z</time></trkpt><trkpt lat="42.50817306946597" lon="-2.524723017735621"><ele>403.0</ele><time>2026-03-22T08:57:15.998Z</time></trkpt><trkpt lat="42.5084115559793" lon="-2.5246287044800626"><ele>403.0</ele><time>2026-03-22T08:57:16.998Z</time></trkpt><trkpt lat="42.508648258493295" lon="-2.524529136089932"><ele>403.0</ele><time>2026-03-22T08:57:17.998Z</time></trkpt><trkpt lat="42.50887486411535" lon="-2.524430687905136"><ele>403.0</ele><time>2026-03-22T08:57:18.998Z</time></trkpt><trkpt lat="42.50909843471281" lon="-2.5243248463892387"><ele>403.0</ele><time>2026-03-22T08:57:19.998Z</time></trkpt><trkpt lat="42.50931031039943" lon="-2.5241942346167088"><ele>403.0</ele><time>2026-03-22T08:57:20.998Z</time></trkpt><trkpt lat="42.509508768425015" lon="-2.5240354842893162"><ele>402.5</ele><time>2026-03-22T08:57:21.998Z</time></trkpt><trkpt lat="42.509707897614625" lon="-2.523878093862223"><ele>402.0</ele><time>2026-03-22T08:57:22.998Z</time></trkpt><trkpt lat="42.509907782506666" lon="-2.5237327768338873"><ele>401.33333333333337</ele><time>2026-03-22T08:57:23.998Z</time></trkpt><trkpt lat="42.51010594044354" lon="-2.523586747179903"><ele>400.6666666666667</ele><time>2026-03-22T08:57:24.998Z</time></trkpt><trkpt lat="42.51029312602214" lon="-2.523435314351401"><ele>400.0</ele><time>2026-03-22T08:57:25.998Z</time></trkpt><trkpt lat="42.510451076965175" lon="-2.5232817365870335"><ele>399.6666666666667</ele><time>2026-03-22T08:57:26.998Z</time></trkpt><trkpt lat="42.5105964015738" lon="-2.52315611241851"><ele>399.33333333333337</ele><time>2026-03-22T08:57:27.998Z</time></trkpt><trkpt lat="42.51074227828348" lon="-2.5230657580163998"><ele>399.0</ele><time>2026-03-22T08:57:28.998Z</time></trkpt><trkpt lat="42.51089335082105" lon="-2.5230209162233006"><ele>399.0</ele><time>2026-03-22T08:57:29.998Z</time></trkpt><trkpt lat="42.51106274571946" lon="-2.5230182751989307"><ele>399.0</ele><time>2026-03-22T08:57:30.998Z</time></trkpt><trkpt lat="42.511239245600215" lon="-2.523041788079812"><ele>399.0</ele><time>2026-03-22T08:57:31.998Z</time></trkpt><trkpt lat="42.511419041624556" lon="-2.5230667463614944"><ele>398.0</ele><time>2026-03-22T08:57:32.998Z</time></trkpt><trkpt lat="42.5116144329512" lon="-2.523090366577315"><ele>397.0</ele><time>2026-03-22T08:57:33.998Z</time></trkpt><trkpt lat="42.51182347024832" lon="-2.5231132805920344"><ele>396.0</ele><time>2026-03-22T08:57:34.998Z</time></trkpt><trkpt lat="42.512046205297025" lon="-2.523133976188601"><ele>394.0</ele><time>2026-03-22T08:57:35.998Z</time></trkpt><trkpt lat="42.51228427134341" lon="-2.523143832829709"><ele>392.0</ele><time>2026-03-22T08:57:37Z</time></trkpt><trkpt lat="42.51252711179692" lon="-2.5231404028442386"><ele>392.0</ele><time>2026-03-22T08:57:38Z</time></trkpt><trkpt lat="42.51277456379188" lon="-2.5231245294682303"><ele>392.0</ele><time>2026-03-22T08:57:39Z</time></trkpt><trkpt lat="42.51302298101664" lon="-2.5231095236230163"><ele>393.0</ele><time>2026-03-22T08:57:40Z</time></trkpt><trkpt lat="42.51327105786166" lon="-2.52309704729186"><ele>394.0</ele><time>2026-03-22T08:57:41Z</time></trkpt><trkpt lat="42.51351610826523" lon="-2.5230883548213314"><ele>397.0</ele><time>2026-03-22T08:57:42Z</time></trkpt><trkpt lat="42.513756445350246" lon="-2.523078309341033"><ele>400.0</ele><time>2026-03-22T08:57:43Z</time></trkpt><trkpt lat="42.513990268930186" lon="-2.5230659886125997"><ele>400.0</ele><time>2026-03-22T08:57:44Z</time></trkpt><trkpt lat="42.51421487347358" lon="-2.5230535109439876"><ele>400.0</ele><time>2026-03-22T08:57:45Z</time></trkpt><trkpt lat="42.51442897570834" lon="-2.5230455472868347"><ele>400.0</ele><time>2026-03-22T08:57:46Z</time></trkpt><trkpt lat="42.51462589839674" lon="-2.5230381039964693"><ele>399.6666666666667</ele><time>2026-03-22T08:57:47Z</time></trkpt><trkpt lat="42.51481011193106" lon="-2.5230213820991714"><ele>399.33333333333337</ele><time>2026-03-22T08:57:48Z</time></trkpt><trkpt lat="42.514988785296445" lon="-2.522985390714414"><ele>399.0</ele><time>2026-03-22T08:57:49Z</time></trkpt><trkpt lat="42.51516908435711" lon="-2.522929170887501"><ele>399.0</ele><time>2026-03-22T08:57:50Z</time></trkpt><trkpt lat="42.51533387636819" lon="-2.5228681609567842"><ele>399.0</ele><time>2026-03-22T08:57:51Z</time></trkpt><trkpt lat="42.51548537263262" lon="-2.5228162328919255"><ele>399.0</ele><time>2026-03-22T08:57:52Z</time></trkpt><trkpt lat="42.515616668394664" lon="-2.5227642271263617"><ele>399.0</ele><time>2026-03-22T08:57:53Z</time></trkpt><trkpt lat="42.5157317555764" lon="-2.5227107064130987"><ele>399.0</ele><time>2026-03-22T08:57:54Z</time></trkpt><trkpt lat="42.515833770249934" lon="-2.522659410186447"><ele>399.0</ele><time>2026-03-22T08:57:55Z</time></trkpt><trkpt lat="42.515910795564636" lon="-2.5226086706312913"><ele>399.0</ele><time>2026-03-22T08:57:56Z</time></trkpt><trkpt lat="42.51597548266029" lon="-2.522559174462796"><ele>399.0</ele><time>2026-03-22T08:57:57Z</time></trkpt><trkpt lat="42.51605998516885" lon="-2.5225005816776283"><ele>399.0</ele><time>2026-03-22T08:57:59Z</time></trkpt><trkpt lat="42.51616481158263" lon="-2.522431954368681"><ele>399.0</ele><time>2026-03-22T08:58:02Z</time></trkpt><trkpt lat="42.516247736156814" lon="-2.522378065626381"><ele>399.0</ele><time>2026-03-22T08:58:03Z</time></trkpt><trkpt lat="42.51634503910266" lon="-2.5223055419185716"><ele>399.0</ele><time>2026-03-22T08:58:04Z</time></trkpt><trkpt lat="42.51642833285168" lon="-2.52222485686653"><ele>399.0</ele><time>2026-03-22T08:58:05Z</time></trkpt><trkpt lat="42.516491727538614" lon="-2.52211003269669"><ele>399.5</ele><time>2026-03-22T08:58:06Z</time></trkpt><trkpt lat="42.51652976472755" lon="-2.5219690484025103"><ele>400.0</ele><time>2026-03-22T08:58:07Z</time></trkpt><trkpt lat="42.51654317434543" lon="-2.521811833508331"><ele>400.5</ele><time>2026-03-22T08:58:08Z</time></trkpt><trkpt lat="42.51653086597485" lon="-2.5216383990941615"><ele>401.0</ele><time>2026-03-22T08:58:09Z</time></trkpt><trkpt lat="42.51652129745066" lon="-2.5214602125171273"><ele>401.0</ele><time>2026-03-22T08:58:10Z</time></trkpt><trkpt lat="42.516518561978266" lon="-2.5212766534915296"><ele>401.0</ele><time>2026-03-22T08:58:11Z</time></trkpt><trkpt lat="42.51652450688328" lon="-2.521100231320644"><ele>401.0</ele><time>2026-03-22T08:58:12Z</time></trkpt><trkpt lat="42.516553847768414" lon="-2.5209403086723206"><ele>401.0</ele><time>2026-03-22T08:58:13Z</time></trkpt><trkpt lat="42.51659441647586" lon="-2.520797523294197"><ele>399.25</ele><time>2026-03-22T08:58:14Z</time></trkpt><trkpt lat="42.51665580023248" lon="-2.520686280344351"><ele>397.5</ele><time>2026-03-22T08:58:15Z</time></trkpt><trkpt lat="42.5167413770032" lon="-2.520586805788753"><ele>395.75</ele><time>2026-03-22T08:58:16Z</time></trkpt><trkpt lat="42.516851236606854" lon="-2.5205163769852055"><ele>394.0</ele><time>2026-03-22T08:58:17Z</time></trkpt><trkpt lat="42.516982438063806" lon="-2.5204567087690894"><ele>393.6666666666667</ele><time>2026-03-22T08:58:18Z</time></trkpt><trkpt lat="42.51713332697558" lon="-2.520413416013307"><ele>393.33333333333337</ele><time>2026-03-22T08:58:19Z</time></trkpt><trkpt lat="42.517286328448506" lon="-2.520370635142911"><ele>393.0</ele><time>2026-03-22T08:58:19.999Z</time></trkpt><trkpt lat="42.51744550482553" lon="-2.5203263639790143"><ele>393.0</ele><time>2026-03-22T08:58:20.999Z</time></trkpt><trkpt lat="42.51761062617008" lon="-2.520275237413386"><ele>393.0</ele><time>2026-03-22T08:58:21.999Z</time></trkpt><trkpt lat="42.51777679288371" lon="-2.5202163078957516"><ele>393.0</ele><time>2026-03-22T08:58:22.999Z</time></trkpt><trkpt lat="42.51794273992066" lon="-2.5201341022919825"><ele>393.0</ele><time>2026-03-22T08:58:23.999Z</time></trkpt><trkpt lat="42.518098398167375" lon="-2.520047256700595"><ele>393.0</ele><time>2026-03-22T08:58:24.999Z</time></trkpt><trkpt lat="42.51823412120065" lon="-2.5199676655279606"><ele>393.0</ele><time>2026-03-22T08:58:25.999Z</time></trkpt><trkpt lat="42.51834890403618" lon="-2.5198708371882437"><ele>393.0</ele><time>2026-03-22T08:58:26.999Z</time></trkpt><trkpt lat="42.51846624084595" lon="-2.519804879116102"><ele>393.0</ele><time>2026-03-22T08:58:27.999Z</time></trkpt><trkpt lat="42.51857711174495" lon="-2.5197527570633125"><ele>393.0</ele><time>2026-03-22T08:58:28.999Z</time></trkpt><trkpt lat="42.51868502630265" lon="-2.5197030442068464"><ele>393.0</ele><time>2026-03-22T08:58:29.999Z</time></trkpt><trkpt lat="42.51879539009999" lon="-2.5196647383012865"><ele>393.2</ele><time>2026-03-22T08:58:30.999Z</time></trkpt><trkpt lat="42.518892941435375" lon="-2.519640581122101"><ele>393.4</ele><time>2026-03-22T08:58:31.999Z</time></trkpt><trkpt lat="42.51899142183578" lon="-2.51962973364124"><ele>393.59999999999997</ele><time>2026-03-22T08:58:32.999Z</time></trkpt><trkpt lat="42.5191647414617" lon="-2.5196513896551114"><ele>393.79999999999995</ele><time>2026-03-22T08:58:34.999Z</time></trkpt><trkpt lat="42.5192407773774" lon="-2.5196487298827543"><ele>394.0</ele><time>2026-03-22T08:58:35.999Z</time></trkpt><trkpt lat="42.51931795202728" lon="-2.519603819739437"><ele>393.0</ele><time>2026-03-22T08:58:37.999Z</time></trkpt><trkpt lat="42.519337693362075" lon="-2.5194545528018524"><ele>392.0</ele><time>2026-03-22T08:58:39.999Z</time></trkpt><trkpt lat="42.519360838699434" lon="-2.519343339053239"><ele>391.0</ele><time>2026-03-22T08:58:40.999Z</time></trkpt><trkpt lat="42.51939215304348" lon="-2.5192180504370767"><ele>390.0</ele><time>2026-03-22T08:58:41.999Z</time></trkpt><trkpt lat="42.519425266279185" lon="-2.519099325676203"><ele>389.0</ele><time>2026-03-22T08:58:42.999Z</time></trkpt><trkpt lat="42.51946200192723" lon="-2.5189779093777975"><ele>389.0</ele><time>2026-03-22T08:58:43.999Z</time></trkpt><trkpt lat="42.519504063090025" lon="-2.518858580739263"><ele>389.0</ele><time>2026-03-22T08:58:44.999Z</time></trkpt><trkpt lat="42.519547043521555" lon="-2.518733302022304"><ele>389.0</ele><time>2026-03-22T08:58:45.999Z</time></trkpt><trkpt lat="42.51957082658815" lon="-2.5186165005571826"><ele>389.0</ele><time>2026-03-22T08:58:46.999Z</time></trkpt><trkpt lat="42.51957359997766" lon="-2.5185201488060014"><ele>389.0</ele><time>2026-03-22T08:58:47.999Z</time></trkpt><trkpt lat="42.51961431705507" lon="-2.518388777611786"><ele>390.4</ele><time>2026-03-22T08:58:49.999Z</time></trkpt><trkpt lat="42.51974738424507" lon="-2.5183231856933093"><ele>391.79999999999995</ele><time>2026-03-22T08:58:51.999Z</time></trkpt><trkpt lat="42.519842023351174" lon="-2.5183149119439547"><ele>393.20000000000005</ele><time>2026-03-22T08:58:52.999Z</time></trkpt><trkpt lat="42.51993904158584" lon="-2.518287316022235"><ele>394.6</ele><time>2026-03-22T08:58:53.999Z</time></trkpt><trkpt lat="42.52004705137722" lon="-2.5182554595954945"><ele>396.0</ele><time>2026-03-22T08:58:54.999Z</time></trkpt><trkpt lat="42.52016066829147" lon="-2.5182187804009395"><ele>396.0</ele><time>2026-03-22T08:58:55.999Z</time></trkpt><trkpt lat="42.520281337009706" lon="-2.518176888083898"><ele>396.0</ele><time>2026-03-22T08:58:56.999Z</time></trkpt><trkpt lat="42.52040726172632" lon="-2.5181307090326928"><ele>396.0</ele><time>2026-03-22T08:58:57.999Z</time></trkpt><trkpt lat="42.52053850747676" lon="-2.518085786050097"><ele>396.0</ele><time>2026-03-22T08:58:58.999Z</time></trkpt><trkpt lat="42.52066409799049" lon="-2.518049594199691"><ele>395.75</ele><time>2026-03-22T08:58:59.999Z</time></trkpt><trkpt lat="42.52079690712711" lon="-2.5180256993479073"><ele>395.5</ele><time>2026-03-22T08:59:00.999Z</time></trkpt><trkpt lat="42.520926316675514" lon="-2.518004082225289"><ele>395.25</ele><time>2026-03-22T08:59:01.999Z</time></trkpt><trkpt lat="42.521046910956514" lon="-2.517982271113145"><ele>395.0</ele><time>2026-03-22T08:59:02.999Z</time></trkpt><trkpt lat="42.52114768661105" lon="-2.5179484394214255"><ele>397.0</ele><time>2026-03-22T08:59:03.999Z</time></trkpt><trkpt lat="42.52122614807641" lon="-2.517891522849501"><ele>399.0</ele><time>2026-03-22T08:59:04.999Z</time></trkpt><trkpt lat="42.52130657732148" lon="-2.517806949523327"><ele>401.0</ele><time>2026-03-22T08:59:05.999Z</time></trkpt><trkpt lat="42.521392952115185" lon="-2.5177091659726702"><ele>403.0</ele><time>2026-03-22T08:59:06.999Z</time></trkpt><trkpt lat="42.521486049172395" lon="-2.5176265734413485"><ele>405.0</ele><time>2026-03-22T08:59:07.999Z</time></trkpt><trkpt lat="42.52157666523172" lon="-2.5175730544693184"><ele>405.0</ele><time>2026-03-22T08:59:08.999Z</time></trkpt><trkpt lat="42.5216585913773" lon="-2.5175310007099654"><ele>405.0</ele><time>2026-03-22T08:59:09.999Z</time></trkpt><trkpt lat="42.52170731394448" lon="-2.517471467873039"><ele>405.0</ele><time>2026-03-22T08:59:10.999Z</time></trkpt><trkpt lat="42.52172890213783" lon="-2.5173878976537187"><ele>405.0</ele><time>2026-03-22T08:59:11.999Z</time></trkpt><trkpt lat="42.52174211055283" lon="-2.517295276162548"><ele>405.0</ele><time>2026-03-22T08:59:12.999Z</time></trkpt><trkpt lat="42.52175291036386" lon="-2.517177325579598"><ele>405.0</ele><time>2026-03-22T08:59:13.999Z</time></trkpt><trkpt lat="42.52176802947375" lon="-2.517049689771269"><ele>406.5</ele><time>2026-03-22T08:59:14.999Z</time></trkpt><trkpt lat="42.52178217428197" lon="-2.5169037679221997"><ele>408.0</ele><time>2026-03-22T08:59:15.999Z</time></trkpt><trkpt lat="42.52178895002116" lon="-2.51674343390474"><ele>409.5</ele><time>2026-03-22T08:59:16.998Z</time></trkpt><trkpt lat="42.521793353486174" lon="-2.516578308459327"><ele>411.0</ele><time>2026-03-22T08:59:17.998Z</time></trkpt><trkpt lat="42.52179880654209" lon="-2.516406662965802"><ele>413.5</ele><time>2026-03-22T08:59:18.998Z</time></trkpt><trkpt lat="42.52180214316892" lon="-2.516232478584558"><ele>416.0</ele><time>2026-03-22T08:59:19.998Z</time></trkpt><trkpt lat="42.52180890558685" lon="-2.5160568097610914"><ele>418.5</ele><time>2026-03-22T08:59:20.998Z</time></trkpt><trkpt lat="42.521815328381194" lon="-2.5158804093543625"><ele>421.0</ele><time>2026-03-22T08:59:21.998Z</time></trkpt><trkpt lat="42.52182042036928" lon="-2.515712439723895"><ele>421.00000000000006</ele><time>2026-03-22T08:59:22.998Z</time></trkpt><trkpt lat="42.521825361789524" lon="-2.515573027882087"><ele>421.0</ele><time>2026-03-22T08:59:23.998Z</time></trkpt><trkpt lat="42.521837029613394" lon="-2.5154585993396483"><ele>421.0</ele><time>2026-03-22T08:59:24.998Z</time></trkpt><trkpt lat="42.5218671623135" lon="-2.5153639042018456"><ele>421.0</ele><time>2026-03-22T08:59:25.998Z</time></trkpt><trkpt lat="42.52192406970026" lon="-2.5152922848986994"><ele>421.00000000000006</ele><time>2026-03-22T08:59:26.998Z</time></trkpt><trkpt lat="42.52200986035977" lon="-2.5152361889322785"><ele>421.0</ele><time>2026-03-22T08:59:27.998Z</time></trkpt><trkpt lat="42.522106508655625" lon="-2.515183515204251"><ele>423.75</ele><time>2026-03-22T08:59:28.998Z</time></trkpt><trkpt lat="42.52220725996488" lon="-2.5151124978092616"><ele>426.5</ele><time>2026-03-22T08:59:29.998Z</time></trkpt><trkpt lat="42.522307075672" lon="-2.515035105255788"><ele>429.25</ele><time>2026-03-22T08:59:30.998Z</time></trkpt><trkpt lat="42.52241030223656" lon="-2.514968676785146"><ele>432.0</ele><time>2026-03-22T08:59:31.998Z</time></trkpt><trkpt lat="42.52252678915562" lon="-2.5149207797021056"><ele>432.0</ele><time>2026-03-22T08:59:32.998Z</time></trkpt><trkpt lat="42.5226439161641" lon="-2.514890469609333"><ele>432.00000000000006</ele><time>2026-03-22T08:59:33.998Z</time></trkpt><trkpt lat="42.522751149722545" lon="-2.5148537825887582"><ele>432.00000000000006</ele><time>2026-03-22T08:59:34.998Z</time></trkpt><trkpt lat="42.522849953647295" lon="-2.5148025467895083"><ele>432.0</ele><time>2026-03-22T08:59:35.998Z</time></trkpt><trkpt lat="42.522948839229294" lon="-2.5147402675228023"><ele>432.0</ele><time>2026-03-22T08:59:36.998Z</time></trkpt><trkpt lat="42.5230552708575" lon="-2.5146687755947132"><ele>432.25</ele><time>2026-03-22T08:59:37.998Z</time></trkpt><trkpt lat="42.523167422626415" lon="-2.5145959589179014"><ele>432.5</ele><time>2026-03-22T08:59:38.998Z</time></trkpt><trkpt lat="42.523281943507584" lon="-2.5145214148779322"><ele>432.75</ele><time>2026-03-22T08:59:39.998Z</time></trkpt><trkpt lat="42.523393811755376" lon="-2.5144527680008673"><ele>433.0</ele><time>2026-03-22T08:59:40.998Z</time></trkpt><trkpt lat="42.52349183503653" lon="-2.5143908531805526"><ele>433.0</ele><time>2026-03-22T08:59:41.998Z</time></trkpt><trkpt lat="42.52357058643224" lon="-2.5143193393761316"><ele>432.99999999999994</ele><time>2026-03-22T08:59:43Z</time></trkpt><trkpt lat="42.52362832366848" lon="-2.514224324865397"><ele>432.99999999999994</ele><time>2026-03-22T08:59:44Z</time></trkpt><trkpt lat="42.52368083518642" lon="-2.514105424117654"><ele>433.0</ele><time>2026-03-22T08:59:45Z</time></trkpt><trkpt lat="42.52373354050802" lon="-2.513976813450614"><ele>433.0</ele><time>2026-03-22T08:59:46Z</time></trkpt><trkpt lat="42.523796046443394" lon="-2.513856089537138"><ele>431.79999999999995</ele><time>2026-03-22T08:59:47Z</time></trkpt><trkpt lat="42.523866432457986" lon="-2.513747169577214"><ele>430.59999999999997</ele><time>2026-03-22T08:59:48Z</time></trkpt><trkpt lat="42.523943758498106" lon="-2.5136589871760577"><ele>429.40000000000003</ele><time>2026-03-22T08:59:49Z</time></trkpt><trkpt lat="42.52402449857166" lon="-2.5135947868943047"><ele>428.20000000000005</ele><time>2026-03-22T08:59:50Z</time></trkpt><trkpt lat="42.5241020200839" lon="-2.513555672843449"><ele>427.0</ele><time>2026-03-22T08:59:51Z</time></trkpt><trkpt lat="42.52419106934687" lon="-2.513543158442597"><ele>426.8</ele><time>2026-03-22T08:59:52Z</time></trkpt><trkpt lat="42.52429647421652" lon="-2.5135648538109194"><ele>426.6</ele><time>2026-03-22T08:59:53Z</time></trkpt><trkpt lat="42.524411233292035" lon="-2.513592232694572"><ele>426.40000000000003</ele><time>2026-03-22T08:59:54Z</time></trkpt><trkpt lat="42.52452054616069" lon="-2.5136067754005453"><ele>426.20000000000005</ele><time>2026-03-22T08:59:55Z</time></trkpt><trkpt lat="42.52462594558822" lon="-2.5136018480894005"><ele>426.0</ele><time>2026-03-22T08:59:56Z</time></trkpt><trkpt lat="42.524731705106596" lon="-2.5135894135730856"><ele>425.6</ele><time>2026-03-22T08:59:57Z</time></trkpt><trkpt lat="42.52484023756204" lon="-2.5135702480973428"><ele>425.20000000000005</ele><time>2026-03-22T08:59:58Z</time></trkpt><trkpt lat="42.52494771980824" lon="-2.5135529179154847"><ele>424.79999999999995</ele><time>2026-03-22T08:59:59Z</time></trkpt><trkpt lat="42.52505265411382" lon="-2.513542191326286"><ele>424.4</ele><time>2026-03-22T09:00:00Z</time></trkpt><trkpt lat="42.52515924570579" lon="-2.5135320895208673"><ele>424.0</ele><time>2026-03-22T09:00:01Z</time></trkpt><trkpt lat="42.52525833388214" lon="-2.5135142036345655"><ele>424.00000000000006</ele><time>2026-03-22T09:00:02Z</time></trkpt><trkpt lat="42.52534645606528" lon="-2.513494821841611"><ele>424.0</ele><time>2026-03-22T09:00:03Z</time></trkpt><trkpt lat="42.52542544508024" lon="-2.5134815451895123"><ele>424.0</ele><time>2026-03-22T09:00:04Z</time></trkpt><trkpt lat="42.52548955421519" lon="-2.5134695975862713"><ele>424.0</ele><time>2026-03-22T09:00:05Z</time></trkpt><trkpt lat="42.525568763278024" lon="-2.513430262959802"><ele>424.00000000000006</ele><time>2026-03-22T09:00:07Z</time></trkpt><trkpt lat="42.5256511305769" lon="-2.5133926045975667"><ele>424.0</ele><time>2026-03-22T09:00:09Z</time></trkpt><trkpt lat="42.52572680786769" lon="-2.513378785312563"><ele>424.6</ele><time>2026-03-22T09:00:10Z</time></trkpt><trkpt lat="42.52582343782139" lon="-2.5133661435951007"><ele>425.2</ele><time>2026-03-22T09:00:11Z</time></trkpt><trkpt lat="42.525927285325224" lon="-2.5133369962319363"><ele>425.80000000000007</ele><time>2026-03-22T09:00:12Z</time></trkpt><trkpt lat="42.526034513845055" lon="-2.5132947537938195"><ele>426.40000000000003</ele><time>2026-03-22T09:00:13Z</time></trkpt><trkpt lat="42.52612875933176" lon="-2.5132515305346237"><ele>427.0</ele><time>2026-03-22T09:00:14Z</time></trkpt><trkpt lat="42.52623316427358" lon="-2.5132014002262766"><ele>428.6</ele><time>2026-03-22T09:00:15Z</time></trkpt><trkpt lat="42.526345483895604" lon="-2.5131593783358612"><ele>430.20000000000005</ele><time>2026-03-22T09:00:16Z</time></trkpt><trkpt lat="42.526456126031164" lon="-2.513131230896379"><ele>431.8</ele><time>2026-03-22T09:00:17Z</time></trkpt><trkpt lat="42.52655672797781" lon="-2.513122674663865"><ele>433.4</ele><time>2026-03-22T09:00:18Z</time></trkpt><trkpt lat="42.52664930031111" lon="-2.513120919341122"><ele>435.0</ele><time>2026-03-22T09:00:19Z</time></trkpt><trkpt lat="42.52672306388033" lon="-2.513127906853079"><ele>435.0</ele><time>2026-03-22T09:00:20Z</time></trkpt><trkpt lat="42.52676256665108" lon="-2.5133160508695935"><ele>435.0</ele><time>2026-03-22T09:00:24Z</time></trkpt><trkpt lat="42.52670187824225" lon="-2.5134691351891703"><ele>435.0</ele><time>2026-03-22T09:00:26Z</time></trkpt><trkpt lat="42.52669039412809" lon="-2.513639476472165"><ele>435.0</ele><time>2026-03-22T09:00:27.999Z</time></trkpt><trkpt lat="42.52669795957686" lon="-2.513760506719325"><ele>435.4</ele><time>2026-03-22T09:00:28.999Z</time></trkpt><trkpt lat="42.526702391121944" lon="-2.5138851904674753"><ele>435.8</ele><time>2026-03-22T09:00:29.999Z</time></trkpt><trkpt lat="42.526689832607595" lon="-2.514010113883685"><ele>436.20000000000005</ele><time>2026-03-22T09:00:30.999Z</time></trkpt><trkpt lat="42.52663906952187" lon="-2.514128761836372"><ele>436.6</ele><time>2026-03-22T09:00:31.999Z</time></trkpt><trkpt lat="42.52658579096487" lon="-2.514231199580653"><ele>437.0</ele><time>2026-03-22T09:00:32.999Z</time></trkpt><trkpt lat="42.526535394816186" lon="-2.514317547207533"><ele>436.99999999999994</ele><time>2026-03-22T09:00:33.999Z</time></trkpt><trkpt lat="42.52648875525968" lon="-2.514385089072854"><ele>437.0</ele><time>2026-03-22T09:00:34.999Z</time></trkpt><trkpt lat="42.52643150726527" lon="-2.514433095709464"><ele>437.0</ele><time>2026-03-22T09:00:35.999Z</time></trkpt><trkpt lat="42.52634188625774" lon="-2.5144351742133386"><ele>437.0</ele><time>2026-03-22T09:00:36.999Z</time></trkpt><trkpt lat="42.52626134823823" lon="-2.514401513430362"><ele>436.99999999999994</ele><time>2026-03-22T09:00:37.999Z</time></trkpt><trkpt lat="42.52619285914953" lon="-2.5144015134320314"><ele>437.0</ele><time>2026-03-22T09:00:38.999Z</time></trkpt><trkpt lat="42.52612068300062" lon="-2.5144695529202545"><ele>435.8333333333333</ele><time>2026-03-22T09:00:40.999Z</time></trkpt><trkpt lat="42.526124353006615" lon="-2.514575514560493"><ele>434.66666666666663</ele><time>2026-03-22T09:00:42.999Z</time></trkpt><trkpt lat="42.5261462058729" lon="-2.514701852811645"><ele>433.5</ele><time>2026-03-22T09:00:44.999Z</time></trkpt><trkpt lat="42.52621622738629" lon="-2.5148072917934234"><ele>432.33333333333337</ele><time>2026-03-22T09:00:46.999Z</time></trkpt><trkpt lat="42.52628516143653" lon="-2.5148438638194093"><ele>431.1666666666667</ele><time>2026-03-22T09:00:47.999Z</time></trkpt><trkpt lat="42.52636026451252" lon="-2.514874890203471"><ele>430.0</ele><time>2026-03-22T09:00:48.999Z</time></trkpt><trkpt lat="42.52642192015551" lon="-2.5149541198772076"><ele>430.00000000000006</ele><time>2026-03-22T09:00:49.999Z</time></trkpt><trkpt lat="42.52647410585681" lon="-2.5150562430649885"><ele>430.0</ele><time>2026-03-22T09:00:50.999Z</time></trkpt><trkpt lat="42.526532072915366" lon="-2.5151602243218676"><ele>430.0</ele><time>2026-03-22T09:00:51.999Z</time></trkpt><trkpt lat="42.5265947121688" lon="-2.5152474678001155"><ele>430.0</ele><time>2026-03-22T09:00:52.999Z</time></trkpt><trkpt lat="42.526653446136166" lon="-2.5153190832434227"><ele>430.00000000000006</ele><time>2026-03-22T09:00:53.999Z</time></trkpt><trkpt lat="42.52671336028135" lon="-2.515403708119842"><ele>430.0</ele><time>2026-03-22T09:00:54.999Z</time></trkpt><trkpt lat="42.52676527048279" lon="-2.5155028922616096"><ele>428.85714285714283</ele><time>2026-03-22T09:00:55.999Z</time></trkpt><trkpt lat="42.5268044242357" lon="-2.51559966232998"><ele>427.7142857142857</ele><time>2026-03-22T09:00:56.999Z</time></trkpt><trkpt lat="42.526837920931435" lon="-2.5156892795103887"><ele>426.57142857142856</ele><time>2026-03-22T09:00:57.999Z</time></trkpt><trkpt lat="42.526872812329785" lon="-2.5157704483870496"><ele>425.42857142857144</ele><time>2026-03-22T09:00:58.999Z</time></trkpt><trkpt lat="42.52691594218285" lon="-2.5158327350017946"><ele>424.28571428571433</ele><time>2026-03-22T09:00:59.999Z</time></trkpt><trkpt lat="42.526965160924505" lon="-2.515890108368383"><ele>423.14285714285717</ele><time>2026-03-22T09:01:00.999Z</time></trkpt><trkpt lat="42.52704256811414" lon="-2.5159048197080547"><ele>422.0</ele><time>2026-03-22T09:01:01.999Z</time></trkpt><trkpt lat="42.52711724040776" lon="-2.5159135434640607"><ele>421.99999999999994</ele><time>2026-03-22T09:01:02.999Z</time></trkpt><trkpt lat="42.5271869218428" lon="-2.5159341132598767"><ele>422.0</ele><time>2026-03-22T09:01:03.999Z</time></trkpt><trkpt lat="42.52724308148261" lon="-2.515973812900105"><ele>422.0</ele><time>2026-03-22T09:01:04.999Z</time></trkpt><trkpt lat="42.52730099526388" lon="-2.516007956326878"><ele>422.0</ele><time>2026-03-22T09:01:05.999Z</time></trkpt><trkpt lat="42.52734384434191" lon="-2.51608297972938"><ele>421.99999999999994</ele><time>2026-03-22T09:01:06.999Z</time></trkpt><trkpt lat="42.52741367359762" lon="-2.516208933601787"><ele>422.0</ele><time>2026-03-22T09:01:08.999Z</time></trkpt><trkpt lat="42.527502665329756" lon="-2.5163060954013527"><ele>420.0</ele><time>2026-03-22T09:01:10.999Z</time></trkpt><trkpt lat="42.5275620685294" lon="-2.5163734179034853"><ele>418.0</ele><time>2026-03-22T09:01:11.999Z</time></trkpt><trkpt lat="42.5276453132553" lon="-2.516409568976949"><ele>416.0</ele><time>2026-03-22T09:01:12.999Z</time></trkpt><trkpt lat="42.52772551611281" lon="-2.5164877061208686"><ele>414.0</ele><time>2026-03-22T09:01:13.999Z</time></trkpt><trkpt lat="42.52780263541824" lon="-2.516575963210372"><ele>412.0</ele><time>2026-03-22T09:01:14.999Z</time></trkpt><trkpt lat="42.527893639286916" lon="-2.516631282532622"><ele>412.0</ele><time>2026-03-22T09:01:15.999Z</time></trkpt><trkpt lat="42.52797150610099" lon="-2.51671807180711"><ele>412.0</ele><time>2026-03-22T09:01:16.999Z</time></trkpt><trkpt lat="42.528057088818464" lon="-2.5167844059999314"><ele>412.0</ele><time>2026-03-22T09:01:17.999Z</time></trkpt><trkpt lat="42.52814213772409" lon="-2.5168497172811564"><ele>412.0</ele><time>2026-03-22T09:01:18.999Z</time></trkpt><trkpt lat="42.5282274533981" lon="-2.516891109864411"><ele>412.0</ele><time>2026-03-22T09:01:19.999Z</time></trkpt><trkpt lat="42.52832163388498" lon="-2.516893049045989"><ele>412.0</ele><time>2026-03-22T09:01:20.999Z</time></trkpt><trkpt lat="42.52841923724839" lon="-2.516876748454826"><ele>412.0</ele><time>2026-03-22T09:01:21.999Z</time></trkpt><trkpt lat="42.52851835222865" lon="-2.516859735190936"><ele>412.0</ele><time>2026-03-22T09:01:22.999Z</time></trkpt><trkpt lat="42.5286181705009" lon="-2.516840496575519"><ele>412.0</ele><time>2026-03-22T09:01:23.998Z</time></trkpt><trkpt lat="42.52871797046618" lon="-2.516821595256916"><ele>412.0</ele><time>2026-03-22T09:01:24.998Z</time></trkpt><trkpt lat="42.5288030062875" lon="-2.516799883939806"><ele>411.33333333333337</ele><time>2026-03-22T09:01:25.998Z</time></trkpt><trkpt lat="42.52888192043598" lon="-2.5167597391372594"><ele>410.6666666666667</ele><time>2026-03-22T09:01:26.998Z</time></trkpt><trkpt lat="42.52896136888593" lon="-2.5167240442552794"><ele>410.0</ele><time>2026-03-22T09:01:27.998Z</time></trkpt><trkpt lat="42.52903949184587" lon="-2.5166988249277042"><ele>409.33333333333337</ele><time>2026-03-22T09:01:28.998Z</time></trkpt><trkpt lat="42.52911621189829" lon="-2.5166529132352085"><ele>408.6666666666667</ele><time>2026-03-22T09:01:30.998Z</time></trkpt><trkpt lat="42.52920485563264" lon="-2.516726923767228"><ele>408.0</ele><time>2026-03-22T09:01:32.998Z</time></trkpt><trkpt lat="42.52920150190112" lon="-2.516843657126103"><ele>408.0</ele><time>2026-03-22T09:01:33.998Z</time></trkpt><trkpt lat="42.52916048291081" lon="-2.516953679634067"><ele>408.0</ele><time>2026-03-22T09:01:34.998Z</time></trkpt><trkpt lat="42.529134022729906" lon="-2.5170575660850645"><ele>408.0</ele><time>2026-03-22T09:01:35.998Z</time></trkpt><trkpt lat="42.52911420015981" lon="-2.517166063081851"><ele>408.0</ele><time>2026-03-22T09:01:36.998Z</time></trkpt><trkpt lat="42.52910513244738" lon="-2.517318929789073"><ele>408.0</ele><time>2026-03-22T09:01:38.998Z</time></trkpt><trkpt lat="42.52917758792501" lon="-2.517468758542862"><ele>407.0</ele><time>2026-03-22T09:01:40.998Z</time></trkpt><trkpt lat="42.5292176956528" lon="-2.5175465279336704"><ele>406.0</ele><time>2026-03-22T09:01:41.998Z</time></trkpt><trkpt lat="42.529287706238286" lon="-2.517648228763067"><ele>405.0</ele><time>2026-03-22T09:01:43.998Z</time></trkpt><trkpt lat="42.52937442254614" lon="-2.517656917738208"><ele>404.0</ele><time>2026-03-22T09:01:46.998Z</time></trkpt><trkpt lat="42.529408371341226" lon="-2.5175776675065276"><ele>403.0</ele><time>2026-03-22T09:01:47.998Z</time></trkpt><trkpt lat="42.52951566687195" lon="-2.517478044104559"><ele>404.33333333333337</ele><time>2026-03-22T09:01:50Z</time></trkpt><trkpt lat="42.52956638179134" lon="-2.5174137969639103"><ele>405.6666666666667</ele><time>2026-03-22T09:01:51Z</time></trkpt><trkpt lat="42.52962295517573" lon="-2.517351908906193"><ele>407.0</ele><time>2026-03-22T09:01:52Z</time></trkpt><trkpt lat="42.529675685584145" lon="-2.517296050973891"><ele>408.33333333333337</ele><time>2026-03-22T09:01:53Z</time></trkpt><trkpt lat="42.52977740252403" lon="-2.5172056021280547"><ele>409.6666666666667</ele><time>2026-03-22T09:01:55Z</time></trkpt><trkpt lat="42.529834649579094" lon="-2.5171670236628096"><ele>411.0</ele><time>2026-03-22T09:01:56Z</time></trkpt><trkpt lat="42.52989635655402" lon="-2.517128795574351"><ele>411.0</ele><time>2026-03-22T09:01:57Z</time></trkpt><trkpt lat="42.529957526631435" lon="-2.5170809443175757"><ele>411.0</ele><time>2026-03-22T09:01:58Z</time></trkpt><trkpt lat="42.53000898212349" lon="-2.517010091777241"><ele>411.0</ele><time>2026-03-22T09:01:59Z</time></trkpt><trkpt lat="42.53007443812721" lon="-2.5169518549167087"><ele>411.0</ele><time>2026-03-22T09:02:00Z</time></trkpt><trkpt lat="42.53013142200394" lon="-2.516896698986384"><ele>411.0</ele><time>2026-03-22T09:02:01Z</time></trkpt><trkpt lat="42.53018631181014" lon="-2.5168408321618982"><ele>411.0</ele><time>2026-03-22T09:02:02Z</time></trkpt><trkpt lat="42.53023516792152" lon="-2.516782166130791"><ele>411.0</ele><time>2026-03-22T09:02:03Z</time></trkpt><trkpt lat="42.530295962698695" lon="-2.5166365066686653"><ele>411.1666666666667</ele><time>2026-03-22T09:02:05Z</time></trkpt><trkpt lat="42.53031697229148" lon="-2.5164715765002605"><ele>411.33333333333337</ele><time>2026-03-22T09:02:07Z</time></trkpt><trkpt lat="42.530308277519914" lon="-2.5163809455669988"><ele>411.5</ele><time>2026-03-22T09:02:08Z</time></trkpt><trkpt lat="42.53029266830058" lon="-2.5162713878873686"><ele>411.6666666666667</ele><time>2026-03-22T09:02:09Z</time></trkpt><trkpt lat="42.53028901850172" lon="-2.516150501888323"><ele>411.83333333333337</ele><time>2026-03-22T09:02:10Z</time></trkpt><trkpt lat="42.530269957348374" lon="-2.516040591154931"><ele>412.0</ele><time>2026-03-22T09:02:11Z</time></trkpt><trkpt lat="42.53025029733039" lon="-2.5159468726157925"><ele>412.00000000000006</ele><time>2026-03-22T09:02:12Z</time></trkpt><trkpt lat="42.5302224978653" lon="-2.5158016092550106"><ele>412.0</ele><time>2026-03-22T09:02:14Z</time></trkpt><trkpt lat="42.53023891229884" lon="-2.5156939946452903"><ele>412.0</ele><time>2026-03-22T09:02:24Z</time></trkpt><trkpt lat="42.53024656701457" lon="-2.515563861163543"><ele>412.0</ele><time>2026-03-22T09:02:26Z</time></trkpt><trkpt lat="42.53026927771719" lon="-2.5154774781656575"><ele>412.00000000000006</ele><time>2026-03-22T09:02:27Z</time></trkpt><trkpt lat="42.5302951064254" lon="-2.515394616566806"><ele>412.0</ele><time>2026-03-22T09:02:28Z</time></trkpt><trkpt lat="42.53034146913789" lon="-2.5152809223892"><ele>413.6666666666667</ele><time>2026-03-22T09:02:30Z</time></trkpt><trkpt lat="42.5304248838848" lon="-2.5152111663170893"><ele>415.33333333333337</ele><time>2026-03-22T09:02:31.999Z</time></trkpt><trkpt lat="42.530489466961996" lon="-2.5151819418020613"><ele>417.0</ele><time>2026-03-22T09:02:32.999Z</time></trkpt><trkpt lat="42.5305599653787" lon="-2.5151590410871223"><ele>418.66666666666663</ele><time>2026-03-22T09:02:33.999Z</time></trkpt><trkpt lat="42.53063174505963" lon="-2.515135116930259"><ele>420.3333333333333</ele><time>2026-03-22T09:02:34.999Z</time></trkpt><trkpt lat="42.53070486967904" lon="-2.5150946606962328"><ele>422.0</ele><time>2026-03-22T09:02:35.999Z</time></trkpt><trkpt lat="42.53077571574995" lon="-2.515040986444345"><ele>422.0</ele><time>2026-03-22T09:02:36.999Z</time></trkpt><trkpt lat="42.530844472792985" lon="-2.514971222436184"><ele>422.0</ele><time>2026-03-22T09:02:37.999Z</time></trkpt><trkpt lat="42.53090995204786" lon="-2.5148920881686903"><ele>422.0</ele><time>2026-03-22T09:02:38.999Z</time></trkpt><trkpt lat="42.530981109433306" lon="-2.5148101099830416"><ele>422.0</ele><time>2026-03-22T09:02:39.999Z</time></trkpt><trkpt lat="42.53105416239794" lon="-2.5147354269316398"><ele>422.0</ele><time>2026-03-22T09:02:40.999Z</time></trkpt><trkpt lat="42.5311448120334" lon="-2.5146872278796844"><ele>421.99999999999994</ele><time>2026-03-22T09:02:41.999Z</time></trkpt><trkpt lat="42.53122164169071" lon="-2.514624317023579"><ele>422.0</ele><time>2026-03-22T09:02:42.999Z</time></trkpt><trkpt lat="42.53129996376757" lon="-2.514572124851245"><ele>422.0</ele><time>2026-03-22T09:02:43.999Z</time></trkpt><trkpt lat="42.53136513033496" lon="-2.5144951882028828"><ele>422.0</ele><time>2026-03-22T09:02:44.999Z</time></trkpt><trkpt lat="42.53143234331491" lon="-2.5144416894200736"><ele>421.99999999999994</ele><time>2026-03-22T09:02:45.999Z</time></trkpt><trkpt lat="42.53149426257541" lon="-2.5143991214847103"><ele>422.0</ele><time>2026-03-22T09:02:46.999Z</time></trkpt><trkpt lat="42.531599983781824" lon="-2.5143538192310193"><ele>421.16666666666663</ele><time>2026-03-22T09:02:48.999Z</time></trkpt><trkpt lat="42.53167538507657" lon="-2.514352485034942"><ele>420.3333333333333</ele><time>2026-03-22T09:02:49.999Z</time></trkpt><trkpt lat="42.5317446004112" lon="-2.514364796985617"><ele>419.5</ele><time>2026-03-22T09:02:50.999Z</time></trkpt><trkpt lat="42.53182024887109" lon="-2.514379605399323"><ele>418.66666666666663</ele><time>2026-03-22T09:02:51.999Z</time></trkpt><trkpt lat="42.53189652599512" lon="-2.514391629850918"><ele>417.8333333333333</ele><time>2026-03-22T09:02:52.999Z</time></trkpt><trkpt lat="42.53197499737896" lon="-2.5143982452723597"><ele>417.0</ele><time>2026-03-22T09:02:53.999Z</time></trkpt><trkpt lat="42.53205059856383" lon="-2.514397229934079"><ele>417.8571428571429</ele><time>2026-03-22T09:02:54.999Z</time></trkpt><trkpt lat="42.532112441773336" lon="-2.5143703746536707"><ele>418.71428571428567</ele><time>2026-03-22T09:02:55.999Z</time></trkpt><trkpt lat="42.532184174536255" lon="-2.514352608818497"><ele>419.57142857142856</ele><time>2026-03-22T09:02:56.999Z</time></trkpt><trkpt lat="42.53224099169539" lon="-2.514288639369277"><ele>420.42857142857144</ele><time>2026-03-22T09:02:57.999Z</time></trkpt><trkpt lat="42.53229525312456" lon="-2.514215915943419"><ele>421.28571428571433</ele><time>2026-03-22T09:02:58.999Z</time></trkpt><trkpt lat="42.532351739377226" lon="-2.5141497320630095"><ele>422.1428571428571</ele><time>2026-03-22T09:02:59.999Z</time></trkpt><trkpt lat="42.53241996390906" lon="-2.514088540752419"><ele>423.0</ele><time>2026-03-22T09:03:00.999Z</time></trkpt><trkpt lat="42.532474215120786" lon="-2.514023034439177"><ele>423.0</ele><time>2026-03-22T09:03:01.999Z</time></trkpt><trkpt lat="42.53252069118163" lon="-2.513952032226697"><ele>423.0</ele><time>2026-03-22T09:03:02.999Z</time></trkpt><trkpt lat="42.5325698469715" lon="-2.513883245335046"><ele>423.0</ele><time>2026-03-22T09:03:03.999Z</time></trkpt><trkpt lat="42.53263927518897" lon="-2.5138464255404043"><ele>423.0</ele><time>2026-03-22T09:03:04.999Z</time></trkpt><trkpt lat="42.53272257811666" lon="-2.513734332219585"><ele>423.0</ele><time>2026-03-22T09:03:06.999Z</time></trkpt><trkpt lat="42.53276603034641" lon="-2.513589694740619"><ele>423.0</ele><time>2026-03-22T09:03:08.999Z</time></trkpt><trkpt lat="42.532763005844586" lon="-2.5135040720642214"><ele>422.3333333333333</ele><time>2026-03-22T09:03:09.999Z</time></trkpt><trkpt lat="42.53275490098508" lon="-2.5134113327730585"><ele>421.66666666666663</ele><time>2026-03-22T09:03:10.999Z</time></trkpt><trkpt lat="42.53276747772963" lon="-2.513323348283066"><ele>421.0</ele><time>2026-03-22T09:03:11.999Z</time></trkpt><trkpt lat="42.53280460645311" lon="-2.513247081164274"><ele>420.3333333333333</ele><time>2026-03-22T09:03:12.999Z</time></trkpt><trkpt lat="42.5328515725715" lon="-2.5131883971194546"><ele>419.66666666666663</ele><time>2026-03-22T09:03:13.999Z</time></trkpt><trkpt lat="42.53289910729484" lon="-2.5131226983358306"><ele>419.0</ele><time>2026-03-22T09:03:16.999Z</time></trkpt><trkpt lat="42.53278817948081" lon="-2.513173359932149"><ele>419.0</ele><time>2026-03-22T09:03:21.999Z</time></trkpt><trkpt lat="42.532697017149296" lon="-2.5132255014880496"><ele>419.0</ele><time>2026-03-22T09:03:23.999Z</time></trkpt><trkpt lat="42.532588031920504" lon="-2.5132118400339367"><ele>419.0</ele><time>2026-03-22T09:03:25.999Z</time></trkpt><trkpt lat="42.53245849006381" lon="-2.5131690770501254"><ele>419.0</ele><time>2026-03-22T09:03:27.998Z</time></trkpt><trkpt lat="42.53237502215811" lon="-2.5131308173921663"><ele>419.0</ele><time>2026-03-22T09:03:28.998Z</time></trkpt><trkpt lat="42.532284528430594" lon="-2.5130831311360664"><ele>419.0</ele><time>2026-03-22T09:03:29.998Z</time></trkpt><trkpt lat="42.532190069760304" lon="-2.5130288616367693"><ele>419.0</ele><time>2026-03-22T09:03:30.998Z</time></trkpt><trkpt lat="42.532080895076476" lon="-2.5129773202009114"><ele>419.0</ele><time>2026-03-22T09:03:31.998Z</time></trkpt><trkpt lat="42.531959666170806" lon="-2.512940549355006"><ele>419.0</ele><time>2026-03-22T09:03:32.998Z</time></trkpt><trkpt lat="42.53182166887447" lon="-2.5129357236023764"><ele>417.75</ele><time>2026-03-22T09:03:33.998Z</time></trkpt><trkpt lat="42.531677929882946" lon="-2.5129406037284294"><ele>416.5</ele><time>2026-03-22T09:03:34.998Z</time></trkpt><trkpt lat="42.531538371561254" lon="-2.5129260910998448"><ele>415.25</ele><time>2026-03-22T09:03:35.998Z</time></trkpt><trkpt lat="42.53139803949418" lon="-2.512871791012321"><ele>414.0</ele><time>2026-03-22T09:03:36.998Z</time></trkpt><trkpt lat="42.53128356413125" lon="-2.512780576855974"><ele>417.75</ele><time>2026-03-22T09:03:37.998Z</time></trkpt><trkpt lat="42.531181997747524" lon="-2.512689251011423"><ele>421.5</ele><time>2026-03-22T09:03:38.998Z</time></trkpt><trkpt lat="42.53107294302458" lon="-2.512634005134708"><ele>425.25</ele><time>2026-03-22T09:03:39.998Z</time></trkpt><trkpt lat="42.53095672594886" lon="-2.5126478205508787"><ele>429.0</ele><time>2026-03-22T09:03:40.998Z</time></trkpt><trkpt lat="42.53084683879829" lon="-2.5126977818467373"><ele>429.0</ele><time>2026-03-22T09:03:41.998Z</time></trkpt><trkpt lat="42.5307472173145" lon="-2.512777569046658"><ele>429.0</ele><time>2026-03-22T09:03:42.998Z</time></trkpt><trkpt lat="42.53063621190736" lon="-2.5128816599009225"><ele>429.0</ele><time>2026-03-22T09:03:43.998Z</time></trkpt><trkpt lat="42.53051934996118" lon="-2.5129724449850674"><ele>429.0</ele><time>2026-03-22T09:03:44.998Z</time></trkpt><trkpt lat="42.53038365677898" lon="-2.513010876301034"><ele>428.33333333333337</ele><time>2026-03-22T09:03:45.998Z</time></trkpt><trkpt lat="42.53023937980766" lon="-2.513031511374989"><ele>427.6666666666667</ele><time>2026-03-22T09:03:46.998Z</time></trkpt><trkpt lat="42.53008941252474" lon="-2.5130619563285834"><ele>427.0</ele><time>2026-03-22T09:03:47.998Z</time></trkpt><trkpt lat="42.529935666386244" lon="-2.5130862118926656"><ele>427.0</ele><time>2026-03-22T09:03:48.998Z</time></trkpt><trkpt lat="42.52977405074109" lon="-2.5131100471437127"><ele>427.0</ele><time>2026-03-22T09:03:49.998Z</time></trkpt><trkpt lat="42.529608473011756" lon="-2.513112971953689"><ele>427.0</ele><time>2026-03-22T09:03:50.998Z</time></trkpt><trkpt lat="42.52944932202109" lon="-2.5131835938779106"><ele>429.6666666666667</ele><time>2026-03-22T09:03:51.998Z</time></trkpt><trkpt lat="42.529300439113634" lon="-2.513255806194138"><ele>432.33333333333337</ele><time>2026-03-22T09:03:52.998Z</time></trkpt><trkpt lat="42.52915207413241" lon="-2.5133276423197626"><ele>435.0</ele><time>2026-03-22T09:03:53.998Z</time></trkpt><trkpt lat="42.529014783719795" lon="-2.513383666088636"><ele>435.0</ele><time>2026-03-22T09:03:55Z</time></trkpt><trkpt lat="42.52886913801688" lon="-2.5133916648970565"><ele>435.0</ele><time>2026-03-22T09:03:56Z</time></trkpt><trkpt lat="42.528730208067614" lon="-2.513385786446349"><ele>435.0</ele><time>2026-03-22T09:03:57Z</time></trkpt><trkpt lat="42.52859093109965" lon="-2.5133366344224592"><ele>435.0</ele><time>2026-03-22T09:03:58Z</time></trkpt><trkpt lat="42.52846269106334" lon="-2.5132567426588555"><ele>435.4</ele><time>2026-03-22T09:03:59Z</time></trkpt><trkpt lat="42.52836256267489" lon="-2.5131820825555597"><ele>435.8</ele><time>2026-03-22T09:04:00Z</time></trkpt><trkpt lat="42.528258471454585" lon="-2.513164987446288"><ele>436.20000000000005</ele><time>2026-03-22T09:04:01Z</time></trkpt><trkpt lat="42.52816801884276" lon="-2.5131515615308895"><ele>436.6</ele><time>2026-03-22T09:04:02Z</time></trkpt><trkpt lat="42.52807499495538" lon="-2.513124452954812"><ele>437.0</ele><time>2026-03-22T09:04:03Z</time></trkpt><trkpt lat="42.527975822674385" lon="-2.513126282357511"><ele>437.75</ele><time>2026-03-22T09:04:04Z</time></trkpt><trkpt lat="42.52787171639704" lon="-2.513155352419373"><ele>438.5</ele><time>2026-03-22T09:04:05Z</time></trkpt><trkpt lat="42.52775410426491" lon="-2.5131657527940527"><ele>439.25</ele><time>2026-03-22T09:04:06Z</time></trkpt><trkpt lat="42.52762409508203" lon="-2.5131715149617615"><ele>440.0</ele><time>2026-03-22T09:04:07Z</time></trkpt><trkpt lat="42.5274871978495" lon="-2.5131551148052305"><ele>440.0</ele><time>2026-03-22T09:04:08Z</time></trkpt><trkpt lat="42.527345327871124" lon="-2.5131507512462186"><ele>440.0</ele><time>2026-03-22T09:04:09Z</time></trkpt><trkpt lat="42.527209192020464" lon="-2.5131763990203666"><ele>440.0</ele><time>2026-03-22T09:04:10Z</time></trkpt><trkpt lat="42.52709360734772" lon="-2.5131935624957884"><ele>440.0</ele><time>2026-03-22T09:04:11Z</time></trkpt><trkpt lat="42.52699559149288" lon="-2.5132035266611674"><ele>439.0</ele><time>2026-03-22T09:04:12Z</time></trkpt><trkpt lat="42.52691436309287" lon="-2.5132060768558073"><ele>438.0</ele><time>2026-03-22T09:04:13Z</time></trkpt><trkpt lat="42.526798672537474" lon="-2.513216383283819"><ele>437.0</ele><time>2026-03-22T09:04:15Z</time></trkpt><trkpt lat="42.52673307860769" lon="-2.5133617026106028"><ele>436.0</ele><time>2026-03-22T09:04:17Z</time></trkpt><trkpt lat="42.5267078388249" lon="-2.513451858524097"><ele>435.0</ele><time>2026-03-22T09:04:19Z</time></trkpt><trkpt lat="42.526691535042005" lon="-2.5136099311182893"><ele>435.0</ele><time>2026-03-22T09:04:37.999Z</time></trkpt><trkpt lat="42.52669535531642" lon="-2.5137185166835483"><ele>435.0</ele><time>2026-03-22T09:04:38.999Z</time></trkpt><trkpt lat="42.52670189569436" lon="-2.5138419903668088"><ele>435.0</ele><time>2026-03-22T09:04:39.999Z</time></trkpt><trkpt lat="42.52670004017545" lon="-2.513961473326288"><ele>435.0</ele><time>2026-03-22T09:04:40.999Z</time></trkpt><trkpt lat="42.5266550071048" lon="-2.514094020309186"><ele>435.0</ele><time>2026-03-22T09:04:41.999Z</time></trkpt><trkpt lat="42.52659986355332" lon="-2.514204539737292"><ele>435.3333333333333</ele><time>2026-03-22T09:04:42.999Z</time></trkpt><trkpt lat="42.52654464877139" lon="-2.514301698329714"><ele>435.66666666666663</ele><time>2026-03-22T09:04:43.999Z</time></trkpt><trkpt lat="42.526491811355655" lon="-2.5143808056897843"><ele>436.0</ele><time>2026-03-22T09:04:44.999Z</time></trkpt><trkpt lat="42.52642973544523" lon="-2.514434650810713"><ele>436.3333333333333</ele><time>2026-03-22T09:04:45.999Z</time></trkpt><trkpt lat="42.52635100970264" lon="-2.5144327974003087"><ele>436.66666666666663</ele><time>2026-03-22T09:04:46.999Z</time></trkpt><trkpt lat="42.52627969188579" lon="-2.514401514983606"><ele>437.0</ele><time>2026-03-22T09:04:47.999Z</time></trkpt><trkpt lat="42.5262079066457" lon="-2.5144015149865853"><ele>435.6</ele><time>2026-03-22T09:04:48.999Z</time></trkpt><trkpt lat="42.52610802351493" lon="-2.514450925999414"><ele>434.20000000000005</ele><time>2026-03-22T09:04:50.999Z</time></trkpt><trkpt lat="42.526122777403586" lon="-2.514568269390662"><ele>432.8</ele><time>2026-03-22T09:04:52.999Z</time></trkpt><trkpt lat="42.52614930223669" lon="-2.514711408714038"><ele>431.4</ele><time>2026-03-22T09:04:54.999Z</time></trkpt><trkpt lat="42.52623276921495" lon="-2.5148149543915927"><ele>430.0</ele><time>2026-03-22T09:04:56.999Z</time></trkpt><trkpt lat="42.52629809254443" lon="-2.5148550364512268"><ele>430.0</ele><time>2026-03-22T09:04:57.999Z</time></trkpt><trkpt lat="42.526375492831754" lon="-2.514888651123703"><ele>430.0</ele><time>2026-03-22T09:04:58.999Z</time></trkpt><trkpt lat="42.52644103931072" lon="-2.5149892523725432"><ele>430.0</ele><time>2026-03-22T09:04:59.999Z</time></trkpt><trkpt lat="42.52650171646593" lon="-2.5151086558615985"><ele>430.0</ele><time>2026-03-22T09:05:00.999Z</time></trkpt><trkpt lat="42.52657418469711" lon="-2.515221525863463"><ele>430.0</ele><time>2026-03-22T09:05:01.999Z</time></trkpt><trkpt lat="42.52666027203619" lon="-2.5153251122742386"><ele>426.4</ele><time>2026-03-22T09:05:02.999Z</time></trkpt><trkpt lat="42.52672832381701" lon="-2.5154306810987346"><ele>422.8</ele><time>2026-03-22T09:05:03.999Z</time></trkpt><trkpt lat="42.52678378349607" lon="-2.5155429639817894"><ele>419.20000000000005</ele><time>2026-03-22T09:05:04.999Z</time></trkpt><trkpt lat="42.526825934375346" lon="-2.515658040376046"><ele>415.6</ele><time>2026-03-22T09:05:05.999Z</time></trkpt><trkpt lat="42.526866392088536" lon="-2.5157559153528335"><ele>412.0</ele><time>2026-03-22T09:05:06.999Z</time></trkpt><trkpt lat="42.52693859186078" lon="-2.5158782645061786"><ele>412.00000000000006</ele><time>2026-03-22T09:05:08.999Z</time></trkpt><trkpt lat="42.527015334626846" lon="-2.515896980971901"><ele>412.0</ele><time>2026-03-22T09:05:09.999Z</time></trkpt><trkpt lat="42.52710190270636" lon="-2.515908844105448"><ele>412.0</ele><time>2026-03-22T09:05:10.999Z</time></trkpt><trkpt lat="42.527186453595334" lon="-2.5159278484686665"><ele>412.0</ele><time>2026-03-22T09:05:11.999Z</time></trkpt><trkpt lat="42.52726159135041" lon="-2.5159800119141247"><ele>412.00000000000006</ele><time>2026-03-22T09:05:12.999Z</time></trkpt><trkpt lat="42.52732437922834" lon="-2.5160690624887825"><ele>412.0</ele><time>2026-03-22T09:05:13.999Z</time></trkpt><trkpt lat="42.527392576251195" lon="-2.516172644686993"><ele>411.20000000000005</ele><time>2026-03-22T09:05:14.999Z</time></trkpt><trkpt lat="42.527448620820905" lon="-2.5162598089259176"><ele>410.4</ele><time>2026-03-22T09:05:15.999Z</time></trkpt><trkpt lat="42.52750968141429" lon="-2.516318946145722"><ele>409.6</ele><time>2026-03-22T09:05:16.999Z</time></trkpt><trkpt lat="42.527585220167644" lon="-2.5163650657509713"><ele>408.79999999999995</ele><time>2026-03-22T09:05:17.999Z</time></trkpt><trkpt lat="42.52766822592305" lon="-2.5164517697899065"><ele>408.0</ele><time>2026-03-22T09:05:18.999Z</time></trkpt><trkpt lat="42.52776513322883" lon="-2.516532672854417"><ele>408.0</ele><time>2026-03-22T09:05:19.999Z</time></trkpt><trkpt lat="42.52786335212964" lon="-2.5166287490503083"><ele>408.0</ele><time>2026-03-22T09:05:20.999Z</time></trkpt><trkpt lat="42.52797554478609" lon="-2.5166967085545155"><ele>408.0</ele><time>2026-03-22T09:05:21.999Z</time></trkpt><trkpt lat="42.52806462961209" lon="-2.5167988813287177"><ele>408.0</ele><time>2026-03-22T09:05:22.999Z</time></trkpt><trkpt lat="42.52815296987692" lon="-2.516859442976838"><ele>408.79999999999995</ele><time>2026-03-22T09:05:23.999Z</time></trkpt><trkpt lat="42.52823902548082" lon="-2.5168871905531267"><ele>409.6</ele><time>2026-03-22T09:05:24.999Z</time></trkpt><trkpt lat="42.52833159358842" lon="-2.516896688519258"><ele>410.4</ele><time>2026-03-22T09:05:25.999Z</time></trkpt><trkpt lat="42.528427575193014" lon="-2.5168816411674704"><ele>411.20000000000005</ele><time>2026-03-22T09:05:26.999Z</time></trkpt><trkpt lat="42.528531854832245" lon="-2.5168562456387633"><ele>412.0</ele><time>2026-03-22T09:05:27.999Z</time></trkpt><trkpt lat="42.52864077619033" lon="-2.5168343902858896"><ele>411.33333333333337</ele><time>2026-03-22T09:05:28.999Z</time></trkpt><trkpt lat="42.52874958623075" lon="-2.516813947142992"><ele>410.6666666666667</ele><time>2026-03-22T09:05:29.999Z</time></trkpt><trkpt lat="42.52884097672268" lon="-2.5167805109617305"><ele>410.0</ele><time>2026-03-22T09:05:30.999Z</time></trkpt><trkpt lat="42.52891884854166" lon="-2.516733422989931"><ele>409.33333333333337</ele><time>2026-03-22T09:05:31.999Z</time></trkpt><trkpt lat="42.528993493423734" lon="-2.5166913471141945"><ele>408.6666666666667</ele><time>2026-03-22T09:05:32.999Z</time></trkpt><trkpt lat="42.52905283819372" lon="-2.516660107591424"><ele>408.0</ele><time>2026-03-22T09:05:33.998Z</time></trkpt><trkpt lat="42.52911886965153" lon="-2.5166624677452325"><ele>408.0</ele><time>2026-03-22T09:05:35.998Z</time></trkpt><trkpt lat="42.52920108658671" lon="-2.5167214284559205"><ele>408.0</ele><time>2026-03-22T09:05:37.998Z</time></trkpt><trkpt lat="42.52920156905946" lon="-2.516845277490265"><ele>408.0</ele><time>2026-03-22T09:05:38.998Z</time></trkpt><trkpt lat="42.52916516033183" lon="-2.516936823476851"><ele>408.0</ele><time>2026-03-22T09:05:39.998Z</time></trkpt><trkpt lat="42.52913961689391" lon="-2.517032706664037"><ele>408.0</ele><time>2026-03-22T09:05:40.998Z</time></trkpt><trkpt lat="42.52912036265723" lon="-2.517128629979917"><ele>408.0</ele><time>2026-03-22T09:05:41.998Z</time></trkpt><trkpt lat="42.52910063871838" lon="-2.517286069139319"><ele>407.0</ele><time>2026-03-22T09:05:43.998Z</time></trkpt><trkpt lat="42.52914934482611" lon="-2.5174179793159936"><ele>406.0</ele><time>2026-03-22T09:05:45.998Z</time></trkpt><trkpt lat="42.529192887595" lon="-2.5174977055834766"><ele>405.0</ele><time>2026-03-22T09:05:46.998Z</time></trkpt><trkpt lat="42.529235850326515" lon="-2.5175777732124627"><ele>404.0</ele><time>2026-03-22T09:05:47.998Z</time></trkpt><trkpt lat="42.529311461904044" lon="-2.5176846401873307"><ele>403.0</ele><time>2026-03-22T09:05:49.998Z</time></trkpt><trkpt lat="42.52942234783864" lon="-2.517700707439934"><ele>403.0</ele><time>2026-03-22T09:05:51.998Z</time></trkpt><trkpt lat="42.52953728235991" lon="-2.517681346394415"><ele>403.0</ele><time>2026-03-22T09:05:53.998Z</time></trkpt><trkpt lat="42.52961172922142" lon="-2.5176878416664317"><ele>403.0</ele><time>2026-03-22T09:05:54.998Z</time></trkpt><trkpt lat="42.529687405445486" lon="-2.5178091387108403"><ele>403.0</ele><time>2026-03-22T09:05:55.998Z</time></trkpt><trkpt lat="42.52977300417255" lon="-2.5178157960786867"><ele>403.0</ele><time>2026-03-22T09:05:56.998Z</time></trkpt><trkpt lat="42.5298598324667" lon="-2.517818860842972"><ele>404.33333333333337</ele><time>2026-03-22T09:05:57.998Z</time></trkpt><trkpt lat="42.52994445045692" lon="-2.517807604437749"><ele>405.6666666666667</ele><time>2026-03-22T09:05:58.998Z</time></trkpt><trkpt lat="42.530025916240106" lon="-2.5177822206508327"><ele>407.0</ele><time>2026-03-22T09:05:59.998Z</time></trkpt><trkpt lat="42.53010705320143" lon="-2.5177512376065896"><ele>408.33333333333337</ele><time>2026-03-22T09:06:01Z</time></trkpt><trkpt lat="42.530190145307536" lon="-2.5177240380178767"><ele>409.6666666666667</ele><time>2026-03-22T09:06:02Z</time></trkpt><trkpt lat="42.530274452846" lon="-2.517696056178788"><ele>411.0</ele><time>2026-03-22T09:06:03Z</time></trkpt><trkpt lat="42.530361475481754" lon="-2.517666410852997"><ele>412.1666666666667</ele><time>2026-03-22T09:06:04Z</time></trkpt><trkpt lat="42.53044833396894" lon="-2.5176396498886837"><ele>413.33333333333337</ele><time>2026-03-22T09:06:05Z</time></trkpt><trkpt lat="42.53053330398326" lon="-2.5176138789765954"><ele>414.5</ele><time>2026-03-22T09:06:06Z</time></trkpt><trkpt lat="42.53061918369055" lon="-2.517595378955323"><ele>415.6666666666667</ele><time>2026-03-22T09:06:07Z</time></trkpt><trkpt lat="42.53070631593188" lon="-2.517585093268103"><ele>416.83333333333337</ele><time>2026-03-22T09:06:08Z</time></trkpt><trkpt lat="42.53079413668422" lon="-2.5175816079422493"><ele>418.0</ele><time>2026-03-22T09:06:09Z</time></trkpt><trkpt lat="42.530883089068894" lon="-2.5175806792920836"><ele>418.00000000000006</ele><time>2026-03-22T09:06:10Z</time></trkpt><trkpt lat="42.53097456969614" lon="-2.517590484616347"><ele>418.0</ele><time>2026-03-22T09:06:11Z</time></trkpt><trkpt lat="42.531062848638165" lon="-2.51760394084396"><ele>418.0</ele><time>2026-03-22T09:06:12Z</time></trkpt><trkpt lat="42.53115358356285" lon="-2.5176135516648155"><ele>418.0</ele><time>2026-03-22T09:06:13Z</time></trkpt><trkpt lat="42.531243936530046" lon="-2.5176249609548678"><ele>418.00000000000006</ele><time>2026-03-22T09:06:14Z</time></trkpt><trkpt lat="42.5313289204718" lon="-2.51764595681871"><ele>418.0</ele><time>2026-03-22T09:06:15Z</time></trkpt><trkpt lat="42.53142092219395" lon="-2.5176684937660188"><ele>418.59999999999997</ele><time>2026-03-22T09:06:16Z</time></trkpt><trkpt lat="42.531512620510455" lon="-2.517694854000101"><ele>419.2</ele><time>2026-03-22T09:06:17Z</time></trkpt><trkpt lat="42.53160367235092" lon="-2.517724430956849"><ele>419.8</ele><time>2026-03-22T09:06:18Z</time></trkpt><trkpt lat="42.531696319753486" lon="-2.517750901445031"><ele>420.4</ele><time>2026-03-22T09:06:19Z</time></trkpt><trkpt lat="42.53178847557239" lon="-2.5177775610565263"><ele>421.0</ele><time>2026-03-22T09:06:20Z</time></trkpt><trkpt lat="42.53187734950386" lon="-2.5178077773041103"><ele>421.00000000000006</ele><time>2026-03-22T09:06:21Z</time></trkpt><trkpt lat="42.531966873717096" lon="-2.5178378634912018"><ele>421.0</ele><time>2026-03-22T09:06:22Z</time></trkpt><trkpt lat="42.532053100186914" lon="-2.5178626930131687"><ele>421.0</ele><time>2026-03-22T09:06:23Z</time></trkpt><trkpt lat="42.53212743559094" lon="-2.5178842535410717"><ele>421.0</ele><time>2026-03-22T09:06:24Z</time></trkpt><trkpt lat="42.53219078277512" lon="-2.5178989745889133"><ele>421.0</ele><time>2026-03-22T09:06:25Z</time></trkpt><trkpt lat="42.532254783476866" lon="-2.5179159778745532"><ele>421.00000000000006</ele><time>2026-03-22T09:06:26Z</time></trkpt><trkpt lat="42.53231644008734" lon="-2.5179353332787393"><ele>421.0</ele><time>2026-03-22T09:06:27Z</time></trkpt><trkpt lat="42.5323870536995" lon="-2.5179706944995126"><ele>419.83333333333337</ele><time>2026-03-22T09:06:28Z</time></trkpt><trkpt lat="42.532460721432905" lon="-2.5180119331300705"><ele>418.6666666666667</ele><time>2026-03-22T09:06:29Z</time></trkpt><trkpt lat="42.532535661135846" lon="-2.5180604346219537"><ele>417.5</ele><time>2026-03-22T09:06:30Z</time></trkpt><trkpt lat="42.532611089815404" lon="-2.518110954682674"><ele>416.33333333333337</ele><time>2026-03-22T09:06:31Z</time></trkpt><trkpt lat="42.53268947070901" lon="-2.51816329225043"><ele>415.1666666666667</ele><time>2026-03-22T09:06:32Z</time></trkpt><trkpt lat="42.53276580372369" lon="-2.5182094138095548"><ele>414.0</ele><time>2026-03-22T09:06:33Z</time></trkpt><trkpt lat="42.5328451367367" lon="-2.5182494142937024"><ele>415.1666666666667</ele><time>2026-03-22T09:06:34Z</time></trkpt><trkpt lat="42.5329230695779" lon="-2.518288884340976"><ele>416.33333333333337</ele><time>2026-03-22T09:06:35Z</time></trkpt><trkpt lat="42.53299878806334" lon="-2.518332755316585"><ele>417.5</ele><time>2026-03-22T09:06:36Z</time></trkpt><trkpt lat="42.533079612592076" lon="-2.5183802920255354"><ele>418.6666666666667</ele><time>2026-03-22T09:06:37Z</time></trkpt><trkpt lat="42.533162486433284" lon="-2.518432818949788"><ele>419.83333333333337</ele><time>2026-03-22T09:06:38Z</time></trkpt><trkpt lat="42.53324908802797" lon="-2.5184876176150137"><ele>421.0</ele><time>2026-03-22T09:06:39Z</time></trkpt><trkpt lat="42.53333548998621" lon="-2.5185433955734333"><ele>421.0</ele><time>2026-03-22T09:06:40Z</time></trkpt><trkpt lat="42.53342209966899" lon="-2.518601597616821"><ele>421.0</ele><time>2026-03-22T09:06:41Z</time></trkpt><trkpt lat="42.533509816014785" lon="-2.5186629881966858"><ele>421.0</ele><time>2026-03-22T09:06:41.999Z</time></trkpt><trkpt lat="42.533599918858776" lon="-2.518728612292817"><ele>421.0</ele><time>2026-03-22T09:06:42.999Z</time></trkpt><trkpt lat="42.533688506500276" lon="-2.5187917993253524"><ele>421.0</ele><time>2026-03-22T09:06:43.999Z</time></trkpt><trkpt lat="42.53376716621251" lon="-2.518847345345866"><ele>420.6666666666667</ele><time>2026-03-22T09:06:44.999Z</time></trkpt><trkpt lat="42.53384136185976" lon="-2.518901326422131"><ele>420.33333333333337</ele><time>2026-03-22T09:06:45.999Z</time></trkpt><trkpt lat="42.53391040604348" lon="-2.518958185018763"><ele>420.0</ele><time>2026-03-22T09:06:46.999Z</time></trkpt><trkpt lat="42.533985967144766" lon="-2.5190042830714447"><ele>419.66666666666663</ele><time>2026-03-22T09:06:47.999Z</time></trkpt><trkpt lat="42.534075710654726" lon="-2.5190438740816696"><ele>419.3333333333333</ele><time>2026-03-22T09:06:48.999Z</time></trkpt><trkpt lat="42.5341674892339" lon="-2.519076823230353"><ele>419.0</ele><time>2026-03-22T09:06:49.999Z</time></trkpt><trkpt lat="42.5342650103684" lon="-2.519104308339256"><ele>419.0</ele><time>2026-03-22T09:06:50.999Z</time></trkpt><trkpt lat="42.534360760226356" lon="-2.5191326644829486"><ele>419.0</ele><time>2026-03-22T09:06:51.999Z</time></trkpt><trkpt lat="42.53445212346215" lon="-2.519157833053438"><ele>419.0</ele><time>2026-03-22T09:06:52.999Z</time></trkpt><trkpt lat="42.534538480234175" lon="-2.519195824268717"><ele>419.0</ele><time>2026-03-22T09:06:53.999Z</time></trkpt><trkpt lat="42.53462944253968" lon="-2.519237403613814"><ele>419.0</ele><time>2026-03-22T09:06:54.999Z</time></trkpt><trkpt lat="42.53472041885917" lon="-2.519279686526071"><ele>419.2</ele><time>2026-03-22T09:06:55.999Z</time></trkpt><trkpt lat="42.53481389431706" lon="-2.5193210364578955"><ele>419.4</ele><time>2026-03-22T09:06:56.999Z</time></trkpt><trkpt lat="42.53491031932486" lon="-2.519355747017628"><ele>419.6</ele><time>2026-03-22T09:06:57.999Z</time></trkpt><trkpt lat="42.53500677578301" lon="-2.519382784767922"><ele>419.8</ele><time>2026-03-22T09:06:58.999Z</time></trkpt><trkpt lat="42.535102438370394" lon="-2.5194075428240916"><ele>420.0</ele><time>2026-03-22T09:06:59.999Z</time></trkpt><trkpt lat="42.53518819151348" lon="-2.5194293577697024"><ele>420.0</ele><time>2026-03-22T09:07:00.999Z</time></trkpt><trkpt lat="42.535257960626794" lon="-2.519445209517957"><ele>420.0</ele><time>2026-03-22T09:07:01.999Z</time></trkpt><trkpt lat="42.53533695762523" lon="-2.5194722082991414"><ele>420.0</ele><time>2026-03-22T09:07:03.999Z</time></trkpt><trkpt lat="42.535417645845115" lon="-2.519435483659712"><ele>420.0</ele><time>2026-03-22T09:07:05.999Z</time></trkpt><trkpt lat="42.53555081488341" lon="-2.5193844109302552"><ele>420.0</ele><time>2026-03-22T09:07:07.999Z</time></trkpt><trkpt lat="42.53564158642523" lon="-2.5193409740990758"><ele>421.0</ele><time>2026-03-22T09:07:08.999Z</time></trkpt><trkpt lat="42.53573545136905" lon="-2.5192960678113407"><ele>422.0</ele><time>2026-03-22T09:07:09.999Z</time></trkpt><trkpt lat="42.5358383277378" lon="-2.5192546483342055"><ele>423.0</ele><time>2026-03-22T09:07:10.999Z</time></trkpt><trkpt lat="42.535943303986485" lon="-2.519210799957992"><ele>424.0</ele><time>2026-03-22T09:07:11.999Z</time></trkpt><trkpt lat="42.53605098411067" lon="-2.519161726798909"><ele>425.0</ele><time>2026-03-22T09:07:12.999Z</time></trkpt><trkpt lat="42.53615808024105" lon="-2.5191146759117555"><ele>424.6</ele><time>2026-03-22T09:07:13.999Z</time></trkpt><trkpt lat="42.536262102066395" lon="-2.519055579621572"><ele>424.2</ele><time>2026-03-22T09:07:14.999Z</time></trkpt><trkpt lat="42.53635523112574" lon="-2.518982540976249"><ele>423.79999999999995</ele><time>2026-03-22T09:07:15.999Z</time></trkpt><trkpt lat="42.53642887874308" lon="-2.5188984040563267"><ele>423.4</ele><time>2026-03-22T09:07:16.999Z</time></trkpt><trkpt lat="42.536493490866334" lon="-2.5188047589531246"><ele>423.0</ele><time>2026-03-22T09:07:17.999Z</time></trkpt><trkpt lat="42.53654869678443" lon="-2.5187098610217533"><ele>423.0</ele><time>2026-03-22T09:07:18.999Z</time></trkpt><trkpt lat="42.536587756333745" lon="-2.5186257512613417"><ele>423.0</ele><time>2026-03-22T09:07:19.999Z</time></trkpt><trkpt lat="42.536609745759016" lon="-2.5185322247073914"><ele>423.0</ele><time>2026-03-22T09:07:20.999Z</time></trkpt><trkpt lat="42.53661099991616" lon="-2.518422546686298"><ele>423.0</ele><time>2026-03-22T09:07:21.999Z</time></trkpt><trkpt lat="42.53660262363666" lon="-2.5183079928525793"><ele>423.0</ele><time>2026-03-22T09:07:22.999Z</time></trkpt><trkpt lat="42.53658847631987" lon="-2.5181872341780034"><ele>423.0</ele><time>2026-03-22T09:07:23.999Z</time></trkpt><trkpt lat="42.53657723527928" lon="-2.5180574898998334"><ele>423.0</ele><time>2026-03-22T09:07:24.999Z</time></trkpt><trkpt lat="42.53657501794189" lon="-2.5179250435984537"><ele>423.0</ele><time>2026-03-22T09:07:25.999Z</time></trkpt><trkpt lat="42.536579357212844" lon="-2.5177787344032008"><ele>423.0</ele><time>2026-03-22T09:07:26.999Z</time></trkpt><trkpt lat="42.53657854844308" lon="-2.5176436029640517"><ele>423.0</ele><time>2026-03-22T09:07:27.999Z</time></trkpt><trkpt lat="42.53656994051273" lon="-2.517514212406499"><ele>423.0</ele><time>2026-03-22T09:07:28.999Z</time></trkpt><trkpt lat="42.53656475353036" lon="-2.517374524229536"><ele>424.2</ele><time>2026-03-22T09:07:29.999Z</time></trkpt><trkpt lat="42.53656247204863" lon="-2.517228488736321"><ele>425.4</ele><time>2026-03-22T09:07:30.999Z</time></trkpt><trkpt lat="42.53656542551065" lon="-2.517083147293556"><ele>426.59999999999997</ele><time>2026-03-22T09:07:31.999Z</time></trkpt><trkpt lat="42.53657845713865" lon="-2.5169320344031"><ele>427.79999999999995</ele><time>2026-03-22T09:07:32.999Z</time></trkpt><trkpt lat="42.536610279161444" lon="-2.516787639767385"><ele>429.0</ele><time>2026-03-22T09:07:33.999Z</time></trkpt><trkpt lat="42.53666503376115" lon="-2.5166612647688686"><ele>430.79999999999995</ele><time>2026-03-22T09:07:34.999Z</time></trkpt><trkpt lat="42.53672855457737" lon="-2.516540170220599"><ele>432.59999999999997</ele><time>2026-03-22T09:07:35.999Z</time></trkpt><trkpt lat="42.536786754658806" lon="-2.5164178023404244"><ele>434.4</ele><time>2026-03-22T09:07:36.999Z</time></trkpt><trkpt lat="42.536831434073875" lon="-2.516290816033693"><ele>436.2</ele><time>2026-03-22T09:07:37.999Z</time></trkpt><trkpt lat="42.536864145543184" lon="-2.5161829938850757"><ele>438.0</ele><time>2026-03-22T09:07:38.999Z</time></trkpt><trkpt lat="42.536905666044014" lon="-2.516105736233465"><ele>439.2</ele><time>2026-03-22T09:07:39.998Z</time></trkpt><trkpt lat="42.53696578704782" lon="-2.5160443698902513"><ele>440.4</ele><time>2026-03-22T09:07:40.998Z</time></trkpt><trkpt lat="42.53704277853246" lon="-2.5159968011990683"><ele>441.59999999999997</ele><time>2026-03-22T09:07:41.998Z</time></trkpt><trkpt lat="42.5371378227177" lon="-2.5159582819209985"><ele>442.79999999999995</ele><time>2026-03-22T09:07:42.998Z</time></trkpt><trkpt lat="42.53722780967444" lon="-2.5159028396895433"><ele>444.0</ele><time>2026-03-22T09:07:43.998Z</time></trkpt><trkpt lat="42.537303137037064" lon="-2.5158264845592884"><ele>444.0</ele><time>2026-03-22T09:07:44.998Z</time></trkpt><trkpt lat="42.53735953157085" lon="-2.5157177273849123"><ele>444.0</ele><time>2026-03-22T09:07:45.998Z</time></trkpt><trkpt lat="42.53739591466215" lon="-2.515587729479659"><ele>444.0</ele><time>2026-03-22T09:07:46.998Z</time></trkpt><trkpt lat="42.53742457357258" lon="-2.515451320679033"><ele>444.0</ele><time>2026-03-22T09:07:47.998Z</time></trkpt><trkpt lat="42.53744935086666" lon="-2.5153145745779617"><ele>444.0</ele><time>2026-03-22T09:07:48.998Z</time></trkpt><trkpt lat="42.5374696274489" lon="-2.515166603495142"><ele>446.79999999999995</ele><time>2026-03-22T09:07:49.998Z</time></trkpt><trkpt lat="42.53748540837737" lon="-2.5150125290914023"><ele>449.59999999999997</ele><time>2026-03-22T09:07:50.998Z</time></trkpt><trkpt lat="42.537497363305555" lon="-2.5148501897368045"><ele>452.4</ele><time>2026-03-22T09:07:51.998Z</time></trkpt><trkpt lat="42.53751087454142" lon="-2.5147143209775984"><ele>455.2</ele><time>2026-03-22T09:07:52.998Z</time></trkpt><trkpt lat="42.53754396105583" lon="-2.514595674116495"><ele>458.0</ele><time>2026-03-22T09:07:53.998Z</time></trkpt><trkpt lat="42.53760184175547" lon="-2.5144783632385415"><ele>459.4</ele><time>2026-03-22T09:07:54.998Z</time></trkpt><trkpt lat="42.53768450156028" lon="-2.514371551993188"><ele>460.79999999999995</ele><time>2026-03-22T09:07:55.998Z</time></trkpt><trkpt lat="42.53776119444364" lon="-2.514264346698769"><ele>462.2</ele><time>2026-03-22T09:07:56.998Z</time></trkpt><trkpt lat="42.53780875869399" lon="-2.514148083809947"><ele>463.6</ele><time>2026-03-22T09:07:57.998Z</time></trkpt><trkpt lat="42.53783455813184" lon="-2.5140189319945017"><ele>465.0</ele><time>2026-03-22T09:07:58.998Z</time></trkpt><trkpt lat="42.537851980334764" lon="-2.5138850751829476"><ele>465.0</ele><time>2026-03-22T09:07:59.998Z</time></trkpt><trkpt lat="42.53786799126919" lon="-2.5137641581405714"><ele>465.0</ele><time>2026-03-22T09:08:00.998Z</time></trkpt><trkpt lat="42.53788146173721" lon="-2.513658465585569"><ele>465.0</ele><time>2026-03-22T09:08:01.998Z</time></trkpt><trkpt lat="42.537897666041395" lon="-2.5135741088016244"><ele>465.0</ele><time>2026-03-22T09:08:02.998Z</time></trkpt><trkpt lat="42.53794751715198" lon="-2.5134452162546266"><ele>465.0</ele><time>2026-03-22T09:08:04.998Z</time></trkpt><trkpt lat="42.53804862760553" lon="-2.5133266628936424"><ele>464.0</ele><time>2026-03-22T09:08:07Z</time></trkpt><trkpt lat="42.538115980573465" lon="-2.513258122400242"><ele>463.0</ele><time>2026-03-22T09:08:08Z</time></trkpt><trkpt lat="42.53818423386185" lon="-2.5131904812838712"><ele>462.0</ele><time>2026-03-22T09:08:09Z</time></trkpt><trkpt lat="42.53825209868342" lon="-2.513126244044139"><ele>461.0</ele><time>2026-03-22T09:08:10Z</time></trkpt><trkpt lat="42.53831416172676" lon="-2.513064506880104"><ele>460.0</ele><time>2026-03-22T09:08:11Z</time></trkpt><trkpt lat="42.53836285333734" lon="-2.5130043419119135"><ele>459.0</ele><time>2026-03-22T09:08:12Z</time></trkpt><trkpt lat="42.5384095106398" lon="-2.512941598254817"><ele>458.4</ele><time>2026-03-22T09:08:13Z</time></trkpt><trkpt lat="42.53844724975293" lon="-2.512872071151457"><ele>457.79999999999995</ele><time>2026-03-22T09:08:14Z</time></trkpt><trkpt lat="42.53850930133811" lon="-2.512745675393596"><ele>457.20000000000005</ele><time>2026-03-22T09:08:16Z</time></trkpt><trkpt lat="42.5386089919319" lon="-2.512648663395483"><ele>456.6</ele><time>2026-03-22T09:08:18Z</time></trkpt><trkpt lat="42.53867886612835" lon="-2.512606704574838"><ele>456.0</ele><time>2026-03-22T09:08:19Z</time></trkpt><trkpt lat="42.538750590853795" lon="-2.512566185552423"><ele>456.0</ele><time>2026-03-22T09:08:20Z</time></trkpt><trkpt lat="42.53881755913251" lon="-2.5125137336302"><ele>456.0</ele><time>2026-03-22T09:08:21Z</time></trkpt><trkpt lat="42.538871519928925" lon="-2.512440813268902"><ele>456.0</ele><time>2026-03-22T09:08:22Z</time></trkpt><trkpt lat="42.538921868094775" lon="-2.512342635743868"><ele>456.0</ele><time>2026-03-22T09:08:23Z</time></trkpt><trkpt lat="42.538966818105564" lon="-2.5122293106672613"><ele>456.0</ele><time>2026-03-22T09:08:24Z</time></trkpt><trkpt lat="42.53900981884445" lon="-2.512105824054932"><ele>456.0</ele><time>2026-03-22T09:08:25Z</time></trkpt><trkpt lat="42.539056838706266" lon="-2.5119865526407246"><ele>455.8</ele><time>2026-03-22T09:08:26Z</time></trkpt><trkpt lat="42.539108487859124" lon="-2.5118675942443214"><ele>455.6</ele><time>2026-03-22T09:08:27Z</time></trkpt><trkpt lat="42.539155414238756" lon="-2.5117458809924593"><ele>455.4</ele><time>2026-03-22T09:08:28Z</time></trkpt><trkpt lat="42.539188494358264" lon="-2.5116111705473143"><ele>455.2</ele><time>2026-03-22T09:08:29Z</time></trkpt><trkpt lat="42.53921055074312" lon="-2.511472003298592"><ele>455.0</ele><time>2026-03-22T09:08:30Z</time></trkpt><trkpt lat="42.539229562131666" lon="-2.5113339122962315"><ele>454.99999999999994</ele><time>2026-03-22T09:08:31Z</time></trkpt><trkpt lat="42.53925071834593" lon="-2.5112026687954585"><ele>455.0</ele><time>2026-03-22T09:08:32Z</time></trkpt><trkpt lat="42.53927883199182" lon="-2.511089087513855"><ele>455.0</ele><time>2026-03-22T09:08:33Z</time></trkpt><trkpt lat="42.53930708409612" lon="-2.5109884134249403"><ele>455.0</ele><time>2026-03-22T09:08:34Z</time></trkpt><trkpt lat="42.539338142079615" lon="-2.5108977632089595"><ele>454.99999999999994</ele><time>2026-03-22T09:08:35Z</time></trkpt><trkpt lat="42.53937065143974" lon="-2.510819959329745"><ele>455.0</ele><time>2026-03-22T09:08:36Z</time></trkpt><trkpt lat="42.539411109948496" lon="-2.510746091261834"><ele>455.0</ele><time>2026-03-22T09:08:37Z</time></trkpt><trkpt lat="42.539457799312466" lon="-2.5106767957156793"><ele>455.0</ele><time>2026-03-22T09:08:38Z</time></trkpt><trkpt lat="42.539511111280206" lon="-2.510617501950791"><ele>455.0</ele><time>2026-03-22T09:08:39Z</time></trkpt><trkpt lat="42.53964604933421" lon="-2.510527109245214"><ele>455.0</ele><time>2026-03-22T09:08:41Z</time></trkpt><trkpt lat="42.539699573715716" lon="-2.510377141754354"><ele>455.0</ele><time>2026-03-22T09:08:42Z</time></trkpt><trkpt lat="42.53979259624545" lon="-2.510343974140042"><ele>456.0</ele><time>2026-03-22T09:08:44Z</time></trkpt><trkpt lat="42.53988682275706" lon="-2.5102916281513137"><ele>457.0</ele><time>2026-03-22T09:08:46Z</time></trkpt><trkpt lat="42.53996415914809" lon="-2.5102588798135534"><ele>458.0</ele><time>2026-03-22T09:08:47Z</time></trkpt><trkpt lat="42.54006563792817" lon="-2.510229353285937"><ele>459.0</ele><time>2026-03-22T09:08:47.999Z</time></trkpt><trkpt lat="42.54017288749661" lon="-2.5101909473292876"><ele>460.0</ele><time>2026-03-22T09:08:48.999Z</time></trkpt><trkpt lat="42.54027436220446" lon="-2.510147580293676"><ele>460.0</ele><time>2026-03-22T09:08:49.999Z</time></trkpt><trkpt lat="42.54037462031212" lon="-2.510102168288212"><ele>460.0</ele><time>2026-03-22T09:08:50.999Z</time></trkpt><trkpt lat="42.54047473859556" lon="-2.510055021665707"><ele>460.0</ele><time>2026-03-22T09:08:51.999Z</time></trkpt><trkpt lat="42.54057472427762" lon="-2.5100180862405024"><ele>460.0</ele><time>2026-03-22T09:08:52.999Z</time></trkpt><trkpt lat="42.54067167332702" lon="-2.509953862502474"><ele>460.0</ele><time>2026-03-22T09:08:53.999Z</time></trkpt><trkpt lat="42.54077020933303" lon="-2.509872240775177"><ele>462.75</ele><time>2026-03-22T09:08:54.999Z</time></trkpt><trkpt lat="42.5408766125378" lon="-2.509803348967709"><ele>465.5</ele><time>2026-03-22T09:08:55.999Z</time></trkpt><trkpt lat="42.54099637710991" lon="-2.5097492810975024"><ele>468.25</ele><time>2026-03-22T09:08:56.999Z</time></trkpt><trkpt lat="42.54112190680761" lon="-2.5097080781282046"><ele>471.0</ele><time>2026-03-22T09:08:57.999Z</time></trkpt><trkpt lat="42.54124323512091" lon="-2.509678490513636"><ele>471.4</ele><time>2026-03-22T09:08:58.999Z</time></trkpt><trkpt lat="42.54135936358798" lon="-2.5096637111140474"><ele>471.8</ele><time>2026-03-22T09:08:59.999Z</time></trkpt><trkpt lat="42.5414722506189" lon="-2.5096509771507174"><ele>472.19999999999993</ele><time>2026-03-22T09:09:00.999Z</time></trkpt><trkpt lat="42.541582792595406" lon="-2.509645546691755"><ele>472.59999999999997</ele><time>2026-03-22T09:09:01.999Z</time></trkpt><trkpt lat="42.54168309639822" lon="-2.5096408078028736"><ele>473.0</ele><time>2026-03-22T09:09:02.999Z</time></trkpt><trkpt lat="42.54176399980802" lon="-2.509633489611953"><ele>472.99999999999994</ele><time>2026-03-22T09:09:03.999Z</time></trkpt><trkpt lat="42.54183146965859" lon="-2.5096231506636615"><ele>473.0</ele><time>2026-03-22T09:09:04.999Z</time></trkpt><trkpt lat="42.541902259342756" lon="-2.5096112666071706"><ele>473.0</ele><time>2026-03-22T09:09:05.999Z</time></trkpt><trkpt lat="42.54198409301465" lon="-2.509597437638207"><ele>473.0</ele><time>2026-03-22T09:09:06.999Z</time></trkpt><trkpt lat="42.54206488363435" lon="-2.5095776576014073"><ele>472.99999999999994</ele><time>2026-03-22T09:09:07.999Z</time></trkpt><trkpt lat="42.54215984785244" lon="-2.509553301681181"><ele>473.0</ele><time>2026-03-22T09:09:08.999Z</time></trkpt><trkpt lat="42.542261826035784" lon="-2.509526259460945"><ele>472.59999999999997</ele><time>2026-03-22T09:09:09.999Z</time></trkpt><trkpt lat="42.54236361152594" lon="-2.5095037185552886"><ele>472.19999999999993</ele><time>2026-03-22T09:09:10.999Z</time></trkpt><trkpt lat="42.54246431139506" lon="-2.5094851587950093"><ele>471.8</ele><time>2026-03-22T09:09:11.999Z</time></trkpt><trkpt lat="42.54256183397353" lon="-2.5094731692078844"><ele>471.4</ele><time>2026-03-22T09:09:12.999Z</time></trkpt><trkpt lat="42.54265911394905" lon="-2.5094821311740114"><ele>471.0</ele><time>2026-03-22T09:09:13.999Z</time></trkpt><trkpt lat="42.542763451154165" lon="-2.509428682973374"><ele>471.0</ele><time>2026-03-22T09:09:14.999Z</time></trkpt><trkpt lat="42.54286643811788" lon="-2.509397501927835"><ele>471.0</ele><time>2026-03-22T09:09:15.999Z</time></trkpt><trkpt lat="42.54296472556719" lon="-2.5093741636045777"><ele>471.0</ele><time>2026-03-22T09:09:16.999Z</time></trkpt><trkpt lat="42.54306065265996" lon="-2.509352830549253"><ele>471.0</ele><time>2026-03-22T09:09:17.999Z</time></trkpt><trkpt lat="42.54316100393829" lon="-2.5093219290533013"><ele>471.0</ele><time>2026-03-22T09:09:18.999Z</time></trkpt><trkpt lat="42.543266243780735" lon="-2.509288205878071"><ele>472.1666666666667</ele><time>2026-03-22T09:09:19.999Z</time></trkpt><trkpt lat="42.543358637203504" lon="-2.509255384582795"><ele>473.33333333333337</ele><time>2026-03-22T09:09:20.999Z</time></trkpt><trkpt lat="42.543439406071556" lon="-2.5092305459770854"><ele>474.5</ele><time>2026-03-22T09:09:21.999Z</time></trkpt><trkpt lat="42.543506732329284" lon="-2.509218590442966"><ele>475.6666666666667</ele><time>2026-03-22T09:09:22.999Z</time></trkpt><trkpt lat="42.54357561609993" lon="-2.5091979657828367"><ele>476.83333333333337</ele><time>2026-03-22T09:09:23.999Z</time></trkpt><trkpt lat="42.543651348161845" lon="-2.509166509276761"><ele>478.0</ele><time>2026-03-22T09:09:24.999Z</time></trkpt><trkpt lat="42.54373290784348" lon="-2.5091221916189346"><ele>480.79999999999995</ele><time>2026-03-22T09:09:25.999Z</time></trkpt><trkpt lat="42.543820979397196" lon="-2.509061850154137"><ele>483.59999999999997</ele><time>2026-03-22T09:09:26.999Z</time></trkpt><trkpt lat="42.54390770754317" lon="-2.5089877118038233"><ele>486.40000000000003</ele><time>2026-03-22T09:09:27.999Z</time></trkpt><trkpt lat="42.543991754174556" lon="-2.5088960805708775"><ele>489.20000000000005</ele><time>2026-03-22T09:09:28.999Z</time></trkpt><trkpt lat="42.54405425288989" lon="-2.5088189860626944"><ele>492.0</ele><time>2026-03-22T09:09:29.999Z</time></trkpt><trkpt lat="42.54414248706098" lon="-2.5087614872268285"><ele>492.0</ele><time>2026-03-22T09:09:31.999Z</time></trkpt><trkpt lat="42.54421347718552" lon="-2.508819596960637"><ele>492.0</ele><time>2026-03-22T09:09:33.999Z</time></trkpt><trkpt lat="42.54421868947879" lon="-2.5089073807148616"><ele>492.0</ele><time>2026-03-22T09:09:34.999Z</time></trkpt><trkpt lat="42.54420107000768" lon="-2.509003738023531"><ele>492.0</ele><time>2026-03-22T09:09:35.999Z</time></trkpt><trkpt lat="42.54418301786361" lon="-2.509112480071571"><ele>492.0</ele><time>2026-03-22T09:09:36.999Z</time></trkpt><trkpt lat="42.544175252787554" lon="-2.5092174590901943"><ele>492.0</ele><time>2026-03-22T09:09:37.999Z</time></trkpt><trkpt lat="42.544195318154856" lon="-2.5093168966396138"><ele>492.0</ele><time>2026-03-22T09:09:38.999Z</time></trkpt><trkpt lat="42.5442384976145" lon="-2.5094139375217006"><ele>492.00000000000006</ele><time>2026-03-22T09:09:39.999Z</time></trkpt><trkpt lat="42.54430423009251" lon="-2.509500042374328"><ele>492.00000000000006</ele><time>2026-03-22T09:09:40.999Z</time></trkpt><trkpt lat="42.544373558105406" lon="-2.509591661368251"><ele>492.0</ele><time>2026-03-22T09:09:41.999Z</time></trkpt><trkpt lat="42.544462288328866" lon="-2.509652620442696"><ele>492.0</ele><time>2026-03-22T09:09:42.999Z</time></trkpt><trkpt lat="42.544554534758944" lon="-2.509698382072037"><ele>493.20000000000005</ele><time>2026-03-22T09:09:43.999Z</time></trkpt><trkpt lat="42.54465315684012" lon="-2.5097278604985243"><ele>494.40000000000003</ele><time>2026-03-22T09:09:44.999Z</time></trkpt><trkpt lat="42.54475649794298" lon="-2.509746760466643"><ele>495.59999999999997</ele><time>2026-03-22T09:09:45.998Z</time></trkpt><trkpt lat="42.54486752620461" lon="-2.509758062752084"><ele>496.79999999999995</ele><time>2026-03-22T09:09:46.998Z</time></trkpt><trkpt lat="42.54498336441336" lon="-2.509770273290656"><ele>498.0</ele><time>2026-03-22T09:09:47.998Z</time></trkpt><trkpt lat="42.54510419239351" lon="-2.50978053540645"><ele>498.0</ele><time>2026-03-22T09:09:48.998Z</time></trkpt><trkpt lat="42.545218336717745" lon="-2.509787815969406"><ele>498.0</ele><time>2026-03-22T09:09:49.998Z</time></trkpt><trkpt lat="42.54533593216884" lon="-2.509790149893118"><ele>498.0</ele><time>2026-03-22T09:09:50.998Z</time></trkpt><trkpt lat="42.54546116252568" lon="-2.5097844511589154"><ele>498.0</ele><time>2026-03-22T09:09:51.998Z</time></trkpt><trkpt lat="42.54559012187931" lon="-2.509772547587517"><ele>499.25</ele><time>2026-03-22T09:09:52.998Z</time></trkpt><trkpt lat="42.545722593037695" lon="-2.5097540160429546"><ele>500.5</ele><time>2026-03-22T09:09:53.998Z</time></trkpt><trkpt lat="42.54585934655956" lon="-2.5097304095710764"><ele>501.75</ele><time>2026-03-22T09:09:54.998Z</time></trkpt><trkpt lat="42.54599849018889" lon="-2.5097144352261536"><ele>503.0</ele><time>2026-03-22T09:09:55.998Z</time></trkpt><trkpt lat="42.54613950111426" lon="-2.5097057794567292"><ele>504.5</ele><time>2026-03-22T09:09:56.998Z</time></trkpt><trkpt lat="42.54628057712072" lon="-2.5097032165995556"><ele>506.0</ele><time>2026-03-22T09:09:57.998Z</time></trkpt><trkpt lat="42.54641183535207" lon="-2.509712205301854"><ele>507.5</ele><time>2026-03-22T09:09:58.998Z</time></trkpt><trkpt lat="42.54654044860272" lon="-2.5097402403177393"><ele>509.0</ele><time>2026-03-22T09:09:59.998Z</time></trkpt><trkpt lat="42.54666970884253" lon="-2.509789757711612"><ele>509.0</ele><time>2026-03-22T09:10:00.998Z</time></trkpt><trkpt lat="42.54678620676624" lon="-2.5098600988713384"><ele>509.0</ele><time>2026-03-22T09:10:01.998Z</time></trkpt><trkpt lat="42.546899460412384" lon="-2.509931280620578"><ele>509.0</ele><time>2026-03-22T09:10:02.998Z</time></trkpt><trkpt lat="42.54701126930666" lon="-2.5099696906527647"><ele>509.0</ele><time>2026-03-22T09:10:03.998Z</time></trkpt><trkpt lat="42.547120892510364" lon="-2.509996508774511"><ele>510.25</ele><time>2026-03-22T09:10:04.998Z</time></trkpt><trkpt lat="42.54722389652231" lon="-2.510062658021202"><ele>511.5</ele><time>2026-03-22T09:10:05.998Z</time></trkpt><trkpt lat="42.547324422374274" lon="-2.5101697844629833"><ele>512.75</ele><time>2026-03-22T09:10:06.998Z</time></trkpt><trkpt lat="42.54740438049397" lon="-2.5103069917702565"><ele>514.0</ele><time>2026-03-22T09:10:07.998Z</time></trkpt><trkpt lat="42.547479064928154" lon="-2.5104310468261564"><ele>514.0</ele><time>2026-03-22T09:10:08.998Z</time></trkpt><trkpt lat="42.54756695069895" lon="-2.5104901533785213"><ele>514.0</ele><time>2026-03-22T09:10:09.998Z</time></trkpt><trkpt lat="42.54763919830993" lon="-2.5105596240351598"><ele>514.0</ele><time>2026-03-22T09:10:10.998Z</time></trkpt><trkpt lat="42.54773346737068" lon="-2.5106094498150604"><ele>514.0</ele><time>2026-03-22T09:10:11.998Z</time></trkpt><trkpt lat="42.54784195974718" lon="-2.510660713625848"><ele>514.0</ele><time>2026-03-22T09:10:13Z</time></trkpt><trkpt lat="42.5479587094724" lon="-2.51071297908426"><ele>518.25</ele><time>2026-03-22T09:10:14Z</time></trkpt><trkpt lat="42.548079149065074" lon="-2.5107643539906825"><ele>522.5</ele><time>2026-03-22T09:10:15Z</time></trkpt><trkpt lat="42.548199369558745" lon="-2.5108286164784475"><ele>526.75</ele><time>2026-03-22T09:10:16Z</time></trkpt><trkpt lat="42.54831473877964" lon="-2.5108867496759033"><ele>531.0</ele><time>2026-03-22T09:10:17Z</time></trkpt><trkpt lat="42.548426993564405" lon="-2.5109210104820225"><ele>531.0</ele><time>2026-03-22T09:10:18Z</time></trkpt><trkpt lat="42.54854271915644" lon="-2.510919075944728"><ele>531.0</ele><time>2026-03-22T09:10:19Z</time></trkpt><trkpt lat="42.548647360683304" lon="-2.5108926955713526"><ele>531.0</ele><time>2026-03-22T09:10:20Z</time></trkpt><trkpt lat="42.5487392282583" lon="-2.510848897778621"><ele>531.0</ele><time>2026-03-22T09:10:21Z</time></trkpt><trkpt lat="42.54881207849671" lon="-2.510789663855856"><ele>531.0</ele><time>2026-03-22T09:10:22Z</time></trkpt><trkpt lat="42.548869942455724" lon="-2.5107090253726114"><ele>532.75</ele><time>2026-03-22T09:10:23Z</time></trkpt><trkpt lat="42.54893557454273" lon="-2.510608485252374"><ele>534.5</ele><time>2026-03-22T09:10:24Z</time></trkpt><trkpt lat="42.54901381689044" lon="-2.5104994966668226"><ele>536.25</ele><time>2026-03-22T09:10:25Z</time></trkpt><trkpt lat="42.54909961864769" lon="-2.5103841397651463"><ele>538.0</ele><time>2026-03-22T09:10:26Z</time></trkpt><trkpt lat="42.549189168913074" lon="-2.5102653477339785"><ele>538.75</ele><time>2026-03-22T09:10:27Z</time></trkpt><trkpt lat="42.54927344584766" lon="-2.510151460438948"><ele>539.5</ele><time>2026-03-22T09:10:28Z</time></trkpt><trkpt lat="42.54935488653701" lon="-2.5100423191062373"><ele>540.25</ele><time>2026-03-22T09:10:29Z</time></trkpt><trkpt lat="42.54944055962602" lon="-2.5099413409558573"><ele>541.0</ele><time>2026-03-22T09:10:30Z</time></trkpt><trkpt lat="42.549523324087716" lon="-2.509850441984672"><ele>540.6</ele><time>2026-03-22T09:10:31Z</time></trkpt><trkpt lat="42.54961513234216" lon="-2.509783798321037"><ele>540.2</ele><time>2026-03-22T09:10:32Z</time></trkpt><trkpt lat="42.549711609114" lon="-2.5097339599571677"><ele>539.8</ele><time>2026-03-22T09:10:33Z</time></trkpt><trkpt lat="42.5498134806717" lon="-2.5096912897147146"><ele>539.4</ele><time>2026-03-22T09:10:34Z</time></trkpt><trkpt lat="42.54991607850401" lon="-2.5096475677622334"><ele>539.0</ele><time>2026-03-22T09:10:35Z</time></trkpt><trkpt lat="42.5500198716614" lon="-2.509605625066587"><ele>539.5</ele><time>2026-03-22T09:10:36Z</time></trkpt><trkpt lat="42.55012919788064" lon="-2.509564155057249"><ele>540.0</ele><time>2026-03-22T09:10:37Z</time></trkpt><trkpt lat="42.550241008709904" lon="-2.509518768231356"><ele>540.5</ele><time>2026-03-22T09:10:38Z</time></trkpt><trkpt lat="42.550356663250085" lon="-2.5094701397068344"><ele>541.0</ele><time>2026-03-22T09:10:39Z</time></trkpt><trkpt lat="42.5504716377443" lon="-2.509418345963429"><ele>541.75</ele><time>2026-03-22T09:10:40Z</time></trkpt><trkpt lat="42.55058241788991" lon="-2.5093648233499204"><ele>542.5</ele><time>2026-03-22T09:10:41Z</time></trkpt><trkpt lat="42.550695872651744" lon="-2.5093179412180437"><ele>543.25</ele><time>2026-03-22T09:10:42Z</time></trkpt><trkpt lat="42.55081759217856" lon="-2.509296949023316"><ele>544.0</ele><time>2026-03-22T09:10:43Z</time></trkpt><trkpt lat="42.55094313444008" lon="-2.5093022135596974"><ele>544.0</ele><time>2026-03-22T09:10:44Z</time></trkpt><trkpt lat="42.55107538688649" lon="-2.509325840772215"><ele>544.0</ele><time>2026-03-22T09:10:45Z</time></trkpt><trkpt lat="42.5512109142952" lon="-2.509349827717852"><ele>544.0</ele><time>2026-03-22T09:10:46Z</time></trkpt><trkpt lat="42.551354742370066" lon="-2.509378284475367"><ele>544.0</ele><time>2026-03-22T09:10:47Z</time></trkpt><trkpt lat="42.55150142343309" lon="-2.5094113640877476"><ele>544.6666666666667</ele><time>2026-03-22T09:10:48Z</time></trkpt><trkpt lat="42.551649873467944" lon="-2.5094461135078285"><ele>545.3333333333334</ele><time>2026-03-22T09:10:49Z</time></trkpt><trkpt lat="42.55180009129926" lon="-2.5094791339282776"><ele>546.0</ele><time>2026-03-22T09:10:50Z</time></trkpt><trkpt lat="42.55194602777366" lon="-2.5095155528263846"><ele>546.6666666666666</ele><time>2026-03-22T09:10:51Z</time></trkpt><trkpt lat="42.55209415652621" lon="-2.5095527618642155"><ele>547.3333333333333</ele><time>2026-03-22T09:10:52Z</time></trkpt><trkpt lat="42.55224868643476" lon="-2.509593123657456"><ele>548.0</ele><time>2026-03-22T09:10:53Z</time></trkpt><trkpt lat="42.55240344969946" lon="-2.509637635654431"><ele>546.3333333333333</ele><time>2026-03-22T09:10:54Z</time></trkpt><trkpt lat="42.5525625096467" lon="-2.509685044798434"><ele>544.6666666666666</ele><time>2026-03-22T09:10:55Z</time></trkpt><trkpt lat="42.55272217611402" lon="-2.5097326476016546"><ele>543.0</ele><time>2026-03-22T09:10:55.999Z</time></trkpt><trkpt lat="42.55288291471296" lon="-2.50978464861663"><ele>543.0</ele><time>2026-03-22T09:10:56.999Z</time></trkpt><trkpt lat="42.553043606904865" lon="-2.5098371640998174"><ele>543.0</ele><time>2026-03-22T09:10:57.999Z</time></trkpt><trkpt lat="42.55320872785257" lon="-2.5098698913932718"><ele>543.0</ele><time>2026-03-22T09:10:58.999Z</time></trkpt><trkpt lat="42.55336785493465" lon="-2.50991349885324"><ele>543.0</ele><time>2026-03-22T09:10:59.999Z</time></trkpt><trkpt lat="42.55351746087155" lon="-2.5099838381396697"><ele>543.0</ele><time>2026-03-22T09:11:00.999Z</time></trkpt><trkpt lat="42.55366219415082" lon="-2.5100228706882617"><ele>543.0</ele><time>2026-03-22T09:11:01.999Z</time></trkpt><trkpt lat="42.55380317169236" lon="-2.5100671530916494"><ele>543.25</ele><time>2026-03-22T09:11:02.999Z</time></trkpt><trkpt lat="42.553937566124546" lon="-2.510116820194158"><ele>543.5</ele><time>2026-03-22T09:11:03.999Z</time></trkpt><trkpt lat="42.55406675362239" lon="-2.5101783918260923"><ele>543.75</ele><time>2026-03-22T09:11:04.999Z</time></trkpt><trkpt lat="42.55419098721143" lon="-2.5102795838160565"><ele>544.0</ele><time>2026-03-22T09:11:05.999Z</time></trkpt><trkpt lat="42.554327970703454" lon="-2.5103769321854306"><ele>544.0</ele><time>2026-03-22T09:11:06.999Z</time></trkpt><trkpt lat="42.554577217904075" lon="-2.510638471118416"><ele>544.0</ele><time>2026-03-22T09:11:08.999Z</time></trkpt><trkpt lat="42.55470114451451" lon="-2.510770537997531"><ele>544.0</ele><time>2026-03-22T09:11:09.999Z</time></trkpt><trkpt lat="42.554829978143566" lon="-2.510898901015351"><ele>544.0</ele><time>2026-03-22T09:11:10.999Z</time></trkpt><trkpt lat="42.55496017049352" lon="-2.511030189826614"><ele>544.0</ele><time>2026-03-22T09:11:11.999Z</time></trkpt><trkpt lat="42.55510602541083" lon="-2.5111095907086782"><ele>544.0</ele><time>2026-03-22T09:11:12.999Z</time></trkpt><trkpt lat="42.555256446169736" lon="-2.5111725163271563"><ele>544.0</ele><time>2026-03-22T09:11:13.999Z</time></trkpt><trkpt lat="42.55541256067181" lon="-2.5112372487684556"><ele>544.0</ele><time>2026-03-22T09:11:14.999Z</time></trkpt><trkpt lat="42.55556895532895" lon="-2.5112942158772866"><ele>543.6666666666667</ele><time>2026-03-22T09:11:15.999Z</time></trkpt><trkpt lat="42.5557292300867" lon="-2.5113407039705824"><ele>543.3333333333334</ele><time>2026-03-22T09:11:16.999Z</time></trkpt><trkpt lat="42.555891787751754" lon="-2.511380163843026"><ele>543.0</ele><time>2026-03-22T09:11:17.999Z</time></trkpt><trkpt lat="42.55605653680879" lon="-2.511413338834029"><ele>543.0</ele><time>2026-03-22T09:11:18.999Z</time></trkpt><trkpt lat="42.556216184546756" lon="-2.5114512764953307"><ele>543.0</ele><time>2026-03-22T09:11:19.999Z</time></trkpt><trkpt lat="42.55637274830434" lon="-2.511478929948514"><ele>543.0</ele><time>2026-03-22T09:11:20.999Z</time></trkpt><trkpt lat="42.55651389857196" lon="-2.511537131032846"><ele>543.0</ele><time>2026-03-22T09:11:21.999Z</time></trkpt><trkpt lat="42.55664726516297" lon="-2.511606566056486"><ele>543.0</ele><time>2026-03-22T09:11:22.999Z</time></trkpt><trkpt lat="42.55676567454911" lon="-2.5116753233176885"><ele>543.0</ele><time>2026-03-22T09:11:23.999Z</time></trkpt><trkpt lat="42.55687970189056" lon="-2.5117404319300456"><ele>543.0</ele><time>2026-03-22T09:11:24.999Z</time></trkpt><trkpt lat="42.55698676154832" lon="-2.5117989718457587"><ele>544.1999999999999</ele><time>2026-03-22T09:11:25.999Z</time></trkpt><trkpt lat="42.5570823633371" lon="-2.5118515186882315"><ele>545.4</ele><time>2026-03-22T09:11:26.999Z</time></trkpt><trkpt lat="42.55716168248801" lon="-2.511896694842024"><ele>546.5999999999999</ele><time>2026-03-22T09:11:27.999Z</time></trkpt><trkpt lat="42.557234065480316" lon="-2.5119454542773716"><ele>547.8</ele><time>2026-03-22T09:11:28.999Z</time></trkpt><trkpt lat="42.557304678584046" lon="-2.512032521318506"><ele>549.0</ele><time>2026-03-22T09:11:29.999Z</time></trkpt><trkpt lat="42.557382343341175" lon="-2.51209459916459"><ele>546.0</ele><time>2026-03-22T09:11:30.999Z</time></trkpt><trkpt lat="42.55747822084719" lon="-2.512161828325605"><ele>543.0</ele><time>2026-03-22T09:11:31.999Z</time></trkpt><trkpt lat="42.55758828329463" lon="-2.512221010542106"><ele>540.0</ele><time>2026-03-22T09:11:32.999Z</time></trkpt><trkpt lat="42.55771122595214" lon="-2.5122714625866416"><ele>537.0</ele><time>2026-03-22T09:11:33.999Z</time></trkpt><trkpt lat="42.55784466906431" lon="-2.512325297195343"><ele>538.25</ele><time>2026-03-22T09:11:34.999Z</time></trkpt><trkpt lat="42.557989161816764" lon="-2.5123428797284904"><ele>539.5</ele><time>2026-03-22T09:11:35.999Z</time></trkpt><trkpt lat="42.55813014767925" lon="-2.5123615143327234"><ele>540.75</ele><time>2026-03-22T09:11:36.999Z</time></trkpt><trkpt lat="42.55827128436766" lon="-2.5123751237929337"><ele>542.0</ele><time>2026-03-22T09:11:37.999Z</time></trkpt><trkpt lat="42.55841375520678" lon="-2.5123695990093386"><ele>542.0</ele><time>2026-03-22T09:11:38.999Z</time></trkpt><trkpt lat="42.55856169772039" lon="-2.512357057938673"><ele>542.0</ele><time>2026-03-22T09:11:39.999Z</time></trkpt><trkpt lat="42.55868776069194" lon="-2.512282067219437"><ele>542.0</ele><time>2026-03-22T09:11:40.999Z</time></trkpt><trkpt lat="42.55880621674092" lon="-2.5122046714375506"><ele>542.0</ele><time>2026-03-22T09:11:41.999Z</time></trkpt><trkpt lat="42.558928649150985" lon="-2.512124422273335"><ele>543.5</ele><time>2026-03-22T09:11:42.999Z</time></trkpt><trkpt lat="42.559036531889866" lon="-2.512026381493733"><ele>545.0</ele><time>2026-03-22T09:11:43.999Z</time></trkpt><trkpt lat="42.559151918382256" lon="-2.511962826855015"><ele>546.5</ele><time>2026-03-22T09:11:44.999Z</time></trkpt><trkpt lat="42.559273430535605" lon="-2.5119316871299437"><ele>548.0</ele><time>2026-03-22T09:11:45.999Z</time></trkpt><trkpt lat="42.5594001089165" lon="-2.511933143574543"><ele>548.5</ele><time>2026-03-22T09:11:46.999Z</time></trkpt><trkpt lat="42.55953699064543" lon="-2.511924695723491"><ele>549.0</ele><time>2026-03-22T09:11:47.999Z</time></trkpt><trkpt lat="42.559685993526266" lon="-2.511911080723882"><ele>549.5</ele><time>2026-03-22T09:11:48.999Z</time></trkpt><trkpt lat="42.5598293713675" lon="-2.511872921043748"><ele>550.0</ele><time>2026-03-22T09:11:49.999Z</time></trkpt><trkpt lat="42.55998546828814" lon="-2.511862795676399"><ele>550.0</ele><time>2026-03-22T09:11:50.999Z</time></trkpt><trkpt lat="42.560136516679506" lon="-2.5118088474058657"><ele>550.0</ele><time>2026-03-22T09:11:51.999Z</time></trkpt><trkpt lat="42.560301303046366" lon="-2.5117280113791662"><ele>550.0</ele><time>2026-03-22T09:11:52.999Z</time></trkpt><trkpt lat="42.560448654654756" lon="-2.51166833828589"><ele>549.75</ele><time>2026-03-22T09:11:53.999Z</time></trkpt><trkpt lat="42.56059747090294" lon="-2.5116061071396163"><ele>549.5</ele><time>2026-03-22T09:11:54.998Z</time></trkpt><trkpt lat="42.56074045333043" lon="-2.5115478252462275"><ele>549.25</ele><time>2026-03-22T09:11:55.998Z</time></trkpt><trkpt lat="42.560873806265576" lon="-2.5114848510375336"><ele>549.0</ele><time>2026-03-22T09:11:56.998Z</time></trkpt><trkpt lat="42.56098567538445" lon="-2.5114062022588177"><ele>549.0</ele><time>2026-03-22T09:11:57.998Z</time></trkpt><trkpt lat="42.561093223620674" lon="-2.5113087997522032"><ele>549.0</ele><time>2026-03-22T09:11:58.998Z</time></trkpt><trkpt lat="42.561207806627095" lon="-2.511201579277432"><ele>549.0</ele><time>2026-03-22T09:11:59.998Z</time></trkpt><trkpt lat="42.561326555404925" lon="-2.5110843867512314"><ele>549.0</ele><time>2026-03-22T09:12:00.998Z</time></trkpt><trkpt lat="42.56144368168864" lon="-2.510963689287267"><ele>550.75</ele><time>2026-03-22T09:12:01.998Z</time></trkpt><trkpt lat="42.56156564537671" lon="-2.5108512482813534"><ele>552.5</ele><time>2026-03-22T09:12:02.998Z</time></trkpt><trkpt lat="42.56170003519255" lon="-2.5107625201241057"><ele>554.25</ele><time>2026-03-22T09:12:03.998Z</time></trkpt><trkpt lat="42.561844954683274" lon="-2.5107072098955454"><ele>556.0</ele><time>2026-03-22T09:12:04.998Z</time></trkpt><trkpt lat="42.56199855997693" lon="-2.5106934241227035"><ele>555.3333333333334</ele><time>2026-03-22T09:12:05.998Z</time></trkpt><trkpt lat="42.56215097761886" lon="-2.510702763920108"><ele>554.6666666666666</ele><time>2026-03-22T09:12:06.998Z</time></trkpt><trkpt lat="42.5623066359487" lon="-2.5107327464866835"><ele>554.0</ele><time>2026-03-22T09:12:07.998Z</time></trkpt><trkpt lat="42.562468237971636" lon="-2.5107695745151664"><ele>554.0</ele><time>2026-03-22T09:12:08.998Z</time></trkpt><trkpt lat="42.562625003171036" lon="-2.5108028898136343"><ele>554.0</ele><time>2026-03-22T09:12:09.998Z</time></trkpt><trkpt lat="42.56277812007114" lon="-2.5108332541559713"><ele>554.0</ele><time>2026-03-22T09:12:10.998Z</time></trkpt><trkpt lat="42.562928808469124" lon="-2.510868936243155"><ele>554.25</ele><time>2026-03-22T09:12:11.998Z</time></trkpt><trkpt lat="42.56307007328274" lon="-2.5108963550317833"><ele>554.5</ele><time>2026-03-22T09:12:12.998Z</time></trkpt><trkpt lat="42.56321305694544" lon="-2.5109204045233495"><ele>554.75</ele><time>2026-03-22T09:12:13.998Z</time></trkpt><trkpt lat="42.563360829380905" lon="-2.510946476026085"><ele>555.0</ele><time>2026-03-22T09:12:14.998Z</time></trkpt><trkpt lat="42.5635129301518" lon="-2.510976099252192"><ele>555.0</ele><time>2026-03-22T09:12:15.998Z</time></trkpt><trkpt lat="42.56366654346702" lon="-2.511005885634879"><ele>555.0</ele><time>2026-03-22T09:12:16.998Z</time></trkpt><trkpt lat="42.563826581693114" lon="-2.5110135133204214"><ele>555.0</ele><time>2026-03-22T09:12:17.998Z</time></trkpt><trkpt lat="42.563985469330326" lon="-2.511042802438465"><ele>557.6666666666666</ele><time>2026-03-22T09:12:19Z</time></trkpt><trkpt lat="42.5641474362908" lon="-2.5110726299332966"><ele>560.3333333333333</ele><time>2026-03-22T09:12:20Z</time></trkpt><trkpt lat="42.56430969141354" lon="-2.5111109582772646"><ele>563.0</ele><time>2026-03-22T09:12:21Z</time></trkpt><trkpt lat="42.56447178081061" lon="-2.5111397509429327"><ele>564.0</ele><time>2026-03-22T09:12:22Z</time></trkpt><trkpt lat="42.5646392135002" lon="-2.511167494178392"><ele>565.0</ele><time>2026-03-22T09:12:23Z</time></trkpt><trkpt lat="42.56481029526539" lon="-2.511197184590348"><ele>566.0</ele><time>2026-03-22T09:12:24Z</time></trkpt><trkpt lat="42.56497852108444" lon="-2.511222046912772"><ele>566.0</ele><time>2026-03-22T09:12:25Z</time></trkpt><trkpt lat="42.56514917280379" lon="-2.511250669945362"><ele>566.0</ele><time>2026-03-22T09:12:26Z</time></trkpt><trkpt lat="42.56531432386822" lon="-2.5112842667357453"><ele>566.0</ele><time>2026-03-22T09:12:27Z</time></trkpt><trkpt lat="42.565474486565" lon="-2.5113352393381643"><ele>568.6666666666666</ele><time>2026-03-22T09:12:28Z</time></trkpt><trkpt lat="42.565613026191855" lon="-2.5114152165798083"><ele>571.3333333333334</ele><time>2026-03-22T09:12:29Z</time></trkpt><trkpt lat="42.56574780991183" lon="-2.511525008660544"><ele>574.0</ele><time>2026-03-22T09:12:30Z</time></trkpt><trkpt lat="42.56588522304977" lon="-2.5116383535946403"><ele>574.0</ele><time>2026-03-22T09:12:31Z</time></trkpt><trkpt lat="42.56602718145327" lon="-2.5117667492141664"><ele>574.0</ele><time>2026-03-22T09:12:32Z</time></trkpt><trkpt lat="42.566164113172896" lon="-2.5118906530237712"><ele>574.0</ele><time>2026-03-22T09:12:33Z</time></trkpt><trkpt lat="42.566295833874705" lon="-2.5120144552339436"><ele>575.25</ele><time>2026-03-22T09:12:34Z</time></trkpt><trkpt lat="42.56640744671669" lon="-2.512140623262067"><ele>576.5</ele><time>2026-03-22T09:12:35Z</time></trkpt><trkpt lat="42.5664789033993" lon="-2.5123026610853296"><ele>577.75</ele><time>2026-03-22T09:12:36Z</time></trkpt><trkpt lat="42.5665560760786" lon="-2.5124681867406617"><ele>579.0</ele><time>2026-03-22T09:12:37Z</time></trkpt><trkpt lat="42.56662080127229" lon="-2.512641133691198"><ele>579.0</ele><time>2026-03-22T09:12:38Z</time></trkpt><trkpt lat="42.566693031772914" lon="-2.5127922530810713"><ele>579.0</ele><time>2026-03-22T09:12:39Z</time></trkpt><trkpt lat="42.566796544911355" lon="-2.5129055474566515"><ele>579.0</ele><time>2026-03-22T09:12:40Z</time></trkpt><trkpt lat="42.5669246263085" lon="-2.5129973724220553"><ele>579.0</ele><time>2026-03-22T09:12:41Z</time></trkpt><trkpt lat="42.56706400185516" lon="-2.5130986875437955"><ele>581.3333333333334</ele><time>2026-03-22T09:12:42Z</time></trkpt><trkpt lat="42.56720789852011" lon="-2.5132220145421513"><ele>583.6666666666667</ele><time>2026-03-22T09:12:43Z</time></trkpt><trkpt lat="42.56735670934573" lon="-2.513306816929069"><ele>586.0</ele><time>2026-03-22T09:12:44Z</time></trkpt><trkpt lat="42.56752098158131" lon="-2.513367239404994"><ele>586.0</ele><time>2026-03-22T09:12:45Z</time></trkpt><trkpt lat="42.567687342421" lon="-2.5133916498394506"><ele>586.0</ele><time>2026-03-22T09:12:46Z</time></trkpt><trkpt lat="42.567860737386034" lon="-2.51340171992763"><ele>586.0</ele><time>2026-03-22T09:12:47Z</time></trkpt><trkpt lat="42.56803348878709" lon="-2.5134195129349606"><ele>587.6666666666667</ele><time>2026-03-22T09:12:48Z</time></trkpt><trkpt lat="42.56820237668807" lon="-2.5134397258709735"><ele>589.3333333333334</ele><time>2026-03-22T09:12:49Z</time></trkpt><trkpt lat="42.56837002358014" lon="-2.513464777132657"><ele>591.0</ele><time>2026-03-22T09:12:50Z</time></trkpt><trkpt lat="42.568537434518994" lon="-2.513499877637072"><ele>591.6666666666666</ele><time>2026-03-22T09:12:51Z</time></trkpt><trkpt lat="42.56870907301486" lon="-2.51355902027606"><ele>592.3333333333333</ele><time>2026-03-22T09:12:52Z</time></trkpt><trkpt lat="42.56888108807969" lon="-2.5136369069435927"><ele>593.0</ele><time>2026-03-22T09:12:53Z</time></trkpt><trkpt lat="42.56905054401239" lon="-2.5137270775785945"><ele>594.3333333333333</ele><time>2026-03-22T09:12:54Z</time></trkpt><trkpt lat="42.569222387501306" lon="-2.5138272371233152"><ele>595.6666666666666</ele><time>2026-03-22T09:12:55Z</time></trkpt><trkpt lat="42.569392128326776" lon="-2.5139340606266187"><ele>597.0</ele><time>2026-03-22T09:12:56Z</time></trkpt><trkpt lat="42.56956875788506" lon="-2.5140195500349027"><ele>597.3333333333334</ele><time>2026-03-22T09:12:57Z</time></trkpt><trkpt lat="42.569742008567005" lon="-2.5141236633693613"><ele>597.6666666666667</ele><time>2026-03-22T09:12:58Z</time></trkpt><trkpt lat="42.56991737664245" lon="-2.514229049125494"><ele>598.0</ele><time>2026-03-22T09:12:59Z</time></trkpt><trkpt lat="42.57008441134724" lon="-2.5143541835962475"><ele>598.0</ele><time>2026-03-22T09:13:00Z</time></trkpt><trkpt lat="42.57026296448603" lon="-2.514460201016591"><ele>598.0</ele><time>2026-03-22T09:13:01Z</time></trkpt><trkpt lat="42.57043681733058" lon="-2.5145670405991005"><ele>598.0</ele><time>2026-03-22T09:13:02Z</time></trkpt><trkpt lat="42.570607259870755" lon="-2.514661394343785"><ele>600.6666666666667</ele><time>2026-03-22T09:13:02.999Z</time></trkpt><trkpt lat="42.57077132142999" lon="-2.5147251948506817"><ele>603.3333333333334</ele><time>2026-03-22T09:13:03.999Z</time></trkpt><trkpt lat="42.57093237216535" lon="-2.514747793585489"><ele>606.0</ele><time>2026-03-22T09:13:04.999Z</time></trkpt><trkpt lat="42.57109832123148" lon="-2.5147310469181194"><ele>606.6666666666666</ele><time>2026-03-22T09:13:05.999Z</time></trkpt><trkpt lat="42.5712667212971" lon="-2.514677777374312"><ele>607.3333333333333</ele><time>2026-03-22T09:13:06.999Z</time></trkpt><trkpt lat="42.571437895044745" lon="-2.5145980033848954"><ele>608.0</ele><time>2026-03-22T09:13:07.999Z</time></trkpt><trkpt lat="42.57160942599982" lon="-2.514513183470545"><ele>608.0</ele><time>2026-03-22T09:13:08.999Z</time></trkpt><trkpt lat="42.57178375259455" lon="-2.514435450661448"><ele>608.0</ele><time>2026-03-22T09:13:09.999Z</time></trkpt><trkpt lat="42.571965674880566" lon="-2.5143592321267563"><ele>608.0</ele><time>2026-03-22T09:13:10.999Z</time></trkpt><trkpt lat="42.572136027346694" lon="-2.514293358454587"><ele>610.0</ele><time>2026-03-22T09:13:11.999Z</time></trkpt><trkpt lat="42.572290307436084" lon="-2.5142492390818965"><ele>612.0</ele><time>2026-03-22T09:13:12.999Z</time></trkpt><trkpt lat="42.57244481188689" lon="-2.5142376554513555"><ele>614.0</ele><time>2026-03-22T09:13:13.999Z</time></trkpt><trkpt lat="42.57260676959148" lon="-2.5142543434606917"><ele>614.0</ele><time>2026-03-22T09:13:14.999Z</time></trkpt><trkpt lat="42.57276963622196" lon="-2.514294735224517"><ele>614.0</ele><time>2026-03-22T09:13:15.999Z</time></trkpt><trkpt lat="42.57292822670223" lon="-2.5143337691011363"><ele>614.0</ele><time>2026-03-22T09:13:16.999Z</time></trkpt><trkpt lat="42.57308314581234" lon="-2.5143421388642664"><ele>615.3333333333333</ele><time>2026-03-22T09:13:17.999Z</time></trkpt><trkpt lat="42.5732405851398" lon="-2.51432750481507"><ele>616.6666666666666</ele><time>2026-03-22T09:13:18.999Z</time></trkpt><trkpt lat="42.573396380085455" lon="-2.5142994882507055"><ele>618.0</ele><time>2026-03-22T09:13:19.999Z</time></trkpt><trkpt lat="42.57354961903217" lon="-2.514284241327482"><ele>618.5</ele><time>2026-03-22T09:13:20.999Z</time></trkpt><trkpt lat="42.573701101151826" lon="-2.5143030949160288"><ele>619.0</ele><time>2026-03-22T09:13:21.999Z</time></trkpt><trkpt lat="42.57384135595157" lon="-2.5143467676738442"><ele>619.5</ele><time>2026-03-22T09:13:22.999Z</time></trkpt><trkpt lat="42.57397571652546" lon="-2.5143993233776603"><ele>620.0</ele><time>2026-03-22T09:13:23.999Z</time></trkpt><trkpt lat="42.574094966440555" lon="-2.5144442691122393"><ele>620.0</ele><time>2026-03-22T09:13:24.999Z</time></trkpt><trkpt lat="42.57419734678752" lon="-2.5144829707253478"><ele>620.0</ele><time>2026-03-22T09:13:25.999Z</time></trkpt><trkpt lat="42.57428983880996" lon="-2.5145353727418143"><ele>620.0</ele><time>2026-03-22T09:13:26.999Z</time></trkpt><trkpt lat="42.57438136901981" lon="-2.5145975785462986"><ele>620.0</ele><time>2026-03-22T09:13:27.999Z</time></trkpt><trkpt lat="42.574451175164356" lon="-2.5147301236182824"><ele>620.0</ele><time>2026-03-22T09:13:28.999Z</time></trkpt><trkpt lat="42.57448788311445" lon="-2.514894590852204"><ele>620.0</ele><time>2026-03-22T09:13:29.999Z</time></trkpt><trkpt lat="42.57450753481922" lon="-2.515062918398586"><ele>620.0</ele><time>2026-03-22T09:13:30.999Z</time></trkpt><trkpt lat="42.574530444320885" lon="-2.515228620944868"><ele>620.0</ele><time>2026-03-22T09:13:31.999Z</time></trkpt><trkpt lat="42.574556079072465" lon="-2.5153906105585904"><ele>620.0</ele><time>2026-03-22T09:13:32.999Z</time></trkpt><trkpt lat="42.57458932127465" lon="-2.5155472439186437"><ele>619.75</ele><time>2026-03-22T09:13:33.999Z</time></trkpt><trkpt lat="42.57463741403929" lon="-2.515684818304521"><ele>619.5</ele><time>2026-03-22T09:13:34.999Z</time></trkpt><trkpt lat="42.57470411744606" lon="-2.515805500467056"><ele>619.25</ele><time>2026-03-22T09:13:35.999Z</time></trkpt><trkpt lat="42.57477899116056" lon="-2.515916046850207"><ele>619.0</ele><time>2026-03-22T09:13:36.999Z</time></trkpt><trkpt lat="42.57485872360789" lon="-2.51603374717788"><ele>619.0</ele><time>2026-03-22T09:13:37.999Z</time></trkpt><trkpt lat="42.574940318633445" lon="-2.516154196954454"><ele>619.0</ele><time>2026-03-22T09:13:38.999Z</time></trkpt><trkpt lat="42.5750238868738" lon="-2.516274354393672"><ele>619.0</ele><time>2026-03-22T09:13:39.999Z</time></trkpt><trkpt lat="42.575101833364975" lon="-2.5163966588334605"><ele>619.0</ele><time>2026-03-22T09:13:40.999Z</time></trkpt><trkpt lat="42.57518632436317" lon="-2.5164971379564283"><ele>618.2</ele><time>2026-03-22T09:13:41.999Z</time></trkpt><trkpt lat="42.5752787068241" lon="-2.516573546241169"><ele>617.4</ele><time>2026-03-22T09:13:42.999Z</time></trkpt><trkpt lat="42.57537371412631" lon="-2.516639731698168"><ele>616.6</ele><time>2026-03-22T09:13:43.999Z</time></trkpt><trkpt lat="42.57547692091777" lon="-2.516691763051691"><ele>615.8</ele><time>2026-03-22T09:13:44.999Z</time></trkpt><trkpt lat="42.575585449704036" lon="-2.5167268624423595"><ele>615.0</ele><time>2026-03-22T09:13:45.999Z</time></trkpt><trkpt lat="42.57569473998247" lon="-2.516732666810516"><ele>615.0</ele><time>2026-03-22T09:13:46.999Z</time></trkpt><trkpt lat="42.57580180144372" lon="-2.516718390024868"><ele>615.0</ele><time>2026-03-22T09:13:47.999Z</time></trkpt><trkpt lat="42.57590055018111" lon="-2.516682231075124"><ele>615.0</ele><time>2026-03-22T09:13:48.999Z</time></trkpt><trkpt lat="42.57600196704652" lon="-2.516633767952547"><ele>615.0</ele><time>2026-03-22T09:13:49.999Z</time></trkpt><trkpt lat="42.57611154963088" lon="-2.5165842911827068"><ele>615.0</ele><time>2026-03-22T09:13:50.999Z</time></trkpt><trkpt lat="42.57622729145801" lon="-2.516543586789735"><ele>614.5</ele><time>2026-03-22T09:13:51.999Z</time></trkpt><trkpt lat="42.576346422488974" lon="-2.516502630423874"><ele>614.0</ele><time>2026-03-22T09:13:52.999Z</time></trkpt><trkpt lat="42.57646898851723" lon="-2.5164623841699303"><ele>613.5</ele><time>2026-03-22T09:13:53.999Z</time></trkpt><trkpt lat="42.576583088802494" lon="-2.516428133750691"><ele>613.0</ele><time>2026-03-22T09:13:54.999Z</time></trkpt><trkpt lat="42.57669628026894" lon="-2.516411358192868"><ele>613.0</ele><time>2026-03-22T09:13:55.999Z</time></trkpt><trkpt lat="42.57681141138123" lon="-2.516412298071266"><ele>613.0</ele><time>2026-03-22T09:13:56.999Z</time></trkpt><trkpt lat="42.576931217560386" lon="-2.5164353307473344"><ele>613.0</ele><time>2026-03-22T09:13:57.999Z</time></trkpt><trkpt lat="42.57704845857738" lon="-2.516475635923815"><ele>613.0</ele><time>2026-03-22T09:13:58.999Z</time></trkpt><trkpt lat="42.57716682506313" lon="-2.5165211588880956"><ele>614.0</ele><time>2026-03-22T09:13:59.999Z</time></trkpt><trkpt lat="42.577292374258434" lon="-2.5165471614362476"><ele>615.0</ele><time>2026-03-22T09:14:00.999Z</time></trkpt><trkpt lat="42.577428451996916" lon="-2.516559139649163"><ele>616.0</ele><time>2026-03-22T09:14:01.998Z</time></trkpt><trkpt lat="42.577572380944495" lon="-2.5165710526285396"><ele>617.0</ele><time>2026-03-22T09:14:02.998Z</time></trkpt><trkpt lat="42.57771756104476" lon="-2.516579202791806"><ele>617.25</ele><time>2026-03-22T09:14:03.998Z</time></trkpt><trkpt lat="42.577863880202365" lon="-2.5165720336041746"><ele>617.5</ele><time>2026-03-22T09:14:04.998Z</time></trkpt><trkpt lat="42.57800952476316" lon="-2.516556299465342"><ele>617.75</ele><time>2026-03-22T09:14:05.998Z</time></trkpt><trkpt lat="42.57815753634228" lon="-2.5165374547153854"><ele>618.0</ele><time>2026-03-22T09:14:06.998Z</time></trkpt><trkpt lat="42.57831083463786" lon="-2.516508041545183"><ele>618.0</ele><time>2026-03-22T09:14:07.998Z</time></trkpt><trkpt lat="42.57846589058359" lon="-2.5164657947440574"><ele>618.0</ele><time>2026-03-22T09:14:08.998Z</time></trkpt><trkpt lat="42.57862307418924" lon="-2.516428220495345"><ele>618.0</ele><time>2026-03-22T09:14:09.998Z</time></trkpt><trkpt lat="42.57878369064975" lon="-2.5164081798567843"><ele>617.25</ele><time>2026-03-22T09:14:10.998Z</time></trkpt><trkpt lat="42.57893984155813" lon="-2.5164104378331578"><ele>616.5</ele><time>2026-03-22T09:14:11.998Z</time></trkpt><trkpt lat="42.579079933847254" lon="-2.5164181297781236"><ele>615.75</ele><time>2026-03-22T09:14:12.998Z</time></trkpt><trkpt lat="42.579217088558636" lon="-2.516407904515754"><ele>615.0</ele><time>2026-03-22T09:14:13.998Z</time></trkpt><trkpt lat="42.579362119624065" lon="-2.5163747488583366"><ele>615.0</ele><time>2026-03-22T09:14:14.998Z</time></trkpt><trkpt lat="42.57951546562359" lon="-2.516331693752057"><ele>615.0</ele><time>2026-03-22T09:14:15.998Z</time></trkpt><trkpt lat="42.57967602309604" lon="-2.5162881638794574"><ele>615.0</ele><time>2026-03-22T09:14:16.998Z</time></trkpt><trkpt lat="42.57983893689296" lon="-2.516249869102649"><ele>620.0</ele><time>2026-03-22T09:14:17.998Z</time></trkpt><trkpt lat="42.579998045688406" lon="-2.516197910840453"><ele>625.0</ele><time>2026-03-22T09:14:18.998Z</time></trkpt><trkpt lat="42.58015273777046" lon="-2.516132117295667"><ele>630.0</ele><time>2026-03-22T09:14:19.998Z</time></trkpt><trkpt lat="42.58030111188363" lon="-2.5160572194203183"><ele>626.0</ele><time>2026-03-22T09:14:20.998Z</time></trkpt><trkpt lat="42.580444947818535" lon="-2.5159688158289413"><ele>622.0</ele><time>2026-03-22T09:14:21.998Z</time></trkpt><trkpt lat="42.58058956296643" lon="-2.515875400396737"><ele>618.0</ele><time>2026-03-22T09:14:22.998Z</time></trkpt><trkpt lat="42.58073131046756" lon="-2.515781145136778"><ele>618.0</ele><time>2026-03-22T09:14:23.998Z</time></trkpt><trkpt lat="42.58087293271309" lon="-2.5156838763023077"><ele>618.0</ele><time>2026-03-22T09:14:25Z</time></trkpt><trkpt lat="42.58101477776017" lon="-2.5155897528610174"><ele>618.0</ele><time>2026-03-22T09:14:26Z</time></trkpt><trkpt lat="42.58115141059072" lon="-2.515490924883611"><ele>619.5</ele><time>2026-03-22T09:14:27Z</time></trkpt><trkpt lat="42.58127205933157" lon="-2.5153720602515897"><ele>621.0</ele><time>2026-03-22T09:14:28Z</time></trkpt><trkpt lat="42.581381741093885" lon="-2.5152462700138876"><ele>622.5</ele><time>2026-03-22T09:14:29Z</time></trkpt><trkpt lat="42.581481419122056" lon="-2.515129586241748"><ele>624.0</ele><time>2026-03-22T09:14:30Z</time></trkpt><trkpt lat="42.58157525458471" lon="-2.515031886422199"><ele>624.0</ele><time>2026-03-22T09:14:31Z</time></trkpt><trkpt lat="42.581661778320964" lon="-2.514958035652422"><ele>624.0</ele><time>2026-03-22T09:14:32Z</time></trkpt><trkpt lat="42.581741020329574" lon="-2.514918722259503"><ele>624.0</ele><time>2026-03-22T09:14:33Z</time></trkpt><trkpt lat="42.581821256303165" lon="-2.51493123946227"><ele>624.0</ele><time>2026-03-22T09:14:34Z</time></trkpt><trkpt lat="42.58189307769657" lon="-2.5149877861617487"><ele>624.0</ele><time>2026-03-22T09:14:35Z</time></trkpt><trkpt lat="42.58197773945835" lon="-2.515054181314681"><ele>624.0</ele><time>2026-03-22T09:14:36Z</time></trkpt><trkpt lat="42.582044238835955" lon="-2.5151916993941223"><ele>624.75</ele><time>2026-03-22T09:14:37Z</time></trkpt><trkpt lat="42.58209628585345" lon="-2.5153449124588967"><ele>625.5</ele><time>2026-03-22T09:14:38Z</time></trkpt><trkpt lat="42.58214742430705" lon="-2.5155048341521726"><ele>626.25</ele><time>2026-03-22T09:14:39Z</time></trkpt><trkpt lat="42.58220281603685" lon="-2.5156735417968625"><ele>627.0</ele><time>2026-03-22T09:14:40Z</time></trkpt><trkpt lat="42.582267271141006" lon="-2.515818082049313"><ele>627.0</ele><time>2026-03-22T09:14:41Z</time></trkpt><trkpt lat="42.58234568121954" lon="-2.515922957631774"><ele>627.0</ele><time>2026-03-22T09:14:42Z</time></trkpt><trkpt lat="42.58245595924933" lon="-2.51598886326784"><ele>627.0</ele><time>2026-03-22T09:14:43Z</time></trkpt><trkpt lat="42.58258651564904" lon="-2.5160351295966272"><ele>627.0</ele><time>2026-03-22T09:14:44Z</time></trkpt><trkpt lat="42.58272511122563" lon="-2.516084525487872"><ele>629.3333333333334</ele><time>2026-03-22T09:14:45Z</time></trkpt><trkpt lat="42.582873990991935" lon="-2.5160825059356373"><ele>631.6666666666667</ele><time>2026-03-22T09:14:46Z</time></trkpt><trkpt lat="42.58302476424855" lon="-2.516068747479818"><ele>634.0</ele><time>2026-03-22T09:14:47Z</time></trkpt><trkpt lat="42.58317831154615" lon="-2.5160242408256717"><ele>634.0</ele><time>2026-03-22T09:14:48Z</time></trkpt><trkpt lat="42.58333634318739" lon="-2.5159674814868223"><ele>634.0</ele><time>2026-03-22T09:14:49Z</time></trkpt><trkpt lat="42.58349626845298" lon="-2.515915694902839"><ele>634.0</ele><time>2026-03-22T09:14:50Z</time></trkpt><trkpt lat="42.583656210949556" lon="-2.5158750674805592"><ele>636.0</ele><time>2026-03-22T09:14:51Z</time></trkpt><trkpt lat="42.58381447093137" lon="-2.5158510740413806"><ele>638.0</ele><time>2026-03-22T09:14:52Z</time></trkpt><trkpt lat="42.58397999577323" lon="-2.515858444157215"><ele>640.0</ele><time>2026-03-22T09:14:53Z</time></trkpt><trkpt lat="42.584144941327665" lon="-2.5158949090778746"><ele>640.0</ele><time>2026-03-22T09:14:54Z</time></trkpt><trkpt lat="42.58430337570938" lon="-2.5159315559630016"><ele>640.0</ele><time>2026-03-22T09:14:55Z</time></trkpt><trkpt lat="42.584470102565994" lon="-2.515945437624748"><ele>640.0</ele><time>2026-03-22T09:14:56Z</time></trkpt><trkpt lat="42.584639914238295" lon="-2.5159235893279317"><ele>640.0</ele><time>2026-03-22T09:14:57Z</time></trkpt><trkpt lat="42.58481306250778" lon="-2.515874773267951"><ele>640.0</ele><time>2026-03-22T09:14:58Z</time></trkpt><trkpt lat="42.58497095954571" lon="-2.51582845431348"><ele>640.0</ele><time>2026-03-22T09:14:59Z</time></trkpt><trkpt lat="42.585113794529136" lon="-2.5157652124763725"><ele>640.0</ele><time>2026-03-22T09:15:00Z</time></trkpt><trkpt lat="42.58524812508015" lon="-2.5156801143025977"><ele>640.0</ele><time>2026-03-22T09:15:01Z</time></trkpt><trkpt lat="42.58537119289985" lon="-2.515551980695763"><ele>640.0</ele><time>2026-03-22T09:15:02Z</time></trkpt><trkpt lat="42.585480828539986" lon="-2.515383350240648"><ele>641.3333333333334</ele><time>2026-03-22T09:15:03Z</time></trkpt><trkpt lat="42.585570315295996" lon="-2.51519298275438"><ele>642.6666666666666</ele><time>2026-03-22T09:15:04Z</time></trkpt><trkpt lat="42.585640645274054" lon="-2.5149801724627476"><ele>644.0</ele><time>2026-03-22T09:15:05Z</time></trkpt><trkpt lat="42.58570394019277" lon="-2.5147627938278987"><ele>645.5</ele><time>2026-03-22T09:15:06Z</time></trkpt><trkpt lat="42.5857697431344" lon="-2.514563517949444"><ele>647.0</ele><time>2026-03-22T09:15:07Z</time></trkpt><trkpt lat="42.58584594415327" lon="-2.5143968436337847"><ele>648.5</ele><time>2026-03-22T09:15:08Z</time></trkpt><trkpt lat="42.58593678657479" lon="-2.5142665030083426"><ele>650.0</ele><time>2026-03-22T09:15:08.999Z</time></trkpt><trkpt lat="42.586044862837404" lon="-2.5141718889604654"><ele>650.0</ele><time>2026-03-22T09:15:09.999Z</time></trkpt><trkpt lat="42.58616585968659" lon="-2.5141135794915126"><ele>650.0</ele><time>2026-03-22T09:15:10.999Z</time></trkpt><trkpt lat="42.58629640881867" lon="-2.5140888644380297"><ele>650.0</ele><time>2026-03-22T09:15:11.999Z</time></trkpt><trkpt lat="42.58643973003656" lon="-2.5140795190815433"><ele>650.0</ele><time>2026-03-22T09:15:12.999Z</time></trkpt><trkpt lat="42.58659001853996" lon="-2.514087936370707"><ele>651.0</ele><time>2026-03-22T09:15:13.999Z</time></trkpt><trkpt lat="42.58674855113685" lon="-2.514107424716145"><ele>652.0</ele><time>2026-03-22T09:15:14.999Z</time></trkpt><trkpt lat="42.58690807298674" lon="-2.5141390647792363"><ele>653.0</ele><time>2026-03-22T09:15:15.999Z</time></trkpt><trkpt lat="42.58707564620371" lon="-2.514171451722502"><ele>653.0</ele><time>2026-03-22T09:15:16.999Z</time></trkpt><trkpt lat="42.58723989948741" lon="-2.514190456050273"><ele>653.0</ele><time>2026-03-22T09:15:17.999Z</time></trkpt><trkpt lat="42.58740034662007" lon="-2.5141932106302276"><ele>653.0</ele><time>2026-03-22T09:15:18.999Z</time></trkpt><trkpt lat="42.58754944138293" lon="-2.5141649834489677"><ele>653.0</ele><time>2026-03-22T09:15:19.999Z</time></trkpt><trkpt lat="42.5876833934534" lon="-2.5140969026876627"><ele>653.0</ele><time>2026-03-22T09:15:20.999Z</time></trkpt><trkpt lat="42.58781374956132" lon="-2.5139941108761334"><ele>653.0</ele><time>2026-03-22T09:15:21.999Z</time></trkpt><trkpt lat="42.58793675011706" lon="-2.5138473967245187"><ele>654.3333333333333</ele><time>2026-03-22T09:15:22.999Z</time></trkpt><trkpt lat="42.5880627632369" lon="-2.513698843548048"><ele>655.6666666666666</ele><time>2026-03-22T09:15:23.999Z</time></trkpt><trkpt lat="42.588196511975674" lon="-2.5135534230161016"><ele>657.0</ele><time>2026-03-22T09:15:24.999Z</time></trkpt><trkpt lat="42.588339546275485" lon="-2.5134126721451744"><ele>657.0</ele><time>2026-03-22T09:15:25.999Z</time></trkpt><trkpt lat="42.588483276304956" lon="-2.5132724874576513"><ele>657.0</ele><time>2026-03-22T09:15:26.999Z</time></trkpt><trkpt lat="42.58862023236857" lon="-2.5131249796974395"><ele>657.0</ele><time>2026-03-22T09:15:27.999Z</time></trkpt><trkpt lat="42.588745081977976" lon="-2.5129653078614886"><ele>659.3333333333334</ele><time>2026-03-22T09:15:28.999Z</time></trkpt><trkpt lat="42.58885202522985" lon="-2.5127943172004152"><ele>661.6666666666667</ele><time>2026-03-22T09:15:29.999Z</time></trkpt><trkpt lat="42.588968430457186" lon="-2.5126391455988935"><ele>664.0</ele><time>2026-03-22T09:15:30.999Z</time></trkpt><trkpt lat="42.5891031213353" lon="-2.5125157516934964"><ele>664.0</ele><time>2026-03-22T09:15:31.999Z</time></trkpt><trkpt lat="42.589259961472656" lon="-2.5124272396079186"><ele>664.0</ele><time>2026-03-22T09:15:32.999Z</time></trkpt><trkpt lat="42.58942926503539" lon="-2.512363572895472"><ele>664.0</ele><time>2026-03-22T09:15:33.999Z</time></trkpt><trkpt lat="42.58959797510042" lon="-2.512312117350873"><ele>663.0</ele><time>2026-03-22T09:15:34.999Z</time></trkpt><trkpt lat="42.58976864846139" lon="-2.5122544898528374"><ele>662.0</ele><time>2026-03-22T09:15:35.999Z</time></trkpt><trkpt lat="42.58993363814629" lon="-2.512191788697873"><ele>661.0</ele><time>2026-03-22T09:15:36.999Z</time></trkpt><trkpt lat="42.590090910997596" lon="-2.512114573542766"><ele>662.6666666666667</ele><time>2026-03-22T09:15:37.999Z</time></trkpt><trkpt lat="42.59023887876817" lon="-2.5120007511156515"><ele>664.3333333333334</ele><time>2026-03-22T09:15:38.999Z</time></trkpt><trkpt lat="42.590381049113915" lon="-2.5118550733675207"><ele>666.0</ele><time>2026-03-22T09:15:39.999Z</time></trkpt><trkpt lat="42.59052091649179" lon="-2.5117001581916933"><ele>666.0</ele><time>2026-03-22T09:15:40.999Z</time></trkpt><trkpt lat="42.59066921114373" lon="-2.511542877006507"><ele>666.0</ele><time>2026-03-22T09:15:41.999Z</time></trkpt><trkpt lat="42.59081903290702" lon="-2.5113910103570896"><ele>666.0</ele><time>2026-03-22T09:15:42.999Z</time></trkpt><trkpt lat="42.59096863144126" lon="-2.5112419563302115"><ele>666.6666666666666</ele><time>2026-03-22T09:15:43.999Z</time></trkpt><trkpt lat="42.59112076992042" lon="-2.51110075723625"><ele>667.3333333333333</ele><time>2026-03-22T09:15:44.999Z</time></trkpt><trkpt lat="42.59127154288193" lon="-2.510976931007826"><ele>668.0</ele><time>2026-03-22T09:15:45.999Z</time></trkpt><trkpt lat="42.59143075006126" lon="-2.510869259650702"><ele>668.0</ele><time>2026-03-22T09:15:46.999Z</time></trkpt><trkpt lat="42.591599758263335" lon="-2.510784095866311"><ele>668.0</ele><time>2026-03-22T09:15:47.999Z</time></trkpt><trkpt lat="42.59177822954667" lon="-2.5107277814221427"><ele>668.0</ele><time>2026-03-22T09:15:48.999Z</time></trkpt><trkpt lat="42.59195829506757" lon="-2.510698144885198"><ele>670.6666666666666</ele><time>2026-03-22T09:15:49.999Z</time></trkpt><trkpt lat="42.592142585408915" lon="-2.5106963700672176"><ele>673.3333333333334</ele><time>2026-03-22T09:15:50.999Z</time></trkpt><trkpt lat="42.59232422959274" lon="-2.510718471928485"><ele>676.0</ele><time>2026-03-22T09:15:51.999Z</time></trkpt><trkpt lat="42.592504390927914" lon="-2.5107677729122786"><ele>676.0</ele><time>2026-03-22T09:15:52.999Z</time></trkpt><trkpt lat="42.592682430016914" lon="-2.5108534550263455"><ele>676.0</ele><time>2026-03-22T09:15:53.999Z</time></trkpt><trkpt lat="42.59285350813482" lon="-2.510955001645898"><ele>676.0</ele><time>2026-03-22T09:15:54.999Z</time></trkpt><trkpt lat="42.59302071472142" lon="-2.5110666362131235"><ele>679.6666666666667</ele><time>2026-03-22T09:15:55.999Z</time></trkpt><trkpt lat="42.59318884799782" lon="-2.511179270506309"><ele>683.3333333333334</ele><time>2026-03-22T09:15:56.999Z</time></trkpt><trkpt lat="42.59335452146618" lon="-2.5112750050826254"><ele>687.0</ele><time>2026-03-22T09:15:57.999Z</time></trkpt><trkpt lat="42.59352852676805" lon="-2.51135199034766"><ele>689.6666666666666</ele><time>2026-03-22T09:15:58.999Z</time></trkpt><trkpt lat="42.5937091018549" lon="-2.511411713082181"><ele>692.3333333333333</ele><time>2026-03-22T09:15:59.999Z</time></trkpt><trkpt lat="42.593893525419745" lon="-2.5114557695017443"><ele>695.0</ele><time>2026-03-22T09:16:00.999Z</time></trkpt><trkpt lat="42.59407592655893" lon="-2.511470840824544"><ele>695.0</ele><time>2026-03-22T09:16:01.999Z</time></trkpt><trkpt lat="42.594258252032446" lon="-2.5114591706070426"><ele>695.0</ele><time>2026-03-22T09:16:02.999Z</time></trkpt><trkpt lat="42.59444437687782" lon="-2.5114164335557074"><ele>695.0</ele><time>2026-03-22T09:16:03.999Z</time></trkpt><trkpt lat="42.594627295572096" lon="-2.5113483859227674"><ele>697.0</ele><time>2026-03-22T09:16:04.999Z</time></trkpt><trkpt lat="42.59480451297456" lon="-2.5112530171727285"><ele>699.0</ele><time>2026-03-22T09:16:05.999Z</time></trkpt><trkpt lat="42.594976388355114" lon="-2.5111353297805334"><ele>701.0</ele><time>2026-03-22T09:16:06.998Z</time></trkpt><trkpt lat="42.59514610393841" lon="-2.51099816721642"><ele>701.0</ele><time>2026-03-22T09:16:07.998Z</time></trkpt><trkpt lat="42.59531396388056" lon="-2.510856339444799"><ele>701.0</ele><time>2026-03-22T09:16:08.998Z</time></trkpt><trkpt lat="42.59547679762839" lon="-2.5107264092875736"><ele>701.0</ele><time>2026-03-22T09:16:09.998Z</time></trkpt><trkpt lat="42.59562965090775" lon="-2.510614353792001"><ele>702.0</ele><time>2026-03-22T09:16:10.998Z</time></trkpt><trkpt lat="42.59577149206619" lon="-2.5105213405889564"><ele>703.0</ele><time>2026-03-22T09:16:11.998Z</time></trkpt><trkpt lat="42.59590345431942" lon="-2.510463274117751"><ele>704.0</ele><time>2026-03-22T09:16:12.998Z</time></trkpt><trkpt lat="42.59604292133325" lon="-2.5104579550830675"><ele>705.0</ele><time>2026-03-22T09:16:13.998Z</time></trkpt><trkpt lat="42.59619361014214" lon="-2.510501132555282"><ele>705.3333333333334</ele><time>2026-03-22T09:16:14.998Z</time></trkpt><trkpt lat="42.59634977467852" lon="-2.510569470571556"><ele>705.6666666666667</ele><time>2026-03-22T09:16:15.998Z</time></trkpt><trkpt lat="42.59650773502469" lon="-2.510630949530352"><ele>706.0</ele><time>2026-03-22T09:16:16.998Z</time></trkpt><trkpt lat="42.59665759335253" lon="-2.5106863359027862"><ele>706.0</ele><time>2026-03-22T09:16:17.998Z</time></trkpt><trkpt lat="42.59678923079622" lon="-2.5107256882778373"><ele>706.0</ele><time>2026-03-22T09:16:18.998Z</time></trkpt><trkpt lat="42.59688837617333" lon="-2.510723346115496"><ele>706.0</ele><time>2026-03-22T09:16:19.998Z</time></trkpt><trkpt lat="42.59696625869556" lon="-2.510676284650759"><ele>706.0</ele><time>2026-03-22T09:16:20.998Z</time></trkpt><trkpt lat="42.5970158753904" lon="-2.510581457308558"><ele>706.0</ele><time>2026-03-22T09:16:21.998Z</time></trkpt><trkpt lat="42.59703541577557" lon="-2.5104679835022594"><ele>705.8</ele><time>2026-03-22T09:16:22.998Z</time></trkpt><trkpt lat="42.597029207607626" lon="-2.510345046934645"><ele>705.5999999999999</ele><time>2026-03-22T09:16:23.998Z</time></trkpt><trkpt lat="42.59701871453207" lon="-2.5102011608071626"><ele>705.4</ele><time>2026-03-22T09:16:24.998Z</time></trkpt><trkpt lat="42.59702250952697" lon="-2.5100463020064128"><ele>705.2</ele><time>2026-03-22T09:16:25.998Z</time></trkpt><trkpt lat="42.597032722661545" lon="-2.5098805237115056"><ele>705.0</ele><time>2026-03-22T09:16:26.998Z</time></trkpt><trkpt lat="42.59704729615218" lon="-2.5097150476882533"><ele>704.5</ele><time>2026-03-22T09:16:27.998Z</time></trkpt><trkpt lat="42.597077351244685" lon="-2.5095604000973797"><ele>704.0</ele><time>2026-03-22T09:16:28.998Z</time></trkpt><trkpt lat="42.59713201119901" lon="-2.509432901416471"><ele>703.5</ele><time>2026-03-22T09:16:29.998Z</time></trkpt><trkpt lat="42.59721918063077" lon="-2.509333835439263"><ele>703.0</ele><time>2026-03-22T09:16:31Z</time></trkpt><trkpt lat="42.597332694219986" lon="-2.509269360627899"><ele>703.0</ele><time>2026-03-22T09:16:32Z</time></trkpt><trkpt lat="42.597471668762154" lon="-2.5092574895541055"><ele>703.0</ele><time>2026-03-22T09:16:33Z</time></trkpt><trkpt lat="42.597616979711056" lon="-2.509269644787973"><ele>703.0</ele><time>2026-03-22T09:16:34Z</time></trkpt><trkpt lat="42.59776294797114" lon="-2.5092893161026817"><ele>703.0</ele><time>2026-03-22T09:16:35Z</time></trkpt><trkpt lat="42.597889785699174" lon="-2.5093041105915144"><ele>703.5999999999999</ele><time>2026-03-22T09:16:36Z</time></trkpt><trkpt lat="42.59799530572913" lon="-2.5092870031273646"><ele>704.1999999999999</ele><time>2026-03-22T09:16:37Z</time></trkpt><trkpt lat="42.59808477724674" lon="-2.509225842696069"><ele>704.8</ele><time>2026-03-22T09:16:38Z</time></trkpt><trkpt lat="42.598157678834156" lon="-2.5091231350831884"><ele>705.4</ele><time>2026-03-22T09:16:39Z</time></trkpt><trkpt lat="42.59820371619877" lon="-2.5089806341490326"><ele>706.0</ele><time>2026-03-22T09:16:40Z</time></trkpt><trkpt lat="42.59822128143146" lon="-2.508830415488457"><ele>707.25</ele><time>2026-03-22T09:16:41Z</time></trkpt><trkpt lat="42.59820144872483" lon="-2.5086802125473615"><ele>708.5</ele><time>2026-03-22T09:16:42Z</time></trkpt><trkpt lat="42.598149021822145" lon="-2.508525303508552"><ele>709.75</ele><time>2026-03-22T09:16:43Z</time></trkpt><trkpt lat="42.598069657470006" lon="-2.50837920517591"><ele>711.0</ele><time>2026-03-22T09:16:44Z</time></trkpt><trkpt lat="42.59796945453817" lon="-2.5082458515261328"><ele>711.0</ele><time>2026-03-22T09:16:45Z</time></trkpt><trkpt lat="42.59785942671239" lon="-2.5081112669829815"><ele>711.0</ele><time>2026-03-22T09:16:46Z</time></trkpt><trkpt lat="42.59775425520204" lon="-2.5079617800273395"><ele>711.0</ele><time>2026-03-22T09:16:47Z</time></trkpt><trkpt lat="42.597644136670226" lon="-2.507798065463421"><ele>711.3333333333334</ele><time>2026-03-22T09:16:48Z</time></trkpt><trkpt lat="42.59753302140346" lon="-2.507629184968608"><ele>711.6666666666667</ele><time>2026-03-22T09:16:49Z</time></trkpt><trkpt lat="42.597419197870195" lon="-2.5074548035472524"><ele>712.0</ele><time>2026-03-22T09:16:50Z</time></trkpt><trkpt lat="42.59730684388207" lon="-2.5072809707477806"><ele>712.0</ele><time>2026-03-22T09:16:51Z</time></trkpt><trkpt lat="42.59718895859407" lon="-2.5071051403220346"><ele>712.0</ele><time>2026-03-22T09:16:52Z</time></trkpt><trkpt lat="42.59707157651556" lon="-2.506930178868786"><ele>712.0</ele><time>2026-03-22T09:16:53Z</time></trkpt><trkpt lat="42.59696075936053" lon="-2.5067689657094077"><ele>713.75</ele><time>2026-03-22T09:16:54Z</time></trkpt><trkpt lat="42.59685759089385" lon="-2.5066204677830157"><ele>715.5</ele><time>2026-03-22T09:16:55Z</time></trkpt><trkpt lat="42.59676620126234" lon="-2.506488527570131"><ele>717.25</ele><time>2026-03-22T09:16:56Z</time></trkpt><trkpt lat="42.59669171326191" lon="-2.506363384377779"><ele>719.0</ele><time>2026-03-22T09:16:57Z</time></trkpt><trkpt lat="42.59664078176345" lon="-2.506228397608375"><ele>719.75</ele><time>2026-03-22T09:16:58Z</time></trkpt><trkpt lat="42.596616457281534" lon="-2.5060815717788896"><ele>720.5</ele><time>2026-03-22T09:16:59Z</time></trkpt><trkpt lat="42.596630839574225" lon="-2.505931317695674"><ele>721.25</ele><time>2026-03-22T09:17:00Z</time></trkpt><trkpt lat="42.59667047088139" lon="-2.505771877191041"><ele>722.0</ele><time>2026-03-22T09:17:01Z</time></trkpt><trkpt lat="42.59672654569978" lon="-2.5056063311339867"><ele>722.0</ele><time>2026-03-22T09:17:02Z</time></trkpt><trkpt lat="42.59678738323855" lon="-2.5054316463849187"><ele>722.0</ele><time>2026-03-22T09:17:03Z</time></trkpt><trkpt lat="42.59684236665271" lon="-2.505257842729835"><ele>722.0</ele><time>2026-03-22T09:17:04Z</time></trkpt><trkpt lat="42.596897747026425" lon="-2.505088200130133"><ele>722.0</ele><time>2026-03-22T09:17:05Z</time></trkpt><trkpt lat="42.59696652537477" lon="-2.5049421714684423"><ele>723.0</ele><time>2026-03-22T09:17:06Z</time></trkpt><trkpt lat="42.59705934523278" lon="-2.5048054040317846"><ele>724.0</ele><time>2026-03-22T09:17:07Z</time></trkpt><trkpt lat="42.59718786847398" lon="-2.5046903523562034"><ele>725.0</ele><time>2026-03-22T09:17:08Z</time></trkpt><trkpt lat="42.597328531480244" lon="-2.504608622149208"><ele>726.0</ele><time>2026-03-22T09:17:09Z</time></trkpt><trkpt lat="42.59747819439866" lon="-2.504556100348076"><ele>724.0</ele><time>2026-03-22T09:17:10Z</time></trkpt><trkpt lat="42.59762677202258" lon="-2.5044965336410914"><ele>722.0</ele><time>2026-03-22T09:17:11Z</time></trkpt><trkpt lat="42.59777480969897" lon="-2.5044372424749937"><ele>720.0</ele><time>2026-03-22T09:17:12Z</time></trkpt><trkpt lat="42.5979213664164" lon="-2.504392042686397"><ele>720.0</ele><time>2026-03-22T09:17:13Z</time></trkpt><trkpt lat="42.59807269859821" lon="-2.504367839391616"><ele>720.0</ele><time>2026-03-22T09:17:13.999Z</time></trkpt><trkpt lat="42.59822747688599" lon="-2.5043692483219946"><ele>720.0</ele><time>2026-03-22T09:17:14.999Z</time></trkpt><trkpt lat="42.59838013205344" lon="-2.5043809134022172"><ele>720.0</ele><time>2026-03-22T09:17:15.999Z</time></trkpt><trkpt lat="42.5985220171676" lon="-2.5043937117576873"><ele>720.0</ele><time>2026-03-22T09:17:16.999Z</time></trkpt><trkpt lat="42.598651372440926" lon="-2.504390004828565"><ele>720.0</ele><time>2026-03-22T09:17:17.999Z</time></trkpt><trkpt lat="42.59876726353812" lon="-2.5043642850780796"><ele>720.0</ele><time>2026-03-22T09:17:18.999Z</time></trkpt><trkpt lat="42.59886921645053" lon="-2.5042892091219477"><ele>721.5</ele><time>2026-03-22T09:17:19.999Z</time></trkpt><trkpt lat="42.59896781331092" lon="-2.504163876353377"><ele>723.0</ele><time>2026-03-22T09:17:20.999Z</time></trkpt><trkpt lat="42.59906676844155" lon="-2.5040049155761683"><ele>724.5</ele><time>2026-03-22T09:17:21.999Z</time></trkpt><trkpt lat="42.599159334647666" lon="-2.503843724325978"><ele>726.0</ele><time>2026-03-22T09:17:22.999Z</time></trkpt><trkpt lat="42.59926072182524" lon="-2.5036825725412726"><ele>726.0</ele><time>2026-03-22T09:17:23.999Z</time></trkpt><trkpt lat="42.59936129576692" lon="-2.503528060557066"><ele>726.0</ele><time>2026-03-22T09:17:24.999Z</time></trkpt><trkpt lat="42.599450735490834" lon="-2.503373163302355"><ele>726.0</ele><time>2026-03-22T09:17:25.999Z</time></trkpt><trkpt lat="42.599520277950944" lon="-2.50320271141952"><ele>726.0</ele><time>2026-03-22T09:17:26.999Z</time></trkpt><trkpt lat="42.59954034022501" lon="-2.503003353103488"><ele>726.0</ele><time>2026-03-22T09:17:27.999Z</time></trkpt><trkpt lat="42.59952584738853" lon="-2.50279464037714"><ele>726.0</ele><time>2026-03-22T09:17:28.999Z</time></trkpt><trkpt lat="42.59948816683192" lon="-2.5026032671547043"><ele>726.0</ele><time>2026-03-22T09:17:29.999Z</time></trkpt><trkpt lat="42.59947252267034" lon="-2.5024207545818924"><ele>726.0</ele><time>2026-03-22T09:17:30.999Z</time></trkpt><trkpt lat="42.59951248075466" lon="-2.5022404929973314"><ele>731.3333333333334</ele><time>2026-03-22T09:17:31.999Z</time></trkpt><trkpt lat="42.59958947551475" lon="-2.502070119007719"><ele>736.6666666666667</ele><time>2026-03-22T09:17:32.999Z</time></trkpt><trkpt lat="42.59968557559313" lon="-2.5019012636944247"><ele>742.0</ele><time>2026-03-22T09:17:33.999Z</time></trkpt><trkpt lat="42.59978296933369" lon="-2.5017333237873522"><ele>742.0</ele><time>2026-03-22T09:17:34.999Z</time></trkpt><trkpt lat="42.59988333944864" lon="-2.50155865679495"><ele>742.0</ele><time>2026-03-22T09:17:35.999Z</time></trkpt><trkpt lat="42.59998960841084" lon="-2.501381057309421"><ele>742.0</ele><time>2026-03-22T09:17:36.999Z</time></trkpt><trkpt lat="42.6000958457308" lon="-2.501193965926298"><ele>741.0</ele><time>2026-03-22T09:17:37.999Z</time></trkpt><trkpt lat="42.60019558332729" lon="-2.5009964054347606"><ele>740.0</ele><time>2026-03-22T09:17:38.999Z</time></trkpt><trkpt lat="42.600276494613134" lon="-2.500789107548458"><ele>739.0</ele><time>2026-03-22T09:17:39.999Z</time></trkpt><trkpt lat="42.600338335651664" lon="-2.500567675162077"><ele>742.6666666666667</ele><time>2026-03-22T09:17:40.999Z</time></trkpt><trkpt lat="42.60039933576253" lon="-2.500346899083275"><ele>746.3333333333334</ele><time>2026-03-22T09:17:41.999Z</time></trkpt><trkpt lat="42.600458251484085" lon="-2.5001428589824917"><ele>750.0</ele><time>2026-03-22T09:17:42.999Z</time></trkpt><trkpt lat="42.60051230146637" lon="-2.4999720671248884"><ele>750.0</ele><time>2026-03-22T09:17:43.999Z</time></trkpt><trkpt lat="42.60058211559463" lon="-2.499814832566778"><ele>750.0</ele><time>2026-03-22T09:17:44.999Z</time></trkpt><trkpt lat="42.600674833153455" lon="-2.4996756857450966"><ele>750.0</ele><time>2026-03-22T09:17:45.999Z</time></trkpt><trkpt lat="42.60079419750649" lon="-2.499571566890661"><ele>750.0</ele><time>2026-03-22T09:17:46.999Z</time></trkpt><trkpt lat="42.600933144738185" lon="-2.4995016565085577"><ele>749.3333333333334</ele><time>2026-03-22T09:17:47.999Z</time></trkpt><trkpt lat="42.60108898705686" lon="-2.499471172244984"><ele>748.6666666666667</ele><time>2026-03-22T09:17:48.999Z</time></trkpt><trkpt lat="42.60126185805759" lon="-2.499457049072333"><ele>748.0</ele><time>2026-03-22T09:17:49.999Z</time></trkpt><trkpt lat="42.601428905164965" lon="-2.4994368189507377"><ele>748.0</ele><time>2026-03-22T09:17:50.999Z</time></trkpt><trkpt lat="42.60157759771771" lon="-2.4994031656977893"><ele>748.0</ele><time>2026-03-22T09:17:51.999Z</time></trkpt><trkpt lat="42.60170046120821" lon="-2.499341375573928"><ele>748.0</ele><time>2026-03-22T09:17:52.999Z</time></trkpt><trkpt lat="42.60179826757102" lon="-2.499243639204543"><ele>748.0</ele><time>2026-03-22T09:17:53.999Z</time></trkpt><trkpt lat="42.60187616554289" lon="-2.4991010421586"><ele>748.0</ele><time>2026-03-22T09:17:54.999Z</time></trkpt><trkpt lat="42.60192599370567" lon="-2.4989261758545815"><ele>748.0</ele><time>2026-03-22T09:17:55.999Z</time></trkpt><trkpt lat="42.60196501333587" lon="-2.4987578317593373"><ele>748.0</ele><time>2026-03-22T09:17:56.999Z</time></trkpt><trkpt lat="42.60201708166101" lon="-2.498628009334982"><ele>748.0</ele><time>2026-03-22T09:17:57.999Z</time></trkpt><trkpt lat="42.60210262552592" lon="-2.4985286709002326"><ele>749.75</ele><time>2026-03-22T09:17:58.999Z</time></trkpt><trkpt lat="42.60220866122709" lon="-2.498458388115859"><ele>751.5</ele><time>2026-03-22T09:17:59.999Z</time></trkpt><trkpt lat="42.60233276773368" lon="-2.498426793401757"><ele>753.25</ele><time>2026-03-22T09:18:00.999Z</time></trkpt><trkpt lat="42.60246888020973" lon="-2.498419167299855"><ele>755.0</ele><time>2026-03-22T09:18:01.999Z</time></trkpt><trkpt lat="42.60261057051901" lon="-2.4984059642534113"><ele>755.0</ele><time>2026-03-22T09:18:02.999Z</time></trkpt><trkpt lat="42.602752046659376" lon="-2.498383578390289"><ele>755.0</ele><time>2026-03-22T09:18:03.999Z</time></trkpt><trkpt lat="42.602898017011064" lon="-2.498356511507507"><ele>755.0</ele><time>2026-03-22T09:18:04.999Z</time></trkpt><trkpt lat="42.60304143838146" lon="-2.4983252941780045"><ele>755.0</ele><time>2026-03-22T09:18:05.999Z</time></trkpt><trkpt lat="42.60318397138538" lon="-2.498282377950045"><ele>757.6666666666666</ele><time>2026-03-22T09:18:06.999Z</time></trkpt><trkpt lat="42.603320392997134" lon="-2.4982164272857825"><ele>760.3333333333334</ele><time>2026-03-22T09:18:07.999Z</time></trkpt><trkpt lat="42.603444680220264" lon="-2.4981232148661143"><ele>763.0</ele><time>2026-03-22T09:18:08.999Z</time></trkpt><trkpt lat="42.60367825246712" lon="-2.49793915416093"><ele>764.25</ele><time>2026-03-22T09:18:10.999Z</time></trkpt><trkpt lat="42.60376068706842" lon="-2.4978486405657425"><ele>765.5</ele><time>2026-03-22T09:18:11.998Z</time></trkpt><trkpt lat="42.60381634362731" lon="-2.4977250548926837"><ele>766.75</ele><time>2026-03-22T09:18:12.998Z</time></trkpt><trkpt lat="42.60383536891254" lon="-2.497572065408584"><ele>768.0</ele><time>2026-03-22T09:18:13.998Z</time></trkpt><trkpt lat="42.60381367141204" lon="-2.4974010941158387"><ele>768.0</ele><time>2026-03-22T09:18:14.998Z</time></trkpt><trkpt lat="42.60375936320156" lon="-2.4972383893731207"><ele>768.0</ele><time>2026-03-22T09:18:15.998Z</time></trkpt><trkpt lat="42.60368731178078" lon="-2.4970779590194208"><ele>768.0</ele><time>2026-03-22T09:18:16.998Z</time></trkpt><trkpt lat="42.60361329635643" lon="-2.4969093558108115"><ele>768.0</ele><time>2026-03-22T09:18:17.998Z</time></trkpt><trkpt lat="42.60354979051748" lon="-2.4967213837108506"><ele>767.6666666666666</ele><time>2026-03-22T09:18:18.998Z</time></trkpt><trkpt lat="42.6035172061291" lon="-2.496524234396345"><ele>767.3333333333333</ele><time>2026-03-22T09:18:19.998Z</time></trkpt><trkpt lat="42.60350812831408" lon="-2.49631547895207"><ele>767.0</ele><time>2026-03-22T09:18:20.998Z</time></trkpt><trkpt lat="42.60352076704405" lon="-2.4961082217570887"><ele>767.0</ele><time>2026-03-22T09:18:21.998Z</time></trkpt><trkpt lat="42.60355982376339" lon="-2.4959048724238864"><ele>767.0</ele><time>2026-03-22T09:18:22.998Z</time></trkpt><trkpt lat="42.6036407067006" lon="-2.4957148783132848"><ele>767.0</ele><time>2026-03-22T09:18:23.998Z</time></trkpt><trkpt lat="42.60373521702557" lon="-2.4955406433071974"><ele>767.0</ele><time>2026-03-22T09:18:24.998Z</time></trkpt><trkpt lat="42.60385247266394" lon="-2.4953760665261275"><ele>767.0</ele><time>2026-03-22T09:18:25.998Z</time></trkpt><trkpt lat="42.60398448559259" lon="-2.4952305391093486"><ele>767.0</ele><time>2026-03-22T09:18:26.998Z</time></trkpt><trkpt lat="42.604118028766536" lon="-2.495092772187563"><ele>767.0</ele><time>2026-03-22T09:18:27.998Z</time></trkpt><trkpt lat="42.604253527856855" lon="-2.494969087151123"><ele>767.0</ele><time>2026-03-22T09:18:28.998Z</time></trkpt><trkpt lat="42.604396085038076" lon="-2.4948335403196107"><ele>767.0</ele><time>2026-03-22T09:18:29.998Z</time></trkpt><trkpt lat="42.60453124324648" lon="-2.4946860415063288"><ele>768.3333333333333</ele><time>2026-03-22T09:18:30.998Z</time></trkpt><trkpt lat="42.60467160067493" lon="-2.494534814185926"><ele>769.6666666666666</ele><time>2026-03-22T09:18:31.998Z</time></trkpt><trkpt lat="42.60481215590248" lon="-2.494387988356869"><ele>771.0</ele><time>2026-03-22T09:18:32.998Z</time></trkpt><trkpt lat="42.604951563355215" lon="-2.494240221020842"><ele>771.0</ele><time>2026-03-22T09:18:33.998Z</time></trkpt><trkpt lat="42.605085319400295" lon="-2.4940880142736193"><ele>771.0</ele><time>2026-03-22T09:18:34.998Z</time></trkpt><trkpt lat="42.60520419937482" lon="-2.4939116389837364"><ele>771.0</ele><time>2026-03-22T09:18:35.998Z</time></trkpt><trkpt lat="42.6053009470694" lon="-2.493708948853811"><ele>775.6666666666667</ele><time>2026-03-22T09:18:37Z</time></trkpt><trkpt lat="42.60538162465962" lon="-2.493489829500448"><ele>780.3333333333334</ele><time>2026-03-22T09:18:38Z</time></trkpt><trkpt lat="42.60546553888394" lon="-2.4932767583719073"><ele>785.0</ele><time>2026-03-22T09:18:39Z</time></trkpt><trkpt lat="42.60555375852746" lon="-2.4930692120549174"><ele>784.3333333333334</ele><time>2026-03-22T09:18:40Z</time></trkpt><trkpt lat="42.60564804813186" lon="-2.492861496723246"><ele>783.6666666666667</ele><time>2026-03-22T09:18:41Z</time></trkpt><trkpt lat="42.605730861310875" lon="-2.4926628190059397"><ele>783.0</ele><time>2026-03-22T09:18:42Z</time></trkpt><trkpt lat="42.60581312539859" lon="-2.4924578794858188"><ele>783.0</ele><time>2026-03-22T09:18:43Z</time></trkpt><trkpt lat="42.605868254019136" lon="-2.492251658831131"><ele>783.0</ele><time>2026-03-22T09:18:44Z</time></trkpt><trkpt lat="42.605883491986205" lon="-2.4920355504545215"><ele>783.0</ele><time>2026-03-22T09:18:45Z</time></trkpt><trkpt lat="42.60587755267361" lon="-2.4918174554421686"><ele>784.0</ele><time>2026-03-22T09:18:46Z</time></trkpt><trkpt lat="42.60585788606325" lon="-2.4915987883488424"><ele>785.0</ele><time>2026-03-22T09:18:47Z</time></trkpt><trkpt lat="42.60584287396431" lon="-2.4914017379971436"><ele>786.0</ele><time>2026-03-22T09:18:48Z</time></trkpt><trkpt lat="42.60583888039488" lon="-2.4912291074131487"><ele>787.0</ele><time>2026-03-22T09:18:49Z</time></trkpt><trkpt lat="42.60586507300878" lon="-2.4910771259899755"><ele>787.75</ele><time>2026-03-22T09:18:50Z</time></trkpt><trkpt lat="42.60591507189069" lon="-2.490927117566057"><ele>788.5</ele><time>2026-03-22T09:18:51Z</time></trkpt><trkpt lat="42.60596772472292" lon="-2.490772736362179"><ele>789.25</ele><time>2026-03-22T09:18:52Z</time></trkpt><trkpt lat="42.60602359293337" lon="-2.4906100572826997"><ele>790.0</ele><time>2026-03-22T09:18:53Z</time></trkpt><trkpt lat="42.60609141166095" lon="-2.490452562979711"><ele>793.5</ele><time>2026-03-22T09:18:54Z</time></trkpt><trkpt lat="42.6061805499355" lon="-2.4903039617992078"><ele>797.0</ele><time>2026-03-22T09:18:55Z</time></trkpt><trkpt lat="42.60627992445312" lon="-2.4901676568292306"><ele>800.5</ele><time>2026-03-22T09:18:56Z</time></trkpt><trkpt lat="42.60638619957322" lon="-2.490038380254271"><ele>804.0</ele><time>2026-03-22T09:18:57Z</time></trkpt><trkpt lat="42.60648838386471" lon="-2.489918597246449"><ele>804.0</ele><time>2026-03-22T09:18:58Z</time></trkpt><trkpt lat="42.606582013727284" lon="-2.48981175863574"><ele>804.0</ele><time>2026-03-22T09:18:59Z</time></trkpt><trkpt lat="42.60664780009525" lon="-2.489699683693259"><ele>804.0</ele><time>2026-03-22T09:19:00Z</time></trkpt><trkpt lat="42.606673865003735" lon="-2.489565440808921"><ele>804.0</ele><time>2026-03-22T09:19:01Z</time></trkpt><trkpt lat="42.60667699389076" lon="-2.4894111894106987"><ele>804.0</ele><time>2026-03-22T09:19:02Z</time></trkpt><trkpt lat="42.60664486263075" lon="-2.4892341972545857"><ele>805.0</ele><time>2026-03-22T09:19:03Z</time></trkpt><trkpt lat="42.60661076155213" lon="-2.489054909721036"><ele>806.0</ele><time>2026-03-22T09:19:04Z</time></trkpt><trkpt lat="42.60659172980179" lon="-2.4888657339159312"><ele>807.0</ele><time>2026-03-22T09:19:05Z</time></trkpt><trkpt lat="42.60656321902643" lon="-2.4887008392273864"><ele>808.0</ele><time>2026-03-22T09:19:06Z</time></trkpt><trkpt lat="42.606509713769526" lon="-2.4885541385119105"><ele>809.75</ele><time>2026-03-22T09:19:07Z</time></trkpt><trkpt lat="42.606416072560876" lon="-2.4884118323077944"><ele>811.5</ele><time>2026-03-22T09:19:08Z</time></trkpt><trkpt lat="42.60631307693151" lon="-2.4882884468672577"><ele>813.25</ele><time>2026-03-22T09:19:09Z</time></trkpt><trkpt lat="42.60622704091185" lon="-2.4881755877944696"><ele>815.0</ele><time>2026-03-22T09:19:10Z</time></trkpt><trkpt lat="42.60616812192031" lon="-2.488077391101526"><ele>815.5000000000001</ele><time>2026-03-22T09:19:11Z</time></trkpt><trkpt lat="42.606142789024815" lon="-2.4879860005222283"><ele>816.0</ele><time>2026-03-22T09:19:12Z</time></trkpt><trkpt lat="42.60615890136342" lon="-2.4878936750033116"><ele>816.5</ele><time>2026-03-22T09:19:13Z</time></trkpt><trkpt lat="42.606197993026676" lon="-2.487795548450029"><ele>817.0</ele><time>2026-03-22T09:19:14Z</time></trkpt><trkpt lat="42.60626095556232" lon="-2.487703908781174"><ele>817.5000000000001</ele><time>2026-03-22T09:19:15Z</time></trkpt><trkpt lat="42.6063372707915" lon="-2.4876194555434394"><ele>818.0</ele><time>2026-03-22T09:19:16Z</time></trkpt><trkpt lat="42.606431021047584" lon="-2.4875304229775193"><ele>818.0</ele><time>2026-03-22T09:19:17Z</time></trkpt><trkpt lat="42.60653678112869" lon="-2.487423869949576"><ele>818.0</ele><time>2026-03-22T09:19:17.999Z</time></trkpt><trkpt lat="42.60665035697956" lon="-2.4873141655785758"><ele>818.0</ele><time>2026-03-22T09:19:18.999Z</time></trkpt><trkpt lat="42.606757355586915" lon="-2.4872117948095736"><ele>818.0</ele><time>2026-03-22T09:19:19.999Z</time></trkpt><trkpt lat="42.6068658475911" lon="-2.4871075904997495"><ele>817.75</ele><time>2026-03-22T09:19:20.999Z</time></trkpt><trkpt lat="42.60697023315543" lon="-2.4870063420982857"><ele>817.5</ele><time>2026-03-22T09:19:21.999Z</time></trkpt><trkpt lat="42.607063044976364" lon="-2.4868894590462864"><ele>817.25</ele><time>2026-03-22T09:19:22.999Z</time></trkpt><trkpt lat="42.60713472219662" lon="-2.4867421081393473"><ele>817.0</ele><time>2026-03-22T09:19:23.999Z</time></trkpt><trkpt lat="42.60718798249155" lon="-2.486571966683669"><ele>819.0</ele><time>2026-03-22T09:19:24.999Z</time></trkpt><trkpt lat="42.60723258221189" lon="-2.486423382616893"><ele>821.0</ele><time>2026-03-22T09:19:25.999Z</time></trkpt><trkpt lat="42.6072564033774" lon="-2.4862879479406117"><ele>823.0</ele><time>2026-03-22T09:19:26.999Z</time></trkpt><trkpt lat="42.607255943927164" lon="-2.4861653491064786"><ele>825.0</ele><time>2026-03-22T09:19:27.999Z</time></trkpt><trkpt lat="42.607219291686086" lon="-2.4860500234885943"><ele>827.0</ele><time>2026-03-22T09:19:28.999Z</time></trkpt><trkpt lat="42.60715111884583" lon="-2.4859317382831634"><ele>827.75</ele><time>2026-03-22T09:19:29.999Z</time></trkpt><trkpt lat="42.6070606385249" lon="-2.4858169348102512"><ele>828.5</ele><time>2026-03-22T09:19:30.999Z</time></trkpt><trkpt lat="42.60695568988657" lon="-2.485699858598506"><ele>829.25</ele><time>2026-03-22T09:19:31.999Z</time></trkpt><trkpt lat="42.60684312207961" lon="-2.485573389695903"><ele>830.0</ele><time>2026-03-22T09:19:32.999Z</time></trkpt><trkpt lat="42.60672758650178" lon="-2.4854357746419353"><ele>830.5</ele><time>2026-03-22T09:19:33.999Z</time></trkpt><trkpt lat="42.6066290934199" lon="-2.4852992509147156"><ele>831.0</ele><time>2026-03-22T09:19:34.999Z</time></trkpt><trkpt lat="42.606553018743845" lon="-2.4851615686758324"><ele>831.5</ele><time>2026-03-22T09:19:35.999Z</time></trkpt><trkpt lat="42.606511460406885" lon="-2.485013712908837"><ele>832.0</ele><time>2026-03-22T09:19:36.999Z</time></trkpt><trkpt lat="42.606498121014354" lon="-2.4848576933075224"><ele>832.0</ele><time>2026-03-22T09:19:37.999Z</time></trkpt><trkpt lat="42.606503422409816" lon="-2.4846902292748947"><ele>832.0</ele><time>2026-03-22T09:19:38.999Z</time></trkpt><trkpt lat="42.606510320924286" lon="-2.484520573001343"><ele>832.0</ele><time>2026-03-22T09:19:39.999Z</time></trkpt><trkpt lat="42.60650525555597" lon="-2.484357902167223"><ele>832.0</ele><time>2026-03-22T09:19:40.999Z</time></trkpt><trkpt lat="42.60648236201636" lon="-2.4842043491421544"><ele>834.5</ele><time>2026-03-22T09:19:41.999Z</time></trkpt><trkpt lat="42.60643238376629" lon="-2.484051401123603"><ele>837.0</ele><time>2026-03-22T09:19:42.999Z</time></trkpt><trkpt lat="42.606353109854325" lon="-2.483921889629274"><ele>839.5</ele><time>2026-03-22T09:19:43.999Z</time></trkpt><trkpt lat="42.60627797673063" lon="-2.483792394631018"><ele>842.0</ele><time>2026-03-22T09:19:44.999Z</time></trkpt><trkpt lat="42.606224954458334" lon="-2.4836333518582325"><ele>843.8</ele><time>2026-03-22T09:19:45.999Z</time></trkpt><trkpt lat="42.606174817631995" lon="-2.483468241178979"><ele>845.6</ele><time>2026-03-22T09:19:46.999Z</time></trkpt><trkpt lat="42.606119104755706" lon="-2.4833336072602576"><ele>847.4</ele><time>2026-03-22T09:19:47.999Z</time></trkpt><trkpt lat="42.606076843255636" lon="-2.483214574550245"><ele>849.1999999999999</ele><time>2026-03-22T09:19:48.999Z</time></trkpt><trkpt lat="42.60606265760645" lon="-2.483088607140832"><ele>851.0</ele><time>2026-03-22T09:19:49.999Z</time></trkpt><trkpt lat="42.606077579246026" lon="-2.4829420217769824"><ele>848.25</ele><time>2026-03-22T09:19:50.999Z</time></trkpt><trkpt lat="42.6061150223007" lon="-2.4827937035086722"><ele>845.5</ele><time>2026-03-22T09:19:51.999Z</time></trkpt><trkpt lat="42.606163824995654" lon="-2.4826501860519077"><ele>842.75</ele><time>2026-03-22T09:19:52.999Z</time></trkpt><trkpt lat="42.60621468322677" lon="-2.482498095551654"><ele>840.0</ele><time>2026-03-22T09:19:53.999Z</time></trkpt><trkpt lat="42.60625707788376" lon="-2.4823490993216284"><ele>843.3333333333334</ele><time>2026-03-22T09:19:54.999Z</time></trkpt><trkpt lat="42.606284649130664" lon="-2.4822319524618828"><ele>846.6666666666667</ele><time>2026-03-22T09:19:55.999Z</time></trkpt><trkpt lat="42.60627916489955" lon="-2.4821256638226106"><ele>850.0</ele><time>2026-03-22T09:19:56.999Z</time></trkpt><trkpt lat="42.606241260710455" lon="-2.482015807817683"><ele>853.3333333333334</ele><time>2026-03-22T09:19:57.999Z</time></trkpt><trkpt lat="42.60619093230377" lon="-2.481941701358024"><ele>856.6666666666667</ele><time>2026-03-22T09:19:58.999Z</time></trkpt><trkpt lat="42.6061180314457" lon="-2.481883732334546"><ele>860.0</ele><time>2026-03-22T09:19:59.999Z</time></trkpt><trkpt lat="42.60601499947614" lon="-2.4818444419661647"><ele>860.0</ele><time>2026-03-22T09:20:00.999Z</time></trkpt><trkpt lat="42.605898790617765" lon="-2.481799770783721"><ele>860.0</ele><time>2026-03-22T09:20:01.999Z</time></trkpt><trkpt lat="42.60578295081025" lon="-2.4817618860424147"><ele>860.0</ele><time>2026-03-22T09:20:02.999Z</time></trkpt><trkpt lat="42.60566876032135" lon="-2.48181564983149"><ele>860.0</ele><time>2026-03-22T09:20:03.999Z</time></trkpt><trkpt lat="42.60556882695502" lon="-2.4819033814487703"><ele>860.0</ele><time>2026-03-22T09:20:04.999Z</time></trkpt><trkpt lat="42.60547573378582" lon="-2.4820047576140927"><ele>860.0</ele><time>2026-03-22T09:20:05.999Z</time></trkpt><trkpt lat="42.60537133630193" lon="-2.4820875262593503"><ele>860.0</ele><time>2026-03-22T09:20:06.999Z</time></trkpt><trkpt lat="42.60526143236939" lon="-2.482122251942996"><ele>860.0</ele><time>2026-03-22T09:20:07.999Z</time></trkpt><trkpt lat="42.605158352686786" lon="-2.4821332374906406"><ele>860.5</ele><time>2026-03-22T09:20:08.999Z</time></trkpt><trkpt lat="42.60505228712573" lon="-2.4820986545062853"><ele>861.0</ele><time>2026-03-22T09:20:09.999Z</time></trkpt><trkpt lat="42.60494980239189" lon="-2.482028153798411"><ele>861.5</ele><time>2026-03-22T09:20:10.999Z</time></trkpt><trkpt lat="42.604856202474615" lon="-2.481920211501234"><ele>862.0</ele><time>2026-03-22T09:20:11.999Z</time></trkpt><trkpt lat="42.604757162760336" lon="-2.481818649122519"><ele>862.0</ele><time>2026-03-22T09:20:12.999Z</time></trkpt><trkpt lat="42.604646512102036" lon="-2.4817596203527756"><ele>862.0</ele><time>2026-03-22T09:20:13.999Z</time></trkpt><trkpt lat="42.604539153208286" lon="-2.4817859406973346"><ele>862.0</ele><time>2026-03-22T09:20:14.999Z</time></trkpt><trkpt lat="42.60444297191809" lon="-2.4818568976019586"><ele>862.0</ele><time>2026-03-22T09:20:15.998Z</time></trkpt><trkpt lat="42.60435472520401" lon="-2.481960741601433"><ele>863.25</ele><time>2026-03-22T09:20:16.998Z</time></trkpt><trkpt lat="42.604252682860974" lon="-2.4820628439930568"><ele>864.5</ele><time>2026-03-22T09:20:17.998Z</time></trkpt><trkpt lat="42.604138598409875" lon="-2.4821450929057196"><ele>865.75</ele><time>2026-03-22T09:20:18.998Z</time></trkpt><trkpt lat="42.60401823720002" lon="-2.4822252704305674"><ele>867.0</ele><time>2026-03-22T09:20:19.998Z</time></trkpt><trkpt lat="42.603881809700425" lon="-2.4822673807833318"><ele>863.0</ele><time>2026-03-22T09:20:20.998Z</time></trkpt><trkpt lat="42.6037401766408" lon="-2.4822715217294586"><ele>859.0</ele><time>2026-03-22T09:20:21.998Z</time></trkpt><trkpt lat="42.60359059072992" lon="-2.482245785406452"><ele>855.0</ele><time>2026-03-22T09:20:22.998Z</time></trkpt><trkpt lat="42.60345411273555" lon="-2.4822019871386805"><ele>851.0</ele><time>2026-03-22T09:20:23.998Z</time></trkpt><trkpt lat="42.60331243755552" lon="-2.4821523534794188"><ele>851.0</ele><time>2026-03-22T09:20:24.998Z</time></trkpt><trkpt lat="42.60316240808549" lon="-2.4820999461444613"><ele>851.0</ele><time>2026-03-22T09:20:25.998Z</time></trkpt><trkpt lat="42.603008696060456" lon="-2.4820388742272286"><ele>851.0</ele><time>2026-03-22T09:20:26.998Z</time></trkpt><trkpt lat="42.60286599363112" lon="-2.4819879959603903"><ele>854.75</ele><time>2026-03-22T09:20:27.998Z</time></trkpt><trkpt lat="42.60274579306382" lon="-2.481943933531546"><ele>858.5</ele><time>2026-03-22T09:20:28.998Z</time></trkpt><trkpt lat="42.602638000818914" lon="-2.4818819104599026"><ele>862.25</ele><time>2026-03-22T09:20:29.998Z</time></trkpt><trkpt lat="42.60254308359915" lon="-2.4817910826716574"><ele>866.0</ele><time>2026-03-22T09:20:30.998Z</time></trkpt><trkpt lat="42.602466390163755" lon="-2.481667836070392"><ele>866.0</ele><time>2026-03-22T09:20:31.998Z</time></trkpt><trkpt lat="42.602426255852194" lon="-2.481510725254186"><ele>866.0</ele><time>2026-03-22T09:20:32.998Z</time></trkpt><trkpt lat="42.60240757092359" lon="-2.481340686004363"><ele>866.0</ele><time>2026-03-22T09:20:33.998Z</time></trkpt><trkpt lat="42.60240534947364" lon="-2.4811534514392077"><ele>866.0</ele><time>2026-03-22T09:20:34.998Z</time></trkpt><trkpt lat="42.60239546257076" lon="-2.480957700844865"><ele>868.0</ele><time>2026-03-22T09:20:35.998Z</time></trkpt><trkpt lat="42.60238184309757" lon="-2.480753162788669"><ele>870.0</ele><time>2026-03-22T09:20:36.998Z</time></trkpt><trkpt lat="42.602365860628964" lon="-2.4805385625167395"><ele>872.0</ele><time>2026-03-22T09:20:37.998Z</time></trkpt><trkpt lat="42.60235408817006" lon="-2.480318338921876"><ele>874.3333333333334</ele><time>2026-03-22T09:20:38.998Z</time></trkpt><trkpt lat="42.60234407456189" lon="-2.48009653338844"><ele>876.6666666666667</ele><time>2026-03-22T09:20:39.998Z</time></trkpt><trkpt lat="42.60233191538966" lon="-2.4798875622301377"><ele>879.0</ele><time>2026-03-22T09:20:40.998Z</time></trkpt><trkpt lat="42.602319346813786" lon="-2.479691834581608"><ele>879.5</ele><time>2026-03-22T09:20:41.998Z</time></trkpt><trkpt lat="42.60231046569492" lon="-2.47950407259875"><ele>880.0</ele><time>2026-03-22T09:20:43Z</time></trkpt><trkpt lat="42.602303575359876" lon="-2.4793046506175624"><ele>880.5</ele><time>2026-03-22T09:20:44Z</time></trkpt><trkpt lat="42.60229858848831" lon="-2.4791001894225437"><ele>881.0</ele><time>2026-03-22T09:20:45Z</time></trkpt><trkpt lat="42.60230862328722" lon="-2.4788862169460755"><ele>879.6666666666667</ele><time>2026-03-22T09:20:46Z</time></trkpt><trkpt lat="42.602332257310735" lon="-2.4786603318785554"><ele>878.3333333333333</ele><time>2026-03-22T09:20:47Z</time></trkpt><trkpt lat="42.60236563802326" lon="-2.4784339518197784"><ele>877.0</ele><time>2026-03-22T09:20:48Z</time></trkpt><trkpt lat="42.60240447970991" lon="-2.4782003919761846"><ele>877.0</ele><time>2026-03-22T09:20:49Z</time></trkpt><trkpt lat="42.6024431989705" lon="-2.4779522602551936"><ele>877.0</ele><time>2026-03-22T09:20:50Z</time></trkpt><trkpt lat="42.602480622066956" lon="-2.477693612521876"><ele>877.0</ele><time>2026-03-22T09:20:51Z</time></trkpt><trkpt lat="42.602514263569105" lon="-2.477427800319709"><ele>875.6666666666666</ele><time>2026-03-22T09:20:52Z</time></trkpt><trkpt lat="42.60254608560958" lon="-2.477157034190706"><ele>874.3333333333333</ele><time>2026-03-22T09:20:53Z</time></trkpt><trkpt lat="42.60257982306085" lon="-2.4768906969351825"><ele>873.0</ele><time>2026-03-22T09:20:54Z</time></trkpt><trkpt lat="42.60261531150069" lon="-2.476627891569641"><ele>873.0</ele><time>2026-03-22T09:20:55Z</time></trkpt><trkpt lat="42.602651809580664" lon="-2.4763717635962905"><ele>873.0</ele><time>2026-03-22T09:20:56Z</time></trkpt><trkpt lat="42.60268990770669" lon="-2.4761246533846153"><ele>873.0</ele><time>2026-03-22T09:20:57Z</time></trkpt><trkpt lat="42.60272771948836" lon="-2.4758799129196407"><ele>873.0</ele><time>2026-03-22T09:20:58Z</time></trkpt><trkpt lat="42.60276675775167" lon="-2.475640037944041"><ele>873.0</ele><time>2026-03-22T09:20:59Z</time></trkpt><trkpt lat="42.60280105311667" lon="-2.4754088975278554"><ele>873.0</ele><time>2026-03-22T09:21:00Z</time></trkpt><trkpt lat="42.60282688722923" lon="-2.4752051683601173"><ele>875.8</ele><time>2026-03-22T09:21:01Z</time></trkpt><trkpt lat="42.60284754532628" lon="-2.475027036119361"><ele>878.5999999999999</ele><time>2026-03-22T09:21:02Z</time></trkpt><trkpt lat="42.60286397475947" lon="-2.4748796686972683"><ele>881.4000000000001</ele><time>2026-03-22T09:21:03Z</time></trkpt><trkpt lat="42.60288202595528" lon="-2.474760310212224"><ele>884.2</ele><time>2026-03-22T09:21:04Z</time></trkpt><trkpt lat="42.6028983049114" lon="-2.474652904218188"><ele>887.0</ele><time>2026-03-22T09:21:05Z</time></trkpt><trkpt lat="42.60291674704625" lon="-2.4745317730040663"><ele>887.6</ele><time>2026-03-22T09:21:07Z</time></trkpt><trkpt lat="42.60294653514647" lon="-2.4744330417796845"><ele>888.2</ele><time>2026-03-22T09:21:11Z</time></trkpt><trkpt lat="42.60308803141715" lon="-2.4743976364885367"><ele>888.8</ele><time>2026-03-22T09:21:12Z</time></trkpt><trkpt lat="42.60314577369514" lon="-2.4743139556020193"><ele>889.4</ele><time>2026-03-22T09:21:13Z</time></trkpt><trkpt lat="42.60317951968888" lon="-2.47421340047806"><ele>890.0</ele><time>2026-03-22T09:21:14Z</time></trkpt><trkpt lat="42.60318983397988" lon="-2.474111417901121"><ele>890.0</ele><time>2026-03-22T09:21:15Z</time></trkpt><trkpt lat="42.60316153506396" lon="-2.4740123937727008"><ele>890.0</ele><time>2026-03-22T09:21:16Z</time></trkpt><trkpt lat="42.603113400223634" lon="-2.473911534814549"><ele>890.0</ele><time>2026-03-22T09:21:17Z</time></trkpt><trkpt lat="42.60305680634937" lon="-2.47380465909379"><ele>890.0</ele><time>2026-03-22T09:21:18Z</time></trkpt><trkpt lat="42.60300347453128" lon="-2.473693974579432"><ele>890.0</ele><time>2026-03-22T09:21:19Z</time></trkpt><trkpt lat="42.60295396080721" lon="-2.4735934868546"><ele>890.0</ele><time>2026-03-22T09:21:20Z</time></trkpt><trkpt lat="42.60289642637178" lon="-2.473480391646679"><ele>890.0</ele><time>2026-03-22T09:21:21Z</time></trkpt><trkpt lat="42.60283287841841" lon="-2.4733567032186055"><ele>890.0</ele><time>2026-03-22T09:21:22Z</time></trkpt><trkpt lat="42.60276570237744" lon="-2.4732233460030506"><ele>890.0</ele><time>2026-03-22T09:21:23Z</time></trkpt><trkpt lat="42.60269047364246" lon="-2.4730853706853235"><ele>890.0</ele><time>2026-03-22T09:21:24Z</time></trkpt><trkpt lat="42.602610022290236" lon="-2.4729460191614505"><ele>890.0</ele><time>2026-03-22T09:21:25Z</time></trkpt><trkpt lat="42.60251995838239" lon="-2.4728175547425875"><ele>890.0</ele><time>2026-03-22T09:21:25.999Z</time></trkpt><trkpt lat="42.60241469815594" lon="-2.4726971292754016"><ele>890.0</ele><time>2026-03-22T09:21:26.999Z</time></trkpt><trkpt lat="42.60231216689008" lon="-2.472579432662123"><ele>893.0</ele><time>2026-03-22T09:21:27.999Z</time></trkpt><trkpt lat="42.602224948600195" lon="-2.4724542693287765"><ele>896.0</ele><time>2026-03-22T09:21:28.999Z</time></trkpt><trkpt lat="42.60216266930346" lon="-2.4723016907973667"><ele>899.0</ele><time>2026-03-22T09:21:29.999Z</time></trkpt><trkpt lat="42.602120462449186" lon="-2.4721247157469057"><ele>902.0</ele><time>2026-03-22T09:21:30.999Z</time></trkpt><trkpt lat="42.60208240219902" lon="-2.4719347742845623"><ele>901.6666666666667</ele><time>2026-03-22T09:21:31.999Z</time></trkpt><trkpt lat="42.60203622105975" lon="-2.4717421438789797"><ele>901.3333333333333</ele><time>2026-03-22T09:21:32.999Z</time></trkpt><trkpt lat="42.60197687365507" lon="-2.471549354182711"><ele>901.0</ele><time>2026-03-22T09:21:33.999Z</time></trkpt><trkpt lat="42.60188946020221" lon="-2.4713738070048517"><ele>902.5</ele><time>2026-03-22T09:21:34.999Z</time></trkpt><trkpt lat="42.60180202529241" lon="-2.4712206591518138"><ele>904.0</ele><time>2026-03-22T09:21:35.999Z</time></trkpt><trkpt lat="42.6017321949854" lon="-2.471046266309144"><ele>905.5</ele><time>2026-03-22T09:21:36.999Z</time></trkpt><trkpt lat="42.6016806204163" lon="-2.470849361606045"><ele>907.0</ele><time>2026-03-22T09:21:37.999Z</time></trkpt><trkpt lat="42.60165106190295" lon="-2.4706299659254487"><ele>908.3333333333333</ele><time>2026-03-22T09:21:38.999Z</time></trkpt><trkpt lat="42.60162903722502" lon="-2.470396431299546"><ele>909.6666666666667</ele><time>2026-03-22T09:21:39.999Z</time></trkpt><trkpt lat="42.60161079162375" lon="-2.4701552190823524"><ele>911.0</ele><time>2026-03-22T09:21:40.999Z</time></trkpt><trkpt lat="42.60160139265403" lon="-2.469913326905655"><ele>911.0</ele><time>2026-03-22T09:21:41.999Z</time></trkpt><trkpt lat="42.601601139466354" lon="-2.4696906438772444"><ele>911.0</ele><time>2026-03-22T09:21:42.999Z</time></trkpt><trkpt lat="42.60161345052736" lon="-2.4694805584660244"><ele>911.0</ele><time>2026-03-22T09:21:43.999Z</time></trkpt><trkpt lat="42.60163636095448" lon="-2.469275861893017"><ele>911.5</ele><time>2026-03-22T09:21:44.999Z</time></trkpt><trkpt lat="42.60166809166472" lon="-2.4690964799795303"><ele>912.0</ele><time>2026-03-22T09:21:45.999Z</time></trkpt><trkpt lat="42.60171532253092" lon="-2.4689383933653946"><ele>912.5</ele><time>2026-03-22T09:21:46.999Z</time></trkpt><trkpt lat="42.60179239105523" lon="-2.4687852702993887"><ele>913.0</ele><time>2026-03-22T09:21:47.999Z</time></trkpt><trkpt lat="42.60189018366794" lon="-2.4686429422512606"><ele>913.0</ele><time>2026-03-22T09:21:48.999Z</time></trkpt><trkpt lat="42.60199534979643" lon="-2.468506317614392"><ele>913.0</ele><time>2026-03-22T09:21:49.999Z</time></trkpt><trkpt lat="42.602094060428385" lon="-2.468366601448651"><ele>913.0</ele><time>2026-03-22T09:21:50.999Z</time></trkpt><trkpt lat="42.60219273961197" lon="-2.4682266824350867"><ele>913.0</ele><time>2026-03-22T09:21:51.999Z</time></trkpt><trkpt lat="42.60228677142092" lon="-2.468097020481026"><ele>915.2</ele><time>2026-03-22T09:21:52.999Z</time></trkpt><trkpt lat="42.60236758096623" lon="-2.467977175947334"><ele>917.4</ele><time>2026-03-22T09:21:53.999Z</time></trkpt><trkpt lat="42.60243906483698" lon="-2.46786120124494"><ele>919.6000000000001</ele><time>2026-03-22T09:21:54.999Z</time></trkpt><trkpt lat="42.60249291801495" lon="-2.4677413197264477"><ele>921.8000000000001</ele><time>2026-03-22T09:21:55.999Z</time></trkpt><trkpt lat="42.60252521510946" lon="-2.467601783118813"><ele>924.0</ele><time>2026-03-22T09:21:56.999Z</time></trkpt><trkpt lat="42.60253998465573" lon="-2.4674386910942636"><ele>924.25</ele><time>2026-03-22T09:21:57.999Z</time></trkpt><trkpt lat="42.60253122811966" lon="-2.4672668386985714"><ele>924.5</ele><time>2026-03-22T09:21:58.999Z</time></trkpt><trkpt lat="42.60251480230678" lon="-2.4670781973149536"><ele>924.75</ele><time>2026-03-22T09:21:59.999Z</time></trkpt><trkpt lat="42.602514584787464" lon="-2.4668687530569824"><ele>925.0</ele><time>2026-03-22T09:22:00.999Z</time></trkpt><trkpt lat="42.602528446253515" lon="-2.466642756116835"><ele>926.0</ele><time>2026-03-22T09:22:01.999Z</time></trkpt><trkpt lat="42.60254692494235" lon="-2.466403310820972"><ele>927.0</ele><time>2026-03-22T09:22:02.999Z</time></trkpt><trkpt lat="42.60256877791376" lon="-2.466158694468331"><ele>928.0</ele><time>2026-03-22T09:22:03.999Z</time></trkpt><trkpt lat="42.6025914358088" lon="-2.465921985190259"><ele>928.3333333333333</ele><time>2026-03-22T09:22:04.999Z</time></trkpt><trkpt lat="42.602618272743776" lon="-2.4656985709954142"><ele>928.6666666666667</ele><time>2026-03-22T09:22:05.999Z</time></trkpt><trkpt lat="42.602652226944144" lon="-2.465482713871111"><ele>929.0</ele><time>2026-03-22T09:22:06.999Z</time></trkpt><trkpt lat="42.60268345567729" lon="-2.4652689009886504"><ele>929.0</ele><time>2026-03-22T09:22:07.999Z</time></trkpt><trkpt lat="42.60272619345469" lon="-2.465060292382079"><ele>929.0</ele><time>2026-03-22T09:22:08.999Z</time></trkpt><trkpt lat="42.60278452191513" lon="-2.464844620377185"><ele>929.0</ele><time>2026-03-22T09:22:09.999Z</time></trkpt><trkpt lat="42.60284980145719" lon="-2.464624821357367"><ele>936.6666666666667</ele><time>2026-03-22T09:22:10.999Z</time></trkpt><trkpt lat="42.602919638367595" lon="-2.464403914538813"><ele>944.3333333333333</ele><time>2026-03-22T09:22:11.999Z</time></trkpt><trkpt lat="42.60298993194682" lon="-2.464177441042907"><ele>952.0</ele><time>2026-03-22T09:22:12.999Z</time></trkpt><trkpt lat="42.60305681055887" lon="-2.4639555771813337"><ele>950.6666666666666</ele><time>2026-03-22T09:22:13.999Z</time></trkpt><trkpt lat="42.60312932440674" lon="-2.463737064179044"><ele>949.3333333333333</ele><time>2026-03-22T09:22:14.999Z</time></trkpt><trkpt lat="42.603200366224584" lon="-2.463521390792547"><ele>948.0</ele><time>2026-03-22T09:22:15.999Z</time></trkpt><trkpt lat="42.603271679199075" lon="-2.4633146110957216"><ele>948.0</ele><time>2026-03-22T09:22:16.999Z</time></trkpt><trkpt lat="42.60334296293591" lon="-2.463113712605072"><ele>948.0</ele><time>2026-03-22T09:22:17.999Z</time></trkpt><trkpt lat="42.60341605921314" lon="-2.4629171500894644"><ele>948.0</ele><time>2026-03-22T09:22:18.999Z</time></trkpt><trkpt lat="42.60348509085718" lon="-2.462720640083231"><ele>947.3333333333333</ele><time>2026-03-22T09:22:19.999Z</time></trkpt><trkpt lat="42.60355660156024" lon="-2.4625286557805395"><ele>946.6666666666666</ele><time>2026-03-22T09:22:20.999Z</time></trkpt><trkpt lat="42.60362483603552" lon="-2.4623427802453817"><ele>946.0</ele><time>2026-03-22T09:22:21.999Z</time></trkpt><trkpt lat="42.60369089503971" lon="-2.4621622066124322"><ele>950.75</ele><time>2026-03-22T09:22:22.999Z</time></trkpt><trkpt lat="42.60374300458481" lon="-2.4619803050100497"><ele>955.5</ele><time>2026-03-22T09:22:23.998Z</time></trkpt><trkpt lat="42.60377278110837" lon="-2.461803662220056"><ele>960.25</ele><time>2026-03-22T09:22:24.998Z</time></trkpt><trkpt lat="42.60379544227568" lon="-2.461644987912327"><ele>965.0</ele><time>2026-03-22T09:22:25.998Z</time></trkpt><trkpt lat="42.603822899821935" lon="-2.461522967422744"><ele>965.0</ele><time>2026-03-22T09:22:26.998Z</time></trkpt><trkpt lat="42.60386897313095" lon="-2.4614432587714683"><ele>965.0</ele><time>2026-03-22T09:22:27.998Z</time></trkpt><trkpt lat="42.603987934313345" lon="-2.461410076993702"><ele>965.0</ele><time>2026-03-22T09:22:29.998Z</time></trkpt><trkpt lat="42.60405864302178" lon="-2.4614315957190485"><ele>965.0</ele><time>2026-03-22T09:22:30.998Z</time></trkpt><trkpt lat="42.604127911461916" lon="-2.461514836699177"><ele>965.0</ele><time>2026-03-22T09:22:31.998Z</time></trkpt><trkpt lat="42.604162939286915" lon="-2.4616406089054346"><ele>965.0</ele><time>2026-03-22T09:22:32.998Z</time></trkpt><trkpt lat="42.60413575063771" lon="-2.461791440066033"><ele>965.0</ele><time>2026-03-22T09:22:33.998Z</time></trkpt><trkpt lat="42.604059927541854" lon="-2.461914028102195"><ele>965.0</ele><time>2026-03-22T09:22:34.998Z</time></trkpt><trkpt lat="42.60399596081128" lon="-2.4620433785171554"><ele>965.0</ele><time>2026-03-22T09:22:35.998Z</time></trkpt><trkpt lat="42.60393116049871" lon="-2.4621944226077765"><ele>966.75</ele><time>2026-03-22T09:22:36.998Z</time></trkpt><trkpt lat="42.60387148596656" lon="-2.4623676313710834"><ele>968.5</ele><time>2026-03-22T09:22:37.998Z</time></trkpt><trkpt lat="42.603814063529725" lon="-2.4625502718166947"><ele>970.25</ele><time>2026-03-22T09:22:38.998Z</time></trkpt><trkpt lat="42.60376013120522" lon="-2.462724810308508"><ele>972.0</ele><time>2026-03-22T09:22:39.998Z</time></trkpt><trkpt lat="42.603708422659416" lon="-2.4628991520215453"><ele>973.0</ele><time>2026-03-22T09:22:40.998Z</time></trkpt><trkpt lat="42.60366406302129" lon="-2.463065254996394"><ele>974.0</ele><time>2026-03-22T09:22:41.998Z</time></trkpt><trkpt lat="42.60363104162908" lon="-2.4632221631865514"><ele>975.0</ele><time>2026-03-22T09:22:42.998Z</time></trkpt><trkpt lat="42.603615344117756" lon="-2.4633707496636412"><ele>976.0</ele><time>2026-03-22T09:22:43.998Z</time></trkpt><trkpt lat="42.60361380605091" lon="-2.463532966615936"><ele>975.75</ele><time>2026-03-22T09:22:44.998Z</time></trkpt><trkpt lat="42.603615923919065" lon="-2.4637074937296037"><ele>975.5</ele><time>2026-03-22T09:22:45.998Z</time></trkpt><trkpt lat="42.603623269980275" lon="-2.463889533980715"><ele>975.25</ele><time>2026-03-22T09:22:46.998Z</time></trkpt><trkpt lat="42.603637108355834" lon="-2.4640642266694153"><ele>975.0</ele><time>2026-03-22T09:22:47.998Z</time></trkpt><trkpt lat="42.60366928616596" lon="-2.464222391940667"><ele>975.0</ele><time>2026-03-22T09:22:49Z</time></trkpt><trkpt lat="42.603729664230464" lon="-2.464349201119269"><ele>975.0</ele><time>2026-03-22T09:22:50Z</time></trkpt><trkpt lat="42.603806343831984" lon="-2.464458588272741"><ele>975.0</ele><time>2026-03-22T09:22:51Z</time></trkpt><trkpt lat="42.603891962289495" lon="-2.4645421187261767"><ele>975.0</ele><time>2026-03-22T09:22:52Z</time></trkpt><trkpt lat="42.60398106734424" lon="-2.464617330837452"><ele>975.0</ele><time>2026-03-22T09:22:53Z</time></trkpt><trkpt lat="42.60407908573872" lon="-2.464693906291612"><ele>974.25</ele><time>2026-03-22T09:22:54Z</time></trkpt><trkpt lat="42.604181266004126" lon="-2.4647716742927788"><ele>973.5</ele><time>2026-03-22T09:22:55Z</time></trkpt><trkpt lat="42.6042820290913" lon="-2.4648540272826795"><ele>972.75</ele><time>2026-03-22T09:22:56Z</time></trkpt><trkpt lat="42.60438470263679" lon="-2.4649626315231568"><ele>972.0</ele><time>2026-03-22T09:22:57Z</time></trkpt><trkpt lat="42.60448284954718" lon="-2.4651024611702774"><ele>977.6666666666667</ele><time>2026-03-22T09:22:58Z</time></trkpt><trkpt lat="42.60456396460445" lon="-2.465279002759711"><ele>983.3333333333334</ele><time>2026-03-22T09:22:59Z</time></trkpt><trkpt lat="42.60463182189233" lon="-2.4654704660021958"><ele>989.0</ele><time>2026-03-22T09:23:00Z</time></trkpt><trkpt lat="42.604695311557" lon="-2.4656739084220107"><ele>989.0</ele><time>2026-03-22T09:23:01Z</time></trkpt><trkpt lat="42.604748131196175" lon="-2.4658872357137467"><ele>989.0</ele><time>2026-03-22T09:23:02Z</time></trkpt><trkpt lat="42.60479085036317" lon="-2.4661102484836865"><ele>989.0</ele><time>2026-03-22T09:23:03Z</time></trkpt><trkpt lat="42.60482110822696" lon="-2.466347289962919"><ele>988.3333333333334</ele><time>2026-03-22T09:23:04Z</time></trkpt><trkpt lat="42.604839468773676" lon="-2.4665808887285534"><ele>987.6666666666667</ele><time>2026-03-22T09:23:05Z</time></trkpt><trkpt lat="42.604855037544034" lon="-2.466818115537509"><ele>987.0</ele><time>2026-03-22T09:23:06Z</time></trkpt><trkpt lat="42.60487232291378" lon="-2.467058250182872"><ele>986.0</ele><time>2026-03-22T09:23:07Z</time></trkpt><trkpt lat="42.604898865927126" lon="-2.4672933567903854"><ele>985.0</ele><time>2026-03-22T09:23:08Z</time></trkpt><trkpt lat="42.604937609060244" lon="-2.467534020072378"><ele>984.0</ele><time>2026-03-22T09:23:09Z</time></trkpt><trkpt lat="42.60498289995929" lon="-2.467777549149121"><ele>982.6666666666667</ele><time>2026-03-22T09:23:10Z</time></trkpt><trkpt lat="42.605032613786165" lon="-2.4680247380652105"><ele>981.3333333333334</ele><time>2026-03-22T09:23:11Z</time></trkpt><trkpt lat="42.60507738978912" lon="-2.4682600092144957"><ele>980.0</ele><time>2026-03-22T09:23:12Z</time></trkpt><trkpt lat="42.605118855808335" lon="-2.4684778882100438"><ele>980.0</ele><time>2026-03-22T09:23:13Z</time></trkpt><trkpt lat="42.60515506119233" lon="-2.4686721916016467"><ele>980.0</ele><time>2026-03-22T09:23:14Z</time></trkpt><trkpt lat="42.60518165033938" lon="-2.468841556470901"><ele>980.0</ele><time>2026-03-22T09:23:15Z</time></trkpt><trkpt lat="42.60520470032106" lon="-2.4689764764050897"><ele>980.0</ele><time>2026-03-22T09:23:16Z</time></trkpt><trkpt lat="42.60523922376267" lon="-2.469101999974352"><ele>978.4</ele><time>2026-03-22T09:23:17Z</time></trkpt><trkpt lat="42.60529462892319" lon="-2.469200277143431"><ele>976.8</ele><time>2026-03-22T09:23:18Z</time></trkpt><trkpt lat="42.605363608166606" lon="-2.469289379840643"><ele>975.2</ele><time>2026-03-22T09:23:19Z</time></trkpt><trkpt lat="42.605459966177605" lon="-2.4693293401782896"><ele>973.6</ele><time>2026-03-22T09:23:20Z</time></trkpt><trkpt lat="42.60556577358701" lon="-2.4693490530436186"><ele>972.0</ele><time>2026-03-22T09:23:21Z</time></trkpt><trkpt lat="42.60568909055459" lon="-2.469358871311255"><ele>972.75</ele><time>2026-03-22T09:23:22Z</time></trkpt><trkpt lat="42.60582140672878" lon="-2.469373669637429"><ele>973.5</ele><time>2026-03-22T09:23:23Z</time></trkpt><trkpt lat="42.60595562371966" lon="-2.4693955144361803"><ele>974.25</ele><time>2026-03-22T09:23:24Z</time></trkpt><trkpt lat="42.60608679516447" lon="-2.4693973313476434"><ele>975.0</ele><time>2026-03-22T09:23:25Z</time></trkpt><trkpt lat="42.606193674899295" lon="-2.4694454975216886"><ele>975.0</ele><time>2026-03-22T09:23:26Z</time></trkpt><trkpt lat="42.60628990588332" lon="-2.469493519436557"><ele>975.0</ele><time>2026-03-22T09:23:27Z</time></trkpt><trkpt lat="42.60638014826872" lon="-2.469631508136526"><ele>975.0</ele><time>2026-03-22T09:23:28Z</time></trkpt><trkpt lat="42.60645207232599" lon="-2.4697962592569604"><ele>975.0</ele><time>2026-03-22T09:23:29Z</time></trkpt><trkpt lat="42.60652117118522" lon="-2.469976992847509"><ele>976.0</ele><time>2026-03-22T09:23:30Z</time></trkpt><trkpt lat="42.60659454746056" lon="-2.470160019752824"><ele>977.0</ele><time>2026-03-22T09:23:31Z</time></trkpt><trkpt lat="42.606673733006566" lon="-2.4703352003896115"><ele>978.0</ele><time>2026-03-22T09:23:31.999Z</time></trkpt><trkpt lat="42.60676261204309" lon="-2.4705045376752968"><ele>979.6666666666667</ele><time>2026-03-22T09:23:32.999Z</time></trkpt><trkpt lat="42.60685400193243" lon="-2.470675931406862"><ele>981.3333333333334</ele><time>2026-03-22T09:23:33.999Z</time></trkpt><trkpt lat="42.60698747911521" lon="-2.470778597207777"><ele>983.0</ele><time>2026-03-22T09:23:34.999Z</time></trkpt><trkpt lat="42.60712562404209" lon="-2.470880983108922"><ele>977.3333333333334</ele><time>2026-03-22T09:23:35.999Z</time></trkpt><trkpt lat="42.60727250332714" lon="-2.4709819114520806"><ele>971.6666666666667</ele><time>2026-03-22T09:23:36.999Z</time></trkpt><trkpt lat="42.60742225173456" lon="-2.471079290777686"><ele>966.0</ele><time>2026-03-22T09:23:37.999Z</time></trkpt><trkpt lat="42.60757400233486" lon="-2.4711789077876904"><ele>964.3333333333333</ele><time>2026-03-22T09:23:38.999Z</time></trkpt><trkpt lat="42.60772450594143" lon="-2.471291530931933"><ele>962.6666666666666</ele><time>2026-03-22T09:23:39.999Z</time></trkpt><trkpt lat="42.60786064914758" lon="-2.4714270156535214"><ele>961.0</ele><time>2026-03-22T09:23:40.999Z</time></trkpt><trkpt lat="42.60801081898749" lon="-2.4715244840361237"><ele>961.0</ele><time>2026-03-22T09:23:41.999Z</time></trkpt><trkpt lat="42.60815052002199" lon="-2.471639163403793"><ele>961.0</ele><time>2026-03-22T09:23:42.999Z</time></trkpt><trkpt lat="42.60828908752171" lon="-2.471752912212473"><ele>961.0</ele><time>2026-03-22T09:23:43.999Z</time></trkpt><trkpt lat="42.608427283591766" lon="-2.4718639572079217"><ele>961.0</ele><time>2026-03-22T09:23:44.999Z</time></trkpt><trkpt lat="42.60856564977453" lon="-2.471974640676872"><ele>961.0</ele><time>2026-03-22T09:23:45.999Z</time></trkpt><trkpt lat="42.60869793859301" lon="-2.472099539994781"><ele>961.0</ele><time>2026-03-22T09:23:46.999Z</time></trkpt><trkpt lat="42.60884122506001" lon="-2.472204865950188"><ele>960.6666666666666</ele><time>2026-03-22T09:23:47.999Z</time></trkpt><trkpt lat="42.60898373671935" lon="-2.4723219622116734"><ele>960.3333333333333</ele><time>2026-03-22T09:23:48.999Z</time></trkpt><trkpt lat="42.60912441308457" lon="-2.472446889242464"><ele>960.0</ele><time>2026-03-22T09:23:49.999Z</time></trkpt><trkpt lat="42.60927076391912" lon="-2.4725686762189603"><ele>960.0</ele><time>2026-03-22T09:23:50.999Z</time></trkpt><trkpt lat="42.60940970346518" lon="-2.47269060428341"><ele>960.0</ele><time>2026-03-22T09:23:51.999Z</time></trkpt><trkpt lat="42.609549618454935" lon="-2.472806455745808"><ele>960.0</ele><time>2026-03-22T09:23:52.999Z</time></trkpt><trkpt lat="42.60967138392262" lon="-2.4729522787527185"><ele>955.3333333333333</ele><time>2026-03-22T09:23:53.999Z</time></trkpt><trkpt lat="42.60976980317294" lon="-2.47312956453362"><ele>950.6666666666666</ele><time>2026-03-22T09:23:54.999Z</time></trkpt><trkpt lat="42.60988869905894" lon="-2.4732763463691017"><ele>946.0</ele><time>2026-03-22T09:23:55.999Z</time></trkpt><trkpt lat="42.60999454153717" lon="-2.473437066941977"><ele>946.0</ele><time>2026-03-22T09:23:56.999Z</time></trkpt><trkpt lat="42.610095207836" lon="-2.4735978494016746"><ele>946.0</ele><time>2026-03-22T09:23:57.999Z</time></trkpt><trkpt lat="42.61018036458662" lon="-2.473755416719952"><ele>946.0</ele><time>2026-03-22T09:23:58.999Z</time></trkpt><trkpt lat="42.610256502106125" lon="-2.4739473003228953"><ele>949.0</ele><time>2026-03-22T09:23:59.999Z</time></trkpt><trkpt lat="42.610307018628305" lon="-2.474149851976252"><ele>952.0</ele><time>2026-03-22T09:24:00.999Z</time></trkpt><trkpt lat="42.61034052534185" lon="-2.4743728169422035"><ele>955.0</ele><time>2026-03-22T09:24:01.999Z</time></trkpt><trkpt lat="42.61036302540947" lon="-2.474560140145295"><ele>947.25</ele><time>2026-03-22T09:24:02.999Z</time></trkpt><trkpt lat="42.610384592668886" lon="-2.4747396978700977"><ele>939.5</ele><time>2026-03-22T09:24:03.999Z</time></trkpt><trkpt lat="42.610416501584396" lon="-2.4749008569251085"><ele>931.75</ele><time>2026-03-22T09:24:04.999Z</time></trkpt><trkpt lat="42.61048151147659" lon="-2.475038740984081"><ele>924.0</ele><time>2026-03-22T09:24:05.999Z</time></trkpt><trkpt lat="42.61057630939037" lon="-2.475161410404664"><ele>924.0</ele><time>2026-03-22T09:24:06.999Z</time></trkpt><trkpt lat="42.61067901533706" lon="-2.475296829865134"><ele>924.0</ele><time>2026-03-22T09:24:07.999Z</time></trkpt><trkpt lat="42.61080531302833" lon="-2.47541516279741"><ele>924.0</ele><time>2026-03-22T09:24:08.999Z</time></trkpt><trkpt lat="42.61092899078095" lon="-2.4755538936155337"><ele>920.6666666666667</ele><time>2026-03-22T09:24:09.999Z</time></trkpt><trkpt lat="42.611061018780475" lon="-2.4756922078733847"><ele>917.3333333333334</ele><time>2026-03-22T09:24:10.999Z</time></trkpt><trkpt lat="42.6111967969981" lon="-2.4758265868882012"><ele>914.0</ele><time>2026-03-22T09:24:11.999Z</time></trkpt><trkpt lat="42.61133864367661" lon="-2.4759554107613866"><ele>914.0</ele><time>2026-03-22T09:24:12.999Z</time></trkpt><trkpt lat="42.611484526408425" lon="-2.4760650776493733"><ele>914.0</ele><time>2026-03-22T09:24:13.999Z</time></trkpt><trkpt lat="42.611628787532545" lon="-2.4761551353355356"><ele>914.0</ele><time>2026-03-22T09:24:14.999Z</time></trkpt><trkpt lat="42.611761164343406" lon="-2.4762373604345655"><ele>910.0</ele><time>2026-03-22T09:24:15.999Z</time></trkpt><trkpt lat="42.61188576589151" lon="-2.47634753078544"><ele>906.0</ele><time>2026-03-22T09:24:16.999Z</time></trkpt><trkpt lat="42.612001397311865" lon="-2.476492066989877"><ele>902.0</ele><time>2026-03-22T09:24:17.999Z</time></trkpt><trkpt lat="42.61211875763028" lon="-2.4766506061738176"><ele>902.0</ele><time>2026-03-22T09:24:18.999Z</time></trkpt><trkpt lat="42.6122400487182" lon="-2.4768150594882856"><ele>902.0</ele><time>2026-03-22T09:24:19.999Z</time></trkpt><trkpt lat="42.61237382519943" lon="-2.476968564221328"><ele>902.0</ele><time>2026-03-22T09:24:20.999Z</time></trkpt><trkpt lat="42.61250115169144" lon="-2.4771420337591286"><ele>899.0</ele><time>2026-03-22T09:24:21.999Z</time></trkpt><trkpt lat="42.612628904824135" lon="-2.4773068871238926"><ele>896.0</ele><time>2026-03-22T09:24:22.999Z</time></trkpt><trkpt lat="42.6127693325047" lon="-2.4774470845528116"><ele>893.0</ele><time>2026-03-22T09:24:23.999Z</time></trkpt><trkpt lat="42.61291909613191" lon="-2.4775815900100224"><ele>893.0</ele><time>2026-03-22T09:24:24.999Z</time></trkpt><trkpt lat="42.613060996947546" lon="-2.477727650562225"><ele>893.0</ele><time>2026-03-22T09:24:25.999Z</time></trkpt><trkpt lat="42.61319153575403" lon="-2.4778924819837798"><ele>893.0</ele><time>2026-03-22T09:24:26.999Z</time></trkpt><trkpt lat="42.613331656627004" lon="-2.4780375909360415"><ele>890.6666666666667</ele><time>2026-03-22T09:24:27.999Z</time></trkpt><trkpt lat="42.61347091131856" lon="-2.4781892067059066"><ele>888.3333333333333</ele><time>2026-03-22T09:24:28.998Z</time></trkpt><trkpt lat="42.613603976983555" lon="-2.4783385459391907"><ele>886.0</ele><time>2026-03-22T09:24:29.998Z</time></trkpt><trkpt lat="42.61374718077979" lon="-2.4784639222754543"><ele>886.0</ele><time>2026-03-22T09:24:30.998Z</time></trkpt><trkpt lat="42.61386396091533" lon="-2.478616688058127"><ele>886.0</ele><time>2026-03-22T09:24:31.998Z</time></trkpt><trkpt lat="42.61399315740765" lon="-2.4787363839293146"><ele>886.0</ele><time>2026-03-22T09:24:32.998Z</time></trkpt><trkpt lat="42.61411435266376" lon="-2.4788788717295405"><ele>892.3333333333333</ele><time>2026-03-22T09:24:33.998Z</time></trkpt><trkpt lat="42.61422347962331" lon="-2.479060289708561"><ele>898.6666666666667</ele><time>2026-03-22T09:24:34.998Z</time></trkpt><trkpt lat="42.61431116052266" lon="-2.4792254067877706"><ele>905.0</ele><time>2026-03-22T09:24:35.998Z</time></trkpt><trkpt lat="42.61439140721936" lon="-2.4793765243792754"><ele>905.0</ele><time>2026-03-22T09:24:36.998Z</time></trkpt><trkpt lat="42.614461912308215" lon="-2.4794937602877676"><ele>905.0</ele><time>2026-03-22T09:24:37.998Z</time></trkpt><trkpt lat="42.61454439733415" lon="-2.479586443582234"><ele>905.0</ele><time>2026-03-22T09:24:38.998Z</time></trkpt><trkpt lat="42.61464675336343" lon="-2.4796531986063957"><ele>905.0</ele><time>2026-03-22T09:24:39.998Z</time></trkpt><trkpt lat="42.61479496520365" lon="-2.4796810975817127"><ele>904.3333333333334</ele><time>2026-03-22T09:24:40.998Z</time></trkpt><trkpt lat="42.61493568919758" lon="-2.4796650214316625"><ele>903.6666666666667</ele><time>2026-03-22T09:24:41.998Z</time></trkpt><trkpt lat="42.61508880302289" lon="-2.4796485102133228"><ele>903.0</ele><time>2026-03-22T09:24:42.998Z</time></trkpt><trkpt lat="42.61524111272888" lon="-2.4795951435655494"><ele>898.0</ele><time>2026-03-22T09:24:43.998Z</time></trkpt><trkpt lat="42.61538279215308" lon="-2.4795566582810644"><ele>893.0</ele><time>2026-03-22T09:24:44.998Z</time></trkpt><trkpt lat="42.615512136837914" lon="-2.4795305765438074"><ele>888.0</ele><time>2026-03-22T09:24:45.998Z</time></trkpt><trkpt lat="42.61563497813878" lon="-2.4795294950264775"><ele>883.0</ele><time>2026-03-22T09:24:46.998Z</time></trkpt><trkpt lat="42.61575671925059" lon="-2.4795556737090263"><ele>883.0</ele><time>2026-03-22T09:24:47.998Z</time></trkpt><trkpt lat="42.61589301680812" lon="-2.479593327799457"><ele>883.0</ele><time>2026-03-22T09:24:48.998Z</time></trkpt><trkpt lat="42.61602907107992" lon="-2.47968780283373"><ele>883.0</ele><time>2026-03-22T09:24:49.998Z</time></trkpt><trkpt lat="42.616162371335264" lon="-2.4798139380285296"><ele>879.0</ele><time>2026-03-22T09:24:50.998Z</time></trkpt><trkpt lat="42.61629949232377" lon="-2.479951463108653"><ele>875.0</ele><time>2026-03-22T09:24:51.998Z</time></trkpt><trkpt lat="42.616446983745035" lon="-2.480099389263504"><ele>871.0</ele><time>2026-03-22T09:24:52.998Z</time></trkpt><trkpt lat="42.61659830192444" lon="-2.4802526468475956"><ele>871.0</ele><time>2026-03-22T09:24:53.998Z</time></trkpt><trkpt lat="42.61674769131729" lon="-2.4804228407555233"><ele>871.0</ele><time>2026-03-22T09:24:55Z</time></trkpt><trkpt lat="42.616902739293394" lon="-2.480582779962042"><ele>871.0</ele><time>2026-03-22T09:24:56Z</time></trkpt><trkpt lat="42.617067619042054" lon="-2.4807190549490996"><ele>869.0</ele><time>2026-03-22T09:24:57Z</time></trkpt><trkpt lat="42.61721054491573" lon="-2.4808844297960673"><ele>867.0</ele><time>2026-03-22T09:24:58Z</time></trkpt><trkpt lat="42.617355223517094" lon="-2.481031895936591"><ele>865.0</ele><time>2026-03-22T09:24:59Z</time></trkpt><trkpt lat="42.61750602186787" lon="-2.4811544266812864"><ele>861.3333333333333</ele><time>2026-03-22T09:25:00Z</time></trkpt><trkpt lat="42.617642712243715" lon="-2.4812901720648783"><ele>857.6666666666667</ele><time>2026-03-22T09:25:01Z</time></trkpt><trkpt lat="42.61777031519739" lon="-2.4814385394702567"><ele>854.0</ele><time>2026-03-22T09:25:02Z</time></trkpt><trkpt lat="42.61788582593085" lon="-2.4815998131710693"><ele>854.0</ele><time>2026-03-22T09:25:03Z</time></trkpt><trkpt lat="42.618000025364495" lon="-2.4817770114796236"><ele>854.0</ele><time>2026-03-22T09:25:04Z</time></trkpt><trkpt lat="42.618113486202354" lon="-2.4819437288528503"><ele>854.0</ele><time>2026-03-22T09:25:05Z</time></trkpt><trkpt lat="42.618229953128235" lon="-2.4820861202728723"><ele>851.75</ele><time>2026-03-22T09:25:06Z</time></trkpt><trkpt lat="42.61835371053993" lon="-2.4821992404254294"><ele>849.5</ele><time>2026-03-22T09:25:07Z</time></trkpt><trkpt lat="42.61848892452614" lon="-2.482248880084773"><ele>847.25</ele><time>2026-03-22T09:25:08Z</time></trkpt><trkpt lat="42.61861386544786" lon="-2.482265002814742"><ele>845.0</ele><time>2026-03-22T09:25:09Z</time></trkpt><trkpt lat="42.618728488918855" lon="-2.4823118589374484"><ele>845.0</ele><time>2026-03-22T09:25:10Z</time></trkpt><trkpt lat="42.61884420365887" lon="-2.4823868723847258"><ele>845.0</ele><time>2026-03-22T09:25:11Z</time></trkpt><trkpt lat="42.61895290268024" lon="-2.482521096325353"><ele>845.0</ele><time>2026-03-22T09:25:12Z</time></trkpt><trkpt lat="42.619054675144184" lon="-2.4826835824861235"><ele>845.0</ele><time>2026-03-22T09:25:13Z</time></trkpt><trkpt lat="42.619158469211044" lon="-2.4828596520721113"><ele>846.5</ele><time>2026-03-22T09:25:14Z</time></trkpt><trkpt lat="42.619257639775796" lon="-2.483029519365434"><ele>848.0</ele><time>2026-03-22T09:25:15Z</time></trkpt><trkpt lat="42.619349436901174" lon="-2.4831840320365957"><ele>849.5</ele><time>2026-03-22T09:25:16Z</time></trkpt><trkpt lat="42.61944730090431" lon="-2.4833037662808732"><ele>851.0</ele><time>2026-03-22T09:25:17Z</time></trkpt><trkpt lat="42.6195618976912" lon="-2.4833800394136185"><ele>848.5999999999999</ele><time>2026-03-22T09:25:18Z</time></trkpt><trkpt lat="42.619683675048186" lon="-2.4833950080255636"><ele>846.2</ele><time>2026-03-22T09:25:19Z</time></trkpt><trkpt lat="42.619791473187135" lon="-2.4833888789745213"><ele>843.8</ele><time>2026-03-22T09:25:20Z</time></trkpt><trkpt lat="42.61989618397283" lon="-2.4833958300760783"><ele>841.4000000000001</ele><time>2026-03-22T09:25:21Z</time></trkpt><trkpt lat="42.61999428770705" lon="-2.483447207828701"><ele>839.0</ele><time>2026-03-22T09:25:22Z</time></trkpt><trkpt lat="42.62009236877605" lon="-2.483571779478764"><ele>839.0</ele><time>2026-03-22T09:25:23Z</time></trkpt><trkpt lat="42.62018959531406" lon="-2.4837175796492033"><ele>839.0</ele><time>2026-03-22T09:25:24Z</time></trkpt><trkpt lat="42.62029945162138" lon="-2.483874822055115"><ele>839.0</ele><time>2026-03-22T09:25:25Z</time></trkpt><trkpt lat="42.620423134356955" lon="-2.4840109185077703"><ele>837.0</ele><time>2026-03-22T09:25:26Z</time></trkpt><trkpt lat="42.62055601792397" lon="-2.484125221441606"><ele>835.0</ele><time>2026-03-22T09:25:27Z</time></trkpt><trkpt lat="42.62068627963649" lon="-2.4842476055697307"><ele>833.0</ele><time>2026-03-22T09:25:28Z</time></trkpt><trkpt lat="42.62079055126156" lon="-2.4844201565026562"><ele>836.0</ele><time>2026-03-22T09:25:29Z</time></trkpt><trkpt lat="42.62087970375768" lon="-2.484608162785937"><ele>839.0</ele><time>2026-03-22T09:25:30Z</time></trkpt><trkpt lat="42.62097546181816" lon="-2.4847614307746424"><ele>842.0</ele><time>2026-03-22T09:25:31Z</time></trkpt><trkpt lat="42.621077215656825" lon="-2.484892970707266"><ele>838.6</ele><time>2026-03-22T09:25:32Z</time></trkpt><trkpt lat="42.62117017196633" lon="-2.485007943161286"><ele>835.2</ele><time>2026-03-22T09:25:33Z</time></trkpt><trkpt lat="42.62124803409723" lon="-2.485112561684612"><ele>831.8</ele><time>2026-03-22T09:25:34Z</time></trkpt><trkpt lat="42.62131067672249" lon="-2.4852254988097724"><ele>828.4</ele><time>2026-03-22T09:25:35Z</time></trkpt><trkpt lat="42.62134299836033" lon="-2.48536321518057"><ele>825.0</ele><time>2026-03-22T09:25:36Z</time></trkpt><trkpt lat="42.62133948944246" lon="-2.485511493207364"><ele>825.0</ele><time>2026-03-22T09:25:37Z</time></trkpt><trkpt lat="42.621346093673104" lon="-2.4856400836400567"><ele>825.0</ele><time>2026-03-22T09:25:37.999Z</time></trkpt><trkpt lat="42.62138316598854" lon="-2.4857512816400305"><ele>825.0</ele><time>2026-03-22T09:25:38.999Z</time></trkpt><trkpt lat="42.62145900925481" lon="-2.485843565955861"><ele>825.0</ele><time>2026-03-22T09:25:39.999Z</time></trkpt><trkpt lat="42.621566110946056" lon="-2.485924065027423"><ele>825.0</ele><time>2026-03-22T09:25:40.999Z</time></trkpt><trkpt lat="42.621696628940335" lon="-2.485988382015725"><ele>825.0</ele><time>2026-03-22T09:25:41.999Z</time></trkpt><trkpt lat="42.62183449840037" lon="-2.486053852012027"><ele>825.0</ele><time>2026-03-22T09:25:42.999Z</time></trkpt><trkpt lat="42.62197761540617" lon="-2.4860962095438373"><ele>825.0</ele><time>2026-03-22T09:25:43.999Z</time></trkpt><trkpt lat="42.622114016729576" lon="-2.486141467204846"><ele>825.0</ele><time>2026-03-22T09:25:44.999Z</time></trkpt><trkpt lat="42.62224372543061" lon="-2.486249050481099"><ele>821.3333333333333</ele><time>2026-03-22T09:25:45.999Z</time></trkpt><trkpt lat="42.62236620343115" lon="-2.486402655038661"><ele>817.6666666666666</ele><time>2026-03-22T09:25:46.999Z</time></trkpt><trkpt lat="42.62248975881768" lon="-2.4865658032317266"><ele>814.0</ele><time>2026-03-22T09:25:47.999Z</time></trkpt><trkpt lat="42.622623431259115" lon="-2.486741887629148"><ele>814.0</ele><time>2026-03-22T09:25:48.999Z</time></trkpt><trkpt lat="42.622762208470554" lon="-2.4869230131247493"><ele>814.0</ele><time>2026-03-22T09:25:49.999Z</time></trkpt><trkpt lat="42.62289106480067" lon="-2.4871299248850423"><ele>814.0</ele><time>2026-03-22T09:25:50.999Z</time></trkpt><trkpt lat="42.62301213495103" lon="-2.48734881637856"><ele>808.0</ele><time>2026-03-22T09:25:51.999Z</time></trkpt><trkpt lat="42.623122089521885" lon="-2.487555048882117"><ele>802.0</ele><time>2026-03-22T09:25:52.999Z</time></trkpt><trkpt lat="42.62320207590872" lon="-2.4877426884365064"><ele>796.0</ele><time>2026-03-22T09:25:53.999Z</time></trkpt><trkpt lat="42.6232848521641" lon="-2.4878866528510803"><ele>796.8</ele><time>2026-03-22T09:25:54.999Z</time></trkpt><trkpt lat="42.62334089861599" lon="-2.4880160546539507"><ele>797.5999999999999</ele><time>2026-03-22T09:25:55.999Z</time></trkpt><trkpt lat="42.62339964946089" lon="-2.4881340522989057"><ele>798.4</ele><time>2026-03-22T09:25:56.999Z</time></trkpt><trkpt lat="42.623401251777345" lon="-2.4882741464650926"><ele>799.2</ele><time>2026-03-22T09:25:57.999Z</time></trkpt><trkpt lat="42.62336741407749" lon="-2.488389969169934"><ele>800.0</ele><time>2026-03-22T09:25:58.999Z</time></trkpt><trkpt lat="42.62330982305829" lon="-2.4885022609793537"><ele>800.0</ele><time>2026-03-22T09:25:59.999Z</time></trkpt><trkpt lat="42.62318321480501" lon="-2.4885595745053397"><ele>800.0</ele><time>2026-03-22T09:26:00.999Z</time></trkpt><trkpt lat="42.623065357114335" lon="-2.48863219578667"><ele>800.0</ele><time>2026-03-22T09:26:01.999Z</time></trkpt><trkpt lat="42.62296309682518" lon="-2.4887158890131893"><ele>800.0</ele><time>2026-03-22T09:26:02.999Z</time></trkpt><trkpt lat="42.6228787436715" lon="-2.4887901146048863"><ele>799.0</ele><time>2026-03-22T09:26:03.999Z</time></trkpt><trkpt lat="42.622818145950056" lon="-2.488891395198864"><ele>798.0</ele><time>2026-03-22T09:26:04.999Z</time></trkpt><trkpt lat="42.62280458547592" lon="-2.4890081380141433"><ele>797.0</ele><time>2026-03-22T09:26:05.999Z</time></trkpt><trkpt lat="42.6228124491133" lon="-2.4891243883917715"><ele>796.0</ele><time>2026-03-22T09:26:06.999Z</time></trkpt><trkpt lat="42.6228527828208" lon="-2.4892327125492635"><ele>795.0</ele><time>2026-03-22T09:26:07.999Z</time></trkpt><trkpt lat="42.62292341586269" lon="-2.489331995144289"><ele>795.0</ele><time>2026-03-22T09:26:08.999Z</time></trkpt><trkpt lat="42.623017298355386" lon="-2.489428358030929"><ele>795.0</ele><time>2026-03-22T09:26:09.999Z</time></trkpt><trkpt lat="42.62313173701756" lon="-2.4894810809023458"><ele>795.0</ele><time>2026-03-22T09:26:10.999Z</time></trkpt><trkpt lat="42.6232669561437" lon="-2.489498965430353"><ele>795.0</ele><time>2026-03-22T09:26:11.999Z</time></trkpt><trkpt lat="42.62341791705399" lon="-2.489537671099038"><ele>795.0</ele><time>2026-03-22T09:26:12.999Z</time></trkpt><trkpt lat="42.62356222850667" lon="-2.489543307174538"><ele>795.0</ele><time>2026-03-22T09:26:13.999Z</time></trkpt><trkpt lat="42.62369556221865" lon="-2.4895980191795446"><ele>795.0</ele><time>2026-03-22T09:26:14.999Z</time></trkpt><trkpt lat="42.62380714253639" lon="-2.4896960590473665"><ele>795.0</ele><time>2026-03-22T09:26:15.999Z</time></trkpt><trkpt lat="42.623912102461524" lon="-2.4898186637799755"><ele>789.75</ele><time>2026-03-22T09:26:16.999Z</time></trkpt><trkpt lat="42.624024478265454" lon="-2.4899567843303267"><ele>784.5</ele><time>2026-03-22T09:26:17.999Z</time></trkpt><trkpt lat="42.62413105740045" lon="-2.4900897601962413"><ele>779.25</ele><time>2026-03-22T09:26:18.999Z</time></trkpt><trkpt lat="42.6242370850066" lon="-2.490232217728956"><ele>774.0</ele><time>2026-03-22T09:26:19.999Z</time></trkpt><trkpt lat="42.624333703689764" lon="-2.4903929126516653"><ele>771.6666666666666</ele><time>2026-03-22T09:26:20.999Z</time></trkpt><trkpt lat="42.62441261655597" lon="-2.490587497496492"><ele>769.3333333333333</ele><time>2026-03-22T09:26:21.999Z</time></trkpt><trkpt lat="42.62446653518577" lon="-2.4907875177340424"><ele>767.0</ele><time>2026-03-22T09:26:22.999Z</time></trkpt><trkpt lat="42.62451335420328" lon="-2.4909712222423397"><ele>767.0</ele><time>2026-03-22T09:26:23.999Z</time></trkpt><trkpt lat="42.62455369976411" lon="-2.491139473990619"><ele>767.0</ele><time>2026-03-22T09:26:24.999Z</time></trkpt><trkpt lat="42.62458235852239" lon="-2.4912801667714386"><ele>767.0</ele><time>2026-03-22T09:26:25.999Z</time></trkpt><trkpt lat="42.62458410547443" lon="-2.4914243510486287"><ele>767.0</ele><time>2026-03-22T09:26:26.999Z</time></trkpt><trkpt lat="42.62455367250926" lon="-2.491576612825637"><ele>766.8</ele><time>2026-03-22T09:26:27.999Z</time></trkpt><trkpt lat="42.62448648109686" lon="-2.491709237228139"><ele>766.6</ele><time>2026-03-22T09:26:28.999Z</time></trkpt><trkpt lat="42.624377253114126" lon="-2.491807597251495"><ele>766.4</ele><time>2026-03-22T09:26:29.999Z</time></trkpt><trkpt lat="42.62429260968861" lon="-2.491902221500018"><ele>766.1999999999999</ele><time>2026-03-22T09:26:30.999Z</time></trkpt><trkpt lat="42.62423457319931" lon="-2.4919872821394886"><ele>766.0</ele><time>2026-03-22T09:26:31.999Z</time></trkpt><trkpt lat="42.62421700930059" lon="-2.492073907345539"><ele>766.8333333333334</ele><time>2026-03-22T09:26:32.999Z</time></trkpt><trkpt lat="42.62421243966475" lon="-2.4921797533225254"><ele>767.6666666666667</ele><time>2026-03-22T09:26:33.999Z</time></trkpt><trkpt lat="42.62423937580218" lon="-2.4922881659010643"><ele>768.5</ele><time>2026-03-22T09:26:34.998Z</time></trkpt><trkpt lat="42.62430244125596" lon="-2.492393356790151"><ele>769.3333333333334</ele><time>2026-03-22T09:26:35.998Z</time></trkpt><trkpt lat="42.624346615922285" lon="-2.4924753482532265"><ele>770.1666666666666</ele><time>2026-03-22T09:26:36.998Z</time></trkpt><trkpt lat="42.624392554957076" lon="-2.4925964997396766"><ele>771.0</ele><time>2026-03-22T09:26:37.998Z</time></trkpt><trkpt lat="42.62441949226001" lon="-2.492759997424281"><ele>770.75</ele><time>2026-03-22T09:26:38.998Z</time></trkpt><trkpt lat="42.624422669214574" lon="-2.4929474639357676"><ele>770.5</ele><time>2026-03-22T09:26:39.998Z</time></trkpt><trkpt lat="42.624447071638905" lon="-2.4931436000388465"><ele>770.25</ele><time>2026-03-22T09:26:40.998Z</time></trkpt><trkpt lat="42.62451095601417" lon="-2.493331872655312"><ele>770.0</ele><time>2026-03-22T09:26:41.998Z</time></trkpt><trkpt lat="42.62458872225707" lon="-2.493513256787749"><ele>764.6666666666667</ele><time>2026-03-22T09:26:42.998Z</time></trkpt><trkpt lat="42.62465987931472" lon="-2.493711645929277"><ele>759.3333333333334</ele><time>2026-03-22T09:26:43.998Z</time></trkpt><trkpt lat="42.62472584386498" lon="-2.4939058333330677"><ele>754.0</ele><time>2026-03-22T09:26:44.998Z</time></trkpt><trkpt lat="42.62480516868795" lon="-2.4940828020808232"><ele>754.0</ele><time>2026-03-22T09:26:45.998Z</time></trkpt><trkpt lat="42.62490351228232" lon="-2.4942409892527966"><ele>754.0</ele><time>2026-03-22T09:26:46.998Z</time></trkpt><trkpt lat="42.62501507366928" lon="-2.4943743209509592"><ele>754.0</ele><time>2026-03-22T09:26:47.998Z</time></trkpt><trkpt lat="42.62513202112398" lon="-2.4944928794027024"><ele>754.0</ele><time>2026-03-22T09:26:48.998Z</time></trkpt><trkpt lat="42.625252156446344" lon="-2.4946169606843442"><ele>751.3333333333334</ele><time>2026-03-22T09:26:49.998Z</time></trkpt><trkpt lat="42.625359134800455" lon="-2.494754971952435"><ele>748.6666666666666</ele><time>2026-03-22T09:26:50.998Z</time></trkpt><trkpt lat="42.62546642749723" lon="-2.494900192884238"><ele>746.0</ele><time>2026-03-22T09:26:51.998Z</time></trkpt><trkpt lat="42.62554598283372" lon="-2.495084719055338"><ele>746.0</ele><time>2026-03-22T09:26:52.998Z</time></trkpt><trkpt lat="42.62559981233007" lon="-2.4952855917291683"><ele>746.0</ele><time>2026-03-22T09:26:53.998Z</time></trkpt><trkpt lat="42.62566969987235" lon="-2.4954755706015863"><ele>746.0</ele><time>2026-03-22T09:26:54.998Z</time></trkpt><trkpt lat="42.62574127600635" lon="-2.4956479791566712"><ele>746.1999999999999</ele><time>2026-03-22T09:26:55.998Z</time></trkpt><trkpt lat="42.62582571442016" lon="-2.4957877343313135"><ele>746.4</ele><time>2026-03-22T09:26:56.998Z</time></trkpt><trkpt lat="42.62591869753006" lon="-2.495898300177595"><ele>746.6</ele><time>2026-03-22T09:26:57.998Z</time></trkpt><trkpt lat="42.626006513318345" lon="-2.4959673598186596"><ele>746.8</ele><time>2026-03-22T09:26:58.998Z</time></trkpt><trkpt lat="42.62608745522783" lon="-2.495986265272663"><ele>747.0</ele><time>2026-03-22T09:26:59.998Z</time></trkpt><trkpt lat="42.626168315838896" lon="-2.495962138378592"><ele>743.0</ele><time>2026-03-22T09:27:01Z</time></trkpt><trkpt lat="42.62626038641343" lon="-2.4958927163317344"><ele>739.0</ele><time>2026-03-22T09:27:02Z</time></trkpt><trkpt lat="42.62635897805751" lon="-2.495774087480367"><ele>735.0</ele><time>2026-03-22T09:27:03Z</time></trkpt><trkpt lat="42.626455562455426" lon="-2.4956549306754385"><ele>731.0</ele><time>2026-03-22T09:27:04Z</time></trkpt><trkpt lat="42.626527296490686" lon="-2.4955289029926444"><ele>730.1999999999999</ele><time>2026-03-22T09:27:05Z</time></trkpt><trkpt lat="42.626564929210886" lon="-2.495395756398398"><ele>729.4</ele><time>2026-03-22T09:27:06Z</time></trkpt><trkpt lat="42.62656408783549" lon="-2.4952740108714253"><ele>728.6</ele><time>2026-03-22T09:27:07Z</time></trkpt><trkpt lat="42.62650883542324" lon="-2.4951984184924894"><ele>727.8</ele><time>2026-03-22T09:27:08Z</time></trkpt><trkpt lat="42.62645534659947" lon="-2.49509179220974"><ele>727.0</ele><time>2026-03-22T09:27:09Z</time></trkpt><trkpt lat="42.626370370891095" lon="-2.494982193231359"><ele>727.0</ele><time>2026-03-22T09:27:10Z</time></trkpt><trkpt lat="42.62627604268253" lon="-2.4948520947410677"><ele>727.0</ele><time>2026-03-22T09:27:11Z</time></trkpt><trkpt lat="42.62618391419181" lon="-2.494709862151513"><ele>727.0</ele><time>2026-03-22T09:27:12Z</time></trkpt><trkpt lat="42.626108873008164" lon="-2.494557014899279"><ele>727.0</ele><time>2026-03-22T09:27:13Z</time></trkpt><trkpt lat="42.62605064323195" lon="-2.494400126334145"><ele>729.0</ele><time>2026-03-22T09:27:14Z</time></trkpt><trkpt lat="42.62598937744216" lon="-2.494248733231108"><ele>731.0</ele><time>2026-03-22T09:27:15Z</time></trkpt><trkpt lat="42.62593619051076" lon="-2.494105830146152"><ele>733.0</ele><time>2026-03-22T09:27:16Z</time></trkpt><trkpt lat="42.62590270647026" lon="-2.49396874135326"><ele>735.0</ele><time>2026-03-22T09:27:17Z</time></trkpt><trkpt lat="42.6258649943375" lon="-2.4938582206840336"><ele>737.0</ele><time>2026-03-22T09:27:18Z</time></trkpt><trkpt lat="42.62584407129914" lon="-2.4937619027243283"><ele>737.0</ele><time>2026-03-22T09:27:19Z</time></trkpt><trkpt lat="42.625855059593334" lon="-2.4936267417663323"><ele>737.0</ele><time>2026-03-22T09:27:21Z</time></trkpt><trkpt lat="42.62587258779286" lon="-2.4935228292064027"><ele>737.0</ele><time>2026-03-22T09:27:23Z</time></trkpt><trkpt lat="42.62592095061385" lon="-2.4934637610022357"><ele>737.0</ele><time>2026-03-22T09:29:09Z</time></trkpt><trkpt lat="42.62598899463994" lon="-2.493411739157308"><ele>737.0</ele><time>2026-03-22T09:29:14Z</time></trkpt><trkpt lat="42.62609061556641" lon="-2.49347716724322"><ele>737.0</ele><time>2026-03-22T09:29:16Z</time></trkpt><trkpt lat="42.62616744947998" lon="-2.4934945819270906"><ele>736.6</ele><time>2026-03-22T09:29:17Z</time></trkpt><trkpt lat="42.6262586031489" lon="-2.4935280356208684"><ele>736.2</ele><time>2026-03-22T09:29:18Z</time></trkpt><trkpt lat="42.626357141317584" lon="-2.4935898140025237"><ele>735.8</ele><time>2026-03-22T09:29:19Z</time></trkpt><trkpt lat="42.62645319059497" lon="-2.4936605907307436"><ele>735.4</ele><time>2026-03-22T09:29:20Z</time></trkpt><trkpt lat="42.626552809506634" lon="-2.493732043389634"><ele>735.0</ele><time>2026-03-22T09:29:21Z</time></trkpt><trkpt lat="42.62664728682948" lon="-2.4938106435976914"><ele>732.4</ele><time>2026-03-22T09:29:22Z</time></trkpt><trkpt lat="42.62674021759093" lon="-2.4938873762132316"><ele>729.8</ele><time>2026-03-22T09:29:23Z</time></trkpt><trkpt lat="42.6268219030188" lon="-2.4939829157251534"><ele>727.2</ele><time>2026-03-22T09:29:24Z</time></trkpt><trkpt lat="42.62689605758649" lon="-2.4940909088602163"><ele>724.6</ele><time>2026-03-22T09:29:25Z</time></trkpt><trkpt lat="42.62697109587458" lon="-2.4941890853714273"><ele>722.0</ele><time>2026-03-22T09:29:26Z</time></trkpt><trkpt lat="42.62704329319941" lon="-2.4942866574802074"><ele>721.0</ele><time>2026-03-22T09:29:27Z</time></trkpt><trkpt lat="42.6271230103871" lon="-2.4943659868318218"><ele>720.0</ele><time>2026-03-22T09:29:28Z</time></trkpt><trkpt lat="42.62721125599856" lon="-2.4944221491490253"><ele>719.0</ele><time>2026-03-22T09:29:29Z</time></trkpt><trkpt lat="42.62730298228389" lon="-2.494446068340696"><ele>718.0</ele><time>2026-03-22T09:29:30Z</time></trkpt><trkpt lat="42.62739136554056" lon="-2.4944360317477523"><ele>717.0</ele><time>2026-03-22T09:29:31Z</time></trkpt><trkpt lat="42.627473886502045" lon="-2.494398130275684"><ele>717.0</ele><time>2026-03-22T09:29:32Z</time></trkpt><trkpt lat="42.62754416896264" lon="-2.494337775038344"><ele>717.0</ele><time>2026-03-22T09:29:33Z</time></trkpt><trkpt lat="42.627615332176276" lon="-2.4942659599470454"><ele>717.0</ele><time>2026-03-22T09:29:34Z</time></trkpt><trkpt lat="42.627689019772326" lon="-2.494186547558571"><ele>717.0</ele><time>2026-03-22T09:29:35Z</time></trkpt><trkpt lat="42.62774421055501" lon="-2.4941134499019917"><ele>717.0</ele><time>2026-03-22T09:29:37Z</time></trkpt><trkpt lat="42.627793296294236" lon="-2.4940426231924144"><ele>717.0</ele><time>2026-03-22T09:29:40Z</time></trkpt><trkpt lat="42.62785045906967" lon="-2.493929545000765"><ele>714.6666666666666</ele><time>2026-03-22T09:29:42Z</time></trkpt><trkpt lat="42.62787485769198" lon="-2.4938455057773017"><ele>712.3333333333334</ele><time>2026-03-22T09:29:43Z</time></trkpt><trkpt lat="42.62789334487749" lon="-2.49374733222761"><ele>710.0</ele><time>2026-03-22T09:29:44Z</time></trkpt><trkpt lat="42.62790140324918" lon="-2.493630177897588"><ele>707.6666666666667</ele><time>2026-03-22T09:29:45Z</time></trkpt><trkpt lat="42.62791487563377" lon="-2.493498649532832"><ele>705.3333333333334</ele><time>2026-03-22T09:29:46Z</time></trkpt><trkpt lat="42.6279402560494" lon="-2.493377830590042"><ele>703.0</ele><time>2026-03-22T09:29:47Z</time></trkpt><trkpt lat="42.62797801350958" lon="-2.493282530214322"><ele>703.0</ele><time>2026-03-22T09:29:48Z</time></trkpt><trkpt lat="42.628033526667096" lon="-2.493206277418609"><ele>703.0</ele><time>2026-03-22T09:29:49Z</time></trkpt><trkpt lat="42.62809921190713" lon="-2.493155614979499"><ele>703.0</ele><time>2026-03-22T09:29:49.999Z</time></trkpt><trkpt lat="42.628176268300265" lon="-2.493138300456688"><ele>703.0</ele><time>2026-03-22T09:29:50.999Z</time></trkpt><trkpt lat="42.62825395183317" lon="-2.493155518359141"><ele>703.0</ele><time>2026-03-22T09:29:51.999Z</time></trkpt><trkpt lat="42.62832007740463" lon="-2.4932174832546297"><ele>703.0</ele><time>2026-03-22T09:29:52.999Z</time></trkpt><trkpt lat="42.62836696056451" lon="-2.4933060973662027"><ele>703.0</ele><time>2026-03-22T09:29:53.999Z</time></trkpt><trkpt lat="42.628394592854725" lon="-2.4934103208205083"><ele>703.0</ele><time>2026-03-22T09:29:54.999Z</time></trkpt><trkpt lat="42.62839238970987" lon="-2.49352528498405"><ele>703.0</ele><time>2026-03-22T09:29:55.999Z</time></trkpt><trkpt lat="42.62838448136312" lon="-2.4936413398012367"><ele>703.0</ele><time>2026-03-22T09:29:56.999Z</time></trkpt><trkpt lat="42.62835309987965" lon="-2.4937528564287597"><ele>703.0</ele><time>2026-03-22T09:29:57.999Z</time></trkpt><trkpt lat="42.628323765815324" lon="-2.493840090734385"><ele>703.0</ele><time>2026-03-22T09:29:58.999Z</time></trkpt><trkpt lat="42.62829533224783" lon="-2.4939239006772294"><ele>702.3333333333334</ele><time>2026-03-22T09:29:59.999Z</time></trkpt><trkpt lat="42.62826673138096" lon="-2.494005548382045"><ele>701.6666666666667</ele><time>2026-03-22T09:30:00.999Z</time></trkpt><trkpt lat="42.62822453685284" lon="-2.494081964059832"><ele>701.0</ele><time>2026-03-22T09:30:02.999Z</time></trkpt><trkpt lat="42.628303003849595" lon="-2.494104074549878"><ele>700.3333333333334</ele><time>2026-03-22T09:30:06.999Z</time></trkpt><trkpt lat="42.628359447997695" lon="-2.493967106105942"><ele>699.6666666666666</ele><time>2026-03-22T09:30:08.999Z</time></trkpt><trkpt lat="42.628386150062106" lon="-2.4938840793943804"><ele>699.0</ele><time>2026-03-22T09:30:09.999Z</time></trkpt><trkpt lat="42.62842216458404" lon="-2.4938045771298554"><ele>700.0</ele><time>2026-03-22T09:30:10.999Z</time></trkpt><trkpt lat="42.62848975678187" lon="-2.4937007367264883"><ele>701.0</ele><time>2026-03-22T09:30:12.999Z</time></trkpt><trkpt lat="42.628725280691654" lon="-2.493819238781859"><ele>702.0</ele><time>2026-03-22T09:30:18.999Z</time></trkpt><trkpt lat="42.62880372506705" lon="-2.493867624447258"><ele>703.0</ele><time>2026-03-22T09:30:19.999Z</time></trkpt><trkpt lat="42.62887994459697" lon="-2.49392272623609"><ele>701.2</ele><time>2026-03-22T09:30:20.999Z</time></trkpt><trkpt lat="42.628963142314696" lon="-2.493987601596283"><ele>699.4</ele><time>2026-03-22T09:30:21.999Z</time></trkpt><trkpt lat="42.62905830282446" lon="-2.4940629315038656"><ele>697.6</ele><time>2026-03-22T09:30:22.999Z</time></trkpt><trkpt lat="42.62915510334293" lon="-2.4941352936960945"><ele>695.8000000000001</ele><time>2026-03-22T09:30:23.999Z</time></trkpt><trkpt lat="42.629253032852034" lon="-2.4942050928426167"><ele>694.0</ele><time>2026-03-22T09:30:24.999Z</time></trkpt><trkpt lat="42.62935517136701" lon="-2.4942638404850905"><ele>694.0</ele><time>2026-03-22T09:30:25.999Z</time></trkpt><trkpt lat="42.62946233746325" lon="-2.4943028498128106"><ele>694.0</ele><time>2026-03-22T09:30:26.999Z</time></trkpt><trkpt lat="42.62956973795352" lon="-2.494328525675976"><ele>694.0</ele><time>2026-03-22T09:30:27.999Z</time></trkpt><trkpt lat="42.629672547828164" lon="-2.494352079717328"><ele>694.0</ele><time>2026-03-22T09:30:28.999Z</time></trkpt><trkpt lat="42.62977148769949" lon="-2.494394744351094"><ele>694.0</ele><time>2026-03-22T09:30:29.999Z</time></trkpt><trkpt lat="42.629862052231736" lon="-2.494454293041447"><ele>692.0</ele><time>2026-03-22T09:30:30.999Z</time></trkpt><trkpt lat="42.62994871484909" lon="-2.4945213077944204"><ele>690.0</ele><time>2026-03-22T09:30:31.999Z</time></trkpt><trkpt lat="42.63003726297035" lon="-2.494585314815119"><ele>688.0</ele><time>2026-03-22T09:30:32.999Z</time></trkpt><trkpt lat="42.63012861664598" lon="-2.4946521331624067"><ele>686.0</ele><time>2026-03-22T09:30:33.999Z</time></trkpt><trkpt lat="42.630218546302565" lon="-2.494720621981607"><ele>684.0</ele><time>2026-03-22T09:30:34.999Z</time></trkpt><trkpt lat="42.630312982158635" lon="-2.4947760400028653"><ele>681.75</ele><time>2026-03-22T09:30:35.999Z</time></trkpt><trkpt lat="42.63041213961749" lon="-2.4948364977336874"><ele>679.5</ele><time>2026-03-22T09:30:36.999Z</time></trkpt><trkpt lat="42.63051532025994" lon="-2.494902688934313"><ele>677.25</ele><time>2026-03-22T09:30:37.999Z</time></trkpt><trkpt lat="42.630623872097196" lon="-2.494974888816425"><ele>675.0</ele><time>2026-03-22T09:30:38.999Z</time></trkpt><trkpt lat="42.63073843255623" lon="-2.4950502462227795"><ele>675.0</ele><time>2026-03-22T09:30:39.999Z</time></trkpt><trkpt lat="42.630856811903676" lon="-2.495129047116786"><ele>675.0</ele><time>2026-03-22T09:30:40.999Z</time></trkpt><trkpt lat="42.63097382825496" lon="-2.495207277358908"><ele>675.0</ele><time>2026-03-22T09:30:41.999Z</time></trkpt><trkpt lat="42.631095199674" lon="-2.4952858162974856"><ele>675.0</ele><time>2026-03-22T09:30:42.999Z</time></trkpt><trkpt lat="42.631215119576694" lon="-2.495368724420835"><ele>674.5</ele><time>2026-03-22T09:30:43.999Z</time></trkpt><trkpt lat="42.63133501034987" lon="-2.4954498965807557"><ele>674.0</ele><time>2026-03-22T09:30:44.999Z</time></trkpt><trkpt lat="42.63145375134166" lon="-2.495529839876093"><ele>673.5</ele><time>2026-03-22T09:30:45.998Z</time></trkpt><trkpt lat="42.631575922888395" lon="-2.495598253453279"><ele>673.0</ele><time>2026-03-22T09:30:46.998Z</time></trkpt><trkpt lat="42.63169821364099" lon="-2.4956525973820716"><ele>673.0</ele><time>2026-03-22T09:30:47.998Z</time></trkpt><trkpt lat="42.63182429640262" lon="-2.4957067134513187"><ele>673.0</ele><time>2026-03-22T09:30:48.998Z</time></trkpt><trkpt lat="42.63195084394342" lon="-2.4957489227651886"><ele>673.0</ele><time>2026-03-22T09:30:49.998Z</time></trkpt><trkpt lat="42.63208244266582" lon="-2.495778644135034"><ele>673.0</ele><time>2026-03-22T09:30:50.998Z</time></trkpt><trkpt lat="42.63222343035491" lon="-2.4958045657743724"><ele>672.3333333333334</ele><time>2026-03-22T09:30:51.998Z</time></trkpt><trkpt lat="42.63236693935542" lon="-2.4958283869419597"><ele>671.6666666666666</ele><time>2026-03-22T09:30:52.998Z</time></trkpt><trkpt lat="42.63251640675088" lon="-2.4958490400834155"><ele>671.0</ele><time>2026-03-22T09:30:53.998Z</time></trkpt><trkpt lat="42.63267130623274" lon="-2.495867726322829"><ele>670.0</ele><time>2026-03-22T09:30:54.998Z</time></trkpt><trkpt lat="42.63282815199171" lon="-2.4958796994432424"><ele>669.0</ele><time>2026-03-22T09:30:55.998Z</time></trkpt><trkpt lat="42.632986502026135" lon="-2.495890246502461"><ele>668.0</ele><time>2026-03-22T09:30:56.998Z</time></trkpt><trkpt lat="42.633138498827165" lon="-2.495906451445825"><ele>668.0</ele><time>2026-03-22T09:30:57.998Z</time></trkpt><trkpt lat="42.633284718731325" lon="-2.4959221134887017"><ele>668.0</ele><time>2026-03-22T09:30:58.998Z</time></trkpt><trkpt lat="42.63342623549355" lon="-2.495933979178884"><ele>668.0</ele><time>2026-03-22T09:30:59.998Z</time></trkpt><trkpt lat="42.633566452044725" lon="-2.4959398665511943"><ele>668.0</ele><time>2026-03-22T09:31:00.998Z</time></trkpt><trkpt lat="42.63370436261204" lon="-2.495938367676195"><ele>667.25</ele><time>2026-03-22T09:31:01.998Z</time></trkpt><trkpt lat="42.633839463904955" lon="-2.4959271804220746"><ele>666.5</ele><time>2026-03-22T09:31:02.998Z</time></trkpt><trkpt lat="42.633978476156585" lon="-2.4959050959891536"><ele>665.75</ele><time>2026-03-22T09:31:03.998Z</time></trkpt><trkpt lat="42.634124752674246" lon="-2.4958768690461186"><ele>665.0</ele><time>2026-03-22T09:31:04.998Z</time></trkpt><trkpt lat="42.63427043830907" lon="-2.4958503895435524"><ele>665.0</ele><time>2026-03-22T09:31:05.998Z</time></trkpt><trkpt lat="42.63441340435998" lon="-2.4958232662989763"><ele>665.0</ele><time>2026-03-22T09:31:06.998Z</time></trkpt><trkpt lat="42.63455838924008" lon="-2.4957931097551995"><ele>665.0</ele><time>2026-03-22T09:31:07.998Z</time></trkpt><trkpt lat="42.63470083500342" lon="-2.4957627538399705"><ele>665.0</ele><time>2026-03-22T09:31:08.998Z</time></trkpt><trkpt lat="42.63484207023497" lon="-2.4957344552667275"><ele>665.0</ele><time>2026-03-22T09:31:09.998Z</time></trkpt><trkpt lat="42.63498209126506" lon="-2.495713906475003"><ele>665.0</ele><time>2026-03-22T09:31:10.998Z</time></trkpt><trkpt lat="42.63511381164572" lon="-2.495698104527792"><ele>665.0</ele><time>2026-03-22T09:31:11.998Z</time></trkpt><trkpt lat="42.635226843975545" lon="-2.495693581996168"><ele>665.0</ele><time>2026-03-22T09:31:13Z</time></trkpt><trkpt lat="42.63531616867081" lon="-2.4957018643648667"><ele>665.0</ele><time>2026-03-22T09:31:14Z</time></trkpt><trkpt lat="42.6353833000072" lon="-2.49572922606349"><ele>665.0</ele><time>2026-03-22T09:31:15Z</time></trkpt><trkpt lat="42.635443320506155" lon="-2.4957720820412597"><ele>665.0</ele><time>2026-03-22T09:31:16Z</time></trkpt><trkpt lat="42.63550917059315" lon="-2.495795652379713"><ele>665.0</ele><time>2026-03-22T09:31:17Z</time></trkpt><trkpt lat="42.63558163980959" lon="-2.4957750262652443"><ele>665.0</ele><time>2026-03-22T09:31:18Z</time></trkpt><trkpt lat="42.635658251791874" lon="-2.4957204000121602"><ele>665.0</ele><time>2026-03-22T09:31:19Z</time></trkpt><trkpt lat="42.635739956000094" lon="-2.4956565565847044"><ele>665.0</ele><time>2026-03-22T09:31:20Z</time></trkpt><trkpt lat="42.635821460295915" lon="-2.495592732364078"><ele>665.0</ele><time>2026-03-22T09:31:21Z</time></trkpt><trkpt lat="42.63590318930264" lon="-2.495549330711905"><ele>665.0</ele><time>2026-03-22T09:31:22Z</time></trkpt><trkpt lat="42.63598043834301" lon="-2.495528644485073"><ele>665.0</ele><time>2026-03-22T09:31:23Z</time></trkpt><trkpt lat="42.636052050262805" lon="-2.495530126878701"><ele>665.0</ele><time>2026-03-22T09:31:24Z</time></trkpt><trkpt lat="42.636116442637594" lon="-2.495553757780782"><ele>665.0</ele><time>2026-03-22T09:31:25Z</time></trkpt><trkpt lat="42.63618404615833" lon="-2.4955894586777787"><ele>665.1666666666666</ele><time>2026-03-22T09:31:26Z</time></trkpt><trkpt lat="42.636261116846526" lon="-2.49563015803455"><ele>665.3333333333333</ele><time>2026-03-22T09:31:27Z</time></trkpt><trkpt lat="42.63635308502185" lon="-2.495673710727021"><ele>665.5</ele><time>2026-03-22T09:31:28Z</time></trkpt><trkpt lat="42.63644433732313" lon="-2.495709361278441"><ele>665.6666666666666</ele><time>2026-03-22T09:31:29Z</time></trkpt><trkpt lat="42.63652436980277" lon="-2.4957382444613216"><ele>665.8333333333334</ele><time>2026-03-22T09:31:30Z</time></trkpt><trkpt lat="42.636598588372316" lon="-2.495765917368287"><ele>666.0</ele><time>2026-03-22T09:31:31Z</time></trkpt><trkpt lat="42.63666885795906" lon="-2.495794927227303"><ele>666.0</ele><time>2026-03-22T09:31:32Z</time></trkpt><trkpt lat="42.63674731428884" lon="-2.4958253273577444"><ele>666.0</ele><time>2026-03-22T09:31:33Z</time></trkpt><trkpt lat="42.63683344032504" lon="-2.4958572830999857"><ele>666.0</ele><time>2026-03-22T09:31:34Z</time></trkpt><trkpt lat="42.63692366225282" lon="-2.4958878269670923"><ele>666.0</ele><time>2026-03-22T09:31:35Z</time></trkpt><trkpt lat="42.63702313541315" lon="-2.4959174449529375"><ele>666.0</ele><time>2026-03-22T09:31:36Z</time></trkpt><trkpt lat="42.637124091641354" lon="-2.495948780673229"><ele>665.8</ele><time>2026-03-22T09:31:37Z</time></trkpt><trkpt lat="42.63722934797957" lon="-2.4959784048954528"><ele>665.5999999999999</ele><time>2026-03-22T09:31:38Z</time></trkpt><trkpt lat="42.63733806437927" lon="-2.4960113350460547"><ele>665.4</ele><time>2026-03-22T09:31:39Z</time></trkpt><trkpt lat="42.637448749144035" lon="-2.496042189580847"><ele>665.2</ele><time>2026-03-22T09:31:40Z</time></trkpt><trkpt lat="42.637556881904686" lon="-2.496064247038597"><ele>665.0</ele><time>2026-03-22T09:31:41Z</time></trkpt><trkpt lat="42.6376469212699" lon="-2.496077031665497"><ele>665.0</ele><time>2026-03-22T09:31:42Z</time></trkpt><trkpt lat="42.637719711331535" lon="-2.49609152123402"><ele>665.0</ele><time>2026-03-22T09:31:43Z</time></trkpt><trkpt lat="42.63778292177335" lon="-2.4961154357707067"><ele>665.0</ele><time>2026-03-22T09:31:44Z</time></trkpt><trkpt lat="42.637846635586335" lon="-2.4961329027834402"><ele>665.0</ele><time>2026-03-22T09:31:46Z</time></trkpt><trkpt lat="42.63772557626279" lon="-2.496120220816803"><ele>665.0</ele><time>2026-03-22T09:32:03.999Z</time></trkpt><trkpt lat="42.63762824880306" lon="-2.4960794731714264"><ele>665.0</ele><time>2026-03-22T09:32:04.999Z</time></trkpt><trkpt lat="42.63751791428541" lon="-2.4960521362920165"><ele>665.0</ele><time>2026-03-22T09:32:05.999Z</time></trkpt><trkpt lat="42.63739701477781" lon="-2.496022725965215"><ele>665.0</ele><time>2026-03-22T09:32:06.999Z</time></trkpt><trkpt lat="42.637280198263596" lon="-2.495989865666386"><ele>665.0</ele><time>2026-03-22T09:32:07.999Z</time></trkpt><trkpt lat="42.63715371665038" lon="-2.4959502921090206"><ele>665.0</ele><time>2026-03-22T09:32:08.999Z</time></trkpt><trkpt lat="42.6370242073178" lon="-2.495909050342244"><ele>665.25</ele><time>2026-03-22T09:32:09.999Z</time></trkpt><trkpt lat="42.63688757951847" lon="-2.495861327216463"><ele>665.5</ele><time>2026-03-22T09:32:10.999Z</time></trkpt><trkpt lat="42.63674494995301" lon="-2.495808759913418"><ele>665.75</ele><time>2026-03-22T09:32:11.999Z</time></trkpt><trkpt lat="42.63660158668852" lon="-2.495756889024735"><ele>666.0</ele><time>2026-03-22T09:32:12.999Z</time></trkpt><trkpt lat="42.636467146246815" lon="-2.495707068703234"><ele>666.0</ele><time>2026-03-22T09:32:13.999Z</time></trkpt><trkpt lat="42.63634766315254" lon="-2.49565815379696"><ele>666.0</ele><time>2026-03-22T09:32:14.999Z</time></trkpt><trkpt lat="42.63624441556199" lon="-2.4956108471896092"><ele>666.0</ele><time>2026-03-22T09:32:15.999Z</time></trkpt><trkpt lat="42.63616664605783" lon="-2.4955757121448716"><ele>666.0</ele><time>2026-03-22T09:32:16.999Z</time></trkpt><trkpt lat="42.636067802747434" lon="-2.4955313040642992"><ele>666.0</ele><time>2026-03-22T09:32:18.999Z</time></trkpt><trkpt lat="42.63602879956283" lon="-2.4954547230818136"><ele>666.0</ele><time>2026-03-22T09:32:20.999Z</time></trkpt><trkpt lat="42.63605682366553" lon="-2.4953368770561366"><ele>666.0</ele><time>2026-03-22T09:32:22.999Z</time></trkpt><trkpt lat="42.63613709307589" lon="-2.49519913218843"><ele>666.0</ele><time>2026-03-22T09:32:24.999Z</time></trkpt><trkpt lat="42.63618707379576" lon="-2.4951015891795896"><ele>666.0</ele><time>2026-03-22T09:32:25.999Z</time></trkpt><trkpt lat="42.636244842405915" lon="-2.4949916950356292"><ele>666.0</ele><time>2026-03-22T09:32:26.999Z</time></trkpt><trkpt lat="42.636307714850524" lon="-2.4948727927852983"><ele>666.0</ele><time>2026-03-22T09:32:27.999Z</time></trkpt><trkpt lat="42.636376499078" lon="-2.4947439932159337"><ele>666.0</ele><time>2026-03-22T09:32:28.999Z</time></trkpt><trkpt lat="42.63645049971414" lon="-2.4946012229325154"><ele>666.0</ele><time>2026-03-22T09:32:29.999Z</time></trkpt><trkpt lat="42.63652993304625" lon="-2.494451261522158"><ele>666.0</ele><time>2026-03-22T09:32:30.999Z</time></trkpt><trkpt lat="42.63661636418413" lon="-2.494290057690998"><ele>665.6666666666666</ele><time>2026-03-22T09:32:31.999Z</time></trkpt><trkpt lat="42.63670472664941" lon="-2.4941263261902553"><ele>665.3333333333333</ele><time>2026-03-22T09:32:32.999Z</time></trkpt><trkpt lat="42.636794047345305" lon="-2.4939579802921967"><ele>665.0</ele><time>2026-03-22T09:32:33.999Z</time></trkpt><trkpt lat="42.636885267503274" lon="-2.4937952251736206"><ele>665.5</ele><time>2026-03-22T09:32:34.999Z</time></trkpt><trkpt lat="42.6369778386149" lon="-2.4936361045869524"><ele>666.0</ele><time>2026-03-22T09:32:35.999Z</time></trkpt><trkpt lat="42.6370708025827" lon="-2.493481617741717"><ele>666.5</ele><time>2026-03-22T09:32:36.999Z</time></trkpt><trkpt lat="42.637157654897855" lon="-2.4933289798057783"><ele>667.0</ele><time>2026-03-22T09:32:37.999Z</time></trkpt><trkpt lat="42.63723644239506" lon="-2.493176409901524"><ele>667.0</ele><time>2026-03-22T09:32:38.999Z</time></trkpt><trkpt lat="42.63731839781288" lon="-2.493032935390342"><ele>667.0</ele><time>2026-03-22T09:32:39.999Z</time></trkpt><trkpt lat="42.63740411993538" lon="-2.492901472662701"><ele>667.0</ele><time>2026-03-22T09:32:40.999Z</time></trkpt><trkpt lat="42.63748702226118" lon="-2.4927682618664657"><ele>667.0</ele><time>2026-03-22T09:32:41.999Z</time></trkpt><trkpt lat="42.63756444956659" lon="-2.492636746465625"><ele>667.0</ele><time>2026-03-22T09:32:42.999Z</time></trkpt><trkpt lat="42.63764027021471" lon="-2.492508296963752"><ele>667.0</ele><time>2026-03-22T09:32:43.999Z</time></trkpt><trkpt lat="42.637717882509804" lon="-2.492381073347425"><ele>667.0</ele><time>2026-03-22T09:32:44.999Z</time></trkpt><trkpt lat="42.63779830378732" lon="-2.4922425757643016"><ele>667.0</ele><time>2026-03-22T09:32:45.999Z</time></trkpt><trkpt lat="42.63788061077534" lon="-2.492103243639709"><ele>667.5</ele><time>2026-03-22T09:32:46.999Z</time></trkpt><trkpt lat="42.63796406222288" lon="-2.4919566026360056"><ele>668.0</ele><time>2026-03-22T09:32:47.999Z</time></trkpt><trkpt lat="42.638046112833315" lon="-2.4918038245321514"><ele>668.5</ele><time>2026-03-22T09:32:48.999Z</time></trkpt><trkpt lat="42.638126146876644" lon="-2.4916558379071896"><ele>669.0</ele><time>2026-03-22T09:32:49.999Z</time></trkpt><trkpt lat="42.638205292438556" lon="-2.4915158288968726"><ele>669.0</ele><time>2026-03-22T09:32:50.999Z</time></trkpt><trkpt lat="42.63827764958279" lon="-2.491385903780695"><ele>669.0</ele><time>2026-03-22T09:32:51.998Z</time></trkpt><trkpt lat="42.638349585387964" lon="-2.4912637284862402"><ele>669.0</ele><time>2026-03-22T09:32:52.998Z</time></trkpt><trkpt lat="42.63842800161731" lon="-2.4911526645354387"><ele>669.0</ele><time>2026-03-22T09:32:53.998Z</time></trkpt><trkpt lat="42.63851195784985" lon="-2.491048654924584"><ele>669.0</ele><time>2026-03-22T09:32:54.998Z</time></trkpt><trkpt lat="42.63859674625362" lon="-2.490952701498575"><ele>669.0</ele><time>2026-03-22T09:32:55.998Z</time></trkpt><trkpt lat="42.63868243821218" lon="-2.4908646886178083"><ele>669.0</ele><time>2026-03-22T09:32:56.998Z</time></trkpt><trkpt lat="42.63876752208124" lon="-2.4907764059604722"><ele>669.0</ele><time>2026-03-22T09:32:57.998Z</time></trkpt><trkpt lat="42.63885773202016" lon="-2.4906901011625546"><ele>669.0</ele><time>2026-03-22T09:32:58.998Z</time></trkpt><trkpt lat="42.63895408908273" lon="-2.490603478288105"><ele>669.0</ele><time>2026-03-22T09:32:59.998Z</time></trkpt><trkpt lat="42.63905399084858" lon="-2.4905194868396383"><ele>669.0</ele><time>2026-03-22T09:33:00.998Z</time></trkpt><trkpt lat="42.6391557602503" lon="-2.4904341218065644"><ele>669.0</ele><time>2026-03-22T09:33:01.998Z</time></trkpt><trkpt lat="42.63926079622743" lon="-2.4903484708843844"><ele>669.0</ele><time>2026-03-22T09:33:02.998Z</time></trkpt><trkpt lat="42.63937117950168" lon="-2.490263991388826"><ele>669.75</ele><time>2026-03-22T09:33:03.998Z</time></trkpt><trkpt lat="42.63948578396225" lon="-2.490177959501665"><ele>670.5</ele><time>2026-03-22T09:33:04.998Z</time></trkpt><trkpt lat="42.63959688614884" lon="-2.490080826542613"><ele>671.25</ele><time>2026-03-22T09:33:05.998Z</time></trkpt><trkpt lat="42.63970334939675" lon="-2.489965813055741"><ele>672.0</ele><time>2026-03-22T09:33:06.998Z</time></trkpt><trkpt lat="42.639810234859034" lon="-2.489839293637634"><ele>672.0</ele><time>2026-03-22T09:33:07.998Z</time></trkpt><trkpt lat="42.6399173494885" lon="-2.4897039283299502"><ele>672.0</ele><time>2026-03-22T09:33:08.998Z</time></trkpt><trkpt lat="42.64001780626885" lon="-2.489558168552268"><ele>672.0</ele><time>2026-03-22T09:33:09.998Z</time></trkpt><trkpt lat="42.64011630730932" lon="-2.4894052437269094"><ele>672.0</ele><time>2026-03-22T09:33:10.998Z</time></trkpt><trkpt lat="42.64021125507138" lon="-2.489253650171864"><ele>671.75</ele><time>2026-03-22T09:33:11.998Z</time></trkpt><trkpt lat="42.64029821621427" lon="-2.489104858138863"><ele>671.5</ele><time>2026-03-22T09:33:12.998Z</time></trkpt><trkpt lat="42.64036745121651" lon="-2.488967000885184"><ele>671.25</ele><time>2026-03-22T09:33:13.998Z</time></trkpt><trkpt lat="42.64042070408933" lon="-2.4888204226537054"><ele>671.0</ele><time>2026-03-22T09:33:14.998Z</time></trkpt><trkpt lat="42.64046275830187" lon="-2.4886560920318295"><ele>672.25</ele><time>2026-03-22T09:33:15.998Z</time></trkpt><trkpt lat="42.64049972592375" lon="-2.4884757235377197"><ele>673.5</ele><time>2026-03-22T09:33:16.998Z</time></trkpt><trkpt lat="42.64054235159403" lon="-2.4882920639560058"><ele>674.75</ele><time>2026-03-22T09:33:17.998Z</time></trkpt><trkpt lat="42.640579210515114" lon="-2.488099728519771"><ele>676.0</ele><time>2026-03-22T09:33:19Z</time></trkpt><trkpt lat="42.64059855318339" lon="-2.4879007758349645"><ele>676.0</ele><time>2026-03-22T09:33:20Z</time></trkpt><trkpt lat="42.640607615934506" lon="-2.48770076040661"><ele>676.0</ele><time>2026-03-22T09:33:21Z</time></trkpt><trkpt lat="42.640620448096016" lon="-2.4875087274961163"><ele>676.0</ele><time>2026-03-22T09:33:22Z</time></trkpt><trkpt lat="42.64064123625133" lon="-2.487321719611927"><ele>676.0</ele><time>2026-03-22T09:33:23Z</time></trkpt><trkpt lat="42.640673371531435" lon="-2.487135019258559"><ele>676.75</ele><time>2026-03-22T09:33:24Z</time></trkpt><trkpt lat="42.64071123787425" lon="-2.4869493861025056"><ele>677.5</ele><time>2026-03-22T09:33:25Z</time></trkpt><trkpt lat="42.6407495559486" lon="-2.486763350667056"><ele>678.25</ele><time>2026-03-22T09:33:26Z</time></trkpt><trkpt lat="42.64078445759321" lon="-2.4865803590136606"><ele>679.0</ele><time>2026-03-22T09:33:27Z</time></trkpt><trkpt lat="42.64081646618359" lon="-2.4864007732462663"><ele>678.6</ele><time>2026-03-22T09:33:28Z</time></trkpt><trkpt lat="42.64084471726789" lon="-2.486232824237701"><ele>678.2</ele><time>2026-03-22T09:33:29Z</time></trkpt><trkpt lat="42.64086763133186" lon="-2.4860838070362967"><ele>677.8000000000001</ele><time>2026-03-22T09:33:30Z</time></trkpt><trkpt lat="42.64088152674753" lon="-2.485957003832077"><ele>677.4000000000001</ele><time>2026-03-22T09:33:31Z</time></trkpt><trkpt lat="42.64088384471024" lon="-2.4858299021553063"><ele>677.0</ele><time>2026-03-22T09:33:32Z</time></trkpt><trkpt lat="42.64087151824967" lon="-2.4856857338630225"><ele>677.0</ele><time>2026-03-22T09:33:33Z</time></trkpt><trkpt lat="42.640843087644484" lon="-2.4855249966951884"><ele>677.0</ele><time>2026-03-22T09:33:34Z</time></trkpt><trkpt lat="42.640804028915404" lon="-2.485354027920939"><ele>677.0</ele><time>2026-03-22T09:33:35Z</time></trkpt><trkpt lat="42.64076284184052" lon="-2.4851765804073316"><ele>677.0</ele><time>2026-03-22T09:33:36Z</time></trkpt><trkpt lat="42.640725300484824" lon="-2.484993761320651"><ele>675.4000000000001</ele><time>2026-03-22T09:33:37Z</time></trkpt><trkpt lat="42.640695419072955" lon="-2.4848131633162773"><ele>673.8000000000001</ele><time>2026-03-22T09:33:38Z</time></trkpt><trkpt lat="42.64066862352786" lon="-2.484654633792284"><ele>672.2</ele><time>2026-03-22T09:33:39Z</time></trkpt><trkpt lat="42.64064544681415" lon="-2.484517195295605"><ele>670.6</ele><time>2026-03-22T09:33:40Z</time></trkpt><trkpt lat="42.640631268963325" lon="-2.4844054745904436"><ele>669.0</ele><time>2026-03-22T09:33:41Z</time></trkpt><trkpt lat="42.64062707451899" lon="-2.484314120127465"><ele>668.2</ele><time>2026-03-22T09:33:42Z</time></trkpt><trkpt lat="42.64064082781882" lon="-2.4842082024925345"><ele>667.4000000000001</ele><time>2026-03-22T09:33:44Z</time></trkpt><trkpt lat="42.640733165137476" lon="-2.484182294466791"><ele>666.6</ele><time>2026-03-22T09:33:52Z</time></trkpt><trkpt lat="42.64085724342793" lon="-2.484262145521951"><ele>665.8</ele><time>2026-03-22T09:33:54Z</time></trkpt><trkpt lat="42.640944155300836" lon="-2.4843218348685805"><ele>665.0</ele><time>2026-03-22T09:33:55Z</time></trkpt><trkpt lat="42.64104487587809" lon="-2.484388248152678"><ele>666.25</ele><time>2026-03-22T09:33:56Z</time></trkpt><trkpt lat="42.641146328327196" lon="-2.4844406293466497"><ele>667.5</ele><time>2026-03-22T09:33:57Z</time></trkpt><trkpt lat="42.64125479063066" lon="-2.4845056404379378"><ele>668.75</ele><time>2026-03-22T09:33:57.999Z</time></trkpt><trkpt lat="42.641376663389146" lon="-2.484572973792907"><ele>670.0</ele><time>2026-03-22T09:33:58.999Z</time></trkpt><trkpt lat="42.64150678886457" lon="-2.4846481763896437"><ele>670.0</ele><time>2026-03-22T09:33:59.999Z</time></trkpt><trkpt lat="42.64163806234349" lon="-2.4847267931654855"><ele>670.0</ele><time>2026-03-22T09:34:00.999Z</time></trkpt><trkpt lat="42.641767618682536" lon="-2.484806287290213"><ele>670.0</ele><time>2026-03-22T09:34:01.999Z</time></trkpt><trkpt lat="42.64190341124552" lon="-2.4848789060891816"><ele>670.0</ele><time>2026-03-22T09:34:02.999Z</time></trkpt><trkpt lat="42.64203621797118" lon="-2.4849551786630037"><ele>672.25</ele><time>2026-03-22T09:34:03.999Z</time></trkpt><trkpt lat="42.642171994046194" lon="-2.485021657113036"><ele>674.5</ele><time>2026-03-22T09:34:04.999Z</time></trkpt><trkpt lat="42.64231633399672" lon="-2.485070453444122"><ele>676.75</ele><time>2026-03-22T09:34:05.999Z</time></trkpt><trkpt lat="42.64246775688691" lon="-2.4850863224940754"><ele>679.0</ele><time>2026-03-22T09:34:06.999Z</time></trkpt><trkpt lat="42.64262690432062" lon="-2.4850766052119133"><ele>679.0</ele><time>2026-03-22T09:34:07.999Z</time></trkpt><trkpt lat="42.642786380212385" lon="-2.48506082603077"><ele>679.0</ele><time>2026-03-22T09:34:08.999Z</time></trkpt><trkpt lat="42.64295046228077" lon="-2.4850492130208606"><ele>679.0</ele><time>2026-03-22T09:34:09.999Z</time></trkpt><trkpt lat="42.64311691833914" lon="-2.485067088641086"><ele>682.0</ele><time>2026-03-22T09:34:10.999Z</time></trkpt><trkpt lat="42.643284649717685" lon="-2.485105304002494"><ele>685.0</ele><time>2026-03-22T09:34:11.999Z</time></trkpt><trkpt lat="42.643444605024655" lon="-2.4851698926507946"><ele>688.0</ele><time>2026-03-22T09:34:12.999Z</time></trkpt><trkpt lat="42.64359690244713" lon="-2.4852554865560967"><ele>687.6666666666667</ele><time>2026-03-22T09:34:13.999Z</time></trkpt><trkpt lat="42.6437599791262" lon="-2.4853119408777387"><ele>687.3333333333334</ele><time>2026-03-22T09:34:14.999Z</time></trkpt><trkpt lat="42.64391367582298" lon="-2.4853862798942594"><ele>687.0</ele><time>2026-03-22T09:34:15.999Z</time></trkpt><trkpt lat="42.64406139272938" lon="-2.4854828240348255"><ele>687.0</ele><time>2026-03-22T09:34:16.999Z</time></trkpt><trkpt lat="42.64419603170783" lon="-2.4855443296006277"><ele>687.0</ele><time>2026-03-22T09:34:17.999Z</time></trkpt><trkpt lat="42.644321062155164" lon="-2.4855549636799186"><ele>687.0</ele><time>2026-03-22T09:34:18.999Z</time></trkpt><trkpt lat="42.644422653721115" lon="-2.485554796162983"><ele>687.0</ele><time>2026-03-22T09:34:19.999Z</time></trkpt><trkpt lat="42.64454350480308" lon="-2.4855194858311918"><ele>687.5</ele><time>2026-03-22T09:34:20.999Z</time></trkpt><trkpt lat="42.644667492443695" lon="-2.485440548962172"><ele>688.0</ele><time>2026-03-22T09:34:21.999Z</time></trkpt><trkpt lat="42.64478078447725" lon="-2.4853401632170815"><ele>688.5</ele><time>2026-03-22T09:34:22.999Z</time></trkpt><trkpt lat="42.64490020413177" lon="-2.4852084171411493"><ele>689.0</ele><time>2026-03-22T09:34:23.999Z</time></trkpt><trkpt lat="42.64502634739568" lon="-2.4850691870756063"><ele>689.0</ele><time>2026-03-22T09:34:24.999Z</time></trkpt><trkpt lat="42.64515181731395" lon="-2.484927108072392"><ele>689.0</ele><time>2026-03-22T09:34:25.999Z</time></trkpt><trkpt lat="42.64528703762602" lon="-2.4847769133447377"><ele>689.0</ele><time>2026-03-22T09:34:26.999Z</time></trkpt><trkpt lat="42.64543472797352" lon="-2.484633632624927"><ele>687.6666666666666</ele><time>2026-03-22T09:34:27.999Z</time></trkpt><trkpt lat="42.645573849779076" lon="-2.4844918520194437"><ele>686.3333333333334</ele><time>2026-03-22T09:34:28.999Z</time></trkpt><trkpt lat="42.64570339202347" lon="-2.484356114039144"><ele>685.0</ele><time>2026-03-22T09:34:29.999Z</time></trkpt><trkpt lat="42.645828277061796" lon="-2.4842372922049174"><ele>685.0</ele><time>2026-03-22T09:34:30.999Z</time></trkpt><trkpt lat="42.6459532711711" lon="-2.4841348677546065"><ele>685.0</ele><time>2026-03-22T09:34:31.999Z</time></trkpt><trkpt lat="42.64608383535244" lon="-2.4840649449507035"><ele>685.0</ele><time>2026-03-22T09:34:32.999Z</time></trkpt><trkpt lat="42.64623095583351" lon="-2.48403690677424"><ele>685.0</ele><time>2026-03-22T09:34:33.999Z</time></trkpt><trkpt lat="42.646356470833425" lon="-2.484027236370056"><ele>685.25</ele><time>2026-03-22T09:34:34.999Z</time></trkpt><trkpt lat="42.64649237753916" lon="-2.484051222934547"><ele>685.5</ele><time>2026-03-22T09:34:35.999Z</time></trkpt><trkpt lat="42.64663366535487" lon="-2.4840834162285703"><ele>685.75</ele><time>2026-03-22T09:34:36.999Z</time></trkpt><trkpt lat="42.646767823006016" lon="-2.484162739138845"><ele>686.0</ele><time>2026-03-22T09:34:37.999Z</time></trkpt><trkpt lat="42.646906480851776" lon="-2.484251895727188"><ele>685.0</ele><time>2026-03-22T09:34:38.999Z</time></trkpt><trkpt lat="42.64705115055522" lon="-2.48435254840455"><ele>684.0</ele><time>2026-03-22T09:34:39.999Z</time></trkpt><trkpt lat="42.647208174091254" lon="-2.484424408629727"><ele>683.0</ele><time>2026-03-22T09:34:40.999Z</time></trkpt><trkpt lat="42.64736152355205" lon="-2.4845316564504984"><ele>683.3333333333333</ele><time>2026-03-22T09:34:41.999Z</time></trkpt><trkpt lat="42.64752619191129" lon="-2.4846191366911774"><ele>683.6666666666666</ele><time>2026-03-22T09:34:42.999Z</time></trkpt><trkpt lat="42.64768860967397" lon="-2.484712301552103"><ele>684.0</ele><time>2026-03-22T09:34:43.999Z</time></trkpt><trkpt lat="42.64784737591482" lon="-2.4848132057960326"><ele>684.0</ele><time>2026-03-22T09:34:44.999Z</time></trkpt><trkpt lat="42.64801003195576" lon="-2.4849182178523193"><ele>684.0</ele><time>2026-03-22T09:34:45.999Z</time></trkpt><trkpt lat="42.648180132667285" lon="-2.4850174861966687"><ele>684.0</ele><time>2026-03-22T09:34:46.999Z</time></trkpt><trkpt lat="42.64834851892533" lon="-2.485120652306807"><ele>684.0</ele><time>2026-03-22T09:34:47.999Z</time></trkpt><trkpt lat="42.64852708974447" lon="-2.485204134824389"><ele>684.0</ele><time>2026-03-22T09:34:48.999Z</time></trkpt><trkpt lat="42.64869232864866" lon="-2.485302889176782"><ele>684.0</ele><time>2026-03-22T09:34:49.999Z</time></trkpt><trkpt lat="42.64884828539832" lon="-2.485418985992678"><ele>687.6666666666666</ele><time>2026-03-22T09:34:50.999Z</time></trkpt><trkpt lat="42.64901326414323" lon="-2.485480894075925"><ele>691.3333333333333</ele><time>2026-03-22T09:34:51.999Z</time></trkpt><trkpt lat="42.64916491649624" lon="-2.485536277192937"><ele>695.0</ele><time>2026-03-22T09:34:52.999Z</time></trkpt><trkpt lat="42.6493280817785" lon="-2.4855667340483447"><ele>696.3333333333333</ele><time>2026-03-22T09:34:53.999Z</time></trkpt><trkpt lat="42.64951129541163" lon="-2.4855674697270067"><ele>697.6666666666666</ele><time>2026-03-22T09:34:54.999Z</time></trkpt><trkpt lat="42.64970121431618" lon="-2.4855394865093"><ele>699.0</ele><time>2026-03-22T09:34:55.998Z</time></trkpt><trkpt lat="42.64989889002539" lon="-2.4855042126479603"><ele>699.0</ele><time>2026-03-22T09:34:56.998Z</time></trkpt><trkpt lat="42.65010114089165" lon="-2.4854809737975643"><ele>699.0</ele><time>2026-03-22T09:34:57.998Z</time></trkpt><trkpt lat="42.650311014831686" lon="-2.4854412170875633"><ele>699.0</ele><time>2026-03-22T09:34:58.998Z</time></trkpt><trkpt lat="42.65050716724643" lon="-2.485410207642735"><ele>696.3333333333334</ele><time>2026-03-22T09:34:59.998Z</time></trkpt><trkpt lat="42.65068528676012" lon="-2.4853831368611794"><ele>693.6666666666667</ele><time>2026-03-22T09:35:00.998Z</time></trkpt><trkpt lat="42.650855952049504" lon="-2.485352182731025"><ele>691.0</ele><time>2026-03-22T09:35:01.998Z</time></trkpt><trkpt lat="42.65101218050053" lon="-2.4853156110215306"><ele>692.6666666666667</ele><time>2026-03-22T09:35:02.998Z</time></trkpt><trkpt lat="42.651155992899994" lon="-2.4852284945037146"><ele>694.3333333333334</ele><time>2026-03-22T09:35:03.998Z</time></trkpt><trkpt lat="42.651291030196425" lon="-2.485135293717926"><ele>696.0</ele><time>2026-03-22T09:35:04.998Z</time></trkpt><trkpt lat="42.65140994001946" lon="-2.485014134731981"><ele>696.0</ele><time>2026-03-22T09:35:05.998Z</time></trkpt><trkpt lat="42.65150638762847" lon="-2.484857547144983"><ele>696.0</ele><time>2026-03-22T09:35:06.998Z</time></trkpt><trkpt lat="42.65159258360615" lon="-2.484678733094616"><ele>696.0</ele><time>2026-03-22T09:35:07.998Z</time></trkpt><trkpt lat="42.651670201842435" lon="-2.4844872983750466"><ele>695.6666666666666</ele><time>2026-03-22T09:35:08.998Z</time></trkpt><trkpt lat="42.651750918626774" lon="-2.484286151294373"><ele>695.3333333333333</ele><time>2026-03-22T09:35:09.998Z</time></trkpt><trkpt lat="42.65181178011614" lon="-2.4840818088339858"><ele>695.0</ele><time>2026-03-22T09:35:10.998Z</time></trkpt><trkpt lat="42.65188014902778" lon="-2.4839048718156325"><ele>694.75</ele><time>2026-03-22T09:35:11.998Z</time></trkpt><trkpt lat="42.6519621243498" lon="-2.4837672808019273"><ele>694.5</ele><time>2026-03-22T09:35:12.998Z</time></trkpt><trkpt lat="42.65205357973557" lon="-2.483651890260076"><ele>694.25</ele><time>2026-03-22T09:35:13.998Z</time></trkpt><trkpt lat="42.652152425720814" lon="-2.4835628141762975"><ele>694.0</ele><time>2026-03-22T09:35:14.998Z</time></trkpt><trkpt lat="42.65225896890597" lon="-2.483497634589371"><ele>694.0</ele><time>2026-03-22T09:35:15.998Z</time></trkpt><trkpt lat="42.652385832878025" lon="-2.4834527857324087"><ele>694.0</ele><time>2026-03-22T09:35:16.998Z</time></trkpt><trkpt lat="42.65252700450459" lon="-2.4834318456308693"><ele>694.0</ele><time>2026-03-22T09:35:17.998Z</time></trkpt><trkpt lat="42.65268836339896" lon="-2.483433078318977"><ele>694.0</ele><time>2026-03-22T09:35:18.998Z</time></trkpt><trkpt lat="42.65285272723831" lon="-2.4834529457143786"><ele>693.6666666666667</ele><time>2026-03-22T09:35:19.998Z</time></trkpt><trkpt lat="42.65302905648608" lon="-2.4834894880451777"><ele>693.3333333333334</ele><time>2026-03-22T09:35:20.998Z</time></trkpt><trkpt lat="42.653211887399465" lon="-2.4835292476964095"><ele>693.0</ele><time>2026-03-22T09:35:21.998Z</time></trkpt><trkpt lat="42.65338854276589" lon="-2.4835604837498364"><ele>693.0</ele><time>2026-03-22T09:35:22.998Z</time></trkpt><trkpt lat="42.653571293753316" lon="-2.483598613432462"><ele>693.0</ele><time>2026-03-22T09:35:23.998Z</time></trkpt><trkpt lat="42.6537564972894" lon="-2.4836376951558714"><ele>693.0</ele><time>2026-03-22T09:35:25Z</time></trkpt><trkpt lat="42.653944683401754" lon="-2.483672420447304"><ele>695.3333333333334</ele><time>2026-03-22T09:35:26Z</time></trkpt><trkpt lat="42.65413477391529" lon="-2.483704450061017"><ele>697.6666666666667</ele><time>2026-03-22T09:35:27Z</time></trkpt><trkpt lat="42.65432392401064" lon="-2.483736071674221"><ele>700.0</ele><time>2026-03-22T09:35:28Z</time></trkpt><trkpt lat="42.654499476026885" lon="-2.4837701441516753"><ele>702.0</ele><time>2026-03-22T09:35:29Z</time></trkpt><trkpt lat="42.654666024521795" lon="-2.483804980078123"><ele>704.0</ele><time>2026-03-22T09:35:30Z</time></trkpt><trkpt lat="42.65481463326033" lon="-2.4838350276693104"><ele>706.0</ele><time>2026-03-22T09:35:31Z</time></trkpt><trkpt lat="42.65494517045853" lon="-2.483864967079778"><ele>706.0</ele><time>2026-03-22T09:35:32Z</time></trkpt><trkpt lat="42.65505816199819" lon="-2.483884407208139"><ele>706.0</ele><time>2026-03-22T09:35:33Z</time></trkpt><trkpt lat="42.655154156165615" lon="-2.4839017494337625"><ele>706.0</ele><time>2026-03-22T09:35:34Z</time></trkpt><trkpt lat="42.655243986962184" lon="-2.4838967057092285"><ele>706.0</ele><time>2026-03-22T09:35:35Z</time></trkpt><trkpt lat="42.6553271685453" lon="-2.483857518019963"><ele>706.0</ele><time>2026-03-22T09:35:36Z</time></trkpt><trkpt lat="42.65541929628329" lon="-2.483782697988348"><ele>706.5</ele><time>2026-03-22T09:35:37Z</time></trkpt><trkpt lat="42.65551825056109" lon="-2.483712466385376"><ele>707.0</ele><time>2026-03-22T09:35:38Z</time></trkpt><trkpt lat="42.65563005184618" lon="-2.483629252106266"><ele>707.5</ele><time>2026-03-22T09:35:39Z</time></trkpt><trkpt lat="42.65572946356594" lon="-2.483547993610814"><ele>708.0</ele><time>2026-03-22T09:35:40Z</time></trkpt><trkpt lat="42.6558078503228" lon="-2.483459359164086"><ele>708.0</ele><time>2026-03-22T09:35:41Z</time></trkpt><trkpt lat="42.65587061660001" lon="-2.4833520405888567"><ele>708.0</ele><time>2026-03-22T09:35:42Z</time></trkpt><trkpt lat="42.65592429169526" lon="-2.4832294022754304"><ele>708.0</ele><time>2026-03-22T09:35:43Z</time></trkpt><trkpt lat="42.65598006817644" lon="-2.4831018599124994"><ele>708.0</ele><time>2026-03-22T09:35:44Z</time></trkpt><trkpt lat="42.65603838175195" lon="-2.482962426843682"><ele>708.0</ele><time>2026-03-22T09:35:45Z</time></trkpt><trkpt lat="42.65609623009816" lon="-2.482816471398487"><ele>708.5999999999999</ele><time>2026-03-22T09:35:46Z</time></trkpt><trkpt lat="42.656158380950224" lon="-2.4826708479624213"><ele>709.1999999999999</ele><time>2026-03-22T09:35:47Z</time></trkpt><trkpt lat="42.656214614619266" lon="-2.4825448944892243"><ele>709.8</ele><time>2026-03-22T09:35:48Z</time></trkpt><trkpt lat="42.65625206872296" lon="-2.482461018737623"><ele>710.4</ele><time>2026-03-22T09:35:49Z</time></trkpt><trkpt lat="42.65629942772779" lon="-2.4823547164417965"><ele>711.0</ele><time>2026-03-22T09:35:51Z</time></trkpt><trkpt lat="42.656264210243556" lon="-2.4824397922101955"><ele>711.0</ele><time>2026-03-22T09:36:01Z</time></trkpt><trkpt lat="42.656312017158925" lon="-2.482380803810846"><ele>711.0</ele><time>2026-03-22T09:36:03Z</time></trkpt><trkpt lat="42.65616792946382" lon="-2.482699382715923"><ele>711.0</ele><time>2026-03-22T09:36:04Z</time></trkpt><trkpt lat="42.65611453882614" lon="-2.482814857638931"><ele>711.0</ele><time>2026-03-22T09:36:04.999Z</time></trkpt><trkpt lat="42.656061416108635" lon="-2.4829417664714435"><ele>710.25</ele><time>2026-03-22T09:36:05.999Z</time></trkpt><trkpt lat="42.65599709550005" lon="-2.483087243531859"><ele>709.5</ele><time>2026-03-22T09:36:06.999Z</time></trkpt><trkpt lat="42.65593191843906" lon="-2.4832301482565584"><ele>708.75</ele><time>2026-03-22T09:36:07.999Z</time></trkpt><trkpt lat="42.655868317721236" lon="-2.483361810610083"><ele>708.0</ele><time>2026-03-22T09:36:08.999Z</time></trkpt><trkpt lat="42.65579995256498" lon="-2.483475505400336"><ele>708.0</ele><time>2026-03-22T09:36:09.999Z</time></trkpt><trkpt lat="42.65571703715129" lon="-2.4835716769981677"><ele>708.0</ele><time>2026-03-22T09:36:10.999Z</time></trkpt><trkpt lat="42.65562760085906" lon="-2.483650682337518"><ele>708.0</ele><time>2026-03-22T09:36:11.999Z</time></trkpt><trkpt lat="42.65552881893502" lon="-2.48371669047641"><ele>708.0</ele><time>2026-03-22T09:36:12.999Z</time></trkpt><trkpt lat="42.65544258440177" lon="-2.4837745226463364"><ele>708.0</ele><time>2026-03-22T09:36:13.999Z</time></trkpt><trkpt lat="42.65536984821802" lon="-2.4838179963470046"><ele>707.6666666666666</ele><time>2026-03-22T09:36:14.999Z</time></trkpt><trkpt lat="42.655310272965984" lon="-2.4838617645070262"><ele>707.3333333333334</ele><time>2026-03-22T09:36:15.999Z</time></trkpt><trkpt lat="42.65524952107168" lon="-2.483939635270792"><ele>707.0</ele><time>2026-03-22T09:36:17.999Z</time></trkpt><trkpt lat="42.655249629327926" lon="-2.4840807327490224"><ele>706.6666666666667</ele><time>2026-03-22T09:36:19.999Z</time></trkpt><trkpt lat="42.65527800367874" lon="-2.484177258667151"><ele>706.3333333333334</ele><time>2026-03-22T09:36:20.999Z</time></trkpt><trkpt lat="42.65531138777954" lon="-2.4843022125677416"><ele>706.0</ele><time>2026-03-22T09:36:21.999Z</time></trkpt><trkpt lat="42.65534323175942" lon="-2.4844507982601374"><ele>705.8</ele><time>2026-03-22T09:36:22.999Z</time></trkpt><trkpt lat="42.655355047815625" lon="-2.48458508583664"><ele>705.5999999999999</ele><time>2026-03-22T09:36:23.999Z</time></trkpt><trkpt lat="42.65534655794221" lon="-2.4847257432285095"><ele>705.4</ele><time>2026-03-22T09:36:24.999Z</time></trkpt><trkpt lat="42.65530778222674" lon="-2.4848618588235625"><ele>705.2</ele><time>2026-03-22T09:36:25.999Z</time></trkpt><trkpt lat="42.65524592987669" lon="-2.4849978491973035"><ele>705.0</ele><time>2026-03-22T09:36:26.999Z</time></trkpt><trkpt lat="42.655177892133835" lon="-2.485143182822802"><ele>707.75</ele><time>2026-03-22T09:36:27.999Z</time></trkpt><trkpt lat="42.655107419861444" lon="-2.48530317472549"><ele>710.5</ele><time>2026-03-22T09:36:28.999Z</time></trkpt><trkpt lat="42.65502876758295" lon="-2.485474266303204"><ele>713.25</ele><time>2026-03-22T09:36:29.999Z</time></trkpt><trkpt lat="42.65494294627182" lon="-2.4856542223644764"><ele>716.0</ele><time>2026-03-22T09:36:30.999Z</time></trkpt><trkpt lat="42.654861304895896" lon="-2.4858166593911335"><ele>718.3333333333333</ele><time>2026-03-22T09:36:31.999Z</time></trkpt><trkpt lat="42.65478509356111" lon="-2.4859909287660127"><ele>720.6666666666666</ele><time>2026-03-22T09:36:32.999Z</time></trkpt><trkpt lat="42.65469657779419" lon="-2.4861632245788727"><ele>723.0</ele><time>2026-03-22T09:36:33.999Z</time></trkpt><trkpt lat="42.65461457884073" lon="-2.486344643743349"><ele>725.25</ele><time>2026-03-22T09:36:34.999Z</time></trkpt><trkpt lat="42.65454005089401" lon="-2.4865313697002183"><ele>727.5</ele><time>2026-03-22T09:36:35.999Z</time></trkpt><trkpt lat="42.65448324855859" lon="-2.4867185106797898"><ele>729.75</ele><time>2026-03-22T09:36:36.999Z</time></trkpt><trkpt lat="42.65444514746488" lon="-2.4869063951922765"><ele>732.0</ele><time>2026-03-22T09:36:37.999Z</time></trkpt><trkpt lat="42.65443002812784" lon="-2.487097940273907"><ele>734.3333333333334</ele><time>2026-03-22T09:36:38.999Z</time></trkpt><trkpt lat="42.654433584263884" lon="-2.4873024006405573"><ele>736.6666666666667</ele><time>2026-03-22T09:36:39.999Z</time></trkpt><trkpt lat="42.65444770890513" lon="-2.487504883979868"><ele>739.0</ele><time>2026-03-22T09:36:40.999Z</time></trkpt><trkpt lat="42.65449866639241" lon="-2.4877094366639723"><ele>740.0</ele><time>2026-03-22T09:36:41.999Z</time></trkpt><trkpt lat="42.65454727113149" lon="-2.4879273440818603"><ele>741.0</ele><time>2026-03-22T09:36:42.999Z</time></trkpt><trkpt lat="42.654594249450064" lon="-2.4881607234400525"><ele>742.0</ele><time>2026-03-22T09:36:43.999Z</time></trkpt><trkpt lat="42.654653610205266" lon="-2.4883946107868478"><ele>742.0</ele><time>2026-03-22T09:36:44.999Z</time></trkpt><trkpt lat="42.65470896452438" lon="-2.4886269729508284"><ele>742.0</ele><time>2026-03-22T09:36:45.999Z</time></trkpt><trkpt lat="42.65477109913123" lon="-2.4888377897154945"><ele>742.0</ele><time>2026-03-22T09:36:46.999Z</time></trkpt><trkpt lat="42.65486793364287" lon="-2.4890164075030006"><ele>742.6666666666667</ele><time>2026-03-22T09:36:47.999Z</time></trkpt><trkpt lat="42.65496890319566" lon="-2.4892057063790696"><ele>743.3333333333334</ele><time>2026-03-22T09:36:48.999Z</time></trkpt><trkpt lat="42.655088442259164" lon="-2.489372410993217"><ele>744.0</ele><time>2026-03-22T09:36:49.999Z</time></trkpt><trkpt lat="42.65521158947473" lon="-2.489548700922779"><ele>745.0</ele><time>2026-03-22T09:36:50.999Z</time></trkpt><trkpt lat="42.65533644812212" lon="-2.4897289366076563"><ele>746.0</ele><time>2026-03-22T09:36:51.999Z</time></trkpt><trkpt lat="42.65545777371097" lon="-2.489909420608318"><ele>747.0</ele><time>2026-03-22T09:36:52.999Z</time></trkpt><trkpt lat="42.65556986953755" lon="-2.4900837865901466"><ele>747.0</ele><time>2026-03-22T09:36:53.999Z</time></trkpt><trkpt lat="42.65567456357252" lon="-2.4902564638815403"><ele>747.0</ele><time>2026-03-22T09:36:54.999Z</time></trkpt><trkpt lat="42.65576592150288" lon="-2.4904396435012384"><ele>747.0</ele><time>2026-03-22T09:36:55.999Z</time></trkpt><trkpt lat="42.65584981923504" lon="-2.4906312001374284"><ele>749.25</ele><time>2026-03-22T09:36:56.999Z</time></trkpt><trkpt lat="42.65592091540064" lon="-2.490813266827586"><ele>751.5</ele><time>2026-03-22T09:36:57.999Z</time></trkpt><trkpt lat="42.655974273212394" lon="-2.4909745164322388"><ele>753.75</ele><time>2026-03-22T09:36:58.999Z</time></trkpt><trkpt lat="42.65600452818685" lon="-2.491120437632401"><ele>756.0</ele><time>2026-03-22T09:36:59.999Z</time></trkpt><trkpt lat="42.656007425791145" lon="-2.491274946205871"><ele>758.0</ele><time>2026-03-22T09:37:00.999Z</time></trkpt><trkpt lat="42.65600560968137" lon="-2.491456322112392"><ele>760.0</ele><time>2026-03-22T09:37:01.999Z</time></trkpt><trkpt lat="42.65600012294567" lon="-2.491651017963061"><ele>762.0</ele><time>2026-03-22T09:37:02.999Z</time></trkpt><trkpt lat="42.65598541976507" lon="-2.4918594234589686"><ele>764.0</ele><time>2026-03-22T09:37:03.998Z</time></trkpt><trkpt lat="42.655972637548054" lon="-2.4920684403309217"><ele>764.6666666666666</ele><time>2026-03-22T09:37:04.998Z</time></trkpt><trkpt lat="42.65596055812426" lon="-2.4922843115467015"><ele>765.3333333333334</ele><time>2026-03-22T09:37:05.998Z</time></trkpt><trkpt lat="42.65595122468703" lon="-2.4925069326839613"><ele>766.0</ele><time>2026-03-22T09:37:06.998Z</time></trkpt><trkpt lat="42.65593815890553" lon="-2.492702483890434"><ele>766.0</ele><time>2026-03-22T09:37:07.998Z</time></trkpt><trkpt lat="42.65591964850197" lon="-2.492868558420785"><ele>766.0</ele><time>2026-03-22T09:37:08.998Z</time></trkpt><trkpt lat="42.65588455256802" lon="-2.493031566178109"><ele>766.0</ele><time>2026-03-22T09:37:09.998Z</time></trkpt><trkpt lat="42.65581951846858" lon="-2.4931856813724194"><ele>766.0</ele><time>2026-03-22T09:37:10.998Z</time></trkpt><trkpt lat="42.655726952608305" lon="-2.4933391736892694"><ele>767.0</ele><time>2026-03-22T09:37:11.998Z</time></trkpt><trkpt lat="42.655627723953494" lon="-2.4934997598367388"><ele>768.0</ele><time>2026-03-22T09:37:12.998Z</time></trkpt><trkpt lat="42.6555306116935" lon="-2.493667500759328"><ele>769.0</ele><time>2026-03-22T09:37:13.998Z</time></trkpt><trkpt lat="42.655434228273904" lon="-2.493848580608867"><ele>770.0</ele><time>2026-03-22T09:37:14.998Z</time></trkpt><trkpt lat="42.65534048514449" lon="-2.4940409837797897"><ele>771.0</ele><time>2026-03-22T09:37:15.998Z</time></trkpt><trkpt lat="42.655268984173034" lon="-2.494258008545272"><ele>772.0</ele><time>2026-03-22T09:37:16.998Z</time></trkpt><trkpt lat="42.655190334568374" lon="-2.4944807397813773"><ele>776.3333333333333</ele><time>2026-03-22T09:37:17.998Z</time></trkpt><trkpt lat="42.655100686407415" lon="-2.494703205275966"><ele>780.6666666666667</ele><time>2026-03-22T09:37:18.998Z</time></trkpt><trkpt lat="42.655026723818885" lon="-2.4949245112821337"><ele>785.0</ele><time>2026-03-22T09:37:19.998Z</time></trkpt><trkpt lat="42.6549739341021" lon="-2.495144195979798"><ele>785.0</ele><time>2026-03-22T09:37:20.998Z</time></trkpt><trkpt lat="42.65490606543213" lon="-2.4953579822731378"><ele>785.0</ele><time>2026-03-22T09:37:21.998Z</time></trkpt><trkpt lat="42.65484237229443" lon="-2.4955659685026492"><ele>785.0</ele><time>2026-03-22T09:37:22.998Z</time></trkpt><trkpt lat="42.65479545034908" lon="-2.4957702911207496"><ele>786.6666666666667</ele><time>2026-03-22T09:37:23.998Z</time></trkpt><trkpt lat="42.654767885887566" lon="-2.4959854190767845"><ele>788.3333333333333</ele><time>2026-03-22T09:37:24.998Z</time></trkpt><trkpt lat="42.654765453158966" lon="-2.496203340556842"><ele>790.0</ele><time>2026-03-22T09:37:25.998Z</time></trkpt><trkpt lat="42.65476635400856" lon="-2.4964353025595902"><ele>792.3333333333333</ele><time>2026-03-22T09:37:26.998Z</time></trkpt><trkpt lat="42.654753669181" lon="-2.4966786440420625"><ele>794.6666666666667</ele><time>2026-03-22T09:37:27.998Z</time></trkpt><trkpt lat="42.654753857376136" lon="-2.496928426495308"><ele>797.0</ele><time>2026-03-22T09:37:28.998Z</time></trkpt><trkpt lat="42.65477201080015" lon="-2.497186368389017"><ele>799.0</ele><time>2026-03-22T09:37:29.998Z</time></trkpt><trkpt lat="42.654775095436484" lon="-2.4974539334550925"><ele>801.0</ele><time>2026-03-22T09:37:31Z</time></trkpt><trkpt lat="42.65477910685231" lon="-2.497715173666245"><ele>803.0</ele><time>2026-03-22T09:37:32Z</time></trkpt><trkpt lat="42.65478687572292" lon="-2.4979645421857444"><ele>804.6666666666667</ele><time>2026-03-22T09:37:33Z</time></trkpt><trkpt lat="42.654802199056945" lon="-2.4982091079042097"><ele>806.3333333333333</ele><time>2026-03-22T09:37:34Z</time></trkpt><trkpt lat="42.65480662226022" lon="-2.498446251754084"><ele>808.0</ele><time>2026-03-22T09:37:35Z</time></trkpt><trkpt lat="42.6548262340008" lon="-2.4986658824304735"><ele>808.75</ele><time>2026-03-22T09:37:36Z</time></trkpt><trkpt lat="42.654840508486835" lon="-2.4988763044989546"><ele>809.5</ele><time>2026-03-22T09:37:37Z</time></trkpt><trkpt lat="42.65487866285076" lon="-2.4990584986077375"><ele>810.25</ele><time>2026-03-22T09:37:38Z</time></trkpt><trkpt lat="42.654918746527066" lon="-2.4992136578038715"><ele>811.0</ele><time>2026-03-22T09:37:39Z</time></trkpt><trkpt lat="42.65497328495793" lon="-2.4993643231389893"><ele>811.0</ele><time>2026-03-22T09:37:40Z</time></trkpt><trkpt lat="42.655024147439136" lon="-2.4995219588945687"><ele>811.0</ele><time>2026-03-22T09:37:41Z</time></trkpt><trkpt lat="42.655086550488164" lon="-2.4996777685030875"><ele>811.0</ele><time>2026-03-22T09:37:42Z</time></trkpt><trkpt lat="42.655156357104694" lon="-2.499834579978579"><ele>811.0</ele><time>2026-03-22T09:37:43Z</time></trkpt><trkpt lat="42.65523018811366" lon="-2.499996781601095"><ele>808.3333333333333</ele><time>2026-03-22T09:37:44Z</time></trkpt><trkpt lat="42.655312569927425" lon="-2.500165039722976"><ele>805.6666666666667</ele><time>2026-03-22T09:37:45Z</time></trkpt><trkpt lat="42.65540410459229" lon="-2.500348221840708"><ele>803.0</ele><time>2026-03-22T09:37:46Z</time></trkpt><trkpt lat="42.655500984271335" lon="-2.50053946719759"><ele>801.0</ele><time>2026-03-22T09:37:47Z</time></trkpt><trkpt lat="42.65560170581016" lon="-2.500731629809681"><ele>799.0</ele><time>2026-03-22T09:37:48Z</time></trkpt><trkpt lat="42.655703282646705" lon="-2.500920201809645"><ele>797.0</ele><time>2026-03-22T09:37:49Z</time></trkpt><trkpt lat="42.6558038004156" lon="-2.50110374528266"><ele>795.3333333333334</ele><time>2026-03-22T09:37:50Z</time></trkpt><trkpt lat="42.65589912012778" lon="-2.5012797313773194"><ele>793.6666666666667</ele><time>2026-03-22T09:37:51Z</time></trkpt><trkpt lat="42.65597786187896" lon="-2.5014567262823424"><ele>792.0</ele><time>2026-03-22T09:37:52Z</time></trkpt><trkpt lat="42.65603102734271" lon="-2.501628220828426"><ele>792.0</ele><time>2026-03-22T09:37:53Z</time></trkpt><trkpt lat="42.65605749284855" lon="-2.501809750537619"><ele>792.0</ele><time>2026-03-22T09:37:54Z</time></trkpt><trkpt lat="42.65606523835208" lon="-2.502007865710832"><ele>792.0</ele><time>2026-03-22T09:37:55Z</time></trkpt><trkpt lat="42.65606584346333" lon="-2.5022108687964546"><ele>792.0</ele><time>2026-03-22T09:37:56Z</time></trkpt><trkpt lat="42.65606121076622" lon="-2.5024113001957384"><ele>790.5</ele><time>2026-03-22T09:37:57Z</time></trkpt><trkpt lat="42.656051652084564" lon="-2.502608482913465"><ele>789.0</ele><time>2026-03-22T09:37:58Z</time></trkpt><trkpt lat="42.65606167015632" lon="-2.502797696585312"><ele>787.5</ele><time>2026-03-22T09:37:59Z</time></trkpt><trkpt lat="42.656062787382766" lon="-2.502981157715732"><ele>786.0</ele><time>2026-03-22T09:38:00Z</time></trkpt><trkpt lat="42.65606851111582" lon="-2.503175833989105"><ele>784.6666666666667</ele><time>2026-03-22T09:38:01Z</time></trkpt><trkpt lat="42.6560804862174" lon="-2.503377503312285"><ele>783.3333333333334</ele><time>2026-03-22T09:38:02Z</time></trkpt><trkpt lat="42.65609810206722" lon="-2.5035822478547693"><ele>782.0</ele><time>2026-03-22T09:38:03Z</time></trkpt><trkpt lat="42.656120541172236" lon="-2.5037907462440847"><ele>780.75</ele><time>2026-03-22T09:38:04Z</time></trkpt><trkpt lat="42.656129787201294" lon="-2.5040049408336267"><ele>779.5</ele><time>2026-03-22T09:38:05Z</time></trkpt><trkpt lat="42.65615406507924" lon="-2.50420737064061"><ele>778.25</ele><time>2026-03-22T09:38:06Z</time></trkpt><trkpt lat="42.656176586491796" lon="-2.5043954129713972"><ele>777.0</ele><time>2026-03-22T09:38:07Z</time></trkpt><trkpt lat="42.65620068769997" lon="-2.504574055518647"><ele>775.6</ele><time>2026-03-22T09:38:08Z</time></trkpt><trkpt lat="42.65624344118493" lon="-2.5047312287698325"><ele>774.2</ele><time>2026-03-22T09:38:09Z</time></trkpt><trkpt lat="42.65626249000778" lon="-2.5048760000455177"><ele>772.8</ele><time>2026-03-22T09:38:10Z</time></trkpt><trkpt lat="42.65633494170562" lon="-2.504985754864305"><ele>771.4</ele><time>2026-03-22T09:38:11Z</time></trkpt><trkpt lat="42.656416691521414" lon="-2.505083141474823"><ele>770.0</ele><time>2026-03-22T09:38:12Z</time></trkpt><trkpt lat="42.656513986278675" lon="-2.5051596912585556"><ele>770.0</ele><time>2026-03-22T09:38:12.999Z</time></trkpt><trkpt lat="42.65660027137715" lon="-2.5052572824184174"><ele>770.0</ele><time>2026-03-22T09:38:13.999Z</time></trkpt><trkpt lat="42.65668389425841" lon="-2.5053528026024723"><ele>770.0</ele><time>2026-03-22T09:38:14.999Z</time></trkpt><trkpt lat="42.6567479899053" lon="-2.5054646919236774"><ele>770.0</ele><time>2026-03-22T09:38:15.999Z</time></trkpt><trkpt lat="42.656805031751986" lon="-2.505580482455468"><ele>770.0</ele><time>2026-03-22T09:38:16.999Z</time></trkpt><trkpt lat="42.65686639876014" lon="-2.5056882057179246"><ele>770.0000000000001</ele><time>2026-03-22T09:38:17.999Z</time></trkpt><trkpt lat="42.65692523553349" lon="-2.5057876046954806"><ele>770.0</ele><time>2026-03-22T09:38:18.999Z</time></trkpt><trkpt lat="42.65697503663652" lon="-2.505876504897292"><ele>770.0</ele><time>2026-03-22T09:38:19.999Z</time></trkpt><trkpt lat="42.657018413001744" lon="-2.5059539254758305"><ele>770.0</ele><time>2026-03-22T09:38:20.999Z</time></trkpt><trkpt lat="42.65705776511886" lon="-2.5060237422559215"><ele>770.0000000000001</ele><time>2026-03-22T09:38:21.999Z</time></trkpt><trkpt lat="42.65712592833272" lon="-2.506155623343185"><ele>770.0</ele><time>2026-03-22T09:38:23.999Z</time></trkpt><trkpt lat="42.657189929523106" lon="-2.5062789071284723"><ele>770.0</ele><time>2026-03-22T09:38:25.999Z</time></trkpt><trkpt lat="42.65724897202785" lon="-2.5063971323010854"><ele>770.0</ele><time>2026-03-22T09:38:27.999Z</time></trkpt><trkpt lat="42.65729456910657" lon="-2.5064749639747417"><ele>770.0</ele><time>2026-03-22T09:38:29.999Z</time></trkpt><trkpt lat="42.657286602620346" lon="-2.50659379965156"><ele>770.0</ele><time>2026-03-22T09:38:31.999Z</time></trkpt><trkpt lat="42.65721284875016" lon="-2.5066304511390523"><ele>770.0</ele><time>2026-03-22T09:38:32.999Z</time></trkpt><trkpt lat="42.65709938679457" lon="-2.5067015486202755"><ele>770.0</ele><time>2026-03-22T09:38:34.999Z</time></trkpt><trkpt lat="42.65699508431099" lon="-2.506741430541995"><ele>770.0</ele><time>2026-03-22T09:38:36.999Z</time></trkpt><trkpt lat="42.65693246217533" lon="-2.5067647059606215"><ele>770.0</ele><time>2026-03-22T09:38:37.999Z</time></trkpt><trkpt lat="42.65681781087448" lon="-2.5067851718568295"><ele>770.0</ele><time>2026-03-22T09:38:39.999Z</time></trkpt><trkpt lat="42.656708212191695" lon="-2.5068174489781874"><ele>770.0</ele><time>2026-03-22T09:38:41.999Z</time></trkpt><trkpt lat="42.656611704349054" lon="-2.5068565549047768"><ele>769.5000000000001</ele><time>2026-03-22T09:38:43.999Z</time></trkpt><trkpt lat="42.656527524886634" lon="-2.5068717953559605"><ele>769.0</ele><time>2026-03-22T09:38:45.999Z</time></trkpt><trkpt lat="42.65644464828503" lon="-2.506838449198963"><ele>768.5</ele><time>2026-03-22T09:38:47.999Z</time></trkpt><trkpt lat="42.65635704621982" lon="-2.5068164870115845"><ele>768.0</ele><time>2026-03-22T09:38:50.999Z</time></trkpt><trkpt lat="42.65628338752506" lon="-2.5067857729065217"><ele>767.5</ele><time>2026-03-22T09:38:53.999Z</time></trkpt><trkpt lat="42.6562212767959" lon="-2.5067683795350173"><ele>767.0</ele><time>2026-03-22T09:38:55.999Z</time></trkpt><trkpt lat="42.65614111048" lon="-2.506775757023879"><ele>766.2</ele><time>2026-03-22T09:38:57.999Z</time></trkpt><trkpt lat="42.656051515964876" lon="-2.506766138368958"><ele>765.4000000000001</ele><time>2026-03-22T09:38:59.999Z</time></trkpt><trkpt lat="42.65596857966382" lon="-2.506765562898509"><ele>764.5999999999999</ele><time>2026-03-22T09:39:01.999Z</time></trkpt><trkpt lat="42.65589489003271" lon="-2.5067760117143205"><ele>763.8</ele><time>2026-03-22T09:39:03.999Z</time></trkpt><trkpt lat="42.65582978074109" lon="-2.5067790044649585"><ele>763.0</ele><time>2026-03-22T09:39:07.999Z</time></trkpt><trkpt lat="42.65581635610568" lon="-2.5065725208270035"><ele>763.0</ele><time>2026-03-22T09:39:10.999Z</time></trkpt><trkpt lat="42.65574943827185" lon="-2.5065323955130565"><ele>763.0</ele><time>2026-03-22T09:39:14.998Z</time></trkpt></trkseg><trkseg><trkpt lat="42.65578033809552" lon="-2.5063923089668223"><ele>763.0</ele><time>2026-03-22T09:51:09Z</time></trkpt><trkpt lat="42.65576409319508" lon="-2.5064887956867117"><ele>763.0</ele><time>2026-03-22T09:51:13Z</time></trkpt><trkpt lat="42.655852889758314" lon="-2.506487283453924"><ele>763.0</ele><time>2026-03-22T09:53:35Z</time></trkpt><trkpt lat="42.65583616322214" lon="-2.506399018820778"><ele>763.0</ele><time>2026-03-22T09:54:33.999Z</time></trkpt><trkpt lat="42.6557433346019" lon="-2.5064931683453766"><ele>763.0</ele><time>2026-03-22T10:04:28.999Z</time></trkpt><trkpt lat="42.655806920855454" lon="-2.506534392764259"><ele>763.0</ele><time>2026-03-22T10:04:46.999Z</time></trkpt><trkpt lat="42.6558572728913" lon="-2.5066158774807423"><ele>763.0</ele><time>2026-03-22T10:07:26.999Z</time></trkpt><trkpt lat="42.65587561216508" lon="-2.5067083559775853"><ele>763.0</ele><time>2026-03-22T10:07:29.998Z</time></trkpt><trkpt lat="42.65593544598443" lon="-2.506750378545099"><ele>763.0</ele><time>2026-03-22T10:07:41.998Z</time></trkpt><trkpt lat="42.65600242222626" lon="-2.5067322591922454"><ele>763.0</ele><time>2026-03-22T10:07:42.998Z</time></trkpt><trkpt lat="42.656083618237304" lon="-2.5067112296240226"><ele>763.0</ele><time>2026-03-22T10:07:43.998Z</time></trkpt><trkpt lat="42.65617135129675" lon="-2.5067204887496746"><ele>763.0</ele><time>2026-03-22T10:07:44.998Z</time></trkpt><trkpt lat="42.65625242526066" lon="-2.5067422967778605"><ele>763.6666666666667</ele><time>2026-03-22T10:07:45.998Z</time></trkpt><trkpt lat="42.656332127865575" lon="-2.506770086679142"><ele>764.3333333333334</ele><time>2026-03-22T10:07:46.998Z</time></trkpt><trkpt lat="42.65641343072395" lon="-2.5067976149932556"><ele>765.0</ele><time>2026-03-22T10:07:47.998Z</time></trkpt><trkpt lat="42.65649819166306" lon="-2.5068141063654696"><ele>765.6666666666666</ele><time>2026-03-22T10:07:48.998Z</time></trkpt><trkpt lat="42.65659089700095" lon="-2.5068112507447076"><ele>766.3333333333333</ele><time>2026-03-22T10:07:49.998Z</time></trkpt><trkpt lat="42.65669129080151" lon="-2.5067977948780724"><ele>767.0</ele><time>2026-03-22T10:07:50.998Z</time></trkpt><trkpt lat="42.65679650179311" lon="-2.5067610048202806"><ele>767.0</ele><time>2026-03-22T10:07:51.998Z</time></trkpt><trkpt lat="42.65689424698969" lon="-2.5067340579599797"><ele>767.0</ele><time>2026-03-22T10:07:52.998Z</time></trkpt><trkpt lat="42.656992013372395" lon="-2.5067012001231417"><ele>767.0</ele><time>2026-03-22T10:07:53.998Z</time></trkpt><trkpt lat="42.65708672387036" lon="-2.50665963481918"><ele>767.0</ele><time>2026-03-22T10:07:55Z</time></trkpt><trkpt lat="42.657171610865845" lon="-2.5066152904038788"><ele>767.0</ele><time>2026-03-22T10:07:56Z</time></trkpt><trkpt lat="42.65723809706032" lon="-2.5065660485787937"><ele>767.3333333333333</ele><time>2026-03-22T10:07:57Z</time></trkpt><trkpt lat="42.65727718370769" lon="-2.506493257716854"><ele>767.6666666666666</ele><time>2026-03-22T10:07:59Z</time></trkpt><trkpt lat="42.65725369193314" lon="-2.5064084901664168"><ele>768.0</ele><time>2026-03-22T10:08:01Z</time></trkpt><trkpt lat="42.65718064734208" lon="-2.50629000997629"><ele>768.3333333333333</ele><time>2026-03-22T10:08:03Z</time></trkpt><trkpt lat="42.657117662555756" lon="-2.5062114158974107"><ele>768.6666666666666</ele><time>2026-03-22T10:08:04Z</time></trkpt><trkpt lat="42.657054248116296" lon="-2.5060961562162953"><ele>769.0</ele><time>2026-03-22T10:08:05Z</time></trkpt><trkpt lat="42.65698716123673" lon="-2.505971005400913"><ele>768.5</ele><time>2026-03-22T10:08:06Z</time></trkpt><trkpt lat="42.65691661022506" lon="-2.5058380872841197"><ele>768.0</ele><time>2026-03-22T10:08:07Z</time></trkpt><trkpt lat="42.65684668117975" lon="-2.505707941404963"><ele>767.5</ele><time>2026-03-22T10:08:08Z</time></trkpt><trkpt lat="42.65678441074127" lon="-2.5055940911268646"><ele>767.0</ele><time>2026-03-22T10:08:09Z</time></trkpt><trkpt lat="42.65671697107603" lon="-2.505451334089203"><ele>767.75</ele><time>2026-03-22T10:08:10Z</time></trkpt><trkpt lat="42.65662743081963" lon="-2.5053172762456155"><ele>768.5</ele><time>2026-03-22T10:08:11Z</time></trkpt><trkpt lat="42.656529864318685" lon="-2.505202201558325"><ele>769.25</ele><time>2026-03-22T10:08:12Z</time></trkpt><trkpt lat="42.65641627346988" lon="-2.505131427558487"><ele>770.0</ele><time>2026-03-22T10:08:13Z</time></trkpt><trkpt lat="42.65632923837913" lon="-2.5050260120893952"><ele>770.0</ele><time>2026-03-22T10:08:14Z</time></trkpt><trkpt lat="42.656264349243585" lon="-2.504920407026746"><ele>770.0</ele><time>2026-03-22T10:08:15Z</time></trkpt><trkpt lat="42.65621644535297" lon="-2.504784487324881"><ele>770.0</ele><time>2026-03-22T10:08:16Z</time></trkpt><trkpt lat="42.65619613841063" lon="-2.5046246543951356"><ele>770.0</ele><time>2026-03-22T10:08:17Z</time></trkpt><trkpt lat="42.65617880539874" lon="-2.5044531614931422"><ele>772.0</ele><time>2026-03-22T10:08:18Z</time></trkpt><trkpt lat="42.65614145245574" lon="-2.5042703296668343"><ele>774.0</ele><time>2026-03-22T10:08:19Z</time></trkpt><trkpt lat="42.656118032967505" lon="-2.5040646551534618"><ele>776.0</ele><time>2026-03-22T10:08:20Z</time></trkpt><trkpt lat="42.65609306586077" lon="-2.5038453892385135"><ele>778.0</ele><time>2026-03-22T10:08:21Z</time></trkpt><trkpt lat="42.65606762839016" lon="-2.503613623930681"><ele>780.0</ele><time>2026-03-22T10:08:22Z</time></trkpt><trkpt lat="42.656045850812006" lon="-2.5033577566841076"><ele>782.0</ele><time>2026-03-22T10:08:23Z</time></trkpt><trkpt lat="42.65603241761442" lon="-2.503091856113106"><ele>783.3333333333334</ele><time>2026-03-22T10:08:24Z</time></trkpt><trkpt lat="42.65602790992518" lon="-2.5028442471790577"><ele>784.6666666666667</ele><time>2026-03-22T10:08:25Z</time></trkpt><trkpt lat="42.656046875423556" lon="-2.50260770566291"><ele>786.0</ele><time>2026-03-22T10:08:26Z</time></trkpt><trkpt lat="42.65604565344479" lon="-2.5023778859984223"><ele>786.0</ele><time>2026-03-22T10:08:27Z</time></trkpt><trkpt lat="42.65604976433131" lon="-2.502159242144852"><ele>786.0</ele><time>2026-03-22T10:08:28Z</time></trkpt><trkpt lat="42.656050908032306" lon="-2.501951576028326"><ele>786.0</ele><time>2026-03-22T10:08:29Z</time></trkpt><trkpt lat="42.65604783704793" lon="-2.5017633377271595"><ele>787.5</ele><time>2026-03-22T10:08:30Z</time></trkpt><trkpt lat="42.65600438594777" lon="-2.5015991313888044"><ele>789.0</ele><time>2026-03-22T10:08:31Z</time></trkpt><trkpt lat="42.655966809808746" lon="-2.501444790391996"><ele>790.5</ele><time>2026-03-22T10:08:32Z</time></trkpt><trkpt lat="42.655886285906924" lon="-2.50132813544332"><ele>792.0</ele><time>2026-03-22T10:08:33Z</time></trkpt><trkpt lat="42.65583054520793" lon="-2.501193071295991"><ele>793.0</ele><time>2026-03-22T10:08:34Z</time></trkpt><trkpt lat="42.655765211885914" lon="-2.5010730857914236"><ele>794.0</ele><time>2026-03-22T10:08:35Z</time></trkpt><trkpt lat="42.6556992071287" lon="-2.500952702704876"><ele>795.0</ele><time>2026-03-22T10:08:36Z</time></trkpt><trkpt lat="42.65564010927827" lon="-2.500845045190107"><ele>796.0</ele><time>2026-03-22T10:08:37Z</time></trkpt><trkpt lat="42.65559707041205" lon="-2.5007615297460215"><ele>797.0</ele><time>2026-03-22T10:08:38Z</time></trkpt><trkpt lat="42.6555334249322" lon="-2.5006627755542836"><ele>797.0</ele><time>2026-03-22T10:08:39.999Z</time></trkpt><trkpt lat="42.65557475709177" lon="-2.5007289034933033"><ele>797.0</ele><time>2026-03-22T10:09:05.999Z</time></trkpt><trkpt lat="42.655714018759696" lon="-2.500939219152325"><ele>797.0</ele><time>2026-03-22T10:09:07.999Z</time></trkpt><trkpt lat="42.65578152018483" lon="-2.501067989598859"><ele>797.0</ele><time>2026-03-22T10:09:08.999Z</time></trkpt><trkpt lat="42.65584631109871" lon="-2.5011960387256194"><ele>795.75</ele><time>2026-03-22T10:09:09.999Z</time></trkpt><trkpt lat="42.655915344527116" lon="-2.501336711824209"><ele>794.5</ele><time>2026-03-22T10:09:10.999Z</time></trkpt><trkpt lat="42.65597494611446" lon="-2.501479207595932"><ele>793.25</ele><time>2026-03-22T10:09:11.999Z</time></trkpt><trkpt lat="42.656018098297615" lon="-2.5016332113040587"><ele>792.0</ele><time>2026-03-22T10:09:12.999Z</time></trkpt><trkpt lat="42.65604812278366" lon="-2.50180354514682"><ele>792.0</ele><time>2026-03-22T10:09:13.999Z</time></trkpt><trkpt lat="42.65605814470127" lon="-2.501993434820092"><ele>792.0</ele><time>2026-03-22T10:09:14.999Z</time></trkpt><trkpt lat="42.65605468926203" lon="-2.5021635569366905"><ele>792.0</ele><time>2026-03-22T10:09:15.999Z</time></trkpt><trkpt lat="42.65605046301992" lon="-2.5023124298245256"><ele>792.0</ele><time>2026-03-22T10:09:16.999Z</time></trkpt><trkpt lat="42.65604595139532" lon="-2.5024167278258656"><ele>790.8</ele><time>2026-03-22T10:09:17.999Z</time></trkpt><trkpt lat="42.65606537579919" lon="-2.5025032623311456"><ele>789.6</ele><time>2026-03-22T10:09:18.999Z</time></trkpt><trkpt lat="42.65606394101105" lon="-2.5026172645668168"><ele>788.4</ele><time>2026-03-22T10:09:19.999Z</time></trkpt><trkpt lat="42.65605116342022" lon="-2.5027552533549327"><ele>787.1999999999999</ele><time>2026-03-22T10:09:20.999Z</time></trkpt><trkpt lat="42.65605972899533" lon="-2.50291801852187"><ele>786.0</ele><time>2026-03-22T10:09:21.999Z</time></trkpt><trkpt lat="42.65606289889279" lon="-2.5030909582618412"><ele>785.0</ele><time>2026-03-22T10:09:22.999Z</time></trkpt><trkpt lat="42.65607057719455" lon="-2.503277446693738"><ele>784.0</ele><time>2026-03-22T10:09:23.999Z</time></trkpt><trkpt lat="42.656078068860054" lon="-2.5034680189436664"><ele>783.0</ele><time>2026-03-22T10:09:24.999Z</time></trkpt><trkpt lat="42.65609378518663" lon="-2.503658924313323"><ele>782.0</ele><time>2026-03-22T10:09:25.999Z</time></trkpt><trkpt lat="42.65611433760552" lon="-2.503852237759278"><ele>780.75</ele><time>2026-03-22T10:09:26.999Z</time></trkpt><trkpt lat="42.65613893434338" lon="-2.504049102488437"><ele>779.5</ele><time>2026-03-22T10:09:27.999Z</time></trkpt><trkpt lat="42.656160657916196" lon="-2.504235030650555"><ele>778.25</ele><time>2026-03-22T10:09:28.999Z</time></trkpt><trkpt lat="42.65618329569954" lon="-2.504410773266137"><ele>777.0</ele><time>2026-03-22T10:09:29.999Z</time></trkpt><trkpt lat="42.656204472560866" lon="-2.5045786362073406"><ele>775.6</ele><time>2026-03-22T10:09:30.999Z</time></trkpt><trkpt lat="42.65622898463552" lon="-2.504733342802811"><ele>774.2</ele><time>2026-03-22T10:09:31.999Z</time></trkpt><trkpt lat="42.65626123802776" lon="-2.5048727464679175"><ele>772.8</ele><time>2026-03-22T10:09:32.999Z</time></trkpt><trkpt lat="42.6563224360449" lon="-2.504975902115481"><ele>771.4</ele><time>2026-03-22T10:09:33.999Z</time></trkpt><trkpt lat="42.656393895042314" lon="-2.505056946740399"><ele>770.0</ele><time>2026-03-22T10:09:34.999Z</time></trkpt><trkpt lat="42.656477115038626" lon="-2.5051286977640435"><ele>770.0</ele><time>2026-03-22T10:09:35.999Z</time></trkpt><trkpt lat="42.65657291189682" lon="-2.505216938936939"><ele>770.0</ele><time>2026-03-22T10:09:36.999Z</time></trkpt><trkpt lat="42.656651756782146" lon="-2.5053250325609997"><ele>770.0</ele><time>2026-03-22T10:09:37.999Z</time></trkpt><trkpt lat="42.656733581242484" lon="-2.505436541216243"><ele>770.0</ele><time>2026-03-22T10:09:38.999Z</time></trkpt><trkpt lat="42.65680312997142" lon="-2.5055702748337043"><ele>769.75</ele><time>2026-03-22T10:09:39.999Z</time></trkpt><trkpt lat="42.656876559538034" lon="-2.505708528590587"><ele>769.5</ele><time>2026-03-22T10:09:40.999Z</time></trkpt><trkpt lat="42.656952811118785" lon="-2.505837657742588"><ele>769.25</ele><time>2026-03-22T10:09:41.999Z</time></trkpt><trkpt lat="42.6570226757686" lon="-2.5059601317583398"><ele>769.0</ele><time>2026-03-22T10:09:42.999Z</time></trkpt><trkpt lat="42.657085469491065" lon="-2.506079703720118"><ele>768.9999999999999</ele><time>2026-03-22T10:09:43.999Z</time></trkpt><trkpt lat="42.65714320762423" lon="-2.506192206455888"><ele>769.0</ele><time>2026-03-22T10:09:44.999Z</time></trkpt><trkpt lat="42.65718909715619" lon="-2.50628415751355"><ele>769.0</ele><time>2026-03-22T10:09:45.998Z</time></trkpt><trkpt lat="42.65722545265142" lon="-2.506361949872565"><ele>769.0</ele><time>2026-03-22T10:09:46.998Z</time></trkpt><trkpt lat="42.65728685597034" lon="-2.506448608440264"><ele>768.9999999999999</ele><time>2026-03-22T10:09:48.998Z</time></trkpt><trkpt lat="42.65728700630235" lon="-2.506546528705803"><ele>769.0</ele><time>2026-03-22T10:10:01Z</time></trkpt><trkpt lat="42.65718621289325" lon="-2.506641620397716"><ele>769.2</ele><time>2026-03-22T10:10:03Z</time></trkpt><trkpt lat="42.657111915160044" lon="-2.5066959357980143"><ele>769.4000000000001</ele><time>2026-03-22T10:10:04Z</time></trkpt><trkpt lat="42.65702413921961" lon="-2.5067303855175136"><ele>769.6</ele><time>2026-03-22T10:10:05Z</time></trkpt><trkpt lat="42.65694014017554" lon="-2.506761972107476"><ele>769.8</ele><time>2026-03-22T10:10:06Z</time></trkpt><trkpt lat="42.656835996502934" lon="-2.5067984269350654"><ele>770.0</ele><time>2026-03-22T10:10:07Z</time></trkpt><trkpt lat="42.65672630331359" lon="-2.5068319648657167"><ele>769.4</ele><time>2026-03-22T10:10:08Z</time></trkpt><trkpt lat="42.656613331217216" lon="-2.506856260355533"><ele>768.8</ele><time>2026-03-22T10:10:09Z</time></trkpt><trkpt lat="42.65650151555028" lon="-2.5068618066832573"><ele>768.2</ele><time>2026-03-22T10:10:10Z</time></trkpt><trkpt lat="42.656393617171474" lon="-2.506832422759514"><ele>767.6</ele><time>2026-03-22T10:10:11Z</time></trkpt><trkpt lat="42.65629211639753" lon="-2.5067947122429612"><ele>767.0</ele><time>2026-03-22T10:10:12Z</time></trkpt><trkpt lat="42.656189420569035" lon="-2.5067842165190757"><ele>766.0</ele><time>2026-03-22T10:10:13Z</time></trkpt><trkpt lat="42.656077939433274" lon="-2.5067688779195003"><ele>765.0</ele><time>2026-03-22T10:10:14Z</time></trkpt><trkpt lat="42.655964574873614" lon="-2.506765729755348"><ele>764.0</ele><time>2026-03-22T10:10:15Z</time></trkpt><trkpt lat="42.6558500699194" lon="-2.50676805653862"><ele>763.0</ele><time>2026-03-22T10:10:16Z</time></trkpt><trkpt lat="42.65573521275385" lon="-2.5068260192277245"><ele>763.0</ele><time>2026-03-22T10:10:17Z</time></trkpt><trkpt lat="42.655611572194566" lon="-2.506870538934386"><ele>763.0</ele><time>2026-03-22T10:10:18Z</time></trkpt><trkpt lat="42.655478873437495" lon="-2.5069008093320506"><ele>763.0</ele><time>2026-03-22T10:10:19Z</time></trkpt><trkpt lat="42.65534151450169" lon="-2.5069608139223"><ele>763.0</ele><time>2026-03-22T10:10:20Z</time></trkpt><trkpt lat="42.65519537525456" lon="-2.507019424600004"><ele>763.3333333333334</ele><time>2026-03-22T10:10:21Z</time></trkpt><trkpt lat="42.65504781533813" lon="-2.5070946803065386"><ele>763.6666666666666</ele><time>2026-03-22T10:10:22Z</time></trkpt><trkpt lat="42.654891709421264" lon="-2.507153071515472"><ele>764.0</ele><time>2026-03-22T10:10:23Z</time></trkpt><trkpt lat="42.65473404266792" lon="-2.5072072175310907"><ele>764.0</ele><time>2026-03-22T10:10:24Z</time></trkpt><trkpt lat="42.65457516644507" lon="-2.507253957707232"><ele>764.0</ele><time>2026-03-22T10:10:25Z</time></trkpt><trkpt lat="42.65440866147316" lon="-2.5072887403289137"><ele>764.0</ele><time>2026-03-22T10:10:26Z</time></trkpt><trkpt lat="42.65423877881683" lon="-2.5072996887539314"><ele>762.6666666666666</ele><time>2026-03-22T10:10:27Z</time></trkpt><trkpt lat="42.654064931507484" lon="-2.5073272909200193"><ele>761.3333333333334</ele><time>2026-03-22T10:10:28Z</time></trkpt><trkpt lat="42.65388773678443" lon="-2.5073557560023123"><ele>760.0</ele><time>2026-03-22T10:10:29Z</time></trkpt><trkpt lat="42.653704827273586" lon="-2.5073827210193502"><ele>758.3333333333334</ele><time>2026-03-22T10:10:30Z</time></trkpt><trkpt lat="42.653523191659374" lon="-2.5074038721022642"><ele>756.6666666666666</ele><time>2026-03-22T10:10:31Z</time></trkpt><trkpt lat="42.65333726603549" lon="-2.5074266427729834"><ele>755.0</ele><time>2026-03-22T10:10:32Z</time></trkpt><trkpt lat="42.65315265783099" lon="-2.507451163168336"><ele>755.0</ele><time>2026-03-22T10:10:33Z</time></trkpt><trkpt lat="42.65296823590913" lon="-2.5074782316203637"><ele>755.0</ele><time>2026-03-22T10:10:34Z</time></trkpt><trkpt lat="42.652776333850035" lon="-2.5075075764812693"><ele>755.0</ele><time>2026-03-22T10:10:35Z</time></trkpt><trkpt lat="42.65258707767678" lon="-2.507538179774062"><ele>754.3333333333333</ele><time>2026-03-22T10:10:36Z</time></trkpt><trkpt lat="42.652396117873494" lon="-2.507567467622888"><ele>753.6666666666666</ele><time>2026-03-22T10:10:37Z</time></trkpt><trkpt lat="42.65220049892149" lon="-2.507595946209244"><ele>753.0</ele><time>2026-03-22T10:10:38Z</time></trkpt><trkpt lat="42.65200793867011" lon="-2.5076217358427346"><ele>752.6666666666666</ele><time>2026-03-22T10:10:39Z</time></trkpt><trkpt lat="42.65181152461118" lon="-2.5076428573620198"><ele>752.3333333333333</ele><time>2026-03-22T10:10:40Z</time></trkpt><trkpt lat="42.651618956372474" lon="-2.507668561008565"><ele>752.0</ele><time>2026-03-22T10:10:41Z</time></trkpt><trkpt lat="42.651425528425314" lon="-2.507696528894658"><ele>752.0</ele><time>2026-03-22T10:10:42Z</time></trkpt><trkpt lat="42.651240447713235" lon="-2.507725359810396"><ele>752.0</ele><time>2026-03-22T10:10:43Z</time></trkpt><trkpt lat="42.65106934353768" lon="-2.507748535193949"><ele>752.0</ele><time>2026-03-22T10:10:44Z</time></trkpt><trkpt lat="42.65092132038031" lon="-2.5077676924477386"><ele>751.5</ele><time>2026-03-22T10:10:45Z</time></trkpt><trkpt lat="42.65079748031203" lon="-2.5077952973599396"><ele>751.0</ele><time>2026-03-22T10:10:46Z</time></trkpt><trkpt lat="42.65067993279825" lon="-2.5078447312229883"><ele>750.5</ele><time>2026-03-22T10:10:47Z</time></trkpt><trkpt lat="42.65057528444077" lon="-2.507938118922334"><ele>750.0</ele><time>2026-03-22T10:10:47.999Z</time></trkpt><trkpt lat="42.6504500346336" lon="-2.508017177100947"><ele>751.3333333333334</ele><time>2026-03-22T10:10:48.999Z</time></trkpt><trkpt lat="42.65033191537168" lon="-2.508130581132016"><ele>752.6666666666667</ele><time>2026-03-22T10:10:49.999Z</time></trkpt><trkpt lat="42.65020490879827" lon="-2.508249153475038"><ele>754.0</ele><time>2026-03-22T10:10:50.999Z</time></trkpt><trkpt lat="42.650080508867944" lon="-2.5083658542324887"><ele>754.0</ele><time>2026-03-22T10:10:51.999Z</time></trkpt><trkpt lat="42.6499715475378" lon="-2.508479143278405"><ele>754.0</ele><time>2026-03-22T10:10:52.999Z</time></trkpt><trkpt lat="42.64988513306931" lon="-2.5086023843000693"><ele>754.0</ele><time>2026-03-22T10:10:53.999Z</time></trkpt><trkpt lat="42.64981976760368" lon="-2.508760367663962"><ele>754.0</ele><time>2026-03-22T10:10:54.999Z</time></trkpt><trkpt lat="42.649760384528925" lon="-2.5089456886848636"><ele>757.0</ele><time>2026-03-22T10:10:55.999Z</time></trkpt><trkpt lat="42.64969795621251" lon="-2.5091334895906554"><ele>760.0</ele><time>2026-03-22T10:10:56.999Z</time></trkpt><trkpt lat="42.6496226972254" lon="-2.509333539685674"><ele>763.0</ele><time>2026-03-22T10:10:57.999Z</time></trkpt><trkpt lat="42.649538424193906" lon="-2.5095421457515377"><ele>762.3333333333334</ele><time>2026-03-22T10:10:58.999Z</time></trkpt><trkpt lat="42.64945098655054" lon="-2.5097530099581826"><ele>761.6666666666666</ele><time>2026-03-22T10:10:59.999Z</time></trkpt><trkpt lat="42.64936109761941" lon="-2.5099728856878287"><ele>761.0</ele><time>2026-03-22T10:11:00.999Z</time></trkpt><trkpt lat="42.64927775929003" lon="-2.5101960221490907"><ele>762.0</ele><time>2026-03-22T10:11:01.999Z</time></trkpt><trkpt lat="42.64920930521287" lon="-2.5104096986011895"><ele>763.0</ele><time>2026-03-22T10:11:02.999Z</time></trkpt><trkpt lat="42.64917531071007" lon="-2.5106032374796086"><ele>764.0</ele><time>2026-03-22T10:11:03.999Z</time></trkpt><trkpt lat="42.6491556983726" lon="-2.5107913778796163"><ele>764.0</ele><time>2026-03-22T10:11:04.999Z</time></trkpt><trkpt lat="42.649147872353666" lon="-2.510972575460085"><ele>764.0</ele><time>2026-03-22T10:11:05.999Z</time></trkpt><trkpt lat="42.64915525484721" lon="-2.5111408807092834"><ele>764.0</ele><time>2026-03-22T10:11:06.999Z</time></trkpt><trkpt lat="42.64916188962073" lon="-2.5113089767169905"><ele>764.0</ele><time>2026-03-22T10:11:07.999Z</time></trkpt><trkpt lat="42.64916569108857" lon="-2.511480015842821"><ele>763.75</ele><time>2026-03-22T10:11:08.999Z</time></trkpt><trkpt lat="42.6491698572486" lon="-2.5116582371630534"><ele>763.5</ele><time>2026-03-22T10:11:09.999Z</time></trkpt><trkpt lat="42.64917728724308" lon="-2.5118412768131066"><ele>763.25</ele><time>2026-03-22T10:11:10.999Z</time></trkpt><trkpt lat="42.649184947962155" lon="-2.512034593264714"><ele>763.0</ele><time>2026-03-22T10:11:11.999Z</time></trkpt><trkpt lat="42.64919111141352" lon="-2.512233146190294"><ele>763.6666666666667</ele><time>2026-03-22T10:11:12.999Z</time></trkpt><trkpt lat="42.649195697860016" lon="-2.5124380977205796"><ele>764.3333333333334</ele><time>2026-03-22T10:11:13.999Z</time></trkpt><trkpt lat="42.649204026900186" lon="-2.512646058618494"><ele>765.0</ele><time>2026-03-22T10:11:14.999Z</time></trkpt><trkpt lat="42.649211559071915" lon="-2.512859776577762"><ele>764.6666666666666</ele><time>2026-03-22T10:11:15.999Z</time></trkpt><trkpt lat="42.649213339488284" lon="-2.5130887447173866"><ele>764.3333333333333</ele><time>2026-03-22T10:11:16.999Z</time></trkpt><trkpt lat="42.649196715394396" lon="-2.5133137746029584"><ele>764.0</ele><time>2026-03-22T10:11:17.999Z</time></trkpt><trkpt lat="42.649155223844794" lon="-2.5135396975913182"><ele>763.3333333333333</ele><time>2026-03-22T10:11:18.999Z</time></trkpt><trkpt lat="42.649112832504905" lon="-2.5137686884404875"><ele>762.6666666666666</ele><time>2026-03-22T10:11:19.999Z</time></trkpt><trkpt lat="42.64906920467721" lon="-2.514002262238453"><ele>762.0</ele><time>2026-03-22T10:11:20.999Z</time></trkpt><trkpt lat="42.64902445835743" lon="-2.514233306814313"><ele>762.0</ele><time>2026-03-22T10:11:21.999Z</time></trkpt><trkpt lat="42.64898110980102" lon="-2.5144594896004366"><ele>762.0</ele><time>2026-03-22T10:11:22.999Z</time></trkpt><trkpt lat="42.648942545833684" lon="-2.5146711809521185"><ele>762.0</ele><time>2026-03-22T10:11:23.999Z</time></trkpt><trkpt lat="42.64890924636388" lon="-2.5148676396625427"><ele>761.25</ele><time>2026-03-22T10:11:24.999Z</time></trkpt><trkpt lat="42.64887287068169" lon="-2.5150454733212064"><ele>760.5</ele><time>2026-03-22T10:11:25.999Z</time></trkpt><trkpt lat="42.648819415462" lon="-2.5152056713488844"><ele>759.75</ele><time>2026-03-22T10:11:26.999Z</time></trkpt><trkpt lat="42.64875890630684" lon="-2.515356661107436"><ele>759.0</ele><time>2026-03-22T10:11:27.999Z</time></trkpt><trkpt lat="42.64865522297526" lon="-2.515468002409485"><ele>758.5</ele><time>2026-03-22T10:11:28.999Z</time></trkpt><trkpt lat="42.64856629266443" lon="-2.5155801295071423"><ele>758.0</ele><time>2026-03-22T10:11:29.999Z</time></trkpt><trkpt lat="42.648476627606776" lon="-2.5156838494752036"><ele>757.5</ele><time>2026-03-22T10:11:30.999Z</time></trkpt><trkpt lat="42.6483910782149" lon="-2.515781424423881"><ele>757.0</ele><time>2026-03-22T10:11:31.999Z</time></trkpt><trkpt lat="42.64831065149242" lon="-2.5158765332974036"><ele>757.0</ele><time>2026-03-22T10:11:32.999Z</time></trkpt><trkpt lat="42.64823124934859" lon="-2.515973806248668"><ele>757.0</ele><time>2026-03-22T10:11:33.999Z</time></trkpt><trkpt lat="42.648150568511866" lon="-2.5160734258190156"><ele>757.0</ele><time>2026-03-22T10:11:34.999Z</time></trkpt><trkpt lat="42.64806199727874" lon="-2.516183132461306"><ele>757.0</ele><time>2026-03-22T10:11:35.999Z</time></trkpt><trkpt lat="42.64796569469267" lon="-2.5162998117809603"><ele>756.75</ele><time>2026-03-22T10:11:36.999Z</time></trkpt><trkpt lat="42.647867940573526" lon="-2.5164289348530287"><ele>756.5</ele><time>2026-03-22T10:11:37.999Z</time></trkpt><trkpt lat="42.64776068553412" lon="-2.5165656933121143"><ele>756.25</ele><time>2026-03-22T10:11:38.999Z</time></trkpt><trkpt lat="42.64765568965705" lon="-2.5167021012569855"><ele>756.0</ele><time>2026-03-22T10:11:39.999Z</time></trkpt><trkpt lat="42.64755017833535" lon="-2.5168392288999897"><ele>756.75</ele><time>2026-03-22T10:11:40.999Z</time></trkpt><trkpt lat="42.6474489729412" lon="-2.51698914192675"><ele>757.5</ele><time>2026-03-22T10:11:41.999Z</time></trkpt><trkpt lat="42.647363365554874" lon="-2.5171453719521724"><ele>758.25</ele><time>2026-03-22T10:11:42.999Z</time></trkpt><trkpt lat="42.64728130181515" lon="-2.517293049835571"><ele>759.0</ele><time>2026-03-22T10:11:43.999Z</time></trkpt><trkpt lat="42.647205735909345" lon="-2.5174321978717304"><ele>759.0</ele><time>2026-03-22T10:11:44.999Z</time></trkpt><trkpt lat="42.647139307282224" lon="-2.5175656704279787"><ele>759.0</ele><time>2026-03-22T10:11:45.999Z</time></trkpt><trkpt lat="42.64708258190061" lon="-2.5176935296491134"><ele>759.0</ele><time>2026-03-22T10:11:46.999Z</time></trkpt><trkpt lat="42.647036576519845" lon="-2.517815525466854"><ele>759.0</ele><time>2026-03-22T10:11:47.999Z</time></trkpt><trkpt lat="42.64700535173463" lon="-2.5179410350591573"><ele>759.0</ele><time>2026-03-22T10:11:48.999Z</time></trkpt><trkpt lat="42.646993425102224" lon="-2.5180777789047983"><ele>759.0</ele><time>2026-03-22T10:11:49.999Z</time></trkpt><trkpt lat="42.64699251670859" lon="-2.518208605035893"><ele>759.0</ele><time>2026-03-22T10:11:50.999Z</time></trkpt><trkpt lat="42.64700164535928" lon="-2.5183451644906785"><ele>759.0</ele><time>2026-03-22T10:11:51.999Z</time></trkpt><trkpt lat="42.64702471627346" lon="-2.518482445976071"><ele>759.0</ele><time>2026-03-22T10:11:52.999Z</time></trkpt><trkpt lat="42.64705144862106" lon="-2.5186249982704583"><ele>759.0</ele><time>2026-03-22T10:11:53.998Z</time></trkpt><trkpt lat="42.647073672334585" lon="-2.5187675767674995"><ele>758.0</ele><time>2026-03-22T10:11:54.998Z</time></trkpt><trkpt lat="42.64709346905594" lon="-2.5189186629101115"><ele>757.0</ele><time>2026-03-22T10:11:55.998Z</time></trkpt><trkpt lat="42.64711587540282" lon="-2.5190714756894295"><ele>756.0</ele><time>2026-03-22T10:11:56.998Z</time></trkpt><trkpt lat="42.647090875823075" lon="-2.519232371995298"><ele>755.0</ele><time>2026-03-22T10:11:57.998Z</time></trkpt><trkpt lat="42.64708431993595" lon="-2.5193962647830825"><ele>755.0</ele><time>2026-03-22T10:11:58.998Z</time></trkpt><trkpt lat="42.6470607214509" lon="-2.5195540211796352"><ele>755.0</ele><time>2026-03-22T10:11:59.998Z</time></trkpt><trkpt lat="42.647034381301886" lon="-2.51971308142689"><ele>755.0</ele><time>2026-03-22T10:12:00.998Z</time></trkpt><trkpt lat="42.64700090140607" lon="-2.51987470046721"><ele>755.0</ele><time>2026-03-22T10:12:01.998Z</time></trkpt><trkpt lat="42.64697095002959" lon="-2.520034010763088"><ele>755.5</ele><time>2026-03-22T10:12:02.998Z</time></trkpt><trkpt lat="42.64693027904668" lon="-2.5201967346534393"><ele>756.0</ele><time>2026-03-22T10:12:03.998Z</time></trkpt><trkpt lat="42.646896714170495" lon="-2.520361753207304"><ele>756.5</ele><time>2026-03-22T10:12:04.998Z</time></trkpt><trkpt lat="42.64687001612292" lon="-2.5205396922119285"><ele>757.0</ele><time>2026-03-22T10:12:05.998Z</time></trkpt><trkpt lat="42.646835279916125" lon="-2.5207238174856177"><ele>754.6666666666667</ele><time>2026-03-22T10:12:07Z</time></trkpt><trkpt lat="42.646795049793774" lon="-2.520920602744351"><ele>752.3333333333334</ele><time>2026-03-22T10:12:08Z</time></trkpt><trkpt lat="42.646748432959335" lon="-2.5211226165927725"><ele>750.0</ele><time>2026-03-22T10:12:09Z</time></trkpt><trkpt lat="42.64670400985744" lon="-2.5213327468650517"><ele>748.75</ele><time>2026-03-22T10:12:10Z</time></trkpt><trkpt lat="42.64666816486837" lon="-2.521529647149581"><ele>747.5</ele><time>2026-03-22T10:12:11Z</time></trkpt><trkpt lat="42.64663411190787" lon="-2.521710894421517"><ele>746.25</ele><time>2026-03-22T10:12:12Z</time></trkpt><trkpt lat="42.64659885588709" lon="-2.521879892550117"><ele>745.0</ele><time>2026-03-22T10:12:13Z</time></trkpt><trkpt lat="42.64658815031444" lon="-2.522023645900141"><ele>744.8</ele><time>2026-03-22T10:12:14Z</time></trkpt><trkpt lat="42.64653752036126" lon="-2.522140554860326"><ele>744.6</ele><time>2026-03-22T10:12:15Z</time></trkpt><trkpt lat="42.64648895122876" lon="-2.5222411290133255"><ele>744.4000000000001</ele><time>2026-03-22T10:12:16Z</time></trkpt><trkpt lat="42.646408513278494" lon="-2.5223227181403174"><ele>744.2</ele><time>2026-03-22T10:12:17Z</time></trkpt><trkpt lat="42.646314439142515" lon="-2.5223716492013337"><ele>744.0</ele><time>2026-03-22T10:12:18Z</time></trkpt><trkpt lat="42.64620866654352" lon="-2.522377294885009"><ele>743.6</ele><time>2026-03-22T10:12:19Z</time></trkpt><trkpt lat="42.646102710554075" lon="-2.522405974593306"><ele>743.2</ele><time>2026-03-22T10:12:20Z</time></trkpt><trkpt lat="42.64600082468249" lon="-2.5224174802233548"><ele>742.8000000000001</ele><time>2026-03-22T10:12:21Z</time></trkpt><trkpt lat="42.64588535006769" lon="-2.5224081581578455"><ele>742.4000000000001</ele><time>2026-03-22T10:12:22Z</time></trkpt><trkpt lat="42.6457671407006" lon="-2.522442646070758"><ele>742.0</ele><time>2026-03-22T10:12:23Z</time></trkpt><trkpt lat="42.64564636696625" lon="-2.5224728124610367"><ele>742.0</ele><time>2026-03-22T10:12:24Z</time></trkpt><trkpt lat="42.64552806729645" lon="-2.5224930359328317"><ele>742.0</ele><time>2026-03-22T10:12:25Z</time></trkpt><trkpt lat="42.64540634095954" lon="-2.522511681622046"><ele>742.0</ele><time>2026-03-22T10:12:26Z</time></trkpt><trkpt lat="42.64528837701687" lon="-2.522570783112181"><ele>742.0</ele><time>2026-03-22T10:12:27Z</time></trkpt><trkpt lat="42.64518676916311" lon="-2.5226688924714016"><ele>741.2</ele><time>2026-03-22T10:12:28Z</time></trkpt><trkpt lat="42.64512003401171" lon="-2.5227874828852923"><ele>740.4000000000001</ele><time>2026-03-22T10:12:29Z</time></trkpt><trkpt lat="42.645074359661066" lon="-2.5229206170930185"><ele>739.5999999999999</ele><time>2026-03-22T10:12:30Z</time></trkpt><trkpt lat="42.64502782925595" lon="-2.523058812491474"><ele>738.8</ele><time>2026-03-22T10:12:31Z</time></trkpt><trkpt lat="42.644981982267566" lon="-2.5231871087602635"><ele>738.0</ele><time>2026-03-22T10:12:32Z</time></trkpt><trkpt lat="42.644901412028545" lon="-2.5232937554329915"><ele>738.0</ele><time>2026-03-22T10:12:33Z</time></trkpt><trkpt lat="42.644802301601395" lon="-2.5233871436026534"><ele>738.0</ele><time>2026-03-22T10:12:34Z</time></trkpt><trkpt lat="42.644673699568955" lon="-2.523437095897018"><ele>738.0</ele><time>2026-03-22T10:12:35Z</time></trkpt><trkpt lat="42.64453392265077" lon="-2.523467172214102"><ele>738.0</ele><time>2026-03-22T10:12:36Z</time></trkpt><trkpt lat="42.64439090115437" lon="-2.523485511559854"><ele>734.75</ele><time>2026-03-22T10:12:37Z</time></trkpt><trkpt lat="42.64425572748217" lon="-2.5235229279322224"><ele>731.5</ele><time>2026-03-22T10:12:38Z</time></trkpt><trkpt lat="42.64413393172726" lon="-2.523557588834065"><ele>728.25</ele><time>2026-03-22T10:12:39Z</time></trkpt><trkpt lat="42.64402605430339" lon="-2.5236151858967233"><ele>725.0</ele><time>2026-03-22T10:12:40Z</time></trkpt><trkpt lat="42.64392553431208" lon="-2.5236919072543214"><ele>724.0</ele><time>2026-03-22T10:12:41Z</time></trkpt><trkpt lat="42.64383469076885" lon="-2.5238052712240298"><ele>723.0</ele><time>2026-03-22T10:12:42Z</time></trkpt><trkpt lat="42.64374577222129" lon="-2.5239393287737713"><ele>722.0</ele><time>2026-03-22T10:12:43Z</time></trkpt><trkpt lat="42.64366528716743" lon="-2.5240966372451443"><ele>721.0</ele><time>2026-03-22T10:12:44Z</time></trkpt><trkpt lat="42.64358012204221" lon="-2.52427409779073"><ele>721.0</ele><time>2026-03-22T10:12:45Z</time></trkpt><trkpt lat="42.64348616102376" lon="-2.524452283019501"><ele>721.0</ele><time>2026-03-22T10:12:46Z</time></trkpt><trkpt lat="42.64339460131253" lon="-2.524614045886666"><ele>721.0</ele><time>2026-03-22T10:12:47Z</time></trkpt><trkpt lat="42.64331504742017" lon="-2.524755394749867"><ele>721.0</ele><time>2026-03-22T10:12:48Z</time></trkpt><trkpt lat="42.643249229935044" lon="-2.52487550869583"><ele>720.5</ele><time>2026-03-22T10:12:48.999Z</time></trkpt><trkpt lat="42.64321406862099" lon="-2.5249869024903364"><ele>720.0</ele><time>2026-03-22T10:12:49.999Z</time></trkpt><trkpt lat="42.6432195672813" lon="-2.525259678631198"><ele>719.5</ele><time>2026-03-22T10:12:51.999Z</time></trkpt><trkpt lat="42.64327023377486" lon="-2.5253861413574947"><ele>719.0</ele><time>2026-03-22T10:12:52.999Z</time></trkpt><trkpt lat="42.64329198741337" lon="-2.525516173075114"><ele>718.6</ele><time>2026-03-22T10:12:53.999Z</time></trkpt><trkpt lat="42.643334164728174" lon="-2.5256220742812565"><ele>718.2</ele><time>2026-03-22T10:12:54.999Z</time></trkpt><trkpt lat="42.64335647057953" lon="-2.5257066456402413"><ele>717.8000000000001</ele><time>2026-03-22T10:12:55.999Z</time></trkpt><trkpt lat="42.643361492511815" lon="-2.5258148659303714"><ele>717.4000000000001</ele><time>2026-03-22T10:12:57.999Z</time></trkpt><trkpt lat="42.64324573910121" lon="-2.5258854574808556"><ele>717.0</ele><time>2026-03-22T10:13:01.999Z</time></trkpt><trkpt lat="42.64315411961167" lon="-2.5258473675100146"><ele>717.0</ele><time>2026-03-22T10:13:02.999Z</time></trkpt><trkpt lat="42.64302880339436" lon="-2.5258134838123314"><ele>717.0</ele><time>2026-03-22T10:13:03.999Z</time></trkpt><trkpt lat="42.64291263711658" lon="-2.5257920844450164"><ele>717.0</ele><time>2026-03-22T10:13:04.999Z</time></trkpt><trkpt lat="42.642795363597465" lon="-2.525767605714712"><ele>717.0</ele><time>2026-03-22T10:13:05.999Z</time></trkpt><trkpt lat="42.6426713991478" lon="-2.525733395404598"><ele>717.75</ele><time>2026-03-22T10:13:06.999Z</time></trkpt><trkpt lat="42.64255160577657" lon="-2.525677938397405"><ele>718.5</ele><time>2026-03-22T10:13:07.999Z</time></trkpt><trkpt lat="42.64243742961272" lon="-2.525622956438867"><ele>719.25</ele><time>2026-03-22T10:13:08.999Z</time></trkpt><trkpt lat="42.64232781405333" lon="-2.525538465874548"><ele>720.0</ele><time>2026-03-22T10:13:09.999Z</time></trkpt><trkpt lat="42.642240520317344" lon="-2.525419914248846"><ele>718.25</ele><time>2026-03-22T10:13:10.999Z</time></trkpt><trkpt lat="42.64216852815438" lon="-2.52527800149083"><ele>716.5</ele><time>2026-03-22T10:13:11.999Z</time></trkpt><trkpt lat="42.642097047848694" lon="-2.525125882053533"><ele>714.75</ele><time>2026-03-22T10:13:12.999Z</time></trkpt><trkpt lat="42.64203346170322" lon="-2.5249678851121597"><ele>713.0</ele><time>2026-03-22T10:13:13.999Z</time></trkpt><trkpt lat="42.64195923563629" lon="-2.5248033464552475"><ele>715.75</ele><time>2026-03-22T10:13:14.999Z</time></trkpt><trkpt lat="42.64188945354516" lon="-2.524643455154544"><ele>718.5</ele><time>2026-03-22T10:13:15.999Z</time></trkpt><trkpt lat="42.64181871484159" lon="-2.5244992108588873"><ele>721.25</ele><time>2026-03-22T10:13:16.999Z</time></trkpt><trkpt lat="42.64175431262545" lon="-2.524356824072852"><ele>724.0</ele><time>2026-03-22T10:13:17.999Z</time></trkpt><trkpt lat="42.64169078651626" lon="-2.5242140283325787"><ele>724.0</ele><time>2026-03-22T10:13:18.999Z</time></trkpt><trkpt lat="42.64163378296367" lon="-2.524071247150865"><ele>724.0</ele><time>2026-03-22T10:13:19.999Z</time></trkpt><trkpt lat="42.64157664127365" lon="-2.5239323139683174"><ele>724.0</ele><time>2026-03-22T10:13:20.999Z</time></trkpt><trkpt lat="42.64151765337915" lon="-2.523799482922537"><ele>724.0</ele><time>2026-03-22T10:13:21.999Z</time></trkpt><trkpt lat="42.64146021590376" lon="-2.5236710412452257"><ele>721.5</ele><time>2026-03-22T10:13:22.999Z</time></trkpt><trkpt lat="42.64140463313341" lon="-2.5235439841085032"><ele>719.0</ele><time>2026-03-22T10:13:23.999Z</time></trkpt><trkpt lat="42.64134592711519" lon="-2.523409017399584"><ele>716.5</ele><time>2026-03-22T10:13:24.999Z</time></trkpt><trkpt lat="42.641281942807296" lon="-2.5232605197298117"><ele>714.0</ele><time>2026-03-22T10:13:25.999Z</time></trkpt><trkpt lat="42.64120926999861" lon="-2.523084207970449"><ele>717.3333333333334</ele><time>2026-03-22T10:13:26.999Z</time></trkpt><trkpt lat="42.64112872624868" lon="-2.522887028877035"><ele>720.6666666666667</ele><time>2026-03-22T10:13:27.999Z</time></trkpt><trkpt lat="42.641036528754896" lon="-2.5226712609417223"><ele>724.0</ele><time>2026-03-22T10:13:28.999Z</time></trkpt><trkpt lat="42.6409545312076" lon="-2.522465701431557"><ele>724.0</ele><time>2026-03-22T10:13:29.999Z</time></trkpt><trkpt lat="42.64086756559574" lon="-2.522252840657128"><ele>724.0</ele><time>2026-03-22T10:13:30.999Z</time></trkpt><trkpt lat="42.640775204658844" lon="-2.5220457174813435"><ele>724.0</ele><time>2026-03-22T10:13:31.999Z</time></trkpt><trkpt lat="42.64066701987938" lon="-2.521861459527597"><ele>723.0</ele><time>2026-03-22T10:13:32.999Z</time></trkpt><trkpt lat="42.640567332735344" lon="-2.5216795970290895"><ele>722.0</ele><time>2026-03-22T10:13:33.999Z</time></trkpt><trkpt lat="42.64047597626608" lon="-2.5214966538735384"><ele>721.0</ele><time>2026-03-22T10:13:34.999Z</time></trkpt><trkpt lat="42.64035674385945" lon="-2.5213390183201985"><ele>719.6666666666667</ele><time>2026-03-22T10:13:35.999Z</time></trkpt><trkpt lat="42.64022048404828" lon="-2.5211926242381524"><ele>718.3333333333334</ele><time>2026-03-22T10:13:36.999Z</time></trkpt><trkpt lat="42.640073930751484" lon="-2.5210581863653627"><ele>717.0</ele><time>2026-03-22T10:13:37.999Z</time></trkpt><trkpt lat="42.63991186936141" lon="-2.5209376661690586"><ele>717.0</ele><time>2026-03-22T10:13:38.999Z</time></trkpt><trkpt lat="42.63973912272428" lon="-2.5208269351256214"><ele>717.0</ele><time>2026-03-22T10:13:39.999Z</time></trkpt><trkpt lat="42.63955853067548" lon="-2.520724088912304"><ele>717.0</ele><time>2026-03-22T10:13:40.999Z</time></trkpt><trkpt lat="42.63938020993198" lon="-2.5206388979116814"><ele>713.6666666666666</ele><time>2026-03-22T10:13:41.999Z</time></trkpt><trkpt lat="42.63920010598821" lon="-2.5205669399699837"><ele>710.3333333333333</ele><time>2026-03-22T10:13:42.999Z</time></trkpt><trkpt lat="42.639024454647725" lon="-2.5204887177278112"><ele>707.0</ele><time>2026-03-22T10:13:43.999Z</time></trkpt><trkpt lat="42.63884357785953" lon="-2.52040644932135"><ele>707.0</ele><time>2026-03-22T10:13:44.999Z</time></trkpt><trkpt lat="42.63866098533916" lon="-2.520314866601407"><ele>707.0</ele><time>2026-03-22T10:13:45.999Z</time></trkpt><trkpt lat="42.638482953623594" lon="-2.520200373799342"><ele>707.0</ele><time>2026-03-22T10:13:46.999Z</time></trkpt><trkpt lat="42.6383106812418" lon="-2.520057740517954"><ele>705.3333333333333</ele><time>2026-03-22T10:13:47.999Z</time></trkpt><trkpt lat="42.63814082595455" lon="-2.519896184118368"><ele>703.6666666666666</ele><time>2026-03-22T10:13:48.999Z</time></trkpt><trkpt lat="42.637972817920684" lon="-2.5197224130489873"><ele>702.0</ele><time>2026-03-22T10:13:49.999Z</time></trkpt><trkpt lat="42.63780337134013" lon="-2.5195407088091115"><ele>699.0</ele><time>2026-03-22T10:13:50.999Z</time></trkpt><trkpt lat="42.637634709537416" lon="-2.5193504849325703"><ele>696.0</ele><time>2026-03-22T10:13:51.999Z</time></trkpt><trkpt lat="42.63746650142962" lon="-2.5191547681390465"><ele>693.0</ele><time>2026-03-22T10:13:52.999Z</time></trkpt><trkpt lat="42.637298217019485" lon="-2.518956262689284"><ele>693.0</ele><time>2026-03-22T10:13:53.998Z</time></trkpt><trkpt lat="42.637128798057375" lon="-2.5187600572563116"><ele>693.0</ele><time>2026-03-22T10:13:54.998Z</time></trkpt><trkpt lat="42.63696079550883" lon="-2.5185638031783846"><ele>693.0</ele><time>2026-03-22T10:13:55.998Z</time></trkpt><trkpt lat="42.636794419592796" lon="-2.5183710819696405"><ele>691.6666666666666</ele><time>2026-03-22T10:13:56.998Z</time></trkpt><trkpt lat="42.636628802128286" lon="-2.518181289610499"><ele>690.3333333333333</ele><time>2026-03-22T10:13:57.998Z</time></trkpt><trkpt lat="42.63646760880585" lon="-2.517986948821651"><ele>689.0</ele><time>2026-03-22T10:13:58.998Z</time></trkpt><trkpt lat="42.63629512137442" lon="-2.5178116797334047"><ele>687.6666666666666</ele><time>2026-03-22T10:13:59.998Z</time></trkpt><trkpt lat="42.6361301319022" lon="-2.51762340972921"><ele>686.3333333333334</ele><time>2026-03-22T10:14:00.998Z</time></trkpt><trkpt lat="42.63596633781678" lon="-2.5174365037943534"><ele>685.0</ele><time>2026-03-22T10:14:01.998Z</time></trkpt><trkpt lat="42.63580528250721" lon="-2.5172527230807167"><ele>685.0</ele><time>2026-03-22T10:14:02.998Z</time></trkpt><trkpt lat="42.635645386103576" lon="-2.5170702647966063"><ele>685.0</ele><time>2026-03-22T10:14:03.998Z</time></trkpt><trkpt lat="42.635490925720106" lon="-2.516882906447587"><ele>685.0</ele><time>2026-03-22T10:14:04.998Z</time></trkpt><trkpt lat="42.63532976062103" lon="-2.5167070940168057"><ele>684.6666666666667</ele><time>2026-03-22T10:14:05.998Z</time></trkpt><trkpt lat="42.63517039580487" lon="-2.5165246002127257"><ele>684.3333333333334</ele><time>2026-03-22T10:14:06.998Z</time></trkpt><trkpt lat="42.63501175548589" lon="-2.5163370838275037"><ele>684.0</ele><time>2026-03-22T10:14:07.998Z</time></trkpt><trkpt lat="42.634848641075344" lon="-2.516146455673519"><ele>683.6666666666666</ele><time>2026-03-22T10:14:08.998Z</time></trkpt><trkpt lat="42.634685486445775" lon="-2.5159560515840638"><ele>683.3333333333333</ele><time>2026-03-22T10:14:09.998Z</time></trkpt><trkpt lat="42.63451711271647" lon="-2.5157644812197493"><ele>683.0</ele><time>2026-03-22T10:14:10.998Z</time></trkpt><trkpt lat="42.63434487233214" lon="-2.515571528737688"><ele>682.0</ele><time>2026-03-22T10:14:11.998Z</time></trkpt><trkpt lat="42.63417212199988" lon="-2.515375612624558"><ele>681.0</ele><time>2026-03-22T10:14:13Z</time></trkpt><trkpt lat="42.63399930460904" lon="-2.5151779046446947"><ele>681.0</ele><time>2026-03-22T10:14:14Z</time></trkpt><trkpt lat="42.6338246461547" lon="-2.514976999198438"><ele>681.0</ele><time>2026-03-22T10:14:15Z</time></trkpt><trkpt lat="42.63365076689544" lon="-2.5147731347464783"><ele>680.0</ele><time>2026-03-22T10:14:16Z</time></trkpt><trkpt lat="42.6334760258297" lon="-2.514567161260073"><ele>679.0</ele><time>2026-03-22T10:14:17Z</time></trkpt><trkpt lat="42.6332973525211" lon="-2.514361777905089"><ele>679.0</ele><time>2026-03-22T10:14:18Z</time></trkpt><trkpt lat="42.63311558698831" lon="-2.5141559464645846"><ele>679.0</ele><time>2026-03-22T10:14:19Z</time></trkpt><trkpt lat="42.63293285470459" lon="-2.513946962986544"><ele>679.5</ele><time>2026-03-22T10:14:20Z</time></trkpt><trkpt lat="42.63275034112465" lon="-2.513737735898191"><ele>680.0</ele><time>2026-03-22T10:14:21Z</time></trkpt><trkpt lat="42.632567001836755" lon="-2.5135264871508456"><ele>680.0</ele><time>2026-03-22T10:14:22Z</time></trkpt><trkpt lat="42.63238165645046" lon="-2.513316240642508"><ele>680.0</ele><time>2026-03-22T10:14:23Z</time></trkpt><trkpt lat="42.63219523843581" lon="-2.51310667593361"><ele>680.0</ele><time>2026-03-22T10:14:24Z</time></trkpt><trkpt lat="42.632009730696055" lon="-2.51289553095057"><ele>680.0</ele><time>2026-03-22T10:14:25Z</time></trkpt><trkpt lat="42.6318253072687" lon="-2.5126812018573936"><ele>680.0</ele><time>2026-03-22T10:14:26Z</time></trkpt><trkpt lat="42.63164066743084" lon="-2.512465684346701"><ele>680.0</ele><time>2026-03-22T10:14:27Z</time></trkpt><trkpt lat="42.63145878782927" lon="-2.5122546856715307"><ele>679.0</ele><time>2026-03-22T10:14:28Z</time></trkpt><trkpt lat="42.63127772739442" lon="-2.512045090293578"><ele>678.0</ele><time>2026-03-22T10:14:29Z</time></trkpt><trkpt lat="42.63109541623209" lon="-2.511840353669527"><ele>677.5</ele><time>2026-03-22T10:14:30Z</time></trkpt><trkpt lat="42.63091690684178" lon="-2.511635667636413"><ele>677.0</ele><time>2026-03-22T10:14:31Z</time></trkpt><trkpt lat="42.63074312848656" lon="-2.5114330426296116"><ele>677.5</ele><time>2026-03-22T10:14:32Z</time></trkpt><trkpt lat="42.6305706117061" lon="-2.5112324484330855"><ele>678.0</ele><time>2026-03-22T10:14:33Z</time></trkpt><trkpt lat="42.630400608196354" lon="-2.511032695934278"><ele>677.6666666666666</ele><time>2026-03-22T10:14:34Z</time></trkpt><trkpt lat="42.6302340286467" lon="-2.5108352961732625"><ele>677.3333333333333</ele><time>2026-03-22T10:14:35Z</time></trkpt><trkpt lat="42.63006758102689" lon="-2.5106439148890054"><ele>677.0</ele><time>2026-03-22T10:14:36Z</time></trkpt><trkpt lat="42.629901114278994" lon="-2.510450785578815"><ele>676.0</ele><time>2026-03-22T10:14:37Z</time></trkpt><trkpt lat="42.629725849376484" lon="-2.510277377592266"><ele>675.0</ele><time>2026-03-22T10:14:38Z</time></trkpt><trkpt lat="42.62957158401967" lon="-2.5100717113103377"><ele>674.0</ele><time>2026-03-22T10:14:39Z</time></trkpt><trkpt lat="42.62940667749611" lon="-2.5098851217807074"><ele>673.6666666666666</ele><time>2026-03-22T10:14:40Z</time></trkpt><trkpt lat="42.62924219191728" lon="-2.5096949760165455"><ele>673.3333333333334</ele><time>2026-03-22T10:14:41Z</time></trkpt><trkpt lat="42.62907798899291" lon="-2.50950355960787"><ele>673.0</ele><time>2026-03-22T10:14:42Z</time></trkpt><trkpt lat="42.62891421433228" lon="-2.5093120830405016"><ele>673.0</ele><time>2026-03-22T10:14:43Z</time></trkpt><trkpt lat="42.62874918938153" lon="-2.509121006446117"><ele>673.0</ele><time>2026-03-22T10:14:44Z</time></trkpt><trkpt lat="42.62858537689243" lon="-2.5089295655961896"><ele>673.0</ele><time>2026-03-22T10:14:45Z</time></trkpt><trkpt lat="42.62842172026631" lon="-2.5087403292743495"><ele>672.3333333333334</ele><time>2026-03-22T10:14:46Z</time></trkpt><trkpt lat="42.62827103699868" lon="-2.508567528361438"><ele>671.6666666666666</ele><time>2026-03-22T10:14:47Z</time></trkpt><trkpt lat="42.62813499524662" lon="-2.5084085141343135"><ele>671.0</ele><time>2026-03-22T10:14:48Z</time></trkpt><trkpt lat="42.627999432993846" lon="-2.508273482349612"><ele>671.0</ele><time>2026-03-22T10:14:49Z</time></trkpt><trkpt lat="42.62787468449939" lon="-2.5081251921715095"><ele>671.0</ele><time>2026-03-22T10:14:50Z</time></trkpt><trkpt lat="42.62774848945339" lon="-2.507975182803915"><ele>671.0</ele><time>2026-03-22T10:14:51Z</time></trkpt><trkpt lat="42.62762207274641" lon="-2.5078249099448886"><ele>674.0</ele><time>2026-03-22T10:14:52Z</time></trkpt><trkpt lat="42.62750129314056" lon="-2.507667550119355"><ele>677.0</ele><time>2026-03-22T10:14:53Z</time></trkpt><trkpt lat="42.627532684262455" lon="-2.507282089386553"><ele>677.3333333333333</ele><time>2026-03-22T10:14:54Z</time></trkpt><trkpt lat="42.62748463876007" lon="-2.5070334626783097"><ele>677.6666666666666</ele><time>2026-03-22T10:14:55Z</time></trkpt><trkpt lat="42.627447323262835" lon="-2.506778879159854"><ele>678.0</ele><time>2026-03-22T10:14:56Z</time></trkpt><trkpt lat="42.627427556624895" lon="-2.5065086446166687"><ele>677.0</ele><time>2026-03-22T10:14:57Z</time></trkpt><trkpt lat="42.62741735802707" lon="-2.506234743791958"><ele>676.0</ele><time>2026-03-22T10:14:58Z</time></trkpt><trkpt lat="42.627413361735194" lon="-2.50595004522855"><ele>675.0</ele><time>2026-03-22T10:14:59Z</time></trkpt><trkpt lat="42.62740939619781" lon="-2.5056591246940485"><ele>675.3333333333334</ele><time>2026-03-22T10:15:00Z</time></trkpt><trkpt lat="42.627398047054136" lon="-2.505363617460803"><ele>675.6666666666667</ele><time>2026-03-22T10:15:00.999Z</time></trkpt><trkpt lat="42.62738539982279" lon="-2.5050704067123153"><ele>676.0</ele><time>2026-03-22T10:15:01.999Z</time></trkpt><trkpt lat="42.62736878849792" lon="-2.5047760749127543"><ele>677.0</ele><time>2026-03-22T10:15:02.999Z</time></trkpt><trkpt lat="42.62734950677921" lon="-2.504484119012118"><ele>678.0</ele><time>2026-03-22T10:15:03.999Z</time></trkpt><trkpt lat="42.62733684338867" lon="-2.5041924009260956"><ele>679.0</ele><time>2026-03-22T10:15:04.999Z</time></trkpt><trkpt lat="42.62733096579147" lon="-2.503894046768182"><ele>678.3333333333334</ele><time>2026-03-22T10:15:05.999Z</time></trkpt><trkpt lat="42.62732751032873" lon="-2.5035985071876774"><ele>677.6666666666666</ele><time>2026-03-22T10:15:06.999Z</time></trkpt><trkpt lat="42.62732599110264" lon="-2.503306030133088"><ele>677.0</ele><time>2026-03-22T10:15:07.999Z</time></trkpt><trkpt lat="42.62732842435403" lon="-2.503015921452358"><ele>678.6666666666666</ele><time>2026-03-22T10:15:08.999Z</time></trkpt><trkpt lat="42.6273343106075" lon="-2.5027312915900652"><ele>680.3333333333334</ele><time>2026-03-22T10:15:09.999Z</time></trkpt><trkpt lat="42.627343929869035" lon="-2.5024480618605653"><ele>682.0</ele><time>2026-03-22T10:15:10.999Z</time></trkpt><trkpt lat="42.627353476913164" lon="-2.5021629286856077"><ele>683.3333333333334</ele><time>2026-03-22T10:15:11.999Z</time></trkpt><trkpt lat="42.62736146745708" lon="-2.501873199543444"><ele>684.6666666666666</ele><time>2026-03-22T10:15:12.999Z</time></trkpt><trkpt lat="42.62736576257558" lon="-2.5015795082946046"><ele>686.0</ele><time>2026-03-22T10:15:13.999Z</time></trkpt><trkpt lat="42.62737349862683" lon="-2.501287160324989"><ele>686.6666666666666</ele><time>2026-03-22T10:15:14.999Z</time></trkpt><trkpt lat="42.62738735378215" lon="-2.500999491870834"><ele>687.3333333333334</ele><time>2026-03-22T10:15:15.999Z</time></trkpt><trkpt lat="42.62740803913233" lon="-2.5007166879875915"><ele>688.0</ele><time>2026-03-22T10:15:16.999Z</time></trkpt><trkpt lat="42.62743783452862" lon="-2.5004413388345057"><ele>689.6666666666667</ele><time>2026-03-22T10:15:17.999Z</time></trkpt><trkpt lat="42.627464798547095" lon="-2.5001709669440957"><ele>691.3333333333334</ele><time>2026-03-22T10:15:18.999Z</time></trkpt><trkpt lat="42.62749714404114" lon="-2.4999132923340004"><ele>693.0</ele><time>2026-03-22T10:15:19.999Z</time></trkpt><trkpt lat="42.62751771630467" lon="-2.499691412533389"><ele>693.8</ele><time>2026-03-22T10:15:20.999Z</time></trkpt><trkpt lat="42.627533544947234" lon="-2.499519243877346"><ele>694.5999999999999</ele><time>2026-03-22T10:15:21.999Z</time></trkpt><trkpt lat="42.627549182267565" lon="-2.4993940398776755"><ele>695.4000000000001</ele><time>2026-03-22T10:15:22.999Z</time></trkpt><trkpt lat="42.62756411366617" lon="-2.4992586407594746"><ele>696.2</ele><time>2026-03-22T10:15:23.999Z</time></trkpt><trkpt lat="42.62758079387181" lon="-2.499119298117105"><ele>697.0</ele><time>2026-03-22T10:15:24.999Z</time></trkpt><trkpt lat="42.627594044263354" lon="-2.49898329312372"><ele>697.0</ele><time>2026-03-22T10:15:25.999Z</time></trkpt><trkpt lat="42.62760440883398" lon="-2.4988455483037644"><ele>697.0</ele><time>2026-03-22T10:15:26.999Z</time></trkpt><trkpt lat="42.62760873852398" lon="-2.498688710668559"><ele>697.0</ele><time>2026-03-22T10:15:27.999Z</time></trkpt><trkpt lat="42.62760662575415" lon="-2.498521515719323"><ele>697.0</ele><time>2026-03-22T10:15:28.999Z</time></trkpt><trkpt lat="42.627595863293095" lon="-2.4983546497374647"><ele>697.2</ele><time>2026-03-22T10:15:29.999Z</time></trkpt><trkpt lat="42.6275417025632" lon="-2.498205609145535"><ele>697.4000000000001</ele><time>2026-03-22T10:15:30.999Z</time></trkpt><trkpt lat="42.62752411611722" lon="-2.498063348253708"><ele>697.5999999999999</ele><time>2026-03-22T10:15:31.999Z</time></trkpt><trkpt lat="42.62751117309143" lon="-2.4979636087046124"><ele>697.8</ele><time>2026-03-22T10:15:32.999Z</time></trkpt><trkpt lat="42.627496559410105" lon="-2.4978597902296826"><ele>698.0</ele><time>2026-03-22T10:15:33.999Z</time></trkpt><trkpt lat="42.62747803414359" lon="-2.497728181030076"><ele>699.0</ele><time>2026-03-22T10:15:35.999Z</time></trkpt><trkpt lat="42.62746059047568" lon="-2.4976042496098483"><ele>700.0</ele><time>2026-03-22T10:15:38.999Z</time></trkpt><trkpt lat="42.62745879889092" lon="-2.497471919890677"><ele>701.0</ele><time>2026-03-22T10:15:40.999Z</time></trkpt><trkpt lat="42.62745405758262" lon="-2.497313081000491"><ele>702.0</ele><time>2026-03-22T10:15:42.999Z</time></trkpt><trkpt lat="42.62745890907537" lon="-2.497203175213561"><ele>703.0</ele><time>2026-03-22T10:15:43.999Z</time></trkpt><trkpt lat="42.62747370672834" lon="-2.497076916876039"><ele>703.5</ele><time>2026-03-22T10:15:44.999Z</time></trkpt><trkpt lat="42.627498404255675" lon="-2.496931717205327"><ele>704.0</ele><time>2026-03-22T10:15:45.999Z</time></trkpt><trkpt lat="42.6275410261031" lon="-2.496783280996349"><ele>704.5</ele><time>2026-03-22T10:15:46.999Z</time></trkpt><trkpt lat="42.6275700609131" lon="-2.496622468760083"><ele>705.0</ele><time>2026-03-22T10:15:47.999Z</time></trkpt><trkpt lat="42.62760422688485" lon="-2.496438944118795"><ele>706.0</ele><time>2026-03-22T10:15:48.999Z</time></trkpt><trkpt lat="42.62763042413645" lon="-2.4962333614813583"><ele>707.0</ele><time>2026-03-22T10:15:49.999Z</time></trkpt><trkpt lat="42.62766982795185" lon="-2.4960238292499097"><ele>708.0</ele><time>2026-03-22T10:15:50.999Z</time></trkpt><trkpt lat="42.627711175499904" lon="-2.4958100184026404"><ele>708.0</ele><time>2026-03-22T10:15:51.999Z</time></trkpt><trkpt lat="42.62775290260105" lon="-2.495592818092235"><ele>708.0</ele><time>2026-03-22T10:15:52.999Z</time></trkpt><trkpt lat="42.6277941747071" lon="-2.495371573876544"><ele>708.0</ele><time>2026-03-22T10:15:53.999Z</time></trkpt><trkpt lat="42.627839084648066" lon="-2.4951600013427075"><ele>704.6666666666666</ele><time>2026-03-22T10:15:54.999Z</time></trkpt><trkpt lat="42.62789805392782" lon="-2.494957296986804"><ele>701.3333333333333</ele><time>2026-03-22T10:15:55.999Z</time></trkpt><trkpt lat="42.62796963826508" lon="-2.4947738242240063"><ele>698.0</ele><time>2026-03-22T10:15:56.999Z</time></trkpt><trkpt lat="42.6280462980382" lon="-2.494594029585681"><ele>698.3333333333333</ele><time>2026-03-22T10:15:57.999Z</time></trkpt><trkpt lat="42.62813153827851" lon="-2.4944108459135617"><ele>698.6666666666666</ele><time>2026-03-22T10:15:58.999Z</time></trkpt><trkpt lat="42.628232264077475" lon="-2.494245645248041"><ele>699.0</ele><time>2026-03-22T10:15:59.999Z</time></trkpt><trkpt lat="42.628306671958526" lon="-2.4940875966538507"><ele>699.0</ele><time>2026-03-22T10:16:00.999Z</time></trkpt><trkpt lat="42.628368334955965" lon="-2.493958549775137"><ele>699.0</ele><time>2026-03-22T10:16:01.999Z</time></trkpt><trkpt lat="42.62841992141337" lon="-2.493856890348525"><ele>699.0</ele><time>2026-03-22T10:16:02.999Z</time></trkpt><trkpt lat="42.628465292696184" lon="-2.4937448048493582"><ele>699.0</ele><time>2026-03-22T10:16:04.998Z</time></trkpt><trkpt lat="42.62850435184812" lon="-2.4936750933927074"><ele>699.0</ele><time>2026-03-22T10:16:07.998Z</time></trkpt><trkpt lat="42.62866941582559" lon="-2.4938061025810416"><ele>697.75</ele><time>2026-03-22T10:16:08.998Z</time></trkpt><trkpt lat="42.628768434957" lon="-2.4938593445580692"><ele>696.5</ele><time>2026-03-22T10:16:09.998Z</time></trkpt><trkpt lat="42.62886858834797" lon="-2.4939220310818264"><ele>695.25</ele><time>2026-03-22T10:16:10.998Z</time></trkpt><trkpt lat="42.628973830520536" lon="-2.494000381723703"><ele>694.0</ele><time>2026-03-22T10:16:11.998Z</time></trkpt><trkpt lat="42.629081444341146" lon="-2.494087940738995"><ele>694.0</ele><time>2026-03-22T10:16:12.998Z</time></trkpt><trkpt lat="42.62919283465374" lon="-2.4941748801129577"><ele>694.0</ele><time>2026-03-22T10:16:13.998Z</time></trkpt><trkpt lat="42.629299381431615" lon="-2.4942362584667968"><ele>694.0</ele><time>2026-03-22T10:16:14.998Z</time></trkpt><trkpt lat="42.62941326385207" lon="-2.4942848176835226"><ele>694.0</ele><time>2026-03-22T10:16:15.998Z</time></trkpt><trkpt lat="42.62955507458549" lon="-2.494319542136645"><ele>691.5</ele><time>2026-03-22T10:16:16.998Z</time></trkpt><trkpt lat="42.629681561755575" lon="-2.4943591196351997"><ele>689.0</ele><time>2026-03-22T10:16:17.998Z</time></trkpt><trkpt lat="42.629811131412175" lon="-2.494416988883403"><ele>686.5</ele><time>2026-03-22T10:16:19Z</time></trkpt><trkpt lat="42.629940892941484" lon="-2.4945009563522267"><ele>684.0</ele><time>2026-03-22T10:16:20Z</time></trkpt><trkpt lat="42.63007246412996" lon="-2.4945982587273283"><ele>683.3333333333334</ele><time>2026-03-22T10:16:21Z</time></trkpt><trkpt lat="42.63020955084435" lon="-2.4947007292179166"><ele>682.6666666666667</ele><time>2026-03-22T10:16:22Z</time></trkpt><trkpt lat="42.630360814439435" lon="-2.4948050690686903"><ele>682.0</ele><time>2026-03-22T10:16:23Z</time></trkpt><trkpt lat="42.63052011828094" lon="-2.4949070352379117"><ele>679.6666666666667</ele><time>2026-03-22T10:16:24Z</time></trkpt><trkpt lat="42.63068633999135" lon="-2.495015889306013"><ele>677.3333333333334</ele><time>2026-03-22T10:16:25Z</time></trkpt><trkpt lat="42.6308611669733" lon="-2.4951233187849624"><ele>675.0</ele><time>2026-03-22T10:16:26Z</time></trkpt><trkpt lat="42.63104205976901" lon="-2.495235521866843"><ele>674.6666666666666</ele><time>2026-03-22T10:16:27Z</time></trkpt><trkpt lat="42.63121949191232" lon="-2.495349427318845"><ele>674.3333333333333</ele><time>2026-03-22T10:16:28Z</time></trkpt><trkpt lat="42.63138556350173" lon="-2.4954568496329657"><ele>674.0</ele><time>2026-03-22T10:16:29Z</time></trkpt><trkpt lat="42.63154549941915" lon="-2.4955504915634266"><ele>673.6666666666666</ele><time>2026-03-22T10:16:30Z</time></trkpt><trkpt lat="42.63169968007935" lon="-2.4956351979884315"><ele>673.3333333333334</ele><time>2026-03-22T10:16:31Z</time></trkpt><trkpt lat="42.631841184165445" lon="-2.495702501019264"><ele>673.0</ele><time>2026-03-22T10:16:32Z</time></trkpt><trkpt lat="42.63199203242712" lon="-2.495754248399682"><ele>672.3333333333334</ele><time>2026-03-22T10:16:33Z</time></trkpt><trkpt lat="42.63215420060074" lon="-2.4957865347796595"><ele>671.6666666666666</ele><time>2026-03-22T10:16:34Z</time></trkpt><trkpt lat="42.63232951032403" lon="-2.4958057557095863"><ele>671.0</ele><time>2026-03-22T10:16:35Z</time></trkpt><trkpt lat="42.63251052452796" lon="-2.4958232026407723"><ele>671.0</ele><time>2026-03-22T10:16:36Z</time></trkpt><trkpt lat="42.6326999629971" lon="-2.495842445389417"><ele>671.0</ele><time>2026-03-22T10:16:37Z</time></trkpt><trkpt lat="42.632887143570905" lon="-2.4958650434407144"><ele>671.0</ele><time>2026-03-22T10:16:38Z</time></trkpt><trkpt lat="42.633082060356415" lon="-2.495889236922778"><ele>670.0</ele><time>2026-03-22T10:16:39Z</time></trkpt><trkpt lat="42.63328183257429" lon="-2.495909622474383"><ele>669.0</ele><time>2026-03-22T10:16:40Z</time></trkpt><trkpt lat="42.63347713501571" lon="-2.495924349071948"><ele>668.0</ele><time>2026-03-22T10:16:41Z</time></trkpt><trkpt lat="42.63366297183532" lon="-2.495929454645936"><ele>667.0</ele><time>2026-03-22T10:16:42Z</time></trkpt><trkpt lat="42.63384948819495" lon="-2.495923252000283"><ele>666.0</ele><time>2026-03-22T10:16:43Z</time></trkpt><trkpt lat="42.63403562013002" lon="-2.4959083876115007"><ele>665.0</ele><time>2026-03-22T10:16:44Z</time></trkpt><trkpt lat="42.634203597904076" lon="-2.4958814120259283"><ele>665.0</ele><time>2026-03-22T10:16:45Z</time></trkpt><trkpt lat="42.63435875719388" lon="-2.4958525532188696"><ele>665.0</ele><time>2026-03-22T10:16:46Z</time></trkpt><trkpt lat="42.634502999230556" lon="-2.495811687910729"><ele>665.0</ele><time>2026-03-22T10:16:47Z</time></trkpt><trkpt lat="42.63464553018487" lon="-2.4957700109041143"><ele>664.75</ele><time>2026-03-22T10:16:48Z</time></trkpt><trkpt lat="42.634786782926646" lon="-2.4957356608450754"><ele>664.5</ele><time>2026-03-22T10:16:49Z</time></trkpt><trkpt lat="42.634923361909806" lon="-2.495707939678563"><ele>664.25</ele><time>2026-03-22T10:16:50Z</time></trkpt><trkpt lat="42.63505729228011" lon="-2.495690675764759"><ele>664.0</ele><time>2026-03-22T10:16:51Z</time></trkpt><trkpt lat="42.635177539562505" lon="-2.4956803789385322"><ele>664.0</ele><time>2026-03-22T10:16:52Z</time></trkpt><trkpt lat="42.63527608105417" lon="-2.4956835535366366"><ele>664.0</ele><time>2026-03-22T10:16:53Z</time></trkpt><trkpt lat="42.635350448088616" lon="-2.4956917323896253"><ele>664.0</ele><time>2026-03-22T10:16:54Z</time></trkpt><trkpt lat="42.63541844794191" lon="-2.4957180223930915"><ele>664.0</ele><time>2026-03-22T10:16:55Z</time></trkpt><trkpt lat="42.63548452676778" lon="-2.4957637530759516"><ele>664.0</ele><time>2026-03-22T10:16:56Z</time></trkpt><trkpt lat="42.6355645836113" lon="-2.4957781065701585"><ele>664.0</ele><time>2026-03-22T10:16:57Z</time></trkpt><trkpt lat="42.63564374772848" lon="-2.495737736624224"><ele>664.1666666666667</ele><time>2026-03-22T10:16:58Z</time></trkpt><trkpt lat="42.63572633427599" lon="-2.495665362025735"><ele>664.3333333333334</ele><time>2026-03-22T10:16:59Z</time></trkpt><trkpt lat="42.635795695904" lon="-2.4956062060049304"><ele>664.5</ele><time>2026-03-22T10:17:00Z</time></trkpt><trkpt lat="42.63585548173746" lon="-2.4955630934657695"><ele>664.6666666666666</ele><time>2026-03-22T10:17:01Z</time></trkpt><trkpt lat="42.63593705719067" lon="-2.495514962399864"><ele>664.8333333333333</ele><time>2026-03-22T10:17:03Z</time></trkpt><trkpt lat="42.636005539716095" lon="-2.495449373246847"><ele>665.0</ele><time>2026-03-22T10:17:17.999Z</time></trkpt><trkpt lat="42.63606428261665" lon="-2.4953560192953925"><ele>665.0</ele><time>2026-03-22T10:17:19.999Z</time></trkpt><trkpt lat="42.63612655345522" lon="-2.495221592166983"><ele>665.0</ele><time>2026-03-22T10:17:21.999Z</time></trkpt><trkpt lat="42.63616443158709" lon="-2.495139655870111"><ele>665.0</ele><time>2026-03-22T10:17:22.999Z</time></trkpt><trkpt lat="42.63620941228343" lon="-2.4950504833884994"><ele>665.0</ele><time>2026-03-22T10:17:23.999Z</time></trkpt><trkpt lat="42.6362602373463" lon="-2.494954214548166"><ele>665.0</ele><time>2026-03-22T10:17:24.999Z</time></trkpt><trkpt lat="42.63631716812621" lon="-2.4948470661706774"><ele>665.0</ele><time>2026-03-22T10:17:25.999Z</time></trkpt><trkpt lat="42.63637670411753" lon="-2.4947344094769766"><ele>665.0</ele><time>2026-03-22T10:17:26.999Z</time></trkpt><trkpt lat="42.636439345112734" lon="-2.4946154400365033"><ele>665.0</ele><time>2026-03-22T10:17:27.999Z</time></trkpt><trkpt lat="42.636500419575626" lon="-2.4945001615341695"><ele>665.0</ele><time>2026-03-22T10:17:28.999Z</time></trkpt><trkpt lat="42.636560816346886" lon="-2.494388435398674"><ele>665.0</ele><time>2026-03-22T10:17:29.999Z</time></trkpt><trkpt lat="42.63661894929181" lon="-2.4942826337110344"><ele>665.0</ele><time>2026-03-22T10:17:30.999Z</time></trkpt><trkpt lat="42.63667630854399" lon="-2.4941806079986906"><ele>665.0</ele><time>2026-03-22T10:17:31.999Z</time></trkpt><trkpt lat="42.63672881605089" lon="-2.494077819841511"><ele>665.0</ele><time>2026-03-22T10:17:32.999Z</time></trkpt><trkpt lat="42.63678112462487" lon="-2.4939759858440786"><ele>665.0</ele><time>2026-03-22T10:17:33.999Z</time></trkpt><trkpt lat="42.6368339931454" lon="-2.4938768892882024"><ele>665.0</ele><time>2026-03-22T10:17:34.999Z</time></trkpt><trkpt lat="42.63689059605253" lon="-2.4937764971706664"><ele>664.6</ele><time>2026-03-22T10:17:35.999Z</time></trkpt><trkpt lat="42.636953461021385" lon="-2.49367282836698"><ele>664.2</ele><time>2026-03-22T10:17:36.999Z</time></trkpt><trkpt lat="42.63701833902084" lon="-2.4935652245697635"><ele>663.8</ele><time>2026-03-22T10:17:37.999Z</time></trkpt><trkpt lat="42.637087828341215" lon="-2.4934534877914714"><ele>663.4</ele><time>2026-03-22T10:17:38.999Z</time></trkpt><trkpt lat="42.63715947153528" lon="-2.4933317055363258"><ele>663.0</ele><time>2026-03-22T10:17:39.999Z</time></trkpt><trkpt lat="42.63723933536668" lon="-2.4931954424626945"><ele>664.0</ele><time>2026-03-22T10:17:40.999Z</time></trkpt><trkpt lat="42.63732617975888" lon="-2.493055715488287"><ele>665.0</ele><time>2026-03-22T10:17:41.999Z</time></trkpt><trkpt lat="42.63741548740011" lon="-2.4929103778883355"><ele>666.0</ele><time>2026-03-22T10:17:42.999Z</time></trkpt><trkpt lat="42.63750568263561" lon="-2.4927612993059554"><ele>667.0</ele><time>2026-03-22T10:17:43.999Z</time></trkpt><trkpt lat="42.63759460444437" lon="-2.492611169697794"><ele>667.0</ele><time>2026-03-22T10:17:44.999Z</time></trkpt><trkpt lat="42.63768470491283" lon="-2.492461416433089"><ele>667.0</ele><time>2026-03-22T10:17:45.999Z</time></trkpt><trkpt lat="42.637775648082716" lon="-2.4923105527699057"><ele>667.0</ele><time>2026-03-22T10:17:46.999Z</time></trkpt><trkpt lat="42.63786535176034" lon="-2.4921609257297153"><ele>667.0</ele><time>2026-03-22T10:17:47.999Z</time></trkpt><trkpt lat="42.637952239923365" lon="-2.492004711994567"><ele>667.5</ele><time>2026-03-22T10:17:48.999Z</time></trkpt><trkpt lat="42.638037419757566" lon="-2.491850282687907"><ele>668.0</ele><time>2026-03-22T10:17:49.999Z</time></trkpt><trkpt lat="42.63812152687385" lon="-2.491698502064155"><ele>668.5</ele><time>2026-03-22T10:17:50.999Z</time></trkpt><trkpt lat="42.638196185845814" lon="-2.4915647044837095"><ele>669.0</ele><time>2026-03-22T10:17:51.999Z</time></trkpt><trkpt lat="42.63826447929472" lon="-2.491445271144248"><ele>669.0</ele><time>2026-03-22T10:17:52.999Z</time></trkpt><trkpt lat="42.63833053622033" lon="-2.491336760235419"><ele>669.0</ele><time>2026-03-22T10:17:53.999Z</time></trkpt><trkpt lat="42.63840553362084" lon="-2.4912162518980834"><ele>669.0</ele><time>2026-03-22T10:17:54.999Z</time></trkpt><trkpt lat="42.63849316254783" lon="-2.4910956766567365"><ele>669.0</ele><time>2026-03-22T10:17:55.999Z</time></trkpt><trkpt lat="42.63859051966842" lon="-2.490982417652977"><ele>669.0</ele><time>2026-03-22T10:17:56.999Z</time></trkpt><trkpt lat="42.638696667881796" lon="-2.4908705065465564"><ele>669.0</ele><time>2026-03-22T10:17:57.999Z</time></trkpt><trkpt lat="42.63881162735055" lon="-2.4907594731363214"><ele>669.0</ele><time>2026-03-22T10:17:58.999Z</time></trkpt><trkpt lat="42.63893004074193" lon="-2.490649117515026"><ele>669.0</ele><time>2026-03-22T10:17:59.999Z</time></trkpt><trkpt lat="42.63905691750946" lon="-2.4905400283272026"><ele>669.0</ele><time>2026-03-22T10:18:00.999Z</time></trkpt><trkpt lat="42.639186972585364" lon="-2.4904303545234434"><ele>669.0</ele><time>2026-03-22T10:18:01.999Z</time></trkpt><trkpt lat="42.63931642841519" lon="-2.490326926817278"><ele>669.0</ele><time>2026-03-22T10:18:02.999Z</time></trkpt><trkpt lat="42.639444363627746" lon="-2.490227249742969"><ele>669.75</ele><time>2026-03-22T10:18:03.999Z</time></trkpt><trkpt lat="42.63956519213026" lon="-2.4901265759318236"><ele>670.5</ele><time>2026-03-22T10:18:04.999Z</time></trkpt><trkpt lat="42.63968094640344" lon="-2.4900190680656413"><ele>671.25</ele><time>2026-03-22T10:18:05.999Z</time></trkpt><trkpt lat="42.639792438116416" lon="-2.4898909935625366"><ele>672.0</ele><time>2026-03-22T10:18:06.999Z</time></trkpt><trkpt lat="42.63990188828686" lon="-2.489747745047925"><ele>672.0</ele><time>2026-03-22T10:18:07.999Z</time></trkpt><trkpt lat="42.640011801481755" lon="-2.489593551244822"><ele>672.0</ele><time>2026-03-22T10:18:08.999Z</time></trkpt><trkpt lat="42.64011675306121" lon="-2.489437818410199"><ele>672.0</ele><time>2026-03-22T10:18:09.998Z</time></trkpt><trkpt lat="42.64021299094652" lon="-2.48928257214806"><ele>673.25</ele><time>2026-03-22T10:18:10.998Z</time></trkpt><trkpt lat="42.64030274980709" lon="-2.4891343031534117"><ele>674.5</ele><time>2026-03-22T10:18:11.998Z</time></trkpt><trkpt lat="42.640378226047254" lon="-2.488990802230651"><ele>675.75</ele><time>2026-03-22T10:18:12.998Z</time></trkpt><trkpt lat="42.64043178568925" lon="-2.4888387368583174"><ele>677.0</ele><time>2026-03-22T10:18:13.998Z</time></trkpt><trkpt lat="42.640479078968276" lon="-2.488664530931138"><ele>677.0</ele><time>2026-03-22T10:18:14.998Z</time></trkpt><trkpt lat="42.64051906624614" lon="-2.488476775334719"><ele>677.0</ele><time>2026-03-22T10:18:15.998Z</time></trkpt><trkpt lat="42.64056230920441" lon="-2.488274218960976"><ele>677.0</ele><time>2026-03-22T10:18:16.998Z</time></trkpt><trkpt lat="42.64060081518433" lon="-2.4880563024601083"><ele>676.6666666666666</ele><time>2026-03-22T10:18:17.998Z</time></trkpt><trkpt lat="42.64061988570154" lon="-2.4878370809470174"><ele>676.3333333333334</ele><time>2026-03-22T10:18:18.998Z</time></trkpt><trkpt lat="42.64063049999142" lon="-2.487623229912897"><ele>676.0</ele><time>2026-03-22T10:18:19.998Z</time></trkpt><trkpt lat="42.64064463630698" lon="-2.4874229212120023"><ele>676.0</ele><time>2026-03-22T10:18:20.998Z</time></trkpt><trkpt lat="42.64066995668386" lon="-2.4872287494396605"><ele>676.0</ele><time>2026-03-22T10:18:21.998Z</time></trkpt><trkpt lat="42.640708630115384" lon="-2.4870347947704032"><ele>676.0</ele><time>2026-03-22T10:18:22.998Z</time></trkpt><trkpt lat="42.64075213201799" lon="-2.486836953354083"><ele>676.0</ele><time>2026-03-22T10:18:23.998Z</time></trkpt><trkpt lat="42.64079418078807" lon="-2.4866285715661482"><ele>676.25</ele><time>2026-03-22T10:18:25Z</time></trkpt><trkpt lat="42.64082881547983" lon="-2.4864257875987814"><ele>676.5</ele><time>2026-03-22T10:18:26Z</time></trkpt><trkpt lat="42.6408582923307" lon="-2.486240757759804"><ele>676.75</ele><time>2026-03-22T10:18:27Z</time></trkpt><trkpt lat="42.640883455258574" lon="-2.486079109499611"><ele>677.0</ele><time>2026-03-22T10:18:28Z</time></trkpt><trkpt lat="42.640899164743296" lon="-2.485936091668429"><ele>677.0</ele><time>2026-03-22T10:18:29Z</time></trkpt><trkpt lat="42.640900218265934" lon="-2.485793102758524"><ele>677.0</ele><time>2026-03-22T10:18:30Z</time></trkpt><trkpt lat="42.640883612654875" lon="-2.4856282868996495"><ele>677.0</ele><time>2026-03-22T10:18:31Z</time></trkpt><trkpt lat="42.64084333976579" lon="-2.4854479150962763"><ele>677.0</ele><time>2026-03-22T10:18:32Z</time></trkpt><trkpt lat="42.640792369260495" lon="-2.4852542420676316"><ele>675.0</ele><time>2026-03-22T10:18:33Z</time></trkpt><trkpt lat="42.64075165228354" lon="-2.48506153232624"><ele>673.0</ele><time>2026-03-22T10:18:34Z</time></trkpt><trkpt lat="42.64071879786662" lon="-2.4848714964789953"><ele>671.0</ele><time>2026-03-22T10:18:35Z</time></trkpt><trkpt lat="42.64069111281374" lon="-2.484700526130372"><ele>669.0</ele><time>2026-03-22T10:18:36Z</time></trkpt><trkpt lat="42.64066680138108" lon="-2.4845575375868125"><ele>668.3333333333334</ele><time>2026-03-22T10:18:37Z</time></trkpt><trkpt lat="42.64064822208918" lon="-2.4844350627523597"><ele>667.6666666666666</ele><time>2026-03-22T10:18:38Z</time></trkpt><trkpt lat="42.64064213238624" lon="-2.484340784838334"><ele>667.0</ele><time>2026-03-22T10:18:39Z</time></trkpt><trkpt lat="42.64064799763491" lon="-2.4842263626047103"><ele>666.3333333333333</ele><time>2026-03-22T10:18:41Z</time></trkpt><trkpt lat="42.640754673872124" lon="-2.4841962781235933"><ele>665.6666666666666</ele><time>2026-03-22T10:18:44Z</time></trkpt><trkpt lat="42.640821571561915" lon="-2.484231500259236"><ele>665.0</ele><time>2026-03-22T10:18:45Z</time></trkpt><trkpt lat="42.640910232863476" lon="-2.484291738456171"><ele>665.0</ele><time>2026-03-22T10:18:46Z</time></trkpt><trkpt lat="42.64101739741725" lon="-2.4843630131962064"><ele>665.0</ele><time>2026-03-22T10:18:47Z</time></trkpt><trkpt lat="42.641132715731096" lon="-2.484436691656373"><ele>665.0</ele><time>2026-03-22T10:18:48Z</time></trkpt><trkpt lat="42.64124922565576" lon="-2.484502950218283"><ele>665.0</ele><time>2026-03-22T10:18:49Z</time></trkpt><trkpt lat="42.641373707293624" lon="-2.484574248482651"><ele>666.6666666666666</ele><time>2026-03-22T10:18:50Z</time></trkpt><trkpt lat="42.6415047041911" lon="-2.484647153532972"><ele>668.3333333333334</ele><time>2026-03-22T10:18:51Z</time></trkpt><trkpt lat="42.641647344572235" lon="-2.4847297343815633"><ele>670.0</ele><time>2026-03-22T10:18:52Z</time></trkpt><trkpt lat="42.64179723035764" lon="-2.4848178382131643"><ele>670.0</ele><time>2026-03-22T10:18:53Z</time></trkpt><trkpt lat="42.6419458121163" lon="-2.484909845923764"><ele>670.0</ele><time>2026-03-22T10:18:54Z</time></trkpt><trkpt lat="42.642093351663135" lon="-2.484990499334469"><ele>670.0</ele><time>2026-03-22T10:18:55Z</time></trkpt><trkpt lat="42.64224012622565" lon="-2.485031058881205"><ele>673.0</ele><time>2026-03-22T10:18:56Z</time></trkpt><trkpt lat="42.642390270719034" lon="-2.4850629822897474"><ele>676.0</ele><time>2026-03-22T10:18:57Z</time></trkpt><trkpt lat="42.64255350848101" lon="-2.485061627844863"><ele>679.0</ele><time>2026-03-22T10:18:58Z</time></trkpt><trkpt lat="42.64272043637451" lon="-2.4850448052919925"><ele>682.0</ele><time>2026-03-22T10:18:59Z</time></trkpt><trkpt lat="42.642900855599336" lon="-2.4850353333826893"><ele>685.0</ele><time>2026-03-22T10:19:00Z</time></trkpt><trkpt lat="42.643088339228186" lon="-2.4850728409910157"><ele>688.0</ele><time>2026-03-22T10:19:01Z</time></trkpt><trkpt lat="42.64326304793537" lon="-2.4851024427221113"><ele>688.0</ele><time>2026-03-22T10:19:02Z</time></trkpt><trkpt lat="42.64343961288173" lon="-2.4851712372617056"><ele>688.0</ele><time>2026-03-22T10:19:03Z</time></trkpt><trkpt lat="42.64361392466162" lon="-2.4852566865363546"><ele>688.0</ele><time>2026-03-22T10:19:04Z</time></trkpt><trkpt lat="42.6437931445789" lon="-2.485348097492809"><ele>687.75</ele><time>2026-03-22T10:19:05Z</time></trkpt><trkpt lat="42.643950302537654" lon="-2.48542774484027"><ele>687.5</ele><time>2026-03-22T10:19:06Z</time></trkpt><trkpt lat="42.64408300099318" lon="-2.4854710943969285"><ele>687.25</ele><time>2026-03-22T10:19:07Z</time></trkpt><trkpt lat="42.644200618682895" lon="-2.4855506825424802"><ele>687.0</ele><time>2026-03-22T10:19:08Z</time></trkpt><trkpt lat="42.644328920093116" lon="-2.4855561046881776"><ele>687.0</ele><time>2026-03-22T10:19:09Z</time></trkpt><trkpt lat="42.64445030884336" lon="-2.4855529479155622"><ele>687.0</ele><time>2026-03-22T10:19:10Z</time></trkpt><trkpt lat="42.644591957714034" lon="-2.4854956579107226"><ele>687.0</ele><time>2026-03-22T10:19:11Z</time></trkpt><trkpt lat="42.6447130147539" lon="-2.485403299915435"><ele>687.0</ele><time>2026-03-22T10:19:12Z</time></trkpt><trkpt lat="42.64483172990002" lon="-2.4852874960575337"><ele>687.6666666666666</ele><time>2026-03-22T10:19:13Z</time></trkpt><trkpt lat="42.64496919457106" lon="-2.485131397866909"><ele>688.3333333333333</ele><time>2026-03-22T10:19:13.999Z</time></trkpt><trkpt lat="42.64511505354958" lon="-2.484972630493371"><ele>689.0</ele><time>2026-03-22T10:19:14.999Z</time></trkpt><trkpt lat="42.64525846100204" lon="-2.4848165316009525"><ele>687.6666666666666</ele><time>2026-03-22T10:19:15.999Z</time></trkpt><trkpt lat="42.645414724786704" lon="-2.484674421713241"><ele>686.3333333333334</ele><time>2026-03-22T10:19:16.999Z</time></trkpt><trkpt lat="42.64555258652214" lon="-2.4844983406858954"><ele>685.0</ele><time>2026-03-22T10:19:17.999Z</time></trkpt><trkpt lat="42.64569755205649" lon="-2.4843507783950347"><ele>685.0</ele><time>2026-03-22T10:19:18.999Z</time></trkpt><trkpt lat="42.6458399621102" lon="-2.484232621657802"><ele>685.0</ele><time>2026-03-22T10:19:19.999Z</time></trkpt><trkpt lat="42.64597434709527" lon="-2.4841361965948416"><ele>685.0</ele><time>2026-03-22T10:19:20.999Z</time></trkpt><trkpt lat="42.64610928175364" lon="-2.4840642962680506"><ele>685.3333333333334</ele><time>2026-03-22T10:19:21.999Z</time></trkpt><trkpt lat="42.64624892493974" lon="-2.484030153542566"><ele>685.6666666666666</ele><time>2026-03-22T10:19:22.999Z</time></trkpt><trkpt lat="42.64642593761772" lon="-2.484038977716863"><ele>686.0</ele><time>2026-03-22T10:19:23.999Z</time></trkpt><trkpt lat="42.6466111517029" lon="-2.4840946604360403"><ele>686.0</ele><time>2026-03-22T10:19:24.999Z</time></trkpt><trkpt lat="42.646785245936854" lon="-2.4841817685459144"><ele>686.0</ele><time>2026-03-22T10:19:25.999Z</time></trkpt><trkpt lat="42.64696002331764" lon="-2.484290939415642"><ele>686.0</ele><time>2026-03-22T10:19:26.999Z</time></trkpt><trkpt lat="42.647145609067366" lon="-2.484388639616674"><ele>685.0</ele><time>2026-03-22T10:19:27.999Z</time></trkpt><trkpt lat="42.64733456124034" lon="-2.4844966656394694"><ele>684.0</ele><time>2026-03-22T10:19:28.999Z</time></trkpt><trkpt lat="42.647531864385634" lon="-2.4846113079012326"><ele>683.0</ele><time>2026-03-22T10:19:29.999Z</time></trkpt><trkpt lat="42.647738331873946" lon="-2.484733679522046"><ele>683.5</ele><time>2026-03-22T10:19:30.999Z</time></trkpt><trkpt lat="42.64794608082323" lon="-2.4848781781848452"><ele>684.0</ele><time>2026-03-22T10:19:31.999Z</time></trkpt><trkpt lat="42.648164081087124" lon="-2.4849871842605262"><ele>684.0</ele><time>2026-03-22T10:19:32.999Z</time></trkpt><trkpt lat="42.64837511407068" lon="-2.4851133072722655"><ele>684.0</ele><time>2026-03-22T10:19:33.999Z</time></trkpt><trkpt lat="42.6485735582807" lon="-2.485231906638796"><ele>684.0</ele><time>2026-03-22T10:19:34.999Z</time></trkpt><trkpt lat="42.64875567096189" lon="-2.4853407455462104"><ele>687.6666666666666</ele><time>2026-03-22T10:19:35.999Z</time></trkpt><trkpt lat="42.6489296124227" lon="-2.4854390468272776"><ele>691.3333333333333</ele><time>2026-03-22T10:19:36.999Z</time></trkpt><trkpt lat="42.64909254661609" lon="-2.485515698397922"><ele>695.0</ele><time>2026-03-22T10:19:37.999Z</time></trkpt><trkpt lat="42.64926162539585" lon="-2.4855566972554324"><ele>695.0</ele><time>2026-03-22T10:19:38.999Z</time></trkpt><trkpt lat="42.64944764395869" lon="-2.4855705977267233"><ele>695.0</ele><time>2026-03-22T10:19:39.999Z</time></trkpt><trkpt lat="42.64964893334982" lon="-2.485547975991834"><ele>695.0</ele><time>2026-03-22T10:19:40.999Z</time></trkpt><trkpt lat="42.649859963829996" lon="-2.4855114740977977"><ele>696.3333333333333</ele><time>2026-03-22T10:19:41.999Z</time></trkpt><trkpt lat="42.65007574850148" lon="-2.4854712212591705"><ele>697.6666666666666</ele><time>2026-03-22T10:19:42.999Z</time></trkpt><trkpt lat="42.650291204010884" lon="-2.485433155005717"><ele>699.0</ele><time>2026-03-22T10:19:43.999Z</time></trkpt><trkpt lat="42.6504955761619" lon="-2.485397564149465"><ele>696.3333333333334</ele><time>2026-03-22T10:19:44.999Z</time></trkpt><trkpt lat="42.65069761894059" lon="-2.485385025987512"><ele>693.6666666666667</ele><time>2026-03-22T10:19:45.999Z</time></trkpt><trkpt lat="42.65088101049254" lon="-2.4853292559099742"><ele>691.0</ele><time>2026-03-22T10:19:46.999Z</time></trkpt><trkpt lat="42.65104637718465" lon="-2.4852806587829104"><ele>692.6666666666667</ele><time>2026-03-22T10:19:47.999Z</time></trkpt><trkpt lat="42.651188812049725" lon="-2.4852074205356804"><ele>694.3333333333334</ele><time>2026-03-22T10:19:48.999Z</time></trkpt><trkpt lat="42.65132612610106" lon="-2.4851032280294216"><ele>696.0</ele><time>2026-03-22T10:19:49.999Z</time></trkpt><trkpt lat="42.65145248231064" lon="-2.484951532770322"><ele>696.0</ele><time>2026-03-22T10:19:50.999Z</time></trkpt><trkpt lat="42.651556789083905" lon="-2.484760639447666"><ele>696.0</ele><time>2026-03-22T10:19:51.999Z</time></trkpt><trkpt lat="42.65164758694759" lon="-2.4845447701183345"><ele>696.0</ele><time>2026-03-22T10:19:52.999Z</time></trkpt><trkpt lat="42.65171893438937" lon="-2.4843353505128847"><ele>695.6666666666666</ele><time>2026-03-22T10:19:53.999Z</time></trkpt><trkpt lat="42.65179757084769" lon="-2.4841013094791946"><ele>695.3333333333333</ele><time>2026-03-22T10:19:54.999Z</time></trkpt><trkpt lat="42.651888749732066" lon="-2.4838916064554843"><ele>695.0</ele><time>2026-03-22T10:19:55.999Z</time></trkpt><trkpt lat="42.65199578238869" lon="-2.483747115535806"><ele>694.75</ele><time>2026-03-22T10:19:56.999Z</time></trkpt><trkpt lat="42.652099299119044" lon="-2.4836231774165096"><ele>694.5</ele><time>2026-03-22T10:19:57.999Z</time></trkpt><trkpt lat="42.65221370436341" lon="-2.4835432152344334"><ele>694.25</ele><time>2026-03-22T10:19:58.999Z</time></trkpt><trkpt lat="42.652345366278524" lon="-2.4834766718838006"><ele>694.0</ele><time>2026-03-22T10:19:59.999Z</time></trkpt><trkpt lat="42.65249426335601" lon="-2.4834404849742358"><ele>694.0</ele><time>2026-03-22T10:20:00.999Z</time></trkpt><trkpt lat="42.652659994987694" lon="-2.483426320678554"><ele>694.0</ele><time>2026-03-22T10:20:01.999Z</time></trkpt><trkpt lat="42.652841417883145" lon="-2.4834524708373498"><ele>694.0</ele><time>2026-03-22T10:20:02.999Z</time></trkpt><trkpt lat="42.65303462491651" lon="-2.4834952223429125"><ele>693.6666666666667</ele><time>2026-03-22T10:20:03.999Z</time></trkpt><trkpt lat="42.65323723897965" lon="-2.483547243088979"><ele>693.3333333333334</ele><time>2026-03-22T10:20:04.999Z</time></trkpt><trkpt lat="42.6534486027372" lon="-2.483567134426579"><ele>693.0</ele><time>2026-03-22T10:20:05.999Z</time></trkpt><trkpt lat="42.65365445758582" lon="-2.4836269193824956"><ele>695.3333333333334</ele><time>2026-03-22T10:20:06.999Z</time></trkpt><trkpt lat="42.653860190440064" lon="-2.483662247239267"><ele>697.6666666666667</ele><time>2026-03-22T10:20:07.999Z</time></trkpt><trkpt lat="42.65406570074646" lon="-2.483698441250732"><ele>700.0</ele><time>2026-03-22T10:20:08.999Z</time></trkpt><trkpt lat="42.654267166287994" lon="-2.4837329788231113"><ele>702.0</ele><time>2026-03-22T10:20:09.999Z</time></trkpt><trkpt lat="42.65446318058448" lon="-2.483774400668782"><ele>704.0</ele><time>2026-03-22T10:20:10.999Z</time></trkpt><trkpt lat="42.654638983771875" lon="-2.48381345184804"><ele>706.0</ele><time>2026-03-22T10:20:11.999Z</time></trkpt><trkpt lat="42.65479952030997" lon="-2.483824346376493"><ele>706.0</ele><time>2026-03-22T10:20:12.999Z</time></trkpt><trkpt lat="42.654940413830296" lon="-2.4838756873448853"><ele>706.0</ele><time>2026-03-22T10:20:13.999Z</time></trkpt><trkpt lat="42.65506743652723" lon="-2.483879072214943"><ele>706.0</ele><time>2026-03-22T10:20:14.998Z</time></trkpt><trkpt lat="42.65517378063436" lon="-2.4838855401894326"><ele>706.0</ele><time>2026-03-22T10:20:15.998Z</time></trkpt><trkpt lat="42.65527222680049" lon="-2.4838741710988694"><ele>705.75</ele><time>2026-03-22T10:20:16.998Z</time></trkpt><trkpt lat="42.65535712015985" lon="-2.4838071673548816"><ele>705.5</ele><time>2026-03-22T10:20:17.998Z</time></trkpt><trkpt lat="42.65546249612157" lon="-2.483738026149984"><ele>705.25</ele><time>2026-03-22T10:20:18.998Z</time></trkpt><trkpt lat="42.6555786417588" lon="-2.483683306067905"><ele>705.0</ele><time>2026-03-22T10:20:19.998Z</time></trkpt><trkpt lat="42.6556982852449" lon="-2.483586583532515"><ele>706.0</ele><time>2026-03-22T10:20:20.998Z</time></trkpt><trkpt lat="42.655796690651165" lon="-2.4834541077485595"><ele>707.0</ele><time>2026-03-22T10:20:21.998Z</time></trkpt><trkpt lat="42.6558823788828" lon="-2.4832968169150376"><ele>708.0</ele><time>2026-03-22T10:20:22.998Z</time></trkpt><trkpt lat="42.65597223597294" lon="-2.48310154605671"><ele>709.0</ele><time>2026-03-22T10:20:23.998Z</time></trkpt><trkpt lat="42.65606382219396" lon="-2.482885239380352"><ele>710.0</ele><time>2026-03-22T10:20:24.998Z</time></trkpt><trkpt lat="42.656167082041456" lon="-2.4826515688617348"><ele>711.0</ele><time>2026-03-22T10:20:25.998Z</time></trkpt><trkpt lat="42.656273239313414" lon="-2.482411341692633"><ele>711.0</ele><time>2026-03-22T10:20:26.998Z</time></trkpt><trkpt lat="42.65637687571419" lon="-2.4821780335001833"><ele>711.0</ele><time>2026-03-22T10:20:27.998Z</time></trkpt><trkpt lat="42.65648572592363" lon="-2.481935173916327"><ele>711.0</ele><time>2026-03-22T10:20:28.998Z</time></trkpt><trkpt lat="42.65659946281517" lon="-2.4816868595096784"><ele>712.0</ele><time>2026-03-22T10:20:29.998Z</time></trkpt><trkpt lat="42.656715778695144" lon="-2.4814283800581056"><ele>713.0</ele><time>2026-03-22T10:20:31Z</time></trkpt><trkpt lat="42.656831767890914" lon="-2.48116526243254"><ele>714.0</ele><time>2026-03-22T10:20:32Z</time></trkpt><trkpt lat="42.65695115065602" lon="-2.4808992026918872"><ele>714.3333333333334</ele><time>2026-03-22T10:20:33Z</time></trkpt><trkpt lat="42.65706898219953" lon="-2.480637977310411"><ele>714.6666666666667</ele><time>2026-03-22T10:20:34Z</time></trkpt><trkpt lat="42.65717823693427" lon="-2.480395818273801"><ele>715.0</ele><time>2026-03-22T10:20:35Z</time></trkpt><trkpt lat="42.65727896902983" lon="-2.480175553890281"><ele>716.3333333333334</ele><time>2026-03-22T10:20:36Z</time></trkpt><trkpt lat="42.65736939652631" lon="-2.479978925575307"><ele>717.6666666666666</ele><time>2026-03-22T10:20:37Z</time></trkpt><trkpt lat="42.657452560777685" lon="-2.479801856591677"><ele>719.0</ele><time>2026-03-22T10:20:38Z</time></trkpt><trkpt lat="42.65751593166206" lon="-2.479639922594659"><ele>720.5</ele><time>2026-03-22T10:20:39Z</time></trkpt><trkpt lat="42.657558236538414" lon="-2.47948881982741"><ele>722.0</ele><time>2026-03-22T10:20:40Z</time></trkpt><trkpt lat="42.657571353754136" lon="-2.4793261086401146"><ele>723.5</ele><time>2026-03-22T10:20:41Z</time></trkpt><trkpt lat="42.6575633190824" lon="-2.4791507495598424"><ele>725.0</ele><time>2026-03-22T10:20:42Z</time></trkpt><trkpt lat="42.657527697038006" lon="-2.4789737285007596"><ele>725.0</ele><time>2026-03-22T10:20:43Z</time></trkpt><trkpt lat="42.657455669748316" lon="-2.478808293836174"><ele>725.0</ele><time>2026-03-22T10:20:44Z</time></trkpt><trkpt lat="42.657368255855786" lon="-2.478628297948663"><ele>725.0</ele><time>2026-03-22T10:20:45Z</time></trkpt><trkpt lat="42.65727333346976" lon="-2.4784443467487964"><ele>725.75</ele><time>2026-03-22T10:20:46Z</time></trkpt><trkpt lat="42.65717261459243" lon="-2.4782587910476326"><ele>726.5</ele><time>2026-03-22T10:20:47Z</time></trkpt><trkpt lat="42.65708299522494" lon="-2.4780992248830667"><ele>727.25</ele><time>2026-03-22T10:20:48Z</time></trkpt><trkpt lat="42.65701014169293" lon="-2.4779697143603467"><ele>728.0</ele><time>2026-03-22T10:20:49Z</time></trkpt><trkpt lat="42.65695762251864" lon="-2.47784805588494"><ele>729.5999999999999</ele><time>2026-03-22T10:20:50Z</time></trkpt><trkpt lat="42.65692500215564" lon="-2.4777309015310376"><ele>731.1999999999999</ele><time>2026-03-22T10:20:51Z</time></trkpt><trkpt lat="42.65691475938786" lon="-2.47760223739455"><ele>732.8</ele><time>2026-03-22T10:20:52Z</time></trkpt><trkpt lat="42.65696970274347" lon="-2.477476852286944"><ele>734.4</ele><time>2026-03-22T10:20:53Z</time></trkpt><trkpt lat="42.65703635041602" lon="-2.477346360178156"><ele>736.0</ele><time>2026-03-22T10:20:54Z</time></trkpt><trkpt lat="42.65708092621701" lon="-2.4771878786587003"><ele>737.25</ele><time>2026-03-22T10:20:55Z</time></trkpt><trkpt lat="42.65712612486178" lon="-2.477015077656412"><ele>738.5</ele><time>2026-03-22T10:20:56Z</time></trkpt><trkpt lat="42.65717042550439" lon="-2.476833430099981"><ele>739.75</ele><time>2026-03-22T10:20:57Z</time></trkpt><trkpt lat="42.6572029643177" lon="-2.476665220236725"><ele>741.0</ele><time>2026-03-22T10:20:58Z</time></trkpt><trkpt lat="42.6572140078037" lon="-2.476531279756928"><ele>741.0</ele><time>2026-03-22T10:20:59Z</time></trkpt><trkpt lat="42.657193807757764" lon="-2.4764071767711955"><ele>741.0</ele><time>2026-03-22T10:21:00Z</time></trkpt><trkpt lat="42.65714155766713" lon="-2.4762730572477225"><ele>741.0</ele><time>2026-03-22T10:21:01Z</time></trkpt><trkpt lat="42.65708262692884" lon="-2.476117941887027"><ele>741.0</ele><time>2026-03-22T10:21:02Z</time></trkpt><trkpt lat="42.657037776875654" lon="-2.475944524447281"><ele>741.5</ele><time>2026-03-22T10:21:03Z</time></trkpt><trkpt lat="42.656969486091164" lon="-2.4757812469097376"><ele>742.0</ele><time>2026-03-22T10:21:04Z</time></trkpt><trkpt lat="42.65693659027221" lon="-2.475589886364558"><ele>742.5</ele><time>2026-03-22T10:21:05Z</time></trkpt><trkpt lat="42.656929337451984" lon="-2.4753809518286385"><ele>743.0</ele><time>2026-03-22T10:21:06Z</time></trkpt><trkpt lat="42.65693596080413" lon="-2.475180575492568"><ele>744.0</ele><time>2026-03-22T10:21:07Z</time></trkpt><trkpt lat="42.656947202834594" lon="-2.4750130089647966"><ele>745.0</ele><time>2026-03-22T10:21:08Z</time></trkpt><trkpt lat="42.65696669795251" lon="-2.4748777305466003"><ele>746.0</ele><time>2026-03-22T10:21:09Z</time></trkpt><trkpt lat="42.65701496920161" lon="-2.474785802783475"><ele>747.0</ele><time>2026-03-22T10:21:10Z</time></trkpt><trkpt lat="42.657047972961806" lon="-2.474704225377508"><ele>748.0</ele><time>2026-03-22T10:21:11Z</time></trkpt><trkpt lat="42.657133618572395" lon="-2.4746945836230054"><ele>748.2</ele><time>2026-03-22T10:21:12Z</time></trkpt><trkpt lat="42.65721712152996" lon="-2.4747198713575957"><ele>748.4</ele><time>2026-03-22T10:21:13Z</time></trkpt><trkpt lat="42.65728917559767" lon="-2.474796659073862"><ele>748.6</ele><time>2026-03-22T10:21:14Z</time></trkpt><trkpt lat="42.657345099530396" lon="-2.474910323019537"><ele>748.8000000000001</ele><time>2026-03-22T10:21:15Z</time></trkpt><trkpt lat="42.6573868220819" lon="-2.4750573160343867"><ele>749.0</ele><time>2026-03-22T10:21:16Z</time></trkpt><trkpt lat="42.65742343749593" lon="-2.4752122486682966"><ele>749.0</ele><time>2026-03-22T10:21:17Z</time></trkpt><trkpt lat="42.65746985386892" lon="-2.4753411775122576"><ele>749.0</ele><time>2026-03-22T10:21:18Z</time></trkpt><trkpt lat="42.65750783156716" lon="-2.475449992394206"><ele>749.0</ele><time>2026-03-22T10:21:19Z</time></trkpt><trkpt lat="42.65754500280584" lon="-2.475547288965199"><ele>749.0</ele><time>2026-03-22T10:21:20Z</time></trkpt><trkpt lat="42.657586754996984" lon="-2.4756175652327266"><ele>749.0</ele><time>2026-03-22T10:21:21Z</time></trkpt><trkpt lat="42.65763752150877" lon="-2.475674118639105"><ele>749.0</ele><time>2026-03-22T10:21:22Z</time></trkpt><trkpt lat="42.65770804956511" lon="-2.4756914590983703"><ele>748.8000000000001</ele><time>2026-03-22T10:21:23Z</time></trkpt><trkpt lat="42.65778055000482" lon="-2.4756868743556963"><ele>748.6</ele><time>2026-03-22T10:21:24Z</time></trkpt><trkpt lat="42.65785190263078" lon="-2.4756447481935613"><ele>748.4</ele><time>2026-03-22T10:21:25Z</time></trkpt><trkpt lat="42.65792377884778" lon="-2.475572172058239"><ele>748.2</ele><time>2026-03-22T10:21:25.999Z</time></trkpt><trkpt lat="42.65799988796224" lon="-2.4754748525635035"><ele>748.0</ele><time>2026-03-22T10:21:26.999Z</time></trkpt><trkpt lat="42.658086309233546" lon="-2.4753653599341066"><ele>749.25</ele><time>2026-03-22T10:21:27.999Z</time></trkpt><trkpt lat="42.65817961702348" lon="-2.4752560483830055"><ele>750.5</ele><time>2026-03-22T10:21:28.999Z</time></trkpt><trkpt lat="42.65828679461517" lon="-2.4751604711378876"><ele>751.75</ele><time>2026-03-22T10:21:29.999Z</time></trkpt><trkpt lat="42.65835920341615" lon="-2.4750151499802158"><ele>753.0</ele><time>2026-03-22T10:21:30.999Z</time></trkpt><trkpt lat="42.65843265351291" lon="-2.4748687906736544"><ele>753.0</ele><time>2026-03-22T10:21:31.999Z</time></trkpt><trkpt lat="42.65850232787304" lon="-2.474707679731123"><ele>753.0</ele><time>2026-03-22T10:21:32.999Z</time></trkpt><trkpt lat="42.658551957652946" lon="-2.474527353080154"><ele>753.0</ele><time>2026-03-22T10:21:33.999Z</time></trkpt><trkpt lat="42.65859617254373" lon="-2.4743372729591355"><ele>753.0</ele><time>2026-03-22T10:21:34.999Z</time></trkpt><trkpt lat="42.65863975332892" lon="-2.4741376185376605"><ele>752.75</ele><time>2026-03-22T10:21:35.999Z</time></trkpt><trkpt lat="42.65868192340473" lon="-2.473939157668936"><ele>752.5</ele><time>2026-03-22T10:21:36.999Z</time></trkpt><trkpt lat="42.65872212188741" lon="-2.473749975546107"><ele>752.25</ele><time>2026-03-22T10:21:37.999Z</time></trkpt><trkpt lat="42.65875901324659" lon="-2.473576357417697"><ele>752.0</ele><time>2026-03-22T10:21:38.999Z</time></trkpt><trkpt lat="42.65879199292876" lon="-2.473421148387609"><ele>752.0</ele><time>2026-03-22T10:21:39.999Z</time></trkpt><trkpt lat="42.65882178783664" lon="-2.473280927592949"><ele>752.0</ele><time>2026-03-22T10:21:40.999Z</time></trkpt><trkpt lat="42.65886545681289" lon="-2.473152667945323"><ele>752.0</ele><time>2026-03-22T10:21:41.999Z</time></trkpt><trkpt lat="42.65886904433818" lon="-2.473019521643272"><ele>752.0</ele><time>2026-03-22T10:21:42.999Z</time></trkpt><trkpt lat="42.658848892009644" lon="-2.472876176926453"><ele>752.0</ele><time>2026-03-22T10:21:43.999Z</time></trkpt><trkpt lat="42.65887980608946" lon="-2.4727370533018265"><ele>753.0</ele><time>2026-03-22T10:21:44.999Z</time></trkpt><trkpt lat="42.65888630173657" lon="-2.4725795513076116"><ele>754.0</ele><time>2026-03-22T10:21:45.999Z</time></trkpt><trkpt lat="42.65892165304436" lon="-2.4724273028592543"><ele>755.0</ele><time>2026-03-22T10:21:46.999Z</time></trkpt><trkpt lat="42.658945250166475" lon="-2.4722606027340674"><ele>756.0</ele><time>2026-03-22T10:21:47.999Z</time></trkpt><trkpt lat="42.658975123326556" lon="-2.4720814828666824"><ele>757.3333333333334</ele><time>2026-03-22T10:21:48.999Z</time></trkpt><trkpt lat="42.658988037252755" lon="-2.471884774347819"><ele>758.6666666666667</ele><time>2026-03-22T10:21:49.999Z</time></trkpt><trkpt lat="42.65901496986015" lon="-2.4716808182614716"><ele>760.0</ele><time>2026-03-22T10:21:50.999Z</time></trkpt><trkpt lat="42.6590594086334" lon="-2.471472294424203"><ele>761.3333333333334</ele><time>2026-03-22T10:21:51.999Z</time></trkpt><trkpt lat="42.65908321733211" lon="-2.47125550130529"><ele>762.6666666666666</ele><time>2026-03-22T10:21:52.999Z</time></trkpt><trkpt lat="42.65911471563717" lon="-2.471028779172729"><ele>764.0</ele><time>2026-03-22T10:21:53.999Z</time></trkpt><trkpt lat="42.65912955185268" lon="-2.4707976043152775"><ele>764.0</ele><time>2026-03-22T10:21:54.999Z</time></trkpt><trkpt lat="42.65916027148677" lon="-2.4705664349085907"><ele>764.0</ele><time>2026-03-22T10:21:55.999Z</time></trkpt><trkpt lat="42.65919012094757" lon="-2.4703440918721515"><ele>764.0</ele><time>2026-03-22T10:21:56.999Z</time></trkpt><trkpt lat="42.659220153211486" lon="-2.4701203871380213"><ele>766.3333333333333</ele><time>2026-03-22T10:21:57.999Z</time></trkpt><trkpt lat="42.65924923438333" lon="-2.4698973496899437"><ele>768.6666666666666</ele><time>2026-03-22T10:21:58.999Z</time></trkpt><trkpt lat="42.65927796046684" lon="-2.469671350053684"><ele>771.0</ele><time>2026-03-22T10:21:59.999Z</time></trkpt><trkpt lat="42.65930666763735" lon="-2.469445499794409"><ele>773.0</ele><time>2026-03-22T10:22:00.999Z</time></trkpt><trkpt lat="42.65933507400947" lon="-2.469222015451294"><ele>775.0</ele><time>2026-03-22T10:22:01.999Z</time></trkpt><trkpt lat="42.659363035585784" lon="-2.4690020302415077"><ele>777.0</ele><time>2026-03-22T10:22:02.999Z</time></trkpt><trkpt lat="42.65939891480064" lon="-2.4687960581329644"><ele>776.75</ele><time>2026-03-22T10:22:03.999Z</time></trkpt><trkpt lat="42.65943925825983" lon="-2.468619499357728"><ele>776.5</ele><time>2026-03-22T10:22:04.999Z</time></trkpt><trkpt lat="42.659504766635976" lon="-2.46846084830255"><ele>776.25</ele><time>2026-03-22T10:22:05.999Z</time></trkpt><trkpt lat="42.659560844073404" lon="-2.4683033348472234"><ele>776.0</ele><time>2026-03-22T10:22:06.999Z</time></trkpt><trkpt lat="42.65962567479747" lon="-2.468143118375629"><ele>776.0</ele><time>2026-03-22T10:22:07.999Z</time></trkpt><trkpt lat="42.65968266961226" lon="-2.4679783028324955"><ele>776.0</ele><time>2026-03-22T10:22:08.999Z</time></trkpt><trkpt lat="42.65976584786587" lon="-2.4678222067557614"><ele>776.0</ele><time>2026-03-22T10:22:09.999Z</time></trkpt><trkpt lat="42.6598271616269" lon="-2.4676415177373476"><ele>776.0</ele><time>2026-03-22T10:22:10.999Z</time></trkpt><trkpt lat="42.659916043007264" lon="-2.467476331884344"><ele>777.25</ele><time>2026-03-22T10:22:11.999Z</time></trkpt><trkpt lat="42.659989254031245" lon="-2.4672961636695656"><ele>778.5</ele><time>2026-03-22T10:22:12.999Z</time></trkpt><trkpt lat="42.66006502734439" lon="-2.4671202626553983"><ele>779.75</ele><time>2026-03-22T10:22:13.999Z</time></trkpt><trkpt lat="42.66014030203701" lon="-2.4669500453330384"><ele>781.0</ele><time>2026-03-22T10:22:14.999Z</time></trkpt><trkpt lat="42.66019586439637" lon="-2.4667724157714623"><ele>782.0</ele><time>2026-03-22T10:22:15.999Z</time></trkpt><trkpt lat="42.660257183134775" lon="-2.4666160475595658"><ele>783.0</ele><time>2026-03-22T10:22:16.999Z</time></trkpt><trkpt lat="42.660316885255746" lon="-2.466466132898506"><ele>784.0</ele><time>2026-03-22T10:22:17.999Z</time></trkpt><trkpt lat="42.660379966812165" lon="-2.4663387012528504"><ele>785.0</ele><time>2026-03-22T10:22:18.999Z</time></trkpt><trkpt lat="42.66044401775925" lon="-2.466223495023137"><ele>783.0</ele><time>2026-03-22T10:22:19.999Z</time></trkpt><trkpt lat="42.66051338341751" lon="-2.466101198658358"><ele>781.0</ele><time>2026-03-22T10:22:20.999Z</time></trkpt><trkpt lat="42.660588613835564" lon="-2.4659749915175073"><ele>779.0</ele><time>2026-03-22T10:22:21.999Z</time></trkpt><trkpt lat="42.66065976681001" lon="-2.4658515441497006"><ele>777.0</ele><time>2026-03-22T10:22:22.999Z</time></trkpt><trkpt lat="42.6607244457114" lon="-2.4657219531461867"><ele>777.0</ele><time>2026-03-22T10:22:23.999Z</time></trkpt><trkpt lat="42.660770033928934" lon="-2.46558093244554"><ele>777.0</ele><time>2026-03-22T10:22:24.999Z</time></trkpt><trkpt lat="42.66080037190526" lon="-2.4654357624450225"><ele>777.0</ele><time>2026-03-22T10:22:25.999Z</time></trkpt><trkpt lat="42.66080724364466" lon="-2.4652698290182267"><ele>777.0</ele><time>2026-03-22T10:22:26.999Z</time></trkpt><trkpt lat="42.660810521463766" lon="-2.465091216568411"><ele>777.25</ele><time>2026-03-22T10:22:27.999Z</time></trkpt><trkpt lat="42.660813491113146" lon="-2.4649075776253486"><ele>777.5</ele><time>2026-03-22T10:22:28.999Z</time></trkpt><trkpt lat="42.66081376003187" lon="-2.4647250055331016"><ele>777.75</ele><time>2026-03-22T10:22:29.998Z</time></trkpt><trkpt lat="42.66081631090744" lon="-2.464542827713683"><ele>778.0</ele><time>2026-03-22T10:22:30.998Z</time></trkpt><trkpt lat="42.66081955426337" lon="-2.4643510590495916"><ele>778.0</ele><time>2026-03-22T10:22:31.998Z</time></trkpt><trkpt lat="42.66080384577558" lon="-2.464158328971647"><ele>778.0</ele><time>2026-03-22T10:22:32.998Z</time></trkpt><trkpt lat="42.66080228801322" lon="-2.4639594342732676"><ele>778.0</ele><time>2026-03-22T10:22:33.998Z</time></trkpt><trkpt lat="42.660800687091346" lon="-2.4637550291426513"><ele>778.0</ele><time>2026-03-22T10:22:34.998Z</time></trkpt><trkpt lat="42.660799074610495" lon="-2.463549148235769"><ele>776.0</ele><time>2026-03-22T10:22:35.998Z</time></trkpt><trkpt lat="42.66079814301533" lon="-2.4633421149054993"><ele>774.0</ele><time>2026-03-22T10:22:37Z</time></trkpt><trkpt lat="42.660798622037376" lon="-2.463134863568251"><ele>772.0</ele><time>2026-03-22T10:22:38Z</time></trkpt><trkpt lat="42.66079927716811" lon="-2.4629239784668724"><ele>771.3333333333333</ele><time>2026-03-22T10:22:39Z</time></trkpt><trkpt lat="42.66079993960056" lon="-2.462710742805459"><ele>770.6666666666667</ele><time>2026-03-22T10:22:40Z</time></trkpt><trkpt lat="42.660800605294575" lon="-2.4624964571193866"><ele>770.0</ele><time>2026-03-22T10:22:41Z</time></trkpt><trkpt lat="42.66080126436288" lon="-2.4622843041945393"><ele>768.5</ele><time>2026-03-22T10:22:42Z</time></trkpt><trkpt lat="42.66080189750741" lon="-2.462080496003581"><ele>767.0</ele><time>2026-03-22T10:22:43Z</time></trkpt><trkpt lat="42.660803910939165" lon="-2.4618887558201257"><ele>765.5</ele><time>2026-03-22T10:22:44Z</time></trkpt><trkpt lat="42.66080592394546" lon="-2.4617089865350867"><ele>764.0</ele><time>2026-03-22T10:22:45Z</time></trkpt><trkpt lat="42.66080780496161" lon="-2.4615410044687382"><ele>764.0</ele><time>2026-03-22T10:22:46Z</time></trkpt><trkpt lat="42.66082290286976" lon="-2.461384286381133"><ele>764.0</ele><time>2026-03-22T10:22:47Z</time></trkpt><trkpt lat="42.66081043991461" lon="-2.4612340275996236"><ele>764.0</ele><time>2026-03-22T10:22:48Z</time></trkpt><trkpt lat="42.660811149788046" lon="-2.4610845278757814"><ele>764.0</ele><time>2026-03-22T10:22:49Z</time></trkpt><trkpt lat="42.66081184826986" lon="-2.4609396910922197"><ele>764.0</ele><time>2026-03-22T10:22:50Z</time></trkpt><trkpt lat="42.66081264369138" lon="-2.4607878540541397"><ele>763.6</ele><time>2026-03-22T10:22:51Z</time></trkpt><trkpt lat="42.66081346202652" lon="-2.460638098589092"><ele>763.2</ele><time>2026-03-22T10:22:52Z</time></trkpt><trkpt lat="42.660814240336094" lon="-2.4604956676369456"><ele>762.8000000000001</ele><time>2026-03-22T10:22:53Z</time></trkpt><trkpt lat="42.66081503281237" lon="-2.4603506440239724"><ele>762.4000000000001</ele><time>2026-03-22T10:22:54Z</time></trkpt><trkpt lat="42.66081585114153" lon="-2.4602008896921044"><ele>762.0</ele><time>2026-03-22T10:22:55Z</time></trkpt><trkpt lat="42.660833057014926" lon="-2.4600506190604183"><ele>761.75</ele><time>2026-03-22T10:22:56Z</time></trkpt><trkpt lat="42.660817497906685" lon="-2.4598995313344627"><ele>761.5</ele><time>2026-03-22T10:22:57Z</time></trkpt><trkpt lat="42.66083083762075" lon="-2.4597472730469407"><ele>761.25</ele><time>2026-03-22T10:22:58Z</time></trkpt><trkpt lat="42.66081694284381" lon="-2.459593134047326"><ele>761.0</ele><time>2026-03-22T10:22:59Z</time></trkpt><trkpt lat="42.660816454733165" lon="-2.4594351330707003"><ele>760.25</ele><time>2026-03-22T10:23:00Z</time></trkpt><trkpt lat="42.66081595410929" lon="-2.459273081295514"><ele>759.5</ele><time>2026-03-22T10:23:01Z</time></trkpt><trkpt lat="42.66081544669318" lon="-2.4591088310136655"><ele>758.75</ele><time>2026-03-22T10:23:02Z</time></trkpt><trkpt lat="42.660814932505765" lon="-2.458942389147616"><ele>758.0</ele><time>2026-03-22T10:23:03Z</time></trkpt><trkpt lat="42.66083106322948" lon="-2.458776624470672"><ele>757.25</ele><time>2026-03-22T10:23:04Z</time></trkpt><trkpt lat="42.660815056178386" lon="-2.4586208228078106"><ele>756.5</ele><time>2026-03-22T10:23:05Z</time></trkpt><trkpt lat="42.660815245508445" lon="-2.4584598161960547"><ele>755.75</ele><time>2026-03-22T10:23:06Z</time></trkpt><trkpt lat="42.66081543317488" lon="-2.4583002241133074"><ele>755.0</ele><time>2026-03-22T10:23:07Z</time></trkpt><trkpt lat="42.66081562985945" lon="-2.4581329633076017"><ele>755.0</ele><time>2026-03-22T10:23:08Z</time></trkpt><trkpt lat="42.660816058538934" lon="-2.45795817023423"><ele>755.0</ele><time>2026-03-22T10:23:09Z</time></trkpt><trkpt lat="42.66082911171923" lon="-2.457784649381178"><ele>755.0</ele><time>2026-03-22T10:23:10Z</time></trkpt><trkpt lat="42.6608196131015" lon="-2.45761020160628"><ele>755.0</ele><time>2026-03-22T10:23:11Z</time></trkpt><trkpt lat="42.660832459237135" lon="-2.457441524768151"><ele>754.8333333333333</ele><time>2026-03-22T10:23:12Z</time></trkpt><trkpt lat="42.660836843611975" lon="-2.4572846516128326"><ele>754.6666666666666</ele><time>2026-03-22T10:23:13Z</time></trkpt><trkpt lat="42.66083895608043" lon="-2.457151690853439"><ele>754.5</ele><time>2026-03-22T10:23:14Z</time></trkpt><trkpt lat="42.66082362159713" lon="-2.457041772576951"><ele>754.3333333333334</ele><time>2026-03-22T10:23:15Z</time></trkpt><trkpt lat="42.66082319372882" lon="-2.456954252052452"><ele>754.1666666666667</ele><time>2026-03-22T10:23:16Z</time></trkpt><trkpt lat="42.66082271594125" lon="-2.4568565206384516"><ele>754.0</ele><time>2026-03-22T10:23:18Z</time></trkpt><trkpt lat="42.66094140288762" lon="-2.456795193090508"><ele>754.4000000000001</ele><time>2026-03-22T10:23:20Z</time></trkpt><trkpt lat="42.66105942450829" lon="-2.4567668794366284"><ele>754.8</ele><time>2026-03-22T10:23:22Z</time></trkpt><trkpt lat="42.66113815794703" lon="-2.456747991087977"><ele>755.2</ele><time>2026-03-22T10:23:23Z</time></trkpt><trkpt lat="42.66122186220187" lon="-2.456727910230454"><ele>755.5999999999999</ele><time>2026-03-22T10:23:24Z</time></trkpt><trkpt lat="42.66131307689692" lon="-2.4567204451749185"><ele>756.0</ele><time>2026-03-22T10:23:25Z</time></trkpt><trkpt lat="42.66140265494932" lon="-2.456684537603722"><ele>754.4</ele><time>2026-03-22T10:23:26Z</time></trkpt><trkpt lat="42.661495845821285" lon="-2.4566798208394816"><ele>752.8</ele><time>2026-03-22T10:23:26.999Z</time></trkpt><trkpt lat="42.661576147105734" lon="-2.456655064482463"><ele>751.1999999999999</ele><time>2026-03-22T10:23:27.999Z</time></trkpt><trkpt lat="42.66165734481434" lon="-2.456639136734555"><ele>749.5999999999999</ele><time>2026-03-22T10:23:28.999Z</time></trkpt><trkpt lat="42.66174829388066" lon="-2.4566152879891385"><ele>748.0</ele><time>2026-03-22T10:23:29.999Z</time></trkpt><trkpt lat="42.66184768396913" lon="-2.456591203568934"><ele>747.4</ele><time>2026-03-22T10:23:30.999Z</time></trkpt><trkpt lat="42.66195167685788" lon="-2.456566983784504"><ele>746.8</ele><time>2026-03-22T10:23:31.999Z</time></trkpt><trkpt lat="42.66205223098256" lon="-2.456546477645852"><ele>746.2</ele><time>2026-03-22T10:23:32.999Z</time></trkpt><trkpt lat="42.66214597299873" lon="-2.4565284697471514"><ele>745.6</ele><time>2026-03-22T10:23:33.999Z</time></trkpt><trkpt lat="42.662230124291824" lon="-2.4565058313064028"><ele>745.0</ele><time>2026-03-22T10:23:34.999Z</time></trkpt><trkpt lat="42.6622984576903" lon="-2.4564905557902925"><ele>745.0</ele><time>2026-03-22T10:23:35.999Z</time></trkpt><trkpt lat="42.6624277225164" lon="-2.456443037290629"><ele>745.0</ele><time>2026-03-22T10:23:37.999Z</time></trkpt><trkpt lat="42.6625132923414" lon="-2.456439486902977"><ele>745.0</ele><time>2026-03-22T10:23:38.999Z</time></trkpt><trkpt lat="42.66261130005291" lon="-2.456416490267732"><ele>745.0</ele><time>2026-03-22T10:23:39.999Z</time></trkpt><trkpt lat="42.662720594380005" lon="-2.456386161046951"><ele>745.0</ele><time>2026-03-22T10:23:40.999Z</time></trkpt><trkpt lat="42.66283495420524" lon="-2.4563596496051616"><ele>745.2</ele><time>2026-03-22T10:23:41.999Z</time></trkpt><trkpt lat="42.66295272111566" lon="-2.4563305081293487"><ele>745.4</ele><time>2026-03-22T10:23:42.999Z</time></trkpt><trkpt lat="42.66306021429025" lon="-2.4562762468206913"><ele>745.5999999999999</ele><time>2026-03-22T10:23:43.999Z</time></trkpt><trkpt lat="42.66315704487568" lon="-2.456224865769395"><ele>745.8</ele><time>2026-03-22T10:23:44.999Z</time></trkpt><trkpt lat="42.663252579207224" lon="-2.4561507812759977"><ele>746.0</ele><time>2026-03-22T10:23:45.999Z</time></trkpt><trkpt lat="42.66335286496905" lon="-2.4560573241932224"><ele>745.25</ele><time>2026-03-22T10:23:46.999Z</time></trkpt><trkpt lat="42.66346941634741" lon="-2.4559701440545236"><ele>744.5</ele><time>2026-03-22T10:23:47.999Z</time></trkpt><trkpt lat="42.66357821909655" lon="-2.4558548041931036"><ele>743.75</ele><time>2026-03-22T10:23:48.999Z</time></trkpt><trkpt lat="42.66368228887132" lon="-2.4557291922131324"><ele>743.0</ele><time>2026-03-22T10:23:49.999Z</time></trkpt><trkpt lat="42.663798946381206" lon="-2.455631984887998"><ele>742.75</ele><time>2026-03-22T10:23:50.999Z</time></trkpt><trkpt lat="42.66390674542321" lon="-2.4555146982001057"><ele>742.5</ele><time>2026-03-22T10:23:51.999Z</time></trkpt><trkpt lat="42.664012317894" lon="-2.4554046448644593"><ele>742.25</ele><time>2026-03-22T10:23:52.999Z</time></trkpt><trkpt lat="42.66411089633265" lon="-2.4553072961253872"><ele>742.0</ele><time>2026-03-22T10:23:53.999Z</time></trkpt><trkpt lat="42.6641841812825" lon="-2.455232413409442"><ele>742.0</ele><time>2026-03-22T10:23:54.999Z</time></trkpt><trkpt lat="42.66424234520389" lon="-2.4551716933658745"><ele>742.0</ele><time>2026-03-22T10:23:55.999Z</time></trkpt><trkpt lat="42.664307473795645" lon="-2.4550778804352995"><ele>742.0</ele><time>2026-03-22T10:23:57.999Z</time></trkpt><trkpt lat="42.664375214754386" lon="-2.4550082537538356"><ele>742.0</ele><time>2026-03-22T10:23:59.999Z</time></trkpt><trkpt lat="42.664450400699586" lon="-2.4549309539222137"><ele>742.0</ele><time>2026-03-22T10:24:01.999Z</time></trkpt><trkpt lat="42.66451097588054" lon="-2.4548685679125124"><ele>742.0</ele><time>2026-03-22T10:24:03.999Z</time></trkpt><trkpt lat="42.66457452448138" lon="-2.4548031195631994"><ele>742.2</ele><time>2026-03-22T10:24:05.999Z</time></trkpt><trkpt lat="42.664670632560494" lon="-2.454726555647705"><ele>742.4000000000001</ele><time>2026-03-22T10:24:07.999Z</time></trkpt><trkpt lat="42.664742110436215" lon="-2.4545912045312392"><ele>742.5999999999999</ele><time>2026-03-22T10:24:09.999Z</time></trkpt><trkpt lat="42.66479084729583" lon="-2.454449217522556"><ele>742.8</ele><time>2026-03-22T10:24:11.999Z</time></trkpt><trkpt lat="42.6647744187006" lon="-2.454350711243117"><ele>743.0</ele><time>2026-03-22T10:24:12.999Z</time></trkpt><trkpt lat="42.664758461126596" lon="-2.4542414744184042"><ele>742.8</ele><time>2026-03-22T10:24:13.999Z</time></trkpt><trkpt lat="42.6647615399133" lon="-2.4541145116232963"><ele>742.5999999999999</ele><time>2026-03-22T10:24:14.999Z</time></trkpt><trkpt lat="42.664752730738925" lon="-2.4539818122285406"><ele>742.4000000000001</ele><time>2026-03-22T10:24:15.999Z</time></trkpt><trkpt lat="42.66472628122738" lon="-2.4538546189065635"><ele>742.2</ele><time>2026-03-22T10:24:16.999Z</time></trkpt><trkpt lat="42.66471540362512" lon="-2.45373061875646"><ele>742.0</ele><time>2026-03-22T10:24:17.999Z</time></trkpt><trkpt lat="42.66470432739174" lon="-2.4536043541827324"><ele>742.0</ele><time>2026-03-22T10:24:18.999Z</time></trkpt><trkpt lat="42.664693068563714" lon="-2.4534760080767337"><ele>742.0</ele><time>2026-03-22T10:24:19.999Z</time></trkpt><trkpt lat="42.66468167354475" lon="-2.453350183804621"><ele>742.0</ele><time>2026-03-22T10:24:20.999Z</time></trkpt><trkpt lat="42.66468798690968" lon="-2.453224097025012"><ele>742.0</ele><time>2026-03-22T10:24:21.999Z</time></trkpt><trkpt lat="42.6646784391366" lon="-2.4531126753047285"><ele>742.0</ele><time>2026-03-22T10:24:22.999Z</time></trkpt><trkpt lat="42.664674080463286" lon="-2.4529598932696133"><ele>743.2</ele><time>2026-03-22T10:24:24.999Z</time></trkpt><trkpt lat="42.664816248500166" lon="-2.4529120774932127"><ele>744.4000000000001</ele><time>2026-03-22T10:24:27.998Z</time></trkpt><trkpt lat="42.66489528679255" lon="-2.452893453278544"><ele>745.5999999999999</ele><time>2026-03-22T10:24:28.998Z</time></trkpt><trkpt lat="42.66496134456519" lon="-2.452874557969094"><ele>746.8</ele><time>2026-03-22T10:24:29.998Z</time></trkpt><trkpt lat="42.665040976579135" lon="-2.4528345335228083"><ele>748.0</ele><time>2026-03-22T10:24:30.998Z</time></trkpt><trkpt lat="42.66512626267315" lon="-2.4527795393359533"><ele>748.0</ele><time>2026-03-22T10:24:31.998Z</time></trkpt><trkpt lat="42.66519891326467" lon="-2.4526868689383456"><ele>748.0</ele><time>2026-03-22T10:24:32.998Z</time></trkpt><trkpt lat="42.66527898843252" lon="-2.4525966933441907"><ele>748.0</ele><time>2026-03-22T10:24:33.998Z</time></trkpt><trkpt lat="42.66535694441616" lon="-2.452490677235347"><ele>748.0</ele><time>2026-03-22T10:24:34.998Z</time></trkpt><trkpt lat="42.66545045979732" lon="-2.4523891889387843"><ele>748.0</ele><time>2026-03-22T10:24:35.998Z</time></trkpt><trkpt lat="42.665526352923415" lon="-2.452269465084064"><ele>749.5999999999999</ele><time>2026-03-22T10:24:36.998Z</time></trkpt><trkpt lat="42.665591822200874" lon="-2.452149004133709"><ele>751.1999999999999</ele><time>2026-03-22T10:24:37.998Z</time></trkpt><trkpt lat="42.66565829739901" lon="-2.452026468206894"><ele>752.8</ele><time>2026-03-22T10:24:38.998Z</time></trkpt><trkpt lat="42.66571860152531" lon="-2.4519023135155584"><ele>754.4</ele><time>2026-03-22T10:24:39.998Z</time></trkpt><trkpt lat="42.66577372802308" lon="-2.451770173692698"><ele>756.0</ele><time>2026-03-22T10:24:40.998Z</time></trkpt><trkpt lat="42.66584038499786" lon="-2.451634499773464"><ele>756.5</ele><time>2026-03-22T10:24:41.998Z</time></trkpt><trkpt lat="42.66587324477405" lon="-2.451464786371227"><ele>757.0</ele><time>2026-03-22T10:24:43Z</time></trkpt><trkpt lat="42.6659121909491" lon="-2.451295726328734"><ele>757.5</ele><time>2026-03-22T10:24:44Z</time></trkpt><trkpt lat="42.665964840369696" lon="-2.451128230259953"><ele>758.0</ele><time>2026-03-22T10:24:45Z</time></trkpt><trkpt lat="42.66599380935227" lon="-2.450946936514089"><ele>758.5</ele><time>2026-03-22T10:24:46Z</time></trkpt><trkpt lat="42.666037411203476" lon="-2.450763794612416"><ele>759.0</ele><time>2026-03-22T10:24:47Z</time></trkpt><trkpt lat="42.66609564903041" lon="-2.450592428879232"><ele>759.5</ele><time>2026-03-22T10:24:48Z</time></trkpt><trkpt lat="42.66613254181676" lon="-2.4504383716776608"><ele>760.0</ele><time>2026-03-22T10:24:49Z</time></trkpt><trkpt lat="42.666171570345284" lon="-2.4503025951422117"><ele>761.25</ele><time>2026-03-22T10:24:50Z</time></trkpt><trkpt lat="42.66623202134246" lon="-2.4501651574909977"><ele>762.5</ele><time>2026-03-22T10:24:51Z</time></trkpt><trkpt lat="42.66629311663617" lon="-2.4500149701006553"><ele>763.75</ele><time>2026-03-22T10:24:52Z</time></trkpt><trkpt lat="42.666377153096605" lon="-2.449874004543837"><ele>765.0</ele><time>2026-03-22T10:24:53Z</time></trkpt><trkpt lat="42.66643856957534" lon="-2.449711524885748"><ele>765.6666666666666</ele><time>2026-03-22T10:24:54Z</time></trkpt><trkpt lat="42.66650185763243" lon="-2.4495437805532436"><ele>766.3333333333333</ele><time>2026-03-22T10:24:55Z</time></trkpt><trkpt lat="42.6665683969646" lon="-2.449357523306336"><ele>767.0</ele><time>2026-03-22T10:24:56Z</time></trkpt><trkpt lat="42.666655311760785" lon="-2.4491657164883702"><ele>767.0</ele><time>2026-03-22T10:24:57Z</time></trkpt><trkpt lat="42.66674556735692" lon="-2.448954802902989"><ele>767.0</ele><time>2026-03-22T10:24:58Z</time></trkpt><trkpt lat="42.666825834236555" lon="-2.4487250959807114"><ele>767.0</ele><time>2026-03-22T10:24:59Z</time></trkpt><trkpt lat="42.666909284445566" lon="-2.4484890011251577"><ele>771.6666666666666</ele><time>2026-03-22T10:25:00Z</time></trkpt><trkpt lat="42.66696636463563" lon="-2.448250442371831"><ele>776.3333333333333</ele><time>2026-03-22T10:25:01Z</time></trkpt><trkpt lat="42.667045707240966" lon="-2.4480527184099996"><ele>781.0</ele><time>2026-03-22T10:25:02Z</time></trkpt><trkpt lat="42.6671088861481" lon="-2.44787100308437"><ele>781.0</ele><time>2026-03-22T10:25:03Z</time></trkpt><trkpt lat="42.66718450959625" lon="-2.447714602241709"><ele>781.0</ele><time>2026-03-22T10:25:04Z</time></trkpt><trkpt lat="42.66727744557959" lon="-2.4475769346864826"><ele>781.0</ele><time>2026-03-22T10:25:05Z</time></trkpt><trkpt lat="42.6673828935995" lon="-2.4474481817984253"><ele>781.0</ele><time>2026-03-22T10:25:06Z</time></trkpt><trkpt lat="42.667490378937714" lon="-2.4473543609773176"><ele>781.0</ele><time>2026-03-22T10:25:07Z</time></trkpt><trkpt lat="42.66758135420193" lon="-2.447268566852046"><ele>781.0</ele><time>2026-03-22T10:25:08Z</time></trkpt><trkpt lat="42.66763991868758" lon="-2.447168119982683"><ele>781.0</ele><time>2026-03-22T10:25:09Z</time></trkpt><trkpt lat="42.667683236583045" lon="-2.447076989133445"><ele>781.0</ele><time>2026-03-22T10:25:10Z</time></trkpt><trkpt lat="42.6677289019723" lon="-2.446975136256987"><ele>781.0</ele><time>2026-03-22T10:25:11Z</time></trkpt><trkpt lat="42.667776534165256" lon="-2.446853367976609"><ele>782.5</ele><time>2026-03-22T10:25:12Z</time></trkpt><trkpt lat="42.66783061394299" lon="-2.4467128686561344"><ele>784.0</ele><time>2026-03-22T10:25:13Z</time></trkpt><trkpt lat="42.66788879324215" lon="-2.4465635045982985"><ele>785.5</ele><time>2026-03-22T10:25:14Z</time></trkpt><trkpt lat="42.66794876541392" lon="-2.4464080653025015"><ele>787.0</ele><time>2026-03-22T10:25:15Z</time></trkpt><trkpt lat="42.6680003838863" lon="-2.4462693395284023"><ele>787.4000000000001</ele><time>2026-03-22T10:25:16Z</time></trkpt><trkpt lat="42.66806521411524" lon="-2.446169389796118"><ele>787.8000000000001</ele><time>2026-03-22T10:25:17Z</time></trkpt><trkpt lat="42.668123558555344" lon="-2.446072786719435"><ele>788.2</ele><time>2026-03-22T10:25:18Z</time></trkpt><trkpt lat="42.66819580821295" lon="-2.4460036305267003"><ele>788.6</ele><time>2026-03-22T10:25:19Z</time></trkpt><trkpt lat="42.668290255500146" lon="-2.4459306622141863"><ele>789.0</ele><time>2026-03-22T10:25:20Z</time></trkpt><trkpt lat="42.66839614729125" lon="-2.445856346380155"><ele>789.0</ele><time>2026-03-22T10:25:21Z</time></trkpt><trkpt lat="42.66851496791711" lon="-2.445776749837333"><ele>789.0</ele><time>2026-03-22T10:25:22Z</time></trkpt><trkpt lat="42.66863085964306" lon="-2.4456687200314575"><ele>789.0</ele><time>2026-03-22T10:25:23Z</time></trkpt><trkpt lat="42.66874954290053" lon="-2.445578005945282"><ele>789.0</ele><time>2026-03-22T10:25:24Z</time></trkpt><trkpt lat="42.66885295352162" lon="-2.445497389975149"><ele>790.25</ele><time>2026-03-22T10:25:25Z</time></trkpt><trkpt lat="42.6689436696898" lon="-2.4454111084626753"><ele>791.5</ele><time>2026-03-22T10:25:26Z</time></trkpt><trkpt lat="42.66902897386952" lon="-2.445299020800777"><ele>792.75</ele><time>2026-03-22T10:25:27Z</time></trkpt><trkpt lat="42.669112323469" lon="-2.4451799935015908"><ele>794.0</ele><time>2026-03-22T10:25:28Z</time></trkpt><trkpt lat="42.669170977018425" lon="-2.445068535028867"><ele>794.0000000000001</ele><time>2026-03-22T10:25:28.999Z</time></trkpt><trkpt lat="42.66921294187141" lon="-2.4449469615458304"><ele>794.0</ele><time>2026-03-22T10:25:29.999Z</time></trkpt><trkpt lat="42.66924114659617" lon="-2.4448204692999895"><ele>794.0</ele><time>2026-03-22T10:25:30.999Z</time></trkpt><trkpt lat="42.66925825688449" lon="-2.4446967721660298"><ele>794.0</ele><time>2026-03-22T10:25:31.999Z</time></trkpt><trkpt lat="42.669286595262825" lon="-2.4445971028041673"><ele>794.0000000000001</ele><time>2026-03-22T10:25:32.999Z</time></trkpt><trkpt lat="42.669294119814545" lon="-2.4444994622115654"><ele>794.0</ele><time>2026-03-22T10:25:34.999Z</time></trkpt><trkpt lat="42.66937885275942" lon="-2.4445346356639552"><ele>795.0</ele><time>2026-03-22T10:25:37.999Z</time></trkpt><trkpt lat="42.669434594897375" lon="-2.4446039591549864"><ele>796.0</ele><time>2026-03-22T10:25:38.999Z</time></trkpt><trkpt lat="42.6695186396034" lon="-2.4446859171894153"><ele>797.0</ele><time>2026-03-22T10:25:39.999Z</time></trkpt><trkpt lat="42.6696225842769" lon="-2.444782158588281"><ele>798.0</ele><time>2026-03-22T10:25:40.999Z</time></trkpt><trkpt lat="42.669721371869734" lon="-2.444886188604583"><ele>799.0</ele><time>2026-03-22T10:25:41.999Z</time></trkpt><trkpt lat="42.66983631189118" lon="-2.444986153241348"><ele>799.0</ele><time>2026-03-22T10:25:42.999Z</time></trkpt><trkpt lat="42.66994686899587" lon="-2.445086577809329"><ele>799.0</ele><time>2026-03-22T10:25:43.999Z</time></trkpt><trkpt lat="42.67006113700856" lon="-2.4451883593973824"><ele>799.0</ele><time>2026-03-22T10:25:44.999Z</time></trkpt><trkpt lat="42.67017578382052" lon="-2.4452848329025496"><ele>799.0</ele><time>2026-03-22T10:25:45.999Z</time></trkpt><trkpt lat="42.67028761449975" lon="-2.4453891765243836"><ele>799.0</ele><time>2026-03-22T10:25:46.999Z</time></trkpt><trkpt lat="42.670398139876795" lon="-2.4455041548973506"><ele>799.0</ele><time>2026-03-22T10:25:47.999Z</time></trkpt><trkpt lat="42.67049555974221" lon="-2.4456313870436275"><ele>799.0</ele><time>2026-03-22T10:25:48.999Z</time></trkpt><trkpt lat="42.67058763826345" lon="-2.4457672690144023"><ele>799.0</ele><time>2026-03-22T10:25:49.999Z</time></trkpt><trkpt lat="42.67066431611343" lon="-2.4459201653345612"><ele>799.0</ele><time>2026-03-22T10:25:50.999Z</time></trkpt><trkpt lat="42.67072909853179" lon="-2.4460960160224663"><ele>799.0</ele><time>2026-03-22T10:25:51.999Z</time></trkpt><trkpt lat="42.67077497199784" lon="-2.446293707699596"><ele>799.0</ele><time>2026-03-22T10:25:52.999Z</time></trkpt><trkpt lat="42.670809997778875" lon="-2.4464959540183147"><ele>797.25</ele><time>2026-03-22T10:25:53.999Z</time></trkpt><trkpt lat="42.67083700852806" lon="-2.4466918463516354"><ele>795.5</ele><time>2026-03-22T10:25:54.999Z</time></trkpt><trkpt lat="42.670855768136946" lon="-2.4468841819340597"><ele>793.75</ele><time>2026-03-22T10:25:55.999Z</time></trkpt><trkpt lat="42.67086865289773" lon="-2.4470571420933966"><ele>792.0</ele><time>2026-03-22T10:25:56.999Z</time></trkpt><trkpt lat="42.67088127501142" lon="-2.4472093706655773"><ele>792.75</ele><time>2026-03-22T10:25:57.999Z</time></trkpt><trkpt lat="42.67089367771971" lon="-2.4473411933180684"><ele>793.5</ele><time>2026-03-22T10:25:58.999Z</time></trkpt><trkpt lat="42.6709072614446" lon="-2.4474505250819063"><ele>794.25</ele><time>2026-03-22T10:25:59.999Z</time></trkpt><trkpt lat="42.67092790058722" lon="-2.447562702968014"><ele>795.0</ele><time>2026-03-22T10:26:01.999Z</time></trkpt><trkpt lat="42.67114983130556" lon="-2.447579916582745"><ele>795.0</ele><time>2026-03-22T10:26:03.999Z</time></trkpt><trkpt lat="42.67125090468764" lon="-2.4475901425679076"><ele>795.0</ele><time>2026-03-22T10:26:04.999Z</time></trkpt><trkpt lat="42.671366779852534" lon="-2.4476306517904862"><ele>795.0</ele><time>2026-03-22T10:26:05.999Z</time></trkpt><trkpt lat="42.67149527764133" lon="-2.4477176133136003"><ele>795.0</ele><time>2026-03-22T10:26:06.999Z</time></trkpt><trkpt lat="42.67163234605386" lon="-2.4478351742431106"><ele>794.3333333333333</ele><time>2026-03-22T10:26:07.999Z</time></trkpt><trkpt lat="42.67177470589911" lon="-2.447963518890139"><ele>793.6666666666666</ele><time>2026-03-22T10:26:08.999Z</time></trkpt><trkpt lat="42.671908848373846" lon="-2.4480875355870078"><ele>793.0</ele><time>2026-03-22T10:26:09.999Z</time></trkpt><trkpt lat="42.67204297374042" lon="-2.4482212841744757"><ele>793.0</ele><time>2026-03-22T10:26:10.999Z</time></trkpt><trkpt lat="42.67217888531956" lon="-2.4483516100001617"><ele>793.0</ele><time>2026-03-22T10:26:11.999Z</time></trkpt><trkpt lat="42.672314264316235" lon="-2.448474612161646"><ele>793.0</ele><time>2026-03-22T10:26:12.999Z</time></trkpt><trkpt lat="42.67244317699051" lon="-2.4485820378729466"><ele>793.0</ele><time>2026-03-22T10:26:13.999Z</time></trkpt><trkpt lat="42.67256264872358" lon="-2.448668674156234"><ele>793.0</ele><time>2026-03-22T10:26:14.999Z</time></trkpt><trkpt lat="42.672677376091265" lon="-2.4487180099277053"><ele>793.0</ele><time>2026-03-22T10:26:15.999Z</time></trkpt><trkpt lat="42.67280072207149" lon="-2.44874932542788"><ele>793.0</ele><time>2026-03-22T10:26:16.999Z</time></trkpt><trkpt lat="42.672933436523515" lon="-2.4487724905216766"><ele>793.75</ele><time>2026-03-22T10:26:17.999Z</time></trkpt><trkpt lat="42.67307270993358" lon="-2.448789735250821"><ele>794.5</ele><time>2026-03-22T10:26:18.999Z</time></trkpt><trkpt lat="42.673216963130734" lon="-2.4488038025102057"><ele>795.25</ele><time>2026-03-22T10:26:19.999Z</time></trkpt><trkpt lat="42.67336188370559" lon="-2.4488192948090264"><ele>796.0</ele><time>2026-03-22T10:26:20.999Z</time></trkpt><trkpt lat="42.67351238937021" lon="-2.4488353225868176"><ele>793.5</ele><time>2026-03-22T10:26:21.999Z</time></trkpt><trkpt lat="42.67366182315506" lon="-2.4488656923143135"><ele>791.0</ele><time>2026-03-22T10:26:22.999Z</time></trkpt><trkpt lat="42.67380202069702" lon="-2.4489265346016555"><ele>788.5</ele><time>2026-03-22T10:26:23.999Z</time></trkpt><trkpt lat="42.67392882840764" lon="-2.4490306116340737"><ele>786.0</ele><time>2026-03-22T10:26:24.999Z</time></trkpt><trkpt lat="42.67404329383554" lon="-2.449148668202277"><ele>786.0</ele><time>2026-03-22T10:26:25.999Z</time></trkpt><trkpt lat="42.67416771602032" lon="-2.449254426041578"><ele>786.0</ele><time>2026-03-22T10:26:26.999Z</time></trkpt><trkpt lat="42.67428004608957" lon="-2.4493575861805477"><ele>786.0</ele><time>2026-03-22T10:26:27.999Z</time></trkpt><trkpt lat="42.674391624862565" lon="-2.4494381492773356"><ele>786.0</ele><time>2026-03-22T10:26:28.999Z</time></trkpt><trkpt lat="42.67451409604487" lon="-2.449426731954568"><ele>787.5</ele><time>2026-03-22T10:26:29.998Z</time></trkpt><trkpt lat="42.674637425322764" lon="-2.44941241270324"><ele>789.0</ele><time>2026-03-22T10:26:30.998Z</time></trkpt><trkpt lat="42.67477152681576" lon="-2.449362536409114"><ele>790.5</ele><time>2026-03-22T10:26:31.998Z</time></trkpt><trkpt lat="42.674908774192986" lon="-2.449324708590059"><ele>792.0</ele><time>2026-03-22T10:26:32.998Z</time></trkpt><trkpt lat="42.67504421372802" lon="-2.44930364909466"><ele>792.0</ele><time>2026-03-22T10:26:33.998Z</time></trkpt><trkpt lat="42.67517888735061" lon="-2.449322496795631"><ele>792.0</ele><time>2026-03-22T10:26:34.998Z</time></trkpt><trkpt lat="42.67531242494711" lon="-2.4493848458734457"><ele>792.0</ele><time>2026-03-22T10:26:35.998Z</time></trkpt><trkpt lat="42.67544272668657" lon="-2.449487495718234"><ele>792.0</ele><time>2026-03-22T10:26:36.998Z</time></trkpt><trkpt lat="42.67557572871262" lon="-2.4496137179051742"><ele>789.3333333333333</ele><time>2026-03-22T10:26:37.998Z</time></trkpt><trkpt lat="42.67571141946788" lon="-2.4497343716473883"><ele>786.6666666666666</ele><time>2026-03-22T10:26:38.998Z</time></trkpt><trkpt lat="42.675849957056364" lon="-2.4498453634141506"><ele>784.0</ele><time>2026-03-22T10:26:39.998Z</time></trkpt><trkpt lat="42.675978414349174" lon="-2.4499480325692775"><ele>784.0</ele><time>2026-03-22T10:26:40.998Z</time></trkpt><trkpt lat="42.676090678063254" lon="-2.4500310001629657"><ele>784.0</ele><time>2026-03-22T10:26:41.998Z</time></trkpt><trkpt lat="42.676199861969096" lon="-2.450084743751871"><ele>784.0</ele><time>2026-03-22T10:26:42.998Z</time></trkpt><trkpt lat="42.67632000045281" lon="-2.450078472625493"><ele>784.0</ele><time>2026-03-22T10:26:43.998Z</time></trkpt><trkpt lat="42.676428218165" lon="-2.450057279839377"><ele>785.2</ele><time>2026-03-22T10:26:44.998Z</time></trkpt><trkpt lat="42.6765234796292" lon="-2.4500173532074707"><ele>786.4000000000001</ele><time>2026-03-22T10:26:45.998Z</time></trkpt><trkpt lat="42.67661725710652" lon="-2.449957351334853"><ele>787.6</ele><time>2026-03-22T10:26:46.998Z</time></trkpt><trkpt lat="42.6767283479778" lon="-2.449901993277583"><ele>788.8</ele><time>2026-03-22T10:26:47.998Z</time></trkpt><trkpt lat="42.676836013126135" lon="-2.4498859333115877"><ele>790.0</ele><time>2026-03-22T10:26:49Z</time></trkpt><trkpt lat="42.67694837516313" lon="-2.4499465147284387"><ele>789.5</ele><time>2026-03-22T10:26:50Z</time></trkpt><trkpt lat="42.677042806283836" lon="-2.4500761790703964"><ele>789.0</ele><time>2026-03-22T10:26:51Z</time></trkpt><trkpt lat="42.6771567094118" lon="-2.4501743448545312"><ele>788.5</ele><time>2026-03-22T10:26:52Z</time></trkpt><trkpt lat="42.67726002311395" lon="-2.450307745662343"><ele>788.0</ele><time>2026-03-22T10:26:53Z</time></trkpt><trkpt lat="42.67731951563968" lon="-2.4504817304902144"><ele>788.0</ele><time>2026-03-22T10:26:54Z</time></trkpt><trkpt lat="42.677393303835274" lon="-2.4506452336886535"><ele>788.0</ele><time>2026-03-22T10:26:55Z</time></trkpt><trkpt lat="42.67743127349656" lon="-2.4508416438507736"><ele>788.0</ele><time>2026-03-22T10:26:56Z</time></trkpt><trkpt lat="42.677483547936944" lon="-2.4510377578358304"><ele>788.0</ele><time>2026-03-22T10:26:57Z</time></trkpt><trkpt lat="42.6775529969975" lon="-2.4512182301206087"><ele>787.5</ele><time>2026-03-22T10:26:58Z</time></trkpt><trkpt lat="42.67760304642542" lon="-2.4513971874683707"><ele>787.0</ele><time>2026-03-22T10:26:59Z</time></trkpt><trkpt lat="42.67769495931469" lon="-2.451523153592024"><ele>786.5</ele><time>2026-03-22T10:27:00Z</time></trkpt><trkpt lat="42.67778927800941" lon="-2.4516528210119004"><ele>786.0</ele><time>2026-03-22T10:27:01Z</time></trkpt><trkpt lat="42.677865219791315" lon="-2.45181778465423"><ele>786.0</ele><time>2026-03-22T10:27:02Z</time></trkpt><trkpt lat="42.677934621671405" lon="-2.451995875413774"><ele>786.0</ele><time>2026-03-22T10:27:03Z</time></trkpt><trkpt lat="42.67799122890139" lon="-2.452156407407733"><ele>786.0</ele><time>2026-03-22T10:27:04Z</time></trkpt><trkpt lat="42.67804441600411" lon="-2.452267295109511"><ele>786.0</ele><time>2026-03-22T10:27:05Z</time></trkpt><trkpt lat="42.678104188589295" lon="-2.452339317223912"><ele>784.0</ele><time>2026-03-22T10:27:06Z</time></trkpt><trkpt lat="42.678189218528175" lon="-2.452387180973419"><ele>782.0</ele><time>2026-03-22T10:27:07Z</time></trkpt><trkpt lat="42.678304542468" lon="-2.4523475261490075"><ele>780.0</ele><time>2026-03-22T10:27:08Z</time></trkpt><trkpt lat="42.67843291803103" lon="-2.452347933934996"><ele>778.0</ele><time>2026-03-22T10:27:09Z</time></trkpt><trkpt lat="42.67857217259206" lon="-2.4523456230063303"><ele>777.3333333333333</ele><time>2026-03-22T10:27:10Z</time></trkpt><trkpt lat="42.67872693708519" lon="-2.452339599844994"><ele>776.6666666666667</ele><time>2026-03-22T10:27:11Z</time></trkpt><trkpt lat="42.67889179389534" lon="-2.452327020715311"><ele>776.0</ele><time>2026-03-22T10:27:12Z</time></trkpt><trkpt lat="42.67905894817082" lon="-2.452316658229994"><ele>776.0</ele><time>2026-03-22T10:27:13Z</time></trkpt><trkpt lat="42.67922266015793" lon="-2.4523010534029996"><ele>776.0</ele><time>2026-03-22T10:27:14Z</time></trkpt><trkpt lat="42.67938758892433" lon="-2.4522788339830672"><ele>776.0</ele><time>2026-03-22T10:27:15Z</time></trkpt><trkpt lat="42.67955638741712" lon="-2.4522650295161474"><ele>775.3333333333334</ele><time>2026-03-22T10:27:16Z</time></trkpt><trkpt lat="42.67972858601953" lon="-2.452213752596174"><ele>774.6666666666667</ele><time>2026-03-22T10:27:17Z</time></trkpt><trkpt lat="42.679896777607446" lon="-2.4521556638209923"><ele>774.0</ele><time>2026-03-22T10:27:18Z</time></trkpt><trkpt lat="42.68003860637971" lon="-2.4521198201146577"><ele>776.0</ele><time>2026-03-22T10:27:19Z</time></trkpt><trkpt lat="42.680169861706865" lon="-2.452080718243301"><ele>778.0</ele><time>2026-03-22T10:27:20Z</time></trkpt><trkpt lat="42.68029598318482" lon="-2.4520368985103635"><ele>780.0</ele><time>2026-03-22T10:27:21Z</time></trkpt><trkpt lat="42.68043139587233" lon="-2.4519783045336854"><ele>782.0</ele><time>2026-03-22T10:27:22Z</time></trkpt><trkpt lat="42.68058399468989" lon="-2.451921541368392"><ele>782.0</ele><time>2026-03-22T10:27:23Z</time></trkpt><trkpt lat="42.680744191173254" lon="-2.4518486662389867"><ele>782.0</ele><time>2026-03-22T10:27:24Z</time></trkpt><trkpt lat="42.68090483194021" lon="-2.4517716919127848"><ele>782.0</ele><time>2026-03-22T10:27:25Z</time></trkpt><trkpt lat="42.68106214865042" lon="-2.4517019984174393"><ele>778.5</ele><time>2026-03-22T10:27:26Z</time></trkpt><trkpt lat="42.68119784526689" lon="-2.451632580596195"><ele>775.0</ele><time>2026-03-22T10:27:27Z</time></trkpt><trkpt lat="42.68132716735469" lon="-2.4515634403359714"><ele>771.5</ele><time>2026-03-22T10:27:28Z</time></trkpt><trkpt lat="42.681462142261935" lon="-2.451494020849043"><ele>768.0</ele><time>2026-03-22T10:27:29Z</time></trkpt><trkpt lat="42.681605819733676" lon="-2.4514196398335657"><ele>768.0</ele><time>2026-03-22T10:27:30Z</time></trkpt><trkpt lat="42.68174539198134" lon="-2.4513382576962246"><ele>768.0</ele><time>2026-03-22T10:27:31Z</time></trkpt><trkpt lat="42.681886443704386" lon="-2.4512662459048635"><ele>768.0</ele><time>2026-03-22T10:27:32Z</time></trkpt><trkpt lat="42.68202362724436" lon="-2.4512163326281318"><ele>768.0</ele><time>2026-03-22T10:27:32.999Z</time></trkpt><trkpt lat="42.68215768864263" lon="-2.451139147256365"><ele>768.6666666666667</ele><time>2026-03-22T10:27:33.999Z</time></trkpt><trkpt lat="42.682315596447715" lon="-2.451128950436772"><ele>769.3333333333334</ele><time>2026-03-22T10:27:34.999Z</time></trkpt><trkpt lat="42.68247537295863" lon="-2.4512047416789122"><ele>770.0</ele><time>2026-03-22T10:27:35.999Z</time></trkpt><trkpt lat="42.68262741714475" lon="-2.451271707102341"><ele>767.0</ele><time>2026-03-22T10:27:36.999Z</time></trkpt><trkpt lat="42.68278351946243" lon="-2.451322284127686"><ele>764.0</ele><time>2026-03-22T10:27:37.999Z</time></trkpt><trkpt lat="42.68292836663473" lon="-2.4513417361173415"><ele>761.0</ele><time>2026-03-22T10:27:38.999Z</time></trkpt><trkpt lat="42.683065722320976" lon="-2.4513400901971436"><ele>758.0</ele><time>2026-03-22T10:27:39.999Z</time></trkpt><trkpt lat="42.68319354047425" lon="-2.451311367172506"><ele>758.0</ele><time>2026-03-22T10:27:40.999Z</time></trkpt><trkpt lat="42.68330997827747" lon="-2.451296494187175"><ele>758.0</ele><time>2026-03-22T10:27:41.999Z</time></trkpt><trkpt lat="42.683412305113144" lon="-2.4513009327840702"><ele>758.0</ele><time>2026-03-22T10:27:42.999Z</time></trkpt><trkpt lat="42.68348947891909" lon="-2.4513071064264453"><ele>758.0</ele><time>2026-03-22T10:27:43.999Z</time></trkpt><trkpt lat="42.68353023632585" lon="-2.4514099283655337"><ele>758.0</ele><time>2026-03-22T10:27:44.999Z</time></trkpt><trkpt lat="42.683568072546464" lon="-2.4515033233406274"><ele>758.0</ele><time>2026-03-22T10:27:45.999Z</time></trkpt><trkpt lat="42.683592682231854" lon="-2.451638913104037"><ele>758.0</ele><time>2026-03-22T10:27:46.999Z</time></trkpt><trkpt lat="42.68359906994243" lon="-2.4517841455314175"><ele>758.0</ele><time>2026-03-22T10:27:47.999Z</time></trkpt><trkpt lat="42.683591190754676" lon="-2.45197198699699"><ele>758.0</ele><time>2026-03-22T10:27:48.999Z</time></trkpt><trkpt lat="42.68358041955967" lon="-2.452168473345718"><ele>757.25</ele><time>2026-03-22T10:27:49.999Z</time></trkpt><trkpt lat="42.68356948849526" lon="-2.4523632646133797"><ele>756.5</ele><time>2026-03-22T10:27:50.999Z</time></trkpt><trkpt lat="42.6835716804301" lon="-2.4525399913729173"><ele>755.75</ele><time>2026-03-22T10:27:51.999Z</time></trkpt><trkpt lat="42.68356494519814" lon="-2.452705520370778"><ele>755.0</ele><time>2026-03-22T10:27:52.999Z</time></trkpt><trkpt lat="42.68355992186268" lon="-2.4528690729477374"><ele>753.0</ele><time>2026-03-22T10:27:53.999Z</time></trkpt><trkpt lat="42.683557410179965" lon="-2.4530391259417685"><ele>751.0</ele><time>2026-03-22T10:27:54.999Z</time></trkpt><trkpt lat="42.683562514416636" lon="-2.4532171030776"><ele>749.0</ele><time>2026-03-22T10:27:55.999Z</time></trkpt><trkpt lat="42.68357964387706" lon="-2.4533929913711416"><ele>747.0</ele><time>2026-03-22T10:27:56.999Z</time></trkpt><trkpt lat="42.68360235989072" lon="-2.453545751889372"><ele>745.8333333333334</ele><time>2026-03-22T10:27:57.999Z</time></trkpt><trkpt lat="42.683628134516276" lon="-2.453665909530982"><ele>744.6666666666666</ele><time>2026-03-22T10:27:58.999Z</time></trkpt><trkpt lat="42.68368384035797" lon="-2.4537433757744136"><ele>743.5</ele><time>2026-03-22T10:27:59.999Z</time></trkpt><trkpt lat="42.68375095970205" lon="-2.4537906626163495"><ele>742.3333333333333</ele><time>2026-03-22T10:28:00.999Z</time></trkpt><trkpt lat="42.68383030587977" lon="-2.4537893516443288"><ele>741.1666666666666</ele><time>2026-03-22T10:28:01.999Z</time></trkpt><trkpt lat="42.68389639390728" lon="-2.4537132809676607"><ele>740.0</ele><time>2026-03-22T10:28:02.999Z</time></trkpt><trkpt lat="42.6839599578766" lon="-2.453637002144955"><ele>740.0</ele><time>2026-03-22T10:28:03.999Z</time></trkpt><trkpt lat="42.68404514225984" lon="-2.4535632494526993"><ele>740.0</ele><time>2026-03-22T10:28:04.999Z</time></trkpt><trkpt lat="42.68413694100166" lon="-2.453486283826086"><ele>740.0</ele><time>2026-03-22T10:28:05.999Z</time></trkpt><trkpt lat="42.68420956331155" lon="-2.4533700664795526"><ele>740.0</ele><time>2026-03-22T10:28:06.999Z</time></trkpt><trkpt lat="42.68425261114662" lon="-2.4532125849387345"><ele>740.0</ele><time>2026-03-22T10:28:07.999Z</time></trkpt><trkpt lat="42.684289536659264" lon="-2.45303374635009"><ele>741.0</ele><time>2026-03-22T10:28:08.999Z</time></trkpt><trkpt lat="42.684332104926874" lon="-2.452850920250805"><ele>742.0</ele><time>2026-03-22T10:28:09.999Z</time></trkpt><trkpt lat="42.684369655026764" lon="-2.452679244982313"><ele>743.0</ele><time>2026-03-22T10:28:10.999Z</time></trkpt><trkpt lat="42.684400988461505" lon="-2.4525317591321874"><ele>744.0</ele><time>2026-03-22T10:28:11.999Z</time></trkpt><trkpt lat="42.68441396644216" lon="-2.452413196356742"><ele>741.6</ele><time>2026-03-22T10:28:12.999Z</time></trkpt><trkpt lat="42.684453216148704" lon="-2.4523103008396925"><ele>739.2</ele><time>2026-03-22T10:28:13.999Z</time></trkpt><trkpt lat="42.68452733177537" lon="-2.4522278144983534"><ele>736.8000000000001</ele><time>2026-03-22T10:28:14.999Z</time></trkpt><trkpt lat="42.68466478662074" lon="-2.4522476835060445"><ele>734.4000000000001</ele><time>2026-03-22T10:28:15.999Z</time></trkpt><trkpt lat="42.68477876050357" lon="-2.452283042793375"><ele>732.0</ele><time>2026-03-22T10:28:16.999Z</time></trkpt><trkpt lat="42.68490449230665" lon="-2.452336813249974"><ele>732.0</ele><time>2026-03-22T10:28:17.999Z</time></trkpt><trkpt lat="42.68504293411306" lon="-2.4524238282685578"><ele>732.0</ele><time>2026-03-22T10:28:18.999Z</time></trkpt><trkpt lat="42.68517834469588" lon="-2.452527856464371"><ele>732.0</ele><time>2026-03-22T10:28:19.999Z</time></trkpt><trkpt lat="42.6853015786149" lon="-2.452623362471204"><ele>729.25</ele><time>2026-03-22T10:28:20.999Z</time></trkpt><trkpt lat="42.68541960142666" lon="-2.452687303648873"><ele>726.5</ele><time>2026-03-22T10:28:21.999Z</time></trkpt><trkpt lat="42.68554484423565" lon="-2.452709451316433"><ele>723.75</ele><time>2026-03-22T10:28:22.999Z</time></trkpt><trkpt lat="42.68567921438153" lon="-2.452702810771876"><ele>721.0</ele><time>2026-03-22T10:28:23.999Z</time></trkpt><trkpt lat="42.6858062003986" lon="-2.4526629351539064"><ele>721.0</ele><time>2026-03-22T10:28:24.999Z</time></trkpt><trkpt lat="42.685919278784866" lon="-2.452588086882529"><ele>721.0</ele><time>2026-03-22T10:28:25.999Z</time></trkpt><trkpt lat="42.685994327981476" lon="-2.4524645777519662"><ele>721.0</ele><time>2026-03-22T10:28:26.999Z</time></trkpt><trkpt lat="42.68606595807611" lon="-2.452322978215552"><ele>721.0</ele><time>2026-03-22T10:28:27.999Z</time></trkpt><trkpt lat="42.68611737903221" lon="-2.452147907270047"><ele>719.3333333333334</ele><time>2026-03-22T10:28:28.999Z</time></trkpt><trkpt lat="42.68617134133139" lon="-2.4519547868156755"><ele>717.6666666666666</ele><time>2026-03-22T10:28:29.999Z</time></trkpt><trkpt lat="42.68621120211531" lon="-2.451749599437055"><ele>716.0</ele><time>2026-03-22T10:28:30.999Z</time></trkpt><trkpt lat="42.68625692334352" lon="-2.4515330514810856"><ele>716.0</ele><time>2026-03-22T10:28:31.999Z</time></trkpt><trkpt lat="42.686299139785035" lon="-2.4513106401315796"><ele>716.0</ele><time>2026-03-22T10:28:32.999Z</time></trkpt><trkpt lat="42.68634985517956" lon="-2.4510845520884077"><ele>716.0</ele><time>2026-03-22T10:28:33.998Z</time></trkpt><trkpt lat="42.686403458663285" lon="-2.450864106901549"><ele>714.6666666666666</ele><time>2026-03-22T10:28:34.998Z</time></trkpt><trkpt lat="42.686452472654246" lon="-2.450645749211619"><ele>713.3333333333334</ele><time>2026-03-22T10:28:35.998Z</time></trkpt><trkpt lat="42.68645824894615" lon="-2.4504324996503266"><ele>712.0</ele><time>2026-03-22T10:28:36.998Z</time></trkpt><trkpt lat="42.686484517113385" lon="-2.4502147238408836"><ele>711.6666666666667</ele><time>2026-03-22T10:28:37.998Z</time></trkpt><trkpt lat="42.68647967165274" lon="-2.449981329700978"><ele>711.3333333333334</ele><time>2026-03-22T10:28:38.998Z</time></trkpt><trkpt lat="42.6864820321475" lon="-2.449748681634276"><ele>711.0</ele><time>2026-03-22T10:28:39.998Z</time></trkpt><trkpt lat="42.6864736242572" lon="-2.4495031053855296"><ele>710.3333333333334</ele><time>2026-03-22T10:28:40.998Z</time></trkpt><trkpt lat="42.68645427404802" lon="-2.4492718198213206"><ele>709.6666666666667</ele><time>2026-03-22T10:28:41.998Z</time></trkpt><trkpt lat="42.6864383430758" lon="-2.4490645944230445"><ele>709.0</ele><time>2026-03-22T10:28:42.998Z</time></trkpt><trkpt lat="42.68644846360586" lon="-2.448891234058835"><ele>710.5</ele><time>2026-03-22T10:28:43.998Z</time></trkpt><trkpt lat="42.68651234513138" lon="-2.44874990036747"><ele>712.0</ele><time>2026-03-22T10:28:44.998Z</time></trkpt><trkpt lat="42.68660347577766" lon="-2.4486343279564986"><ele>713.5</ele><time>2026-03-22T10:28:45.998Z</time></trkpt><trkpt lat="42.68668387649803" lon="-2.4484870713219125"><ele>715.0</ele><time>2026-03-22T10:28:46.998Z</time></trkpt><trkpt lat="42.68678613277624" lon="-2.448370678319238"><ele>715.0</ele><time>2026-03-22T10:28:47.998Z</time></trkpt><trkpt lat="42.686885517085535" lon="-2.448220625117009"><ele>715.0</ele><time>2026-03-22T10:28:48.998Z</time></trkpt><trkpt lat="42.6870067565215" lon="-2.4480717250358253"><ele>715.0</ele><time>2026-03-22T10:28:49.998Z</time></trkpt><trkpt lat="42.68714209155892" lon="-2.447909615142392"><ele>712.0</ele><time>2026-03-22T10:28:50.998Z</time></trkpt><trkpt lat="42.6872775050241" lon="-2.4477281376850377"><ele>709.0</ele><time>2026-03-22T10:28:51.998Z</time></trkpt><trkpt lat="42.68740958365523" lon="-2.4475588507629915"><ele>706.0</ele><time>2026-03-22T10:28:52.998Z</time></trkpt><trkpt lat="42.68754426615595" lon="-2.447390544022243"><ele>706.0</ele><time>2026-03-22T10:28:53.998Z</time></trkpt><trkpt lat="42.68768129244954" lon="-2.4472282447952676"><ele>706.0</ele><time>2026-03-22T10:28:55Z</time></trkpt><trkpt lat="42.68781835802682" lon="-2.4470675962013293"><ele>706.0</ele><time>2026-03-22T10:28:56Z</time></trkpt><trkpt lat="42.68796364440709" lon="-2.446910754299313"><ele>705.6666666666667</ele><time>2026-03-22T10:28:57Z</time></trkpt><trkpt lat="42.688102651870786" lon="-2.4467552183861616"><ele>705.3333333333334</ele><time>2026-03-22T10:28:58Z</time></trkpt><trkpt lat="42.68824439650978" lon="-2.4466124686902724"><ele>705.0</ele><time>2026-03-22T10:28:59Z</time></trkpt><trkpt lat="42.68839331139605" lon="-2.4464820389033295"><ele>705.0</ele><time>2026-03-22T10:29:00Z</time></trkpt><trkpt lat="42.688552742171474" lon="-2.4463691145137694"><ele>705.0</ele><time>2026-03-22T10:29:01Z</time></trkpt><trkpt lat="42.688713232096084" lon="-2.446250664412082"><ele>705.0</ele><time>2026-03-22T10:29:02Z</time></trkpt><trkpt lat="42.68887014705665" lon="-2.4461303692190572"><ele>703.0</ele><time>2026-03-22T10:29:03Z</time></trkpt><trkpt lat="42.68900788569223" lon="-2.4459931262347587"><ele>701.0</ele><time>2026-03-22T10:29:04Z</time></trkpt><trkpt lat="42.68914051657712" lon="-2.4458614771307605"><ele>699.0</ele><time>2026-03-22T10:29:05Z</time></trkpt><trkpt lat="42.68927125328062" lon="-2.4457405531123584"><ele>699.0</ele><time>2026-03-22T10:29:06Z</time></trkpt><trkpt lat="42.68938220552998" lon="-2.4456091895004985"><ele>699.0</ele><time>2026-03-22T10:29:07Z</time></trkpt><trkpt lat="42.68948332626125" lon="-2.445485768728223"><ele>699.0</ele><time>2026-03-22T10:29:08Z</time></trkpt><trkpt lat="42.6895722468382" lon="-2.445368355084922"><ele>699.0</ele><time>2026-03-22T10:29:09Z</time></trkpt><trkpt lat="42.68965655697078" lon="-2.4452693837238333"><ele>696.5</ele><time>2026-03-22T10:29:10Z</time></trkpt><trkpt lat="42.689745961610384" lon="-2.4451956316477066"><ele>694.0</ele><time>2026-03-22T10:29:11Z</time></trkpt><trkpt lat="42.68985377891963" lon="-2.4451657662574915"><ele>691.5</ele><time>2026-03-22T10:29:12Z</time></trkpt><trkpt lat="42.689982135093295" lon="-2.4451830192749684"><ele>689.0</ele><time>2026-03-22T10:29:13Z</time></trkpt><trkpt lat="42.69012332598336" lon="-2.445217423576512"><ele>688.0</ele><time>2026-03-22T10:29:14Z</time></trkpt><trkpt lat="42.69028285833579" lon="-2.445249251749918"><ele>687.0</ele><time>2026-03-22T10:29:15Z</time></trkpt><trkpt lat="42.69044604990481" lon="-2.4452722620620624"><ele>686.0</ele><time>2026-03-22T10:29:16Z</time></trkpt><trkpt lat="42.690605763063566" lon="-2.4452873169897287"><ele>686.0</ele><time>2026-03-22T10:29:17Z</time></trkpt><trkpt lat="42.6907685582885" lon="-2.445312187085623"><ele>686.0</ele><time>2026-03-22T10:29:18Z</time></trkpt><trkpt lat="42.690937926346095" lon="-2.445325473802585"><ele>686.0</ele><time>2026-03-22T10:29:19Z</time></trkpt><trkpt lat="42.691099342356175" lon="-2.44534949477504"><ele>685.6666666666666</ele><time>2026-03-22T10:29:20Z</time></trkpt><trkpt lat="42.69125218940556" lon="-2.4454011664166453"><ele>685.3333333333334</ele><time>2026-03-22T10:29:21Z</time></trkpt><trkpt lat="42.69140365487988" lon="-2.4454806857042506"><ele>685.0</ele><time>2026-03-22T10:29:22Z</time></trkpt><trkpt lat="42.69154455398332" lon="-2.4455757647362066"><ele>685.0</ele><time>2026-03-22T10:29:23Z</time></trkpt><trkpt lat="42.69168039248163" lon="-2.4456575792429884"><ele>685.0</ele><time>2026-03-22T10:29:24Z</time></trkpt><trkpt lat="42.691832097481615" lon="-2.445691940610314"><ele>685.0</ele><time>2026-03-22T10:29:25Z</time></trkpt><trkpt lat="42.692004444037416" lon="-2.4456954947968166"><ele>683.3333333333334</ele><time>2026-03-22T10:29:26Z</time></trkpt><trkpt lat="42.69217436540037" lon="-2.445684717060522"><ele>681.6666666666666</ele><time>2026-03-22T10:29:27Z</time></trkpt><trkpt lat="42.69236911743134" lon="-2.4456796002888037"><ele>680.0</ele><time>2026-03-22T10:29:28Z</time></trkpt><trkpt lat="42.69256242007351" lon="-2.4456614774819285"><ele>680.0</ele><time>2026-03-22T10:29:29Z</time></trkpt><trkpt lat="42.69274671096112" lon="-2.4456434713339563"><ele>680.0</ele><time>2026-03-22T10:29:30Z</time></trkpt><trkpt lat="42.692943466381" lon="-2.445625338529669"><ele>680.0</ele><time>2026-03-22T10:29:31Z</time></trkpt><trkpt lat="42.69313888309962" lon="-2.4456083181941204"><ele>677.3333333333333</ele><time>2026-03-22T10:29:32Z</time></trkpt><trkpt lat="42.69332827519486" lon="-2.4455650722041433"><ele>674.6666666666666</ele><time>2026-03-22T10:29:33Z</time></trkpt><trkpt lat="42.69351469211405" lon="-2.445508722074663"><ele>672.0</ele><time>2026-03-22T10:29:34Z</time></trkpt><trkpt lat="42.69368517986393" lon="-2.4454516508579243"><ele>670.3333333333334</ele><time>2026-03-22T10:29:35Z</time></trkpt><trkpt lat="42.69385037165146" lon="-2.4454111132027854"><ele>668.6666666666667</ele><time>2026-03-22T10:29:36Z</time></trkpt><trkpt lat="42.694025057274885" lon="-2.4453944623007327"><ele>667.0</ele><time>2026-03-22T10:29:37Z</time></trkpt><trkpt lat="42.694204132041676" lon="-2.4453934604658025"><ele>667.0</ele><time>2026-03-22T10:29:37.999Z</time></trkpt><trkpt lat="42.694391110942725" lon="-2.445394605084467"><ele>667.0</ele><time>2026-03-22T10:29:38.999Z</time></trkpt><trkpt lat="42.69457950488014" lon="-2.445402220192153"><ele>667.0</ele><time>2026-03-22T10:29:39.999Z</time></trkpt><trkpt lat="42.69476622497861" lon="-2.445398895509679"><ele>664.6666666666667</ele><time>2026-03-22T10:29:40.999Z</time></trkpt><trkpt lat="42.69493564635781" lon="-2.4453944746651546"><ele>662.3333333333334</ele><time>2026-03-22T10:29:41.999Z</time></trkpt><trkpt lat="42.69509950309501" lon="-2.445363940837013"><ele>660.0</ele><time>2026-03-22T10:29:42.999Z</time></trkpt><trkpt lat="42.69524641138521" lon="-2.4452920912690437"><ele>658.3333333333334</ele><time>2026-03-22T10:29:43.999Z</time></trkpt><trkpt lat="42.69539878819472" lon="-2.445194312106766"><ele>656.6666666666667</ele><time>2026-03-22T10:29:44.999Z</time></trkpt><trkpt lat="42.69554210174266" lon="-2.445098762671877"><ele>655.0</ele><time>2026-03-22T10:29:45.999Z</time></trkpt><trkpt lat="42.69567843741665" lon="-2.445001822068297"><ele>655.0</ele><time>2026-03-22T10:29:46.999Z</time></trkpt><trkpt lat="42.695813910896845" lon="-2.4448902240730086"><ele>655.0</ele><time>2026-03-22T10:29:47.999Z</time></trkpt><trkpt lat="42.695952020438135" lon="-2.4447581632940927"><ele>655.0</ele><time>2026-03-22T10:29:48.999Z</time></trkpt><trkpt lat="42.69609727317524" lon="-2.4446112392256194"><ele>654.6666666666667</ele><time>2026-03-22T10:29:49.999Z</time></trkpt><trkpt lat="42.69624664697648" lon="-2.4444484174017735"><ele>654.3333333333334</ele><time>2026-03-22T10:29:50.999Z</time></trkpt><trkpt lat="42.69639677837887" lon="-2.444292183791222"><ele>654.0</ele><time>2026-03-22T10:29:51.999Z</time></trkpt><trkpt lat="42.696541702909414" lon="-2.4441494751930026"><ele>654.0</ele><time>2026-03-22T10:29:52.999Z</time></trkpt><trkpt lat="42.69670035762186" lon="-2.4440013935747915"><ele>654.0</ele><time>2026-03-22T10:29:53.999Z</time></trkpt><trkpt lat="42.69685398636075" lon="-2.4438538425121097"><ele>654.0</ele><time>2026-03-22T10:29:54.999Z</time></trkpt><trkpt lat="42.697001906556814" lon="-2.443704584854468"><ele>658.6666666666666</ele><time>2026-03-22T10:29:55.999Z</time></trkpt><trkpt lat="42.69715137131882" lon="-2.443550258162954"><ele>663.3333333333333</ele><time>2026-03-22T10:29:56.999Z</time></trkpt><trkpt lat="42.69730391663698" lon="-2.443400644150145"><ele>668.0</ele><time>2026-03-22T10:29:57.999Z</time></trkpt><trkpt lat="42.69745838176642" lon="-2.4432549515912356"><ele>668.0</ele><time>2026-03-22T10:29:58.999Z</time></trkpt><trkpt lat="42.69760346794993" lon="-2.443115605658056"><ele>668.0</ele><time>2026-03-22T10:29:59.999Z</time></trkpt><trkpt lat="42.697732228199506" lon="-2.442991961044131"><ele>668.0</ele><time>2026-03-22T10:30:00.999Z</time></trkpt><trkpt lat="42.69784876977987" lon="-2.4428711279085187"><ele>671.75</ele><time>2026-03-22T10:30:01.999Z</time></trkpt><trkpt lat="42.697932150846924" lon="-2.4427422474727702"><ele>675.5</ele><time>2026-03-22T10:30:02.999Z</time></trkpt><trkpt lat="42.69797304228127" lon="-2.4425963938291866"><ele>679.25</ele><time>2026-03-22T10:30:03.999Z</time></trkpt><trkpt lat="42.69798684970547" lon="-2.442436343766614"><ele>683.0</ele><time>2026-03-22T10:30:04.999Z</time></trkpt><trkpt lat="42.69802467112665" lon="-2.4422755154611417"><ele>683.0</ele><time>2026-03-22T10:30:05.999Z</time></trkpt><trkpt lat="42.698097421586056" lon="-2.442137482771138"><ele>683.0</ele><time>2026-03-22T10:30:06.999Z</time></trkpt><trkpt lat="42.69819877198373" lon="-2.4420202624772958"><ele>683.0</ele><time>2026-03-22T10:30:07.999Z</time></trkpt><trkpt lat="42.69831073041713" lon="-2.441911213701476"><ele>683.0</ele><time>2026-03-22T10:30:08.999Z</time></trkpt><trkpt lat="42.69842765170014" lon="-2.441803037076042"><ele>684.0</ele><time>2026-03-22T10:30:09.999Z</time></trkpt><trkpt lat="42.698506998759356" lon="-2.4416932475286504"><ele>685.0</ele><time>2026-03-22T10:30:10.999Z</time></trkpt><trkpt lat="42.69857098114451" lon="-2.4415728301792585"><ele>686.0</ele><time>2026-03-22T10:30:11.999Z</time></trkpt><trkpt lat="42.69860752901142" lon="-2.441405537661787"><ele>687.0</ele><time>2026-03-22T10:30:12.999Z</time></trkpt><trkpt lat="42.698621620777025" lon="-2.441226126386668"><ele>687.3333333333334</ele><time>2026-03-22T10:30:13.999Z</time></trkpt><trkpt lat="42.69863047429516" lon="-2.4410258674890066"><ele>687.6666666666667</ele><time>2026-03-22T10:30:14.999Z</time></trkpt><trkpt lat="42.6986510218316" lon="-2.440817630195883"><ele>688.0</ele><time>2026-03-22T10:30:15.999Z</time></trkpt><trkpt lat="42.698677910606825" lon="-2.4405990229749213"><ele>689.3333333333334</ele><time>2026-03-22T10:30:16.999Z</time></trkpt><trkpt lat="42.69869702732003" lon="-2.4403606468990873"><ele>690.6666666666666</ele><time>2026-03-22T10:30:17.999Z</time></trkpt><trkpt lat="42.698692812592974" lon="-2.440103493814968"><ele>692.0</ele><time>2026-03-22T10:30:18.999Z</time></trkpt><trkpt lat="42.69867806604816" lon="-2.4398316002458134"><ele>694.0</ele><time>2026-03-22T10:30:19.999Z</time></trkpt><trkpt lat="42.69866006332293" lon="-2.43956654611386"><ele>696.0</ele><time>2026-03-22T10:30:20.999Z</time></trkpt><trkpt lat="42.69864686321753" lon="-2.439332021481745"><ele>698.0</ele><time>2026-03-22T10:30:21.999Z</time></trkpt><trkpt lat="42.69862461302992" lon="-2.439120373701706"><ele>696.6666666666666</ele><time>2026-03-22T10:30:22.999Z</time></trkpt><trkpt lat="42.698579137529215" lon="-2.438931880633193"><ele>695.3333333333334</ele><time>2026-03-22T10:30:23.999Z</time></trkpt><trkpt lat="42.698498334409656" lon="-2.4387573813798316"><ele>694.0</ele><time>2026-03-22T10:30:24.999Z</time></trkpt><trkpt lat="42.69839613210212" lon="-2.438585435136834"><ele>694.0</ele><time>2026-03-22T10:30:25.999Z</time></trkpt><trkpt lat="42.69829439303363" lon="-2.4383869935284435"><ele>694.0</ele><time>2026-03-22T10:30:26.999Z</time></trkpt><trkpt lat="42.698187935651234" lon="-2.4381704106849633"><ele>694.0</ele><time>2026-03-22T10:30:27.999Z</time></trkpt><trkpt lat="42.69806962159769" lon="-2.4379440479256798"><ele>700.0</ele><time>2026-03-22T10:30:28.999Z</time></trkpt><trkpt lat="42.69795254013281" lon="-2.4377138204384687"><ele>706.0</ele><time>2026-03-22T10:30:29.999Z</time></trkpt><trkpt lat="42.69784912006475" lon="-2.437497160137471"><ele>712.0</ele><time>2026-03-22T10:30:30.999Z</time></trkpt><trkpt lat="42.697756556752736" lon="-2.4373043351135064"><ele>710.25</ele><time>2026-03-22T10:30:31.999Z</time></trkpt><trkpt lat="42.69766256500497" lon="-2.4371498194995733"><ele>708.5</ele><time>2026-03-22T10:30:32.999Z</time></trkpt><trkpt lat="42.69755425083242" lon="-2.4370188649921176"><ele>706.75</ele><time>2026-03-22T10:30:33.999Z</time></trkpt><trkpt lat="42.69742750218017" lon="-2.4369008110682944"><ele>705.0</ele><time>2026-03-22T10:30:34.999Z</time></trkpt><trkpt lat="42.69729652676575" lon="-2.4367812247659915"><ele>705.0</ele><time>2026-03-22T10:30:35.999Z</time></trkpt><trkpt lat="42.69715936120966" lon="-2.4366681393910983"><ele>705.0</ele><time>2026-03-22T10:30:36.999Z</time></trkpt><trkpt lat="42.69703014168598" lon="-2.4365670321102972"><ele>705.0</ele><time>2026-03-22T10:30:37.999Z</time></trkpt><trkpt lat="42.69691034731559" lon="-2.4364802244121746"><ele>705.0</ele><time>2026-03-22T10:30:38.999Z</time></trkpt><trkpt lat="42.696803389059575" lon="-2.436413953952134"><ele>701.0</ele><time>2026-03-22T10:30:39.998Z</time></trkpt><trkpt lat="42.69671887285415" lon="-2.43635473017722"><ele>697.0</ele><time>2026-03-22T10:30:40.998Z</time></trkpt><trkpt lat="42.69666319364435" lon="-2.4362876534291003"><ele>693.0</ele><time>2026-03-22T10:30:41.998Z</time></trkpt><trkpt lat="42.69663495017242" lon="-2.4362038862776947"><ele>689.0</ele><time>2026-03-22T10:30:42.998Z</time></trkpt><trkpt lat="42.69662496792877" lon="-2.436088255174746"><ele>685.0</ele><time>2026-03-22T10:30:43.998Z</time></trkpt><trkpt lat="42.696629480789774" lon="-2.4359525144527496"><ele>681.0</ele><time>2026-03-22T10:30:44.998Z</time></trkpt><trkpt lat="42.6966446357641" lon="-2.435805546061782"><ele>681.0</ele><time>2026-03-22T10:30:45.998Z</time></trkpt><trkpt lat="42.6966889622249" lon="-2.4356520449346664"><ele>681.0</ele><time>2026-03-22T10:30:46.998Z</time></trkpt><trkpt lat="42.69675942065716" lon="-2.435522896329856"><ele>681.0</ele><time>2026-03-22T10:30:47.998Z</time></trkpt><trkpt lat="42.696849090821225" lon="-2.43542499560834"><ele>681.0</ele><time>2026-03-22T10:30:48.998Z</time></trkpt><trkpt lat="42.6969585839145" lon="-2.4353583056172976"><ele>684.25</ele><time>2026-03-22T10:30:49.998Z</time></trkpt><trkpt lat="42.69708807975629" lon="-2.4353066712827376"><ele>687.5</ele><time>2026-03-22T10:30:50.998Z</time></trkpt><trkpt lat="42.69722852595958" lon="-2.4352574599378456"><ele>690.75</ele><time>2026-03-22T10:30:51.998Z</time></trkpt><trkpt lat="42.69736445573812" lon="-2.435196268443256"><ele>694.0</ele><time>2026-03-22T10:30:52.998Z</time></trkpt><trkpt lat="42.69750297890374" lon="-2.4351173859927338"><ele>694.0</ele><time>2026-03-22T10:30:53.998Z</time></trkpt><trkpt lat="42.69764237663294" lon="-2.43503630060479"><ele>694.0</ele><time>2026-03-22T10:30:54.998Z</time></trkpt><trkpt lat="42.697788298742914" lon="-2.4349649212794997"><ele>694.0</ele><time>2026-03-22T10:30:55.998Z</time></trkpt><trkpt lat="42.697941336764764" lon="-2.4349033953019545"><ele>698.6666666666667</ele><time>2026-03-22T10:30:56.998Z</time></trkpt><trkpt lat="42.69809928607366" lon="-2.434845572834918"><ele>703.3333333333334</ele><time>2026-03-22T10:30:57.998Z</time></trkpt><trkpt lat="42.69826212590995" lon="-2.4347881855707834"><ele>708.0</ele><time>2026-03-22T10:30:58.998Z</time></trkpt><trkpt lat="42.69842419295462" lon="-2.434724488974895"><ele>708.0</ele><time>2026-03-22T10:30:59.998Z</time></trkpt><trkpt lat="42.698577229734994" lon="-2.4346565133691405"><ele>708.0</ele><time>2026-03-22T10:31:01Z</time></trkpt><trkpt lat="42.698720677184944" lon="-2.4345957767137363"><ele>708.0</ele><time>2026-03-22T10:31:02Z</time></trkpt><trkpt lat="42.69885710569129" lon="-2.4345423125655343"><ele>706.75</ele><time>2026-03-22T10:31:03Z</time></trkpt><trkpt lat="42.698984861022446" lon="-2.4345116899024117"><ele>705.5</ele><time>2026-03-22T10:31:04Z</time></trkpt><trkpt lat="42.6991129802231" lon="-2.434514703738979"><ele>704.25</ele><time>2026-03-22T10:31:05Z</time></trkpt><trkpt lat="42.69924703733568" lon="-2.434555785886134"><ele>703.0</ele><time>2026-03-22T10:31:06Z</time></trkpt><trkpt lat="42.69938491032182" lon="-2.4346200005608356"><ele>709.0</ele><time>2026-03-22T10:31:07Z</time></trkpt><trkpt lat="42.69952665897316" lon="-2.434687259550112"><ele>715.0</ele><time>2026-03-22T10:31:08Z</time></trkpt><trkpt lat="42.699671911137585" lon="-2.4347514134732746"><ele>721.0</ele><time>2026-03-22T10:31:09Z</time></trkpt><trkpt lat="42.699822424815295" lon="-2.434811605564804"><ele>721.0</ele><time>2026-03-22T10:31:10Z</time></trkpt><trkpt lat="42.69997879499806" lon="-2.4348684413762256"><ele>721.0</ele><time>2026-03-22T10:31:11Z</time></trkpt><trkpt lat="42.70014039319397" lon="-2.434906925454997"><ele>721.0</ele><time>2026-03-22T10:31:12Z</time></trkpt><trkpt lat="42.70030585636067" lon="-2.4349076792736044"><ele>724.3333333333334</ele><time>2026-03-22T10:31:13Z</time></trkpt><trkpt lat="42.700468379802096" lon="-2.4348701860702278"><ele>727.6666666666666</ele><time>2026-03-22T10:31:14Z</time></trkpt><trkpt lat="42.70062438780716" lon="-2.434818331487661"><ele>731.0</ele><time>2026-03-22T10:31:15Z</time></trkpt><trkpt lat="42.70078343889211" lon="-2.4347813060679604"><ele>731.0</ele><time>2026-03-22T10:31:16Z</time></trkpt><trkpt lat="42.70094919697991" lon="-2.434754913546665"><ele>731.0</ele><time>2026-03-22T10:31:17Z</time></trkpt><trkpt lat="42.70111719931944" lon="-2.4347179465239916"><ele>731.0</ele><time>2026-03-22T10:31:18Z</time></trkpt><trkpt lat="42.701289851091495" lon="-2.434764865811878"><ele>731.5</ele><time>2026-03-22T10:31:19Z</time></trkpt><trkpt lat="42.701450033182965" lon="-2.4347842162740987"><ele>732.0</ele><time>2026-03-22T10:31:20Z</time></trkpt><trkpt lat="42.701595842290224" lon="-2.4347757602195594"><ele>732.5</ele><time>2026-03-22T10:31:21Z</time></trkpt><trkpt lat="42.70172616163356" lon="-2.43472164231637"><ele>733.0</ele><time>2026-03-22T10:31:22Z</time></trkpt><trkpt lat="42.70184667844509" lon="-2.4346894702225463"><ele>734.8333333333334</ele><time>2026-03-22T10:31:23Z</time></trkpt><trkpt lat="42.70194931981217" lon="-2.434653923352386"><ele>736.6666666666667</ele><time>2026-03-22T10:31:24Z</time></trkpt><trkpt lat="42.702034926986705" lon="-2.4346116116679846"><ele>738.5</ele><time>2026-03-22T10:31:25Z</time></trkpt><trkpt lat="42.7020990910565" lon="-2.4345645853684186"><ele>740.3333333333334</ele><time>2026-03-22T10:31:26Z</time></trkpt><trkpt lat="42.70212849686939" lon="-2.434473029712019"><ele>742.1666666666666</ele><time>2026-03-22T10:31:27Z</time></trkpt><trkpt lat="42.702129807263056" lon="-2.4343569868121944"><ele>744.0</ele><time>2026-03-22T10:31:28Z</time></trkpt><trkpt lat="42.70209940729114" lon="-2.4342313393898958"><ele>744.0</ele><time>2026-03-22T10:31:29Z</time></trkpt><trkpt lat="42.70205640446858" lon="-2.4341024324258043"><ele>744.0</ele><time>2026-03-22T10:31:30Z</time></trkpt><trkpt lat="42.702010970236884" lon="-2.433948617422307"><ele>744.0</ele><time>2026-03-22T10:31:31Z</time></trkpt><trkpt lat="42.701959613275235" lon="-2.433775339772766"><ele>744.0</ele><time>2026-03-22T10:31:32Z</time></trkpt><trkpt lat="42.701905601069925" lon="-2.4335822782181937"><ele>744.0</ele><time>2026-03-22T10:31:33Z</time></trkpt><trkpt lat="42.701850005057246" lon="-2.433380336425232"><ele>744.0</ele><time>2026-03-22T10:31:34Z</time></trkpt><trkpt lat="42.70179395384525" lon="-2.43320561297966"><ele>744.0</ele><time>2026-03-22T10:31:35Z</time></trkpt><trkpt lat="42.70173099558974" lon="-2.4330372455660005"><ele>744.0</ele><time>2026-03-22T10:31:36Z</time></trkpt><trkpt lat="42.70166199158115" lon="-2.4328766645209137"><ele>744.0</ele><time>2026-03-22T10:31:37Z</time></trkpt><trkpt lat="42.701589765618635" lon="-2.4327199161755697"><ele>744.0</ele><time>2026-03-22T10:31:38Z</time></trkpt><trkpt lat="42.701511928281946" lon="-2.4325524716645726"><ele>744.0</ele><time>2026-03-22T10:31:39Z</time></trkpt><trkpt lat="42.701422064441836" lon="-2.432393103607488"><ele>744.0</ele><time>2026-03-22T10:31:40Z</time></trkpt><trkpt lat="42.701314499718244" lon="-2.4323006735843173"><ele>744.0</ele><time>2026-03-22T10:31:41Z</time></trkpt><trkpt lat="42.70123242016559" lon="-2.4322117477028256"><ele>744.0</ele><time>2026-03-22T10:31:41.999Z</time></trkpt><trkpt lat="42.70116379254911" lon="-2.432111277023922"><ele>744.0</ele><time>2026-03-22T10:31:42.999Z</time></trkpt><trkpt lat="42.70114014277371" lon="-2.4319682740536006"><ele>744.0</ele><time>2026-03-22T10:31:43.999Z</time></trkpt><trkpt lat="42.7011553763581" lon="-2.43183463734196"><ele>744.0</ele><time>2026-03-22T10:31:44.999Z</time></trkpt><trkpt lat="42.70120953835535" lon="-2.4317324697700835"><ele>745.8333333333334</ele><time>2026-03-22T10:31:45.999Z</time></trkpt><trkpt lat="42.7012402629398" lon="-2.4316247022086674"><ele>747.6666666666666</ele><time>2026-03-22T10:31:46.999Z</time></trkpt><trkpt lat="42.701305174994516" lon="-2.431552163011516"><ele>749.5</ele><time>2026-03-22T10:31:47.999Z</time></trkpt><trkpt lat="42.701386129925375" lon="-2.431565013505749"><ele>751.3333333333333</ele><time>2026-03-22T10:31:48.999Z</time></trkpt><trkpt lat="42.70145923418769" lon="-2.4316015368533503"><ele>753.1666666666666</ele><time>2026-03-22T10:31:49.999Z</time></trkpt><trkpt lat="42.70154048120463" lon="-2.431671324913912"><ele>755.0</ele><time>2026-03-22T10:31:50.999Z</time></trkpt><trkpt lat="42.701634973329625" lon="-2.4317491896510455"><ele>755.0</ele><time>2026-03-22T10:31:51.999Z</time></trkpt><trkpt lat="42.70174369878291" lon="-2.431827254066995"><ele>755.0</ele><time>2026-03-22T10:31:52.999Z</time></trkpt><trkpt lat="42.701872117870586" lon="-2.4318824138231094"><ele>755.0</ele><time>2026-03-22T10:31:53.999Z</time></trkpt><trkpt lat="42.7020232369263" lon="-2.431899404594015"><ele>755.0</ele><time>2026-03-22T10:31:54.999Z</time></trkpt><trkpt lat="42.70216553093841" lon="-2.4318933961955165"><ele>756.75</ele><time>2026-03-22T10:31:55.999Z</time></trkpt><trkpt lat="42.70228261356229" lon="-2.4318909316887396"><ele>758.5</ele><time>2026-03-22T10:31:56.999Z</time></trkpt><trkpt lat="42.70239362422993" lon="-2.43190263782231"><ele>760.25</ele><time>2026-03-22T10:31:57.999Z</time></trkpt><trkpt lat="42.70248861925049" lon="-2.4320079400087744"><ele>762.0</ele><time>2026-03-22T10:31:58.999Z</time></trkpt><trkpt lat="42.702578440593285" lon="-2.432130715601037"><ele>762.5</ele><time>2026-03-22T10:31:59.999Z</time></trkpt><trkpt lat="42.70268240209802" lon="-2.432253914499118"><ele>763.0</ele><time>2026-03-22T10:32:00.999Z</time></trkpt><trkpt lat="42.70281012100486" lon="-2.432297625926065"><ele>763.5</ele><time>2026-03-22T10:32:01.999Z</time></trkpt><trkpt lat="42.70293872550096" lon="-2.432308663388401"><ele>764.0</ele><time>2026-03-22T10:32:02.999Z</time></trkpt><trkpt lat="42.70307514185977" lon="-2.4323385653539193"><ele>764.0</ele><time>2026-03-22T10:32:03.999Z</time></trkpt><trkpt lat="42.7032098397557" lon="-2.432345663891542"><ele>764.0</ele><time>2026-03-22T10:32:04.999Z</time></trkpt><trkpt lat="42.7033275757753" lon="-2.432342255608124"><ele>764.0</ele><time>2026-03-22T10:32:05.999Z</time></trkpt><trkpt lat="42.70343640019375" lon="-2.432374779263921"><ele>764.0</ele><time>2026-03-22T10:32:06.999Z</time></trkpt><trkpt lat="42.70352353788401" lon="-2.432484580798582"><ele>768.5</ele><time>2026-03-22T10:32:07.999Z</time></trkpt><trkpt lat="42.70360642287435" lon="-2.4326119627789917"><ele>773.0</ele><time>2026-03-22T10:32:08.999Z</time></trkpt><trkpt lat="42.70368047720779" lon="-2.4327477297593005"><ele>777.5</ele><time>2026-03-22T10:32:09.999Z</time></trkpt><trkpt lat="42.703775890970604" lon="-2.4328545538386033"><ele>782.0</ele><time>2026-03-22T10:32:10.999Z</time></trkpt><trkpt lat="42.70388775930101" lon="-2.4329276504918274"><ele>780.5</ele><time>2026-03-22T10:32:11.999Z</time></trkpt><trkpt lat="42.70401291145648" lon="-2.43299387204439"><ele>779.0</ele><time>2026-03-22T10:32:12.999Z</time></trkpt><trkpt lat="42.70415046060321" lon="-2.4330216031277327"><ele>777.5</ele><time>2026-03-22T10:32:13.999Z</time></trkpt><trkpt lat="42.70429576207396" lon="-2.4330041864293728"><ele>776.0</ele><time>2026-03-22T10:32:14.999Z</time></trkpt><trkpt lat="42.704419946111166" lon="-2.4329702257513244"><ele>777.8</ele><time>2026-03-22T10:32:15.999Z</time></trkpt><trkpt lat="42.704512090114946" lon="-2.432988843599257"><ele>779.5999999999999</ele><time>2026-03-22T10:32:16.999Z</time></trkpt><trkpt lat="42.70459942454379" lon="-2.433019084755863"><ele>781.4</ele><time>2026-03-22T10:32:17.999Z</time></trkpt><trkpt lat="42.704667354349546" lon="-2.4331206131259595"><ele>783.2</ele><time>2026-03-22T10:32:18.999Z</time></trkpt><trkpt lat="42.70471235305424" lon="-2.4332462463589435"><ele>785.0</ele><time>2026-03-22T10:32:19.999Z</time></trkpt><trkpt lat="42.704694065797" lon="-2.4334028876972305"><ele>785.0</ele><time>2026-03-22T10:32:20.999Z</time></trkpt><trkpt lat="42.70466799532052" lon="-2.4335554962808326"><ele>785.0</ele><time>2026-03-22T10:32:21.999Z</time></trkpt><trkpt lat="42.70462388408244" lon="-2.43371555059786"><ele>785.0</ele><time>2026-03-22T10:32:22.999Z</time></trkpt><trkpt lat="42.704614726777656" lon="-2.4338926181876235"><ele>785.0</ele><time>2026-03-22T10:32:23.999Z</time></trkpt><trkpt lat="42.70461422814303" lon="-2.4340791541959295"><ele>784.25</ele><time>2026-03-22T10:32:24.999Z</time></trkpt><trkpt lat="42.7046487408286" lon="-2.434261684919315"><ele>783.5</ele><time>2026-03-22T10:32:25.999Z</time></trkpt><trkpt lat="42.70472780147655" lon="-2.4344258263646807"><ele>782.75</ele><time>2026-03-22T10:32:26.999Z</time></trkpt><trkpt lat="42.70481357104037" lon="-2.434611606009202"><ele>782.0</ele><time>2026-03-22T10:32:27.999Z</time></trkpt><trkpt lat="42.70490004203222" lon="-2.4348105831092326"><ele>781.3333333333334</ele><time>2026-03-22T10:32:28.999Z</time></trkpt><trkpt lat="42.704969253795895" lon="-2.4350164448602296"><ele>780.6666666666667</ele><time>2026-03-22T10:32:29.999Z</time></trkpt><trkpt lat="42.705056421724365" lon="-2.4352080290834834"><ele>780.0</ele><time>2026-03-22T10:32:30.999Z</time></trkpt><trkpt lat="42.70515574264188" lon="-2.4353950594437035"><ele>783.0</ele><time>2026-03-22T10:32:31.999Z</time></trkpt><trkpt lat="42.705274217524924" lon="-2.4355645853723127"><ele>786.0</ele><time>2026-03-22T10:32:32.999Z</time></trkpt><trkpt lat="42.705407255759674" lon="-2.4357115506368854"><ele>789.0</ele><time>2026-03-22T10:32:33.999Z</time></trkpt><trkpt lat="42.70555969256608" lon="-2.435815543836393"><ele>789.0</ele><time>2026-03-22T10:32:34.999Z</time></trkpt><trkpt lat="42.705724423156205" lon="-2.435902553131277"><ele>789.0</ele><time>2026-03-22T10:32:35.999Z</time></trkpt><trkpt lat="42.70588631688451" lon="-2.4359983016578255"><ele>789.0</ele><time>2026-03-22T10:32:36.999Z</time></trkpt><trkpt lat="42.706050767189176" lon="-2.4360572772942524"><ele>788.6666666666667</ele><time>2026-03-22T10:32:37.999Z</time></trkpt><trkpt lat="42.706210560552385" lon="-2.436125229411963"><ele>788.3333333333334</ele><time>2026-03-22T10:32:38.999Z</time></trkpt><trkpt lat="42.706366596721146" lon="-2.4361983143151105"><ele>788.0</ele><time>2026-03-22T10:32:39.999Z</time></trkpt><trkpt lat="42.70652461005916" lon="-2.4362663416016224"><ele>789.0</ele><time>2026-03-22T10:32:40.999Z</time></trkpt><trkpt lat="42.70668385932241" lon="-2.4363306361383463"><ele>790.0</ele><time>2026-03-22T10:32:41.998Z</time></trkpt><trkpt lat="42.706845756591896" lon="-2.4363936057449704"><ele>791.0</ele><time>2026-03-22T10:32:42.998Z</time></trkpt><trkpt lat="42.70700705199446" lon="-2.4364566367721032"><ele>791.3333333333334</ele><time>2026-03-22T10:32:43.998Z</time></trkpt><trkpt lat="42.70717222670772" lon="-2.4365200625804553"><ele>791.6666666666667</ele><time>2026-03-22T10:32:44.998Z</time></trkpt><trkpt lat="42.707336047981464" lon="-2.4365896245367176"><ele>792.0</ele><time>2026-03-22T10:32:45.998Z</time></trkpt><trkpt lat="42.70750272477169" lon="-2.43666116940218"><ele>792.0</ele><time>2026-03-22T10:32:46.998Z</time></trkpt><trkpt lat="42.707671481739176" lon="-2.4367342437592905"><ele>792.0</ele><time>2026-03-22T10:32:47.998Z</time></trkpt><trkpt lat="42.70784085876553" lon="-2.436804260712194"><ele>792.0</ele><time>2026-03-22T10:32:48.998Z</time></trkpt><trkpt lat="42.708011776232304" lon="-2.4368767096506936"><ele>791.6666666666667</ele><time>2026-03-22T10:32:49.998Z</time></trkpt><trkpt lat="42.708183484331244" lon="-2.4369509194978143"><ele>791.3333333333334</ele><time>2026-03-22T10:32:50.998Z</time></trkpt><trkpt lat="42.70835515901504" lon="-2.4370248210224323"><ele>791.0</ele><time>2026-03-22T10:32:51.998Z</time></trkpt><trkpt lat="42.708525172271415" lon="-2.437097906182504"><ele>793.0</ele><time>2026-03-22T10:32:52.998Z</time></trkpt><trkpt lat="42.708696651668234" lon="-2.437174868660525"><ele>795.0</ele><time>2026-03-22T10:32:53.998Z</time></trkpt><trkpt lat="42.708858994574506" lon="-2.4372748112168114"><ele>797.0</ele><time>2026-03-22T10:32:54.998Z</time></trkpt><trkpt lat="42.70901245404134" lon="-2.4373984648063787"><ele>797.0</ele><time>2026-03-22T10:32:55.998Z</time></trkpt><trkpt lat="42.70915864291406" lon="-2.4375377072247573"><ele>797.0</ele><time>2026-03-22T10:32:56.998Z</time></trkpt><trkpt lat="42.70930721825137" lon="-2.4376701696878413"><ele>797.0</ele><time>2026-03-22T10:32:57.998Z</time></trkpt><trkpt lat="42.70947012480562" lon="-2.4377919326530315"><ele>797.3333333333334</ele><time>2026-03-22T10:32:58.998Z</time></trkpt><trkpt lat="42.70964011994559" lon="-2.4378937404155003"><ele>797.6666666666667</ele><time>2026-03-22T10:32:59.998Z</time></trkpt><trkpt lat="42.70981330607748" lon="-2.437975743981653"><ele>798.0</ele><time>2026-03-22T10:33:00.998Z</time></trkpt><trkpt lat="42.709989901275414" lon="-2.4380367967893917"><ele>800.0</ele><time>2026-03-22T10:33:01.998Z</time></trkpt><trkpt lat="42.710170059245954" lon="-2.438075024468704"><ele>802.0</ele><time>2026-03-22T10:33:02.998Z</time></trkpt><trkpt lat="42.71034967726991" lon="-2.438107272553681"><ele>804.0</ele><time>2026-03-22T10:33:03.998Z</time></trkpt><trkpt lat="42.710529377296325" lon="-2.4381495218895832"><ele>806.3333333333333</ele><time>2026-03-22T10:33:04.998Z</time></trkpt><trkpt lat="42.71070824781161" lon="-2.438186260818994"><ele>808.6666666666666</ele><time>2026-03-22T10:33:05.998Z</time></trkpt><trkpt lat="42.710882602823034" lon="-2.438218789908762"><ele>811.0</ele><time>2026-03-22T10:33:07Z</time></trkpt><trkpt lat="42.71104466521976" lon="-2.438251133960405"><ele>811.0</ele><time>2026-03-22T10:33:08Z</time></trkpt><trkpt lat="42.71118894729147" lon="-2.4382835676601644"><ele>811.0</ele><time>2026-03-22T10:33:09Z</time></trkpt><trkpt lat="42.71131306835003" lon="-2.438321102943844"><ele>811.0</ele><time>2026-03-22T10:33:10Z</time></trkpt><trkpt lat="42.71142017695504" lon="-2.4383642512154857"><ele>811.0</ele><time>2026-03-22T10:33:11Z</time></trkpt><trkpt lat="42.71151043605698" lon="-2.438392259628076"><ele>811.0</ele><time>2026-03-22T10:33:12Z</time></trkpt><trkpt lat="42.711574124808884" lon="-2.4384585031648003"><ele>811.0</ele><time>2026-03-22T10:33:13Z</time></trkpt><trkpt lat="42.71159920527263" lon="-2.4385842639461064"><ele>811.0</ele><time>2026-03-22T10:33:14Z</time></trkpt><trkpt lat="42.71160897356412" lon="-2.438719777403584"><ele>811.0</ele><time>2026-03-22T10:33:15Z</time></trkpt><trkpt lat="42.71159658783347" lon="-2.4388782737805075"><ele>811.0</ele><time>2026-03-22T10:33:16Z</time></trkpt><trkpt lat="42.71157109120545" lon="-2.4390653319441546"><ele>809.6666666666666</ele><time>2026-03-22T10:33:17Z</time></trkpt><trkpt lat="42.711549066806754" lon="-2.439277578387756"><ele>808.3333333333333</ele><time>2026-03-22T10:33:18Z</time></trkpt><trkpt lat="42.71153729255694" lon="-2.4394935232831503"><ele>807.0</ele><time>2026-03-22T10:33:19Z</time></trkpt><trkpt lat="42.71154506769094" lon="-2.43972640971616"><ele>806.5</ele><time>2026-03-22T10:33:20Z</time></trkpt><trkpt lat="42.711566622671725" lon="-2.439946329945857"><ele>806.0</ele><time>2026-03-22T10:33:21Z</time></trkpt><trkpt lat="42.71158931613012" lon="-2.4401345105742913"><ele>805.5</ele><time>2026-03-22T10:33:22Z</time></trkpt><trkpt lat="42.711636360688246" lon="-2.4402865364604005"><ele>805.0</ele><time>2026-03-22T10:33:23Z</time></trkpt><trkpt lat="42.711651330778665" lon="-2.4404400723216373"><ele>805.25</ele><time>2026-03-22T10:33:24Z</time></trkpt><trkpt lat="42.71166886954881" lon="-2.440584247099543"><ele>805.5</ele><time>2026-03-22T10:33:25Z</time></trkpt><trkpt lat="42.71173587897295" lon="-2.4407083750268557"><ele>805.75</ele><time>2026-03-22T10:33:26Z</time></trkpt><trkpt lat="42.711850013761975" lon="-2.4407368011298325"><ele>806.0</ele><time>2026-03-22T10:33:27Z</time></trkpt><trkpt lat="42.711948966919714" lon="-2.4408311554225683"><ele>796.6666666666667</ele><time>2026-03-22T10:33:28Z</time></trkpt><trkpt lat="42.71205000725167" lon="-2.440975581036513"><ele>787.3333333333333</ele><time>2026-03-22T10:33:29Z</time></trkpt><trkpt lat="42.71214279396297" lon="-2.4411508305307597"><ele>778.0</ele><time>2026-03-22T10:33:30Z</time></trkpt><trkpt lat="42.71223520453073" lon="-2.441343783997796"><ele>778.0</ele><time>2026-03-22T10:33:31Z</time></trkpt><trkpt lat="42.71232778645769" lon="-2.4415408064932658"><ele>778.0</ele><time>2026-03-22T10:33:32Z</time></trkpt><trkpt lat="42.712391463174164" lon="-2.441739232366057"><ele>778.0</ele><time>2026-03-22T10:33:33Z</time></trkpt><trkpt lat="42.712460658801916" lon="-2.4418952181663185"><ele>778.0</ele><time>2026-03-22T10:33:34Z</time></trkpt><trkpt lat="42.71252535504994" lon="-2.442016150152748"><ele>778.0</ele><time>2026-03-22T10:33:35Z</time></trkpt><trkpt lat="42.71260029576964" lon="-2.442102291658971"><ele>778.0</ele><time>2026-03-22T10:33:36Z</time></trkpt><trkpt lat="42.712704397408636" lon="-2.4421113254824576"><ele>778.0</ele><time>2026-03-22T10:33:37Z</time></trkpt><trkpt lat="42.712804442162266" lon="-2.4420846624817463"><ele>778.0</ele><time>2026-03-22T10:33:38Z</time></trkpt><trkpt lat="42.71292866502905" lon="-2.442053805140915"><ele>775.3333333333333</ele><time>2026-03-22T10:33:39Z</time></trkpt><trkpt lat="42.71307429185923" lon="-2.4420451592690413"><ele>772.6666666666667</ele><time>2026-03-22T10:33:40Z</time></trkpt><trkpt lat="42.713234881351845" lon="-2.4420584404567336"><ele>770.0</ele><time>2026-03-22T10:33:41Z</time></trkpt><trkpt lat="42.71339866607631" lon="-2.4421022496308624"><ele>770.0</ele><time>2026-03-22T10:33:42Z</time></trkpt><trkpt lat="42.71355248044492" lon="-2.4421121574300955"><ele>770.0</ele><time>2026-03-22T10:33:43Z</time></trkpt><trkpt lat="42.71368925526268" lon="-2.442073940636692"><ele>770.0</ele><time>2026-03-22T10:33:44Z</time></trkpt><trkpt lat="42.713819616038485" lon="-2.442031792743855"><ele>770.0</ele><time>2026-03-22T10:33:45Z</time></trkpt><trkpt lat="42.71396718186911" lon="-2.4420368740944833"><ele>770.0</ele><time>2026-03-22T10:33:46Z</time></trkpt><trkpt lat="42.71411940290023" lon="-2.4420889712094267"><ele>770.0</ele><time>2026-03-22T10:33:47Z</time></trkpt><trkpt lat="42.71427346719671" lon="-2.4421661290771817"><ele>770.0</ele><time>2026-03-22T10:33:48Z</time></trkpt><trkpt lat="42.7144059685796" lon="-2.4422481162601626"><ele>764.5</ele><time>2026-03-22T10:33:48.999Z</time></trkpt><trkpt lat="42.71451985897293" lon="-2.442336327509327"><ele>759.0</ele><time>2026-03-22T10:33:49.999Z</time></trkpt><trkpt lat="42.71460794219886" lon="-2.442462681848427"><ele>753.5</ele><time>2026-03-22T10:33:50.999Z</time></trkpt><trkpt lat="42.71468288134184" lon="-2.4426307542024785"><ele>748.0</ele><time>2026-03-22T10:33:51.999Z</time></trkpt><trkpt lat="42.71472260013085" lon="-2.4428383619939136"><ele>750.6666666666667</ele><time>2026-03-22T10:33:52.999Z</time></trkpt><trkpt lat="42.7147647020505" lon="-2.443057222373792"><ele>753.3333333333334</ele><time>2026-03-22T10:33:53.999Z</time></trkpt><trkpt lat="42.71480740848423" lon="-2.4432917231186337"><ele>756.0</ele><time>2026-03-22T10:33:54.999Z</time></trkpt><trkpt lat="42.714847634976636" lon="-2.4435074729668673"><ele>756.0</ele><time>2026-03-22T10:33:55.999Z</time></trkpt><trkpt lat="42.71489496228836" lon="-2.4436898613815994"><ele>756.0</ele><time>2026-03-22T10:33:56.999Z</time></trkpt><trkpt lat="42.71497847743646" lon="-2.443812518721926"><ele>756.0</ele><time>2026-03-22T10:33:57.999Z</time></trkpt><trkpt lat="42.715076633132576" lon="-2.4438951533633277"><ele>756.0</ele><time>2026-03-22T10:33:58.999Z</time></trkpt><trkpt lat="42.71519974002018" lon="-2.443928551005346"><ele>753.3333333333334</ele><time>2026-03-22T10:33:59.999Z</time></trkpt><trkpt lat="42.71534666517418" lon="-2.4439665730960667"><ele>750.6666666666667</ele><time>2026-03-22T10:34:00.999Z</time></trkpt><trkpt lat="42.715505836579275" lon="-2.444008816843929"><ele>748.0</ele><time>2026-03-22T10:34:01.999Z</time></trkpt><trkpt lat="42.71567778729903" lon="-2.4440578105180424"><ele>748.0</ele><time>2026-03-22T10:34:02.999Z</time></trkpt><trkpt lat="42.715865036051724" lon="-2.444131302235394"><ele>748.0</ele><time>2026-03-22T10:34:03.999Z</time></trkpt><trkpt lat="42.716057029003984" lon="-2.4441719675531774"><ele>748.0</ele><time>2026-03-22T10:34:04.999Z</time></trkpt><trkpt lat="42.716249045323224" lon="-2.444217721994874"><ele>746.6666666666667</ele><time>2026-03-22T10:34:05.999Z</time></trkpt><trkpt lat="42.716444136198106" lon="-2.4442367987363887"><ele>745.3333333333334</ele><time>2026-03-22T10:34:06.999Z</time></trkpt><trkpt lat="42.71662994648311" lon="-2.4442930312515063"><ele>744.0</ele><time>2026-03-22T10:34:07.999Z</time></trkpt><trkpt lat="42.71681398272727" lon="-2.444324023222185"><ele>740.3333333333334</ele><time>2026-03-22T10:34:08.999Z</time></trkpt><trkpt lat="42.71699749247826" lon="-2.4443610242613447"><ele>736.6666666666667</ele><time>2026-03-22T10:34:09.999Z</time></trkpt><trkpt lat="42.71717919314375" lon="-2.444407282491967"><ele>733.0</ele><time>2026-03-22T10:34:10.999Z</time></trkpt><trkpt lat="42.71736120378343" lon="-2.4444734020062553"><ele>733.0</ele><time>2026-03-22T10:34:11.999Z</time></trkpt><trkpt lat="42.71754664022977" lon="-2.4445523806555305"><ele>733.0</ele><time>2026-03-22T10:34:12.999Z</time></trkpt><trkpt lat="42.71772334376129" lon="-2.444661711439107"><ele>733.0</ele><time>2026-03-22T10:34:13.999Z</time></trkpt><trkpt lat="42.71789410583543" lon="-2.444767366028643"><ele>730.6666666666667</ele><time>2026-03-22T10:34:14.999Z</time></trkpt><trkpt lat="42.71805649157267" lon="-2.4448732086530462"><ele>728.3333333333334</ele><time>2026-03-22T10:34:15.999Z</time></trkpt><trkpt lat="42.71820341582179" lon="-2.4450073664178245"><ele>726.0</ele><time>2026-03-22T10:34:16.999Z</time></trkpt><trkpt lat="42.718347468373636" lon="-2.445138057958629"><ele>726.0</ele><time>2026-03-22T10:34:17.999Z</time></trkpt><trkpt lat="42.71848188990125" lon="-2.445281243017996"><ele>726.0</ele><time>2026-03-22T10:34:18.999Z</time></trkpt><trkpt lat="42.71861695196354" lon="-2.4454165476603724"><ele>726.0</ele><time>2026-03-22T10:34:19.999Z</time></trkpt><trkpt lat="42.718750084460545" lon="-2.4455535876330687"><ele>723.3333333333334</ele><time>2026-03-22T10:34:20.999Z</time></trkpt><trkpt lat="42.71888339835975" lon="-2.4456914955077593"><ele>720.6666666666667</ele><time>2026-03-22T10:34:21.999Z</time></trkpt><trkpt lat="42.71902746902437" lon="-2.445806848962464"><ele>718.0</ele><time>2026-03-22T10:34:22.999Z</time></trkpt><trkpt lat="42.719160856064676" lon="-2.445951014939045"><ele>718.0</ele><time>2026-03-22T10:34:23.999Z</time></trkpt><trkpt lat="42.71931335271013" lon="-2.44605904781325"><ele>718.0</ele><time>2026-03-22T10:34:24.999Z</time></trkpt><trkpt lat="42.71947394334572" lon="-2.4461524486175157"><ele>718.0</ele><time>2026-03-22T10:34:25.999Z</time></trkpt><trkpt lat="42.71963673146434" lon="-2.446239273477584"><ele>714.3333333333334</ele><time>2026-03-22T10:34:26.999Z</time></trkpt><trkpt lat="42.71979736761606" lon="-2.4463232088946283"><ele>710.6666666666666</ele><time>2026-03-22T10:34:27.999Z</time></trkpt><trkpt lat="42.719958474051374" lon="-2.4464005592659257"><ele>707.0</ele><time>2026-03-22T10:34:28.999Z</time></trkpt><trkpt lat="42.72012419442316" lon="-2.446473448991925"><ele>704.6666666666666</ele><time>2026-03-22T10:34:29.999Z</time></trkpt><trkpt lat="42.7202888993687" lon="-2.446538453217989"><ele>702.3333333333334</ele><time>2026-03-22T10:34:30.999Z</time></trkpt><trkpt lat="42.72045435224962" lon="-2.44659775113074"><ele>700.0</ele><time>2026-03-22T10:34:31.999Z</time></trkpt><trkpt lat="42.720616270335555" lon="-2.4466316238961894"><ele>700.0</ele><time>2026-03-22T10:34:32.999Z</time></trkpt><trkpt lat="42.720776848136246" lon="-2.446639830944021"><ele>700.0</ele><time>2026-03-22T10:34:33.999Z</time></trkpt><trkpt lat="42.72093846386307" lon="-2.446632012973329"><ele>700.0</ele><time>2026-03-22T10:34:34.999Z</time></trkpt><trkpt lat="42.72109804919808" lon="-2.446618026712874"><ele>698.3333333333334</ele><time>2026-03-22T10:34:35.999Z</time></trkpt><trkpt lat="42.721259045613536" lon="-2.446605568504228"><ele>696.6666666666666</ele><time>2026-03-22T10:34:36.999Z</time></trkpt><trkpt lat="42.72142503809288" lon="-2.4466031641896415"><ele>695.0</ele><time>2026-03-22T10:34:37.999Z</time></trkpt><trkpt lat="42.72159843810921" lon="-2.446615786022391"><ele>695.0</ele><time>2026-03-22T10:34:38.999Z</time></trkpt><trkpt lat="42.721778891917225" lon="-2.446637021742719"><ele>695.0</ele><time>2026-03-22T10:34:39.999Z</time></trkpt><trkpt lat="42.72196443797774" lon="-2.446671320530196"><ele>695.0</ele><time>2026-03-22T10:34:40.999Z</time></trkpt><trkpt lat="42.72215231698236" lon="-2.446731269038492"><ele>693.3333333333333</ele><time>2026-03-22T10:34:41.999Z</time></trkpt><trkpt lat="42.72234019808767" lon="-2.4468100492309035"><ele>691.6666666666666</ele><time>2026-03-22T10:34:42.999Z</time></trkpt><trkpt lat="42.72252562427669" lon="-2.446896819884702"><ele>690.0</ele><time>2026-03-22T10:34:43.999Z</time></trkpt><trkpt lat="42.72272276614885" lon="-2.446970565563562"><ele>689.3333333333334</ele><time>2026-03-22T10:34:44.999Z</time></trkpt><trkpt lat="42.72291918018913" lon="-2.447064556786608"><ele>688.6666666666667</ele><time>2026-03-22T10:34:45.999Z</time></trkpt><trkpt lat="42.72311439438745" lon="-2.447182796285859"><ele>688.0</ele><time>2026-03-22T10:34:46.999Z</time></trkpt><trkpt lat="42.72331594717437" lon="-2.4472829986153566"><ele>687.6666666666667</ele><time>2026-03-22T10:34:47.999Z</time></trkpt><trkpt lat="42.723514701700516" lon="-2.4473877947830696"><ele>687.3333333333334</ele><time>2026-03-22T10:34:48.999Z</time></trkpt><trkpt lat="42.723705037178945" lon="-2.447496420683643"><ele>687.0</ele><time>2026-03-22T10:34:49.999Z</time></trkpt><trkpt lat="42.7238874310649" lon="-2.447582268753726"><ele>688.3333333333334</ele><time>2026-03-22T10:34:50.999Z</time></trkpt><trkpt lat="42.72406033222829" lon="-2.44770232393283"><ele>689.6666666666667</ele><time>2026-03-22T10:34:51.998Z</time></trkpt><trkpt lat="42.724233024600096" lon="-2.447793233739153"><ele>691.0</ele><time>2026-03-22T10:34:52.998Z</time></trkpt><trkpt lat="42.7244051354331" lon="-2.4478803319086717"><ele>690.0</ele><time>2026-03-22T10:34:53.998Z</time></trkpt><trkpt lat="42.72459287959545" lon="-2.4479401869960546"><ele>689.0</ele><time>2026-03-22T10:34:54.998Z</time></trkpt><trkpt lat="42.724776588802754" lon="-2.4480043975158647"><ele>688.0</ele><time>2026-03-22T10:34:55.998Z</time></trkpt><trkpt lat="42.724956525261156" lon="-2.448089434952798"><ele>688.0</ele><time>2026-03-22T10:34:56.998Z</time></trkpt><trkpt lat="42.72512934914922" lon="-2.448149479020799"><ele>688.0</ele><time>2026-03-22T10:34:57.998Z</time></trkpt><trkpt lat="42.725293273634875" lon="-2.4482247218794164"><ele>688.0</ele><time>2026-03-22T10:34:58.998Z</time></trkpt><trkpt lat="42.725453435995576" lon="-2.448303360007345"><ele>686.3333333333334</ele><time>2026-03-22T10:34:59.998Z</time></trkpt><trkpt lat="42.72560542911935" lon="-2.4483821759118984"><ele>684.6666666666666</ele><time>2026-03-22T10:35:00.998Z</time></trkpt><trkpt lat="42.725758485175426" lon="-2.4484755394476707"><ele>683.0</ele><time>2026-03-22T10:35:01.998Z</time></trkpt><trkpt lat="42.72591222341645" lon="-2.448591478600476"><ele>682.6666666666666</ele><time>2026-03-22T10:35:02.998Z</time></trkpt><trkpt lat="42.72606968298189" lon="-2.4487349218611727"><ele>682.3333333333334</ele><time>2026-03-22T10:35:03.998Z</time></trkpt><trkpt lat="42.72621979565651" lon="-2.4488934281224837"><ele>682.0</ele><time>2026-03-22T10:35:04.998Z</time></trkpt><trkpt lat="42.72636254440345" lon="-2.4490626479466386"><ele>682.0</ele><time>2026-03-22T10:35:05.998Z</time></trkpt><trkpt lat="42.726494201192615" lon="-2.4492285943288477"><ele>682.0</ele><time>2026-03-22T10:35:06.998Z</time></trkpt><trkpt lat="42.726608080040364" lon="-2.449401066537952"><ele>682.0</ele><time>2026-03-22T10:35:07.998Z</time></trkpt><trkpt lat="42.726704756474575" lon="-2.4495785868254814"><ele>681.0</ele><time>2026-03-22T10:35:08.998Z</time></trkpt><trkpt lat="42.72681746361094" lon="-2.4497348382303263"><ele>680.0</ele><time>2026-03-22T10:35:09.998Z</time></trkpt><trkpt lat="42.72693178394433" lon="-2.449879921856523"><ele>679.0</ele><time>2026-03-22T10:35:10.998Z</time></trkpt><trkpt lat="42.72706131756872" lon="-2.450013142924164"><ele>679.0</ele><time>2026-03-22T10:35:11.998Z</time></trkpt><trkpt lat="42.72720689106596" lon="-2.4501363871790143"><ele>679.0</ele><time>2026-03-22T10:35:13Z</time></trkpt><trkpt lat="42.727368331751606" lon="-2.450247616496946"><ele>679.0</ele><time>2026-03-22T10:35:14Z</time></trkpt><trkpt lat="42.72754528599047" lon="-2.450356057082663"><ele>677.0</ele><time>2026-03-22T10:35:15Z</time></trkpt><trkpt lat="42.72772634715251" lon="-2.4504624420856396"><ele>675.0</ele><time>2026-03-22T10:35:16Z</time></trkpt><trkpt lat="42.72790648524908" lon="-2.4505642264859784"><ele>673.0</ele><time>2026-03-22T10:35:17Z</time></trkpt><trkpt lat="42.72808072993727" lon="-2.450659639682915"><ele>670.6666666666667</ele><time>2026-03-22T10:35:18Z</time></trkpt><trkpt lat="42.728246670785964" lon="-2.4507700332053086"><ele>668.3333333333334</ele><time>2026-03-22T10:35:19Z</time></trkpt><trkpt lat="42.72841171221155" lon="-2.450862384906328"><ele>666.0</ele><time>2026-03-22T10:35:20Z</time></trkpt><trkpt lat="42.728578004348016" lon="-2.450918339419469"><ele>665.75</ele><time>2026-03-22T10:35:21Z</time></trkpt><trkpt lat="42.7287315222534" lon="-2.4509712279588447"><ele>665.5</ele><time>2026-03-22T10:35:22Z</time></trkpt><trkpt lat="42.72887084949856" lon="-2.4510068157613047"><ele>665.25</ele><time>2026-03-22T10:35:23Z</time></trkpt><trkpt lat="42.729010442852974" lon="-2.4509862574986445"><ele>665.0</ele><time>2026-03-22T10:35:24Z</time></trkpt><trkpt lat="42.72913711530741" lon="-2.450888295550541"><ele>665.0</ele><time>2026-03-22T10:35:25Z</time></trkpt><trkpt lat="42.72927793968164" lon="-2.450790820256947"><ele>665.0</ele><time>2026-03-22T10:35:26Z</time></trkpt><trkpt lat="42.7294380645234" lon="-2.450688178997335"><ele>665.0</ele><time>2026-03-22T10:35:27Z</time></trkpt><trkpt lat="42.72960798387496" lon="-2.4505543655047872"><ele>665.6666666666666</ele><time>2026-03-22T10:35:28Z</time></trkpt><trkpt lat="42.729769935707395" lon="-2.4504306395474265"><ele>666.3333333333334</ele><time>2026-03-22T10:35:29Z</time></trkpt><trkpt lat="42.729934891180335" lon="-2.4503053295859387"><ele>667.0</ele><time>2026-03-22T10:35:30Z</time></trkpt><trkpt lat="42.73009212690113" lon="-2.450187597006162"><ele>665.0</ele><time>2026-03-22T10:35:31Z</time></trkpt><trkpt lat="42.73025921013031" lon="-2.4500658985226575"><ele>663.0</ele><time>2026-03-22T10:35:32Z</time></trkpt><trkpt lat="42.7304327670718" lon="-2.4499632981829467"><ele>661.0</ele><time>2026-03-22T10:35:33Z</time></trkpt><trkpt lat="42.730607985241754" lon="-2.4498844103783566"><ele>661.0</ele><time>2026-03-22T10:35:34Z</time></trkpt><trkpt lat="42.73079016622124" lon="-2.449805398110758"><ele>661.0</ele><time>2026-03-22T10:35:35Z</time></trkpt><trkpt lat="42.7309776873529" lon="-2.4497228007601155"><ele>661.0</ele><time>2026-03-22T10:35:36Z</time></trkpt><trkpt lat="42.73116481949745" lon="-2.4496339874475277"><ele>659.6666666666667</ele><time>2026-03-22T10:35:37Z</time></trkpt><trkpt lat="42.73134164789368" lon="-2.44951124272673"><ele>658.3333333333334</ele><time>2026-03-22T10:35:38Z</time></trkpt><trkpt lat="42.731513547070556" lon="-2.4493948659809464"><ele>657.0</ele><time>2026-03-22T10:35:39Z</time></trkpt><trkpt lat="42.73168712050417" lon="-2.449277161730196"><ele>657.0</ele><time>2026-03-22T10:35:40Z</time></trkpt><trkpt lat="42.73186596929936" lon="-2.449175328564902"><ele>657.0</ele><time>2026-03-22T10:35:41Z</time></trkpt><trkpt lat="42.7320381495688" lon="-2.4490583324268904"><ele>657.0</ele><time>2026-03-22T10:35:42Z</time></trkpt><trkpt lat="42.73220659225055" lon="-2.448964633163303"><ele>658.0</ele><time>2026-03-22T10:35:43Z</time></trkpt><trkpt lat="42.73237421421833" lon="-2.448888836981985"><ele>659.0</ele><time>2026-03-22T10:35:44Z</time></trkpt><trkpt lat="42.73252956865828" lon="-2.4488113936925258"><ele>660.0</ele><time>2026-03-22T10:35:45Z</time></trkpt><trkpt lat="42.73268069679247" lon="-2.4487258430236563"><ele>658.6666666666666</ele><time>2026-03-22T10:35:46Z</time></trkpt><trkpt lat="42.73283638259737" lon="-2.448648683462073"><ele>657.3333333333333</ele><time>2026-03-22T10:35:47Z</time></trkpt><trkpt lat="42.73300128775758" lon="-2.4485675494475205"><ele>656.0</ele><time>2026-03-22T10:35:48Z</time></trkpt><trkpt lat="42.73315859642374" lon="-2.4484859872794593"><ele>656.0</ele><time>2026-03-22T10:35:49Z</time></trkpt><trkpt lat="42.73331238306621" lon="-2.448421905627908"><ele>656.0</ele><time>2026-03-22T10:35:49.999Z</time></trkpt><trkpt lat="42.7334470781323" lon="-2.448326202605555"><ele>656.0</ele><time>2026-03-22T10:35:50.999Z</time></trkpt><trkpt lat="42.73357445470034" lon="-2.4482407519243288"><ele>655.0</ele><time>2026-03-22T10:35:51.999Z</time></trkpt><trkpt lat="42.73369031428849" lon="-2.4481555088049163"><ele>654.0</ele><time>2026-03-22T10:35:52.999Z</time></trkpt><trkpt lat="42.73381088354597" lon="-2.4480899921794426"><ele>653.0</ele><time>2026-03-22T10:35:53.999Z</time></trkpt><trkpt lat="42.73393167719606" lon="-2.4480074668585865"><ele>652.0</ele><time>2026-03-22T10:35:54.999Z</time></trkpt><trkpt lat="42.734055285640274" lon="-2.447927144715854"><ele>650.6666666666667</ele><time>2026-03-22T10:35:55.999Z</time></trkpt><trkpt lat="42.734189192544434" lon="-2.4478610586972094"><ele>649.3333333333334</ele><time>2026-03-22T10:35:56.999Z</time></trkpt><trkpt lat="42.734337936571144" lon="-2.447809357861098"><ele>648.0</ele><time>2026-03-22T10:35:57.999Z</time></trkpt><trkpt lat="42.734500508864116" lon="-2.44775783832735"><ele>648.0</ele><time>2026-03-22T10:35:58.999Z</time></trkpt><trkpt lat="42.734669517789186" lon="-2.4477141925637587"><ele>648.0</ele><time>2026-03-22T10:35:59.999Z</time></trkpt><trkpt lat="42.734845289993906" lon="-2.447683091934012"><ele>648.0</ele><time>2026-03-22T10:36:00.999Z</time></trkpt><trkpt lat="42.73503026790162" lon="-2.44765398428942"><ele>648.0</ele><time>2026-03-22T10:36:01.999Z</time></trkpt><trkpt lat="42.735207141898734" lon="-2.447613361913275"><ele>648.0</ele><time>2026-03-22T10:36:02.999Z</time></trkpt><trkpt lat="42.735372325239005" lon="-2.4475617828588963"><ele>648.0</ele><time>2026-03-22T10:36:03.999Z</time></trkpt><trkpt lat="42.735520845582464" lon="-2.447462239816587"><ele>649.75</ele><time>2026-03-22T10:36:04.999Z</time></trkpt><trkpt lat="42.735667326505904" lon="-2.4473987948468157"><ele>651.5</ele><time>2026-03-22T10:36:05.999Z</time></trkpt><trkpt lat="42.73579905719048" lon="-2.447327313464599"><ele>653.25</ele><time>2026-03-22T10:36:06.999Z</time></trkpt><trkpt lat="42.73593436473598" lon="-2.447274978827534"><ele>655.0</ele><time>2026-03-22T10:36:07.999Z</time></trkpt><trkpt lat="42.73608018535999" lon="-2.4472316382620947"><ele>656.6666666666667</ele><time>2026-03-22T10:36:08.999Z</time></trkpt><trkpt lat="42.73622653496217" lon="-2.4471970376032424"><ele>658.3333333333334</ele><time>2026-03-22T10:36:09.999Z</time></trkpt><trkpt lat="42.73637498544668" lon="-2.4471787956649376"><ele>660.0</ele><time>2026-03-22T10:36:10.999Z</time></trkpt><trkpt lat="42.736531330911774" lon="-2.447181347714596"><ele>660.0</ele><time>2026-03-22T10:36:11.999Z</time></trkpt><trkpt lat="42.736693462617104" lon="-2.4471919437371707"><ele>660.0</ele><time>2026-03-22T10:36:12.999Z</time></trkpt><trkpt lat="42.736855010220474" lon="-2.4472029931511066"><ele>660.0</ele><time>2026-03-22T10:36:13.999Z</time></trkpt><trkpt lat="42.73701436865696" lon="-2.447209011626407"><ele>660.75</ele><time>2026-03-22T10:36:14.999Z</time></trkpt><trkpt lat="42.73716434209195" lon="-2.4472235066690846"><ele>661.5</ele><time>2026-03-22T10:36:15.999Z</time></trkpt><trkpt lat="42.73731354543897" lon="-2.4472222402169446"><ele>662.25</ele><time>2026-03-22T10:36:16.999Z</time></trkpt><trkpt lat="42.7374570153921" lon="-2.447248030637626"><ele>663.0</ele><time>2026-03-22T10:36:17.999Z</time></trkpt><trkpt lat="42.7375896376694" lon="-2.4472580720737374"><ele>663.0</ele><time>2026-03-22T10:36:18.999Z</time></trkpt><trkpt lat="42.73771101407671" lon="-2.4472572413532228"><ele>663.0</ele><time>2026-03-22T10:36:19.999Z</time></trkpt><trkpt lat="42.73782421990633" lon="-2.447232567942144"><ele>663.0</ele><time>2026-03-22T10:36:20.999Z</time></trkpt><trkpt lat="42.73791763234527" lon="-2.447200191207896"><ele>663.0</ele><time>2026-03-22T10:36:21.999Z</time></trkpt><trkpt lat="42.73799469531702" lon="-2.447165380388439"><ele>663.0</ele><time>2026-03-22T10:36:22.999Z</time></trkpt><trkpt lat="42.7380575229199" lon="-2.447135747633286"><ele>663.0</ele><time>2026-03-22T10:36:23.999Z</time></trkpt><trkpt lat="42.738137097491226" lon="-2.4470844782123806"><ele>663.0</ele><time>2026-03-22T10:36:25.999Z</time></trkpt><trkpt lat="42.738200718700504" lon="-2.4470500816498832"><ele>663.0</ele><time>2026-03-22T10:36:28.999Z</time></trkpt><trkpt lat="42.73827729077438" lon="-2.447016796136329"><ele>663.0</ele><time>2026-03-22T10:36:35.999Z</time></trkpt><trkpt lat="42.738374044069566" lon="-2.4472048131441464"><ele>663.0</ele><time>2026-03-22T10:36:37.999Z</time></trkpt><trkpt lat="42.73840882100045" lon="-2.447327699030456"><ele>663.0</ele><time>2026-03-22T10:36:38.999Z</time></trkpt><trkpt lat="42.738441322409855" lon="-2.447459526194666"><ele>663.0</ele><time>2026-03-22T10:36:39.999Z</time></trkpt><trkpt lat="42.73848091494726" lon="-2.4475919442819882"><ele>663.0</ele><time>2026-03-22T10:36:40.999Z</time></trkpt><trkpt lat="42.738529967156886" lon="-2.4477381487027166"><ele>663.0</ele><time>2026-03-22T10:36:41.999Z</time></trkpt><trkpt lat="42.73858349050861" lon="-2.4478966642309223"><ele>663.5</ele><time>2026-03-22T10:36:42.999Z</time></trkpt><trkpt lat="42.73863999820212" lon="-2.448065394479553"><ele>664.0</ele><time>2026-03-22T10:36:43.999Z</time></trkpt><trkpt lat="42.73869332549156" lon="-2.4482299487924992"><ele>664.5</ele><time>2026-03-22T10:36:44.999Z</time></trkpt><trkpt lat="42.73874872255941" lon="-2.4483933493853547"><ele>665.0</ele><time>2026-03-22T10:36:45.999Z</time></trkpt><trkpt lat="42.73880494589619" lon="-2.448560134315223"><ele>665.0</ele><time>2026-03-22T10:36:46.999Z</time></trkpt><trkpt lat="42.7388622826447" lon="-2.4487255961234777"><ele>665.0</ele><time>2026-03-22T10:36:47.999Z</time></trkpt><trkpt lat="42.73891965004687" lon="-2.4488923951386483"><ele>665.0</ele><time>2026-03-22T10:36:48.999Z</time></trkpt><trkpt lat="42.73897891958541" lon="-2.449054462200148"><ele>665.0</ele><time>2026-03-22T10:36:49.999Z</time></trkpt><trkpt lat="42.73904008328541" lon="-2.4492176725699357"><ele>665.5</ele><time>2026-03-22T10:36:50.999Z</time></trkpt><trkpt lat="42.73910153292611" lon="-2.4493819654506246"><ele>666.0</ele><time>2026-03-22T10:36:51.999Z</time></trkpt><trkpt lat="42.739163467829" lon="-2.4495481427160293"><ele>666.5</ele><time>2026-03-22T10:36:52.999Z</time></trkpt><trkpt lat="42.73922574540649" lon="-2.4497152795307264"><ele>667.0</ele><time>2026-03-22T10:36:53.999Z</time></trkpt><trkpt lat="42.739293574824174" lon="-2.4498773725852905"><ele>667.0</ele><time>2026-03-22T10:36:54.999Z</time></trkpt><trkpt lat="42.73936039725404" lon="-2.4500333880060747"><ele>667.0</ele><time>2026-03-22T10:36:55.999Z</time></trkpt><trkpt lat="42.73942279015646" lon="-2.450176362654749"><ele>667.0</ele><time>2026-03-22T10:36:56.999Z</time></trkpt><trkpt lat="42.73947811993364" lon="-2.4502998663664526"><ele>667.0</ele><time>2026-03-22T10:36:57.998Z</time></trkpt><trkpt lat="42.73952717260317" lon="-2.450407092295701"><ele>665.75</ele><time>2026-03-22T10:36:58.998Z</time></trkpt><trkpt lat="42.73955029316823" lon="-2.450497146082688"><ele>664.5</ele><time>2026-03-22T10:36:59.998Z</time></trkpt><trkpt lat="42.73970543993123" lon="-2.4505032876558506"><ele>663.25</ele><time>2026-03-22T10:37:01.998Z</time></trkpt><trkpt lat="42.73983250456746" lon="-2.4503645553167956"><ele>662.0</ele><time>2026-03-22T10:37:03.998Z</time></trkpt><trkpt lat="42.73990566610244" lon="-2.4502577122413043"><ele>662.0</ele><time>2026-03-22T10:37:04.998Z</time></trkpt><trkpt lat="42.73998179904285" lon="-2.4501575921506022"><ele>662.0</ele><time>2026-03-22T10:37:05.998Z</time></trkpt><trkpt lat="42.74006503103956" lon="-2.4500595860514376"><ele>662.0</ele><time>2026-03-22T10:37:06.998Z</time></trkpt><trkpt lat="42.7401604898487" lon="-2.4499644612268536"><ele>662.0</ele><time>2026-03-22T10:37:07.998Z</time></trkpt><trkpt lat="42.74026943660466" lon="-2.4498874697587545"><ele>659.5</ele><time>2026-03-22T10:37:08.998Z</time></trkpt><trkpt lat="42.74039550783784" lon="-2.449829675822685"><ele>657.0</ele><time>2026-03-22T10:37:09.998Z</time></trkpt><trkpt lat="42.740528264224224" lon="-2.44979016500687"><ele>654.5</ele><time>2026-03-22T10:37:10.998Z</time></trkpt><trkpt lat="42.740668038707064" lon="-2.4497529831697746"><ele>652.0</ele><time>2026-03-22T10:37:11.998Z</time></trkpt><trkpt lat="42.74081326337863" lon="-2.4497115735124306"><ele>652.0</ele><time>2026-03-22T10:37:12.998Z</time></trkpt><trkpt lat="42.740963366340594" lon="-2.4496632164118366"><ele>652.0</ele><time>2026-03-22T10:37:13.998Z</time></trkpt><trkpt lat="42.74112009700582" lon="-2.449611472668242"><ele>652.0</ele><time>2026-03-22T10:37:14.998Z</time></trkpt><trkpt lat="42.74128033474418" lon="-2.449550901568294"><ele>650.3333333333334</ele><time>2026-03-22T10:37:15.998Z</time></trkpt><trkpt lat="42.74144051281011" lon="-2.4494900123672347"><ele>648.6666666666666</ele><time>2026-03-22T10:37:16.998Z</time></trkpt><trkpt lat="42.741596742512435" lon="-2.449417368204435"><ele>647.0</ele><time>2026-03-22T10:37:17.998Z</time></trkpt><trkpt lat="42.741746155548114" lon="-2.449359654615158"><ele>647.0</ele><time>2026-03-22T10:37:19Z</time></trkpt><trkpt lat="42.741879207860165" lon="-2.4492340856888903"><ele>647.0</ele><time>2026-03-22T10:37:20Z</time></trkpt><trkpt lat="42.74196828087247" lon="-2.449025595851488"><ele>647.0</ele><time>2026-03-22T10:37:21Z</time></trkpt><trkpt lat="42.742010755774906" lon="-2.4488059947055376"><ele>647.3333333333333</ele><time>2026-03-22T10:37:22Z</time></trkpt><trkpt lat="42.74206026810505" lon="-2.448582485509778"><ele>647.6666666666666</ele><time>2026-03-22T10:37:23Z</time></trkpt><trkpt lat="42.742100340685354" lon="-2.4483634494168145"><ele>648.0</ele><time>2026-03-22T10:37:24Z</time></trkpt><trkpt lat="42.74214959585929" lon="-2.4481424649871704"><ele>647.6666666666666</ele><time>2026-03-22T10:37:25Z</time></trkpt><trkpt lat="42.74221070551292" lon="-2.447917393532494"><ele>647.3333333333333</ele><time>2026-03-22T10:37:26Z</time></trkpt><trkpt lat="42.74225116719896" lon="-2.447676741716626"><ele>647.0</ele><time>2026-03-22T10:37:27Z</time></trkpt><trkpt lat="42.742326736666676" lon="-2.447450821977799"><ele>647.0</ele><time>2026-03-22T10:37:28Z</time></trkpt><trkpt lat="42.742428149863855" lon="-2.447240299924164"><ele>647.0</ele><time>2026-03-22T10:37:29Z</time></trkpt><trkpt lat="42.74254158236378" lon="-2.4470491585847105"><ele>647.0</ele><time>2026-03-22T10:37:30Z</time></trkpt><trkpt lat="42.742683158204485" lon="-2.446874899988707"><ele>646.3333333333333</ele><time>2026-03-22T10:37:31Z</time></trkpt><trkpt lat="42.74285666304953" lon="-2.4467385760733764"><ele>645.6666666666666</ele><time>2026-03-22T10:37:32Z</time></trkpt><trkpt lat="42.74304190477467" lon="-2.446631771359537"><ele>645.0</ele><time>2026-03-22T10:37:33Z</time></trkpt><trkpt lat="42.74324688240809" lon="-2.4465756296637577"><ele>645.0</ele><time>2026-03-22T10:37:34Z</time></trkpt><trkpt lat="42.74346051117981" lon="-2.4465192023979103"><ele>645.0</ele><time>2026-03-22T10:37:35Z</time></trkpt><trkpt lat="42.7437058114969" lon="-2.4464552183638912"><ele>647.5</ele><time>2026-03-22T10:37:36Z</time></trkpt><trkpt lat="42.74397409352331" lon="-2.4463853742239867"><ele>650.0</ele><time>2026-03-22T10:37:37Z</time></trkpt><trkpt lat="42.744261604617954" lon="-2.4463140400286"><ele>646.0</ele><time>2026-03-22T10:37:38Z</time></trkpt><trkpt lat="42.74457068108576" lon="-2.446237355259378"><ele>642.0</ele><time>2026-03-22T10:37:39Z</time></trkpt><trkpt lat="42.744890532113104" lon="-2.4461553195401913"><ele>642.0</ele><time>2026-03-22T10:37:40Z</time></trkpt><trkpt lat="42.74518478318172" lon="-2.4460797338529514"><ele>642.0</ele><time>2026-03-22T10:37:41Z</time></trkpt><trkpt lat="42.7454593813159" lon="-2.4460094188498425"><ele>645.0</ele><time>2026-03-22T10:37:42Z</time></trkpt><trkpt lat="42.74570494642646" lon="-2.445946907173571"><ele>648.0</ele><time>2026-03-22T10:37:43Z</time></trkpt><trkpt lat="42.74594784597069" lon="-2.4458850740242957"><ele>649.5</ele><time>2026-03-22T10:37:44Z</time></trkpt><trkpt lat="42.746183656327894" lon="-2.445825045519491"><ele>651.0</ele><time>2026-03-22T10:37:45Z</time></trkpt><trkpt lat="42.74641416324831" lon="-2.4457672139416773"><ele>651.0</ele><time>2026-03-22T10:37:46Z</time></trkpt><trkpt lat="42.746637137879816" lon="-2.445712389971646"><ele>651.0</ele><time>2026-03-22T10:37:47Z</time></trkpt><trkpt lat="42.746853890366985" lon="-2.445658104320344"><ele>651.0</ele><time>2026-03-22T10:37:48Z</time></trkpt><trkpt lat="42.747063203012786" lon="-2.445588518531152"><ele>651.3333333333334</ele><time>2026-03-22T10:37:49Z</time></trkpt><trkpt lat="42.74726809170542" lon="-2.4454694192621353"><ele>651.6666666666667</ele><time>2026-03-22T10:37:50Z</time></trkpt><trkpt lat="42.74746834719857" lon="-2.4453325947394386"><ele>652.0</ele><time>2026-03-22T10:37:51Z</time></trkpt><trkpt lat="42.74765941946724" lon="-2.4451846554798924"><ele>652.0</ele><time>2026-03-22T10:37:52Z</time></trkpt><trkpt lat="42.74784061070964" lon="-2.4450357946803964"><ele>652.0</ele><time>2026-03-22T10:37:53Z</time></trkpt><trkpt lat="42.748015247165654" lon="-2.4448914175208762"><ele>652.0</ele><time>2026-03-22T10:37:54Z</time></trkpt><trkpt lat="42.74818315207084" lon="-2.444756231756611"><ele>651.0</ele><time>2026-03-22T10:37:55Z</time></trkpt><trkpt lat="42.74834294220672" lon="-2.4446265054071064"><ele>650.0</ele><time>2026-03-22T10:37:56Z</time></trkpt><trkpt lat="42.74848790755695" lon="-2.4444995898418367"><ele>649.0</ele><time>2026-03-22T10:37:57Z</time></trkpt><trkpt lat="42.748621165780804" lon="-2.4443702169300763"><ele>651.0</ele><time>2026-03-22T10:37:57.999Z</time></trkpt><trkpt lat="42.74874144299702" lon="-2.4442313897238965"><ele>653.0</ele><time>2026-03-22T10:37:58.999Z</time></trkpt><trkpt lat="42.74885296836732" lon="-2.4440881515608166"><ele>655.0</ele><time>2026-03-22T10:37:59.999Z</time></trkpt><trkpt lat="42.748955140978474" lon="-2.4439437804982744"><ele>654.75</ele><time>2026-03-22T10:38:00.999Z</time></trkpt><trkpt lat="42.749050967737325" lon="-2.443793135430253"><ele>654.5</ele><time>2026-03-22T10:38:01.999Z</time></trkpt><trkpt lat="42.74913945724879" lon="-2.443632140852903"><ele>654.25</ele><time>2026-03-22T10:38:02.999Z</time></trkpt><trkpt lat="42.74920487212845" lon="-2.443453027379234"><ele>654.0</ele><time>2026-03-22T10:38:03.999Z</time></trkpt><trkpt lat="42.74924039301872" lon="-2.4432647808421444"><ele>654.0</ele><time>2026-03-22T10:38:04.999Z</time></trkpt><trkpt lat="42.749279001750246" lon="-2.443086870292345"><ele>654.0</ele><time>2026-03-22T10:38:05.999Z</time></trkpt><trkpt lat="42.74934075656631" lon="-2.442897210117316"><ele>654.0</ele><time>2026-03-22T10:38:06.999Z</time></trkpt><trkpt lat="42.74945815881119" lon="-2.442746615059355"><ele>657.3333333333334</ele><time>2026-03-22T10:38:07.999Z</time></trkpt><trkpt lat="42.74958781402777" lon="-2.442591673118067"><ele>660.6666666666667</ele><time>2026-03-22T10:38:08.999Z</time></trkpt><trkpt lat="42.74974587615891" lon="-2.4424585400128938"><ele>664.0</ele><time>2026-03-22T10:38:09.999Z</time></trkpt><trkpt lat="42.749917689939686" lon="-2.4423201695383536"><ele>664.0</ele><time>2026-03-22T10:38:10.999Z</time></trkpt><trkpt lat="42.750070653714545" lon="-2.4421899553584736"><ele>664.0</ele><time>2026-03-22T10:38:11.999Z</time></trkpt><trkpt lat="42.75021105306328" lon="-2.442097578605611"><ele>664.0</ele><time>2026-03-22T10:38:12.999Z</time></trkpt><trkpt lat="42.75035399889929" lon="-2.4421177431674033"><ele>669.0</ele><time>2026-03-22T10:38:13.999Z</time></trkpt><trkpt lat="42.7504826589105" lon="-2.4421486013908424"><ele>674.0</ele><time>2026-03-22T10:38:14.999Z</time></trkpt><trkpt lat="42.7506063639898" lon="-2.4421710331290947"><ele>679.0</ele><time>2026-03-22T10:38:15.999Z</time></trkpt><trkpt lat="42.750728567382666" lon="-2.442193109548091"><ele>684.0</ele><time>2026-03-22T10:38:16.999Z</time></trkpt><trkpt lat="42.75085973776491" lon="-2.4421883444529233"><ele>684.0</ele><time>2026-03-22T10:38:17.999Z</time></trkpt><trkpt lat="42.75099495813035" lon="-2.4422161211526032"><ele>684.0</ele><time>2026-03-22T10:38:18.999Z</time></trkpt><trkpt lat="42.751121644923444" lon="-2.442232639375057"><ele>684.0</ele><time>2026-03-22T10:38:19.999Z</time></trkpt><trkpt lat="42.75123040103564" lon="-2.442241844919052"><ele>684.0</ele><time>2026-03-22T10:38:20.999Z</time></trkpt><trkpt lat="42.751326386941024" lon="-2.442211327170379"><ele>683.5</ele><time>2026-03-22T10:38:21.999Z</time></trkpt><trkpt lat="42.751426731650916" lon="-2.4421376351037116"><ele>683.0</ele><time>2026-03-22T10:38:22.999Z</time></trkpt><trkpt lat="42.75153893968063" lon="-2.4420436820514757"><ele>682.5</ele><time>2026-03-22T10:38:23.999Z</time></trkpt><trkpt lat="42.751666903866855" lon="-2.441942740957652"><ele>682.0</ele><time>2026-03-22T10:38:24.999Z</time></trkpt><trkpt lat="42.75180514230881" lon="-2.441835693815131"><ele>679.6666666666667</ele><time>2026-03-22T10:38:25.999Z</time></trkpt><trkpt lat="42.75195115648134" lon="-2.4417185515375364"><ele>677.3333333333334</ele><time>2026-03-22T10:38:26.999Z</time></trkpt><trkpt lat="42.75207331149167" lon="-2.441580676379836"><ele>675.0</ele><time>2026-03-22T10:38:27.999Z</time></trkpt><trkpt lat="42.75217451950859" lon="-2.441456839297414"><ele>675.0</ele><time>2026-03-22T10:38:28.999Z</time></trkpt><trkpt lat="42.75227064888057" lon="-2.441310404715684"><ele>675.0</ele><time>2026-03-22T10:38:29.999Z</time></trkpt><trkpt lat="42.75237956200031" lon="-2.4411321752878687"><ele>675.0</ele><time>2026-03-22T10:38:30.999Z</time></trkpt><trkpt lat="42.752507079008026" lon="-2.440946020442968"><ele>674.6666666666666</ele><time>2026-03-22T10:38:31.999Z</time></trkpt><trkpt lat="42.75262436157871" lon="-2.440745123816421"><ele>674.3333333333333</ele><time>2026-03-22T10:38:32.999Z</time></trkpt><trkpt lat="42.75273823648856" lon="-2.4405850344715603"><ele>674.0</ele><time>2026-03-22T10:38:33.999Z</time></trkpt><trkpt lat="42.752823939435594" lon="-2.4404210277568037"><ele>674.0</ele><time>2026-03-22T10:38:34.999Z</time></trkpt><trkpt lat="42.7528879938297" lon="-2.440242719246024"><ele>674.0</ele><time>2026-03-22T10:38:35.999Z</time></trkpt><trkpt lat="42.75294074963541" lon="-2.440023583730067"><ele>674.0</ele><time>2026-03-22T10:38:36.999Z</time></trkpt><trkpt lat="42.752988177094316" lon="-2.439792731829662"><ele>676.0</ele><time>2026-03-22T10:38:37.999Z</time></trkpt><trkpt lat="42.75304224192328" lon="-2.439554099768113"><ele>678.0</ele><time>2026-03-22T10:38:38.999Z</time></trkpt><trkpt lat="42.753099759434285" lon="-2.4393185416949588"><ele>680.0</ele><time>2026-03-22T10:38:39.999Z</time></trkpt><trkpt lat="42.7531472481722" lon="-2.439118294612824"><ele>680.0</ele><time>2026-03-22T10:38:40.999Z</time></trkpt><trkpt lat="42.75320526184944" lon="-2.438926405256416"><ele>680.0</ele><time>2026-03-22T10:38:41.999Z</time></trkpt><trkpt lat="42.75328913782265" lon="-2.43872578000073"><ele>680.0</ele><time>2026-03-22T10:38:42.999Z</time></trkpt><trkpt lat="42.75339554829989" lon="-2.438526021992552"><ele>681.3333333333333</ele><time>2026-03-22T10:38:43.999Z</time></trkpt><trkpt lat="42.753517292747865" lon="-2.4383276810352363"><ele>682.6666666666666</ele><time>2026-03-22T10:38:44.999Z</time></trkpt><trkpt lat="42.75363246603391" lon="-2.4381207370666957"><ele>684.0</ele><time>2026-03-22T10:38:45.999Z</time></trkpt><trkpt lat="42.75375839880507" lon="-2.437900810705735"><ele>687.0</ele><time>2026-03-22T10:38:46.999Z</time></trkpt><trkpt lat="42.7538907242924" lon="-2.437664865318666"><ele>690.0</ele><time>2026-03-22T10:38:47.999Z</time></trkpt><trkpt lat="42.754033275941886" lon="-2.437416100504879"><ele>690.0</ele><time>2026-03-22T10:38:48.999Z</time></trkpt><trkpt lat="42.75417926433711" lon="-2.437159821423735"><ele>690.0</ele><time>2026-03-22T10:38:49.999Z</time></trkpt><trkpt lat="42.754322912266126" lon="-2.4369014776389166"><ele>690.5</ele><time>2026-03-22T10:38:50.999Z</time></trkpt><trkpt lat="42.75446201895991" lon="-2.4366521973021897"><ele>691.0</ele><time>2026-03-22T10:38:51.999Z</time></trkpt><trkpt lat="42.75460610265844" lon="-2.43639962874068"><ele>695.5</ele><time>2026-03-22T10:38:52.999Z</time></trkpt><trkpt lat="42.754753056721334" lon="-2.4361430600665153"><ele>700.0</ele><time>2026-03-22T10:38:53.999Z</time></trkpt><trkpt lat="42.754899638733505" lon="-2.435881163008383"><ele>700.0</ele><time>2026-03-22T10:38:54.999Z</time></trkpt><trkpt lat="42.755045757635536" lon="-2.4356167018696593"><ele>700.0</ele><time>2026-03-22T10:38:55.999Z</time></trkpt><trkpt lat="42.75519479351114" lon="-2.435358413829573"><ele>702.0</ele><time>2026-03-22T10:38:56.999Z</time></trkpt><trkpt lat="42.75534057455184" lon="-2.435103148357302"><ele>704.0</ele><time>2026-03-22T10:38:57.999Z</time></trkpt><trkpt lat="42.75548726052059" lon="-2.4348501279296073"><ele>708.5</ele><time>2026-03-22T10:38:58.999Z</time></trkpt><trkpt lat="42.75562881090259" lon="-2.434600265786986"><ele>713.0</ele><time>2026-03-22T10:38:59.999Z</time></trkpt><trkpt lat="42.755765022371214" lon="-2.434353583979086"><ele>713.0</ele><time>2026-03-22T10:39:00.999Z</time></trkpt><trkpt lat="42.75590335860705" lon="-2.4341073641622257"><ele>713.0</ele><time>2026-03-22T10:39:01.999Z</time></trkpt><trkpt lat="42.756042998081085" lon="-2.4338626308225004"><ele>715.0</ele><time>2026-03-22T10:39:02.999Z</time></trkpt><trkpt lat="42.75618289393241" lon="-2.433611291670652"><ele>717.0</ele><time>2026-03-22T10:39:03.999Z</time></trkpt><trkpt lat="42.75632311025883" lon="-2.4333622108531365"><ele>717.0</ele><time>2026-03-22T10:39:04.999Z</time></trkpt><trkpt lat="42.75645597204941" lon="-2.43312549417571"><ele>717.0</ele><time>2026-03-22T10:39:05.999Z</time></trkpt><trkpt lat="42.756573146622905" lon="-2.4329119418028475"><ele>717.0</ele><time>2026-03-22T10:39:06.999Z</time></trkpt><trkpt lat="42.75668126656712" lon="-2.4327195402873016"><ele>717.6666666666666</ele><time>2026-03-22T10:39:07.999Z</time></trkpt><trkpt lat="42.75677873681341" lon="-2.4325410501532683"><ele>718.3333333333333</ele><time>2026-03-22T10:39:08.998Z</time></trkpt><trkpt lat="42.75687484488675" lon="-2.432371203449845"><ele>719.0</ele><time>2026-03-22T10:39:09.998Z</time></trkpt><trkpt lat="42.75697674226722" lon="-2.4322025920709516"><ele>723.3333333333333</ele><time>2026-03-22T10:39:10.998Z</time></trkpt><trkpt lat="42.75709751269485" lon="-2.4320409462540353"><ele>727.6666666666666</ele><time>2026-03-22T10:39:11.998Z</time></trkpt><trkpt lat="42.75723350028345" lon="-2.431883231578652"><ele>732.0</ele><time>2026-03-22T10:39:12.998Z</time></trkpt><trkpt lat="42.75737290930311" lon="-2.4317160888003966"><ele>732.0</ele><time>2026-03-22T10:39:13.998Z</time></trkpt><trkpt lat="42.75749913915282" lon="-2.431522239960328"><ele>732.0</ele><time>2026-03-22T10:39:14.998Z</time></trkpt><trkpt lat="42.75765126415805" lon="-2.431353239207671"><ele>732.0</ele><time>2026-03-22T10:39:15.998Z</time></trkpt><trkpt lat="42.757794167158664" lon="-2.431168839982935"><ele>733.0</ele><time>2026-03-22T10:39:16.998Z</time></trkpt><trkpt lat="42.757931487324186" lon="-2.430988309876887"><ele>734.0</ele><time>2026-03-22T10:39:17.998Z</time></trkpt><trkpt lat="42.75807659126229" lon="-2.4308042827888254"><ele>735.0</ele><time>2026-03-22T10:39:18.998Z</time></trkpt><trkpt lat="42.75822403104137" lon="-2.4306221118141527"><ele>735.6666666666666</ele><time>2026-03-22T10:39:19.998Z</time></trkpt><trkpt lat="42.75836502269402" lon="-2.430449728316112"><ele>736.3333333333333</ele><time>2026-03-22T10:39:20.998Z</time></trkpt><trkpt lat="42.758480920589356" lon="-2.43026429824011"><ele>737.0</ele><time>2026-03-22T10:39:21.998Z</time></trkpt><trkpt lat="42.758599142183364" lon="-2.430105712790152"><ele>737.0</ele><time>2026-03-22T10:39:22.998Z</time></trkpt><trkpt lat="42.758723988156035" lon="-2.4299668504552243"><ele>737.0</ele><time>2026-03-22T10:39:23.998Z</time></trkpt><trkpt lat="42.75883791734723" lon="-2.429809670484381"><ele>737.0</ele><time>2026-03-22T10:39:25Z</time></trkpt><trkpt lat="42.758950010692324" lon="-2.4296501649991544"><ele>739.75</ele><time>2026-03-22T10:39:26Z</time></trkpt><trkpt lat="42.759058741680626" lon="-2.4295034891758327"><ele>742.5</ele><time>2026-03-22T10:39:27Z</time></trkpt><trkpt lat="42.75915946880438" lon="-2.4293827864863493"><ele>745.25</ele><time>2026-03-22T10:39:28Z</time></trkpt><trkpt lat="42.75924897222715" lon="-2.4292916785439083"><ele>748.0</ele><time>2026-03-22T10:39:29Z</time></trkpt><trkpt lat="42.759332435603056" lon="-2.4292063099708807"><ele>748.5</ele><time>2026-03-22T10:39:30Z</time></trkpt><trkpt lat="42.759404231233205" lon="-2.4291221559061618"><ele>749.0</ele><time>2026-03-22T10:39:31Z</time></trkpt><trkpt lat="42.75944683886379" lon="-2.4290343924902476"><ele>749.5</ele><time>2026-03-22T10:39:32Z</time></trkpt><trkpt lat="42.75942328702917" lon="-2.4288782143548366"><ele>750.0</ele><time>2026-03-22T10:39:34Z</time></trkpt><trkpt lat="42.759370037670266" lon="-2.428806973595935"><ele>750.5</ele><time>2026-03-22T10:39:35Z</time></trkpt><trkpt lat="42.759293653599094" lon="-2.428793958479307"><ele>751.0</ele><time>2026-03-22T10:39:36Z</time></trkpt><trkpt lat="42.759201511160306" lon="-2.428731910166059"><ele>751.8</ele><time>2026-03-22T10:39:38Z</time></trkpt><trkpt lat="42.75913695846882" lon="-2.4287028116180047"><ele>752.5999999999999</ele><time>2026-03-22T10:39:39Z</time></trkpt><trkpt lat="42.75905140068394" lon="-2.4286545014884497"><ele>753.4</ele><time>2026-03-22T10:39:40Z</time></trkpt><trkpt lat="42.758960070539615" lon="-2.428578093437166"><ele>754.2</ele><time>2026-03-22T10:39:41Z</time></trkpt><trkpt lat="42.75887502069076" lon="-2.428489411925971"><ele>755.0</ele><time>2026-03-22T10:39:42Z</time></trkpt><trkpt lat="42.75880812661195" lon="-2.428393143398911"><ele>755.0</ele><time>2026-03-22T10:39:43Z</time></trkpt><trkpt lat="42.7587323460389" lon="-2.428275233422252"><ele>755.0</ele><time>2026-03-22T10:39:44Z</time></trkpt><trkpt lat="42.75865279494284" lon="-2.4281688293361365"><ele>755.0</ele><time>2026-03-22T10:39:45Z</time></trkpt><trkpt lat="42.758564305434064" lon="-2.4281093911307616"><ele>755.0</ele><time>2026-03-22T10:39:46Z</time></trkpt><trkpt lat="42.75846505469855" lon="-2.4281326266650773"><ele>755.0</ele><time>2026-03-22T10:39:47Z</time></trkpt><trkpt lat="42.758386209246275" lon="-2.4281924548174953"><ele>755.75</ele><time>2026-03-22T10:39:48Z</time></trkpt><trkpt lat="42.7582867314859" lon="-2.4282211687408286"><ele>756.5</ele><time>2026-03-22T10:39:49Z</time></trkpt><trkpt lat="42.7581790782669" lon="-2.4282612026451136"><ele>757.25</ele><time>2026-03-22T10:39:50Z</time></trkpt><trkpt lat="42.758051330061576" lon="-2.428260644089662"><ele>758.0</ele><time>2026-03-22T10:39:51Z</time></trkpt><trkpt lat="42.75790571246004" lon="-2.4282183560109107"><ele>758.0</ele><time>2026-03-22T10:39:52Z</time></trkpt><trkpt lat="42.75775565706894" lon="-2.428166224390397"><ele>758.0</ele><time>2026-03-22T10:39:53Z</time></trkpt><trkpt lat="42.757610667535474" lon="-2.428136134555157"><ele>758.0</ele><time>2026-03-22T10:39:54Z</time></trkpt><trkpt lat="42.757469870395674" lon="-2.4281459809591146"><ele>758.0</ele><time>2026-03-22T10:39:55Z</time></trkpt><trkpt lat="42.75734161948895" lon="-2.4281653944198776"><ele>759.0</ele><time>2026-03-22T10:39:56Z</time></trkpt><trkpt lat="42.757235413486285" lon="-2.4281537127558184"><ele>760.0</ele><time>2026-03-22T10:39:57Z</time></trkpt><trkpt lat="42.75714849717362" lon="-2.4280981780693094"><ele>761.0</ele><time>2026-03-22T10:39:58Z</time></trkpt><trkpt lat="42.757078891521694" lon="-2.4280051752641314"><ele>762.0</ele><time>2026-03-22T10:39:59Z</time></trkpt><trkpt lat="42.757019924575985" lon="-2.427894681909161"><ele>763.0</ele><time>2026-03-22T10:40:00Z</time></trkpt><trkpt lat="42.7569617324221" lon="-2.427784544377391"><ele>764.5</ele><time>2026-03-22T10:40:01Z</time></trkpt><trkpt lat="42.756909237027294" lon="-2.4276851888303637"><ele>766.0</ele><time>2026-03-22T10:40:02Z</time></trkpt><trkpt lat="42.75705773695562" lon="-2.427438855464623"><ele>767.5</ele><time>2026-03-22T10:40:03Z</time></trkpt><trkpt lat="42.75713737397878" lon="-2.42732888123854"><ele>769.0</ele><time>2026-03-22T10:40:04Z</time></trkpt><trkpt lat="42.75723752705427" lon="-2.427227261236606"><ele>770.75</ele><time>2026-03-22T10:40:05Z</time></trkpt><trkpt lat="42.75734640359909" lon="-2.427119671414109"><ele>772.5</ele><time>2026-03-22T10:40:06Z</time></trkpt><trkpt lat="42.75746516355811" lon="-2.42700631687218"><ele>774.25</ele><time>2026-03-22T10:40:07Z</time></trkpt><trkpt lat="42.75758274206199" lon="-2.4268709372850306"><ele>776.0</ele><time>2026-03-22T10:40:08Z</time></trkpt><trkpt lat="42.757698863035685" lon="-2.4267240978431532"><ele>775.3333333333334</ele><time>2026-03-22T10:40:08.999Z</time></trkpt><trkpt lat="42.75782580185733" lon="-2.426571263402324"><ele>774.6666666666667</ele><time>2026-03-22T10:40:09.999Z</time></trkpt><trkpt lat="42.757958723340224" lon="-2.426414323433467"><ele>774.0</ele><time>2026-03-22T10:40:10.999Z</time></trkpt><trkpt lat="42.75809294119804" lon="-2.4262470691292193"><ele>776.3333333333333</ele><time>2026-03-22T10:40:11.999Z</time></trkpt><trkpt lat="42.75822322243612" lon="-2.4260676967004047"><ele>778.6666666666666</ele><time>2026-03-22T10:40:12.999Z</time></trkpt><trkpt lat="42.75833355455759" lon="-2.425878679311622"><ele>781.0</ele><time>2026-03-22T10:40:13.999Z</time></trkpt><trkpt lat="42.75842428520356" lon="-2.4256972505237933"><ele>781.0</ele><time>2026-03-22T10:40:14.999Z</time></trkpt><trkpt lat="42.75850657770206" lon="-2.425546433188442"><ele>781.0</ele><time>2026-03-22T10:40:15.999Z</time></trkpt><trkpt lat="42.75860708025798" lon="-2.425432781628723"><ele>781.0</ele><time>2026-03-22T10:40:16.999Z</time></trkpt><trkpt lat="42.75873178523924" lon="-2.425356436074524"><ele>781.0</ele><time>2026-03-22T10:40:17.999Z</time></trkpt><trkpt lat="42.75887916425591" lon="-2.4253047989759495"><ele>783.3333333333333</ele><time>2026-03-22T10:40:18.999Z</time></trkpt><trkpt lat="42.75902959611575" lon="-2.425262931075516"><ele>785.6666666666667</ele><time>2026-03-22T10:40:19.999Z</time></trkpt><trkpt lat="42.759185519749806" lon="-2.425201651546052"><ele>788.0</ele><time>2026-03-22T10:40:20.999Z</time></trkpt><trkpt lat="42.75934679176252" lon="-2.425111508441901"><ele>789.3333333333334</ele><time>2026-03-22T10:40:21.999Z</time></trkpt><trkpt lat="42.75951133614015" lon="-2.4250133483016776"><ele>790.6666666666667</ele><time>2026-03-22T10:40:22.999Z</time></trkpt><trkpt lat="42.75968120855506" lon="-2.424908860052319"><ele>792.0</ele><time>2026-03-22T10:40:23.999Z</time></trkpt><trkpt lat="42.75985096485978" lon="-2.4248051878650507"><ele>792.0</ele><time>2026-03-22T10:40:24.999Z</time></trkpt><trkpt lat="42.76001593250794" lon="-2.4247050268726094"><ele>792.0</ele><time>2026-03-22T10:40:25.999Z</time></trkpt><trkpt lat="42.760162520058635" lon="-2.4246170941102845"><ele>792.0</ele><time>2026-03-22T10:40:26.999Z</time></trkpt><trkpt lat="42.76029337804224" lon="-2.4245426949760653"><ele>795.25</ele><time>2026-03-22T10:40:27.999Z</time></trkpt><trkpt lat="42.760412543124026" lon="-2.4244963906150865"><ele>798.5</ele><time>2026-03-22T10:40:28.999Z</time></trkpt><trkpt lat="42.76053132794552" lon="-2.42449509986488"><ele>801.75</ele><time>2026-03-22T10:40:29.999Z</time></trkpt><trkpt lat="42.760649322869114" lon="-2.4245435285206054"><ele>805.0</ele><time>2026-03-22T10:40:30.999Z</time></trkpt><trkpt lat="42.760774247759926" lon="-2.4246067531019713"><ele>805.0</ele><time>2026-03-22T10:40:31.999Z</time></trkpt><trkpt lat="42.76089874754487" lon="-2.4246448390977644"><ele>805.0</ele><time>2026-03-22T10:40:32.999Z</time></trkpt><trkpt lat="42.76103853784601" lon="-2.4246228505152976"><ele>805.0</ele><time>2026-03-22T10:40:33.999Z</time></trkpt><trkpt lat="42.76118564770195" lon="-2.4246037466130024"><ele>805.0</ele><time>2026-03-22T10:40:34.999Z</time></trkpt><trkpt lat="42.7613348858368" lon="-2.4246052049835938"><ele>806.0</ele><time>2026-03-22T10:40:35.999Z</time></trkpt><trkpt lat="42.761467280039064" lon="-2.4245827846511276"><ele>807.0</ele><time>2026-03-22T10:40:36.999Z</time></trkpt><trkpt lat="42.7615738970059" lon="-2.42454232128576"><ele>808.0</ele><time>2026-03-22T10:40:37.999Z</time></trkpt><trkpt lat="42.76166293207666" lon="-2.424467815627635"><ele>809.0</ele><time>2026-03-22T10:40:38.999Z</time></trkpt><trkpt lat="42.761734644782685" lon="-2.4243537328850766"><ele>809.0</ele><time>2026-03-22T10:40:39.999Z</time></trkpt><trkpt lat="42.76177075630857" lon="-2.4241984025925656"><ele>809.0</ele><time>2026-03-22T10:40:40.999Z</time></trkpt><trkpt lat="42.761839014937436" lon="-2.4240567706651523"><ele>809.0</ele><time>2026-03-22T10:40:41.999Z</time></trkpt><trkpt lat="42.76189915865943" lon="-2.4238890219111626"><ele>809.0</ele><time>2026-03-22T10:40:42.999Z</time></trkpt><trkpt lat="42.76195852553595" lon="-2.42374860370419"><ele>811.0</ele><time>2026-03-22T10:40:43.999Z</time></trkpt><trkpt lat="42.76201359723864" lon="-2.4236443141111526"><ele>813.0</ele><time>2026-03-22T10:40:44.999Z</time></trkpt><trkpt lat="42.76207129344811" lon="-2.4235610079670633"><ele>815.0</ele><time>2026-03-22T10:40:45.999Z</time></trkpt><trkpt lat="42.76216101127568" lon="-2.42352448141642"><ele>817.0</ele><time>2026-03-22T10:40:46.999Z</time></trkpt><trkpt lat="42.762273665716876" lon="-2.423542888308594"><ele>819.0</ele><time>2026-03-22T10:40:47.999Z</time></trkpt><trkpt lat="42.76238083806843" lon="-2.4236304178204158"><ele>819.0</ele><time>2026-03-22T10:40:48.999Z</time></trkpt><trkpt lat="42.7624879319709" lon="-2.4237126585102895"><ele>819.0</ele><time>2026-03-22T10:40:49.999Z</time></trkpt><trkpt lat="42.762606411257885" lon="-2.42377650027847"><ele>819.0</ele><time>2026-03-22T10:40:50.999Z</time></trkpt><trkpt lat="42.76271116622469" lon="-2.423846449003641"><ele>819.0</ele><time>2026-03-22T10:40:51.999Z</time></trkpt><trkpt lat="42.76281673491767" lon="-2.4239069336756303"><ele>818.0</ele><time>2026-03-22T10:40:52.999Z</time></trkpt><trkpt lat="42.762931928667754" lon="-2.423953734234334"><ele>817.0</ele><time>2026-03-22T10:40:53.999Z</time></trkpt><trkpt lat="42.76305085548357" lon="-2.4239757465290426"><ele>816.0</ele><time>2026-03-22T10:40:54.999Z</time></trkpt><trkpt lat="42.76318809631684" lon="-2.4239891921552115"><ele>815.0</ele><time>2026-03-22T10:40:55.999Z</time></trkpt><trkpt lat="42.76333478708717" lon="-2.4240203734635597"><ele>815.0</ele><time>2026-03-22T10:40:56.999Z</time></trkpt><trkpt lat="42.76347729528688" lon="-2.424021462455606"><ele>815.0</ele><time>2026-03-22T10:40:57.999Z</time></trkpt><trkpt lat="42.76362103861003" lon="-2.4240332468031216"><ele>815.0</ele><time>2026-03-22T10:40:58.999Z</time></trkpt><trkpt lat="42.76376160153561" lon="-2.4240394274671138"><ele>815.0</ele><time>2026-03-22T10:40:59.999Z</time></trkpt><trkpt lat="42.763892222345" lon="-2.424036152714776"><ele>817.8</ele><time>2026-03-22T10:41:00.999Z</time></trkpt><trkpt lat="42.763995473548555" lon="-2.424009463332652"><ele>820.6</ele><time>2026-03-22T10:41:01.999Z</time></trkpt><trkpt lat="42.764074032398426" lon="-2.423946543566419"><ele>823.4000000000001</ele><time>2026-03-22T10:41:02.999Z</time></trkpt><trkpt lat="42.76411723070051" lon="-2.4238435015771125"><ele>826.2</ele><time>2026-03-22T10:41:03.999Z</time></trkpt><trkpt lat="42.76416672272748" lon="-2.4237421589172783"><ele>829.0</ele><time>2026-03-22T10:41:04.999Z</time></trkpt><trkpt lat="42.76418269321273" lon="-2.423608104250981"><ele>831.25</ele><time>2026-03-22T10:41:05.999Z</time></trkpt><trkpt lat="42.764153388543" lon="-2.423461057428858"><ele>833.5</ele><time>2026-03-22T10:41:06.999Z</time></trkpt><trkpt lat="42.76414737804018" lon="-2.4233030933189372"><ele>835.75</ele><time>2026-03-22T10:41:07.999Z</time></trkpt><trkpt lat="42.76409411572387" lon="-2.423146803594789"><ele>838.0</ele><time>2026-03-22T10:41:08.999Z</time></trkpt><trkpt lat="42.763993832993535" lon="-2.4230240617217853"><ele>840.5</ele><time>2026-03-22T10:41:09.999Z</time></trkpt><trkpt lat="42.76389009563216" lon="-2.4228974798375806"><ele>843.0</ele><time>2026-03-22T10:41:10.999Z</time></trkpt><trkpt lat="42.76378099223974" lon="-2.4227571193250137"><ele>845.5</ele><time>2026-03-22T10:41:11.999Z</time></trkpt><trkpt lat="42.76366682704442" lon="-2.4226378876528116"><ele>848.0</ele><time>2026-03-22T10:41:12.999Z</time></trkpt><trkpt lat="42.763547915520455" lon="-2.42250500306905"><ele>847.0</ele><time>2026-03-22T10:41:13.999Z</time></trkpt><trkpt lat="42.763428526627315" lon="-2.4223624153756957"><ele>846.0</ele><time>2026-03-22T10:41:14.999Z</time></trkpt><trkpt lat="42.763304904055346" lon="-2.4222112547828556"><ele>845.0</ele><time>2026-03-22T10:41:15.999Z</time></trkpt><trkpt lat="42.76317415617908" lon="-2.4220675321294776"><ele>845.0</ele><time>2026-03-22T10:41:16.999Z</time></trkpt><trkpt lat="42.76305108088051" lon="-2.4219216844138782"><ele>845.0</ele><time>2026-03-22T10:41:17.999Z</time></trkpt><trkpt lat="42.762929134318206" lon="-2.421794064419956"><ele>845.0</ele><time>2026-03-22T10:41:18.999Z</time></trkpt><trkpt lat="42.76281639333424" lon="-2.4216693667782225"><ele>845.0</ele><time>2026-03-22T10:41:19.999Z</time></trkpt><trkpt lat="42.76271539929861" lon="-2.421538800870153"><ele>845.0</ele><time>2026-03-22T10:41:20.999Z</time></trkpt><trkpt lat="42.762631616194255" lon="-2.42138321216175"><ele>845.0</ele><time>2026-03-22T10:41:21.998Z</time></trkpt><trkpt lat="42.76256157492068" lon="-2.421208147280767"><ele>845.0</ele><time>2026-03-22T10:41:22.998Z</time></trkpt><trkpt lat="42.76250591847331" lon="-2.421033290352483"><ele>845.5</ele><time>2026-03-22T10:41:23.998Z</time></trkpt><trkpt lat="42.762459891473036" lon="-2.4208552074516336"><ele>846.0</ele><time>2026-03-22T10:41:24.998Z</time></trkpt><trkpt lat="42.76241403101561" lon="-2.4206643453905916"><ele>846.5</ele><time>2026-03-22T10:41:25.998Z</time></trkpt><trkpt lat="42.76235826604502" lon="-2.4204562729223875"><ele>847.0</ele><time>2026-03-22T10:41:26.998Z</time></trkpt><trkpt lat="42.76230141370233" lon="-2.420246090928545"><ele>850.0</ele><time>2026-03-22T10:41:27.998Z</time></trkpt><trkpt lat="42.762247684924944" lon="-2.420027088810501"><ele>853.0</ele><time>2026-03-22T10:41:28.998Z</time></trkpt><trkpt lat="42.762209813791976" lon="-2.4198076713093277"><ele>856.0</ele><time>2026-03-22T10:41:29.998Z</time></trkpt><trkpt lat="42.76219819638941" lon="-2.4195849173318673"><ele>858.0</ele><time>2026-03-22T10:41:31Z</time></trkpt><trkpt lat="42.7622027539099" lon="-2.4193427673157357"><ele>860.0</ele><time>2026-03-22T10:41:32Z</time></trkpt><trkpt lat="42.76221656023006" lon="-2.419085029172873"><ele>862.0</ele><time>2026-03-22T10:41:33Z</time></trkpt><trkpt lat="42.76223073745645" lon="-2.4188003573676724"><ele>864.0</ele><time>2026-03-22T10:41:34Z</time></trkpt><trkpt lat="42.7622472979084" lon="-2.418505213679256"><ele>866.0</ele><time>2026-03-22T10:41:35Z</time></trkpt><trkpt lat="42.76226106248818" lon="-2.4181969831265"><ele>868.0</ele><time>2026-03-22T10:41:36Z</time></trkpt><trkpt lat="42.76227459490863" lon="-2.4178908491875686"><ele>869.0</ele><time>2026-03-22T10:41:37Z</time></trkpt><trkpt lat="42.762288434424285" lon="-2.4175765172339334"><ele>870.0</ele><time>2026-03-22T10:41:38Z</time></trkpt><trkpt lat="42.76230112587535" lon="-2.417278180164669"><ele>871.3333333333333</ele><time>2026-03-22T10:41:39Z</time></trkpt><trkpt lat="42.76231129917225" lon="-2.416992384306435"><ele>872.6666666666666</ele><time>2026-03-22T10:41:40Z</time></trkpt><trkpt lat="42.76232249839574" lon="-2.4167045310804642"><ele>874.0</ele><time>2026-03-22T10:41:41Z</time></trkpt><trkpt lat="42.762339557564424" lon="-2.4164235581558042"><ele>876.0</ele><time>2026-03-22T10:41:42Z</time></trkpt><trkpt lat="42.76235437516516" lon="-2.416152374567717"><ele>878.0</ele><time>2026-03-22T10:41:43Z</time></trkpt><trkpt lat="42.762360035126136" lon="-2.415897692766089"><ele>880.0</ele><time>2026-03-22T10:41:44Z</time></trkpt><trkpt lat="42.762326975134464" lon="-2.415656515173294"><ele>881.6666666666666</ele><time>2026-03-22T10:41:45Z</time></trkpt><trkpt lat="42.7622885004221" lon="-2.415424932756133"><ele>883.3333333333333</ele><time>2026-03-22T10:41:46Z</time></trkpt><trkpt lat="42.76225980437819" lon="-2.415212420787072"><ele>885.0</ele><time>2026-03-22T10:41:47Z</time></trkpt><trkpt lat="42.76221695515125" lon="-2.415033901035493"><ele>885.0</ele><time>2026-03-22T10:41:48Z</time></trkpt><trkpt lat="42.762179861861384" lon="-2.414865490671718"><ele>885.0</ele><time>2026-03-22T10:41:49Z</time></trkpt><trkpt lat="42.762130738074426" lon="-2.4147005582661296"><ele>885.0</ele><time>2026-03-22T10:41:50Z</time></trkpt><trkpt lat="42.76204808572455" lon="-2.414547365334702"><ele>885.0</ele><time>2026-03-22T10:41:51Z</time></trkpt><trkpt lat="42.76193275327799" lon="-2.4144410082044243"><ele>885.0</ele><time>2026-03-22T10:41:52Z</time></trkpt><trkpt lat="42.76184609866073" lon="-2.4143177809993266"><ele>885.0</ele><time>2026-03-22T10:41:53Z</time></trkpt><trkpt lat="42.76177030380497" lon="-2.4141908318319163"><ele>885.0</ele><time>2026-03-22T10:41:54Z</time></trkpt><trkpt lat="42.761704250296475" lon="-2.414031758567166"><ele>885.0</ele><time>2026-03-22T10:41:55Z</time></trkpt><trkpt lat="42.76163546075489" lon="-2.413861687674248"><ele>887.2</ele><time>2026-03-22T10:41:56Z</time></trkpt><trkpt lat="42.76155354652045" lon="-2.4137341939036467"><ele>889.4</ele><time>2026-03-22T10:41:57Z</time></trkpt><trkpt lat="42.76145421018953" lon="-2.4136604697989923"><ele>891.5999999999999</ele><time>2026-03-22T10:41:58Z</time></trkpt><trkpt lat="42.76134471839275" lon="-2.4136714711804235"><ele>893.8</ele><time>2026-03-22T10:41:59Z</time></trkpt><trkpt lat="42.76125190541579" lon="-2.4137138976694725"><ele>896.0</ele><time>2026-03-22T10:42:00Z</time></trkpt><trkpt lat="42.76115297482299" lon="-2.413690257893834"><ele>896.0</ele><time>2026-03-22T10:42:01Z</time></trkpt><trkpt lat="42.761056037359374" lon="-2.413667921392419"><ele>896.0</ele><time>2026-03-22T10:42:02Z</time></trkpt><trkpt lat="42.76095772255323" lon="-2.4135977853216817"><ele>896.0</ele><time>2026-03-22T10:42:03Z</time></trkpt><trkpt lat="42.76086767827709" lon="-2.413483025705537"><ele>896.0</ele><time>2026-03-22T10:42:04Z</time></trkpt><trkpt lat="42.760782639544516" lon="-2.4133442584266764"><ele>896.75</ele><time>2026-03-22T10:42:05Z</time></trkpt><trkpt lat="42.760687175532766" lon="-2.4132055298820583"><ele>897.5</ele><time>2026-03-22T10:42:06Z</time></trkpt><trkpt lat="42.76058036406292" lon="-2.4130844005267154"><ele>898.25</ele><time>2026-03-22T10:42:07Z</time></trkpt><trkpt lat="42.76045265712306" lon="-2.4130123559865413"><ele>899.0</ele><time>2026-03-22T10:42:08Z</time></trkpt><trkpt lat="42.760316293253176" lon="-2.412956284940409"><ele>899.0</ele><time>2026-03-22T10:42:09Z</time></trkpt><trkpt lat="42.76016392231176" lon="-2.4129257627961342"><ele>899.0</ele><time>2026-03-22T10:42:10Z</time></trkpt><trkpt lat="42.76001088360623" lon="-2.41288060619401"><ele>899.0</ele><time>2026-03-22T10:42:11Z</time></trkpt><trkpt lat="42.7598616998754" lon="-2.412858497710296"><ele>899.0</ele><time>2026-03-22T10:42:12Z</time></trkpt><trkpt lat="42.75972858378223" lon="-2.412819538653838"><ele>899.0</ele><time>2026-03-22T10:42:13Z</time></trkpt><trkpt lat="42.75960614923089" lon="-2.4127534318896307"><ele>899.0</ele><time>2026-03-22T10:42:14Z</time></trkpt><trkpt lat="42.75949682456519" lon="-2.4126580346108315"><ele>899.0</ele><time>2026-03-22T10:42:15Z</time></trkpt><trkpt lat="42.759410361208076" lon="-2.4125278383020103"><ele>898.8000000000001</ele><time>2026-03-22T10:42:16Z</time></trkpt><trkpt lat="42.75934193642976" lon="-2.412384286886046"><ele>898.6000000000001</ele><time>2026-03-22T10:42:17Z</time></trkpt><trkpt lat="42.75929901329812" lon="-2.412244693462411"><ele>898.4</ele><time>2026-03-22T10:42:18Z</time></trkpt><trkpt lat="42.75928591828273" lon="-2.4121387890903856"><ele>898.2</ele><time>2026-03-22T10:42:19Z</time></trkpt><trkpt lat="42.75930922911791" lon="-2.412055145883914"><ele>898.0</ele><time>2026-03-22T10:42:20Z</time></trkpt><trkpt lat="42.75934612280327" lon="-2.411967086374071"><ele>900.75</ele><time>2026-03-22T10:42:21Z</time></trkpt><trkpt lat="42.759451034841305" lon="-2.411935083103902"><ele>903.5</ele><time>2026-03-22T10:42:21.999Z</time></trkpt><trkpt lat="42.75955715021756" lon="-2.4119100272404435"><ele>906.25</ele><time>2026-03-22T10:42:22.999Z</time></trkpt><trkpt lat="42.759685618165086" lon="-2.4118923170481077"><ele>909.0</ele><time>2026-03-22T10:42:23.999Z</time></trkpt><trkpt lat="42.75982977628189" lon="-2.4118721336525804"><ele>909.0</ele><time>2026-03-22T10:42:24.999Z</time></trkpt><trkpt lat="42.75999088220474" lon="-2.411837332867149"><ele>909.0</ele><time>2026-03-22T10:42:25.999Z</time></trkpt><trkpt lat="42.760152383268334" lon="-2.4117912221089544"><ele>909.0</ele><time>2026-03-22T10:42:26.999Z</time></trkpt><trkpt lat="42.76030870706628" lon="-2.4117215128542178"><ele>909.6666666666667</ele><time>2026-03-22T10:42:27.999Z</time></trkpt><trkpt lat="42.76046856293966" lon="-2.4116394150183553"><ele>910.3333333333334</ele><time>2026-03-22T10:42:28.999Z</time></trkpt><trkpt lat="42.760634472112336" lon="-2.411558149127586"><ele>911.0</ele><time>2026-03-22T10:42:29.999Z</time></trkpt><trkpt lat="42.760801023255524" lon="-2.4114806472469614"><ele>911.0</ele><time>2026-03-22T10:42:30.999Z</time></trkpt><trkpt lat="42.76096505906531" lon="-2.4114068664278117"><ele>911.0</ele><time>2026-03-22T10:42:31.999Z</time></trkpt><trkpt lat="42.76112682138486" lon="-2.41133780038234"><ele>911.0</ele><time>2026-03-22T10:42:32.999Z</time></trkpt><trkpt lat="42.76129000436066" lon="-2.4112685268894007"><ele>914.6666666666667</ele><time>2026-03-22T10:42:33.999Z</time></trkpt><trkpt lat="42.76145255905109" lon="-2.411195591000105"><ele>918.3333333333333</ele><time>2026-03-22T10:42:34.999Z</time></trkpt><trkpt lat="42.76161734247248" lon="-2.4111223116614986"><ele>922.0</ele><time>2026-03-22T10:42:35.999Z</time></trkpt><trkpt lat="42.761782243053894" lon="-2.4110464224467356"><ele>924.0</ele><time>2026-03-22T10:42:36.999Z</time></trkpt><trkpt lat="42.76194947160287" lon="-2.410970501327314"><ele>926.0</ele><time>2026-03-22T10:42:37.999Z</time></trkpt><trkpt lat="42.76211381744485" lon="-2.4108966533400547"><ele>928.0</ele><time>2026-03-22T10:42:38.999Z</time></trkpt><trkpt lat="42.76228580584597" lon="-2.410816971867423"><ele>928.0</ele><time>2026-03-22T10:42:39.999Z</time></trkpt><trkpt lat="42.76245386038082" lon="-2.410736573520025"><ele>928.0</ele><time>2026-03-22T10:42:40.999Z</time></trkpt><trkpt lat="42.762619765372634" lon="-2.410655307495566"><ele>928.0</ele><time>2026-03-22T10:42:41.999Z</time></trkpt><trkpt lat="42.76277601550789" lon="-2.4105780674421884"><ele>927.75</ele><time>2026-03-22T10:42:42.999Z</time></trkpt><trkpt lat="42.7629228078838" lon="-2.4105144475226576"><ele>927.5</ele><time>2026-03-22T10:42:43.999Z</time></trkpt><trkpt lat="42.7630559672837" lon="-2.410469523834255"><ele>927.25</ele><time>2026-03-22T10:42:44.999Z</time></trkpt><trkpt lat="42.76319140149857" lon="-2.410442633940929"><ele>927.0</ele><time>2026-03-22T10:42:45.999Z</time></trkpt><trkpt lat="42.76333680647735" lon="-2.4104241344492494"><ele>927.0</ele><time>2026-03-22T10:42:46.999Z</time></trkpt><trkpt lat="42.76349167368498" lon="-2.4103771185521183"><ele>927.0</ele><time>2026-03-22T10:42:47.999Z</time></trkpt><trkpt lat="42.76365701059691" lon="-2.4103538594992044"><ele>927.0</ele><time>2026-03-22T10:42:48.999Z</time></trkpt><trkpt lat="42.76384440610797" lon="-2.4103550999843972"><ele>925.3333333333333</ele><time>2026-03-22T10:42:49.999Z</time></trkpt><trkpt lat="42.76404175635094" lon="-2.4103314094872137"><ele>923.6666666666666</ele><time>2026-03-22T10:42:50.999Z</time></trkpt><trkpt lat="42.764241391034005" lon="-2.4102862858161282"><ele>922.0</ele><time>2026-03-22T10:42:51.999Z</time></trkpt><trkpt lat="42.76444276662141" lon="-2.4102613499353156"><ele>921.6666666666666</ele><time>2026-03-22T10:42:52.999Z</time></trkpt><trkpt lat="42.764647816875694" lon="-2.410235959032098"><ele>921.3333333333333</ele><time>2026-03-22T10:42:53.999Z</time></trkpt><trkpt lat="42.76485781909172" lon="-2.4102096426804223"><ele>921.0</ele><time>2026-03-22T10:42:54.999Z</time></trkpt><trkpt lat="42.765073390029194" lon="-2.410180666961345"><ele>920.6666666666667</ele><time>2026-03-22T10:42:55.999Z</time></trkpt><trkpt lat="42.765295312666545" lon="-2.4101681194179116"><ele>920.3333333333334</ele><time>2026-03-22T10:42:56.999Z</time></trkpt><trkpt lat="42.76551452139659" lon="-2.410115725477932"><ele>920.0</ele><time>2026-03-22T10:42:57.999Z</time></trkpt><trkpt lat="42.76572968252038" lon="-2.4100878740892475"><ele>920.0</ele><time>2026-03-22T10:42:58.999Z</time></trkpt><trkpt lat="42.76592968451751" lon="-2.41006274371875"><ele>920.0</ele><time>2026-03-22T10:42:59.999Z</time></trkpt><trkpt lat="42.76612261920136" lon="-2.4100385013873327"><ele>920.0</ele><time>2026-03-22T10:43:00.999Z</time></trkpt><trkpt lat="42.76630522909361" lon="-2.4100159573378916"><ele>920.0</ele><time>2026-03-22T10:43:01.999Z</time></trkpt><trkpt lat="42.766465818305164" lon="-2.4099936987469786"><ele>920.0</ele><time>2026-03-22T10:43:02.999Z</time></trkpt><trkpt lat="42.766690833812184" lon="-2.409924051743874"><ele>920.0</ele><time>2026-03-22T10:43:04.999Z</time></trkpt><trkpt lat="42.76675679984557" lon="-2.4098238121668123"><ele>920.0</ele><time>2026-03-22T10:43:05.999Z</time></trkpt><trkpt lat="42.76680451619027" lon="-2.409724788332061"><ele>920.0</ele><time>2026-03-22T10:43:06.999Z</time></trkpt><trkpt lat="42.76686578537395" lon="-2.409619384279823"><ele>920.0</ele><time>2026-03-22T10:43:07.999Z</time></trkpt><trkpt lat="42.76688903370424" lon="-2.4094831276733952"><ele>920.0</ele><time>2026-03-22T10:43:08.999Z</time></trkpt><trkpt lat="42.76692196165964" lon="-2.4093352842320934"><ele>920.0</ele><time>2026-03-22T10:43:09.999Z</time></trkpt><trkpt lat="42.76697711046856" lon="-2.409172339805428"><ele>919.3333333333334</ele><time>2026-03-22T10:43:10.999Z</time></trkpt><trkpt lat="42.76704531972685" lon="-2.4089837391260716"><ele>918.6666666666667</ele><time>2026-03-22T10:43:11.999Z</time></trkpt><trkpt lat="42.767117928123724" lon="-2.4087740778404183"><ele>918.0</ele><time>2026-03-22T10:43:12.999Z</time></trkpt><trkpt lat="42.76719454183166" lon="-2.4085450734849383"><ele>919.6666666666667</ele><time>2026-03-22T10:43:13.999Z</time></trkpt><trkpt lat="42.76726674513338" lon="-2.4083222213588154"><ele>921.3333333333334</ele><time>2026-03-22T10:43:14.999Z</time></trkpt><trkpt lat="42.7673369599155" lon="-2.408088875285816"><ele>923.0</ele><time>2026-03-22T10:43:15.999Z</time></trkpt><trkpt lat="42.767399969534715" lon="-2.4078387296279016"><ele>924.3333333333334</ele><time>2026-03-22T10:43:16.999Z</time></trkpt><trkpt lat="42.76744773194414" lon="-2.4075653144290077"><ele>925.6666666666667</ele><time>2026-03-22T10:43:17.999Z</time></trkpt><trkpt lat="42.76748291665443" lon="-2.407289807835104"><ele>927.0</ele><time>2026-03-22T10:43:18.999Z</time></trkpt><trkpt lat="42.7675267429339" lon="-2.4070074767011556"><ele>929.6666666666667</ele><time>2026-03-22T10:43:19.999Z</time></trkpt><trkpt lat="42.76757142740026" lon="-2.406731074280591"><ele>932.3333333333334</ele><time>2026-03-22T10:43:20.999Z</time></trkpt><trkpt lat="42.76762158799233" lon="-2.4064540999411075"><ele>935.0</ele><time>2026-03-22T10:43:21.999Z</time></trkpt><trkpt lat="42.76767017276577" lon="-2.406194064666721"><ele>932.0</ele><time>2026-03-22T10:43:22.999Z</time></trkpt><trkpt lat="42.76770721802024" lon="-2.405941912935296"><ele>929.0</ele><time>2026-03-22T10:43:23.999Z</time></trkpt><trkpt lat="42.767719090821416" lon="-2.405686417961796"><ele>926.0</ele><time>2026-03-22T10:43:24.999Z</time></trkpt><trkpt lat="42.767709030099915" lon="-2.4054256190646224"><ele>930.6666666666667</ele><time>2026-03-22T10:43:25.999Z</time></trkpt><trkpt lat="42.76768604050541" lon="-2.405164093421845"><ele>935.3333333333333</ele><time>2026-03-22T10:43:26.999Z</time></trkpt><trkpt lat="42.7676702218741" lon="-2.4049022519302077"><ele>940.0</ele><time>2026-03-22T10:43:27.999Z</time></trkpt><trkpt lat="42.76766155291454" lon="-2.4046464274766453"><ele>941.6666666666666</ele><time>2026-03-22T10:43:28.999Z</time></trkpt><trkpt lat="42.767647953201696" lon="-2.404406864921877"><ele>943.3333333333333</ele><time>2026-03-22T10:43:29.999Z</time></trkpt><trkpt lat="42.767640477875716" lon="-2.404190438948237"><ele>945.0</ele><time>2026-03-22T10:43:30.999Z</time></trkpt><trkpt lat="42.767640653776226" lon="-2.4040016481233937"><ele>945.0</ele><time>2026-03-22T10:43:31.999Z</time></trkpt><trkpt lat="42.76764718545876" lon="-2.4038477760501444"><ele>945.0</ele><time>2026-03-22T10:43:32.999Z</time></trkpt><trkpt lat="42.7676785698521" lon="-2.4037151194272246"><ele>945.0</ele><time>2026-03-22T10:43:33.998Z</time></trkpt><trkpt lat="42.76774431559907" lon="-2.4035910455564404"><ele>945.0</ele><time>2026-03-22T10:43:34.998Z</time></trkpt><trkpt lat="42.76784050759698" lon="-2.4034761060477536"><ele>943.25</ele><time>2026-03-22T10:43:35.998Z</time></trkpt><trkpt lat="42.76795266848302" lon="-2.403365892488051"><ele>941.5</ele><time>2026-03-22T10:43:37Z</time></trkpt><trkpt lat="42.768057892942046" lon="-2.4032493625632148"><ele>939.75</ele><time>2026-03-22T10:43:38Z</time></trkpt><trkpt lat="42.76816379548654" lon="-2.403127424293284"><ele>938.0</ele><time>2026-03-22T10:43:39Z</time></trkpt><trkpt lat="42.768253687749485" lon="-2.403004196170037"><ele>939.25</ele><time>2026-03-22T10:43:40Z</time></trkpt><trkpt lat="42.768323004268574" lon="-2.4028703962989755"><ele>940.5</ele><time>2026-03-22T10:43:41Z</time></trkpt><trkpt lat="42.768356781221755" lon="-2.402709147026302"><ele>941.75</ele><time>2026-03-22T10:43:42Z</time></trkpt><trkpt lat="42.76835507415342" lon="-2.4025300802176783"><ele>943.0</ele><time>2026-03-22T10:43:43Z</time></trkpt><trkpt lat="42.768377181769885" lon="-2.402367370997355"><ele>943.0</ele><time>2026-03-22T10:43:44Z</time></trkpt><trkpt lat="42.76838193567851" lon="-2.402230105627766"><ele>943.0</ele><time>2026-03-22T10:43:45Z</time></trkpt><trkpt lat="42.76841454696775" lon="-2.4021192845090233"><ele>943.0</ele><time>2026-03-22T10:43:46Z</time></trkpt><trkpt lat="42.7684924036259" lon="-2.4020449670147106"><ele>943.0</ele><time>2026-03-22T10:43:47Z</time></trkpt><trkpt lat="42.76859868667318" lon="-2.401986246379557"><ele>943.0</ele><time>2026-03-22T10:43:48Z</time></trkpt><trkpt lat="42.76872607969842" lon="-2.4019468500031134"><ele>943.5</ele><time>2026-03-22T10:43:49Z</time></trkpt><trkpt lat="42.76885638036407" lon="-2.401887874791319"><ele>944.0</ele><time>2026-03-22T10:43:50Z</time></trkpt><trkpt lat="42.76896291126914" lon="-2.40176555982988"><ele>944.5</ele><time>2026-03-22T10:43:51Z</time></trkpt><trkpt lat="42.76906376897564" lon="-2.4016269013008245"><ele>945.0</ele><time>2026-03-22T10:43:52Z</time></trkpt><trkpt lat="42.76915065456161" lon="-2.401459633176072"><ele>947.6666666666667</ele><time>2026-03-22T10:43:53Z</time></trkpt><trkpt lat="42.76923600844126" lon="-2.401299102195393"><ele>950.3333333333334</ele><time>2026-03-22T10:43:54Z</time></trkpt><trkpt lat="42.76934398406027" lon="-2.4011292832312825"><ele>953.0</ele><time>2026-03-22T10:43:55Z</time></trkpt><trkpt lat="42.76943712643934" lon="-2.400950043290686"><ele>953.3333333333334</ele><time>2026-03-22T10:43:56Z</time></trkpt><trkpt lat="42.76953405341495" lon="-2.4007676477813558"><ele>953.6666666666667</ele><time>2026-03-22T10:43:57Z</time></trkpt><trkpt lat="42.76963337895729" lon="-2.4005887249388578"><ele>954.0</ele><time>2026-03-22T10:43:58Z</time></trkpt><trkpt lat="42.76973245774791" lon="-2.4004178678962416"><ele>955.3333333333333</ele><time>2026-03-22T10:43:59Z</time></trkpt><trkpt lat="42.769833542309996" lon="-2.4002552445036467"><ele>956.6666666666666</ele><time>2026-03-22T10:44:00Z</time></trkpt><trkpt lat="42.76994994114693" lon="-2.4001090643016063"><ele>958.0</ele><time>2026-03-22T10:44:01Z</time></trkpt><trkpt lat="42.77006597888195" lon="-2.3999763749384098"><ele>958.0</ele><time>2026-03-22T10:44:02Z</time></trkpt><trkpt lat="42.770170547340726" lon="-2.3998656046809486"><ele>958.0</ele><time>2026-03-22T10:44:03Z</time></trkpt><trkpt lat="42.770239580090234" lon="-2.3997331538241764"><ele>958.0</ele><time>2026-03-22T10:44:04Z</time></trkpt><trkpt lat="42.770237876990514" lon="-2.399585995394756"><ele>958.0</ele><time>2026-03-22T10:44:05Z</time></trkpt><trkpt lat="42.77022526593752" lon="-2.399445202393704"><ele>959.25</ele><time>2026-03-22T10:44:06Z</time></trkpt><trkpt lat="42.770219926494626" lon="-2.399285728339823"><ele>960.5</ele><time>2026-03-22T10:44:07Z</time></trkpt><trkpt lat="42.77021634213444" lon="-2.399115251047397"><ele>961.75</ele><time>2026-03-22T10:44:08Z</time></trkpt><trkpt lat="42.77021241715847" lon="-2.398930677969467"><ele>963.0</ele><time>2026-03-22T10:44:09Z</time></trkpt><trkpt lat="42.770212681488466" lon="-2.398742024715463"><ele>963.6666666666667</ele><time>2026-03-22T10:44:10Z</time></trkpt><trkpt lat="42.770221056691845" lon="-2.398542852871057"><ele>964.3333333333334</ele><time>2026-03-22T10:44:11Z</time></trkpt><trkpt lat="42.77024577084061" lon="-2.3983377952914444"><ele>965.0</ele><time>2026-03-22T10:44:12Z</time></trkpt><trkpt lat="42.77028171579216" lon="-2.3981314099800066"><ele>966.0</ele><time>2026-03-22T10:44:13Z</time></trkpt><trkpt lat="42.7703358083697" lon="-2.3979125836203106"><ele>967.0</ele><time>2026-03-22T10:44:14Z</time></trkpt><trkpt lat="42.77039770245324" lon="-2.3976917294716493"><ele>968.0</ele><time>2026-03-22T10:44:15Z</time></trkpt><trkpt lat="42.77043193524458" lon="-2.3974696259919868"><ele>968.0</ele><time>2026-03-22T10:44:16Z</time></trkpt><trkpt lat="42.770493180836546" lon="-2.3972899166133446"><ele>968.0</ele><time>2026-03-22T10:44:17Z</time></trkpt><trkpt lat="42.77054345453431" lon="-2.3971317354358725"><ele>968.0</ele><time>2026-03-22T10:44:18Z</time></trkpt><trkpt lat="42.770620106525016" lon="-2.3969942734940477"><ele>968.0</ele><time>2026-03-22T10:44:19Z</time></trkpt><trkpt lat="42.77072684215065" lon="-2.3968633703318867"><ele>969.3333333333334</ele><time>2026-03-22T10:44:20Z</time></trkpt><trkpt lat="42.77084841275975" lon="-2.396743934302768"><ele>970.6666666666667</ele><time>2026-03-22T10:44:21Z</time></trkpt><trkpt lat="42.77099050880119" lon="-2.3966228571088957"><ele>972.0</ele><time>2026-03-22T10:44:22Z</time></trkpt><trkpt lat="42.77112619201952" lon="-2.396482755896819"><ele>973.3333333333333</ele><time>2026-03-22T10:44:23Z</time></trkpt><trkpt lat="42.77127488610651" lon="-2.3963311394609708"><ele>974.6666666666666</ele><time>2026-03-22T10:44:24Z</time></trkpt><trkpt lat="42.77142281782744" lon="-2.396172465160159"><ele>976.0</ele><time>2026-03-22T10:44:25Z</time></trkpt><trkpt lat="42.77157579903237" lon="-2.3960045802187615"><ele>976.0</ele><time>2026-03-22T10:44:26Z</time></trkpt><trkpt lat="42.77172377089728" lon="-2.395844967369872"><ele>976.0</ele><time>2026-03-22T10:44:27Z</time></trkpt><trkpt lat="42.771869540703165" lon="-2.395687846712798"><ele>976.0</ele><time>2026-03-22T10:44:28Z</time></trkpt><trkpt lat="42.77200552716879" lon="-2.3955500237380405"><ele>977.0</ele><time>2026-03-22T10:44:28.999Z</time></trkpt><trkpt lat="42.772133700863684" lon="-2.3954160655431944"><ele>978.0</ele><time>2026-03-22T10:44:29.999Z</time></trkpt><trkpt lat="42.772243333693616" lon="-2.3952299045650114"><ele>979.0</ele><time>2026-03-22T10:44:30.999Z</time></trkpt><trkpt lat="42.772357168769986" lon="-2.3950649118078418"><ele>979.0</ele><time>2026-03-22T10:44:31.999Z</time></trkpt><trkpt lat="42.77248095837324" lon="-2.3948844513074103"><ele>979.0</ele><time>2026-03-22T10:44:32.999Z</time></trkpt><trkpt lat="42.772611415795176" lon="-2.3946937382234155"><ele>979.0</ele><time>2026-03-22T10:44:33.999Z</time></trkpt><trkpt lat="42.772747128172334" lon="-2.394494827617758"><ele>978.0</ele><time>2026-03-22T10:44:34.999Z</time></trkpt><trkpt lat="42.77287171127982" lon="-2.394307489717342"><ele>977.0</ele><time>2026-03-22T10:44:35.999Z</time></trkpt><trkpt lat="42.77300079193933" lon="-2.394106914579438"><ele>976.0</ele><time>2026-03-22T10:44:36.999Z</time></trkpt><trkpt lat="42.773135358633475" lon="-2.3938962475801118"><ele>976.0</ele><time>2026-03-22T10:44:37.999Z</time></trkpt><trkpt lat="42.77327472986997" lon="-2.3936808880481775"><ele>976.0</ele><time>2026-03-22T10:44:38.999Z</time></trkpt><trkpt lat="42.77341726783002" lon="-2.3934607382450626"><ele>976.0</ele><time>2026-03-22T10:44:39.999Z</time></trkpt><trkpt lat="42.773558903052866" lon="-2.3932418097505956"><ele>975.6666666666666</ele><time>2026-03-22T10:44:40.999Z</time></trkpt><trkpt lat="42.773701435883275" lon="-2.3930208119814345"><ele>975.3333333333333</ele><time>2026-03-22T10:44:41.999Z</time></trkpt><trkpt lat="42.773845715409294" lon="-2.3928034298892964"><ele>975.0</ele><time>2026-03-22T10:44:42.999Z</time></trkpt><trkpt lat="42.77398779332174" lon="-2.3925848966556043"><ele>975.0</ele><time>2026-03-22T10:44:43.999Z</time></trkpt><trkpt lat="42.77412882753256" lon="-2.392365987604397"><ele>975.0</ele><time>2026-03-22T10:44:44.999Z</time></trkpt><trkpt lat="42.77426545415019" lon="-2.3921551255552287"><ele>975.0</ele><time>2026-03-22T10:44:45.999Z</time></trkpt><trkpt lat="42.77439773189855" lon="-2.3919528142930306"><ele>975.0</ele><time>2026-03-22T10:44:46.999Z</time></trkpt><trkpt lat="42.77452400790314" lon="-2.39176175873889"><ele>975.0</ele><time>2026-03-22T10:44:47.999Z</time></trkpt><trkpt lat="42.77464535652977" lon="-2.3915740922789324"><ele>975.0</ele><time>2026-03-22T10:44:48.999Z</time></trkpt><trkpt lat="42.774757187181514" lon="-2.391396148295041"><ele>975.0</ele><time>2026-03-22T10:44:49.999Z</time></trkpt><trkpt lat="42.774863746043515" lon="-2.3912380064850076"><ele>975.0</ele><time>2026-03-22T10:44:50.999Z</time></trkpt><trkpt lat="42.77496753649937" lon="-2.39109704968773"><ele>975.0</ele><time>2026-03-22T10:44:51.999Z</time></trkpt><trkpt lat="42.7750844332981" lon="-2.39094541734922"><ele>974.6666666666667</ele><time>2026-03-22T10:44:52.999Z</time></trkpt><trkpt lat="42.77521459824323" lon="-2.390790105925093"><ele>974.3333333333334</ele><time>2026-03-22T10:44:53.999Z</time></trkpt><trkpt lat="42.77535208684217" lon="-2.3906320340986458"><ele>974.0</ele><time>2026-03-22T10:44:54.999Z</time></trkpt><trkpt lat="42.77549039066127" lon="-2.3904774685756354"><ele>974.0</ele><time>2026-03-22T10:44:55.999Z</time></trkpt><trkpt lat="42.77561881123393" lon="-2.3903326325597645"><ele>974.0</ele><time>2026-03-22T10:44:56.999Z</time></trkpt><trkpt lat="42.77573452136255" lon="-2.3901988661509064"><ele>974.0</ele><time>2026-03-22T10:44:57.999Z</time></trkpt><trkpt lat="42.77584687965188" lon="-2.3900689742952954"><ele>974.0</ele><time>2026-03-22T10:44:58.999Z</time></trkpt><trkpt lat="42.77595243269448" lon="-2.3899776892177647"><ele>974.0</ele><time>2026-03-22T10:44:59.999Z</time></trkpt><trkpt lat="42.77603702463834" lon="-2.389875168835497"><ele>974.0</ele><time>2026-03-22T10:45:00.999Z</time></trkpt><trkpt lat="42.776157464188195" lon="-2.3898426847071654"><ele>974.0</ele><time>2026-03-22T10:45:01.999Z</time></trkpt><trkpt lat="42.77629045362268" lon="-2.3898155322839543"><ele>972.5</ele><time>2026-03-22T10:45:02.999Z</time></trkpt><trkpt lat="42.77643493143066" lon="-2.3898134857128936"><ele>971.0</ele><time>2026-03-22T10:45:03.999Z</time></trkpt><trkpt lat="42.77657581627645" lon="-2.3898240398263018"><ele>969.5</ele><time>2026-03-22T10:45:04.999Z</time></trkpt><trkpt lat="42.77671330700375" lon="-2.389820616223588"><ele>968.0</ele><time>2026-03-22T10:45:05.999Z</time></trkpt><trkpt lat="42.7768386834818" lon="-2.389780595231421"><ele>964.5</ele><time>2026-03-22T10:45:06.999Z</time></trkpt><trkpt lat="42.776952679587275" lon="-2.389729118456546"><ele>961.0</ele><time>2026-03-22T10:45:07.999Z</time></trkpt><trkpt lat="42.77705391269779" lon="-2.3896323436393634"><ele>957.5</ele><time>2026-03-22T10:45:08.999Z</time></trkpt><trkpt lat="42.77715275667012" lon="-2.3895107635045103"><ele>954.0</ele><time>2026-03-22T10:45:09.999Z</time></trkpt><trkpt lat="42.77726635249349" lon="-2.3893887267829954"><ele>954.0</ele><time>2026-03-22T10:45:10.999Z</time></trkpt><trkpt lat="42.77736070778365" lon="-2.3892455529235566"><ele>954.0</ele><time>2026-03-22T10:45:11.999Z</time></trkpt><trkpt lat="42.7774449825221" lon="-2.38910050645481"><ele>954.0</ele><time>2026-03-22T10:45:12.999Z</time></trkpt><trkpt lat="42.77750562681133" lon="-2.388950772707755"><ele>954.0</ele><time>2026-03-22T10:45:13.999Z</time></trkpt><trkpt lat="42.77751671307432" lon="-2.388775167141485"><ele>954.0</ele><time>2026-03-22T10:45:14.999Z</time></trkpt><trkpt lat="42.777520149130915" lon="-2.3885979297494844"><ele>954.0</ele><time>2026-03-22T10:45:15.999Z</time></trkpt><trkpt lat="42.7775012812088" lon="-2.3884211968008167"><ele>954.0</ele><time>2026-03-22T10:45:16.999Z</time></trkpt><trkpt lat="42.77748677184816" lon="-2.3882322437701182"><ele>954.0</ele><time>2026-03-22T10:45:17.999Z</time></trkpt><trkpt lat="42.777451178896115" lon="-2.388043059196078"><ele>953.0</ele><time>2026-03-22T10:45:18.999Z</time></trkpt><trkpt lat="42.77741886930133" lon="-2.387850305991921"><ele>952.0</ele><time>2026-03-22T10:45:19.999Z</time></trkpt><trkpt lat="42.77738582519374" lon="-2.387655378943113"><ele>951.0</ele><time>2026-03-22T10:45:20.999Z</time></trkpt><trkpt lat="42.777353128022305" lon="-2.387453975343176"><ele>950.0</ele><time>2026-03-22T10:45:21.999Z</time></trkpt><trkpt lat="42.777307017108626" lon="-2.387258059941409"><ele>947.3333333333334</ele><time>2026-03-22T10:45:22.999Z</time></trkpt><trkpt lat="42.777245988994395" lon="-2.387062172563306"><ele>944.6666666666667</ele><time>2026-03-22T10:45:23.999Z</time></trkpt><trkpt lat="42.77718134646909" lon="-2.3868686935747956"><ele>942.0</ele><time>2026-03-22T10:45:24.999Z</time></trkpt><trkpt lat="42.7771122399689" lon="-2.3866773346451784"><ele>942.0</ele><time>2026-03-22T10:45:25.999Z</time></trkpt><trkpt lat="42.77703482435406" lon="-2.3864943018940914"><ele>942.0</ele><time>2026-03-22T10:45:26.999Z</time></trkpt><trkpt lat="42.77694774982148" lon="-2.386319378582864"><ele>942.0</ele><time>2026-03-22T10:45:27.999Z</time></trkpt><trkpt lat="42.77684265567653" lon="-2.386154358290342"><ele>944.6666666666667</ele><time>2026-03-22T10:45:28.999Z</time></trkpt><trkpt lat="42.77674013806413" lon="-2.3859918990141624"><ele>947.3333333333334</ele><time>2026-03-22T10:45:29.999Z</time></trkpt><trkpt lat="42.77664279708013" lon="-2.385823186542772"><ele>950.0</ele><time>2026-03-22T10:45:30.999Z</time></trkpt><trkpt lat="42.7765638734065" lon="-2.3856408786070493"><ele>947.0</ele><time>2026-03-22T10:45:31.999Z</time></trkpt><trkpt lat="42.7765077934234" lon="-2.385436383599806"><ele>944.0</ele><time>2026-03-22T10:45:32.999Z</time></trkpt><trkpt lat="42.776474697155074" lon="-2.3852122811162437"><ele>941.0</ele><time>2026-03-22T10:45:33.999Z</time></trkpt><trkpt lat="42.77645432098231" lon="-2.3849858161566697"><ele>941.0</ele><time>2026-03-22T10:45:34.999Z</time></trkpt><trkpt lat="42.776433310976266" lon="-2.384760824387095"><ele>941.0</ele><time>2026-03-22T10:45:35.999Z</time></trkpt><trkpt lat="42.776391799839736" lon="-2.3845453839961364"><ele>941.0</ele><time>2026-03-22T10:45:36.999Z</time></trkpt><trkpt lat="42.77638606408399" lon="-2.3843288258523976"><ele>940.6666666666667</ele><time>2026-03-22T10:45:37.999Z</time></trkpt><trkpt lat="42.776384534061044" lon="-2.384129417351345"><ele>940.3333333333333</ele><time>2026-03-22T10:45:38.998Z</time></trkpt><trkpt lat="42.77642500967899" lon="-2.383933042770482"><ele>940.0</ele><time>2026-03-22T10:45:39.998Z</time></trkpt><trkpt lat="42.7764745312284" lon="-2.3837199113830563"><ele>938.0</ele><time>2026-03-22T10:45:40.998Z</time></trkpt><trkpt lat="42.77651489412082" lon="-2.3835076415101715"><ele>936.0</ele><time>2026-03-22T10:45:41.998Z</time></trkpt><trkpt lat="42.776554063268" lon="-2.383281763730626"><ele>934.0</ele><time>2026-03-22T10:45:43Z</time></trkpt><trkpt lat="42.776560153334394" lon="-2.3830538168442112"><ele>934.3333333333333</ele><time>2026-03-22T10:45:44Z</time></trkpt><trkpt lat="42.77655382191223" lon="-2.3828308816120134"><ele>934.6666666666667</ele><time>2026-03-22T10:45:45Z</time></trkpt><trkpt lat="42.776539574135015" lon="-2.3826043738347265"><ele>935.0</ele><time>2026-03-22T10:45:46Z</time></trkpt><trkpt lat="42.77654080220862" lon="-2.382404280660728"><ele>935.0</ele><time>2026-03-22T10:45:47Z</time></trkpt><trkpt lat="42.776516025265266" lon="-2.3822438444068843"><ele>935.0</ele><time>2026-03-22T10:45:48Z</time></trkpt><trkpt lat="42.77651239986853" lon="-2.3821085644847892"><ele>935.0</ele><time>2026-03-22T10:45:49Z</time></trkpt><trkpt lat="42.77651926252331" lon="-2.3819858154561566"><ele>935.0</ele><time>2026-03-22T10:45:50Z</time></trkpt><trkpt lat="42.7765447515563" lon="-2.381891020238119"><ele>935.0</ele><time>2026-03-22T10:45:51Z</time></trkpt><trkpt lat="42.77661274549793" lon="-2.3818172263878443"><ele>934.75</ele><time>2026-03-22T10:45:52Z</time></trkpt><trkpt lat="42.77670555245002" lon="-2.381774073994855"><ele>934.5</ele><time>2026-03-22T10:45:53Z</time></trkpt><trkpt lat="42.776812806354684" lon="-2.3817907971071426"><ele>934.25</ele><time>2026-03-22T10:45:54Z</time></trkpt><trkpt lat="42.77692389097994" lon="-2.3818527317277574"><ele>934.0</ele><time>2026-03-22T10:45:55Z</time></trkpt><trkpt lat="42.77705129729311" lon="-2.3819025659295403"><ele>935.6666666666666</ele><time>2026-03-22T10:45:56Z</time></trkpt><trkpt lat="42.77719154073079" lon="-2.3819643364887924"><ele>937.3333333333333</ele><time>2026-03-22T10:45:57Z</time></trkpt><trkpt lat="42.77733667567534" lon="-2.3820430565011854"><ele>939.0</ele><time>2026-03-22T10:45:58Z</time></trkpt><trkpt lat="42.77749265247103" lon="-2.382067345529959"><ele>939.0</ele><time>2026-03-22T10:45:59Z</time></trkpt><trkpt lat="42.777652566801905" lon="-2.382099742927024"><ele>939.0</ele><time>2026-03-22T10:46:00Z</time></trkpt><trkpt lat="42.777823959920525" lon="-2.382146773082733"><ele>939.0</ele><time>2026-03-22T10:46:01Z</time></trkpt><trkpt lat="42.77799735916384" lon="-2.3821789204194004"><ele>939.5</ele><time>2026-03-22T10:46:02Z</time></trkpt><trkpt lat="42.77816129467911" lon="-2.3822137733638526"><ele>940.0</ele><time>2026-03-22T10:46:03Z</time></trkpt><trkpt lat="42.77830543713315" lon="-2.382245992594406"><ele>940.5</ele><time>2026-03-22T10:46:04Z</time></trkpt><trkpt lat="42.77843024332243" lon="-2.3822461445220178"><ele>941.0</ele><time>2026-03-22T10:46:05Z</time></trkpt><trkpt lat="42.77853517579082" lon="-2.3822427486568296"><ele>942.1999999999999</ele><time>2026-03-22T10:46:06Z</time></trkpt><trkpt lat="42.778632292691036" lon="-2.3822082278240373"><ele>943.3999999999999</ele><time>2026-03-22T10:46:07Z</time></trkpt><trkpt lat="42.77872144413545" lon="-2.382140994967438"><ele>944.6</ele><time>2026-03-22T10:46:08Z</time></trkpt><trkpt lat="42.7787857764911" lon="-2.3820582671226025"><ele>945.8</ele><time>2026-03-22T10:46:09Z</time></trkpt><trkpt lat="42.77884202823215" lon="-2.381979886504734"><ele>947.0</ele><time>2026-03-22T10:46:10Z</time></trkpt><trkpt lat="42.77891728755776" lon="-2.3817972359682367"><ele>947.0000000000001</ele><time>2026-03-22T10:46:12Z</time></trkpt><trkpt lat="42.77893167217017" lon="-2.38168321339184"><ele>947.0</ele><time>2026-03-22T10:46:13Z</time></trkpt><trkpt lat="42.77894658430197" lon="-2.3815735194508143"><ele>947.0</ele><time>2026-03-22T10:46:14Z</time></trkpt><trkpt lat="42.778971168788985" lon="-2.381484528621045"><ele>947.0</ele><time>2026-03-22T10:46:15Z</time></trkpt><trkpt lat="42.77897844822177" lon="-2.3813981466591465"><ele>947.0000000000001</ele><time>2026-03-22T10:46:16Z</time></trkpt><trkpt lat="42.77899013432036" lon="-2.381293690452723"><ele>947.0</ele><time>2026-03-22T10:46:17Z</time></trkpt><trkpt lat="42.77900729883097" lon="-2.3811576252838984"><ele>946.75</ele><time>2026-03-22T10:46:18Z</time></trkpt><trkpt lat="42.77900834687437" lon="-2.380992036007891"><ele>946.5</ele><time>2026-03-22T10:46:19Z</time></trkpt><trkpt lat="42.7790269771696" lon="-2.380803727318026"><ele>946.25</ele><time>2026-03-22T10:46:20Z</time></trkpt><trkpt lat="42.779048009384724" lon="-2.3805911410631406"><ele>946.0</ele><time>2026-03-22T10:46:21Z</time></trkpt><trkpt lat="42.77907118382499" lon="-2.3803609085980657"><ele>946.6666666666666</ele><time>2026-03-22T10:46:22Z</time></trkpt><trkpt lat="42.77909656832943" lon="-2.380111074537313"><ele>947.3333333333333</ele><time>2026-03-22T10:46:23Z</time></trkpt><trkpt lat="42.77912111696769" lon="-2.3798535559445084"><ele>948.0</ele><time>2026-03-22T10:46:24Z</time></trkpt><trkpt lat="42.77914721834458" lon="-2.379574604000922"><ele>949.6666666666667</ele><time>2026-03-22T10:46:25Z</time></trkpt><trkpt lat="42.77917635110751" lon="-2.37929217951788"><ele>951.3333333333334</ele><time>2026-03-22T10:46:26Z</time></trkpt><trkpt lat="42.779204663209654" lon="-2.3790239337190493"><ele>953.0</ele><time>2026-03-22T10:46:27Z</time></trkpt><trkpt lat="42.779233577369396" lon="-2.3787783823370114"><ele>953.0</ele><time>2026-03-22T10:46:28Z</time></trkpt><trkpt lat="42.77929182360232" lon="-2.3785704098524905"><ele>953.0</ele><time>2026-03-22T10:46:29Z</time></trkpt><trkpt lat="42.77935552684437" lon="-2.3783814637000336"><ele>953.0</ele><time>2026-03-22T10:46:30Z</time></trkpt><trkpt lat="42.77942267169221" lon="-2.378162050648337"><ele>954.0</ele><time>2026-03-22T10:46:31Z</time></trkpt><trkpt lat="42.77951353859243" lon="-2.3779401357784753"><ele>955.0</ele><time>2026-03-22T10:46:32Z</time></trkpt><trkpt lat="42.77960908592248" lon="-2.377706790421603"><ele>956.0</ele><time>2026-03-22T10:46:33Z</time></trkpt><trkpt lat="42.77970671999994" lon="-2.3774595374182064"><ele>956.0</ele><time>2026-03-22T10:46:34Z</time></trkpt><trkpt lat="42.779809097257775" lon="-2.3771993664159305"><ele>956.0</ele><time>2026-03-22T10:46:35Z</time></trkpt><trkpt lat="42.77991286951409" lon="-2.376936579571179"><ele>956.0</ele><time>2026-03-22T10:46:35.999Z</time></trkpt><trkpt lat="42.78000500060913" lon="-2.3766687300996137"><ele>956.3333333333334</ele><time>2026-03-22T10:46:36.999Z</time></trkpt><trkpt lat="42.78006951350007" lon="-2.376393903653184"><ele>956.6666666666667</ele><time>2026-03-22T10:46:37.999Z</time></trkpt><trkpt lat="42.78012828897956" lon="-2.3761080731287025"><ele>957.0</ele><time>2026-03-22T10:46:38.999Z</time></trkpt><trkpt lat="42.78018850535234" lon="-2.375823487520973"><ele>959.5</ele><time>2026-03-22T10:46:39.999Z</time></trkpt><trkpt lat="42.78025496082378" lon="-2.3755139876993288"><ele>962.0</ele><time>2026-03-22T10:46:40.999Z</time></trkpt><trkpt lat="42.78031942237129" lon="-2.375213773083402"><ele>962.0</ele><time>2026-03-22T10:46:41.999Z</time></trkpt><trkpt lat="42.78038408562891" lon="-2.374912620279717"><ele>962.0</ele><time>2026-03-22T10:46:42.999Z</time></trkpt><trkpt lat="42.780447763155166" lon="-2.3746160578827924"><ele>962.3333333333334</ele><time>2026-03-22T10:46:43.999Z</time></trkpt><trkpt lat="42.78051020590347" lon="-2.37432524584817"><ele>962.6666666666667</ele><time>2026-03-22T10:46:44.999Z</time></trkpt><trkpt lat="42.78057020037504" lon="-2.374043855427091"><ele>963.0</ele><time>2026-03-22T10:46:45.999Z</time></trkpt><trkpt lat="42.780629431858785" lon="-2.3737646460982704"><ele>963.0</ele><time>2026-03-22T10:46:46.999Z</time></trkpt><trkpt lat="42.78068632149807" lon="-2.373496476057643"><ele>963.0</ele><time>2026-03-22T10:46:47.999Z</time></trkpt><trkpt lat="42.78074290521048" lon="-2.373229748059813"><ele>963.0</ele><time>2026-03-22T10:46:48.999Z</time></trkpt><trkpt lat="42.780797231077266" lon="-2.3729746461340615"><ele>963.0</ele><time>2026-03-22T10:46:49.999Z</time></trkpt><trkpt lat="42.78085048958325" lon="-2.3727223448583112"><ele>963.0</ele><time>2026-03-22T10:46:50.999Z</time></trkpt><trkpt lat="42.78090159399528" lon="-2.372479296228678"><ele>963.0</ele><time>2026-03-22T10:46:51.999Z</time></trkpt><trkpt lat="42.78095208898801" lon="-2.3722388082108483"><ele>963.0</ele><time>2026-03-22T10:46:52.999Z</time></trkpt><trkpt lat="42.78100152654526" lon="-2.372003356252006"><ele>963.0</ele><time>2026-03-22T10:46:53.999Z</time></trkpt><trkpt lat="42.78105160739714" lon="-2.371766609353052"><ele>963.0</ele><time>2026-03-22T10:46:54.999Z</time></trkpt><trkpt lat="42.78110201536101" lon="-2.371529235975984"><ele>965.3333333333333</ele><time>2026-03-22T10:46:55.999Z</time></trkpt><trkpt lat="42.78115369733955" lon="-2.3712858633922536"><ele>967.6666666666666</ele><time>2026-03-22T10:46:56.999Z</time></trkpt><trkpt lat="42.78120512448769" lon="-2.371043691063671"><ele>970.0</ele><time>2026-03-22T10:46:57.999Z</time></trkpt><trkpt lat="42.7812526388729" lon="-2.370811380536157"><ele>970.0</ele><time>2026-03-22T10:46:58.999Z</time></trkpt><trkpt lat="42.78129707801361" lon="-2.3705671526126793"><ele>970.0</ele><time>2026-03-22T10:46:59.999Z</time></trkpt><trkpt lat="42.78134004242036" lon="-2.370322531760584"><ele>970.0</ele><time>2026-03-22T10:47:00.999Z</time></trkpt><trkpt lat="42.781380653087844" lon="-2.370082190100055"><ele>970.0</ele><time>2026-03-22T10:47:01.999Z</time></trkpt><trkpt lat="42.78142176074859" lon="-2.369830287219785"><ele>970.0</ele><time>2026-03-22T10:47:02.999Z</time></trkpt><trkpt lat="42.78146214404252" lon="-2.3695775541201436"><ele>970.0</ele><time>2026-03-22T10:47:03.999Z</time></trkpt><trkpt lat="42.78150258778446" lon="-2.3693285122207643"><ele>970.0</ele><time>2026-03-22T10:47:04.999Z</time></trkpt><trkpt lat="42.781542759248396" lon="-2.3690869270394086"><ele>970.0</ele><time>2026-03-22T10:47:05.999Z</time></trkpt><trkpt lat="42.78158554082324" lon="-2.368850810244615"><ele>970.0</ele><time>2026-03-22T10:47:06.999Z</time></trkpt><trkpt lat="42.78163396674762" lon="-2.368610094338515"><ele>970.0</ele><time>2026-03-22T10:47:07.999Z</time></trkpt><trkpt lat="42.78170581130988" lon="-2.368367445803538"><ele>970.0</ele><time>2026-03-22T10:47:08.999Z</time></trkpt><trkpt lat="42.78181209207013" lon="-2.3681395387472386"><ele>970.0</ele><time>2026-03-22T10:47:09.999Z</time></trkpt><trkpt lat="42.78192146854794" lon="-2.3679131519481675"><ele>970.0</ele><time>2026-03-22T10:47:10.999Z</time></trkpt><trkpt lat="42.78202292490185" lon="-2.3676751506076896"><ele>970.0</ele><time>2026-03-22T10:47:11.999Z</time></trkpt><trkpt lat="42.782140636604964" lon="-2.3674444553137826"><ele>970.0</ele><time>2026-03-22T10:47:12.999Z</time></trkpt><trkpt lat="42.782255713835234" lon="-2.3672249519500057"><ele>969.3333333333333</ele><time>2026-03-22T10:47:13.999Z</time></trkpt><trkpt lat="42.782364474015246" lon="-2.3670174972933333"><ele>968.6666666666667</ele><time>2026-03-22T10:47:14.999Z</time></trkpt><trkpt lat="42.7824672583326" lon="-2.3668214415503863"><ele>968.0</ele><time>2026-03-22T10:47:15.999Z</time></trkpt><trkpt lat="42.78255995802711" lon="-2.3666432234712143"><ele>968.0</ele><time>2026-03-22T10:47:16.999Z</time></trkpt><trkpt lat="42.78266248254083" lon="-2.366445957732597"><ele>968.0</ele><time>2026-03-22T10:47:17.999Z</time></trkpt><trkpt lat="42.782770157615374" lon="-2.3662387817113846"><ele>968.0</ele><time>2026-03-22T10:47:18.999Z</time></trkpt><trkpt lat="42.78288209555533" lon="-2.3660232323311274"><ele>966.0</ele><time>2026-03-22T10:47:19.999Z</time></trkpt><trkpt lat="42.78299704453363" lon="-2.365801245065913"><ele>964.0</ele><time>2026-03-22T10:47:20.999Z</time></trkpt><trkpt lat="42.783117540563865" lon="-2.3655685457541464"><ele>962.0</ele><time>2026-03-22T10:47:21.999Z</time></trkpt><trkpt lat="42.78324457347281" lon="-2.3653232229710586"><ele>962.0</ele><time>2026-03-22T10:47:22.999Z</time></trkpt><trkpt lat="42.78336575029242" lon="-2.3650874946846936"><ele>962.0</ele><time>2026-03-22T10:47:23.999Z</time></trkpt><trkpt lat="42.783487552686516" lon="-2.364848114075453"><ele>962.0</ele><time>2026-03-22T10:47:24.999Z</time></trkpt><trkpt lat="42.78361043971819" lon="-2.3646066018191045"><ele>962.0</ele><time>2026-03-22T10:47:25.999Z</time></trkpt><trkpt lat="42.783733196938776" lon="-2.3643653447271675"><ele>962.0</ele><time>2026-03-22T10:47:26.999Z</time></trkpt><trkpt lat="42.78385761215925" lon="-2.3641213209329472"><ele>962.0</ele><time>2026-03-22T10:47:27.999Z</time></trkpt><trkpt lat="42.783982986391884" lon="-2.3638760457859003"><ele>962.3333333333334</ele><time>2026-03-22T10:47:28.999Z</time></trkpt><trkpt lat="42.78410898827141" lon="-2.3636295427363736"><ele>962.6666666666667</ele><time>2026-03-22T10:47:29.999Z</time></trkpt><trkpt lat="42.78423366521995" lon="-2.363385631636692"><ele>963.0</ele><time>2026-03-22T10:47:30.999Z</time></trkpt><trkpt lat="42.78436066909516" lon="-2.363138097282683"><ele>962.3333333333333</ele><time>2026-03-22T10:47:31.999Z</time></trkpt><trkpt lat="42.78448284786491" lon="-2.362900751605563"><ele>961.6666666666666</ele><time>2026-03-22T10:47:32.999Z</time></trkpt><trkpt lat="42.784594994991494" lon="-2.362682893446547"><ele>961.0</ele><time>2026-03-22T10:47:33.999Z</time></trkpt><trkpt lat="42.78469872759154" lon="-2.3624813814694794"><ele>961.0</ele><time>2026-03-22T10:47:34.999Z</time></trkpt><trkpt lat="42.78479920164464" lon="-2.3622868823878127"><ele>961.0</ele><time>2026-03-22T10:47:35.999Z</time></trkpt><trkpt lat="42.784902866001005" lon="-2.36208655888425"><ele>961.0</ele><time>2026-03-22T10:47:36.999Z</time></trkpt><trkpt lat="42.78500817451277" lon="-2.3618835228715134"><ele>961.3333333333333</ele><time>2026-03-22T10:47:37.999Z</time></trkpt><trkpt lat="42.78511757198362" lon="-2.361672718167857"><ele>961.6666666666667</ele><time>2026-03-22T10:47:38.999Z</time></trkpt><trkpt lat="42.785223728765786" lon="-2.3614681582396697"><ele>962.0</ele><time>2026-03-22T10:47:39.999Z</time></trkpt><trkpt lat="42.78533504677843" lon="-2.3612532148595853"><ele>962.3333333333334</ele><time>2026-03-22T10:47:40.999Z</time></trkpt><trkpt lat="42.78544680751026" lon="-2.361037238038901"><ele>962.6666666666667</ele><time>2026-03-22T10:47:41.999Z</time></trkpt><trkpt lat="42.78556509468479" lon="-2.3608086492096407"><ele>963.0</ele><time>2026-03-22T10:47:42.999Z</time></trkpt><trkpt lat="42.78568687210912" lon="-2.3605733154104565"><ele>963.0</ele><time>2026-03-22T10:47:43.999Z</time></trkpt><trkpt lat="42.785812548047744" lon="-2.3603304482149237"><ele>963.0</ele><time>2026-03-22T10:47:44.998Z</time></trkpt><trkpt lat="42.785941691434125" lon="-2.360080246689109"><ele>963.0</ele><time>2026-03-22T10:47:45.998Z</time></trkpt><trkpt lat="42.78606997894904" lon="-2.359830565208712"><ele>964.5</ele><time>2026-03-22T10:47:46.998Z</time></trkpt><trkpt lat="42.78619863405891" lon="-2.359580169637189"><ele>966.0</ele><time>2026-03-22T10:47:47.998Z</time></trkpt><trkpt lat="42.78633038390966" lon="-2.359323751674459"><ele>966.0</ele><time>2026-03-22T10:47:49Z</time></trkpt><trkpt lat="42.78646136777834" lon="-2.3590688237582547"><ele>966.0</ele><time>2026-03-22T10:47:50Z</time></trkpt><trkpt lat="42.78658882092511" lon="-2.3588207676932176"><ele>966.5</ele><time>2026-03-22T10:47:51Z</time></trkpt><trkpt lat="42.78671927310903" lon="-2.358569205115663"><ele>967.0</ele><time>2026-03-22T10:47:52Z</time></trkpt><trkpt lat="42.786851782533574" lon="-2.3583140894916017"><ele>967.0</ele><time>2026-03-22T10:47:53Z</time></trkpt><trkpt lat="42.78698920615877" lon="-2.3580495131009607"><ele>967.0</ele><time>2026-03-22T10:47:54Z</time></trkpt><trkpt lat="42.787127723365636" lon="-2.3577828313883122"><ele>967.5</ele><time>2026-03-22T10:47:55Z</time></trkpt><trkpt lat="42.7872659657423" lon="-2.3575166785355512"><ele>968.0</ele><time>2026-03-22T10:47:56Z</time></trkpt><trkpt lat="42.787404126643914" lon="-2.3572527763373667"><ele>967.3333333333334</ele><time>2026-03-22T10:47:57Z</time></trkpt><trkpt lat="42.78753107852326" lon="-2.357010176324161"><ele>966.6666666666667</ele><time>2026-03-22T10:47:58Z</time></trkpt><trkpt lat="42.78765172622958" lon="-2.35677943192715"><ele>966.0</ele><time>2026-03-22T10:47:59Z</time></trkpt><trkpt lat="42.78777405313236" lon="-2.356545475973935"><ele>965.3333333333333</ele><time>2026-03-22T10:48:00Z</time></trkpt><trkpt lat="42.78790173808394" lon="-2.3562985221681707"><ele>964.6666666666666</ele><time>2026-03-22T10:48:01Z</time></trkpt><trkpt lat="42.78802615776723" lon="-2.356055213972471"><ele>964.0</ele><time>2026-03-22T10:48:02Z</time></trkpt><trkpt lat="42.78815464654421" lon="-2.355803948614812"><ele>964.0</ele><time>2026-03-22T10:48:03Z</time></trkpt><trkpt lat="42.78828278320972" lon="-2.3555542729726655"><ele>964.0</ele><time>2026-03-22T10:48:04Z</time></trkpt><trkpt lat="42.788415343292115" lon="-2.3552968254168407"><ele>964.0</ele><time>2026-03-22T10:48:05Z</time></trkpt><trkpt lat="42.788541693647076" lon="-2.355051437544219"><ele>964.0</ele><time>2026-03-22T10:48:06Z</time></trkpt><trkpt lat="42.78867062744116" lon="-2.3548010326580906"><ele>964.0</ele><time>2026-03-22T10:48:07Z</time></trkpt><trkpt lat="42.78880277664156" lon="-2.3545443830705564"><ele>964.5</ele><time>2026-03-22T10:48:08Z</time></trkpt><trkpt lat="42.78893526907785" lon="-2.3542870665217093"><ele>965.0</ele><time>2026-03-22T10:48:09Z</time></trkpt><trkpt lat="42.78906673624455" lon="-2.3540317410145657"><ele>965.3333333333334</ele><time>2026-03-22T10:48:10Z</time></trkpt><trkpt lat="42.78919779715775" lon="-2.35377720523563"><ele>965.6666666666667</ele><time>2026-03-22T10:48:11Z</time></trkpt><trkpt lat="42.789323725438756" lon="-2.3535338104306134"><ele>966.0</ele><time>2026-03-22T10:48:12Z</time></trkpt><trkpt lat="42.78944264573067" lon="-2.3533047432780263"><ele>966.0</ele><time>2026-03-22T10:48:13Z</time></trkpt><trkpt lat="42.78954747984085" lon="-2.3531027423099085"><ele>966.0</ele><time>2026-03-22T10:48:14Z</time></trkpt><trkpt lat="42.78963572828202" lon="-2.3529168302785473"><ele>966.0</ele><time>2026-03-22T10:48:15Z</time></trkpt><trkpt lat="42.78969684587381" lon="-2.3527380763052985"><ele>966.0</ele><time>2026-03-22T10:48:16Z</time></trkpt><trkpt lat="42.78972485456023" lon="-2.3525476611783245"><ele>966.0</ele><time>2026-03-22T10:48:17Z</time></trkpt><trkpt lat="42.7897216847473" lon="-2.3523438480694034"><ele>966.0</ele><time>2026-03-22T10:48:18Z</time></trkpt><trkpt lat="42.78969707428203" lon="-2.3521257075036273"><ele>966.3333333333333</ele><time>2026-03-22T10:48:19Z</time></trkpt><trkpt lat="42.789667823313536" lon="-2.3519027779903716"><ele>966.6666666666666</ele><time>2026-03-22T10:48:20Z</time></trkpt><trkpt lat="42.78964519842501" lon="-2.3516683475298983"><ele>967.0</ele><time>2026-03-22T10:48:21Z</time></trkpt><trkpt lat="42.78961283476914" lon="-2.351428931687173"><ele>966.6666666666666</ele><time>2026-03-22T10:48:22Z</time></trkpt><trkpt lat="42.789580830300785" lon="-2.3511796774280196"><ele>966.3333333333333</ele><time>2026-03-22T10:48:23Z</time></trkpt><trkpt lat="42.78953471202229" lon="-2.350951608783188"><ele>966.0</ele><time>2026-03-22T10:48:24Z</time></trkpt><trkpt lat="42.78950357531871" lon="-2.3507313899559663"><ele>966.6666666666667</ele><time>2026-03-22T10:48:25Z</time></trkpt><trkpt lat="42.789472564046186" lon="-2.3505120582628143"><ele>967.3333333333334</ele><time>2026-03-22T10:48:26Z</time></trkpt><trkpt lat="42.78954763833824" lon="-2.3502738411510444"><ele>968.0</ele><time>2026-03-22T10:48:27Z</time></trkpt><trkpt lat="42.78959437148535" lon="-2.350047001128662"><ele>968.0</ele><time>2026-03-22T10:48:28Z</time></trkpt><trkpt lat="42.78966618342321" lon="-2.349811321686985"><ele>968.0</ele><time>2026-03-22T10:48:29Z</time></trkpt><trkpt lat="42.789733091498945" lon="-2.3495665132181314"><ele>968.0</ele><time>2026-03-22T10:48:30Z</time></trkpt><trkpt lat="42.789797079689585" lon="-2.349317645021125"><ele>968.0</ele><time>2026-03-22T10:48:31Z</time></trkpt><trkpt lat="42.78986196484491" lon="-2.349063877780431"><ele>968.0</ele><time>2026-03-22T10:48:32Z</time></trkpt><trkpt lat="42.78992954246517" lon="-2.3488038154359376"><ele>968.0</ele><time>2026-03-22T10:48:33Z</time></trkpt><trkpt lat="42.790002884482625" lon="-2.348521042316968"><ele>968.0</ele><time>2026-03-22T10:48:34Z</time></trkpt><trkpt lat="42.79007579352522" lon="-2.348223670691292"><ele>968.0</ele><time>2026-03-22T10:48:35Z</time></trkpt><trkpt lat="42.79014804996226" lon="-2.3479168365529675"><ele>968.0</ele><time>2026-03-22T10:48:36Z</time></trkpt><trkpt lat="42.790221969900635" lon="-2.3475989736179925"><ele>968.0</ele><time>2026-03-22T10:48:37Z</time></trkpt><trkpt lat="42.790299416864585" lon="-2.3472706589787946"><ele>968.5</ele><time>2026-03-22T10:48:37.999Z</time></trkpt><trkpt lat="42.790381349070444" lon="-2.3469382735507898"><ele>969.0</ele><time>2026-03-22T10:48:38.999Z</time></trkpt><trkpt lat="42.79046268981283" lon="-2.3466165868569693"><ele>969.5</ele><time>2026-03-22T10:48:39.999Z</time></trkpt><trkpt lat="42.79054287739699" lon="-2.3463066182004653"><ele>970.0</ele><time>2026-03-22T10:48:40.999Z</time></trkpt><trkpt lat="42.7906179039852" lon="-2.346002779289039"><ele>970.0</ele><time>2026-03-22T10:48:41.999Z</time></trkpt><trkpt lat="42.790690218174085" lon="-2.345707088884667"><ele>970.0</ele><time>2026-03-22T10:48:42.999Z</time></trkpt><trkpt lat="42.79076023744916" lon="-2.345404812271843"><ele>970.0</ele><time>2026-03-22T10:48:43.999Z</time></trkpt><trkpt lat="42.79083085491362" lon="-2.345103845454247"><ele>970.0</ele><time>2026-03-22T10:48:44.999Z</time></trkpt><trkpt lat="42.79090526858835" lon="-2.3447896466635987"><ele>970.0</ele><time>2026-03-22T10:48:45.999Z</time></trkpt><trkpt lat="42.79098660315673" lon="-2.3444654866312296"><ele>970.0</ele><time>2026-03-22T10:48:46.999Z</time></trkpt><trkpt lat="42.79106932960045" lon="-2.344140684807232"><ele>969.5</ele><time>2026-03-22T10:48:47.999Z</time></trkpt><trkpt lat="42.791148628644095" lon="-2.3438191081250173"><ele>969.0</ele><time>2026-03-22T10:48:48.999Z</time></trkpt><trkpt lat="42.79123021824281" lon="-2.343501531381366"><ele>969.0</ele><time>2026-03-22T10:48:49.999Z</time></trkpt><trkpt lat="42.79131221400498" lon="-2.343188487406997"><ele>969.0</ele><time>2026-03-22T10:48:50.999Z</time></trkpt><trkpt lat="42.79138746406684" lon="-2.3428871376934715"><ele>969.5</ele><time>2026-03-22T10:48:51.999Z</time></trkpt><trkpt lat="42.79145820793478" lon="-2.3425873250515985"><ele>970.0</ele><time>2026-03-22T10:48:52.999Z</time></trkpt><trkpt lat="42.791526268895474" lon="-2.342295342150758"><ele>970.3333333333333</ele><time>2026-03-22T10:48:53.999Z</time></trkpt><trkpt lat="42.79159281969525" lon="-2.342026477906683"><ele>970.6666666666667</ele><time>2026-03-22T10:48:54.999Z</time></trkpt><trkpt lat="42.79165111925537" lon="-2.341791190348107"><ele>971.0</ele><time>2026-03-22T10:48:55.999Z</time></trkpt><trkpt lat="42.791711595532476" lon="-2.3415754086831604"><ele>971.0</ele><time>2026-03-22T10:48:56.999Z</time></trkpt><trkpt lat="42.79179219891489" lon="-2.3413771614513936"><ele>971.0</ele><time>2026-03-22T10:48:57.999Z</time></trkpt><trkpt lat="42.79190588910304" lon="-2.341190312378653"><ele>971.0</ele><time>2026-03-22T10:48:58.999Z</time></trkpt><trkpt lat="42.79204181068992" lon="-2.3410132989803856"><ele>971.0</ele><time>2026-03-22T10:48:59.999Z</time></trkpt><trkpt lat="42.79218018814034" lon="-2.340835083415806"><ele>971.0</ele><time>2026-03-22T10:49:00.999Z</time></trkpt><trkpt lat="42.792310076140545" lon="-2.3406557127947396"><ele>971.0</ele><time>2026-03-22T10:49:01.999Z</time></trkpt><trkpt lat="42.792421400771495" lon="-2.340483712956874"><ele>971.3333333333334</ele><time>2026-03-22T10:49:02.999Z</time></trkpt><trkpt lat="42.792512670111705" lon="-2.340297363403661"><ele>971.6666666666667</ele><time>2026-03-22T10:49:03.999Z</time></trkpt><trkpt lat="42.79257865689874" lon="-2.3400811935952697"><ele>972.0</ele><time>2026-03-22T10:49:04.999Z</time></trkpt><trkpt lat="42.79261321490262" lon="-2.3398314012357275"><ele>972.0</ele><time>2026-03-22T10:49:05.999Z</time></trkpt><trkpt lat="42.79263254925155" lon="-2.3395770284417483"><ele>972.0</ele><time>2026-03-22T10:49:06.999Z</time></trkpt><trkpt lat="42.79266286600455" lon="-2.3393176015006674"><ele>972.0</ele><time>2026-03-22T10:49:07.999Z</time></trkpt><trkpt lat="42.79269705207997" lon="-2.33908531268604"><ele>973.3333333333333</ele><time>2026-03-22T10:49:08.999Z</time></trkpt><trkpt lat="42.792727288488535" lon="-2.3388694675379162"><ele>974.6666666666666</ele><time>2026-03-22T10:49:09.999Z</time></trkpt><trkpt lat="42.79275817501424" lon="-2.3386558450542645"><ele>976.0</ele><time>2026-03-22T10:49:10.999Z</time></trkpt><trkpt lat="42.79279637523585" lon="-2.3384263835079016"><ele>976.0</ele><time>2026-03-22T10:49:11.999Z</time></trkpt><trkpt lat="42.79283489146667" lon="-2.3381933396325003"><ele>976.0</ele><time>2026-03-22T10:49:12.999Z</time></trkpt><trkpt lat="42.792872222083815" lon="-2.3379571507112757"><ele>976.0</ele><time>2026-03-22T10:49:13.999Z</time></trkpt><trkpt lat="42.792907073987955" lon="-2.337710269064383"><ele>976.6666666666666</ele><time>2026-03-22T10:49:14.999Z</time></trkpt><trkpt lat="42.79293836927053" lon="-2.3374530993312046"><ele>977.3333333333333</ele><time>2026-03-22T10:49:15.999Z</time></trkpt><trkpt lat="42.79297368077412" lon="-2.3371921850211264"><ele>978.0</ele><time>2026-03-22T10:49:16.999Z</time></trkpt><trkpt lat="42.793015412733254" lon="-2.3369227907065704"><ele>979.0</ele><time>2026-03-22T10:49:17.999Z</time></trkpt><trkpt lat="42.793059247319704" lon="-2.3366482785190694"><ele>980.0</ele><time>2026-03-22T10:49:18.999Z</time></trkpt><trkpt lat="42.793101372602074" lon="-2.336372450723308"><ele>981.0</ele><time>2026-03-22T10:49:19.999Z</time></trkpt><trkpt lat="42.79314245677953" lon="-2.3360957633120796"><ele>983.0</ele><time>2026-03-22T10:49:20.999Z</time></trkpt><trkpt lat="42.793183101055526" lon="-2.3358307159060914"><ele>985.0</ele><time>2026-03-22T10:49:21.999Z</time></trkpt><trkpt lat="42.793223185746164" lon="-2.3355756529878198"><ele>987.0</ele><time>2026-03-22T10:49:22.999Z</time></trkpt><trkpt lat="42.79325554702452" lon="-2.33532731224211"><ele>988.3333333333333</ele><time>2026-03-22T10:49:23.999Z</time></trkpt><trkpt lat="42.79326121114" lon="-2.335087089846141"><ele>989.6666666666666</ele><time>2026-03-22T10:49:24.999Z</time></trkpt><trkpt lat="42.79323996172345" lon="-2.334843459900803"><ele>991.0</ele><time>2026-03-22T10:49:25.999Z</time></trkpt><trkpt lat="42.79320061129261" lon="-2.3345904715891086"><ele>991.3333333333333</ele><time>2026-03-22T10:49:26.999Z</time></trkpt><trkpt lat="42.7931604629002" lon="-2.334332253079772"><ele>991.6666666666667</ele><time>2026-03-22T10:49:27.999Z</time></trkpt><trkpt lat="42.79312867747762" lon="-2.334065521136397"><ele>992.0</ele><time>2026-03-22T10:49:28.999Z</time></trkpt><trkpt lat="42.79307962264487" lon="-2.333804082874424"><ele>993.0</ele><time>2026-03-22T10:49:29.999Z</time></trkpt><trkpt lat="42.79304801677934" lon="-2.333550671104252"><ele>994.0</ele><time>2026-03-22T10:49:30.999Z</time></trkpt><trkpt lat="42.79302161048021" lon="-2.333327111410061"><ele>995.0</ele><time>2026-03-22T10:49:31.999Z</time></trkpt><trkpt lat="42.79300807287126" lon="-2.3331173599151267"><ele>994.75</ele><time>2026-03-22T10:49:32.999Z</time></trkpt><trkpt lat="42.793009706498296" lon="-2.3329269520510234"><ele>994.5</ele><time>2026-03-22T10:49:33.999Z</time></trkpt><trkpt lat="42.79301361809699" lon="-2.332750615120595"><ele>994.25</ele><time>2026-03-22T10:49:34.999Z</time></trkpt><trkpt lat="42.79302021959303" lon="-2.332558017416403"><ele>994.0</ele><time>2026-03-22T10:49:35.999Z</time></trkpt><trkpt lat="42.79302729352293" lon="-2.3323428708013525"><ele>993.0</ele><time>2026-03-22T10:49:36.999Z</time></trkpt><trkpt lat="42.79303109725824" lon="-2.3321163567213117"><ele>992.0</ele><time>2026-03-22T10:49:37.999Z</time></trkpt><trkpt lat="42.79303409331339" lon="-2.331883425658607"><ele>991.0</ele><time>2026-03-22T10:49:38.999Z</time></trkpt><trkpt lat="42.79303842899127" lon="-2.3316505171754445"><ele>991.0</ele><time>2026-03-22T10:49:39.999Z</time></trkpt><trkpt lat="42.793049394949804" lon="-2.331424691220238"><ele>991.0</ele><time>2026-03-22T10:49:40.999Z</time></trkpt><trkpt lat="42.79307232275602" lon="-2.3312133699878426"><ele>991.0</ele><time>2026-03-22T10:49:41.999Z</time></trkpt><trkpt lat="42.79313690249809" lon="-2.331026547612933"><ele>990.6666666666666</ele><time>2026-03-22T10:49:42.999Z</time></trkpt><trkpt lat="42.79320644569299" lon="-2.330852747894796"><ele>990.3333333333333</ele><time>2026-03-22T10:49:43.999Z</time></trkpt><trkpt lat="42.793296032808406" lon="-2.3306890235955717"><ele>990.0</ele><time>2026-03-22T10:49:44.999Z</time></trkpt><trkpt lat="42.79340177449056" lon="-2.330528653023518"><ele>990.3333333333333</ele><time>2026-03-22T10:49:45.998Z</time></trkpt><trkpt lat="42.793537610070054" lon="-2.3304049272346283"><ele>990.6666666666666</ele><time>2026-03-22T10:49:46.998Z</time></trkpt><trkpt lat="42.79369953156821" lon="-2.3303405340613392"><ele>991.0</ele><time>2026-03-22T10:49:47.998Z</time></trkpt><trkpt lat="42.793860939392744" lon="-2.3302811986078"><ele>991.0</ele><time>2026-03-22T10:49:48.998Z</time></trkpt><trkpt lat="42.794027859856214" lon="-2.3302462938614026"><ele>991.0</ele><time>2026-03-22T10:49:49.998Z</time></trkpt><trkpt lat="42.794190446549095" lon="-2.330179094360831"><ele>991.0</ele><time>2026-03-22T10:49:50.998Z</time></trkpt><trkpt lat="42.79435127081266" lon="-2.330131212403362"><ele>990.6666666666666</ele><time>2026-03-22T10:49:51.998Z</time></trkpt><trkpt lat="42.79451060095242" lon="-2.3300837752872465"><ele>990.3333333333333</ele><time>2026-03-22T10:49:52.998Z</time></trkpt><trkpt lat="42.79466259432541" lon="-2.3300385225474147"><ele>990.0</ele><time>2026-03-22T10:49:53.998Z</time></trkpt><trkpt lat="42.79480700756182" lon="-2.3299960451278703"><ele>990.0</ele><time>2026-03-22T10:49:55Z</time></trkpt><trkpt lat="42.79494337136859" lon="-2.329956870897752"><ele>990.0</ele><time>2026-03-22T10:49:56Z</time></trkpt><trkpt lat="42.795068628031366" lon="-2.3299208875060398"><ele>990.0</ele><time>2026-03-22T10:49:57Z</time></trkpt><trkpt lat="42.795188836052596" lon="-2.3298863544809127"><ele>990.0</ele><time>2026-03-22T10:49:58Z</time></trkpt><trkpt lat="42.79530682112604" lon="-2.3298524600588184"><ele>990.4</ele><time>2026-03-22T10:49:59Z</time></trkpt><trkpt lat="42.795431977791445" lon="-2.3298301700098545"><ele>990.8</ele><time>2026-03-22T10:50:00Z</time></trkpt><trkpt lat="42.795550634096614" lon="-2.329800083053859"><ele>991.2</ele><time>2026-03-22T10:50:01Z</time></trkpt><trkpt lat="42.795647869400845" lon="-2.329768092625181"><ele>991.6</ele><time>2026-03-22T10:50:02Z</time></trkpt><trkpt lat="42.795723728366426" lon="-2.329742257566545"><ele>992.0</ele><time>2026-03-22T10:50:03Z</time></trkpt><trkpt lat="42.795803809322884" lon="-2.32971133795503"><ele>992.4000000000001</ele><time>2026-03-22T10:50:05Z</time></trkpt><trkpt lat="42.79589001201336" lon="-2.3296733702577233"><ele>992.8000000000001</ele><time>2026-03-22T10:50:34Z</time></trkpt><trkpt lat="42.79605832469422" lon="-2.3296660027378233"><ele>993.2</ele><time>2026-03-22T10:57:05.999Z</time></trkpt><trkpt lat="42.79612612563018" lon="-2.3296504402279834"><ele>993.6</ele><time>2026-03-22T10:57:06.999Z</time></trkpt><trkpt lat="42.79620253784569" lon="-2.3296230655097236"><ele>994.0</ele><time>2026-03-22T10:57:07.999Z</time></trkpt><trkpt lat="42.79627793097491" lon="-2.329579836181081"><ele>993.9999999999999</ele><time>2026-03-22T10:57:08.999Z</time></trkpt><trkpt lat="42.79633703771234" lon="-2.3295096255803305"><ele>994.0</ele><time>2026-03-22T10:57:09.999Z</time></trkpt><trkpt lat="42.79639704039712" lon="-2.3294476950111895"><ele>994.0</ele><time>2026-03-22T10:57:10.999Z</time></trkpt><trkpt lat="42.796432546462356" lon="-2.329368308022918"><ele>994.0</ele><time>2026-03-22T10:57:11.999Z</time></trkpt><trkpt lat="42.79645306036177" lon="-2.3292748689007676"><ele>993.9999999999999</ele><time>2026-03-22T10:57:12.999Z</time></trkpt><trkpt lat="42.79645896106198" lon="-2.329173165960296"><ele>994.0</ele><time>2026-03-22T10:57:13.999Z</time></trkpt><trkpt lat="42.79645524322948" lon="-2.3290617732887666"><ele>994.0</ele><time>2026-03-22T10:57:14.999Z</time></trkpt><trkpt lat="42.79644095436189" lon="-2.3289271633006563"><ele>994.0</ele><time>2026-03-22T10:57:15.999Z</time></trkpt><trkpt lat="42.796396856466785" lon="-2.3287866082168462"><ele>994.0</ele><time>2026-03-22T10:57:16.999Z</time></trkpt><trkpt lat="42.796355873083904" lon="-2.328625125255588"><ele>994.0</ele><time>2026-03-22T10:57:17.999Z</time></trkpt><trkpt lat="42.79631702589005" lon="-2.3284459790989427"><ele>994.25</ele><time>2026-03-22T10:57:18.999Z</time></trkpt><trkpt lat="42.7962670712538" lon="-2.3282719237002683"><ele>994.5</ele><time>2026-03-22T10:57:19.999Z</time></trkpt><trkpt lat="42.79622096876006" lon="-2.328105745924556"><ele>994.75</ele><time>2026-03-22T10:57:20.999Z</time></trkpt><trkpt lat="42.79617222397655" lon="-2.3279422878724314"><ele>995.0</ele><time>2026-03-22T10:57:21.999Z</time></trkpt><trkpt lat="42.796129263824405" lon="-2.327783819482194"><ele>993.75</ele><time>2026-03-22T10:57:22.999Z</time></trkpt><trkpt lat="42.79608826885305" lon="-2.327625231591254"><ele>992.5</ele><time>2026-03-22T10:57:23.999Z</time></trkpt><trkpt lat="42.796051944516165" lon="-2.3274644634858053"><ele>991.25</ele><time>2026-03-22T10:57:24.999Z</time></trkpt><trkpt lat="42.79603114273563" lon="-2.3273014317689675"><ele>990.0</ele><time>2026-03-22T10:57:25.999Z</time></trkpt><trkpt lat="42.79602896194392" lon="-2.327138294829962"><ele>988.5</ele><time>2026-03-22T10:57:26.999Z</time></trkpt><trkpt lat="42.79604022656566" lon="-2.326976713390835"><ele>987.0</ele><time>2026-03-22T10:57:27.999Z</time></trkpt><trkpt lat="42.796068435052725" lon="-2.3268206335119523"><ele>985.5</ele><time>2026-03-22T10:57:28.999Z</time></trkpt><trkpt lat="42.79611810937473" lon="-2.326676961942403"><ele>984.0</ele><time>2026-03-22T10:57:29.999Z</time></trkpt><trkpt lat="42.79617120134866" lon="-2.3265361107237226"><ele>984.0</ele><time>2026-03-22T10:57:30.999Z</time></trkpt><trkpt lat="42.79624680685301" lon="-2.326420642013304"><ele>984.0</ele><time>2026-03-22T10:57:31.999Z</time></trkpt><trkpt lat="42.79634041686862" lon="-2.3263153690037477"><ele>984.0</ele><time>2026-03-22T10:57:32.999Z</time></trkpt><trkpt lat="42.796469025137846" lon="-2.326264568508641"><ele>984.0</ele><time>2026-03-22T10:57:33.999Z</time></trkpt><trkpt lat="42.79658660070309" lon="-2.326185466788566"><ele>982.75</ele><time>2026-03-22T10:57:34.999Z</time></trkpt><trkpt lat="42.79672248687249" lon="-2.3261358315440823"><ele>981.5</ele><time>2026-03-22T10:57:35.999Z</time></trkpt><trkpt lat="42.79686418480044" lon="-2.326092671814231"><ele>980.25</ele><time>2026-03-22T10:57:36.999Z</time></trkpt><trkpt lat="42.79700934357201" lon="-2.3260472947688657"><ele>979.0</ele><time>2026-03-22T10:57:37.999Z</time></trkpt><trkpt lat="42.79714536490291" lon="-2.326004602176954"><ele>979.0</ele><time>2026-03-22T10:57:38.999Z</time></trkpt><trkpt lat="42.797272743827826" lon="-2.325964554856551"><ele>979.0</ele><time>2026-03-22T10:57:39.999Z</time></trkpt><trkpt lat="42.79738889936084" lon="-2.3259267851464984"><ele>979.0</ele><time>2026-03-22T10:57:40.999Z</time></trkpt><trkpt lat="42.79749983220234" lon="-2.325890713622708"><ele>979.0</ele><time>2026-03-22T10:57:41.999Z</time></trkpt><trkpt lat="42.79761161969554" lon="-2.3258543642171983"><ele>980.0</ele><time>2026-03-22T10:57:42.999Z</time></trkpt><trkpt lat="42.79772971251758" lon="-2.325818246189022"><ele>981.0</ele><time>2026-03-22T10:57:43.999Z</time></trkpt><trkpt lat="42.797844149791096" lon="-2.3257836571092056"><ele>982.0</ele><time>2026-03-22T10:57:44.999Z</time></trkpt><trkpt lat="42.797950850975504" lon="-2.325748490420535"><ele>983.0</ele><time>2026-03-22T10:57:45.999Z</time></trkpt><trkpt lat="42.798053053147825" lon="-2.3257116407433736"><ele>983.0</ele><time>2026-03-22T10:57:46.999Z</time></trkpt><trkpt lat="42.798137883080955" lon="-2.32567395444224"><ele>983.0</ele><time>2026-03-22T10:57:47.999Z</time></trkpt><trkpt lat="42.79821733192311" lon="-2.3256309176693453"><ele>983.0</ele><time>2026-03-22T10:57:48.999Z</time></trkpt><trkpt lat="42.79829565022941" lon="-2.3255758553628865"><ele>983.0</ele><time>2026-03-22T10:57:49.999Z</time></trkpt><trkpt lat="42.798350077473756" lon="-2.3254736837651535"><ele>983.0</ele><time>2026-03-22T10:57:50.999Z</time></trkpt><trkpt lat="42.798395665246154" lon="-2.3253609509239532"><ele>983.4</ele><time>2026-03-22T10:57:51.999Z</time></trkpt><trkpt lat="42.79840422822079" lon="-2.3252297914601057"><ele>983.8</ele><time>2026-03-22T10:57:52.999Z</time></trkpt><trkpt lat="42.79842626939219" lon="-2.3251042633393135"><ele>984.2</ele><time>2026-03-22T10:57:53.999Z</time></trkpt><trkpt lat="42.79845254718708" lon="-2.324975416080059"><ele>984.6</ele><time>2026-03-22T10:57:54.999Z</time></trkpt><trkpt lat="42.79847892679295" lon="-2.3248494580664203"><ele>985.0</ele><time>2026-03-22T10:57:55.999Z</time></trkpt><trkpt lat="42.79851049260752" lon="-2.32472749116222"><ele>985.0</ele><time>2026-03-22T10:57:56.999Z</time></trkpt><trkpt lat="42.79855985143453" lon="-2.3246117668968216"><ele>985.0</ele><time>2026-03-22T10:57:57.999Z</time></trkpt><trkpt lat="42.79862887956811" lon="-2.324510452711168"><ele>985.0</ele><time>2026-03-22T10:57:58.999Z</time></trkpt><trkpt lat="42.79870759729759" lon="-2.3244308160806493"><ele>985.0</ele><time>2026-03-22T10:57:59.999Z</time></trkpt><trkpt lat="42.7987875961581" lon="-2.3243520002966958"><ele>985.0</ele><time>2026-03-22T10:58:00.999Z</time></trkpt><trkpt lat="42.798867396211264" lon="-2.324271328092035"><ele>985.0</ele><time>2026-03-22T10:58:01.998Z</time></trkpt><trkpt lat="42.7989501705804" lon="-2.3241916548992743"><ele>985.0</ele><time>2026-03-22T10:58:02.998Z</time></trkpt><trkpt lat="42.799038672732785" lon="-2.3241149989194883"><ele>985.0</ele><time>2026-03-22T10:58:03.998Z</time></trkpt><trkpt lat="42.79914627719778" lon="-2.3240659994246555"><ele>985.0</ele><time>2026-03-22T10:58:04.998Z</time></trkpt><trkpt lat="42.799253542470275" lon="-2.324027810252933"><ele>985.0</ele><time>2026-03-22T10:58:05.998Z</time></trkpt><trkpt lat="42.79935849781936" lon="-2.3239974914352572"><ele>987.0</ele><time>2026-03-22T10:58:06.998Z</time></trkpt><trkpt lat="42.799464832380266" lon="-2.3239711153233658"><ele>989.0</ele><time>2026-03-22T10:58:07.998Z</time></trkpt><trkpt lat="42.79957212490033" lon="-2.323941965899792"><ele>991.0</ele><time>2026-03-22T10:58:08.998Z</time></trkpt><trkpt lat="42.79967774988326" lon="-2.323889322107813"><ele>993.0</ele><time>2026-03-22T10:58:09.998Z</time></trkpt><trkpt lat="42.79980873008691" lon="-2.323851127269826"><ele>993.0</ele><time>2026-03-22T10:58:10.998Z</time></trkpt><trkpt lat="42.79993250822885" lon="-2.3238412377749755"><ele>993.0</ele><time>2026-03-22T10:58:11.998Z</time></trkpt><trkpt lat="42.80006470533905" lon="-2.3238263088181434"><ele>993.0</ele><time>2026-03-22T10:58:12.998Z</time></trkpt><trkpt lat="42.80020788601845" lon="-2.323818810017634"><ele>993.0</ele><time>2026-03-22T10:58:13.998Z</time></trkpt><trkpt lat="42.800354015585285" lon="-2.3237578486670523"><ele>993.3333333333333</ele><time>2026-03-22T10:58:14.998Z</time></trkpt><trkpt lat="42.80048656609889" lon="-2.323627977754093"><ele>993.6666666666666</ele><time>2026-03-22T10:58:15.998Z</time></trkpt><trkpt lat="42.8006389936636" lon="-2.323529335676978"><ele>994.0</ele><time>2026-03-22T10:58:16.998Z</time></trkpt><trkpt lat="42.800779833681375" lon="-2.3234010630268345"><ele>994.0</ele><time>2026-03-22T10:58:17.998Z</time></trkpt><trkpt lat="42.800935316248975" lon="-2.323273120046191"><ele>994.0</ele><time>2026-03-22T10:58:19Z</time></trkpt><trkpt lat="42.801086329380986" lon="-2.323127965164787"><ele>994.0</ele><time>2026-03-22T10:58:20Z</time></trkpt><trkpt lat="42.801239059722924" lon="-2.322995803174455"><ele>993.0</ele><time>2026-03-22T10:58:21Z</time></trkpt><trkpt lat="42.80139681814768" lon="-2.3228609828947877"><ele>992.0</ele><time>2026-03-22T10:58:22Z</time></trkpt><trkpt lat="42.80153452638011" lon="-2.3227192048650713"><ele>991.0</ele><time>2026-03-22T10:58:23Z</time></trkpt><trkpt lat="42.80168355049929" lon="-2.3226069047870337"><ele>992.6666666666666</ele><time>2026-03-22T10:58:24Z</time></trkpt><trkpt lat="42.80184233664648" lon="-2.322532256677899"><ele>994.3333333333333</ele><time>2026-03-22T10:58:25Z</time></trkpt><trkpt lat="42.802010896347184" lon="-2.322497290456488"><ele>996.0</ele><time>2026-03-22T10:58:26Z</time></trkpt><trkpt lat="42.802168639461826" lon="-2.3224764361491537"><ele>996.0</ele><time>2026-03-22T10:58:27Z</time></trkpt><trkpt lat="42.802318481867246" lon="-2.322456625693925"><ele>996.0</ele><time>2026-03-22T10:58:28Z</time></trkpt><trkpt lat="42.80246709899981" lon="-2.322436302990825"><ele>996.0</ele><time>2026-03-22T10:58:29Z</time></trkpt><trkpt lat="42.802610671173454" lon="-2.3224162741497127"><ele>996.0</ele><time>2026-03-22T10:58:30Z</time></trkpt><trkpt lat="42.80275326036695" lon="-2.322394554726046"><ele>997.6666666666667</ele><time>2026-03-22T10:58:31Z</time></trkpt><trkpt lat="42.802905601373865" lon="-2.3223792887941337"><ele>999.3333333333334</ele><time>2026-03-22T10:58:32Z</time></trkpt><trkpt lat="42.80306489654816" lon="-2.3224112462794797"><ele>1001.0</ele><time>2026-03-22T10:58:33Z</time></trkpt><trkpt lat="42.80321885094429" lon="-2.3224954351133675"><ele>1001.0</ele><time>2026-03-22T10:58:34Z</time></trkpt><trkpt lat="42.803377537611" lon="-2.3225728125908507"><ele>1001.0</ele><time>2026-03-22T10:58:35Z</time></trkpt><trkpt lat="42.803554231688956" lon="-2.3226280629539815"><ele>1001.0</ele><time>2026-03-22T10:58:36Z</time></trkpt><trkpt lat="42.80373648297113" lon="-2.3227038713428447"><ele>999.0</ele><time>2026-03-22T10:58:37Z</time></trkpt><trkpt lat="42.8039206694455" lon="-2.322799445464191"><ele>997.0</ele><time>2026-03-22T10:58:38Z</time></trkpt><trkpt lat="42.804110725409544" lon="-2.322868073106438"><ele>995.0</ele><time>2026-03-22T10:58:39Z</time></trkpt><trkpt lat="42.80430482643887" lon="-2.322919651325036"><ele>996.0</ele><time>2026-03-22T10:58:40Z</time></trkpt><trkpt lat="42.80449828386539" lon="-2.322996902880693"><ele>997.0</ele><time>2026-03-22T10:58:41Z</time></trkpt><trkpt lat="42.80468247944101" lon="-2.323075036535468"><ele>998.0</ele><time>2026-03-22T10:58:42Z</time></trkpt><trkpt lat="42.804848740106465" lon="-2.3231507168025036"><ele>999.0</ele><time>2026-03-22T10:58:43Z</time></trkpt><trkpt lat="42.80500006464479" lon="-2.3232298824394855"><ele>1000.0</ele><time>2026-03-22T10:58:44Z</time></trkpt><trkpt lat="42.805150937718814" lon="-2.3233289501244982"><ele>1001.0</ele><time>2026-03-22T10:58:45Z</time></trkpt><trkpt lat="42.80530499903594" lon="-2.3234535392761657"><ele>1002.0</ele><time>2026-03-22T10:58:46Z</time></trkpt><trkpt lat="42.80545830160538" lon="-2.3235956813623684"><ele>1003.0</ele><time>2026-03-22T10:58:47Z</time></trkpt><trkpt lat="42.805609658998634" lon="-2.3237517219167816"><ele>1004.0</ele><time>2026-03-22T10:58:48Z</time></trkpt><trkpt lat="42.805758466236504" lon="-2.323917770311893"><ele>1004.6666666666667</ele><time>2026-03-22T10:58:49Z</time></trkpt><trkpt lat="42.80590716378124" lon="-2.324087719830291"><ele>1005.3333333333333</ele><time>2026-03-22T10:58:50Z</time></trkpt><trkpt lat="42.806053440813706" lon="-2.3242637160858464"><ele>1006.0</ele><time>2026-03-22T10:58:51Z</time></trkpt><trkpt lat="42.80619559650091" lon="-2.324446010257951"><ele>1008.0</ele><time>2026-03-22T10:58:52Z</time></trkpt><trkpt lat="42.80633529946435" lon="-2.3246420232355334"><ele>1010.0</ele><time>2026-03-22T10:58:53Z</time></trkpt><trkpt lat="42.806447003783624" lon="-2.3248719324133433"><ele>1012.0</ele><time>2026-03-22T10:58:54Z</time></trkpt><trkpt lat="42.80655681454693" lon="-2.3251038479942103"><ele>1012.0</ele><time>2026-03-22T10:58:55Z</time></trkpt><trkpt lat="42.806672462721096" lon="-2.3253386304257067"><ele>1012.0</ele><time>2026-03-22T10:58:56Z</time></trkpt><trkpt lat="42.806761269580626" lon="-2.3255970249474536"><ele>1012.0</ele><time>2026-03-22T10:58:57Z</time></trkpt><trkpt lat="42.80686770950023" lon="-2.3258477745997874"><ele>1011.6666666666666</ele><time>2026-03-22T10:58:57.999Z</time></trkpt><trkpt lat="42.806975055321246" lon="-2.3261012815316535"><ele>1011.3333333333333</ele><time>2026-03-22T10:58:58.999Z</time></trkpt><trkpt lat="42.80708295926694" lon="-2.326357271507162"><ele>1011.0</ele><time>2026-03-22T10:58:59.999Z</time></trkpt><trkpt lat="42.80718633293282" lon="-2.3266146838357535"><ele>1011.0</ele><time>2026-03-22T10:59:00.999Z</time></trkpt><trkpt lat="42.80728317177054" lon="-2.326857492486124"><ele>1011.0</ele><time>2026-03-22T10:59:01.999Z</time></trkpt><trkpt lat="42.807368006196405" lon="-2.3270860555629826"><ele>1011.0</ele><time>2026-03-22T10:59:02.999Z</time></trkpt><trkpt lat="42.80745359889729" lon="-2.3272804053133274"><ele>1012.0</ele><time>2026-03-22T10:59:03.999Z</time></trkpt><trkpt lat="42.807543261853255" lon="-2.3274359956693083"><ele>1013.0</ele><time>2026-03-22T10:59:04.999Z</time></trkpt><trkpt lat="42.807655990801344" lon="-2.3275326827113285"><ele>1014.0</ele><time>2026-03-22T10:59:05.999Z</time></trkpt><trkpt lat="42.80777035335235" lon="-2.3276019141262188"><ele>1015.0</ele><time>2026-03-22T10:59:06.999Z</time></trkpt><trkpt lat="42.80789803651727" lon="-2.3276773943631786"><ele>1015.0</ele><time>2026-03-22T10:59:07.999Z</time></trkpt><trkpt lat="42.80803274914862" lon="-2.3277773747051174"><ele>1015.0</ele><time>2026-03-22T10:59:08.999Z</time></trkpt><trkpt lat="42.80818391861177" lon="-2.3278597607687295"><ele>1015.0</ele><time>2026-03-22T10:59:09.999Z</time></trkpt><trkpt lat="42.808344571249734" lon="-2.3279339349063344"><ele>1015.0</ele><time>2026-03-22T10:59:10.999Z</time></trkpt><trkpt lat="42.80851249273425" lon="-2.3280321943056212"><ele>1015.0</ele><time>2026-03-22T10:59:11.999Z</time></trkpt><trkpt lat="42.80869292931494" lon="-2.3281374332374547"><ele>1015.0</ele><time>2026-03-22T10:59:12.999Z</time></trkpt><trkpt lat="42.808885532092035" lon="-2.328248875793083"><ele>1015.0</ele><time>2026-03-22T10:59:13.999Z</time></trkpt><trkpt lat="42.80908346110763" lon="-2.3283851871903702"><ele>1015.0</ele><time>2026-03-22T10:59:14.999Z</time></trkpt><trkpt lat="42.80928954257372" lon="-2.3285017551968554"><ele>1015.0</ele><time>2026-03-22T10:59:15.999Z</time></trkpt><trkpt lat="42.809488002272516" lon="-2.328615839955598"><ele>1013.6666666666666</ele><time>2026-03-22T10:59:16.999Z</time></trkpt><trkpt lat="42.8096882086127" lon="-2.328732459378499"><ele>1012.3333333333333</ele><time>2026-03-22T10:59:17.999Z</time></trkpt><trkpt lat="42.80989055120999" lon="-2.3288493108165267"><ele>1011.0</ele><time>2026-03-22T10:59:18.999Z</time></trkpt><trkpt lat="42.81009458059804" lon="-2.328970489939804"><ele>1011.6666666666667</ele><time>2026-03-22T10:59:19.999Z</time></trkpt><trkpt lat="42.81030000285134" lon="-2.329091255284733"><ele>1012.3333333333334</ele><time>2026-03-22T10:59:20.999Z</time></trkpt><trkpt lat="42.81050396261568" lon="-2.3292114294408752"><ele>1013.0</ele><time>2026-03-22T10:59:21.999Z</time></trkpt><trkpt lat="42.81070799253141" lon="-2.329327610466054"><ele>1013.0</ele><time>2026-03-22T10:59:22.999Z</time></trkpt><trkpt lat="42.8109144249067" lon="-2.329444232712286"><ele>1013.0</ele><time>2026-03-22T10:59:23.999Z</time></trkpt><trkpt lat="42.81112144736499" lon="-2.3295614145212835"><ele>1013.0</ele><time>2026-03-22T10:59:24.999Z</time></trkpt><trkpt lat="42.81132720892543" lon="-2.32967973156181"><ele>1015.6666666666667</ele><time>2026-03-22T10:59:25.999Z</time></trkpt><trkpt lat="42.811532385656015" lon="-2.3298004596181934"><ele>1018.3333333333333</ele><time>2026-03-22T10:59:26.999Z</time></trkpt><trkpt lat="42.811738251229194" lon="-2.32992403566346"><ele>1021.0</ele><time>2026-03-22T10:59:27.999Z</time></trkpt><trkpt lat="42.811944383846594" lon="-2.330048629918961"><ele>1021.0</ele><time>2026-03-22T10:59:28.999Z</time></trkpt><trkpt lat="42.81215695818333" lon="-2.3301493254532155"><ele>1021.0</ele><time>2026-03-22T10:59:29.999Z</time></trkpt><trkpt lat="42.81236429348633" lon="-2.3302678594181523"><ele>1021.0</ele><time>2026-03-22T10:59:30.999Z</time></trkpt><trkpt lat="42.812572063255566" lon="-2.330387607575309"><ele>1021.0</ele><time>2026-03-22T10:59:31.999Z</time></trkpt><trkpt lat="42.812779512330344" lon="-2.3305083099690176"><ele>1020.5</ele><time>2026-03-22T10:59:32.999Z</time></trkpt><trkpt lat="42.81298876031256" lon="-2.3306303197700533"><ele>1020.0</ele><time>2026-03-22T10:59:33.999Z</time></trkpt><trkpt lat="42.813200591216955" lon="-2.330754050338241"><ele>1020.0</ele><time>2026-03-22T10:59:34.999Z</time></trkpt><trkpt lat="42.813412901529475" lon="-2.3308780608959627"><ele>1020.0</ele><time>2026-03-22T10:59:35.999Z</time></trkpt><trkpt lat="42.813625227841385" lon="-2.331004152611736"><ele>1019.5</ele><time>2026-03-22T10:59:36.999Z</time></trkpt><trkpt lat="42.81383595335809" lon="-2.331129326945883"><ele>1019.0</ele><time>2026-03-22T10:59:37.999Z</time></trkpt><trkpt lat="42.81404141873035" lon="-2.3312511633816038"><ele>1019.0</ele><time>2026-03-22T10:59:38.999Z</time></trkpt><trkpt lat="42.81424069574549" lon="-2.3313682375391913"><ele>1019.0</ele><time>2026-03-22T10:59:39.999Z</time></trkpt><trkpt lat="42.81443028219769" lon="-2.3314765330401084"><ele>1019.0</ele><time>2026-03-22T10:59:40.999Z</time></trkpt><trkpt lat="42.81461214604443" lon="-2.3315760920956756"><ele>1020.3333333333334</ele><time>2026-03-22T10:59:41.999Z</time></trkpt><trkpt lat="42.81478786930277" lon="-2.3316693498089345"><ele>1021.6666666666667</ele><time>2026-03-22T10:59:42.999Z</time></trkpt><trkpt lat="42.814955153960696" lon="-2.3317702846562876"><ele>1023.0</ele><time>2026-03-22T10:59:43.999Z</time></trkpt><trkpt lat="42.815126858618754" lon="-2.3318417663505064"><ele>1023.3333333333333</ele><time>2026-03-22T10:59:44.999Z</time></trkpt><trkpt lat="42.815288753795244" lon="-2.3319074285413457"><ele>1023.6666666666666</ele><time>2026-03-22T10:59:45.999Z</time></trkpt><trkpt lat="42.8154466624777" lon="-2.3319753860885464"><ele>1024.0</ele><time>2026-03-22T10:59:46.999Z</time></trkpt><trkpt lat="42.81559775001609" lon="-2.332035403375601"><ele>1024.0</ele><time>2026-03-22T10:59:47.999Z</time></trkpt><trkpt lat="42.81573288755171" lon="-2.332082809117317"><ele>1024.0</ele><time>2026-03-22T10:59:48.999Z</time></trkpt><trkpt lat="42.815846698694536" lon="-2.332129612580241"><ele>1024.0</ele><time>2026-03-22T10:59:49.999Z</time></trkpt><trkpt lat="42.81593288191908" lon="-2.332189102946278"><ele>1024.0</ele><time>2026-03-22T10:59:50.999Z</time></trkpt><trkpt lat="42.815988075941" lon="-2.3322688228616166"><ele>1024.0</ele><time>2026-03-22T10:59:51.999Z</time></trkpt><trkpt lat="42.816007676269344" lon="-2.332400287316662"><ele>1023.25</ele><time>2026-03-22T10:59:52.999Z</time></trkpt><trkpt lat="42.81602434425017" lon="-2.332548184099112"><ele>1022.5</ele><time>2026-03-22T10:59:53.999Z</time></trkpt><trkpt lat="42.816043791546555" lon="-2.3327200603661944"><ele>1021.75</ele><time>2026-03-22T10:59:54.999Z</time></trkpt><trkpt lat="42.816064488256906" lon="-2.3329200309507385"><ele>1021.0</ele><time>2026-03-22T10:59:55.999Z</time></trkpt><trkpt lat="42.81609248622761" lon="-2.333132369130956"><ele>1018.1999999999999</ele><time>2026-03-22T10:59:56.999Z</time></trkpt><trkpt lat="42.81613347473466" lon="-2.333316844546708"><ele>1015.3999999999999</ele><time>2026-03-22T10:59:57.999Z</time></trkpt><trkpt lat="42.81617439297856" lon="-2.3334608504996788"><ele>1012.6</ele><time>2026-03-22T10:59:58.999Z</time></trkpt><trkpt lat="42.8162213591102" lon="-2.333562354354043"><ele>1009.8</ele><time>2026-03-22T10:59:59.999Z</time></trkpt><trkpt lat="42.81628831185509" lon="-2.3336314395774083"><ele>1007.0</ele><time>2026-03-22T11:00:00.998Z</time></trkpt><trkpt lat="42.81637312761148" lon="-2.33367252478917"><ele>1007.0</ele><time>2026-03-22T11:00:01.998Z</time></trkpt><trkpt lat="42.816461858059355" lon="-2.333702080779605"><ele>1007.0</ele><time>2026-03-22T11:00:02.998Z</time></trkpt><trkpt lat="42.81655246362512" lon="-2.3337067198146695"><ele>1007.0</ele><time>2026-03-22T11:00:03.998Z</time></trkpt><trkpt lat="42.81664789405521" lon="-2.3336574736239073"><ele>1007.0</ele><time>2026-03-22T11:00:04.998Z</time></trkpt><trkpt lat="42.816746297936575" lon="-2.3335734444992102"><ele>1007.0</ele><time>2026-03-22T11:00:05.998Z</time></trkpt><trkpt lat="42.81685554296441" lon="-2.333462522503476"><ele>1007.6666666666667</ele><time>2026-03-22T11:00:06.998Z</time></trkpt><trkpt lat="42.81697957209829" lon="-2.33333647839075"><ele>1008.3333333333333</ele><time>2026-03-22T11:00:07.998Z</time></trkpt><trkpt lat="42.81710771110873" lon="-2.333179449553569"><ele>1009.0</ele><time>2026-03-22T11:00:08.998Z</time></trkpt><trkpt lat="42.81725315871614" lon="-2.33300765463301"><ele>1009.0</ele><time>2026-03-22T11:00:09.998Z</time></trkpt><trkpt lat="42.81741439845769" lon="-2.3328419009996333"><ele>1009.0</ele><time>2026-03-22T11:00:10.998Z</time></trkpt><trkpt lat="42.817573992381234" lon="-2.33269631780118"><ele>1009.0</ele><time>2026-03-22T11:00:11.998Z</time></trkpt><trkpt lat="42.8177323520469" lon="-2.332553276743413"><ele>1001.6666666666666</ele><time>2026-03-22T11:00:12.998Z</time></trkpt><trkpt lat="42.81791125629802" lon="-2.33245212441311"><ele>994.3333333333333</ele><time>2026-03-22T11:00:13.998Z</time></trkpt><trkpt lat="42.81809807392466" lon="-2.3323777126319816"><ele>987.0</ele><time>2026-03-22T11:00:14.998Z</time></trkpt><trkpt lat="42.81829704407314" lon="-2.332304483026257"><ele>987.0</ele><time>2026-03-22T11:00:15.998Z</time></trkpt><trkpt lat="42.818498258332966" lon="-2.332243014002903"><ele>987.0</ele><time>2026-03-22T11:00:16.998Z</time></trkpt><trkpt lat="42.81869989413376" lon="-2.3321954219348253"><ele>987.0</ele><time>2026-03-22T11:00:17.998Z</time></trkpt><trkpt lat="42.81890776471529" lon="-2.332182148890935"><ele>987.0</ele><time>2026-03-22T11:00:18.998Z</time></trkpt><trkpt lat="42.8191079913394" lon="-2.3321585298957714"><ele>987.0</ele><time>2026-03-22T11:00:19.998Z</time></trkpt><trkpt lat="42.81928656995999" lon="-2.3321202945390054"><ele>987.0</ele><time>2026-03-22T11:00:20.998Z</time></trkpt><trkpt lat="42.81943532373459" lon="-2.3321036030265443"><ele>985.6</ele><time>2026-03-22T11:00:21.998Z</time></trkpt><trkpt lat="42.81956296431693" lon="-2.3320853305838507"><ele>984.2</ele><time>2026-03-22T11:00:22.998Z</time></trkpt><trkpt lat="42.819672516590956" lon="-2.332075142655133"><ele>982.8</ele><time>2026-03-22T11:00:23.998Z</time></trkpt><trkpt lat="42.81975035539943" lon="-2.3320763167901473"><ele>981.4</ele><time>2026-03-22T11:00:25Z</time></trkpt><trkpt lat="42.81982027117164" lon="-2.332097956830878"><ele>980.0</ele><time>2026-03-22T11:00:26Z</time></trkpt><trkpt lat="42.81988276471166" lon="-2.332170598420323"><ele>977.5000000000001</ele><time>2026-03-22T11:00:27Z</time></trkpt><trkpt lat="42.81991348953096" lon="-2.332276066172704"><ele>975.0</ele><time>2026-03-22T11:00:28Z</time></trkpt><trkpt lat="42.81988927801829" lon="-2.3323950855214317"><ele>972.5</ele><time>2026-03-22T11:00:29Z</time></trkpt><trkpt lat="42.81982002435138" lon="-2.3324620500449735"><ele>970.0</ele><time>2026-03-22T11:00:30Z</time></trkpt><trkpt lat="42.81975221294802" lon="-2.3325076400499856"><ele>967.5000000000001</ele><time>2026-03-22T11:00:31Z</time></trkpt><trkpt lat="42.8196678695754" lon="-2.3325576970588893"><ele>965.0</ele><time>2026-03-22T11:00:32Z</time></trkpt><trkpt lat="42.8195616274551" lon="-2.332612802503239"><ele>965.0</ele><time>2026-03-22T11:00:33Z</time></trkpt><trkpt lat="42.81944551969984" lon="-2.332682904841214"><ele>965.0</ele><time>2026-03-22T11:00:34Z</time></trkpt><trkpt lat="42.81933795684389" lon="-2.3327606426177647"><ele>965.0</ele><time>2026-03-22T11:00:35Z</time></trkpt><trkpt lat="42.819252762199916" lon="-2.3328474493153024"><ele>965.0</ele><time>2026-03-22T11:00:36Z</time></trkpt><trkpt lat="42.819201235502035" lon="-2.3329409147617604"><ele>965.0</ele><time>2026-03-22T11:00:37Z</time></trkpt><trkpt lat="42.81918343968249" lon="-2.3330427093769135"><ele>964.6</ele><time>2026-03-22T11:00:38Z</time></trkpt><trkpt lat="42.81919901607468" lon="-2.3331495994236"><ele>964.2</ele><time>2026-03-22T11:00:39Z</time></trkpt><trkpt lat="42.819250350462056" lon="-2.333243060651245"><ele>963.8</ele><time>2026-03-22T11:00:40Z</time></trkpt><trkpt lat="42.819331137597544" lon="-2.3333084546565566"><ele>963.4</ele><time>2026-03-22T11:00:41Z</time></trkpt><trkpt lat="42.81943336087529" lon="-2.3333357638151075"><ele>963.0</ele><time>2026-03-22T11:00:42Z</time></trkpt><trkpt lat="42.8195561835106" lon="-2.33331228909536"><ele>961.25</ele><time>2026-03-22T11:00:43Z</time></trkpt><trkpt lat="42.819689193879825" lon="-2.333304226384008"><ele>959.5</ele><time>2026-03-22T11:00:44Z</time></trkpt><trkpt lat="42.81982902107785" lon="-2.333269883389653"><ele>957.75</ele><time>2026-03-22T11:00:45Z</time></trkpt><trkpt lat="42.81996800693298" lon="-2.3332131776595104"><ele>956.0</ele><time>2026-03-22T11:00:46Z</time></trkpt><trkpt lat="42.820113051637485" lon="-2.333153920868875"><ele>953.0</ele><time>2026-03-22T11:00:47Z</time></trkpt><trkpt lat="42.82025040439832" lon="-2.3330675476224507"><ele>950.0</ele><time>2026-03-22T11:00:48Z</time></trkpt><trkpt lat="42.8203732924431" lon="-2.332930935728053"><ele>947.0</ele><time>2026-03-22T11:00:49Z</time></trkpt><trkpt lat="42.82048028460736" lon="-2.3327926274658974"><ele>947.0</ele><time>2026-03-22T11:00:50Z</time></trkpt><trkpt lat="42.820561758745434" lon="-2.332647129427095"><ele>947.0</ele><time>2026-03-22T11:00:51Z</time></trkpt><trkpt lat="42.82061851536001" lon="-2.3324950850321695"><ele>947.0</ele><time>2026-03-22T11:00:52Z</time></trkpt><trkpt lat="42.82065897138855" lon="-2.3323395887346106"><ele>947.0</ele><time>2026-03-22T11:00:53Z</time></trkpt><trkpt lat="42.82070067213581" lon="-2.3321969166125336"><ele>948.6</ele><time>2026-03-22T11:00:54Z</time></trkpt><trkpt lat="42.82073912412464" lon="-2.332065489420806"><ele>950.2</ele><time>2026-03-22T11:00:55Z</time></trkpt><trkpt lat="42.82078079561372" lon="-2.3319427787153955"><ele>951.8</ele><time>2026-03-22T11:00:56Z</time></trkpt><trkpt lat="42.82081724305563" lon="-2.331836421955607"><ele>953.4</ele><time>2026-03-22T11:00:57Z</time></trkpt><trkpt lat="42.820849623054514" lon="-2.3317595325288436"><ele>955.0</ele><time>2026-03-22T11:00:57.999Z</time></trkpt><trkpt lat="42.820943765825234" lon="-2.3317139532131357"><ele>955.0</ele><time>2026-03-22T11:00:59.999Z</time></trkpt><trkpt lat="42.82103502278469" lon="-2.331799136016585"><ele>955.0</ele><time>2026-03-22T11:01:01.999Z</time></trkpt><trkpt lat="42.82103195578659" lon="-2.331904963238808"><ele>955.0</ele><time>2026-03-22T11:01:02.999Z</time></trkpt><trkpt lat="42.820993059524895" lon="-2.3320113577770045"><ele>955.0</ele><time>2026-03-22T11:01:03.999Z</time></trkpt><trkpt lat="42.82097376545539" lon="-2.33214065345276"><ele>955.0</ele><time>2026-03-22T11:01:04.999Z</time></trkpt><trkpt lat="42.820954966429056" lon="-2.3322888190084194"><ele>953.0</ele><time>2026-03-22T11:01:05.999Z</time></trkpt><trkpt lat="42.82095275829157" lon="-2.332459224548637"><ele>951.0</ele><time>2026-03-22T11:01:06.999Z</time></trkpt><trkpt lat="42.82095207179477" lon="-2.332655357329943"><ele>949.0</ele><time>2026-03-22T11:01:07.999Z</time></trkpt><trkpt lat="42.820955169260436" lon="-2.3328639192399017"><ele>947.0</ele><time>2026-03-22T11:01:08.999Z</time></trkpt><trkpt lat="42.82095524082194" lon="-2.333069301764199"><ele>945.6666666666667</ele><time>2026-03-22T11:01:09.999Z</time></trkpt><trkpt lat="42.82096438807853" lon="-2.3332936009571843"><ele>944.3333333333333</ele><time>2026-03-22T11:01:10.999Z</time></trkpt><trkpt lat="42.820973702071946" lon="-2.33352785074944"><ele>943.0</ele><time>2026-03-22T11:01:11.999Z</time></trkpt><trkpt lat="42.82097936633467" lon="-2.333780890343074"><ele>941.0</ele><time>2026-03-22T11:01:12.999Z</time></trkpt><trkpt lat="42.82099292419898" lon="-2.334046465704783"><ele>939.0</ele><time>2026-03-22T11:01:13.999Z</time></trkpt><trkpt lat="42.82098058428832" lon="-2.33432372688235"><ele>937.0</ele><time>2026-03-22T11:01:14.999Z</time></trkpt><trkpt lat="42.82096487830982" lon="-2.334607549634436"><ele>933.5</ele><time>2026-03-22T11:01:15.999Z</time></trkpt><trkpt lat="42.82094612552366" lon="-2.334908728972252"><ele>930.0</ele><time>2026-03-22T11:01:16.999Z</time></trkpt><trkpt lat="42.82092808219713" lon="-2.3352213741531087"><ele>930.0</ele><time>2026-03-22T11:01:17.999Z</time></trkpt><trkpt lat="42.82091130055697" lon="-2.3355302760503287"><ele>930.0</ele><time>2026-03-22T11:01:18.999Z</time></trkpt><trkpt lat="42.82089420027275" lon="-2.335819987515032"><ele>930.0</ele><time>2026-03-22T11:01:19.999Z</time></trkpt><trkpt lat="42.82087787499899" lon="-2.3360965693787366"><ele>929.0</ele><time>2026-03-22T11:01:20.999Z</time></trkpt><trkpt lat="42.820862492422606" lon="-2.3363571798018894"><ele>928.0</ele><time>2026-03-22T11:01:21.999Z</time></trkpt><trkpt lat="42.82084853448583" lon="-2.3365943484508507"><ele>927.0</ele><time>2026-03-22T11:01:22.999Z</time></trkpt><trkpt lat="42.82083393263076" lon="-2.33680495869094"><ele>926.5</ele><time>2026-03-22T11:01:23.999Z</time></trkpt><trkpt lat="42.82080646979927" lon="-2.336987493192255"><ele>926.0</ele><time>2026-03-22T11:01:24.999Z</time></trkpt><trkpt lat="42.82079593458324" lon="-2.3371567608381123"><ele>925.5</ele><time>2026-03-22T11:01:25.999Z</time></trkpt><trkpt lat="42.820774082109196" lon="-2.3373208350029335"><ele>925.0</ele><time>2026-03-22T11:01:26.999Z</time></trkpt><trkpt lat="42.82072436217854" lon="-2.33747999052688"><ele>923.0</ele><time>2026-03-22T11:01:27.999Z</time></trkpt><trkpt lat="42.82065834982841" lon="-2.3376384762731846"><ele>921.0</ele><time>2026-03-22T11:01:28.999Z</time></trkpt><trkpt lat="42.82055146766177" lon="-2.3377615400689304"><ele>919.0</ele><time>2026-03-22T11:01:29.999Z</time></trkpt><trkpt lat="42.820430662025046" lon="-2.337844855052523"><ele>917.0</ele><time>2026-03-22T11:01:30.999Z</time></trkpt><trkpt lat="42.820305654820615" lon="-2.337937627874713"><ele>917.0</ele><time>2026-03-22T11:01:31.999Z</time></trkpt><trkpt lat="42.82016480342949" lon="-2.338006117618642"><ele>917.0</ele><time>2026-03-22T11:01:32.999Z</time></trkpt><trkpt lat="42.820010969103805" lon="-2.3380424174519594"><ele>917.0</ele><time>2026-03-22T11:01:33.999Z</time></trkpt><trkpt lat="42.81985373451419" lon="-2.338081986615781"><ele>915.25</ele><time>2026-03-22T11:01:34.999Z</time></trkpt><trkpt lat="42.81970365587092" lon="-2.3381010747828133"><ele>913.5</ele><time>2026-03-22T11:01:35.999Z</time></trkpt><trkpt lat="42.81956755284295" lon="-2.338106297761488"><ele>911.75</ele><time>2026-03-22T11:01:36.999Z</time></trkpt><trkpt lat="42.81944925367072" lon="-2.338101218583427"><ele>910.0</ele><time>2026-03-22T11:01:37.999Z</time></trkpt><trkpt lat="42.81934576244562" lon="-2.33808241544729"><ele>909.9999999999999</ele><time>2026-03-22T11:01:38.999Z</time></trkpt><trkpt lat="42.81925951500847" lon="-2.3380710984451296"><ele>910.0</ele><time>2026-03-22T11:01:39.999Z</time></trkpt><trkpt lat="42.81917929392245" lon="-2.3380668844598564"><ele>910.0</ele><time>2026-03-22T11:01:40.999Z</time></trkpt><trkpt lat="42.819118371833476" lon="-2.338117067887233"><ele>910.0</ele><time>2026-03-22T11:01:41.999Z</time></trkpt><trkpt lat="42.819067030482316" lon="-2.338261883434315"><ele>909.9999999999999</ele><time>2026-03-22T11:01:43.999Z</time></trkpt><trkpt lat="42.81908808647483" lon="-2.3383547916890506"><ele>910.0</ele><time>2026-03-22T11:01:44.999Z</time></trkpt><trkpt lat="42.81914393612004" lon="-2.3384254784912604"><ele>910.0</ele><time>2026-03-22T11:01:45.999Z</time></trkpt><trkpt lat="42.81920383563901" lon="-2.3385156641675695"><ele>910.0</ele><time>2026-03-22T11:01:46.999Z</time></trkpt><trkpt lat="42.819299350585716" lon="-2.3385825867006713"><ele>910.0</ele><time>2026-03-22T11:01:47.999Z</time></trkpt><trkpt lat="42.8194171021367" lon="-2.3386346337096064"><ele>910.0</ele><time>2026-03-22T11:01:48.999Z</time></trkpt><trkpt lat="42.819545267905376" lon="-2.338670234323918"><ele>910.0</ele><time>2026-03-22T11:01:49.999Z</time></trkpt><trkpt lat="42.8196730575999" lon="-2.33869871389973"><ele>910.0</ele><time>2026-03-22T11:01:50.999Z</time></trkpt><trkpt lat="42.8198009226754" lon="-2.338731946108108"><ele>910.0</ele><time>2026-03-22T11:01:51.999Z</time></trkpt><trkpt lat="42.819923579954484" lon="-2.33879177906348"><ele>910.0</ele><time>2026-03-22T11:01:52.999Z</time></trkpt><trkpt lat="42.82004006790973" lon="-2.338894969164689"><ele>903.6666666666666</ele><time>2026-03-22T11:01:53.999Z</time></trkpt><trkpt lat="42.820145979149565" lon="-2.3390394368303533"><ele>897.3333333333333</ele><time>2026-03-22T11:01:54.999Z</time></trkpt><trkpt lat="42.82024255618303" lon="-2.3392078077012095"><ele>891.0</ele><time>2026-03-22T11:01:55.999Z</time></trkpt><trkpt lat="42.82034799609994" lon="-2.3393632765628456"><ele>890.4</ele><time>2026-03-22T11:01:56.999Z</time></trkpt><trkpt lat="42.82043116792721" lon="-2.3395194512496023"><ele>889.8</ele><time>2026-03-22T11:01:57.999Z</time></trkpt><trkpt lat="42.820494091890865" lon="-2.3396575436827365"><ele>889.1999999999999</ele><time>2026-03-22T11:01:58.999Z</time></trkpt><trkpt lat="42.82053650753421" lon="-2.3397761037244837"><ele>888.5999999999999</ele><time>2026-03-22T11:01:59.999Z</time></trkpt><trkpt lat="42.82059503353395" lon="-2.339841551087283"><ele>888.0</ele><time>2026-03-22T11:02:00.999Z</time></trkpt><trkpt lat="42.820662277246235" lon="-2.339869018495911"><ele>888.0</ele><time>2026-03-22T11:02:01.999Z</time></trkpt><trkpt lat="42.82073402376261" lon="-2.3398517730654684"><ele>888.0</ele><time>2026-03-22T11:02:02.999Z</time></trkpt><trkpt lat="42.8208095625667" lon="-2.339801626365195"><ele>888.0</ele><time>2026-03-22T11:02:03.999Z</time></trkpt><trkpt lat="42.82088691917669" lon="-2.339731036935102"><ele>888.0</ele><time>2026-03-22T11:02:04.999Z</time></trkpt><trkpt lat="42.820970095886494" lon="-2.3396498514725446"><ele>888.0</ele><time>2026-03-22T11:02:05.999Z</time></trkpt><trkpt lat="42.82106150588046" lon="-2.339567144525013"><ele>885.25</ele><time>2026-03-22T11:02:06.998Z</time></trkpt><trkpt lat="42.82115967893058" lon="-2.339484043271283"><ele>882.5</ele><time>2026-03-22T11:02:07.998Z</time></trkpt><trkpt lat="42.82126786379236" lon="-2.3393927526856464"><ele>879.75</ele><time>2026-03-22T11:02:08.998Z</time></trkpt><trkpt lat="42.821380869957615" lon="-2.339294090846447"><ele>877.0</ele><time>2026-03-22T11:02:09.998Z</time></trkpt><trkpt lat="42.8214908378597" lon="-2.3392005567772807"><ele>877.0</ele><time>2026-03-22T11:02:10.998Z</time></trkpt><trkpt lat="42.82159820551879" lon="-2.339122573768459"><ele>877.0</ele><time>2026-03-22T11:02:11.998Z</time></trkpt><trkpt lat="42.82171639033579" lon="-2.3390752955164618"><ele>877.0</ele><time>2026-03-22T11:02:12.998Z</time></trkpt><trkpt lat="42.82185284492524" lon="-2.3390538617190075"><ele>877.0</ele><time>2026-03-22T11:02:13.998Z</time></trkpt><trkpt lat="42.822012694586576" lon="-2.339070768493513"><ele>872.6666666666666</ele><time>2026-03-22T11:02:14.998Z</time></trkpt><trkpt lat="42.82217987997512" lon="-2.3391186789388585"><ele>868.3333333333333</ele><time>2026-03-22T11:02:15.998Z</time></trkpt><trkpt lat="42.82236082987692" lon="-2.3391695923779667"><ele>864.0</ele><time>2026-03-22T11:02:16.998Z</time></trkpt><trkpt lat="42.82255978382678" lon="-2.3391971470364568"><ele>862.0</ele><time>2026-03-22T11:02:17.998Z</time></trkpt><trkpt lat="42.822771842465755" lon="-2.3391756658149134"><ele>860.0</ele><time>2026-03-22T11:02:18.998Z</time></trkpt><trkpt lat="42.8229776155398" lon="-2.339173525048533"><ele>858.0</ele><time>2026-03-22T11:02:19.998Z</time></trkpt><trkpt lat="42.82318387313631" lon="-2.339203817809192"><ele>858.0</ele><time>2026-03-22T11:02:20.998Z</time></trkpt><trkpt lat="42.82339550837073" lon="-2.3392310009137787"><ele>858.0</ele><time>2026-03-22T11:02:21.998Z</time></trkpt><trkpt lat="42.823591165656964" lon="-2.3392636997889644"><ele>858.0</ele><time>2026-03-22T11:02:22.998Z</time></trkpt><trkpt lat="42.82377027410327" lon="-2.3392926315798994"><ele>856.0</ele><time>2026-03-22T11:02:23.998Z</time></trkpt><trkpt lat="42.82393740156389" lon="-2.339336193304683"><ele>854.0</ele><time>2026-03-22T11:02:24.998Z</time></trkpt><trkpt lat="42.82409541147965" lon="-2.339397888599698"><ele>852.0</ele><time>2026-03-22T11:02:25.998Z</time></trkpt><trkpt lat="42.82424389053454" lon="-2.3394762931228676"><ele>851.25</ele><time>2026-03-22T11:02:26.998Z</time></trkpt><trkpt lat="42.8243740429368" lon="-2.339546806037011"><ele>850.5</ele><time>2026-03-22T11:02:27.998Z</time></trkpt><trkpt lat="42.82449705855935" lon="-2.3396006812381276"><ele>849.75</ele><time>2026-03-22T11:02:28.998Z</time></trkpt><trkpt lat="42.824611338146525" lon="-2.339646528688114"><ele>849.0</ele><time>2026-03-22T11:02:29.998Z</time></trkpt><trkpt lat="42.82470745494471" lon="-2.339702657832749"><ele>847.5</ele><time>2026-03-22T11:02:31Z</time></trkpt><trkpt lat="42.82477427233813" lon="-2.339775973723716"><ele>846.0</ele><time>2026-03-22T11:02:32Z</time></trkpt><trkpt lat="42.82482919093953" lon="-2.339853536699828"><ele>844.5</ele><time>2026-03-22T11:02:33Z</time></trkpt><trkpt lat="42.8248485413461" lon="-2.339956942376121"><ele>843.0</ele><time>2026-03-22T11:02:34Z</time></trkpt><trkpt lat="42.82483278175819" lon="-2.340076718947312"><ele>841.5</ele><time>2026-03-22T11:02:35Z</time></trkpt><trkpt lat="42.82476497990748" lon="-2.340197429423274"><ele>840.0</ele><time>2026-03-22T11:02:36Z</time></trkpt><trkpt lat="42.824662923188065" lon="-2.3402887591313273"><ele>840.0</ele><time>2026-03-22T11:02:37Z</time></trkpt><trkpt lat="42.82454297903938" lon="-2.3403692577628776"><ele>840.0</ele><time>2026-03-22T11:02:38Z</time></trkpt><trkpt lat="42.82441534783645" lon="-2.3404694975791664"><ele>840.0</ele><time>2026-03-22T11:02:39Z</time></trkpt><trkpt lat="42.824300405270996" lon="-2.3406070568077997"><ele>840.0</ele><time>2026-03-22T11:02:40Z</time></trkpt><trkpt lat="42.82422282150885" lon="-2.340804090076639"><ele>836.6666666666667</ele><time>2026-03-22T11:02:41Z</time></trkpt><trkpt lat="42.82414071833009" lon="-2.3410706502507335"><ele>833.3333333333334</ele><time>2026-03-22T11:02:42Z</time></trkpt><trkpt lat="42.82403047586315" lon="-2.34135533342847"><ele>830.0</ele><time>2026-03-22T11:02:43Z</time></trkpt><trkpt lat="42.823907864396446" lon="-2.341650443595688"><ele>828.0</ele><time>2026-03-22T11:02:44Z</time></trkpt><trkpt lat="42.82376959224289" lon="-2.341905834919644"><ele>826.0</ele><time>2026-03-22T11:02:45Z</time></trkpt><trkpt lat="42.82365799542388" lon="-2.342135143469406"><ele>824.0</ele><time>2026-03-22T11:02:46Z</time></trkpt><trkpt lat="42.82356763280519" lon="-2.342367636039344"><ele>824.3333333333334</ele><time>2026-03-22T11:02:47Z</time></trkpt><trkpt lat="42.823480372450845" lon="-2.3425933201846156"><ele>824.6666666666667</ele><time>2026-03-22T11:02:48Z</time></trkpt><trkpt lat="42.8233750676995" lon="-2.3427953951172533"><ele>825.0</ele><time>2026-03-22T11:02:49Z</time></trkpt><trkpt lat="42.823255864858055" lon="-2.3429561935123355"><ele>823.75</ele><time>2026-03-22T11:02:50Z</time></trkpt><trkpt lat="42.82312904053779" lon="-2.343081733058071"><ele>822.5</ele><time>2026-03-22T11:02:51Z</time></trkpt><trkpt lat="42.82299541541382" lon="-2.343168658419385"><ele>821.25</ele><time>2026-03-22T11:02:52Z</time></trkpt><trkpt lat="42.822872064361256" lon="-2.343222674301084"><ele>820.0</ele><time>2026-03-22T11:02:53Z</time></trkpt><trkpt lat="42.822782089302336" lon="-2.34323971554479"><ele>820.0</ele><time>2026-03-22T11:02:54Z</time></trkpt><trkpt lat="42.8227186751272" lon="-2.3432674456928226"><ele>820.0</ele><time>2026-03-22T11:02:55Z</time></trkpt><trkpt lat="42.82260311946179" lon="-2.3432708802798317"><ele>820.0</ele><time>2026-03-22T11:02:57Z</time></trkpt><trkpt lat="42.82252249117819" lon="-2.3432739466857497"><ele>820.0</ele><time>2026-03-22T11:02:58Z</time></trkpt><trkpt lat="42.82242751729246" lon="-2.343262023821954"><ele>820.0</ele><time>2026-03-22T11:02:59Z</time></trkpt><trkpt lat="42.82231387369118" lon="-2.343240803591245"><ele>820.25</ele><time>2026-03-22T11:03:00Z</time></trkpt><trkpt lat="42.82218518966116" lon="-2.3432098418354386"><ele>820.5</ele><time>2026-03-22T11:03:01Z</time></trkpt><trkpt lat="42.82204643718535" lon="-2.3431731260204303"><ele>820.75</ele><time>2026-03-22T11:03:02Z</time></trkpt><trkpt lat="42.82190183338295" lon="-2.343113460331358"><ele>821.0</ele><time>2026-03-22T11:03:03Z</time></trkpt><trkpt lat="42.821749530327274" lon="-2.3430795917494436"><ele>821.0</ele><time>2026-03-22T11:03:04Z</time></trkpt><trkpt lat="42.82161422191498" lon="-2.343039652782355"><ele>821.0</ele><time>2026-03-22T11:03:05Z</time></trkpt><trkpt lat="42.821485359953364" lon="-2.343017906130979"><ele>821.0</ele><time>2026-03-22T11:03:06Z</time></trkpt><trkpt lat="42.82137186204298" lon="-2.343030213085529"><ele>821.0</ele><time>2026-03-22T11:03:06.999Z</time></trkpt><trkpt lat="42.82127765773465" lon="-2.3431104048814158"><ele>821.0</ele><time>2026-03-22T11:03:07.999Z</time></trkpt><trkpt lat="42.82118424043399" lon="-2.3432026863892963"><ele>821.0</ele><time>2026-03-22T11:03:08.999Z</time></trkpt><trkpt lat="42.82110876121226" lon="-2.343343290387371"><ele>821.0</ele><time>2026-03-22T11:03:09.999Z</time></trkpt><trkpt lat="42.82105535099199" lon="-2.343498901011766"><ele>821.0</ele><time>2026-03-22T11:03:10.999Z</time></trkpt><trkpt lat="42.82104177846722" lon="-2.3436634779826564"><ele>821.0</ele><time>2026-03-22T11:03:11.999Z</time></trkpt><trkpt lat="42.821063351649144" lon="-2.343835226349535"><ele>821.0</ele><time>2026-03-22T11:03:12.999Z</time></trkpt><trkpt lat="42.82111197865196" lon="-2.344019998417109"><ele>821.0</ele><time>2026-03-22T11:03:13.999Z</time></trkpt><trkpt lat="42.82115600826917" lon="-2.3442320903416416"><ele>821.0</ele><time>2026-03-22T11:03:14.999Z</time></trkpt><trkpt lat="42.8211677672736" lon="-2.3444745606594792"><ele>812.3333333333334</ele><time>2026-03-22T11:03:15.999Z</time></trkpt><trkpt lat="42.8212093930143" lon="-2.344728005915628"><ele>803.6666666666667</ele><time>2026-03-22T11:03:16.999Z</time></trkpt><trkpt lat="42.82124146955466" lon="-2.344993790143972"><ele>795.0</ele><time>2026-03-22T11:03:17.999Z</time></trkpt><trkpt lat="42.82126943139693" lon="-2.3452713448343183"><ele>793.0</ele><time>2026-03-22T11:03:18.999Z</time></trkpt><trkpt lat="42.82128944084798" lon="-2.345557980008435"><ele>791.0</ele><time>2026-03-22T11:03:19.999Z</time></trkpt><trkpt lat="42.82130431043149" lon="-2.3458466468965216"><ele>789.0</ele><time>2026-03-22T11:03:20.999Z</time></trkpt><trkpt lat="42.821307642864944" lon="-2.3461287446818324"><ele>788.0</ele><time>2026-03-22T11:03:21.999Z</time></trkpt><trkpt lat="42.821325122518985" lon="-2.3463946388906103"><ele>787.0</ele><time>2026-03-22T11:03:22.999Z</time></trkpt><trkpt lat="42.821350869985324" lon="-2.3466470855235526"><ele>786.0</ele><time>2026-03-22T11:03:23.999Z</time></trkpt><trkpt lat="42.82136795460241" lon="-2.346879884908101"><ele>786.0</ele><time>2026-03-22T11:03:24.999Z</time></trkpt><trkpt lat="42.82135771844083" lon="-2.3471048561007546"><ele>786.0</ele><time>2026-03-22T11:03:25.999Z</time></trkpt><trkpt lat="42.82134156856373" lon="-2.3473107937077144"><ele>786.0</ele><time>2026-03-22T11:03:26.999Z</time></trkpt><trkpt lat="42.82133354538183" lon="-2.3475154194131314"><ele>785.5</ele><time>2026-03-22T11:03:27.999Z</time></trkpt><trkpt lat="42.82134809928604" lon="-2.3477111973533638"><ele>785.0</ele><time>2026-03-22T11:03:28.999Z</time></trkpt><trkpt lat="42.821382156496085" lon="-2.3479053461128525"><ele>784.5</ele><time>2026-03-22T11:03:29.999Z</time></trkpt><trkpt lat="42.82140731061932" lon="-2.348105832940811"><ele>784.0</ele><time>2026-03-22T11:03:30.999Z</time></trkpt><trkpt lat="42.82141995534679" lon="-2.3483135632469754"><ele>782.3333333333333</ele><time>2026-03-22T11:03:31.999Z</time></trkpt><trkpt lat="42.821424251222496" lon="-2.34854146479146"><ele>780.6666666666667</ele><time>2026-03-22T11:03:32.999Z</time></trkpt><trkpt lat="42.82141869797665" lon="-2.3487858372465737"><ele>779.0</ele><time>2026-03-22T11:03:33.999Z</time></trkpt><trkpt lat="42.82138081926039" lon="-2.3490445039205783"><ele>774.6666666666667</ele><time>2026-03-22T11:03:34.999Z</time></trkpt><trkpt lat="42.8213079683317" lon="-2.349293690569567"><ele>770.3333333333334</ele><time>2026-03-22T11:03:35.999Z</time></trkpt><trkpt lat="42.82126925967303" lon="-2.3495645649270385"><ele>766.0</ele><time>2026-03-22T11:03:36.999Z</time></trkpt><trkpt lat="42.82125257462944" lon="-2.3498611942259937"><ele>763.0</ele><time>2026-03-22T11:03:37.999Z</time></trkpt><trkpt lat="42.821230263225736" lon="-2.3501590999870707"><ele>760.0</ele><time>2026-03-22T11:03:38.999Z</time></trkpt><trkpt lat="42.821210051682435" lon="-2.3504289669543024"><ele>757.0</ele><time>2026-03-22T11:03:39.999Z</time></trkpt><trkpt lat="42.821193580238166" lon="-2.350681896133782"><ele>753.0</ele><time>2026-03-22T11:03:40.999Z</time></trkpt><trkpt lat="42.821158175138905" lon="-2.35092887726848"><ele>749.0</ele><time>2026-03-22T11:03:41.999Z</time></trkpt><trkpt lat="42.82110553458157" lon="-2.3511699225019966"><ele>745.0</ele><time>2026-03-22T11:03:42.999Z</time></trkpt><trkpt lat="42.821045427983314" lon="-2.351394457335674"><ele>749.6666666666667</ele><time>2026-03-22T11:03:43.999Z</time></trkpt><trkpt lat="42.82097984061162" lon="-2.3515882933153542"><ele>754.3333333333334</ele><time>2026-03-22T11:03:44.999Z</time></trkpt><trkpt lat="42.820897156901886" lon="-2.351759341807581"><ele>759.0</ele><time>2026-03-22T11:03:45.999Z</time></trkpt><trkpt lat="42.82079005272777" lon="-2.3518989310077036"><ele>759.0</ele><time>2026-03-22T11:03:46.999Z</time></trkpt><trkpt lat="42.82066909971319" lon="-2.3520038971306"><ele>759.0</ele><time>2026-03-22T11:03:47.999Z</time></trkpt><trkpt lat="42.8205409408048" lon="-2.3520994657169507"><ele>759.0</ele><time>2026-03-22T11:03:48.999Z</time></trkpt><trkpt lat="42.820414823583334" lon="-2.3522000946274"><ele>759.0</ele><time>2026-03-22T11:03:49.999Z</time></trkpt><trkpt lat="42.820304904783896" lon="-2.352298570988078"><ele>759.25</ele><time>2026-03-22T11:03:50.999Z</time></trkpt><trkpt lat="42.820209808096735" lon="-2.352409601936905"><ele>759.5</ele><time>2026-03-22T11:03:51.999Z</time></trkpt><trkpt lat="42.82013764778323" lon="-2.352536205600855"><ele>759.75</ele><time>2026-03-22T11:03:52.999Z</time></trkpt><trkpt lat="42.82009988472262" lon="-2.3526772459910545"><ele>760.0</ele><time>2026-03-22T11:03:53.999Z</time></trkpt><trkpt lat="42.820075859441054" lon="-2.3528297970401124"><ele>760.0</ele><time>2026-03-22T11:03:54.999Z</time></trkpt><trkpt lat="42.82008010510907" lon="-2.3529874286957897"><ele>760.0</ele><time>2026-03-22T11:03:55.999Z</time></trkpt><trkpt lat="42.82012583543165" lon="-2.3531493401645442"><ele>760.0</ele><time>2026-03-22T11:03:56.999Z</time></trkpt><trkpt lat="42.82020550878635" lon="-2.3533016924178414"><ele>760.0</ele><time>2026-03-22T11:03:57.999Z</time></trkpt><trkpt lat="42.82029575263" lon="-2.353470936715849"><ele>754.3333333333334</ele><time>2026-03-22T11:03:58.999Z</time></trkpt><trkpt lat="42.820376403483145" lon="-2.3536601371092827"><ele>748.6666666666666</ele><time>2026-03-22T11:03:59.999Z</time></trkpt><trkpt lat="42.820477406929065" lon="-2.3538460334234688"><ele>743.0</ele><time>2026-03-22T11:04:00.999Z</time></trkpt><trkpt lat="42.82054634805174" lon="-2.354069727628904"><ele>743.0</ele><time>2026-03-22T11:04:01.999Z</time></trkpt><trkpt lat="42.82059834264004" lon="-2.354299277968579"><ele>743.0</ele><time>2026-03-22T11:04:02.999Z</time></trkpt><trkpt lat="42.820646057936244" lon="-2.35449554053316"><ele>743.0</ele><time>2026-03-22T11:04:03.999Z</time></trkpt><trkpt lat="42.82069917045035" lon="-2.354667188412329"><ele>743.75</ele><time>2026-03-22T11:04:04.999Z</time></trkpt><trkpt lat="42.820783382686244" lon="-2.354792649094996"><ele>744.5</ele><time>2026-03-22T11:04:05.999Z</time></trkpt><trkpt lat="42.820885447218984" lon="-2.3548853430546277"><ele>745.25</ele><time>2026-03-22T11:04:06.999Z</time></trkpt><trkpt lat="42.82100541220288" lon="-2.354932537556266"><ele>746.0</ele><time>2026-03-22T11:04:07.999Z</time></trkpt><trkpt lat="42.82114444945362" lon="-2.3549723283210344"><ele>742.0</ele><time>2026-03-22T11:04:08.999Z</time></trkpt><trkpt lat="42.82130250401879" lon="-2.3549661010632064"><ele>738.0</ele><time>2026-03-22T11:04:09.999Z</time></trkpt><trkpt lat="42.82147093520449" lon="-2.3549478450872807"><ele>734.0</ele><time>2026-03-22T11:04:10.999Z</time></trkpt><trkpt lat="42.82164966262645" lon="-2.3549306557412337"><ele>730.3333333333333</ele><time>2026-03-22T11:04:11.999Z</time></trkpt><trkpt lat="42.82183749805108" lon="-2.3549148786811447"><ele>726.6666666666666</ele><time>2026-03-22T11:04:12.999Z</time></trkpt><trkpt lat="42.82202812895765" lon="-2.354901434497515"><ele>723.0</ele><time>2026-03-22T11:04:13.999Z</time></trkpt><trkpt lat="42.82222574079638" lon="-2.3549029595140274"><ele>723.0</ele><time>2026-03-22T11:04:14.999Z</time></trkpt><trkpt lat="42.82243251418642" lon="-2.3549262968715725"><ele>723.0</ele><time>2026-03-22T11:04:15.999Z</time></trkpt><trkpt lat="42.82264735871043" lon="-2.3549748350197923"><ele>723.0</ele><time>2026-03-22T11:04:16.999Z</time></trkpt><trkpt lat="42.82286562907108" lon="-2.3550570456080266"><ele>714.0</ele><time>2026-03-22T11:04:17.999Z</time></trkpt><trkpt lat="42.82308545277314" lon="-2.3551524724809396"><ele>705.0</ele><time>2026-03-22T11:04:18.999Z</time></trkpt><trkpt lat="42.82330614371917" lon="-2.355241574180869"><ele>701.6666666666666</ele><time>2026-03-22T11:04:19.998Z</time></trkpt><trkpt lat="42.82352667839763" lon="-2.355328753295154"><ele>698.3333333333333</ele><time>2026-03-22T11:04:20.998Z</time></trkpt><trkpt lat="42.823733181338355" lon="-2.3554192573424784"><ele>695.0</ele><time>2026-03-22T11:04:21.998Z</time></trkpt><trkpt lat="42.82392890768672" lon="-2.3554987949526227"><ele>697.3333333333333</ele><time>2026-03-22T11:04:22.998Z</time></trkpt><trkpt lat="42.82411643882767" lon="-2.355574389695417"><ele>699.6666666666666</ele><time>2026-03-22T11:04:23.998Z</time></trkpt><trkpt lat="42.824292405232924" lon="-2.355649767045385"><ele>702.0</ele><time>2026-03-22T11:04:24.998Z</time></trkpt><trkpt lat="42.82445744106485" lon="-2.355740469219744"><ele>697.0</ele><time>2026-03-22T11:04:25.998Z</time></trkpt><trkpt lat="42.82461417804011" lon="-2.355862675268401"><ele>692.0</ele><time>2026-03-22T11:04:26.998Z</time></trkpt><trkpt lat="42.8247700866202" lon="-2.3560096053988206"><ele>687.0</ele><time>2026-03-22T11:04:27.998Z</time></trkpt><trkpt lat="42.82492408257896" lon="-2.356169082281743"><ele>687.0</ele><time>2026-03-22T11:04:28.998Z</time></trkpt><trkpt lat="42.82507112138444" lon="-2.3563056644138487"><ele>687.0</ele><time>2026-03-22T11:04:29.998Z</time></trkpt><trkpt lat="42.82520901127324" lon="-2.356413381543834"><ele>687.0</ele><time>2026-03-22T11:04:30.998Z</time></trkpt><trkpt lat="42.825330635743825" lon="-2.3565107670865664"><ele>684.0</ele><time>2026-03-22T11:04:31.998Z</time></trkpt><trkpt lat="42.82544500110699" lon="-2.356597380686574"><ele>681.0</ele><time>2026-03-22T11:04:32.998Z</time></trkpt><trkpt lat="42.82552184371174" lon="-2.3567508078104895"><ele>678.0</ele><time>2026-03-22T11:04:33.998Z</time></trkpt><trkpt lat="42.825582477501584" lon="-2.3568977878444985"><ele>675.0</ele><time>2026-03-22T11:04:34.998Z</time></trkpt><trkpt lat="42.82562579763111" lon="-2.357063140224864"><ele>675.5</ele><time>2026-03-22T11:04:35.998Z</time></trkpt><trkpt lat="42.82568645589583" lon="-2.3572357999324214"><ele>676.0</ele><time>2026-03-22T11:04:37Z</time></trkpt><trkpt lat="42.82572429842927" lon="-2.357428890282664"><ele>676.5</ele><time>2026-03-22T11:04:38Z</time></trkpt><trkpt lat="42.82581270741633" lon="-2.3575996993746116"><ele>677.0</ele><time>2026-03-22T11:04:39Z</time></trkpt><trkpt lat="42.82588962969717" lon="-2.3577842130402904"><ele>675.0</ele><time>2026-03-22T11:04:40Z</time></trkpt><trkpt lat="42.82600827934605" lon="-2.357943705138591"><ele>673.0</ele><time>2026-03-22T11:04:41Z</time></trkpt><trkpt lat="42.826138353562804" lon="-2.358092821720853"><ele>671.0</ele><time>2026-03-22T11:04:42Z</time></trkpt><trkpt lat="42.826273083188106" lon="-2.3582428630757537"><ele>671.0</ele><time>2026-03-22T11:04:43Z</time></trkpt><trkpt lat="42.82639665575261" lon="-2.3583802222715153"><ele>671.0</ele><time>2026-03-22T11:04:44Z</time></trkpt><trkpt lat="42.82651123150621" lon="-2.358509952648236"><ele>671.0</ele><time>2026-03-22T11:04:45Z</time></trkpt><trkpt lat="42.826627730153774" lon="-2.3586018342821324"><ele>671.0</ele><time>2026-03-22T11:04:46Z</time></trkpt><trkpt lat="42.82673199078728" lon="-2.3586904001798237"><ele>671.1999999999999</ele><time>2026-03-22T11:04:47Z</time></trkpt><trkpt lat="42.82683520514758" lon="-2.358755004693088"><ele>671.4</ele><time>2026-03-22T11:04:48Z</time></trkpt><trkpt lat="42.82692472025046" lon="-2.358815382629868"><ele>671.6</ele><time>2026-03-22T11:04:49Z</time></trkpt><trkpt lat="42.82699345602713" lon="-2.3588866100831263"><ele>671.8</ele><time>2026-03-22T11:04:50Z</time></trkpt><trkpt lat="42.82712756709737" lon="-2.3589688846707593"><ele>672.0</ele><time>2026-03-22T11:04:52Z</time></trkpt><trkpt lat="42.82719377250634" lon="-2.359010490003398"><ele>672.0</ele><time>2026-03-22T11:04:53Z</time></trkpt><trkpt lat="42.827267094714294" lon="-2.359020611029273"><ele>672.0</ele><time>2026-03-22T11:04:54Z</time></trkpt><trkpt lat="42.82733543835619" lon="-2.3590472760450347"><ele>672.0</ele><time>2026-03-22T11:04:55Z</time></trkpt><trkpt lat="42.82740515158127" lon="-2.359076018018068"><ele>672.0</ele><time>2026-03-22T11:04:56Z</time></trkpt><trkpt lat="42.82746657238945" lon="-2.3591232605299295"><ele>672.0</ele><time>2026-03-22T11:04:57Z</time></trkpt><trkpt lat="42.82757795595344" lon="-2.3591800830286185"><ele>672.0</ele><time>2026-03-22T11:04:59Z</time></trkpt><trkpt lat="42.82765657513255" lon="-2.3592260627301944"><ele>672.0</ele><time>2026-03-22T11:05:01Z</time></trkpt><trkpt lat="42.827570895709755" lon="-2.359472533957405"><ele>672.0</ele><time>2026-03-22T11:05:04Z</time></trkpt><trkpt lat="42.827469278324415" lon="-2.359577726557916"><ele>672.0</ele><time>2026-03-22T11:05:06Z</time></trkpt><trkpt lat="42.82736601318639" lon="-2.359661062636213"><ele>672.0</ele><time>2026-03-22T11:05:08Z</time></trkpt><trkpt lat="42.82727741404538" lon="-2.3597478396620986"><ele>671.8</ele><time>2026-03-22T11:05:10Z</time></trkpt><trkpt lat="42.82720270101383" lon="-2.359885652035612"><ele>671.6</ele><time>2026-03-22T11:05:12Z</time></trkpt><trkpt lat="42.827157694107896" lon="-2.35997616941093"><ele>671.4</ele><time>2026-03-22T11:05:13Z</time></trkpt><trkpt lat="42.82710355595205" lon="-2.3600795280721836"><ele>671.1999999999999</ele><time>2026-03-22T11:05:14Z</time></trkpt><trkpt lat="42.827047473161166" lon="-2.3601899207923784"><ele>671.0</ele><time>2026-03-22T11:05:15Z</time></trkpt><trkpt lat="42.82699161162708" lon="-2.3603034724981793"><ele>671.0</ele><time>2026-03-22T11:05:16Z</time></trkpt><trkpt lat="42.826931834167404" lon="-2.360428251636272"><ele>671.0</ele><time>2026-03-22T11:05:17Z</time></trkpt><trkpt lat="42.82686564131341" lon="-2.360563463180549"><ele>671.0</ele><time>2026-03-22T11:05:18Z</time></trkpt><trkpt lat="42.826793282690744" lon="-2.3607016186614342"><ele>671.0</ele><time>2026-03-22T11:05:19Z</time></trkpt><trkpt lat="42.826718627370234" lon="-2.360842547856537"><ele>669.1999999999999</ele><time>2026-03-22T11:05:20Z</time></trkpt><trkpt lat="42.826646169190695" lon="-2.360978295983521"><ele>667.4</ele><time>2026-03-22T11:05:20.999Z</time></trkpt><trkpt lat="42.826604505353444" lon="-2.3611188497187885"><ele>665.6</ele><time>2026-03-22T11:05:21.999Z</time></trkpt><trkpt lat="42.82656430412076" lon="-2.3612460498683765"><ele>663.8</ele><time>2026-03-22T11:05:22.999Z</time></trkpt><trkpt lat="42.82654151701666" lon="-2.3613696404581344"><ele>662.0</ele><time>2026-03-22T11:05:23.999Z</time></trkpt><trkpt lat="42.82654579101958" lon="-2.361490602422214"><ele>661.2</ele><time>2026-03-22T11:05:24.999Z</time></trkpt><trkpt lat="42.82656005915561" lon="-2.361610691580802"><ele>660.4000000000001</ele><time>2026-03-22T11:05:25.999Z</time></trkpt><trkpt lat="42.82659397258047" lon="-2.361726271020818"><ele>659.5999999999999</ele><time>2026-03-22T11:05:26.999Z</time></trkpt><trkpt lat="42.82663918281543" lon="-2.3618451543028325"><ele>658.8</ele><time>2026-03-22T11:05:27.999Z</time></trkpt><trkpt lat="42.826698250602746" lon="-2.361970607988861"><ele>658.0</ele><time>2026-03-22T11:05:28.999Z</time></trkpt><trkpt lat="42.82676383516046" lon="-2.3621044282262917"><ele>657.0</ele><time>2026-03-22T11:05:29.999Z</time></trkpt><trkpt lat="42.82682590839359" lon="-2.362253631640293"><ele>656.0</ele><time>2026-03-22T11:05:30.999Z</time></trkpt><trkpt lat="42.82689975012025" lon="-2.362404521513968"><ele>655.0</ele><time>2026-03-22T11:05:31.999Z</time></trkpt><trkpt lat="42.82697176689217" lon="-2.362563569687143"><ele>654.0</ele><time>2026-03-22T11:05:32.999Z</time></trkpt><trkpt lat="42.82704861465795" lon="-2.3627253909654624"><ele>654.0</ele><time>2026-03-22T11:05:33.999Z</time></trkpt><trkpt lat="42.82712777761574" lon="-2.3628909282497075"><ele>654.0</ele><time>2026-03-22T11:05:34.999Z</time></trkpt><trkpt lat="42.827209795075454" lon="-2.363057630013031"><ele>654.0</ele><time>2026-03-22T11:05:35.999Z</time></trkpt><trkpt lat="42.82728338457636" lon="-2.363210391697803"><ele>654.0</ele><time>2026-03-22T11:05:36.999Z</time></trkpt><trkpt lat="42.82735791137586" lon="-2.363368262753754"><ele>654.0</ele><time>2026-03-22T11:05:37.999Z</time></trkpt><trkpt lat="42.82743635183933" lon="-2.363537789664731"><ele>654.0</ele><time>2026-03-22T11:05:38.999Z</time></trkpt><trkpt lat="42.82751795009058" lon="-2.3637096460620617"><ele>654.0</ele><time>2026-03-22T11:05:39.999Z</time></trkpt><trkpt lat="42.827602330216294" lon="-2.36387842378707"><ele>654.0</ele><time>2026-03-22T11:05:40.999Z</time></trkpt><trkpt lat="42.82768977864885" lon="-2.3640500320850304"><ele>650.0</ele><time>2026-03-22T11:05:41.999Z</time></trkpt><trkpt lat="42.82777408509964" lon="-2.3642240725336894"><ele>646.0</ele><time>2026-03-22T11:05:42.999Z</time></trkpt><trkpt lat="42.82785672460679" lon="-2.3644019996520678"><ele>642.0</ele><time>2026-03-22T11:05:43.999Z</time></trkpt><trkpt lat="42.82793760877416" lon="-2.3645744385365925"><ele>642.5</ele><time>2026-03-22T11:05:44.999Z</time></trkpt><trkpt lat="42.82801649976868" lon="-2.364740737934113"><ele>643.0</ele><time>2026-03-22T11:05:45.999Z</time></trkpt><trkpt lat="42.82809547535282" lon="-2.3649037560198805"><ele>643.5</ele><time>2026-03-22T11:05:46.999Z</time></trkpt><trkpt lat="42.82817678238163" lon="-2.3650673870818864"><ele>644.0</ele><time>2026-03-22T11:05:47.999Z</time></trkpt><trkpt lat="42.82825864886062" lon="-2.3652339613855276"><ele>644.0</ele><time>2026-03-22T11:05:48.999Z</time></trkpt><trkpt lat="42.8283381315129" lon="-2.365402835764576"><ele>644.0</ele><time>2026-03-22T11:05:49.999Z</time></trkpt><trkpt lat="42.82842084880592" lon="-2.3655779993639956"><ele>644.0</ele><time>2026-03-22T11:05:50.999Z</time></trkpt><trkpt lat="42.828503120081926" lon="-2.3657531187444856"><ele>641.6666666666666</ele><time>2026-03-22T11:05:51.999Z</time></trkpt><trkpt lat="42.82858843583021" lon="-2.3659274403282615"><ele>639.3333333333334</ele><time>2026-03-22T11:05:52.999Z</time></trkpt><trkpt lat="42.82867483408074" lon="-2.3661030140966117"><ele>637.0</ele><time>2026-03-22T11:05:53.999Z</time></trkpt><trkpt lat="42.82875838950371" lon="-2.366277070308542"><ele>638.0</ele><time>2026-03-22T11:05:54.999Z</time></trkpt><trkpt lat="42.82884143472328" lon="-2.3664530074846897"><ele>639.0</ele><time>2026-03-22T11:05:55.999Z</time></trkpt><trkpt lat="42.82892616194722" lon="-2.3666246010126284"><ele>640.0</ele><time>2026-03-22T11:05:56.999Z</time></trkpt><trkpt lat="42.82900835447912" lon="-2.3667894527098814"><ele>640.0</ele><time>2026-03-22T11:05:57.999Z</time></trkpt><trkpt lat="42.82908623153231" lon="-2.366942936907781"><ele>640.0</ele><time>2026-03-22T11:05:58.999Z</time></trkpt><trkpt lat="42.829160473263016" lon="-2.3670919786470255"><ele>640.0</ele><time>2026-03-22T11:05:59.999Z</time></trkpt><trkpt lat="42.829229983822565" lon="-2.367234167311878"><ele>640.0</ele><time>2026-03-22T11:06:00.999Z</time></trkpt><trkpt lat="42.82929484432374" lon="-2.3673705412908115"><ele>638.6</ele><time>2026-03-22T11:06:01.999Z</time></trkpt><trkpt lat="42.82935460648154" lon="-2.367493457628443"><ele>637.2</ele><time>2026-03-22T11:06:02.999Z</time></trkpt><trkpt lat="42.82941047947313" lon="-2.3676127171039467"><ele>635.8</ele><time>2026-03-22T11:06:03.999Z</time></trkpt><trkpt lat="42.82946499025397" lon="-2.367725086615926"><ele>634.4</ele><time>2026-03-22T11:06:04.999Z</time></trkpt><trkpt lat="42.82951745519667" lon="-2.367828865234017"><ele>633.0</ele><time>2026-03-22T11:06:05.999Z</time></trkpt><trkpt lat="42.829566553117154" lon="-2.3679225666087986"><ele>633.0</ele><time>2026-03-22T11:06:06.999Z</time></trkpt><trkpt lat="42.82961249453792" lon="-2.368011826499254"><ele>633.0</ele><time>2026-03-22T11:06:07.999Z</time></trkpt><trkpt lat="42.82965562328503" lon="-2.368086974267221"><ele>633.0</ele><time>2026-03-22T11:06:08.999Z</time></trkpt><trkpt lat="42.829712787756456" lon="-2.368174688796768"><ele>633.0</ele><time>2026-03-22T11:06:10.999Z</time></trkpt><trkpt lat="42.82978259267293" lon="-2.368254824801463"><ele>633.0</ele><time>2026-03-22T11:06:12.999Z</time></trkpt><trkpt lat="42.82983711419317" lon="-2.3683139229612475"><ele>633.0</ele><time>2026-03-22T11:06:13.999Z</time></trkpt><trkpt lat="42.82989988279619" lon="-2.368380102455146"><ele>633.0</ele><time>2026-03-22T11:06:14.999Z</time></trkpt><trkpt lat="42.82997707888913" lon="-2.368455374919313"><ele>633.0</ele><time>2026-03-22T11:06:15.999Z</time></trkpt><trkpt lat="42.83006347266135" lon="-2.368538295073748"><ele>633.0</ele><time>2026-03-22T11:06:16.999Z</time></trkpt><trkpt lat="42.8301586804152" lon="-2.3686235884595344"><ele>633.0</ele><time>2026-03-22T11:06:17.999Z</time></trkpt><trkpt lat="42.8302603471279" lon="-2.368713408997394"><ele>633.0</ele><time>2026-03-22T11:06:18.999Z</time></trkpt><trkpt lat="42.8303679349907" lon="-2.368811743178496"><ele>633.5</ele><time>2026-03-22T11:06:19.999Z</time></trkpt><trkpt lat="42.830474479133" lon="-2.3689151805952893"><ele>634.0</ele><time>2026-03-22T11:06:20.999Z</time></trkpt><trkpt lat="42.830583631739394" lon="-2.3690221262982845"><ele>634.5</ele><time>2026-03-22T11:06:21.999Z</time></trkpt><trkpt lat="42.83069270522738" lon="-2.3691270310828214"><ele>635.0</ele><time>2026-03-22T11:06:22.999Z</time></trkpt><trkpt lat="42.830799319530364" lon="-2.3692292343686616"><ele>635.0</ele><time>2026-03-22T11:06:23.999Z</time></trkpt><trkpt lat="42.83090317649329" lon="-2.369328623927859"><ele>635.0</ele><time>2026-03-22T11:06:24.999Z</time></trkpt><trkpt lat="42.831002967094726" lon="-2.3694260684297457"><ele>635.0</ele><time>2026-03-22T11:06:25.999Z</time></trkpt><trkpt lat="42.83109946290232" lon="-2.36952131010781"><ele>635.0</ele><time>2026-03-22T11:06:26.999Z</time></trkpt><trkpt lat="42.83119394574095" lon="-2.3696132732642448"><ele>634.6</ele><time>2026-03-22T11:06:27.999Z</time></trkpt><trkpt lat="42.831286276446484" lon="-2.3697001684875985"><ele>634.2</ele><time>2026-03-22T11:06:28.999Z</time></trkpt><trkpt lat="42.831376105689635" lon="-2.3697883424977078"><ele>633.8</ele><time>2026-03-22T11:06:29.999Z</time></trkpt><trkpt lat="42.83146277063712" lon="-2.3698812133699914"><ele>633.4</ele><time>2026-03-22T11:06:30.999Z</time></trkpt><trkpt lat="42.83155115270175" lon="-2.369976472623121"><ele>633.0</ele><time>2026-03-22T11:06:31.999Z</time></trkpt><trkpt lat="42.83164627459801" lon="-2.370070436589286"><ele>633.0</ele><time>2026-03-22T11:06:32.999Z</time></trkpt><trkpt lat="42.83175100017637" lon="-2.3701697033528255"><ele>633.0</ele><time>2026-03-22T11:06:33.999Z</time></trkpt><trkpt lat="42.83186052205023" lon="-2.3702687452075266"><ele>633.0</ele><time>2026-03-22T11:06:34.998Z</time></trkpt><trkpt lat="42.83197178316305" lon="-2.3703708111761053"><ele>633.0</ele><time>2026-03-22T11:06:35.998Z</time></trkpt><trkpt lat="42.832088702107676" lon="-2.370475842418775"><ele>632.25</ele><time>2026-03-22T11:06:36.998Z</time></trkpt><trkpt lat="42.832199382444664" lon="-2.370581369550856"><ele>631.5</ele><time>2026-03-22T11:06:37.998Z</time></trkpt><trkpt lat="42.83229993162449" lon="-2.370686427414095"><ele>630.75</ele><time>2026-03-22T11:06:38.998Z</time></trkpt><trkpt lat="42.83239995304515" lon="-2.370789390052072"><ele>630.0</ele><time>2026-03-22T11:06:39.998Z</time></trkpt><trkpt lat="42.83249758814513" lon="-2.370881502515526"><ele>630.0</ele><time>2026-03-22T11:06:40.998Z</time></trkpt><trkpt lat="42.83259183227367" lon="-2.3709716912700727"><ele>630.0</ele><time>2026-03-22T11:06:41.998Z</time></trkpt><trkpt lat="42.832684168047535" lon="-2.3710585629226983"><ele>630.0</ele><time>2026-03-22T11:06:43Z</time></trkpt><trkpt lat="42.83277158015638" lon="-2.3711409063869593"><ele>630.0</ele><time>2026-03-22T11:06:44Z</time></trkpt><trkpt lat="42.832857274503844" lon="-2.3712231773212755"><ele>630.0</ele><time>2026-03-22T11:06:45Z</time></trkpt><trkpt lat="42.83294337279672" lon="-2.371300477702213"><ele>629.2</ele><time>2026-03-22T11:06:46Z</time></trkpt><trkpt lat="42.83302706619473" lon="-2.371376535097659"><ele>628.4</ele><time>2026-03-22T11:06:47Z</time></trkpt><trkpt lat="42.83310988979834" lon="-2.3714562045638266"><ele>627.6</ele><time>2026-03-22T11:06:48Z</time></trkpt><trkpt lat="42.83319079115925" lon="-2.371539844530513"><ele>626.8</ele><time>2026-03-22T11:06:49Z</time></trkpt><trkpt lat="42.83327233457644" lon="-2.3716199347810822"><ele>626.0</ele><time>2026-03-22T11:06:50Z</time></trkpt><trkpt lat="42.83335328740853" lon="-2.3716935570169344"><ele>626.0</ele><time>2026-03-22T11:06:51Z</time></trkpt><trkpt lat="42.83343375863685" lon="-2.371769812422278"><ele>626.0</ele><time>2026-03-22T11:06:52Z</time></trkpt><trkpt lat="42.83351303520968" lon="-2.3718510702098397"><ele>626.0</ele><time>2026-03-22T11:06:53Z</time></trkpt><trkpt lat="42.833592341647396" lon="-2.37193317015585"><ele>626.0</ele><time>2026-03-22T11:06:54Z</time></trkpt><trkpt lat="42.833677152456374" lon="-2.3720107346656643"><ele>626.0</ele><time>2026-03-22T11:06:55Z</time></trkpt><trkpt lat="42.833761904568654" lon="-2.3720908711809496"><ele>624.8</ele><time>2026-03-22T11:06:56Z</time></trkpt><trkpt lat="42.833846221530756" lon="-2.3721738797847696"><ele>623.6</ele><time>2026-03-22T11:06:57Z</time></trkpt><trkpt lat="42.83393443127718" lon="-2.372262561501445"><ele>622.4</ele><time>2026-03-22T11:06:58Z</time></trkpt><trkpt lat="42.834021958818674" lon="-2.372348682717733"><ele>621.2</ele><time>2026-03-22T11:06:59Z</time></trkpt><trkpt lat="42.83410657878053" lon="-2.3724287028091804"><ele>620.0</ele><time>2026-03-22T11:07:00Z</time></trkpt><trkpt lat="42.83418997668632" lon="-2.3725099335930104"><ele>620.0</ele><time>2026-03-22T11:07:01Z</time></trkpt><trkpt lat="42.834270522471726" lon="-2.372592577839955"><ele>620.0</ele><time>2026-03-22T11:07:02Z</time></trkpt><trkpt lat="42.834352164017396" lon="-2.372676002243779"><ele>620.0</ele><time>2026-03-22T11:07:03Z</time></trkpt><trkpt lat="42.8344356130755" lon="-2.37275852924486"><ele>620.0</ele><time>2026-03-22T11:07:04Z</time></trkpt><trkpt lat="42.834524923094506" lon="-2.372843767059946"><ele>620.0</ele><time>2026-03-22T11:07:05Z</time></trkpt><trkpt lat="42.83461596149317" lon="-2.3729309839154014"><ele>620.5</ele><time>2026-03-22T11:07:06Z</time></trkpt><trkpt lat="42.83470893140714" lon="-2.3730222458412578"><ele>621.0</ele><time>2026-03-22T11:07:07Z</time></trkpt><trkpt lat="42.83480226804579" lon="-2.373110493755076"><ele>621.5</ele><time>2026-03-22T11:07:08Z</time></trkpt><trkpt lat="42.83489672951491" lon="-2.3731942534482386"><ele>622.0</ele><time>2026-03-22T11:07:09Z</time></trkpt><trkpt lat="42.83498983065509" lon="-2.3732807834893928"><ele>622.0</ele><time>2026-03-22T11:07:10Z</time></trkpt><trkpt lat="42.835081252629365" lon="-2.373372403270088"><ele>622.0</ele><time>2026-03-22T11:07:11Z</time></trkpt><trkpt lat="42.835175560581106" lon="-2.373459645546533"><ele>622.0</ele><time>2026-03-22T11:07:12Z</time></trkpt><trkpt lat="42.83526251221398" lon="-2.3735363147409787"><ele>622.0</ele><time>2026-03-22T11:07:13Z</time></trkpt><trkpt lat="42.83534306106629" lon="-2.3736179672018363"><ele>622.0</ele><time>2026-03-22T11:07:14Z</time></trkpt><trkpt lat="42.835425155988446" lon="-2.3737069490558107"><ele>623.75</ele><time>2026-03-22T11:07:15Z</time></trkpt><trkpt lat="42.8355105615347" lon="-2.3737951073757677"><ele>625.5</ele><time>2026-03-22T11:07:16Z</time></trkpt><trkpt lat="42.835603692288444" lon="-2.3738796228989547"><ele>627.25</ele><time>2026-03-22T11:07:17Z</time></trkpt><trkpt lat="42.8356978850465" lon="-2.373973260039229"><ele>629.0</ele><time>2026-03-22T11:07:18Z</time></trkpt><trkpt lat="42.83579389402622" lon="-2.3740695707128032"><ele>629.0</ele><time>2026-03-22T11:07:19Z</time></trkpt><trkpt lat="42.835890803186615" lon="-2.374173179287211"><ele>629.0</ele><time>2026-03-22T11:07:20Z</time></trkpt><trkpt lat="42.83599190590438" lon="-2.374274931720018"><ele>629.0</ele><time>2026-03-22T11:07:21Z</time></trkpt><trkpt lat="42.836097290356676" lon="-2.3743743127883734"><ele>629.0</ele><time>2026-03-22T11:07:22Z</time></trkpt><trkpt lat="42.83620226286023" lon="-2.3744775108062384"><ele>629.25</ele><time>2026-03-22T11:07:23Z</time></trkpt><trkpt lat="42.836303431640694" lon="-2.374579069773141"><ele>629.5</ele><time>2026-03-22T11:07:24Z</time></trkpt><trkpt lat="42.83640446012716" lon="-2.3746799335189075"><ele>629.75</ele><time>2026-03-22T11:07:25Z</time></trkpt><trkpt lat="42.8365030168756" lon="-2.374784239095145"><ele>630.0</ele><time>2026-03-22T11:07:26Z</time></trkpt><trkpt lat="42.83659584985267" lon="-2.374883546228441"><ele>630.0</ele><time>2026-03-22T11:07:27Z</time></trkpt><trkpt lat="42.83667968287897" lon="-2.3749720538055854"><ele>630.0</ele><time>2026-03-22T11:07:28Z</time></trkpt><trkpt lat="42.83676131024818" lon="-2.3750541760372528"><ele>630.0</ele><time>2026-03-22T11:07:28.999Z</time></trkpt><trkpt lat="42.836838030477516" lon="-2.3751346482759965"><ele>630.0</ele><time>2026-03-22T11:07:29.999Z</time></trkpt><trkpt lat="42.83692429826017" lon="-2.3751939912535116"><ele>630.0</ele><time>2026-03-22T11:07:30.999Z</time></trkpt><trkpt lat="42.83701899791848" lon="-2.375269887946669"><ele>631.25</ele><time>2026-03-22T11:07:31.999Z</time></trkpt><trkpt lat="42.83710747980034" lon="-2.3753784281543475"><ele>632.5</ele><time>2026-03-22T11:07:32.999Z</time></trkpt><trkpt lat="42.83721614108083" lon="-2.3754543146205886"><ele>633.75</ele><time>2026-03-22T11:07:33.999Z</time></trkpt><trkpt lat="42.837311238871514" lon="-2.375537728347316"><ele>635.0</ele><time>2026-03-22T11:07:34.999Z</time></trkpt><trkpt lat="42.83739121036619" lon="-2.3756321423224493"><ele>633.1666666666666</ele><time>2026-03-22T11:07:35.999Z</time></trkpt><trkpt lat="42.8374845022851" lon="-2.3756769027004587"><ele>631.3333333333333</ele><time>2026-03-22T11:07:36.999Z</time></trkpt><trkpt lat="42.83756133346049" lon="-2.375750562201658"><ele>629.5</ele><time>2026-03-22T11:07:37.999Z</time></trkpt><trkpt lat="42.83764559823026" lon="-2.37577924641967"><ele>627.6666666666666</ele><time>2026-03-22T11:07:38.999Z</time></trkpt><trkpt lat="42.83771744437776" lon="-2.375823732907092"><ele>625.8333333333334</ele><time>2026-03-22T11:07:39.999Z</time></trkpt><trkpt lat="42.83778628886746" lon="-2.375866360736111"><ele>624.0</ele><time>2026-03-22T11:07:40.999Z</time></trkpt><trkpt lat="42.837849544049945" lon="-2.3759054763018708"><ele>623.6</ele><time>2026-03-22T11:07:41.999Z</time></trkpt><trkpt lat="42.83795575816707" lon="-2.3759705559389377"><ele>623.2</ele><time>2026-03-22T11:07:43.999Z</time></trkpt><trkpt lat="42.838054354682825" lon="-2.3760309682611993"><ele>622.8000000000001</ele><time>2026-03-22T11:07:45.999Z</time></trkpt><trkpt lat="42.83814886342155" lon="-2.3760888740050143"><ele>622.4</ele><time>2026-03-22T11:07:47.999Z</time></trkpt><trkpt lat="42.83823531162379" lon="-2.376141842620188"><ele>622.0</ele><time>2026-03-22T11:07:49.999Z</time></trkpt><trkpt lat="42.83832567585306" lon="-2.3761965784956995"><ele>622.0</ele><time>2026-03-22T11:07:51.999Z</time></trkpt><trkpt lat="42.8384110585079" lon="-2.376248192945969"><ele>622.0</ele><time>2026-03-22T11:07:53.999Z</time></trkpt><trkpt lat="42.83851186394437" lon="-2.3763091306203585"><ele>622.0</ele><time>2026-03-22T11:07:55.999Z</time></trkpt><trkpt lat="42.83857165194188" lon="-2.376345272854893"><ele>622.0</ele><time>2026-03-22T11:07:56.999Z</time></trkpt><trkpt lat="42.83864046971838" lon="-2.376386873749674"><ele>622.0</ele><time>2026-03-22T11:07:57.999Z</time></trkpt><trkpt lat="42.83871736321004" lon="-2.3764333563996796"><ele>622.0</ele><time>2026-03-22T11:07:58.999Z</time></trkpt><trkpt lat="42.83880886145866" lon="-2.376488667833091"><ele>619.25</ele><time>2026-03-22T11:07:59.999Z</time></trkpt><trkpt lat="42.838903927732524" lon="-2.3765700608817233"><ele>616.5</ele><time>2026-03-22T11:08:00.999Z</time></trkpt><trkpt lat="42.83901981292345" lon="-2.3766314540111835"><ele>613.75</ele><time>2026-03-22T11:08:01.999Z</time></trkpt><trkpt lat="42.83913570609867" lon="-2.376702102954847"><ele>611.0</ele><time>2026-03-22T11:08:02.999Z</time></trkpt><trkpt lat="42.839253346425984" lon="-2.3767729578142047"><ele>610.0</ele><time>2026-03-22T11:08:03.999Z</time></trkpt><trkpt lat="42.83937829179141" lon="-2.376848226612349"><ele>609.0</ele><time>2026-03-22T11:08:04.999Z</time></trkpt><trkpt lat="42.83950396279966" lon="-2.376924853380318"><ele>608.0</ele><time>2026-03-22T11:08:05.999Z</time></trkpt><trkpt lat="42.839633869857806" lon="-2.377002898687343"><ele>607.0</ele><time>2026-03-22T11:08:06.999Z</time></trkpt><trkpt lat="42.83976268335997" lon="-2.3770812212231194"><ele>607.0</ele><time>2026-03-22T11:08:07.999Z</time></trkpt><trkpt lat="42.83989280177245" lon="-2.377158662810194"><ele>607.0</ele><time>2026-03-22T11:08:08.999Z</time></trkpt><trkpt lat="42.840021162650636" lon="-2.377236755380327"><ele>607.0</ele><time>2026-03-22T11:08:09.999Z</time></trkpt><trkpt lat="42.84015456197017" lon="-2.3773165611782323"><ele>607.0</ele><time>2026-03-22T11:08:10.999Z</time></trkpt><trkpt lat="42.840291102924404" lon="-2.3773975164546677"><ele>606.0</ele><time>2026-03-22T11:08:11.999Z</time></trkpt><trkpt lat="42.84043134194464" lon="-2.377481121236401"><ele>605.0</ele><time>2026-03-22T11:08:12.999Z</time></trkpt><trkpt lat="42.840574376564305" lon="-2.3775671157796197"><ele>604.0</ele><time>2026-03-22T11:08:13.999Z</time></trkpt><trkpt lat="42.840719631610646" lon="-2.377658184196905"><ele>604.0</ele><time>2026-03-22T11:08:14.999Z</time></trkpt><trkpt lat="42.8408673737254" lon="-2.3777471161572405"><ele>604.0</ele><time>2026-03-22T11:08:15.999Z</time></trkpt><trkpt lat="42.841014697814295" lon="-2.377831286075774"><ele>604.0</ele><time>2026-03-22T11:08:16.999Z</time></trkpt><trkpt lat="42.84115412973917" lon="-2.3779192719920283"><ele>603.6666666666667</ele><time>2026-03-22T11:08:17.999Z</time></trkpt><trkpt lat="42.84128844385243" lon="-2.3780084280631963"><ele>603.3333333333334</ele><time>2026-03-22T11:08:18.999Z</time></trkpt><trkpt lat="42.84142617560593" lon="-2.378093997090072"><ele>603.0</ele><time>2026-03-22T11:08:19.999Z</time></trkpt><trkpt lat="42.84156589483703" lon="-2.3781788918835285"><ele>603.0</ele><time>2026-03-22T11:08:20.999Z</time></trkpt><trkpt lat="42.84170481942191" lon="-2.3782622708582872"><ele>603.0</ele><time>2026-03-22T11:08:21.999Z</time></trkpt><trkpt lat="42.84184474296982" lon="-2.378343969045545"><ele>603.0</ele><time>2026-03-22T11:08:22.999Z</time></trkpt><trkpt lat="42.84198525958126" lon="-2.37843007455326"><ele>602.0</ele><time>2026-03-22T11:08:23.999Z</time></trkpt><trkpt lat="42.84213351540286" lon="-2.378521371954592"><ele>601.0</ele><time>2026-03-22T11:08:24.999Z</time></trkpt><trkpt lat="42.842433573913844" lon="-2.378710741245109"><ele>601.0</ele><time>2026-03-22T11:08:26.999Z</time></trkpt><trkpt lat="42.8425857152772" lon="-2.378803853915229"><ele>601.0</ele><time>2026-03-22T11:08:27.999Z</time></trkpt><trkpt lat="42.84274102540814" lon="-2.3788984470056436"><ele>601.0</ele><time>2026-03-22T11:08:28.999Z</time></trkpt><trkpt lat="42.84289212738566" lon="-2.378990927236301"><ele>601.0</ele><time>2026-03-22T11:08:29.999Z</time></trkpt><trkpt lat="42.843043154133966" lon="-2.379049769453241"><ele>601.0</ele><time>2026-03-22T11:08:30.999Z</time></trkpt><trkpt lat="42.8431776851002" lon="-2.3791137761366956"><ele>601.0</ele><time>2026-03-22T11:08:31.999Z</time></trkpt><trkpt lat="42.84330811258639" lon="-2.3791539051838706"><ele>601.0</ele><time>2026-03-22T11:08:32.999Z</time></trkpt><trkpt lat="42.843438908420374" lon="-2.3791551715599417"><ele>601.0</ele><time>2026-03-22T11:08:33.999Z</time></trkpt><trkpt lat="42.84357355820338" lon="-2.3791316722253013"><ele>601.0</ele><time>2026-03-22T11:08:34.999Z</time></trkpt><trkpt lat="42.84371431003174" lon="-2.379083985651889"><ele>601.0</ele><time>2026-03-22T11:08:35.999Z</time></trkpt><trkpt lat="42.84386107017786" lon="-2.379035845172285"><ele>601.0</ele><time>2026-03-22T11:08:36.999Z</time></trkpt><trkpt lat="42.84401080702478" lon="-2.3789872953455298"><ele>601.0</ele><time>2026-03-22T11:08:37.999Z</time></trkpt><trkpt lat="42.84415917155448" lon="-2.3789391904910375"><ele>601.0</ele><time>2026-03-22T11:08:38.999Z</time></trkpt><trkpt lat="42.84430501777759" lon="-2.3788891541607815"><ele>601.0</ele><time>2026-03-22T11:08:39.999Z</time></trkpt><trkpt lat="42.84444767632789" lon="-2.3788379978968583"><ele>601.0</ele><time>2026-03-22T11:08:40.999Z</time></trkpt><trkpt lat="42.84458596056407" lon="-2.3787926816097014"><ele>601.0</ele><time>2026-03-22T11:08:41.999Z</time></trkpt><trkpt lat="42.8447105659231" lon="-2.3787518479483345"><ele>601.0</ele><time>2026-03-22T11:08:42.999Z</time></trkpt><trkpt lat="42.84482484046227" lon="-2.3787106677232024"><ele>601.0</ele><time>2026-03-22T11:08:43.999Z</time></trkpt><trkpt lat="42.84493500711468" lon="-2.3786937523515683"><ele>601.0</ele><time>2026-03-22T11:08:44.998Z</time></trkpt><trkpt lat="42.84502820785441" lon="-2.3786591066788763"><ele>601.0</ele><time>2026-03-22T11:08:45.998Z</time></trkpt><trkpt lat="42.845104520082856" lon="-2.3786329595464446"><ele>601.0</ele><time>2026-03-22T11:08:46.998Z</time></trkpt><trkpt lat="42.84516673942055" lon="-2.3786095798616755"><ele>601.0</ele><time>2026-03-22T11:08:47.998Z</time></trkpt><trkpt lat="42.845229755773204" lon="-2.3785615115160628"><ele>601.0</ele><time>2026-03-22T11:08:50Z</time></trkpt><trkpt lat="42.845303003499005" lon="-2.3785210405705506"><ele>601.0</ele><time>2026-03-22T11:09:19Z</time></trkpt><trkpt lat="42.845229649529664" lon="-2.3784301359800764"><ele>600.4</ele><time>2026-03-22T11:09:21Z</time></trkpt><trkpt lat="42.84528900806484" lon="-2.378262428077981"><ele>599.8</ele><time>2026-03-22T11:09:22Z</time></trkpt><trkpt lat="42.8452884523067" lon="-2.378157769395868"><ele>599.1999999999999</ele><time>2026-03-22T11:09:23Z</time></trkpt><trkpt lat="42.845293820219524" lon="-2.3780439564456346"><ele>598.6</ele><time>2026-03-22T11:09:24Z</time></trkpt><trkpt lat="42.84530582867935" lon="-2.3779233846358814"><ele>598.0</ele><time>2026-03-22T11:09:25Z</time></trkpt><trkpt lat="42.845322691820996" lon="-2.3777974222678266"><ele>598.0</ele><time>2026-03-22T11:09:26Z</time></trkpt><trkpt lat="42.84535357426682" lon="-2.37766784108763"><ele>598.0</ele><time>2026-03-22T11:09:27Z</time></trkpt><trkpt lat="42.845402950755286" lon="-2.377540141363035"><ele>598.0</ele><time>2026-03-22T11:09:28Z</time></trkpt><trkpt lat="42.84545890083503" lon="-2.3774167947537674"><ele>598.0</ele><time>2026-03-22T11:09:29Z</time></trkpt><trkpt lat="42.84552195096065" lon="-2.377297864752543"><ele>598.0</ele><time>2026-03-22T11:09:30Z</time></trkpt><trkpt lat="42.84560632518732" lon="-2.37718743377091"><ele>598.0</ele><time>2026-03-22T11:09:31Z</time></trkpt><trkpt lat="42.845706011680406" lon="-2.3770883925608057"><ele>598.0</ele><time>2026-03-22T11:09:32Z</time></trkpt><trkpt lat="42.845818443084994" lon="-2.377005624214881"><ele>598.0</ele><time>2026-03-22T11:09:33Z</time></trkpt><trkpt lat="42.84593852493046" lon="-2.3769408976163526"><ele>598.0</ele><time>2026-03-22T11:09:33.999Z</time></trkpt><trkpt lat="42.846067589341885" lon="-2.376905353463281"><ele>597.5</ele><time>2026-03-22T11:09:34.999Z</time></trkpt><trkpt lat="42.84619937986156" lon="-2.3768734665430884"><ele>597.0</ele><time>2026-03-22T11:09:35.999Z</time></trkpt><trkpt lat="42.84633529950942" lon="-2.376881937156844"><ele>596.5</ele><time>2026-03-22T11:09:36.999Z</time></trkpt><trkpt lat="42.84646657039655" lon="-2.376934782842383"><ele>596.0</ele><time>2026-03-22T11:09:37.999Z</time></trkpt><trkpt lat="42.84659056971356" lon="-2.3769755291103363"><ele>596.0</ele><time>2026-03-22T11:09:38.999Z</time></trkpt><trkpt lat="42.846713257465844" lon="-2.376998081952004"><ele>596.0</ele><time>2026-03-22T11:09:39.999Z</time></trkpt><trkpt lat="42.84683101553582" lon="-2.377043760647059"><ele>596.0</ele><time>2026-03-22T11:09:40.999Z</time></trkpt><trkpt lat="42.84694295744153" lon="-2.377111694202871"><ele>596.0</ele><time>2026-03-22T11:09:41.999Z</time></trkpt><trkpt lat="42.84706050754609" lon="-2.377147825733621"><ele>596.0</ele><time>2026-03-22T11:09:42.999Z</time></trkpt><trkpt lat="42.8471791941017" lon="-2.3771719062244285"><ele>596.0</ele><time>2026-03-22T11:09:43.999Z</time></trkpt><trkpt lat="42.84730027720978" lon="-2.3771639139876464"><ele>596.0</ele><time>2026-03-22T11:09:44.999Z</time></trkpt><trkpt lat="42.84742122448068" lon="-2.3771647715398516"><ele>596.0</ele><time>2026-03-22T11:09:45.999Z</time></trkpt><trkpt lat="42.84754377009477" lon="-2.3771723691574747"><ele>596.25</ele><time>2026-03-22T11:09:46.999Z</time></trkpt><trkpt lat="42.847660412436674" lon="-2.377114968157686"><ele>596.5</ele><time>2026-03-22T11:09:47.999Z</time></trkpt><trkpt lat="42.84777728456609" lon="-2.3770658785288012"><ele>596.75</ele><time>2026-03-22T11:09:48.999Z</time></trkpt><trkpt lat="42.84789647641622" lon="-2.3770220670581663"><ele>597.0</ele><time>2026-03-22T11:09:49.999Z</time></trkpt><trkpt lat="42.848008812041044" lon="-2.3769434831667393"><ele>597.0</ele><time>2026-03-22T11:09:50.999Z</time></trkpt><trkpt lat="42.848116160079535" lon="-2.376849207230578"><ele>597.0</ele><time>2026-03-22T11:09:51.999Z</time></trkpt><trkpt lat="42.84821933123286" lon="-2.376747502991178"><ele>597.0</ele><time>2026-03-22T11:09:52.999Z</time></trkpt><trkpt lat="42.848316740706764" lon="-2.3766409424669632"><ele>597.0</ele><time>2026-03-22T11:09:53.999Z</time></trkpt><trkpt lat="42.8484034441885" lon="-2.3765410688582387"><ele>596.3333333333334</ele><time>2026-03-22T11:09:54.999Z</time></trkpt><trkpt lat="42.84847379186718" lon="-2.376447814555767"><ele>595.6666666666666</ele><time>2026-03-22T11:09:55.999Z</time></trkpt><trkpt lat="42.84853241729698" lon="-2.376368269150018"><ele>595.0</ele><time>2026-03-22T11:09:56.999Z</time></trkpt><trkpt lat="42.84858139834993" lon="-2.3763089108740285"><ele>594.3333333333333</ele><time>2026-03-22T11:09:57.999Z</time></trkpt><trkpt lat="42.848636018812044" lon="-2.3762307079441087"><ele>593.6666666666666</ele><time>2026-03-22T11:09:59.999Z</time></trkpt><trkpt lat="42.84868026402404" lon="-2.3761693103866017"><ele>593.0</ele><time>2026-03-22T11:10:08.999Z</time></trkpt><trkpt lat="42.84859884786831" lon="-2.376277735999318"><ele>593.0</ele><time>2026-03-22T11:10:14.999Z</time></trkpt><trkpt lat="42.84856156030767" lon="-2.376396945044525"><ele>593.0</ele><time>2026-03-22T11:10:15.999Z</time></trkpt><trkpt lat="42.84848676910819" lon="-2.376491937730758"><ele>593.0</ele><time>2026-03-22T11:10:16.999Z</time></trkpt><trkpt lat="42.84839475128643" lon="-2.3765998405254667"><ele>593.0</ele><time>2026-03-22T11:10:17.999Z</time></trkpt><trkpt lat="42.848301572105136" lon="-2.376703381985896"><ele>593.0</ele><time>2026-03-22T11:10:18.999Z</time></trkpt><trkpt lat="42.84819464361335" lon="-2.376816106286461"><ele>594.3333333333333</ele><time>2026-03-22T11:10:19.999Z</time></trkpt><trkpt lat="42.84807530453444" lon="-2.3769272049767434"><ele>595.6666666666666</ele><time>2026-03-22T11:10:20.999Z</time></trkpt><trkpt lat="42.84793923207196" lon="-2.3770293036864927"><ele>597.0</ele><time>2026-03-22T11:10:21.999Z</time></trkpt><trkpt lat="42.84778703298881" lon="-2.377115764713563"><ele>597.0</ele><time>2026-03-22T11:10:22.999Z</time></trkpt><trkpt lat="42.847627763048706" lon="-2.377173505332221"><ele>597.0</ele><time>2026-03-22T11:10:23.999Z</time></trkpt><trkpt lat="42.8474609417941" lon="-2.3772027175320183"><ele>597.0</ele><time>2026-03-22T11:10:24.999Z</time></trkpt><trkpt lat="42.84728650118835" lon="-2.3772014120487217"><ele>596.6666666666666</ele><time>2026-03-22T11:10:25.999Z</time></trkpt><trkpt lat="42.84710777809003" lon="-2.377175482539373"><ele>596.3333333333333</ele><time>2026-03-22T11:10:26.999Z</time></trkpt><trkpt lat="42.84692482060111" lon="-2.377122346742217"><ele>596.0</ele><time>2026-03-22T11:10:27.999Z</time></trkpt><trkpt lat="42.84674288917154" lon="-2.377064512975249"><ele>596.0</ele><time>2026-03-22T11:10:28.999Z</time></trkpt><trkpt lat="42.84656130972367" lon="-2.376998287413415"><ele>596.0</ele><time>2026-03-22T11:10:29.999Z</time></trkpt><trkpt lat="42.84638852641988" lon="-2.3769501451570427"><ele>596.0</ele><time>2026-03-22T11:10:30.999Z</time></trkpt><trkpt lat="42.84622188666172" lon="-2.3769262635077566"><ele>596.0</ele><time>2026-03-22T11:10:31.999Z</time></trkpt><trkpt lat="42.84606852981799" lon="-2.3769318299059727"><ele>596.0</ele><time>2026-03-22T11:10:32.999Z</time></trkpt><trkpt lat="42.8459282743621" lon="-2.3769685611492197"><ele>596.0</ele><time>2026-03-22T11:10:33.999Z</time></trkpt><trkpt lat="42.84579390556282" lon="-2.377041902503957"><ele>596.0</ele><time>2026-03-22T11:10:34.999Z</time></trkpt><trkpt lat="42.84566902277076" lon="-2.37715537839635"><ele>596.5</ele><time>2026-03-22T11:10:35.999Z</time></trkpt><trkpt lat="42.84555523583338" lon="-2.377295906098452"><ele>597.0</ele><time>2026-03-22T11:10:36.999Z</time></trkpt><trkpt lat="42.845458140508164" lon="-2.37745563817867"><ele>597.5</ele><time>2026-03-22T11:10:37.999Z</time></trkpt><trkpt lat="42.84539344090185" lon="-2.3776257690316966"><ele>598.0</ele><time>2026-03-22T11:10:38.999Z</time></trkpt><trkpt lat="42.84534949431314" lon="-2.377791446672074"><ele>598.0</ele><time>2026-03-22T11:10:39.999Z</time></trkpt><trkpt lat="42.845323270467304" lon="-2.3779420755685536"><ele>598.0</ele><time>2026-03-22T11:10:40.999Z</time></trkpt><trkpt lat="42.84531123921816" lon="-2.378090273105888"><ele>598.0</ele><time>2026-03-22T11:10:41.999Z</time></trkpt><trkpt lat="42.84531793782254" lon="-2.3782614140392178"><ele>598.0</ele><time>2026-03-22T11:10:42.999Z</time></trkpt><trkpt lat="42.84534496379338" lon="-2.3784397841897342"><ele>598.0</ele><time>2026-03-22T11:10:43.999Z</time></trkpt><trkpt lat="42.84538751105776" lon="-2.3786129048671865"><ele>598.0</ele><time>2026-03-22T11:10:44.999Z</time></trkpt><trkpt lat="42.84545335701821" lon="-2.3787841638158462"><ele>598.0</ele><time>2026-03-22T11:10:45.999Z</time></trkpt><trkpt lat="42.845534918838986" lon="-2.378955688366847"><ele>598.0</ele><time>2026-03-22T11:10:46.999Z</time></trkpt><trkpt lat="42.845632744379095" lon="-2.379126847800191"><ele>598.3333333333334</ele><time>2026-03-22T11:10:47.999Z</time></trkpt><trkpt lat="42.84573701617746" lon="-2.3793095667770143"><ele>598.6666666666666</ele><time>2026-03-22T11:10:48.999Z</time></trkpt><trkpt lat="42.84584669099517" lon="-2.3795110467865337"><ele>599.0</ele><time>2026-03-22T11:10:49.999Z</time></trkpt><trkpt lat="42.845961291029234" lon="-2.379729273291667"><ele>598.3333333333333</ele><time>2026-03-22T11:10:50.999Z</time></trkpt><trkpt lat="42.84608587577323" lon="-2.379955886487587"><ele>597.6666666666666</ele><time>2026-03-22T11:10:51.999Z</time></trkpt><trkpt lat="42.84621482403259" lon="-2.3801707691669765"><ele>597.0</ele><time>2026-03-22T11:10:52.998Z</time></trkpt><trkpt lat="42.8463518557591" lon="-2.380384711770751"><ele>598.3333333333334</ele><time>2026-03-22T11:10:53.998Z</time></trkpt><trkpt lat="42.846494963498714" lon="-2.380598049219643"><ele>599.6666666666667</ele><time>2026-03-22T11:10:55Z</time></trkpt><trkpt lat="42.84663760691929" lon="-2.3808005964512517"><ele>601.0</ele><time>2026-03-22T11:10:56Z</time></trkpt><trkpt lat="42.84677233725044" lon="-2.3809888242620305"><ele>600.0</ele><time>2026-03-22T11:10:57Z</time></trkpt><trkpt lat="42.84689796966671" lon="-2.381157243236135"><ele>599.0</ele><time>2026-03-22T11:10:58Z</time></trkpt><trkpt lat="42.84701662125819" lon="-2.381304076770626"><ele>598.0</ele><time>2026-03-22T11:10:59Z</time></trkpt><trkpt lat="42.8471264701413" lon="-2.3814361805939663"><ele>598.0</ele><time>2026-03-22T11:11:00Z</time></trkpt><trkpt lat="42.847220571730496" lon="-2.381546283218723"><ele>598.0</ele><time>2026-03-22T11:11:01Z</time></trkpt><trkpt lat="42.84729888537666" lon="-2.3816277427567454"><ele>598.0</ele><time>2026-03-22T11:11:02Z</time></trkpt><trkpt lat="42.84737413650745" lon="-2.3817001118332377"><ele>598.0</ele><time>2026-03-22T11:11:03Z</time></trkpt><trkpt lat="42.84743851374908" lon="-2.381742338497647"><ele>598.0</ele><time>2026-03-22T11:11:04Z</time></trkpt><trkpt lat="42.847519165933114" lon="-2.381753208751849"><ele>598.0</ele><time>2026-03-22T11:11:06Z</time></trkpt><trkpt lat="42.847603274589474" lon="-2.381722998496905"><ele>598.0</ele><time>2026-03-22T11:11:08Z</time></trkpt><trkpt lat="42.8476696070603" lon="-2.3816952483260945"><ele>598.0</ele><time>2026-03-22T11:11:09Z</time></trkpt><trkpt lat="42.84775134063207" lon="-2.3816831667308347"><ele>598.0</ele><time>2026-03-22T11:11:10Z</time></trkpt><trkpt lat="42.84783853671172" lon="-2.3816985586170474"><ele>598.0</ele><time>2026-03-22T11:11:11Z</time></trkpt><trkpt lat="42.84791990102228" lon="-2.3817427057011704"><ele>598.0</ele><time>2026-03-22T11:11:12Z</time></trkpt><trkpt lat="42.847996528052455" lon="-2.3818167060030824"><ele>598.1999999999999</ele><time>2026-03-22T11:11:13Z</time></trkpt><trkpt lat="42.84805395628621" lon="-2.3819335088016778"><ele>598.4</ele><time>2026-03-22T11:11:14Z</time></trkpt><trkpt lat="42.84809368539945" lon="-2.3820671497964105"><ele>598.5999999999999</ele><time>2026-03-22T11:11:15Z</time></trkpt><trkpt lat="42.84809430148315" lon="-2.3822149640288566"><ele>598.8</ele><time>2026-03-22T11:11:16Z</time></trkpt><trkpt lat="42.84806919201106" lon="-2.382328002889815"><ele>599.0</ele><time>2026-03-22T11:11:17Z</time></trkpt><trkpt lat="42.84820122398597" lon="-2.382456001728967"><ele>599.0</ele><time>2026-03-22T11:11:18Z</time></trkpt><trkpt lat="42.84829489440542" lon="-2.38253189805917"><ele>599.0</ele><time>2026-03-22T11:11:19Z</time></trkpt><trkpt lat="42.84839234578609" lon="-2.382615296516284"><ele>599.0</ele><time>2026-03-22T11:11:20Z</time></trkpt><trkpt lat="42.848503494184385" lon="-2.3827158530430483"><ele>599.0</ele><time>2026-03-22T11:11:20.999Z</time></trkpt><trkpt lat="42.84862962360474" lon="-2.3828075619459126"><ele>598.3333333333333</ele><time>2026-03-22T11:11:21.999Z</time></trkpt><trkpt lat="42.84876649823484" lon="-2.382911391040601"><ele>597.6666666666666</ele><time>2026-03-22T11:11:22.999Z</time></trkpt><trkpt lat="42.84890985746789" lon="-2.3830199598014725"><ele>597.0</ele><time>2026-03-22T11:11:23.999Z</time></trkpt><trkpt lat="42.849046940399006" lon="-2.383122088500917"><ele>597.0</ele><time>2026-03-22T11:11:24.999Z</time></trkpt><trkpt lat="42.84919246865499" lon="-2.3832384844076357"><ele>597.0</ele><time>2026-03-22T11:11:25.999Z</time></trkpt><trkpt lat="42.84934033613935" lon="-2.383368898108317"><ele>597.0</ele><time>2026-03-22T11:11:26.999Z</time></trkpt><trkpt lat="42.84948590205931" lon="-2.3835158032025827"><ele>596.6666666666666</ele><time>2026-03-22T11:11:27.999Z</time></trkpt><trkpt lat="42.8496215678253" lon="-2.3836804814491055"><ele>596.3333333333333</ele><time>2026-03-22T11:11:28.999Z</time></trkpt><trkpt lat="42.84974163818722" lon="-2.38385645487526"><ele>596.0</ele><time>2026-03-22T11:11:29.999Z</time></trkpt><trkpt lat="42.84984566475554" lon="-2.3840464182472925"><ele>596.0</ele><time>2026-03-22T11:11:30.999Z</time></trkpt><trkpt lat="42.84993729303059" lon="-2.384243737082012"><ele>596.0</ele><time>2026-03-22T11:11:31.999Z</time></trkpt><trkpt lat="42.85000510445815" lon="-2.3844505852276785"><ele>596.0</ele><time>2026-03-22T11:11:32.999Z</time></trkpt><trkpt lat="42.85004800038175" lon="-2.384661358751839"><ele>596.0</ele><time>2026-03-22T11:11:33.999Z</time></trkpt><trkpt lat="42.85007705973337" lon="-2.384868112799963"><ele>596.0</ele><time>2026-03-22T11:11:34.999Z</time></trkpt><trkpt lat="42.850088678196975" lon="-2.38507060660389"><ele>596.0</ele><time>2026-03-22T11:11:35.999Z</time></trkpt><trkpt lat="42.85008500386344" lon="-2.385269001552221"><ele>596.0</ele><time>2026-03-22T11:11:36.999Z</time></trkpt><trkpt lat="42.85006476882993" lon="-2.385461910295421"><ele>595.5</ele><time>2026-03-22T11:11:37.999Z</time></trkpt><trkpt lat="42.85002980800213" lon="-2.3856487399989654"><ele>595.0</ele><time>2026-03-22T11:11:38.999Z</time></trkpt><trkpt lat="42.84998299222236" lon="-2.385834281660479"><ele>594.5</ele><time>2026-03-22T11:11:39.999Z</time></trkpt><trkpt lat="42.84992996323567" lon="-2.386019247597522"><ele>594.0</ele><time>2026-03-22T11:11:40.999Z</time></trkpt><trkpt lat="42.849876203936596" lon="-2.3861948926736347"><ele>594.5</ele><time>2026-03-22T11:11:41.999Z</time></trkpt><trkpt lat="42.84982600598851" lon="-2.3863521146285533"><ele>595.0</ele><time>2026-03-22T11:11:42.999Z</time></trkpt><trkpt lat="42.84978013414293" lon="-2.3865008045115625"><ele>595.5</ele><time>2026-03-22T11:11:43.999Z</time></trkpt><trkpt lat="42.84973793043052" lon="-2.386637262779183"><ele>596.0</ele><time>2026-03-22T11:11:44.999Z</time></trkpt><trkpt lat="42.84970085071015" lon="-2.3867637153745327"><ele>596.0</ele><time>2026-03-22T11:11:45.999Z</time></trkpt><trkpt lat="42.84966852018155" lon="-2.386868294644907"><ele>596.0</ele><time>2026-03-22T11:11:46.999Z</time></trkpt><trkpt lat="42.849631143902414" lon="-2.386982204035908"><ele>596.0</ele><time>2026-03-22T11:11:48.999Z</time></trkpt><trkpt lat="42.849604833972734" lon="-2.3870708768405913"><ele>596.0</ele><time>2026-03-22T11:11:50.999Z</time></trkpt><trkpt lat="42.849589675066014" lon="-2.3871701858041163"><ele>596.0</ele><time>2026-03-22T11:11:52.999Z</time></trkpt><trkpt lat="42.8496189535002" lon="-2.387303563636991"><ele>596.0</ele><time>2026-03-22T11:11:54.999Z</time></trkpt><trkpt lat="42.84957331236897" lon="-2.3874274469466013"><ele>596.8</ele><time>2026-03-22T11:11:56.999Z</time></trkpt><trkpt lat="42.849490839543954" lon="-2.38753750323573"><ele>597.6</ele><time>2026-03-22T11:11:58.999Z</time></trkpt><trkpt lat="42.849473513087545" lon="-2.387662982799254"><ele>598.4</ele><time>2026-03-22T11:12:00.999Z</time></trkpt><trkpt lat="42.849457737959014" lon="-2.387817157959658"><ele>599.2</ele><time>2026-03-22T11:12:02.999Z</time></trkpt><trkpt lat="42.84944269812694" lon="-2.3879008708153884"><ele>600.0</ele><time>2026-03-22T11:12:03.999Z</time></trkpt><trkpt lat="42.84943891588159" lon="-2.388055651281925"><ele>601.0</ele><time>2026-03-22T11:12:05.999Z</time></trkpt><trkpt lat="42.84941395371246" lon="-2.3881930248976095"><ele>602.0</ele><time>2026-03-22T11:12:07.999Z</time></trkpt><trkpt lat="42.8493868904833" lon="-2.3883158478592574"><ele>603.0</ele><time>2026-03-22T11:12:09.999Z</time></trkpt><trkpt lat="42.8493732111223" lon="-2.388428570561896"><ele>604.0</ele><time>2026-03-22T11:12:11.999Z</time></trkpt><trkpt lat="42.849342671174135" lon="-2.388529778850803"><ele>605.0</ele><time>2026-03-22T11:12:14.999Z</time></trkpt><trkpt lat="42.8493271745304" lon="-2.3886330003423764"><ele>606.0</ele><time>2026-03-22T11:12:17.999Z</time></trkpt><trkpt lat="42.84932067382256" lon="-2.388738881827502"><ele>606.0</ele><time>2026-03-22T11:12:21.999Z</time></trkpt><trkpt lat="42.84930384511299" lon="-2.388846738051327"><ele>609.0</ele><time>2026-03-22T11:12:24.999Z</time></trkpt><trkpt lat="42.849305421007216" lon="-2.3889489054358912"><ele>609.0</ele><time>2026-03-22T11:12:27.999Z</time></trkpt><trkpt lat="42.84932898970348" lon="-2.389062574552507"><ele>609.0</ele><time>2026-03-22T11:12:31.999Z</time></trkpt><trkpt lat="42.84933972080532" lon="-2.389158444168973"><ele>609.0</ele><time>2026-03-22T11:12:34.998Z</time></trkpt></trkseg><trkseg><trkpt lat="42.8492027451476" lon="-2.3892304261942225"><ele>600.0</ele><time>2026-03-22T11:43:18Z</time></trkpt><trkpt lat="42.849178104712394" lon="-2.3893271374644462"><ele>600.0</ele><time>2026-03-22T11:43:26Z</time></trkpt><trkpt lat="42.84917029843026" lon="-2.389468166375179"><ele>600.0</ele><time>2026-03-22T11:43:28Z</time></trkpt><trkpt lat="42.8491728698922" lon="-2.389562148210072"><ele>600.0</ele><time>2026-03-22T11:43:29Z</time></trkpt><trkpt lat="42.84917190794551" lon="-2.3896626440294715"><ele>600.0</ele><time>2026-03-22T11:43:30Z</time></trkpt><trkpt lat="42.84916996051021" lon="-2.389750333803323"><ele>600.0</ele><time>2026-03-22T11:43:31Z</time></trkpt><trkpt lat="42.84916881703695" lon="-2.389900087412802"><ele>599.1428571428571</ele><time>2026-03-22T11:43:33Z</time></trkpt><trkpt lat="42.84922358872479" lon="-2.389977683102542"><ele>598.2857142857142</ele><time>2026-03-22T11:43:34Z</time></trkpt><trkpt lat="42.84921603531466" lon="-2.3900652514076506"><ele>597.4285714285714</ele><time>2026-03-22T11:43:35Z</time></trkpt><trkpt lat="42.849208472600495" lon="-2.3901529276221076"><ele>596.5714285714286</ele><time>2026-03-22T11:43:36Z</time></trkpt><trkpt lat="42.849201009650024" lon="-2.3902394475068123"><ele>595.7142857142858</ele><time>2026-03-22T11:43:37Z</time></trkpt><trkpt lat="42.84919309523469" lon="-2.390331200920689"><ele>594.8571428571429</ele><time>2026-03-22T11:43:38Z</time></trkpt><trkpt lat="42.84918515890425" lon="-2.390423208298589"><ele>594.0</ele><time>2026-03-22T11:43:39Z</time></trkpt><trkpt lat="42.84917709194152" lon="-2.390516262963301"><ele>594.0</ele><time>2026-03-22T11:43:40Z</time></trkpt><trkpt lat="42.849168903680805" lon="-2.3906134501497385"><ele>594.0</ele><time>2026-03-22T11:43:41Z</time></trkpt><trkpt lat="42.84916180077854" lon="-2.3906995683095698"><ele>594.0</ele><time>2026-03-22T11:43:42Z</time></trkpt><trkpt lat="42.849148024159184" lon="-2.390860214330996"><ele>594.0</ele><time>2026-03-22T11:43:44Z</time></trkpt><trkpt lat="42.849134736903615" lon="-2.3910217576607105"><ele>594.0</ele><time>2026-03-22T11:43:46Z</time></trkpt><trkpt lat="42.849121608713574" lon="-2.391181367090489"><ele>594.0</ele><time>2026-03-22T11:43:48Z</time></trkpt><trkpt lat="42.849099281512366" lon="-2.3913336630697692"><ele>594.0</ele><time>2026-03-22T11:43:50Z</time></trkpt><trkpt lat="42.849087949601476" lon="-2.391478512830252"><ele>594.0</ele><time>2026-03-22T11:43:52Z</time></trkpt><trkpt lat="42.84907163587611" lon="-2.391623534921585"><ele>594.0</ele><time>2026-03-22T11:43:54Z</time></trkpt><trkpt lat="42.8490638280236" lon="-2.391772705367529"><ele>594.0</ele><time>2026-03-22T11:43:56Z</time></trkpt><trkpt lat="42.84904261489313" lon="-2.391924188946272"><ele>593.8</ele><time>2026-03-22T11:43:58Z</time></trkpt><trkpt lat="42.849034653953964" lon="-2.392089234562487"><ele>593.5999999999999</ele><time>2026-03-22T11:44:00Z</time></trkpt><trkpt lat="42.849031332566504" lon="-2.392175617371519"><ele>593.4</ele><time>2026-03-22T11:44:01Z</time></trkpt><trkpt lat="42.84901820808206" lon="-2.392308481619258"><ele>593.1999999999999</ele><time>2026-03-22T11:44:03Z</time></trkpt><trkpt lat="42.84886801424569" lon="-2.392331771478199"><ele>593.0</ele><time>2026-03-22T11:44:07.999Z</time></trkpt><trkpt lat="42.84898580355412" lon="-2.392233375776076"><ele>593.0</ele><time>2026-03-22T11:44:14.999Z</time></trkpt><trkpt lat="42.849006507858356" lon="-2.3921404785457105"><ele>593.0</ele><time>2026-03-22T11:44:16.999Z</time></trkpt><trkpt lat="42.84900608627103" lon="-2.391972390895354"><ele>593.0</ele><time>2026-03-22T11:44:18.999Z</time></trkpt><trkpt lat="42.8490199816418" lon="-2.391872890160001"><ele>593.0</ele><time>2026-03-22T11:44:20.999Z</time></trkpt><trkpt lat="42.849014377295525" lon="-2.3917481778808782"><ele>593.0</ele><time>2026-03-22T11:44:24.999Z</time></trkpt><trkpt lat="42.84902356040621" lon="-2.391659309361981"><ele>593.0</ele><time>2026-03-22T11:44:25.999Z</time></trkpt><trkpt lat="42.84903613701916" lon="-2.39156026149688"><ele>593.0</ele><time>2026-03-22T11:44:26.999Z</time></trkpt><trkpt lat="42.849042601004626" lon="-2.391449595914522"><ele>593.0</ele><time>2026-03-22T11:44:27.999Z</time></trkpt><trkpt lat="42.849050565504356" lon="-2.391337296375635"><ele>593.0</ele><time>2026-03-22T11:44:28.999Z</time></trkpt><trkpt lat="42.849060817019115" lon="-2.391214388277745"><ele>593.0</ele><time>2026-03-22T11:44:29.999Z</time></trkpt><trkpt lat="42.849069849668474" lon="-2.3910778644169906"><ele>593.0</ele><time>2026-03-22T11:44:30.999Z</time></trkpt><trkpt lat="42.84908167206041" lon="-2.390927686696727"><ele>593.0</ele><time>2026-03-22T11:44:31.999Z</time></trkpt><trkpt lat="42.849095533422876" lon="-2.390770760125826"><ele>593.0</ele><time>2026-03-22T11:44:32.999Z</time></trkpt><trkpt lat="42.84911131570928" lon="-2.390617390129435"><ele>593.0</ele><time>2026-03-22T11:44:33.999Z</time></trkpt><trkpt lat="42.849125623914965" lon="-2.3904634460359677"><ele>593.0</ele><time>2026-03-22T11:44:34.999Z</time></trkpt><trkpt lat="42.849140167902746" lon="-2.3903068218533994"><ele>593.0</ele><time>2026-03-22T11:44:35.999Z</time></trkpt><trkpt lat="42.84915111912507" lon="-2.390152151934415"><ele>593.0</ele><time>2026-03-22T11:44:36.999Z</time></trkpt><trkpt lat="42.849163641417825" lon="-2.390001614183352"><ele>593.0</ele><time>2026-03-22T11:44:37.999Z</time></trkpt><trkpt lat="42.84917527744635" lon="-2.3898519674393093"><ele>593.0</ele><time>2026-03-22T11:44:38.999Z</time></trkpt><trkpt lat="42.849183384478515" lon="-2.3897046081361166"><ele>593.0</ele><time>2026-03-22T11:44:39.999Z</time></trkpt><trkpt lat="42.84919685531699" lon="-2.389562753092155"><ele>594.1666666666666</ele><time>2026-03-22T11:44:40.999Z</time></trkpt><trkpt lat="42.84921149615149" lon="-2.3894485146769915"><ele>595.3333333333333</ele><time>2026-03-22T11:44:41.999Z</time></trkpt><trkpt lat="42.84921993261085" lon="-2.38934448060878"><ele>596.5</ele><time>2026-03-22T11:44:42.999Z</time></trkpt><trkpt lat="42.84922475040886" lon="-2.389245249241594"><ele>597.6666666666666</ele><time>2026-03-22T11:44:43.999Z</time></trkpt><trkpt lat="42.849217644544346" lon="-2.3891475161865814"><ele>598.8333333333334</ele><time>2026-03-22T11:44:44.999Z</time></trkpt><trkpt lat="42.84922391092562" lon="-2.388987626716571"><ele>600.0</ele><time>2026-03-22T11:44:46.999Z</time></trkpt><trkpt lat="42.84925623801048" lon="-2.388873349051605"><ele>600.4</ele><time>2026-03-22T11:44:48.999Z</time></trkpt><trkpt lat="42.84927283588455" lon="-2.388738965380096"><ele>600.8</ele><time>2026-03-22T11:44:50.999Z</time></trkpt><trkpt lat="42.849264627081446" lon="-2.3885819818022416"><ele>601.2</ele><time>2026-03-22T11:44:52.999Z</time></trkpt><trkpt lat="42.849271971412804" lon="-2.3884303592714757"><ele>601.6</ele><time>2026-03-22T11:44:54.999Z</time></trkpt><trkpt lat="42.84929862410134" lon="-2.3883099024696266"><ele>602.0</ele><time>2026-03-22T11:44:56.999Z</time></trkpt><trkpt lat="42.84932715071747" lon="-2.388173407070021"><ele>601.6</ele><time>2026-03-22T11:44:58.999Z</time></trkpt><trkpt lat="42.84935066195696" lon="-2.388025858746896"><ele>601.2</ele><time>2026-03-22T11:45:00.999Z</time></trkpt><trkpt lat="42.84938308186488" lon="-2.38787015044417"><ele>600.8</ele><time>2026-03-22T11:45:02.999Z</time></trkpt><trkpt lat="42.84941934040069" lon="-2.3877357740219782"><ele>600.4</ele><time>2026-03-22T11:45:04.999Z</time></trkpt><trkpt lat="42.84944902175937" lon="-2.3876358023907693"><ele>600.0</ele><time>2026-03-22T11:45:07Z</time></trkpt><trkpt lat="42.84944856887065" lon="-2.387520231157579"><ele>600.0</ele><time>2026-03-22T11:45:10Z</time></trkpt><trkpt lat="42.84944674914349" lon="-2.387404584008662"><ele>600.0</ele><time>2026-03-22T11:45:12Z</time></trkpt><trkpt lat="42.84946956422695" lon="-2.3873192351867893"><ele>600.0</ele><time>2026-03-22T11:45:13Z</time></trkpt><trkpt lat="42.84949137998643" lon="-2.387219145908734"><ele>600.0</ele><time>2026-03-22T11:45:14Z</time></trkpt><trkpt lat="42.84955503092166" lon="-2.387136125962501"><ele>600.0</ele><time>2026-03-22T11:45:15Z</time></trkpt><trkpt lat="42.84959562701" lon="-2.3870316084750236"><ele>600.0</ele><time>2026-03-22T11:45:16Z</time></trkpt><trkpt lat="42.84963311661687" lon="-2.3869072195814653"><ele>599.0</ele><time>2026-03-22T11:45:17Z</time></trkpt><trkpt lat="42.849673363130755" lon="-2.3867649531979858"><ele>598.0</ele><time>2026-03-22T11:45:18Z</time></trkpt><trkpt lat="42.84972260428892" lon="-2.386605468465526"><ele>597.0</ele><time>2026-03-22T11:45:19Z</time></trkpt><trkpt lat="42.84978449464083" lon="-2.3864198231895353"><ele>596.0</ele><time>2026-03-22T11:45:20Z</time></trkpt><trkpt lat="42.849847176419665" lon="-2.3862139565013503"><ele>595.3333333333333</ele><time>2026-03-22T11:45:21Z</time></trkpt><trkpt lat="42.849908772438674" lon="-2.3860002967539087"><ele>594.6666666666666</ele><time>2026-03-22T11:45:22Z</time></trkpt><trkpt lat="42.84996223876455" lon="-2.3857819079254554"><ele>594.0</ele><time>2026-03-22T11:45:23Z</time></trkpt><trkpt lat="42.85001268883742" lon="-2.385558814464063"><ele>594.6666666666666</ele><time>2026-03-22T11:45:24Z</time></trkpt><trkpt lat="42.85003759328521" lon="-2.3853242954050247"><ele>595.3333333333333</ele><time>2026-03-22T11:45:25Z</time></trkpt><trkpt lat="42.850043207830886" lon="-2.385093276296818"><ele>596.0</ele><time>2026-03-22T11:45:26Z</time></trkpt><trkpt lat="42.850028931834416" lon="-2.3848590972339836"><ele>596.0</ele><time>2026-03-22T11:45:27Z</time></trkpt><trkpt lat="42.849993351847594" lon="-2.384615959731173"><ele>596.0</ele><time>2026-03-22T11:45:28Z</time></trkpt><trkpt lat="42.84993086309591" lon="-2.3843784119593763"><ele>596.0</ele><time>2026-03-22T11:45:29Z</time></trkpt><trkpt lat="42.84984534236339" lon="-2.3841405320019247"><ele>596.0</ele><time>2026-03-22T11:45:30Z</time></trkpt><trkpt lat="42.84972663892264" lon="-2.383919647164569"><ele>596.0</ele><time>2026-03-22T11:45:31Z</time></trkpt><trkpt lat="42.84958766544551" lon="-2.383716896322752"><ele>596.0</ele><time>2026-03-22T11:45:32Z</time></trkpt><trkpt lat="42.84943688119131" lon="-2.383544369889013"><ele>596.3333333333333</ele><time>2026-03-22T11:45:33Z</time></trkpt><trkpt lat="42.849272521748546" lon="-2.383395640884702"><ele>596.6666666666666</ele><time>2026-03-22T11:45:34Z</time></trkpt><trkpt lat="42.84911143208332" lon="-2.383249544191385"><ele>597.0</ele><time>2026-03-22T11:45:35Z</time></trkpt><trkpt lat="42.84895030525564" lon="-2.383120500260104"><ele>597.0</ele><time>2026-03-22T11:45:36Z</time></trkpt><trkpt lat="42.84879738762101" lon="-2.3829954532255386"><ele>597.0</ele><time>2026-03-22T11:45:37Z</time></trkpt><trkpt lat="42.84865242283437" lon="-2.3828809279287584"><ele>597.0</ele><time>2026-03-22T11:45:38Z</time></trkpt><trkpt lat="42.84852275626152" lon="-2.3827817710078656"><ele>597.5</ele><time>2026-03-22T11:45:39Z</time></trkpt><trkpt lat="42.848399976670535" lon="-2.3826874689081534"><ele>598.0</ele><time>2026-03-22T11:45:40Z</time></trkpt><trkpt lat="42.84829284834753" lon="-2.3826065328480954"><ele>598.5</ele><time>2026-03-22T11:45:41Z</time></trkpt><trkpt lat="42.848199514156484" lon="-2.382544834651082"><ele>599.0</ele><time>2026-03-22T11:45:42Z</time></trkpt><trkpt lat="42.84812008786485" lon="-2.3825097647022804"><ele>599.0</ele><time>2026-03-22T11:45:43Z</time></trkpt><trkpt lat="42.84807636829213" lon="-2.3824375926090395"><ele>599.0</ele><time>2026-03-22T11:45:44Z</time></trkpt><trkpt lat="42.84788163463515" lon="-2.382525698079052"><ele>599.0</ele><time>2026-03-22T11:45:46Z</time></trkpt><trkpt lat="42.847789580629886" lon="-2.3825414728761043"><ele>599.0</ele><time>2026-03-22T11:45:47Z</time></trkpt><trkpt lat="42.84769490650821" lon="-2.382519311550646"><ele>598.8</ele><time>2026-03-22T11:45:48Z</time></trkpt><trkpt lat="42.8476030537195" lon="-2.382452137858096"><ele>598.5999999999999</ele><time>2026-03-22T11:45:49Z</time></trkpt><trkpt lat="42.847521786401245" lon="-2.3823513205362676"><ele>598.4</ele><time>2026-03-22T11:45:50Z</time></trkpt><trkpt lat="42.847465576658" lon="-2.382223157742792"><ele>598.1999999999999</ele><time>2026-03-22T11:45:51Z</time></trkpt><trkpt lat="42.847432476852944" lon="-2.382077658865607"><ele>598.0</ele><time>2026-03-22T11:45:52Z</time></trkpt><trkpt lat="42.847450651046195" lon="-2.3819358965251287"><ele>598.0</ele><time>2026-03-22T11:45:53Z</time></trkpt><trkpt lat="42.84735004194341" lon="-2.38178942694801"><ele>598.0</ele><time>2026-03-22T11:45:54Z</time></trkpt><trkpt lat="42.84727355161351" lon="-2.3816611739339244"><ele>598.0</ele><time>2026-03-22T11:45:55Z</time></trkpt><trkpt lat="42.84718290564621" lon="-2.38155149207852"><ele>598.0</ele><time>2026-03-22T11:45:56Z</time></trkpt><trkpt lat="42.8470857010943" lon="-2.3814399472918053"><ele>598.0</ele><time>2026-03-22T11:45:57Z</time></trkpt><trkpt lat="42.8469847296095" lon="-2.3813184953795816"><ele>598.0</ele><time>2026-03-22T11:45:58Z</time></trkpt><trkpt lat="42.846887140710955" lon="-2.381184268945161"><ele>598.0</ele><time>2026-03-22T11:45:59Z</time></trkpt><trkpt lat="42.84678362484479" lon="-2.3810377122405795"><ele>598.0</ele><time>2026-03-22T11:46:00Z</time></trkpt><trkpt lat="42.846672667617774" lon="-2.3808890710379056"><ele>597.6666666666667</ele><time>2026-03-22T11:46:01Z</time></trkpt><trkpt lat="42.84655496040038" lon="-2.380731912390279"><ele>597.3333333333334</ele><time>2026-03-22T11:46:02Z</time></trkpt><trkpt lat="42.84643368507839" lon="-2.3805685347934267"><ele>597.0</ele><time>2026-03-22T11:46:03Z</time></trkpt><trkpt lat="42.84631628890281" lon="-2.380399302259874"><ele>597.0</ele><time>2026-03-22T11:46:04Z</time></trkpt><trkpt lat="42.846211303374574" lon="-2.3802329042891657"><ele>597.0</ele><time>2026-03-22T11:46:05Z</time></trkpt><trkpt lat="42.84611475947769" lon="-2.3800732002779452"><ele>597.0</ele><time>2026-03-22T11:46:06Z</time></trkpt><trkpt lat="42.84602479897364" lon="-2.379926125258468"><ele>597.0</ele><time>2026-03-22T11:46:07Z</time></trkpt><trkpt lat="42.84594465177207" lon="-2.3797923164356796"><ele>597.0</ele><time>2026-03-22T11:46:08Z</time></trkpt><trkpt lat="42.84587945975018" lon="-2.379684961212765"><ele>597.0</ele><time>2026-03-22T11:46:09Z</time></trkpt><trkpt lat="42.84581927741714" lon="-2.3795811516287704"><ele>597.0</ele><time>2026-03-22T11:46:10Z</time></trkpt><trkpt lat="42.845766423017224" lon="-2.379475787010478"><ele>597.0</ele><time>2026-03-22T11:46:11Z</time></trkpt><trkpt lat="42.8457142728796" lon="-2.3793720460505483"><ele>597.2</ele><time>2026-03-22T11:46:12Z</time></trkpt><trkpt lat="42.845663181362596" lon="-2.379267738900615"><ele>597.4000000000001</ele><time>2026-03-22T11:46:13Z</time></trkpt><trkpt lat="42.84560981724743" lon="-2.3791604399145236"><ele>597.5999999999999</ele><time>2026-03-22T11:46:14Z</time></trkpt><trkpt lat="42.8455545622158" lon="-2.379051594439595"><ele>597.8</ele><time>2026-03-22T11:46:15Z</time></trkpt><trkpt lat="42.845496749614426" lon="-2.3789405107488846"><ele>598.0</ele><time>2026-03-22T11:46:16Z</time></trkpt><trkpt lat="42.8454374914607" lon="-2.378827784657772"><ele>598.0</ele><time>2026-03-22T11:46:17Z</time></trkpt><trkpt lat="42.84538424737792" lon="-2.378712161229368"><ele>598.0</ele><time>2026-03-22T11:46:18Z</time></trkpt><trkpt lat="42.84534677763497" lon="-2.3785859021848816"><ele>598.0</ele><time>2026-03-22T11:46:19Z</time></trkpt><trkpt lat="42.84531750836627" lon="-2.378441790768253"><ele>598.0</ele><time>2026-03-22T11:46:20Z</time></trkpt><trkpt lat="42.84529167199465" lon="-2.378288064190058"><ele>598.0</ele><time>2026-03-22T11:46:21Z</time></trkpt><trkpt lat="42.84528712575245" lon="-2.378117963168796"><ele>598.0</ele><time>2026-03-22T11:46:22Z</time></trkpt><trkpt lat="42.84530198372204" lon="-2.377937413482596"><ele>598.0</ele><time>2026-03-22T11:46:23Z</time></trkpt><trkpt lat="42.845331507385524" lon="-2.377751309817597"><ele>598.0</ele><time>2026-03-22T11:46:24Z</time></trkpt><trkpt lat="42.84537978354354" lon="-2.3775705821364905"><ele>598.0</ele><time>2026-03-22T11:46:25Z</time></trkpt><trkpt lat="42.84545558091154" lon="-2.3773998359702233"><ele>598.0</ele><time>2026-03-22T11:46:26Z</time></trkpt><trkpt lat="42.84555790639634" lon="-2.3772405584577556"><ele>598.0</ele><time>2026-03-22T11:46:27Z</time></trkpt><trkpt lat="42.84567438943186" lon="-2.3771009928818634"><ele>598.0</ele><time>2026-03-22T11:46:28Z</time></trkpt><trkpt lat="42.84580824858249" lon="-2.376997343263078"><ele>598.0</ele><time>2026-03-22T11:46:29Z</time></trkpt><trkpt lat="42.84595320982766" lon="-2.376923256131637"><ele>598.0</ele><time>2026-03-22T11:46:30Z</time></trkpt><trkpt lat="42.84610902151636" lon="-2.3768860283067843"><ele>598.0</ele><time>2026-03-22T11:46:31Z</time></trkpt><trkpt lat="42.846272416979886" lon="-2.3768877789780443"><ele>597.3333333333334</ele><time>2026-03-22T11:46:32Z</time></trkpt><trkpt lat="42.846444679668075" lon="-2.3769247413187955"><ele>596.6666666666666</ele><time>2026-03-22T11:46:33Z</time></trkpt><trkpt lat="42.84662443070976" lon="-2.376989358026182"><ele>596.0</ele><time>2026-03-22T11:46:34Z</time></trkpt><trkpt lat="42.84681964241484" lon="-2.377039112305935"><ele>596.0</ele><time>2026-03-22T11:46:34.999Z</time></trkpt><trkpt lat="42.84700508813146" lon="-2.3771269361105567"><ele>596.0</ele><time>2026-03-22T11:46:35.999Z</time></trkpt><trkpt lat="42.8471849063108" lon="-2.377173666008498"><ele>596.0</ele><time>2026-03-22T11:46:36.999Z</time></trkpt><trkpt lat="42.84735894926001" lon="-2.3771647707543067"><ele>596.0</ele><time>2026-03-22T11:46:37.999Z</time></trkpt><trkpt lat="42.847529825841576" lon="-2.377173681828624"><ele>596.0</ele><time>2026-03-22T11:46:38.999Z</time></trkpt><trkpt lat="42.84769790309731" lon="-2.3771008142936494"><ele>596.0</ele><time>2026-03-22T11:46:39.999Z</time></trkpt><trkpt lat="42.84786669106754" lon="-2.3770202226783304"><ele>596.3333333333333</ele><time>2026-03-22T11:46:40.999Z</time></trkpt><trkpt lat="42.8480315412227" lon="-2.376907042341629"><ele>596.6666666666666</ele><time>2026-03-22T11:46:41.999Z</time></trkpt><trkpt lat="42.848199594496094" lon="-2.3767725878970447"><ele>597.0</ele><time>2026-03-22T11:46:42.999Z</time></trkpt><trkpt lat="42.848350342355985" lon="-2.376588040920191"><ele>595.6666666666666</ele><time>2026-03-22T11:46:43.999Z</time></trkpt><trkpt lat="42.84850241096877" lon="-2.3763921195195774"><ele>594.3333333333333</ele><time>2026-03-22T11:46:44.999Z</time></trkpt><trkpt lat="42.84866430572104" lon="-2.376195764441677"><ele>593.0</ele><time>2026-03-22T11:46:45.999Z</time></trkpt><trkpt lat="42.84883308356878" lon="-2.375989688342653"><ele>593.0</ele><time>2026-03-22T11:46:46.999Z</time></trkpt><trkpt lat="42.849005284821914" lon="-2.3757753916667"><ele>593.0</ele><time>2026-03-22T11:46:47.999Z</time></trkpt><trkpt lat="42.849179401827854" lon="-2.375564486405554"><ele>593.5</ele><time>2026-03-22T11:46:48.999Z</time></trkpt><trkpt lat="42.849358756124886" lon="-2.3753428519906192"><ele>594.0</ele><time>2026-03-22T11:46:49.999Z</time></trkpt><trkpt lat="42.84953808872893" lon="-2.3751178410886244"><ele>594.0</ele><time>2026-03-22T11:46:50.999Z</time></trkpt><trkpt lat="42.84971420096222" lon="-2.374886695303587"><ele>594.0</ele><time>2026-03-22T11:46:51.999Z</time></trkpt><trkpt lat="42.84988781010728" lon="-2.3746487623810095"><ele>593.5</ele><time>2026-03-22T11:46:52.999Z</time></trkpt><trkpt lat="42.85004869765074" lon="-2.374393632630718"><ele>593.0</ele><time>2026-03-22T11:46:53.999Z</time></trkpt><trkpt lat="42.850199930002724" lon="-2.3741236148786844"><ele>593.0</ele><time>2026-03-22T11:46:54.999Z</time></trkpt><trkpt lat="42.85034037858101" lon="-2.3738524671362176"><ele>593.0</ele><time>2026-03-22T11:46:55.999Z</time></trkpt><trkpt lat="42.850474040709756" lon="-2.373575722722279"><ele>593.0</ele><time>2026-03-22T11:46:56.999Z</time></trkpt><trkpt lat="42.85061045999204" lon="-2.3732895784942225"><ele>593.0</ele><time>2026-03-22T11:46:57.999Z</time></trkpt><trkpt lat="42.850748684396606" lon="-2.372999359738055"><ele>593.5</ele><time>2026-03-22T11:46:58.999Z</time></trkpt><trkpt lat="42.850891400518684" lon="-2.372710920469913"><ele>594.0</ele><time>2026-03-22T11:46:59.999Z</time></trkpt><trkpt lat="42.85103346100744" lon="-2.3724243057886447"><ele>594.0</ele><time>2026-03-22T11:47:00.999Z</time></trkpt><trkpt lat="42.851176271101515" lon="-2.3721348404850477"><ele>594.0</ele><time>2026-03-22T11:47:01.999Z</time></trkpt><trkpt lat="42.85132003111943" lon="-2.371837016945914"><ele>594.0</ele><time>2026-03-22T11:47:02.999Z</time></trkpt><trkpt lat="42.851465173199884" lon="-2.3715328995876654"><ele>594.0</ele><time>2026-03-22T11:47:03.999Z</time></trkpt><trkpt lat="42.85161187416329" lon="-2.371226392946866"><ele>593.5</ele><time>2026-03-22T11:47:04.999Z</time></trkpt><trkpt lat="42.85176066337762" lon="-2.3709191360589954"><ele>593.0</ele><time>2026-03-22T11:47:05.999Z</time></trkpt><trkpt lat="42.85191283750963" lon="-2.3706105395255883"><ele>593.0</ele><time>2026-03-22T11:47:06.999Z</time></trkpt><trkpt lat="42.85206871902488" lon="-2.37030242845887"><ele>593.0</ele><time>2026-03-22T11:47:07.999Z</time></trkpt><trkpt lat="42.85222367598896" lon="-2.3699917009938334"><ele>592.5</ele><time>2026-03-22T11:47:08.999Z</time></trkpt><trkpt lat="42.852375305232044" lon="-2.3696777438787655"><ele>592.0</ele><time>2026-03-22T11:47:09.999Z</time></trkpt><trkpt lat="42.85252642603293" lon="-2.369365482460608"><ele>592.0</ele><time>2026-03-22T11:47:10.999Z</time></trkpt><trkpt lat="42.85267817241008" lon="-2.369056254188922"><ele>592.0</ele><time>2026-03-22T11:47:11.999Z</time></trkpt><trkpt lat="42.85282799006359" lon="-2.3687472874830693"><ele>592.0</ele><time>2026-03-22T11:47:13Z</time></trkpt><trkpt lat="42.852978345037265" lon="-2.368443407183981"><ele>592.0</ele><time>2026-03-22T11:47:14Z</time></trkpt><trkpt lat="42.85312758998755" lon="-2.368142381548729"><ele>593.5</ele><time>2026-03-22T11:47:15Z</time></trkpt><trkpt lat="42.85327237693784" lon="-2.367840193980824"><ele>595.0</ele><time>2026-03-22T11:47:16Z</time></trkpt><trkpt lat="42.85341414636224" lon="-2.367537449978742"><ele>595.5</ele><time>2026-03-22T11:47:17Z</time></trkpt><trkpt lat="42.85355224576913" lon="-2.367251264716146"><ele>596.0</ele><time>2026-03-22T11:47:18Z</time></trkpt><trkpt lat="42.85367901489254" lon="-2.3669906408527615"><ele>598.0</ele><time>2026-03-22T11:47:19Z</time></trkpt><trkpt lat="42.85379660878216" lon="-2.3667485350180715"><ele>600.0</ele><time>2026-03-22T11:47:20Z</time></trkpt><trkpt lat="42.853913648775176" lon="-2.3665136593633935"><ele>602.0</ele><time>2026-03-22T11:47:21Z</time></trkpt><trkpt lat="42.854030210248474" lon="-2.3662765485832877"><ele>602.6666666666666</ele><time>2026-03-22T11:47:22Z</time></trkpt><trkpt lat="42.85414742850197" lon="-2.3660332280894765"><ele>603.3333333333334</ele><time>2026-03-22T11:47:23Z</time></trkpt><trkpt lat="42.8542555887731" lon="-2.3657793385216737"><ele>604.0</ele><time>2026-03-22T11:47:24Z</time></trkpt><trkpt lat="42.854357149353085" lon="-2.3655106331084035"><ele>604.5</ele><time>2026-03-22T11:47:25Z</time></trkpt><trkpt lat="42.8544495191628" lon="-2.3652249794252738"><ele>605.0</ele><time>2026-03-22T11:47:26Z</time></trkpt><trkpt lat="42.85453622315305" lon="-2.3649234280077316"><ele>604.5</ele><time>2026-03-22T11:47:27Z</time></trkpt><trkpt lat="42.85462198410026" lon="-2.3646024451234555"><ele>604.0</ele><time>2026-03-22T11:47:28Z</time></trkpt><trkpt lat="42.85471520929875" lon="-2.3642603334028336"><ele>604.0</ele><time>2026-03-22T11:47:29Z</time></trkpt><trkpt lat="42.85481631708927" lon="-2.3639005188201225"><ele>604.0</ele><time>2026-03-22T11:47:30Z</time></trkpt><trkpt lat="42.85491959377712" lon="-2.363519800482737"><ele>603.5</ele><time>2026-03-22T11:47:31Z</time></trkpt><trkpt lat="42.85502765875797" lon="-2.3631200109662056"><ele>603.0</ele><time>2026-03-22T11:47:32Z</time></trkpt><trkpt lat="42.855137720234666" lon="-2.3627065527804985"><ele>602.5</ele><time>2026-03-22T11:47:33Z</time></trkpt><trkpt lat="42.85524821290934" lon="-2.362299217707105"><ele>602.0</ele><time>2026-03-22T11:47:34Z</time></trkpt><trkpt lat="42.8553579570229" lon="-2.36190113230723"><ele>603.0</ele><time>2026-03-22T11:47:35Z</time></trkpt><trkpt lat="42.855465552868054" lon="-2.361497416001562"><ele>604.0</ele><time>2026-03-22T11:47:36Z</time></trkpt><trkpt lat="42.855569901707874" lon="-2.3610930708230704"><ele>605.0</ele><time>2026-03-22T11:47:37Z</time></trkpt><trkpt lat="42.85567660006866" lon="-2.3606881745249986"><ele>606.0</ele><time>2026-03-22T11:47:38Z</time></trkpt><trkpt lat="42.855787024582014" lon="-2.360281878201772"><ele>607.5</ele><time>2026-03-22T11:47:39Z</time></trkpt><trkpt lat="42.85589748839648" lon="-2.3598757074286105"><ele>609.0</ele><time>2026-03-22T11:47:40Z</time></trkpt><trkpt lat="42.856004109562164" lon="-2.3594679238360996"><ele>610.0</ele><time>2026-03-22T11:47:41Z</time></trkpt><trkpt lat="42.85610398687392" lon="-2.359059917377071"><ele>611.0</ele><time>2026-03-22T11:47:42Z</time></trkpt><trkpt lat="42.85619776303092" lon="-2.358650478691481"><ele>614.0</ele><time>2026-03-22T11:47:43Z</time></trkpt><trkpt lat="42.856281956254094" lon="-2.358245092524535"><ele>617.0</ele><time>2026-03-22T11:47:44Z</time></trkpt><trkpt lat="42.85636683203313" lon="-2.357843082204756"><ele>620.5</ele><time>2026-03-22T11:47:45Z</time></trkpt><trkpt lat="42.856442490770704" lon="-2.3574565690538734"><ele>624.0</ele><time>2026-03-22T11:47:46Z</time></trkpt><trkpt lat="42.85651486091289" lon="-2.3570932137317198"><ele>626.5</ele><time>2026-03-22T11:47:47Z</time></trkpt><trkpt lat="42.85658538600522" lon="-2.356749069531597"><ele>629.0</ele><time>2026-03-22T11:47:48Z</time></trkpt><trkpt lat="42.85665680873301" lon="-2.3564154349318827"><ele>630.0</ele><time>2026-03-22T11:47:49Z</time></trkpt><trkpt lat="42.856726754002814" lon="-2.3560727528487377"><ele>631.0</ele><time>2026-03-22T11:47:50Z</time></trkpt><trkpt lat="42.85679115053427" lon="-2.355722850140147"><ele>628.5</ele><time>2026-03-22T11:47:51Z</time></trkpt><trkpt lat="42.85685738017736" lon="-2.3553676860328103"><ele>626.0</ele><time>2026-03-22T11:47:52Z</time></trkpt><trkpt lat="42.85692741396971" lon="-2.355007060758826"><ele>626.0</ele><time>2026-03-22T11:47:53Z</time></trkpt><trkpt lat="42.8569980450758" lon="-2.3546389623354322"><ele>626.0</ele><time>2026-03-22T11:47:54Z</time></trkpt><trkpt lat="42.857066942451866" lon="-2.354264135195043"><ele>626.0</ele><time>2026-03-22T11:47:55Z</time></trkpt><trkpt lat="42.857135605699824" lon="-2.3538834785702982"><ele>626.0</ele><time>2026-03-22T11:47:56Z</time></trkpt><trkpt lat="42.85720043588567" lon="-2.3535010917218115"><ele>626.5</ele><time>2026-03-22T11:47:57Z</time></trkpt><trkpt lat="42.85725478303243" lon="-2.353144804796168"><ele>627.0</ele><time>2026-03-22T11:47:58Z</time></trkpt><trkpt lat="42.85729974331338" lon="-2.3528106323592293"><ele>627.5</ele><time>2026-03-22T11:47:59Z</time></trkpt><trkpt lat="42.85734324255849" lon="-2.352491222487014"><ele>628.0</ele><time>2026-03-22T11:48:00Z</time></trkpt><trkpt lat="42.85738975015166" lon="-2.35215670899121"><ele>626.5</ele><time>2026-03-22T11:48:01Z</time></trkpt><trkpt lat="42.85743905038474" lon="-2.351810702363325"><ele>625.0</ele><time>2026-03-22T11:48:02Z</time></trkpt><trkpt lat="42.85748941171167" lon="-2.3514562455192967"><ele>623.5</ele><time>2026-03-22T11:48:03Z</time></trkpt><trkpt lat="42.85753913463785" lon="-2.3510894425952897"><ele>622.0</ele><time>2026-03-22T11:48:04Z</time></trkpt><trkpt lat="42.85759323219404" lon="-2.3507111579589104"><ele>619.5</ele><time>2026-03-22T11:48:05Z</time></trkpt><trkpt lat="42.85764960276244" lon="-2.3503235413741908"><ele>617.0</ele><time>2026-03-22T11:48:06Z</time></trkpt><trkpt lat="42.85770880753708" lon="-2.3499257682062926"><ele>618.0</ele><time>2026-03-22T11:48:07Z</time></trkpt><trkpt lat="42.85777044070257" lon="-2.349516926440455"><ele>619.0</ele><time>2026-03-22T11:48:08Z</time></trkpt><trkpt lat="42.85783081879015" lon="-2.3490984087988176"><ele>618.5</ele><time>2026-03-22T11:48:09Z</time></trkpt><trkpt lat="42.857892002986354" lon="-2.3486742056567405"><ele>618.0</ele><time>2026-03-22T11:48:10Z</time></trkpt><trkpt lat="42.85795440238174" lon="-2.3482475967788714"><ele>619.0</ele><time>2026-03-22T11:48:11Z</time></trkpt><trkpt lat="42.85801646487798" lon="-2.3478195414510585"><ele>620.0</ele><time>2026-03-22T11:48:12Z</time></trkpt><trkpt lat="42.858080788498974" lon="-2.347387484121766"><ele>621.5</ele><time>2026-03-22T11:48:13Z</time></trkpt><trkpt lat="42.858142931619575" lon="-2.3469558510232567"><ele>623.0</ele><time>2026-03-22T11:48:14Z</time></trkpt><trkpt lat="42.85820588477895" lon="-2.3465323860995237"><ele>624.0</ele><time>2026-03-22T11:48:15Z</time></trkpt><trkpt lat="42.85826797287538" lon="-2.3461214961628145"><ele>625.0</ele><time>2026-03-22T11:48:16Z</time></trkpt><trkpt lat="42.858327341822026" lon="-2.345723015878506"><ele>625.5</ele><time>2026-03-22T11:48:17Z</time></trkpt><trkpt lat="42.85838071064838" lon="-2.345340118403204"><ele>626.0</ele><time>2026-03-22T11:48:18Z</time></trkpt><trkpt lat="42.858432289109714" lon="-2.34496806941476"><ele>622.0</ele><time>2026-03-22T11:48:19Z</time></trkpt><trkpt lat="42.858487156338164" lon="-2.3445849483774905"><ele>618.0</ele><time>2026-03-22T11:48:20Z</time></trkpt><trkpt lat="42.858544075258116" lon="-2.3441880524107965"><ele>617.5</ele><time>2026-03-22T11:48:21Z</time></trkpt><trkpt lat="42.85860380783697" lon="-2.343779650600611"><ele>617.0</ele><time>2026-03-22T11:48:22Z</time></trkpt><trkpt lat="42.85866239642809" lon="-2.343362579740576"><ele>618.5</ele><time>2026-03-22T11:48:23Z</time></trkpt><trkpt lat="42.858719627652256" lon="-2.3429426674539204"><ele>620.0</ele><time>2026-03-22T11:48:24Z</time></trkpt><trkpt lat="42.85877201982833" lon="-2.342521349403999"><ele>620.0</ele><time>2026-03-22T11:48:25Z</time></trkpt><trkpt lat="42.858831965799205" lon="-2.3420962655715845"><ele>620.0</ele><time>2026-03-22T11:48:26Z</time></trkpt><trkpt lat="42.858893767142604" lon="-2.341669832632233"><ele>619.5</ele><time>2026-03-22T11:48:27Z</time></trkpt><trkpt lat="42.85895428880284" lon="-2.341241407125137"><ele>619.0</ele><time>2026-03-22T11:48:28Z</time></trkpt><trkpt lat="42.85901290303373" lon="-2.3408090854062196"><ele>618.5</ele><time>2026-03-22T11:48:29Z</time></trkpt><trkpt lat="42.85907127084664" lon="-2.340375330145747"><ele>618.0</ele><time>2026-03-22T11:48:30Z</time></trkpt><trkpt lat="42.85913098678922" lon="-2.3399357993623644"><ele>617.0</ele><time>2026-03-22T11:48:31Z</time></trkpt><trkpt lat="42.85919402344801" lon="-2.3394929688589055"><ele>616.0</ele><time>2026-03-22T11:48:32Z</time></trkpt><trkpt lat="42.859257403580045" lon="-2.3390495982634794"><ele>615.0</ele><time>2026-03-22T11:48:33Z</time></trkpt><trkpt lat="42.85931902226669" lon="-2.3386027319909606"><ele>614.0</ele><time>2026-03-22T11:48:34Z</time></trkpt><trkpt lat="42.8593814430511" lon="-2.3381499421039558"><ele>612.5</ele><time>2026-03-22T11:48:35Z</time></trkpt><trkpt lat="42.85944554028522" lon="-2.337689883196171"><ele>611.0</ele><time>2026-03-22T11:48:36Z</time></trkpt><trkpt lat="42.85951184417856" lon="-2.3372237442984494"><ele>610.5</ele><time>2026-03-22T11:48:37Z</time></trkpt><trkpt lat="42.85957819737024" lon="-2.3367520473447456"><ele>610.0</ele><time>2026-03-22T11:48:38Z</time></trkpt><trkpt lat="42.85964437718681" lon="-2.3362793128414046"><ele>610.0</ele><time>2026-03-22T11:48:39Z</time></trkpt><trkpt lat="42.85971053421427" lon="-2.3358125310545224"><ele>610.0</ele><time>2026-03-22T11:48:40Z</time></trkpt><trkpt lat="42.85977485020179" lon="-2.3353472206016685"><ele>609.0</ele><time>2026-03-22T11:48:41Z</time></trkpt><trkpt lat="42.85983930234403" lon="-2.3348880620286434"><ele>608.0</ele><time>2026-03-22T11:48:42Z</time></trkpt><trkpt lat="42.85990183346719" lon="-2.3344408679273916"><ele>608.0</ele><time>2026-03-22T11:48:43Z</time></trkpt><trkpt lat="42.85996218863744" lon="-2.334010236407419"><ele>608.0</ele><time>2026-03-22T11:48:44Z</time></trkpt><trkpt lat="42.860021691183356" lon="-2.3335900291354736"><ele>609.0</ele><time>2026-03-22T11:48:45Z</time></trkpt><trkpt lat="42.86007951050933" lon="-2.333178149790611"><ele>610.0</ele><time>2026-03-22T11:48:46Z</time></trkpt><trkpt lat="42.860136446486365" lon="-2.3327713777869166"><ele>608.0</ele><time>2026-03-22T11:48:47Z</time></trkpt><trkpt lat="42.86019655453615" lon="-2.3323691646268605"><ele>606.0</ele><time>2026-03-22T11:48:48Z</time></trkpt><trkpt lat="42.86025404603245" lon="-2.3319617760832734"><ele>604.5</ele><time>2026-03-22T11:48:49Z</time></trkpt><trkpt lat="42.86031387812903" lon="-2.331552607581644"><ele>603.0</ele><time>2026-03-22T11:48:50Z</time></trkpt><trkpt lat="42.860374331769094" lon="-2.3311383495897884"><ele>602.0</ele><time>2026-03-22T11:48:51Z</time></trkpt><trkpt lat="42.86043480947842" lon="-2.330718922815291"><ele>601.0</ele><time>2026-03-22T11:48:52Z</time></trkpt><trkpt lat="42.86049586234131" lon="-2.330293288825002"><ele>601.0</ele><time>2026-03-22T11:48:53Z</time></trkpt><trkpt lat="42.86055899171598" lon="-2.3298620570853625"><ele>601.0</ele><time>2026-03-22T11:48:54Z</time></trkpt><trkpt lat="42.86062080111046" lon="-2.329428512427681"><ele>601.0</ele><time>2026-03-22T11:48:55Z</time></trkpt><trkpt lat="42.860681194109254" lon="-2.3289936663392377"><ele>601.0</ele><time>2026-03-22T11:48:56Z</time></trkpt><trkpt lat="42.86074270500224" lon="-2.328563084770792"><ele>600.5</ele><time>2026-03-22T11:48:57Z</time></trkpt><trkpt lat="42.86080678621715" lon="-2.328133306072107"><ele>600.0</ele><time>2026-03-22T11:48:58Z</time></trkpt><trkpt lat="42.86086704846505" lon="-2.327708489133969"><ele>600.5</ele><time>2026-03-22T11:48:59Z</time></trkpt><trkpt lat="42.86092485473062" lon="-2.3272912618392705"><ele>601.0</ele><time>2026-03-22T11:49:00Z</time></trkpt><trkpt lat="42.86098258154969" lon="-2.3268883874356145"><ele>601.0</ele><time>2026-03-22T11:49:01Z</time></trkpt><trkpt lat="42.86103749854521" lon="-2.3264976603497014"><ele>601.0</ele><time>2026-03-22T11:49:02Z</time></trkpt><trkpt lat="42.861089627758986" lon="-2.326113777786903"><ele>601.0</ele><time>2026-03-22T11:49:03Z</time></trkpt><trkpt lat="42.86113809104572" lon="-2.325741555441739"><ele>601.0</ele><time>2026-03-22T11:49:04Z</time></trkpt><trkpt lat="42.86118878842212" lon="-2.325378433072273"><ele>601.0</ele><time>2026-03-22T11:49:04.999Z</time></trkpt><trkpt lat="42.861240531686235" lon="-2.325032752599328"><ele>601.0</ele><time>2026-03-22T11:49:05.999Z</time></trkpt><trkpt lat="42.861290734136716" lon="-2.3246972680011373"><ele>601.5</ele><time>2026-03-22T11:49:06.999Z</time></trkpt><trkpt lat="42.861340574790724" lon="-2.3243670620178536"><ele>602.0</ele><time>2026-03-22T11:49:07.999Z</time></trkpt><trkpt lat="42.86139149733027" lon="-2.3240291060927802"><ele>602.5</ele><time>2026-03-22T11:49:08.999Z</time></trkpt><trkpt lat="42.86143859635215" lon="-2.323686574501499"><ele>603.0</ele><time>2026-03-22T11:49:09.999Z</time></trkpt><trkpt lat="42.86148315914856" lon="-2.32334513003107"><ele>603.0</ele><time>2026-03-22T11:49:10.999Z</time></trkpt><trkpt lat="42.86153111759471" lon="-2.323008672464961"><ele>603.0</ele><time>2026-03-22T11:49:11.999Z</time></trkpt><trkpt lat="42.8615861991923" lon="-2.322676049952621"><ele>603.0</ele><time>2026-03-22T11:49:12.999Z</time></trkpt><trkpt lat="42.86164730670151" lon="-2.3223453842086093"><ele>603.0</ele><time>2026-03-22T11:49:13.999Z</time></trkpt><trkpt lat="42.86171188301716" lon="-2.3220154937420925"><ele>602.0</ele><time>2026-03-22T11:49:14.999Z</time></trkpt><trkpt lat="42.86178413065412" lon="-2.3216972046561404"><ele>601.0</ele><time>2026-03-22T11:49:15.999Z</time></trkpt><trkpt lat="42.861866417332564" lon="-2.321387176541102"><ele>601.0</ele><time>2026-03-22T11:49:16.999Z</time></trkpt><trkpt lat="42.86196732091691" lon="-2.3210892393500666"><ele>601.0</ele><time>2026-03-22T11:49:17.999Z</time></trkpt><trkpt lat="42.862099477260394" lon="-2.3208106776646735"><ele>602.0</ele><time>2026-03-22T11:49:19.001Z</time></trkpt><trkpt lat="42.862246040493865" lon="-2.320561853555031"><ele>603.0</ele><time>2026-03-22T11:49:20.001Z</time></trkpt><trkpt lat="42.862411518822526" lon="-2.3203400454853713"><ele>603.0</ele><time>2026-03-22T11:49:21.001Z</time></trkpt><trkpt lat="42.86259196121041" lon="-2.320133101699709"><ele>603.0</ele><time>2026-03-22T11:49:22.001Z</time></trkpt><trkpt lat="42.862786781496204" lon="-2.3199458654827465"><ele>601.5</ele><time>2026-03-22T11:49:23.001Z</time></trkpt><trkpt lat="42.86296819301521" lon="-2.3197320194895994"><ele>600.0</ele><time>2026-03-22T11:49:24.001Z</time></trkpt><trkpt lat="42.86321880661211" lon="-2.319641256692648"><ele>600.0</ele><time>2026-03-22T11:49:25.001Z</time></trkpt><trkpt lat="42.863433527870015" lon="-2.319504462888829"><ele>600.0</ele><time>2026-03-22T11:49:26.001Z</time></trkpt><trkpt lat="42.863628822355984" lon="-2.3193780137564435"><ele>600.0</ele><time>2026-03-22T11:49:27.001Z</time></trkpt><trkpt lat="42.86379546929899" lon="-2.3192630066186424"><ele>600.0</ele><time>2026-03-22T11:49:28.001Z</time></trkpt><trkpt lat="42.863933326235006" lon="-2.3191491027965045"><ele>600.0</ele><time>2026-03-22T11:49:29.001Z</time></trkpt><trkpt lat="42.86404740999295" lon="-2.3190356856178864"><ele>600.0</ele><time>2026-03-22T11:49:30.001Z</time></trkpt><trkpt lat="42.86413823659876" lon="-2.3189266360738454"><ele>600.0</ele><time>2026-03-22T11:49:31.001Z</time></trkpt><trkpt lat="42.86420735355946" lon="-2.3188213775332445"><ele>600.0</ele><time>2026-03-22T11:49:32.001Z</time></trkpt><trkpt lat="42.8642646688799" lon="-2.318693523628771"><ele>600.0</ele><time>2026-03-22T11:49:33.001Z</time></trkpt><trkpt lat="42.8643386871513" lon="-2.318566872941656"><ele>599.25</ele><time>2026-03-22T11:49:34.001Z</time></trkpt><trkpt lat="42.86442936590255" lon="-2.31845062358038"><ele>598.5</ele><time>2026-03-22T11:49:35.001Z</time></trkpt><trkpt lat="42.864528067398766" lon="-2.3183370990498093"><ele>597.75</ele><time>2026-03-22T11:49:36.001Z</time></trkpt><trkpt lat="42.86461595127505" lon="-2.318198386352029"><ele>597.0</ele><time>2026-03-22T11:49:37.001Z</time></trkpt><trkpt lat="42.86468647217235" lon="-2.3180134708868048"><ele>596.6666666666666</ele><time>2026-03-22T11:49:38.001Z</time></trkpt><trkpt lat="42.86475170150615" lon="-2.3177951557954324"><ele>596.3333333333333</ele><time>2026-03-22T11:49:39.001Z</time></trkpt><trkpt lat="42.86481688881451" lon="-2.3175553718647497"><ele>596.0</ele><time>2026-03-22T11:49:40.001Z</time></trkpt><trkpt lat="42.864878323136764" lon="-2.3172896795274744"><ele>596.6666666666666</ele><time>2026-03-22T11:49:41.001Z</time></trkpt><trkpt lat="42.86493035804326" lon="-2.316999687124772"><ele>597.3333333333334</ele><time>2026-03-22T11:49:42.001Z</time></trkpt><trkpt lat="42.864975094050344" lon="-2.31670283386135"><ele>598.0</ele><time>2026-03-22T11:49:43.001Z</time></trkpt><trkpt lat="42.865014567175756" lon="-2.316430725729628"><ele>598.6666666666667</ele><time>2026-03-22T11:49:44Z</time></trkpt><trkpt lat="42.86505500439567" lon="-2.316164292629743"><ele>599.3333333333334</ele><time>2026-03-22T11:49:45.001Z</time></trkpt><trkpt lat="42.86509431226283" lon="-2.315907682726875"><ele>600.0</ele><time>2026-03-22T11:49:46Z</time></trkpt><trkpt lat="42.86513101919157" lon="-2.315657243250526"><ele>601.0</ele><time>2026-03-22T11:49:47Z</time></trkpt><trkpt lat="42.86516458124903" lon="-2.315408489460258"><ele>602.0</ele><time>2026-03-22T11:49:48Z</time></trkpt><trkpt lat="42.8651991086814" lon="-2.3151661772505725"><ele>603.0</ele><time>2026-03-22T11:49:49Z</time></trkpt><trkpt lat="42.8652687432982" lon="-2.3146930348145496"><ele>603.3333333333334</ele><time>2026-03-22T11:49:51Z</time></trkpt><trkpt lat="42.865301611564696" lon="-2.3144643782042844"><ele>603.6666666666667</ele><time>2026-03-22T11:49:52Z</time></trkpt><trkpt lat="42.86533037200812" lon="-2.3142343588206282"><ele>604.0</ele><time>2026-03-22T11:49:53Z</time></trkpt><trkpt lat="42.86536172659914" lon="-2.314001279935304"><ele>604.6666666666667</ele><time>2026-03-22T11:49:54Z</time></trkpt><trkpt lat="42.86539424485073" lon="-2.313769241587042"><ele>605.3333333333334</ele><time>2026-03-22T11:49:55Z</time></trkpt><trkpt lat="42.865430582806574" lon="-2.3135428863840923"><ele>606.0</ele><time>2026-03-22T11:49:56Z</time></trkpt><trkpt lat="42.865464965700646" lon="-2.3133216101503793"><ele>606.0</ele><time>2026-03-22T11:49:57Z</time></trkpt><trkpt lat="42.865499382748226" lon="-2.313099015675321"><ele>606.0</ele><time>2026-03-22T11:49:58Z</time></trkpt><trkpt lat="42.8655315017469" lon="-2.3128776469541594"><ele>606.0</ele><time>2026-03-22T11:49:59Z</time></trkpt><trkpt lat="42.86556289014109" lon="-2.3126523477486938"><ele>605.0</ele><time>2026-03-22T11:50:00Z</time></trkpt><trkpt lat="42.86558268187122" lon="-2.3124196535878974"><ele>604.0</ele><time>2026-03-22T11:50:01Z</time></trkpt><trkpt lat="42.865590556509964" lon="-2.31217771969005"><ele>603.0</ele><time>2026-03-22T11:50:02Z</time></trkpt><trkpt lat="42.86559889828033" lon="-2.3119171781923"><ele>601.6666666666666</ele><time>2026-03-22T11:50:03Z</time></trkpt><trkpt lat="42.86561038115955" lon="-2.31163882226588"><ele>600.3333333333333</ele><time>2026-03-22T11:50:04Z</time></trkpt><trkpt lat="42.86561987999051" lon="-2.3113393899512222"><ele>599.0</ele><time>2026-03-22T11:50:05Z</time></trkpt><trkpt lat="42.86563414995308" lon="-2.311020586012791"><ele>598.5</ele><time>2026-03-22T11:50:06Z</time></trkpt><trkpt lat="42.86564638791009" lon="-2.310681779534006"><ele>598.0</ele><time>2026-03-22T11:50:07Z</time></trkpt><trkpt lat="42.86565523815818" lon="-2.310324831629205"><ele>596.0</ele><time>2026-03-22T11:50:08Z</time></trkpt><trkpt lat="42.86565983020947" lon="-2.3099719556958194"><ele>594.0</ele><time>2026-03-22T11:50:09Z</time></trkpt><trkpt lat="42.86566842640762" lon="-2.3096152246507344"><ele>594.0</ele><time>2026-03-22T11:50:10Z</time></trkpt><trkpt lat="42.86567506272782" lon="-2.3092460567476296"><ele>594.0</ele><time>2026-03-22T11:50:11Z</time></trkpt><trkpt lat="42.865685069754676" lon="-2.308866639495671"><ele>592.5</ele><time>2026-03-22T11:50:12Z</time></trkpt><trkpt lat="42.86569381295077" lon="-2.3084809096074848"><ele>591.0</ele><time>2026-03-22T11:50:13Z</time></trkpt><trkpt lat="42.865702775258235" lon="-2.308092435487735"><ele>590.0</ele><time>2026-03-22T11:50:14Z</time></trkpt><trkpt lat="42.86571235178465" lon="-2.3076950220139314"><ele>589.0</ele><time>2026-03-22T11:50:15Z</time></trkpt><trkpt lat="42.86572350994751" lon="-2.307287860217585"><ele>589.5</ele><time>2026-03-22T11:50:16Z</time></trkpt><trkpt lat="42.865732057240656" lon="-2.306876557173536"><ele>590.0</ele><time>2026-03-22T11:50:17Z</time></trkpt><trkpt lat="42.86573819589645" lon="-2.306469016383864"><ele>590.5</ele><time>2026-03-22T11:50:18Z</time></trkpt><trkpt lat="42.86574329407777" lon="-2.306061756820621"><ele>591.0</ele><time>2026-03-22T11:50:19Z</time></trkpt><trkpt lat="42.86575146865368" lon="-2.305644235870454"><ele>590.0</ele><time>2026-03-22T11:50:20Z</time></trkpt><trkpt lat="42.86576152076368" lon="-2.305218155758025"><ele>589.0</ele><time>2026-03-22T11:50:21Z</time></trkpt><trkpt lat="42.86577326177536" lon="-2.3047879910959526"><ele>590.0</ele><time>2026-03-22T11:50:22Z</time></trkpt><trkpt lat="42.86578845457749" lon="-2.304355527530547"><ele>591.0</ele><time>2026-03-22T11:50:23Z</time></trkpt><trkpt lat="42.865799172822705" lon="-2.303919074481258"><ele>591.0</ele><time>2026-03-22T11:50:24Z</time></trkpt><trkpt lat="42.865808737106605" lon="-2.3034841002525366"><ele>591.0</ele><time>2026-03-22T11:50:25Z</time></trkpt><trkpt lat="42.865814689520974" lon="-2.303045738756774"><ele>591.0</ele><time>2026-03-22T11:50:26Z</time></trkpt><trkpt lat="42.86582612802821" lon="-2.3026057671621447"><ele>591.0</ele><time>2026-03-22T11:50:27Z</time></trkpt><trkpt lat="42.86583677693749" lon="-2.3021707094837955"><ele>591.0</ele><time>2026-03-22T11:50:28Z</time></trkpt><trkpt lat="42.86584915293097" lon="-2.3017371338110793"><ele>591.0</ele><time>2026-03-22T11:50:29Z</time></trkpt><trkpt lat="42.86585894950227" lon="-2.3013087180347447"><ele>593.5</ele><time>2026-03-22T11:50:30Z</time></trkpt><trkpt lat="42.8658676938686" lon="-2.3008849627672716"><ele>596.0</ele><time>2026-03-22T11:50:31Z</time></trkpt><trkpt lat="42.86587745112063" lon="-2.30048632566312"><ele>597.5</ele><time>2026-03-22T11:50:32Z</time></trkpt><trkpt lat="42.865887144439775" lon="-2.3001034892494108"><ele>599.0</ele><time>2026-03-22T11:50:33Z</time></trkpt><trkpt lat="42.86589592573357" lon="-2.299724878284231"><ele>599.0</ele><time>2026-03-22T11:50:34Z</time></trkpt><trkpt lat="42.865903850463084" lon="-2.299366156886179"><ele>599.0</ele><time>2026-03-22T11:50:35Z</time></trkpt><trkpt lat="42.865900270987915" lon="-2.2990269073517267"><ele>598.0</ele><time>2026-03-22T11:50:36Z</time></trkpt><trkpt lat="42.865865955828966" lon="-2.2987237559761913"><ele>597.0</ele><time>2026-03-22T11:50:37Z</time></trkpt><trkpt lat="42.86578877513808" lon="-2.2984322657309755"><ele>597.0</ele><time>2026-03-22T11:50:38Z</time></trkpt><trkpt lat="42.865690045303595" lon="-2.2981360554146155"><ele>597.0</ele><time>2026-03-22T11:50:39Z</time></trkpt><trkpt lat="42.86556184339003" lon="-2.2978495307379965"><ele>596.5</ele><time>2026-03-22T11:50:40Z</time></trkpt><trkpt lat="42.86542943413389" lon="-2.297562124535432"><ele>596.0</ele><time>2026-03-22T11:50:41Z</time></trkpt><trkpt lat="42.86532531202691" lon="-2.297282210168533"><ele>596.3333333333333</ele><time>2026-03-22T11:50:42Z</time></trkpt><trkpt lat="42.86525343911581" lon="-2.297006871475102"><ele>596.6666666666666</ele><time>2026-03-22T11:50:43Z</time></trkpt><trkpt lat="42.86519681225989" lon="-2.296733536341978"><ele>597.0</ele><time>2026-03-22T11:50:44Z</time></trkpt><trkpt lat="42.86516397983599" lon="-2.2964450716015805"><ele>595.0</ele><time>2026-03-22T11:50:45Z</time></trkpt><trkpt lat="42.86515524308119" lon="-2.296135464345407"><ele>593.0</ele><time>2026-03-22T11:50:46Z</time></trkpt><trkpt lat="42.86515990201544" lon="-2.2958108794233394"><ele>593.5</ele><time>2026-03-22T11:50:47Z</time></trkpt><trkpt lat="42.86516925247647" lon="-2.295473949106474"><ele>594.0</ele><time>2026-03-22T11:50:48Z</time></trkpt><trkpt lat="42.865175244905075" lon="-2.295130673595943"><ele>594.0</ele><time>2026-03-22T11:50:49Z</time></trkpt><trkpt lat="42.865178100278634" lon="-2.294793547743789"><ele>594.0</ele><time>2026-03-22T11:50:50Z</time></trkpt><trkpt lat="42.865179003080556" lon="-2.2944824129160857"><ele>594.0</ele><time>2026-03-22T11:50:51Z</time></trkpt><trkpt lat="42.86516852497312" lon="-2.29418945440443"><ele>594.0</ele><time>2026-03-22T11:50:52Z</time></trkpt><trkpt lat="42.86512574306893" lon="-2.29389644896431"><ele>594.0</ele><time>2026-03-22T11:50:53Z</time></trkpt><trkpt lat="42.86505104548134" lon="-2.2935982314738412"><ele>594.0</ele><time>2026-03-22T11:50:54Z</time></trkpt><trkpt lat="42.864943277131374" lon="-2.2933067809948624"><ele>594.0</ele><time>2026-03-22T11:50:55Z</time></trkpt><trkpt lat="42.86480188183417" lon="-2.293030994171394"><ele>593.5</ele><time>2026-03-22T11:50:56Z</time></trkpt><trkpt lat="42.864613868325776" lon="-2.2928030931785184"><ele>593.0</ele><time>2026-03-22T11:50:57Z</time></trkpt><trkpt lat="42.86441677470311" lon="-2.2925973220012827"><ele>594.0</ele><time>2026-03-22T11:50:58Z</time></trkpt><trkpt lat="42.86420973385857" lon="-2.2924070114536956"><ele>595.0</ele><time>2026-03-22T11:50:59Z</time></trkpt><trkpt lat="42.864015468957" lon="-2.292231587524779"><ele>596.0</ele><time>2026-03-22T11:51:00Z</time></trkpt><trkpt lat="42.86384526792756" lon="-2.292053538498163"><ele>597.0</ele><time>2026-03-22T11:51:01Z</time></trkpt><trkpt lat="42.8636939278816" lon="-2.2918515247124307"><ele>598.0</ele><time>2026-03-22T11:51:02Z</time></trkpt><trkpt lat="42.86355173592227" lon="-2.2916333006046803"><ele>600.0</ele><time>2026-03-22T11:51:03Z</time></trkpt><trkpt lat="42.86343497253476" lon="-2.2914022123066675"><ele>602.0</ele><time>2026-03-22T11:51:04Z</time></trkpt><trkpt lat="42.86334468659988" lon="-2.2911567766944385"><ele>604.0</ele><time>2026-03-22T11:51:04.999Z</time></trkpt><trkpt lat="42.8632747518596" lon="-2.2908924693428694"><ele>604.0</ele><time>2026-03-22T11:51:05.999Z</time></trkpt><trkpt lat="42.86322229765132" lon="-2.2906109144794753"><ele>604.0</ele><time>2026-03-22T11:51:06.999Z</time></trkpt><trkpt lat="42.86321103029576" lon="-2.2903189043451193"><ele>604.0</ele><time>2026-03-22T11:51:07.999Z</time></trkpt><trkpt lat="42.86322883157787" lon="-2.2900148427403972"><ele>607.0</ele><time>2026-03-22T11:51:08.999Z</time></trkpt><trkpt lat="42.863268182481264" lon="-2.289703965299056"><ele>610.0</ele><time>2026-03-22T11:51:09.999Z</time></trkpt><trkpt lat="42.863328525188955" lon="-2.2893904043134303"><ele>610.0</ele><time>2026-03-22T11:51:10.999Z</time></trkpt><trkpt lat="42.86338256012356" lon="-2.289096312854259"><ele>610.0</ele><time>2026-03-22T11:51:11.999Z</time></trkpt><trkpt lat="42.8634240249677" lon="-2.2888193581950222"><ele>610.0</ele><time>2026-03-22T11:51:12.999Z</time></trkpt><trkpt lat="42.86344620611002" lon="-2.28853504543588"><ele>611.0</ele><time>2026-03-22T11:51:13.999Z</time></trkpt><trkpt lat="42.86344321154286" lon="-2.2882334543574854"><ele>612.0</ele><time>2026-03-22T11:51:14.999Z</time></trkpt><trkpt lat="42.863408867987545" lon="-2.2879170978436556"><ele>609.5</ele><time>2026-03-22T11:51:16Z</time></trkpt><trkpt lat="42.86335947180353" lon="-2.287594168115478"><ele>607.0</ele><time>2026-03-22T11:51:16.999Z</time></trkpt><trkpt lat="42.86331016768058" lon="-2.287261188646423"><ele>602.0</ele><time>2026-03-22T11:51:17.999Z</time></trkpt><trkpt lat="42.86324449069546" lon="-2.286929842699997"><ele>597.0</ele><time>2026-03-22T11:51:18.999Z</time></trkpt><trkpt lat="42.86329143598187" lon="-2.2865484614305647"><ele>594.5</ele><time>2026-03-22T11:51:19.999Z</time></trkpt><trkpt lat="42.86330922122112" lon="-2.286168737351161"><ele>592.0</ele><time>2026-03-22T11:51:20.999Z</time></trkpt><trkpt lat="42.863333580646426" lon="-2.2857719221790473"><ele>592.5</ele><time>2026-03-22T11:51:21.999Z</time></trkpt><trkpt lat="42.863353886624196" lon="-2.285367767194226"><ele>593.0</ele><time>2026-03-22T11:51:22.999Z</time></trkpt><trkpt lat="42.86337256049545" lon="-2.2849551476568144"><ele>592.5</ele><time>2026-03-22T11:51:23.999Z</time></trkpt><trkpt lat="42.86339528212561" lon="-2.2845380137030196"><ele>592.0</ele><time>2026-03-22T11:51:25.001Z</time></trkpt><trkpt lat="42.863415653815075" lon="-2.2841164038926003"><ele>592.0</ele><time>2026-03-22T11:51:26.001Z</time></trkpt><trkpt lat="42.863435957503164" lon="-2.283691364132125"><ele>592.0</ele><time>2026-03-22T11:51:27.001Z</time></trkpt><trkpt lat="42.86345871126348" lon="-2.2832614991199986"><ele>588.5</ele><time>2026-03-22T11:51:28.001Z</time></trkpt><trkpt lat="42.86348127531052" lon="-2.282829006882219"><ele>585.0</ele><time>2026-03-22T11:51:29.001Z</time></trkpt><trkpt lat="42.863501978197476" lon="-2.282401657858248"><ele>584.5</ele><time>2026-03-22T11:51:30.001Z</time></trkpt><trkpt lat="42.86352388465449" lon="-2.2819838016681175"><ele>584.0</ele><time>2026-03-22T11:51:31.001Z</time></trkpt><trkpt lat="42.86354646819378" lon="-2.2815716325910844"><ele>586.0</ele><time>2026-03-22T11:51:32.001Z</time></trkpt><trkpt lat="42.863567872601685" lon="-2.2811614521329693"><ele>588.0</ele><time>2026-03-22T11:51:33.001Z</time></trkpt><trkpt lat="42.86358319803891" lon="-2.2807536175211123"><ele>591.5</ele><time>2026-03-22T11:51:34.001Z</time></trkpt><trkpt lat="42.86358722281587" lon="-2.280349425928297"><ele>595.0</ele><time>2026-03-22T11:51:35.001Z</time></trkpt><trkpt lat="42.86358613659397" lon="-2.279944257663082"><ele>595.5</ele><time>2026-03-22T11:51:36.001Z</time></trkpt><trkpt lat="42.86357966263808" lon="-2.279537683549332"><ele>596.0</ele><time>2026-03-22T11:51:37.001Z</time></trkpt><trkpt lat="42.86357086783227" lon="-2.2791382523866375"><ele>596.0</ele><time>2026-03-22T11:51:38.001Z</time></trkpt><trkpt lat="42.863561549796835" lon="-2.2787528267614197"><ele>596.0</ele><time>2026-03-22T11:51:39.001Z</time></trkpt><trkpt lat="42.863552190563624" lon="-2.278369029085674"><ele>596.5</ele><time>2026-03-22T11:51:40.001Z</time></trkpt><trkpt lat="42.863546353605216" lon="-2.2779854076854877"><ele>597.0</ele><time>2026-03-22T11:51:41.001Z</time></trkpt><trkpt lat="42.86354611947148" lon="-2.27759308694338"><ele>597.0</ele><time>2026-03-22T11:51:42.001Z</time></trkpt><trkpt lat="42.86355109597396" lon="-2.277195099284415"><ele>597.0</ele><time>2026-03-22T11:51:43.001Z</time></trkpt><trkpt lat="42.863558095673866" lon="-2.2767959371611366"><ele>596.5</ele><time>2026-03-22T11:51:44.001Z</time></trkpt><trkpt lat="42.86356667620948" lon="-2.276398026069798"><ele>596.0</ele><time>2026-03-22T11:51:45.001Z</time></trkpt><trkpt lat="42.863573776370224" lon="-2.275999164060749"><ele>594.5</ele><time>2026-03-22T11:51:46.001Z</time></trkpt><trkpt lat="42.86358019315662" lon="-2.275598987114774"><ele>593.0</ele><time>2026-03-22T11:51:47.001Z</time></trkpt><trkpt lat="42.86358719393659" lon="-2.2751958329593935"><ele>593.0</ele><time>2026-03-22T11:51:48.001Z</time></trkpt><trkpt lat="42.86359303411515" lon="-2.274791417239722"><ele>593.0</ele><time>2026-03-22T11:51:49.001Z</time></trkpt><trkpt lat="42.863598315854944" lon="-2.2743852550833252"><ele>593.5</ele><time>2026-03-22T11:51:50.001Z</time></trkpt><trkpt lat="42.863600285641965" lon="-2.273977021682314"><ele>594.0</ele><time>2026-03-22T11:51:51Z</time></trkpt><trkpt lat="42.863607758317336" lon="-2.2735696162033343"><ele>592.0</ele><time>2026-03-22T11:51:52Z</time></trkpt><trkpt lat="42.86361387371116" lon="-2.2731652022542495"><ele>590.0</ele><time>2026-03-22T11:51:53Z</time></trkpt><trkpt lat="42.863625001127474" lon="-2.272765249080522"><ele>590.0</ele><time>2026-03-22T11:51:54Z</time></trkpt><trkpt lat="42.863632825297344" lon="-2.2723932898213577"><ele>590.0</ele><time>2026-03-22T11:51:55Z</time></trkpt><trkpt lat="42.86363762856287" lon="-2.2720365036872083"><ele>590.0</ele><time>2026-03-22T11:51:56Z</time></trkpt><trkpt lat="42.863646524113356" lon="-2.271698775142161"><ele>590.0</ele><time>2026-03-22T11:51:57Z</time></trkpt><trkpt lat="42.86364239812545" lon="-2.271366864926106"><ele>590.3333333333333</ele><time>2026-03-22T11:51:58Z</time></trkpt><trkpt lat="42.863641760471445" lon="-2.271050495021914"><ele>590.6666666666666</ele><time>2026-03-22T11:51:59Z</time></trkpt><trkpt lat="42.86363589486726" lon="-2.2707541595496785"><ele>591.0</ele><time>2026-03-22T11:52:00Z</time></trkpt><trkpt lat="42.86364301944749" lon="-2.2704783435088927"><ele>590.0</ele><time>2026-03-22T11:52:01Z</time></trkpt><trkpt lat="42.86365485994847" lon="-2.270219752584564"><ele>589.0</ele><time>2026-03-22T11:52:02Z</time></trkpt><trkpt lat="42.86366717556858" lon="-2.2699857523575413"><ele>588.0</ele><time>2026-03-22T11:52:03Z</time></trkpt><trkpt lat="42.86370376142865" lon="-2.269758228405919"><ele>587.6666666666666</ele><time>2026-03-22T11:52:04Z</time></trkpt><trkpt lat="42.863771302905164" lon="-2.2695428467495944"><ele>587.3333333333333</ele><time>2026-03-22T11:52:05Z</time></trkpt><trkpt lat="42.863867434826204" lon="-2.269339033747519"><ele>587.0</ele><time>2026-03-22T11:52:06Z</time></trkpt><trkpt lat="42.86398502185263" lon="-2.2691622455521734"><ele>587.0</ele><time>2026-03-22T11:52:07Z</time></trkpt><trkpt lat="42.86412106975963" lon="-2.2690113354809918"><ele>587.0</ele><time>2026-03-22T11:52:08Z</time></trkpt><trkpt lat="42.8642723080362" lon="-2.268891007572112"><ele>587.0</ele><time>2026-03-22T11:52:09Z</time></trkpt><trkpt lat="42.86444303714314" lon="-2.2687961214747396"><ele>586.6666666666666</ele><time>2026-03-22T11:52:10Z</time></trkpt><trkpt lat="42.86461647684081" lon="-2.2687207976253583"><ele>586.3333333333334</ele><time>2026-03-22T11:52:11Z</time></trkpt><trkpt lat="42.864790191892006" lon="-2.2686522384585017"><ele>586.0</ele><time>2026-03-22T11:52:12Z</time></trkpt><trkpt lat="42.8649545548231" lon="-2.2685663650046006"><ele>586.0</ele><time>2026-03-22T11:52:13Z</time></trkpt><trkpt lat="42.86510584940916" lon="-2.268443491503746"><ele>586.0</ele><time>2026-03-22T11:52:14Z</time></trkpt><trkpt lat="42.86524278316317" lon="-2.2682830356583197"><ele>586.0</ele><time>2026-03-22T11:52:15Z</time></trkpt><trkpt lat="42.86536190615044" lon="-2.2680900514741777"><ele>584.0</ele><time>2026-03-22T11:52:16Z</time></trkpt><trkpt lat="42.865451933302" lon="-2.2678575730794894"><ele>582.0</ele><time>2026-03-22T11:52:17Z</time></trkpt><trkpt lat="42.865514134854536" lon="-2.2676058150297487"><ele>580.0</ele><time>2026-03-22T11:52:18Z</time></trkpt><trkpt lat="42.86555269058654" lon="-2.2673453613566577"><ele>579.6666666666667</ele><time>2026-03-22T11:52:19Z</time></trkpt><trkpt lat="42.86554584771929" lon="-2.267071954392258"><ele>579.3333333333334</ele><time>2026-03-22T11:52:20Z</time></trkpt><trkpt lat="42.86550933724863" lon="-2.2668019987561494"><ele>579.0</ele><time>2026-03-22T11:52:21Z</time></trkpt><trkpt lat="42.86545170834122" lon="-2.2665488496473767"><ele>577.6666666666666</ele><time>2026-03-22T11:52:22Z</time></trkpt><trkpt lat="42.865404992099414" lon="-2.2663203676423045"><ele>576.3333333333333</ele><time>2026-03-22T11:52:23Z</time></trkpt><trkpt lat="42.86538557568471" lon="-2.2660936094301993"><ele>575.0</ele><time>2026-03-22T11:52:24Z</time></trkpt><trkpt lat="42.865395451252716" lon="-2.26586933045374"><ele>575.0</ele><time>2026-03-22T11:52:25Z</time></trkpt><trkpt lat="42.865434189320545" lon="-2.265659866817724"><ele>575.0</ele><time>2026-03-22T11:52:26Z</time></trkpt><trkpt lat="42.86550123617507" lon="-2.2654681999420863"><ele>575.0</ele><time>2026-03-22T11:52:27Z</time></trkpt><trkpt lat="42.86557231020038" lon="-2.2652842926576247"><ele>575.25</ele><time>2026-03-22T11:52:28Z</time></trkpt><trkpt lat="42.86568007028264" lon="-2.2651481875368837"><ele>575.5</ele><time>2026-03-22T11:52:29Z</time></trkpt><trkpt lat="42.86579408458609" lon="-2.2650328139747096"><ele>575.75</ele><time>2026-03-22T11:52:30Z</time></trkpt><trkpt lat="42.86590734078428" lon="-2.2649178663552427"><ele>576.0</ele><time>2026-03-22T11:52:31Z</time></trkpt><trkpt lat="42.86603675496226" lon="-2.2648507944810214"><ele>575.6</ele><time>2026-03-22T11:52:32Z</time></trkpt><trkpt lat="42.86616404261404" lon="-2.264809242889687"><ele>575.2</ele><time>2026-03-22T11:52:33Z</time></trkpt><trkpt lat="42.866262432825515" lon="-2.264813616398227"><ele>574.8</ele><time>2026-03-22T11:52:34Z</time></trkpt><trkpt lat="42.866344973758935" lon="-2.2648008587402573"><ele>574.4</ele><time>2026-03-22T11:52:36Z</time></trkpt><trkpt lat="42.866411039846675" lon="-2.264790360074682"><ele>574.0</ele><time>2026-03-22T11:52:39Z</time></trkpt><trkpt lat="42.86655493049014" lon="-2.264795963254148"><ele>574.0</ele><time>2026-03-22T11:52:41Z</time></trkpt><trkpt lat="42.86666857577556" lon="-2.2647959632536585"><ele>574.0</ele><time>2026-03-22T11:52:42Z</time></trkpt><trkpt lat="42.866799037549505" lon="-2.264795582067474"><ele>574.0</ele><time>2026-03-22T11:52:43Z</time></trkpt><trkpt lat="42.866923364229514" lon="-2.2647947121847842"><ele>574.0</ele><time>2026-03-22T11:52:44Z</time></trkpt><trkpt lat="42.867065535174255" lon="-2.264807406277239"><ele>573.0</ele><time>2026-03-22T11:52:45Z</time></trkpt><trkpt lat="42.867221177580696" lon="-2.2647955122892753"><ele>572.0</ele><time>2026-03-22T11:52:46Z</time></trkpt><trkpt lat="42.867391595029495" lon="-2.2647766261414723"><ele>571.0</ele><time>2026-03-22T11:52:47Z</time></trkpt><trkpt lat="42.86756576174792" lon="-2.264726455907715"><ele>567.6666666666667</ele><time>2026-03-22T11:52:48Z</time></trkpt><trkpt lat="42.867743567665556" lon="-2.264716414224381"><ele>564.3333333333334</ele><time>2026-03-22T11:52:49Z</time></trkpt><trkpt lat="42.86793230871368" lon="-2.264677532215077"><ele>561.0</ele><time>2026-03-22T11:52:50Z</time></trkpt><trkpt lat="42.8681211895676" lon="-2.264637873578981"><ele>561.0</ele><time>2026-03-22T11:52:51Z</time></trkpt><trkpt lat="42.86829626899189" lon="-2.2645997840903713"><ele>561.0</ele><time>2026-03-22T11:52:52Z</time></trkpt><trkpt lat="42.86847082616515" lon="-2.2645654558998514"><ele>561.0</ele><time>2026-03-22T11:52:52.999Z</time></trkpt><trkpt lat="42.86865122624167" lon="-2.2645291144137847"><ele>561.0</ele><time>2026-03-22T11:52:53.999Z</time></trkpt><trkpt lat="42.86884028152596" lon="-2.2644884336155364"><ele>561.0</ele><time>2026-03-22T11:52:54.999Z</time></trkpt><trkpt lat="42.86902981451927" lon="-2.26443793649277"><ele>561.0</ele><time>2026-03-22T11:52:55.999Z</time></trkpt><trkpt lat="42.86920589351985" lon="-2.2643801805851145"><ele>562.0</ele><time>2026-03-22T11:52:56.999Z</time></trkpt><trkpt lat="42.8693761010722" lon="-2.2643160244115803"><ele>563.0</ele><time>2026-03-22T11:52:57.999Z</time></trkpt><trkpt lat="42.86953547600113" lon="-2.2642472981398223"><ele>564.0</ele><time>2026-03-22T11:52:58.999Z</time></trkpt><trkpt lat="42.86968890173687" lon="-2.2641802164936577"><ele>564.0</ele><time>2026-03-22T11:52:59.999Z</time></trkpt><trkpt lat="42.86982640027851" lon="-2.2641197873225134"><ele>564.0</ele><time>2026-03-22T11:53:00.999Z</time></trkpt><trkpt lat="42.86993701577174" lon="-2.2640713494733005"><ele>564.0</ele><time>2026-03-22T11:53:01.999Z</time></trkpt><trkpt lat="42.87003895110213" lon="-2.264027526482147"><ele>564.0</ele><time>2026-03-22T11:53:02.999Z</time></trkpt><trkpt lat="42.87012670781357" lon="-2.263991493251244"><ele>565.0</ele><time>2026-03-22T11:53:03.999Z</time></trkpt><trkpt lat="42.87018571682195" lon="-2.2639615444066212"><ele>566.0</ele><time>2026-03-22T11:53:04.999Z</time></trkpt><trkpt lat="42.87020174231321" lon="-2.263693326703824"><ele>567.0</ele><time>2026-03-22T11:53:08.999Z</time></trkpt><trkpt lat="42.870188191594316" lon="-2.263573195319739"><ele>568.0</ele><time>2026-03-22T11:53:09.999Z</time></trkpt><trkpt lat="42.87017405660561" lon="-2.2634612305093404"><ele>569.0</ele><time>2026-03-22T11:53:10.999Z</time></trkpt><trkpt lat="42.87016087074263" lon="-2.2633526784538236"><ele>569.0</ele><time>2026-03-22T11:53:11.999Z</time></trkpt><trkpt lat="42.87015016168097" lon="-2.263255392291355"><ele>569.0</ele><time>2026-03-22T11:53:12.999Z</time></trkpt><trkpt lat="42.870142704780974" lon="-2.263147933655172"><ele>569.0</ele><time>2026-03-22T11:53:14.999Z</time></trkpt><trkpt lat="42.87023126984984" lon="-2.263047137218662"><ele>569.0</ele><time>2026-03-22T11:53:17.999Z</time></trkpt><trkpt lat="42.87029628835718" lon="-2.263058527608616"><ele>569.0</ele><time>2026-03-22T11:53:18.999Z</time></trkpt><trkpt lat="42.87037150790593" lon="-2.2630508604331045"><ele>569.0</ele><time>2026-03-22T11:53:20.999Z</time></trkpt><trkpt lat="42.87038687544399" lon="-2.262880264634821"><ele>569.0</ele><time>2026-03-22T11:53:23.999Z</time></trkpt><trkpt lat="42.870390518189794" lon="-2.262783926129366"><ele>569.0</ele><time>2026-03-22T11:53:24.999Z</time></trkpt><trkpt lat="42.87040294068344" lon="-2.262678921104924"><ele>569.0</ele><time>2026-03-22T11:53:25.999Z</time></trkpt><trkpt lat="42.87042216163442" lon="-2.2625628009991345"><ele>569.0</ele><time>2026-03-22T11:53:26.999Z</time></trkpt><trkpt lat="42.870458741336805" lon="-2.2624266326231264"><ele>569.0</ele><time>2026-03-22T11:53:27.999Z</time></trkpt><trkpt lat="42.870507293348794" lon="-2.2622678920737105"><ele>568.8</ele><time>2026-03-22T11:53:28.999Z</time></trkpt><trkpt lat="42.870555770392414" lon="-2.262106174671051"><ele>568.5999999999999</ele><time>2026-03-22T11:53:29.999Z</time></trkpt><trkpt lat="42.870598973100066" lon="-2.261965538995946"><ele>568.4</ele><time>2026-03-22T11:53:31.001Z</time></trkpt><trkpt lat="42.87063836807435" lon="-2.2618476455432694"><ele>568.1999999999999</ele><time>2026-03-22T11:53:32.001Z</time></trkpt><trkpt lat="42.870668676191755" lon="-2.2617544772612534"><ele>568.0</ele><time>2026-03-22T11:53:33.001Z</time></trkpt><trkpt lat="42.87069073332824" lon="-2.261657371034311"><ele>568.0</ele><time>2026-03-22T11:53:34.001Z</time></trkpt><trkpt lat="42.87070467773776" lon="-2.261536041243099"><ele>568.0</ele><time>2026-03-22T11:53:35.001Z</time></trkpt><trkpt lat="42.870697584449864" lon="-2.2613873814746683"><ele>568.0</ele><time>2026-03-22T11:53:36.001Z</time></trkpt><trkpt lat="42.87070720186504" lon="-2.261218915383407"><ele>568.0</ele><time>2026-03-22T11:53:37.001Z</time></trkpt><trkpt lat="42.87070349461927" lon="-2.2610308129365393"><ele>568.0</ele><time>2026-03-22T11:53:38.001Z</time></trkpt><trkpt lat="42.87068922591113" lon="-2.2608234162532246"><ele>568.0</ele><time>2026-03-22T11:53:39.001Z</time></trkpt><trkpt lat="42.870703538762456" lon="-2.260630595355317"><ele>568.0</ele><time>2026-03-22T11:53:40.001Z</time></trkpt><trkpt lat="42.870707454788096" lon="-2.2604112770398106"><ele>567.0</ele><time>2026-03-22T11:53:41.001Z</time></trkpt><trkpt lat="42.870704553566" lon="-2.260181323769967"><ele>566.0</ele><time>2026-03-22T11:53:42.001Z</time></trkpt><trkpt lat="42.87070095237217" lon="-2.259932224268774"><ele>565.0</ele><time>2026-03-22T11:53:43.001Z</time></trkpt><trkpt lat="42.87069619031243" lon="-2.259671152131733"><ele>565.0</ele><time>2026-03-22T11:53:44.001Z</time></trkpt><trkpt lat="42.87069039121328" lon="-2.2593982561431427"><ele>565.0</ele><time>2026-03-22T11:53:45.001Z</time></trkpt><trkpt lat="42.87068577216516" lon="-2.2591161203480037"><ele>565.0</ele><time>2026-03-22T11:53:46.001Z</time></trkpt><trkpt lat="42.87068119648764" lon="-2.258824641882936"><ele>565.0</ele><time>2026-03-22T11:53:47.001Z</time></trkpt><trkpt lat="42.87068244550922" lon="-2.2585528196749918"><ele>565.0</ele><time>2026-03-22T11:53:48.001Z</time></trkpt><trkpt lat="42.87066285353438" lon="-2.2583078201187474"><ele>565.0</ele><time>2026-03-22T11:53:49.001Z</time></trkpt><trkpt lat="42.87067154252826" lon="-2.258105533885725"><ele>565.0</ele><time>2026-03-22T11:53:50.001Z</time></trkpt><trkpt lat="42.87066501860514" lon="-2.257926965964405"><ele>565.0</ele><time>2026-03-22T11:53:51Z</time></trkpt><trkpt lat="42.870655140263366" lon="-2.2577669497838753"><ele>565.0</ele><time>2026-03-22T11:53:52Z</time></trkpt><trkpt lat="42.8706391546469" lon="-2.257608964307267"><ele>565.0</ele><time>2026-03-22T11:53:53Z</time></trkpt><trkpt lat="42.87061336184475" lon="-2.2574343555952017"><ele>565.0</ele><time>2026-03-22T11:53:54Z</time></trkpt><trkpt lat="42.8705804834387" lon="-2.2572658718116543"><ele>565.0</ele><time>2026-03-22T11:53:55Z</time></trkpt><trkpt lat="42.87054416602327" lon="-2.2570825209262835"><ele>565.0</ele><time>2026-03-22T11:53:56Z</time></trkpt><trkpt lat="42.8705038855811" lon="-2.2568773093562617"><ele>565.0</ele><time>2026-03-22T11:53:57Z</time></trkpt><trkpt lat="42.870462878045345" lon="-2.2566546673279664"><ele>562.6666666666667</ele><time>2026-03-22T11:53:58Z</time></trkpt><trkpt lat="42.87041996138864" lon="-2.256416283159672"><ele>560.3333333333334</ele><time>2026-03-22T11:53:59Z</time></trkpt><trkpt lat="42.870375440547264" lon="-2.2561669470915544"><ele>558.0</ele><time>2026-03-22T11:54:00Z</time></trkpt><trkpt lat="42.870330806270445" lon="-2.2559312523383954"><ele>558.0</ele><time>2026-03-22T11:54:01Z</time></trkpt><trkpt lat="42.87029364232277" lon="-2.255725356519331"><ele>558.0</ele><time>2026-03-22T11:54:02Z</time></trkpt><trkpt lat="42.87027057955397" lon="-2.255544307031084"><ele>558.0</ele><time>2026-03-22T11:54:03Z</time></trkpt><trkpt lat="42.87025797286089" lon="-2.255380621563876"><ele>558.0</ele><time>2026-03-22T11:54:04Z</time></trkpt><trkpt lat="42.870252379259604" lon="-2.25522352164965"><ele>559.0</ele><time>2026-03-22T11:54:05Z</time></trkpt><trkpt lat="42.87025170875718" lon="-2.2550439111135914"><ele>560.0</ele><time>2026-03-22T11:54:06Z</time></trkpt><trkpt lat="42.87025104426321" lon="-2.2548510013253833"><ele>561.0</ele><time>2026-03-22T11:54:07Z</time></trkpt><trkpt lat="42.870251524162434" lon="-2.254649103244425"><ele>562.0</ele><time>2026-03-22T11:54:08Z</time></trkpt><trkpt lat="42.87023198866841" lon="-2.254434461401007"><ele>562.0</ele><time>2026-03-22T11:54:09Z</time></trkpt><trkpt lat="42.87024512714028" lon="-2.2542069081920153"><ele>562.0</ele><time>2026-03-22T11:54:10Z</time></trkpt><trkpt lat="42.87023745137148" lon="-2.2539691635115884"><ele>562.0</ele><time>2026-03-22T11:54:11Z</time></trkpt><trkpt lat="42.870228936406505" lon="-2.2537148164962644"><ele>562.0</ele><time>2026-03-22T11:54:12Z</time></trkpt><trkpt lat="42.87022463712424" lon="-2.2534496462931015"><ele>562.0</ele><time>2026-03-22T11:54:13Z</time></trkpt><trkpt lat="42.87022058648645" lon="-2.2531787686190685"><ele>562.0</ele><time>2026-03-22T11:54:14Z</time></trkpt><trkpt lat="42.870216277879656" lon="-2.252905506152663"><ele>562.0</ele><time>2026-03-22T11:54:15Z</time></trkpt><trkpt lat="42.87021323605442" lon="-2.252641995866023"><ele>562.0</ele><time>2026-03-22T11:54:16Z</time></trkpt><trkpt lat="42.87020898154822" lon="-2.252401677966736"><ele>562.0</ele><time>2026-03-22T11:54:17Z</time></trkpt><trkpt lat="42.870200091814475" lon="-2.2521798377669544"><ele>563.0</ele><time>2026-03-22T11:54:18Z</time></trkpt><trkpt lat="42.87019192653219" lon="-2.2519879872929436"><ele>564.0</ele><time>2026-03-22T11:54:19Z</time></trkpt><trkpt lat="42.870188653523435" lon="-2.2518247585591538"><ele>565.0</ele><time>2026-03-22T11:54:20Z</time></trkpt><trkpt lat="42.87018370757875" lon="-2.251686871321213"><ele>566.0</ele><time>2026-03-22T11:54:21Z</time></trkpt><trkpt lat="42.87018085883729" lon="-2.2515446097770533"><ele>565.75</ele><time>2026-03-22T11:54:22Z</time></trkpt><trkpt lat="42.87018139232" lon="-2.25137723421716"><ele>565.5</ele><time>2026-03-22T11:54:23Z</time></trkpt><trkpt lat="42.870176982143164" lon="-2.2511814367045453"><ele>565.25</ele><time>2026-03-22T11:54:24Z</time></trkpt><trkpt lat="42.87016860115183" lon="-2.2509641201621404"><ele>565.0</ele><time>2026-03-22T11:54:25Z</time></trkpt><trkpt lat="42.870151781701686" lon="-2.2507234483420078"><ele>567.0</ele><time>2026-03-22T11:54:26Z</time></trkpt><trkpt lat="42.87011985869125" lon="-2.2504700695939457"><ele>569.0</ele><time>2026-03-22T11:54:27Z</time></trkpt><trkpt lat="42.87008864029309" lon="-2.250235217372295"><ele>571.0</ele><time>2026-03-22T11:54:28Z</time></trkpt><trkpt lat="42.870045741519064" lon="-2.2499718144135104"><ele>568.6666666666667</ele><time>2026-03-22T11:54:29Z</time></trkpt><trkpt lat="42.870002031799785" lon="-2.2497034265054405"><ele>566.3333333333334</ele><time>2026-03-22T11:54:30Z</time></trkpt><trkpt lat="42.86995834424396" lon="-2.2494372415836428"><ele>564.0</ele><time>2026-03-22T11:54:31Z</time></trkpt><trkpt lat="42.86991696305204" lon="-2.249187707284829"><ele>564.6666666666666</ele><time>2026-03-22T11:54:32Z</time></trkpt><trkpt lat="42.869873460346824" lon="-2.248943062646934"><ele>565.3333333333333</ele><time>2026-03-22T11:54:33Z</time></trkpt><trkpt lat="42.86983139649497" lon="-2.2486952341900697"><ele>566.0</ele><time>2026-03-22T11:54:34Z</time></trkpt><trkpt lat="42.869788145771885" lon="-2.2484440124836818"><ele>566.0</ele><time>2026-03-22T11:54:35Z</time></trkpt><trkpt lat="42.86974243288968" lon="-2.2481961866668745"><ele>566.0</ele><time>2026-03-22T11:54:36Z</time></trkpt><trkpt lat="42.869706556524626" lon="-2.247968382846306"><ele>566.0</ele><time>2026-03-22T11:54:37Z</time></trkpt><trkpt lat="42.869676364137476" lon="-2.247749570628604"><ele>566.6666666666666</ele><time>2026-03-22T11:54:38Z</time></trkpt><trkpt lat="42.86963885912749" lon="-2.2475267917190376"><ele>567.3333333333334</ele><time>2026-03-22T11:54:39Z</time></trkpt><trkpt lat="42.869615149153944" lon="-2.2473159157907463"><ele>568.0</ele><time>2026-03-22T11:54:40Z</time></trkpt><trkpt lat="42.86958112421975" lon="-2.247134601000594"><ele>568.25</ele><time>2026-03-22T11:54:40.999Z</time></trkpt><trkpt lat="42.86955094324672" lon="-2.2469587134616296"><ele>568.5</ele><time>2026-03-22T11:54:41.999Z</time></trkpt><trkpt lat="42.869520275855514" lon="-2.246774239150488"><ele>568.75</ele><time>2026-03-22T11:54:42.999Z</time></trkpt><trkpt lat="42.86948562007315" lon="-2.2465737442612217"><ele>569.0</ele><time>2026-03-22T11:54:43.999Z</time></trkpt><trkpt lat="42.86944623243161" lon="-2.246359286065245"><ele>568.0</ele><time>2026-03-22T11:54:44.999Z</time></trkpt><trkpt lat="42.86941048178247" lon="-2.2461309524775825"><ele>567.0</ele><time>2026-03-22T11:54:45.999Z</time></trkpt><trkpt lat="42.86937114360945" lon="-2.2458881898798837"><ele>566.0</ele><time>2026-03-22T11:54:46.999Z</time></trkpt><trkpt lat="42.86933512754244" lon="-2.2456337859551003"><ele>564.3333333333333</ele><time>2026-03-22T11:54:47.999Z</time></trkpt><trkpt lat="42.86929352149929" lon="-2.245374005579513"><ele>562.6666666666666</ele><time>2026-03-22T11:54:48.999Z</time></trkpt><trkpt lat="42.86925273680642" lon="-2.245113676611507"><ele>561.0</ele><time>2026-03-22T11:54:49.999Z</time></trkpt><trkpt lat="42.869211388373095" lon="-2.244853031572568"><ele>558.0</ele><time>2026-03-22T11:54:50.999Z</time></trkpt><trkpt lat="42.86916922548184" lon="-2.2445893697456674"><ele>555.0</ele><time>2026-03-22T11:54:51.999Z</time></trkpt><trkpt lat="42.869123796374836" lon="-2.244323848757316"><ele>552.0</ele><time>2026-03-22T11:54:52.999Z</time></trkpt><trkpt lat="42.86908502322075" lon="-2.2440746550640407"><ele>551.5</ele><time>2026-03-22T11:54:53.999Z</time></trkpt><trkpt lat="42.86903331253558" lon="-2.243860587740742"><ele>551.0</ele><time>2026-03-22T11:54:54.999Z</time></trkpt><trkpt lat="42.86900250042324" lon="-2.2436746356634347"><ele>550.5</ele><time>2026-03-22T11:54:55.999Z</time></trkpt><trkpt lat="42.86899160638161" lon="-2.2435012534251904"><ele>550.0</ele><time>2026-03-22T11:54:56.999Z</time></trkpt><trkpt lat="42.86896507166088" lon="-2.2433500463014338"><ele>550.0</ele><time>2026-03-22T11:54:57.999Z</time></trkpt><trkpt lat="42.86894462559689" lon="-2.243199327364638"><ele>550.0</ele><time>2026-03-22T11:54:58.999Z</time></trkpt><trkpt lat="42.86892046520374" lon="-2.243041759823562"><ele>550.0</ele><time>2026-03-22T11:54:59.999Z</time></trkpt><trkpt lat="42.86889611060313" lon="-2.242884967251667"><ele>550.0</ele><time>2026-03-22T11:55:00.999Z</time></trkpt><trkpt lat="42.86885500755035" lon="-2.242724954339743"><ele>550.0</ele><time>2026-03-22T11:55:01.999Z</time></trkpt><trkpt lat="42.86882862062089" lon="-2.2425539962423753"><ele>550.0</ele><time>2026-03-22T11:55:02.999Z</time></trkpt><trkpt lat="42.86880285197022" lon="-2.242387043921009"><ele>550.0</ele><time>2026-03-22T11:55:03.999Z</time></trkpt><trkpt lat="42.86877668566358" lon="-2.2422281999793015"><ele>550.0</ele><time>2026-03-22T11:55:04.999Z</time></trkpt><trkpt lat="42.86875177366571" lon="-2.2420815428945473"><ele>550.0</ele><time>2026-03-22T11:55:05.999Z</time></trkpt><trkpt lat="42.868748649464926" lon="-2.241952869253754"><ele>550.0</ele><time>2026-03-22T11:55:06.999Z</time></trkpt><trkpt lat="42.868736444401975" lon="-2.2418393798917093"><ele>550.0</ele><time>2026-03-22T11:55:07.999Z</time></trkpt><trkpt lat="42.86872388396428" lon="-2.241744459865233"><ele>550.0</ele><time>2026-03-22T11:55:08.999Z</time></trkpt><trkpt lat="42.86875232382885" lon="-2.241646202987863"><ele>550.0</ele><time>2026-03-22T11:55:09.999Z</time></trkpt><trkpt lat="42.86880353226958" lon="-2.2415430449861664"><ele>550.0</ele><time>2026-03-22T11:55:10.999Z</time></trkpt><trkpt lat="42.86886791100018" lon="-2.2414401222251845"><ele>550.0</ele><time>2026-03-22T11:55:11.999Z</time></trkpt><trkpt lat="42.868941441401" lon="-2.241324052434999"><ele>550.0</ele><time>2026-03-22T11:55:12.999Z</time></trkpt><trkpt lat="42.86901629770854" lon="-2.2412058896628575"><ele>550.0</ele><time>2026-03-22T11:55:13.999Z</time></trkpt><trkpt lat="42.86909024896382" lon="-2.241087827868668"><ele>550.0</ele><time>2026-03-22T11:55:14.999Z</time></trkpt><trkpt lat="42.86916242188419" lon="-2.2409722775154464"><ele>550.0</ele><time>2026-03-22T11:55:15.999Z</time></trkpt><trkpt lat="42.86923920650696" lon="-2.2408627142516035"><ele>550.0</ele><time>2026-03-22T11:55:16.999Z</time></trkpt><trkpt lat="42.86930815440415" lon="-2.2407446204542523"><ele>550.0</ele><time>2026-03-22T11:55:17.999Z</time></trkpt><trkpt lat="42.86936402038071" lon="-2.2406212393672433"><ele>550.0</ele><time>2026-03-22T11:55:18.999Z</time></trkpt><trkpt lat="42.86939824850783" lon="-2.240507188605665"><ele>550.0</ele><time>2026-03-22T11:55:19.999Z</time></trkpt><trkpt lat="42.86940994640899" lon="-2.2403971169921446"><ele>551.8</ele><time>2026-03-22T11:55:20.999Z</time></trkpt><trkpt lat="42.86940630665456" lon="-2.240284370567527"><ele>553.6</ele><time>2026-03-22T11:55:21.999Z</time></trkpt><trkpt lat="42.869392721292456" lon="-2.240165654077092"><ele>555.4</ele><time>2026-03-22T11:55:22.999Z</time></trkpt><trkpt lat="42.869374677207425" lon="-2.2400298224859663"><ele>557.2</ele><time>2026-03-22T11:55:23.999Z</time></trkpt><trkpt lat="42.8693555289222" lon="-2.2398778868965654"><ele>559.0</ele><time>2026-03-22T11:55:24.999Z</time></trkpt><trkpt lat="42.869333945530975" lon="-2.239712647489894"><ele>559.5</ele><time>2026-03-22T11:55:25.999Z</time></trkpt><trkpt lat="42.86931440602028" lon="-2.2395386034846383"><ele>560.0</ele><time>2026-03-22T11:55:26.999Z</time></trkpt><trkpt lat="42.86928563935385" lon="-2.2393612105555745"><ele>560.5</ele><time>2026-03-22T11:55:27.999Z</time></trkpt><trkpt lat="42.86926999315425" lon="-2.2391857489933527"><ele>561.0</ele><time>2026-03-22T11:55:28.999Z</time></trkpt><trkpt lat="42.86925138189947" lon="-2.2390283870556895"><ele>559.0</ele><time>2026-03-22T11:55:29.999Z</time></trkpt><trkpt lat="42.869232966151664" lon="-2.2388706396542033"><ele>557.0</ele><time>2026-03-22T11:55:30.999Z</time></trkpt><trkpt lat="42.869215672212576" lon="-2.238724645363921"><ele>555.0</ele><time>2026-03-22T11:55:31.999Z</time></trkpt><trkpt lat="42.86919322122637" lon="-2.238587777341521"><ele>553.0</ele><time>2026-03-22T11:55:32.999Z</time></trkpt><trkpt lat="42.869177909986895" lon="-2.23845844120641"><ele>551.0</ele><time>2026-03-22T11:55:33.999Z</time></trkpt><trkpt lat="42.86916495837645" lon="-2.238336897016657"><ele>551.0</ele><time>2026-03-22T11:55:34.999Z</time></trkpt><trkpt lat="42.86915698197749" lon="-2.2382163187794943"><ele>551.0</ele><time>2026-03-22T11:55:35.999Z</time></trkpt><trkpt lat="42.86915006616014" lon="-2.238098010492861"><ele>551.0</ele><time>2026-03-22T11:55:37Z</time></trkpt><trkpt lat="42.869137965044494" lon="-2.2379820368091883"><ele>551.0</ele><time>2026-03-22T11:55:38Z</time></trkpt><trkpt lat="42.86912948205012" lon="-2.2378651302869557"><ele>551.0</ele><time>2026-03-22T11:55:39Z</time></trkpt><trkpt lat="42.8691235679886" lon="-2.2377524336825254"><ele>551.0</ele><time>2026-03-22T11:55:40Z</time></trkpt><trkpt lat="42.86911801304862" lon="-2.237648298427634"><ele>551.0</ele><time>2026-03-22T11:55:41Z</time></trkpt><trkpt lat="42.86911462003267" lon="-2.237557586050863"><ele>551.0</ele><time>2026-03-22T11:55:42Z</time></trkpt><trkpt lat="42.86910604044548" lon="-2.237472162776091"><ele>551.0</ele><time>2026-03-22T11:55:43Z</time></trkpt><trkpt lat="42.869111806497244" lon="-2.237341071578025"><ele>551.0</ele><time>2026-03-22T11:55:45Z</time></trkpt><trkpt lat="42.8691168029302" lon="-2.237236238162698"><ele>551.0</ele><time>2026-03-22T11:55:47Z</time></trkpt><trkpt lat="42.86911248992426" lon="-2.2370921026557666"><ele>551.0</ele><time>2026-03-22T11:55:49Z</time></trkpt><trkpt lat="42.86912774795177" lon="-2.2369196137293885"><ele>550.9999999999999</ele><time>2026-03-22T11:55:51Z</time></trkpt><trkpt lat="42.86913863556378" lon="-2.2368284739236826"><ele>551.0</ele><time>2026-03-22T11:55:52Z</time></trkpt><trkpt lat="42.86914981887305" lon="-2.236734858747891"><ele>551.0</ele><time>2026-03-22T11:55:53Z</time></trkpt><trkpt lat="42.86917761017075" lon="-2.2366380219922894"><ele>551.0</ele><time>2026-03-22T11:55:54Z</time></trkpt><trkpt lat="42.86917636018615" lon="-2.236543988552077"><ele>551.0</ele><time>2026-03-22T11:55:55Z</time></trkpt><trkpt lat="42.869186239637735" lon="-2.2364506363725316"><ele>550.9999999999999</ele><time>2026-03-22T11:55:56Z</time></trkpt><trkpt lat="42.86919516278171" lon="-2.2363567399945294"><ele>551.0</ele><time>2026-03-22T11:55:57Z</time></trkpt><trkpt lat="42.8692041619949" lon="-2.236264395064677"><ele>550.8571428571428</ele><time>2026-03-22T11:55:58Z</time></trkpt><trkpt lat="42.86921303310727" lon="-2.236164573212326"><ele>550.7142857142857</ele><time>2026-03-22T11:55:59Z</time></trkpt><trkpt lat="42.869223227582545" lon="-2.236063267381696"><ele>550.5714285714286</ele><time>2026-03-22T11:56:00Z</time></trkpt><trkpt lat="42.8692323961352" lon="-2.2359612020748862"><ele>550.4285714285713</ele><time>2026-03-22T11:56:01Z</time></trkpt><trkpt lat="42.869240733812916" lon="-2.2358621554034306"><ele>550.2857142857142</ele><time>2026-03-22T11:56:02Z</time></trkpt><trkpt lat="42.86924271756852" lon="-2.2357616770857853"><ele>550.1428571428571</ele><time>2026-03-22T11:56:03Z</time></trkpt><trkpt lat="42.86924526410746" lon="-2.235662363035048"><ele>550.0</ele><time>2026-03-22T11:56:04Z</time></trkpt><trkpt lat="42.86924768159369" lon="-2.2355645815757694"><ele>550.0</ele><time>2026-03-22T11:56:05Z</time></trkpt><trkpt lat="42.8692472630985" lon="-2.235471575836246"><ele>550.0</ele><time>2026-03-22T11:56:06Z</time></trkpt><trkpt lat="42.869246149689666" lon="-2.2353833933599656"><ele>550.0</ele><time>2026-03-22T11:56:07Z</time></trkpt><trkpt lat="42.869229566890155" lon="-2.2352143573065293"><ele>550.0</ele><time>2026-03-22T11:56:09Z</time></trkpt><trkpt lat="42.869212028117765" lon="-2.235124649453475"><ele>550.0</ele><time>2026-03-22T11:56:10Z</time></trkpt><trkpt lat="42.869189985368244" lon="-2.235034518217027"><ele>550.0</ele><time>2026-03-22T11:56:11Z</time></trkpt><trkpt lat="42.86916457673669" lon="-2.234945673605394"><ele>550.0</ele><time>2026-03-22T11:56:12Z</time></trkpt><trkpt lat="42.86910791193333" lon="-2.23481887398052"><ele>550.0</ele><time>2026-03-22T11:56:14Z</time></trkpt><trkpt lat="42.86906740940841" lon="-2.2347214407999108"><ele>550.0</ele><time>2026-03-22T11:56:16Z</time></trkpt><trkpt lat="42.868957156853995" lon="-2.2347118514086897"><ele>550.0</ele><time>2026-03-22T11:56:17Z</time></trkpt><trkpt lat="42.86888172255326" lon="-2.234681662452731"><ele>550.0</ele><time>2026-03-22T11:56:18Z</time></trkpt><trkpt lat="42.86880454749311" lon="-2.2346624982502488"><ele>550.0</ele><time>2026-03-22T11:56:19Z</time></trkpt><trkpt lat="42.86873186078951" lon="-2.234624296105048"><ele>550.0</ele><time>2026-03-22T11:56:20Z</time></trkpt><trkpt lat="42.868669664536924" lon="-2.2346490900122356"><ele>550.0</ele><time>2026-03-22T11:56:21Z</time></trkpt><trkpt lat="42.86856317021436" lon="-2.2346898624813827"><ele>550.0</ele><time>2026-03-22T11:56:23Z</time></trkpt><trkpt lat="42.86852565046329" lon="-2.234799528321937"><ele>550.0</ele><time>2026-03-22T11:56:24Z</time></trkpt><trkpt lat="42.868482787347965" lon="-2.234902296517975"><ele>550.0</ele><time>2026-03-22T11:56:25Z</time></trkpt><trkpt lat="42.868430703720136" lon="-2.235021495054421"><ele>549.25</ele><time>2026-03-22T11:56:26Z</time></trkpt><trkpt lat="42.868371317413114" lon="-2.23513964932372"><ele>548.5</ele><time>2026-03-22T11:56:27Z</time></trkpt><trkpt lat="42.868307166066984" lon="-2.235266521424538"><ele>547.75</ele><time>2026-03-22T11:56:28Z</time></trkpt><trkpt lat="42.86823606255983" lon="-2.235392479527257"><ele>547.0</ele><time>2026-03-22T11:56:29Z</time></trkpt><trkpt lat="42.868160757021435" lon="-2.235520886186896"><ele>547.75</ele><time>2026-03-22T11:56:30Z</time></trkpt><trkpt lat="42.86807633967716" lon="-2.235638143677275"><ele>548.5</ele><time>2026-03-22T11:56:31Z</time></trkpt><trkpt lat="42.867977861140716" lon="-2.2357288907211266"><ele>549.25</ele><time>2026-03-22T11:56:32Z</time></trkpt><trkpt lat="42.86786511708243" lon="-2.235799672774537"><ele>550.0</ele><time>2026-03-22T11:56:33Z</time></trkpt><trkpt lat="42.86774339515492" lon="-2.235854514999948"><ele>550.0</ele><time>2026-03-22T11:56:33.999Z</time></trkpt><trkpt lat="42.867617009273886" lon="-2.235903368937841"><ele>550.0</ele><time>2026-03-22T11:56:34.999Z</time></trkpt><trkpt lat="42.867487147271284" lon="-2.2359548975106422"><ele>550.0</ele><time>2026-03-22T11:56:35.999Z</time></trkpt><trkpt lat="42.867357533834415" lon="-2.236009420112139"><ele>550.0</ele><time>2026-03-22T11:56:36.999Z</time></trkpt><trkpt lat="42.867221783592086" lon="-2.2360674244288377"><ele>549.75</ele><time>2026-03-22T11:56:37.999Z</time></trkpt><trkpt lat="42.86708428229187" lon="-2.236124502403434"><ele>549.5</ele><time>2026-03-22T11:56:38.999Z</time></trkpt><trkpt lat="42.8669496845186" lon="-2.2361821491306957"><ele>549.25</ele><time>2026-03-22T11:56:39.999Z</time></trkpt><trkpt lat="42.86681926212189" lon="-2.236235468627604"><ele>549.0</ele><time>2026-03-22T11:56:40.999Z</time></trkpt><trkpt lat="42.86670268811135" lon="-2.236277929883553"><ele>549.6</ele><time>2026-03-22T11:56:41.999Z</time></trkpt><trkpt lat="42.866595632179454" lon="-2.2363163777277983"><ele>550.2</ele><time>2026-03-22T11:56:42.999Z</time></trkpt><trkpt lat="42.866498239081885" lon="-2.236354192585282"><ele>550.8000000000001</ele><time>2026-03-22T11:56:43.999Z</time></trkpt><trkpt lat="42.86640909146335" lon="-2.236390109433417"><ele>551.4</ele><time>2026-03-22T11:56:44.999Z</time></trkpt><trkpt lat="42.86632299159769" lon="-2.2364194614689756"><ele>552.0</ele><time>2026-03-22T11:56:45.999Z</time></trkpt><trkpt lat="42.866244838451536" lon="-2.236438742203304"><ele>552.0</ele><time>2026-03-22T11:56:46.999Z</time></trkpt><trkpt lat="42.86616931839855" lon="-2.236446805663181"><ele>552.0</ele><time>2026-03-22T11:56:47.999Z</time></trkpt><trkpt lat="42.86609141520518" lon="-2.2364427934694997"><ele>552.0</ele><time>2026-03-22T11:56:48.999Z</time></trkpt><trkpt lat="42.86601083968823" lon="-2.2364299097522373"><ele>552.0</ele><time>2026-03-22T11:56:49.999Z</time></trkpt><trkpt lat="42.865927681379326" lon="-2.2364167201642453"><ele>552.0</ele><time>2026-03-22T11:56:50.999Z</time></trkpt><trkpt lat="42.865842686989595" lon="-2.2364161943157885"><ele>552.0</ele><time>2026-03-22T11:56:51.999Z</time></trkpt><trkpt lat="42.865766370756944" lon="-2.2364153958703774"><ele>552.5</ele><time>2026-03-22T11:56:52.999Z</time></trkpt><trkpt lat="42.86570339807687" lon="-2.2364086818777205"><ele>553.0</ele><time>2026-03-22T11:56:53.999Z</time></trkpt><trkpt lat="42.86563318975356" lon="-2.2365347496880648"><ele>553.5</ele><time>2026-03-22T11:56:54.999Z</time></trkpt><trkpt lat="42.86556627465323" lon="-2.2365508928630264"><ele>554.0</ele><time>2026-03-22T11:56:55.999Z</time></trkpt><trkpt lat="42.865464686408316" lon="-2.236508747489411"><ele>554.5</ele><time>2026-03-22T11:56:57.999Z</time></trkpt><trkpt lat="42.8654152639149" lon="-2.2364029929919043"><ele>555.0</ele><time>2026-03-22T11:56:59.999Z</time></trkpt><trkpt lat="42.86541161150654" lon="-2.236286669699725"><ele>555.0</ele><time>2026-03-22T11:57:01.999Z</time></trkpt><trkpt lat="42.865440248904825" lon="-2.2361876779987533"><ele>555.0</ele><time>2026-03-22T11:57:04.999Z</time></trkpt><trkpt lat="42.86537012681794" lon="-2.2360788522886383"><ele>555.0</ele><time>2026-03-22T11:57:06.999Z</time></trkpt><trkpt lat="42.8653315968806" lon="-2.2359579638781986"><ele>555.0</ele><time>2026-03-22T11:57:08.999Z</time></trkpt><trkpt lat="42.865294627328915" lon="-2.235877648745447"><ele>555.0</ele><time>2026-03-22T11:57:09.999Z</time></trkpt><trkpt lat="42.865273059103586" lon="-2.2357770888179127"><ele>555.0</ele><time>2026-03-22T11:57:10.999Z</time></trkpt><trkpt lat="42.865274987392844" lon="-2.2356621225797992"><ele>555.6</ele><time>2026-03-22T11:57:11.999Z</time></trkpt><trkpt lat="42.86528098993294" lon="-2.235538389982326"><ele>556.2</ele><time>2026-03-22T11:57:12.999Z</time></trkpt><trkpt lat="42.865307642682794" lon="-2.235418311411149"><ele>556.8</ele><time>2026-03-22T11:57:13.999Z</time></trkpt><trkpt lat="42.86534422591925" lon="-2.235289528371436"><ele>557.4</ele><time>2026-03-22T11:57:14.999Z</time></trkpt><trkpt lat="42.8653777142248" lon="-2.2351385381700717"><ele>558.0</ele><time>2026-03-22T11:57:15.999Z</time></trkpt><trkpt lat="42.86542507575937" lon="-2.2349888458293155"><ele>558.0</ele><time>2026-03-22T11:57:16.999Z</time></trkpt><trkpt lat="42.86547889476373" lon="-2.2348188948259766"><ele>558.0</ele><time>2026-03-22T11:57:17.999Z</time></trkpt><trkpt lat="42.865538876823045" lon="-2.2346294819394905"><ele>558.0</ele><time>2026-03-22T11:57:18.999Z</time></trkpt><trkpt lat="42.86559909693952" lon="-2.234439317319879"><ele>558.0</ele><time>2026-03-22T11:57:19.999Z</time></trkpt><trkpt lat="42.86567500339004" lon="-2.234251164362514"><ele>557.6666666666666</ele><time>2026-03-22T11:57:20.999Z</time></trkpt><trkpt lat="42.865734637013446" lon="-2.234047675979892"><ele>557.3333333333333</ele><time>2026-03-22T11:57:21.999Z</time></trkpt><trkpt lat="42.86580196409149" lon="-2.2338321395199037"><ele>557.0</ele><time>2026-03-22T11:57:22.999Z</time></trkpt><trkpt lat="42.8658749691442" lon="-2.2335941673306703"><ele>554.0</ele><time>2026-03-22T11:57:23.999Z</time></trkpt><trkpt lat="42.86595801333542" lon="-2.233337900660722"><ele>551.0</ele><time>2026-03-22T11:57:24.999Z</time></trkpt><trkpt lat="42.86604560977875" lon="-2.2330672450931615"><ele>548.0</ele><time>2026-03-22T11:57:25.999Z</time></trkpt><trkpt lat="42.86613745231329" lon="-2.2327824438960278"><ele>548.0</ele><time>2026-03-22T11:57:26.999Z</time></trkpt><trkpt lat="42.86621436181614" lon="-2.2324967189235796"><ele>548.0</ele><time>2026-03-22T11:57:27.999Z</time></trkpt><trkpt lat="42.86631112408687" lon="-2.232199338433515"><ele>547.5</ele><time>2026-03-22T11:57:28.999Z</time></trkpt><trkpt lat="42.86641415725157" lon="-2.2318948259922404"><ele>547.0</ele><time>2026-03-22T11:57:29.999Z</time></trkpt><trkpt lat="42.866525348440014" lon="-2.2315826123443707"><ele>548.0</ele><time>2026-03-22T11:57:30.999Z</time></trkpt><trkpt lat="42.86665268688842" lon="-2.231279231417117"><ele>549.0</ele><time>2026-03-22T11:57:31.999Z</time></trkpt><trkpt lat="42.86676234106636" lon="-2.2309686531841537"><ele>549.0</ele><time>2026-03-22T11:57:32.999Z</time></trkpt><trkpt lat="42.86686753586129" lon="-2.230659900907339"><ele>549.0</ele><time>2026-03-22T11:57:33.998Z</time></trkpt><trkpt lat="42.86696822953738" lon="-2.2303510049826074"><ele>549.0</ele><time>2026-03-22T11:57:34.998Z</time></trkpt><trkpt lat="42.86706351841443" lon="-2.230048346811156"><ele>549.0</ele><time>2026-03-22T11:57:35.998Z</time></trkpt><trkpt lat="42.8671567862708" lon="-2.229745856918684"><ele>549.5</ele><time>2026-03-22T11:57:36.998Z</time></trkpt><trkpt lat="42.86725298614719" lon="-2.2294325764186116"><ele>550.0</ele><time>2026-03-22T11:57:37.998Z</time></trkpt><trkpt lat="42.867351459360755" lon="-2.229108747866001"><ele>550.0</ele><time>2026-03-22T11:57:38.998Z</time></trkpt><trkpt lat="42.867444970795844" lon="-2.228779067850147"><ele>550.0</ele><time>2026-03-22T11:57:39.998Z</time></trkpt><trkpt lat="42.867536194073985" lon="-2.2284381117534964"><ele>547.5</ele><time>2026-03-22T11:57:40.998Z</time></trkpt><trkpt lat="42.86761332064336" lon="-2.228079086054797"><ele>545.0</ele><time>2026-03-22T11:57:41.998Z</time></trkpt><trkpt lat="42.86771440269783" lon="-2.2277247599907617"><ele>545.0</ele><time>2026-03-22T11:57:43Z</time></trkpt><trkpt lat="42.86783853091004" lon="-2.2273782641560484"><ele>545.0</ele><time>2026-03-22T11:57:44Z</time></trkpt><trkpt lat="42.867936656851064" lon="-2.227011847460171"><ele>547.5</ele><time>2026-03-22T11:57:45Z</time></trkpt><trkpt lat="42.86805252275857" lon="-2.226646783362107"><ele>550.0</ele><time>2026-03-22T11:57:46Z</time></trkpt><trkpt lat="42.86816795845532" lon="-2.226283074734015"><ele>551.0</ele><time>2026-03-22T11:57:47Z</time></trkpt><trkpt lat="42.868279091410585" lon="-2.2259329229801996"><ele>552.0</ele><time>2026-03-22T11:57:48Z</time></trkpt><trkpt lat="42.86838560998669" lon="-2.2255973099665263"><ele>549.0</ele><time>2026-03-22T11:57:49Z</time></trkpt><trkpt lat="42.86848685275664" lon="-2.2252783196350463"><ele>546.0</ele><time>2026-03-22T11:57:50Z</time></trkpt><trkpt lat="42.868584029809355" lon="-2.2249721394174715"><ele>544.5</ele><time>2026-03-22T11:57:51Z</time></trkpt><trkpt lat="42.868679726612164" lon="-2.22467020691301"><ele>543.0</ele><time>2026-03-22T11:57:52Z</time></trkpt><trkpt lat="42.86877306052815" lon="-2.2243746198196526"><ele>543.0</ele><time>2026-03-22T11:57:53Z</time></trkpt><trkpt lat="42.86886340073586" lon="-2.2240891695522507"><ele>543.0</ele><time>2026-03-22T11:57:54Z</time></trkpt><trkpt lat="42.86895148370228" lon="-2.2238111141242594"><ele>544.0</ele><time>2026-03-22T11:57:55Z</time></trkpt><trkpt lat="42.8690389717702" lon="-2.2235362240956107"><ele>545.0</ele><time>2026-03-22T11:57:56Z</time></trkpt><trkpt lat="42.86912506649673" lon="-2.2232638678838295"><ele>546.0</ele><time>2026-03-22T11:57:57Z</time></trkpt><trkpt lat="42.8692108981788" lon="-2.222992343798475"><ele>545.3333333333334</ele><time>2026-03-22T11:57:58Z</time></trkpt><trkpt lat="42.8693118644852" lon="-2.2227245620580374"><ele>544.6666666666667</ele><time>2026-03-22T11:57:59Z</time></trkpt><trkpt lat="42.86939823403091" lon="-2.2224443016536473"><ele>544.0</ele><time>2026-03-22T11:58:00Z</time></trkpt><trkpt lat="42.86948677203329" lon="-2.222162609049464"><ele>544.0</ele><time>2026-03-22T11:58:01Z</time></trkpt><trkpt lat="42.86957816543876" lon="-2.22187699208133"><ele>544.0</ele><time>2026-03-22T11:58:02Z</time></trkpt><trkpt lat="42.86966956934459" lon="-2.2215885426924262"><ele>544.0</ele><time>2026-03-22T11:58:03Z</time></trkpt><trkpt lat="42.86976137215217" lon="-2.221297046418434"><ele>544.0</ele><time>2026-03-22T11:58:04Z</time></trkpt><trkpt lat="42.869857436247806" lon="-2.2210006161859868"><ele>544.0</ele><time>2026-03-22T11:58:05Z</time></trkpt><trkpt lat="42.86995529015806" lon="-2.2207011427283234"><ele>544.0</ele><time>2026-03-22T11:58:06Z</time></trkpt><trkpt lat="42.87005629585891" lon="-2.220398208300375"><ele>544.0</ele><time>2026-03-22T11:58:07Z</time></trkpt><trkpt lat="42.870155450271504" lon="-2.2200928556096144"><ele>544.0</ele><time>2026-03-22T11:58:08Z</time></trkpt><trkpt lat="42.870252664366085" lon="-2.2197887333126145"><ele>544.0</ele><time>2026-03-22T11:58:09Z</time></trkpt><trkpt lat="42.870348166936026" lon="-2.2194861254036358"><ele>544.0</ele><time>2026-03-22T11:58:10Z</time></trkpt><trkpt lat="42.870438889695706" lon="-2.2191916710074975"><ele>543.0</ele><time>2026-03-22T11:58:11Z</time></trkpt><trkpt lat="42.87052494461037" lon="-2.218899309427378"><ele>542.0</ele><time>2026-03-22T11:58:12Z</time></trkpt><trkpt lat="42.870608535035714" lon="-2.2186115129839155"><ele>542.0</ele><time>2026-03-22T11:58:13Z</time></trkpt><trkpt lat="42.87068531240708" lon="-2.2183315290361096"><ele>542.0</ele><time>2026-03-22T11:58:14Z</time></trkpt><trkpt lat="42.870757267519636" lon="-2.218062056307489"><ele>542.0</ele><time>2026-03-22T11:58:15Z</time></trkpt><trkpt lat="42.87082399717592" lon="-2.217798476383619"><ele>541.6666666666666</ele><time>2026-03-22T11:58:16Z</time></trkpt><trkpt lat="42.87089099922126" lon="-2.2175326559019224"><ele>541.3333333333334</ele><time>2026-03-22T11:58:17Z</time></trkpt><trkpt lat="42.87095834284618" lon="-2.217272815555646"><ele>541.0</ele><time>2026-03-22T11:58:18Z</time></trkpt><trkpt lat="42.87102608616599" lon="-2.2170109049359303"><ele>539.6666666666667</ele><time>2026-03-22T11:58:19Z</time></trkpt><trkpt lat="42.87109456295632" lon="-2.216749026857767"><ele>538.3333333333334</ele><time>2026-03-22T11:58:20Z</time></trkpt><trkpt lat="42.87116354720331" lon="-2.216485475359717"><ele>537.0</ele><time>2026-03-22T11:58:21Z</time></trkpt><trkpt lat="42.871234342724215" lon="-2.216221571107052"><ele>537.0</ele><time>2026-03-22T11:58:22Z</time></trkpt><trkpt lat="42.871305695259124" lon="-2.2159553704724604"><ele>537.0</ele><time>2026-03-22T11:58:23Z</time></trkpt><trkpt lat="42.87137632279461" lon="-2.2156847250710148"><ele>537.0</ele><time>2026-03-22T11:58:24Z</time></trkpt><trkpt lat="42.87144712159265" lon="-2.2154125877612785"><ele>537.3333333333334</ele><time>2026-03-22T11:58:25Z</time></trkpt><trkpt lat="42.871518380979516" lon="-2.2151346407823818"><ele>537.6666666666667</ele><time>2026-03-22T11:58:26Z</time></trkpt><trkpt lat="42.87158935910781" lon="-2.214848801047609"><ele>538.0</ele><time>2026-03-22T11:58:27Z</time></trkpt><trkpt lat="42.871661036244895" lon="-2.2145578322771264"><ele>538.0</ele><time>2026-03-22T11:58:28Z</time></trkpt><trkpt lat="42.871734494674676" lon="-2.2142629187187484"><ele>538.0</ele><time>2026-03-22T11:58:29Z</time></trkpt><trkpt lat="42.8718086046562" lon="-2.2139707579326493"><ele>536.6666666666667</ele><time>2026-03-22T11:58:30Z</time></trkpt><trkpt lat="42.87188426013638" lon="-2.213683076277323"><ele>535.3333333333334</ele><time>2026-03-22T11:58:30.999Z</time></trkpt><trkpt lat="42.87195857437251" lon="-2.2133989676172616"><ele>534.0</ele><time>2026-03-22T11:58:31.999Z</time></trkpt><trkpt lat="42.87203622487379" lon="-2.213113435135506"><ele>534.0</ele><time>2026-03-22T11:58:32.999Z</time></trkpt><trkpt lat="42.872113713401816" lon="-2.2128237251203102"><ele>534.0</ele><time>2026-03-22T11:58:33.999Z</time></trkpt><trkpt lat="42.8721868762076" lon="-2.212539579698076"><ele>534.0</ele><time>2026-03-22T11:58:34.999Z</time></trkpt><trkpt lat="42.87225930510325" lon="-2.2122524777374393"><ele>534.0</ele><time>2026-03-22T11:58:35.999Z</time></trkpt><trkpt lat="42.87233356941953" lon="-2.2119648711271442"><ele>534.0</ele><time>2026-03-22T11:58:36.999Z</time></trkpt><trkpt lat="42.87240905118937" lon="-2.211677421327853"><ele>534.0</ele><time>2026-03-22T11:58:37.999Z</time></trkpt><trkpt lat="42.872482294719646" lon="-2.2113959983331926"><ele>534.0</ele><time>2026-03-22T11:58:38.999Z</time></trkpt><trkpt lat="42.872558003926585" lon="-2.211113801742603"><ele>534.0</ele><time>2026-03-22T11:58:39.999Z</time></trkpt><trkpt lat="42.87263349293473" lon="-2.210831044648885"><ele>534.0</ele><time>2026-03-22T11:58:40.999Z</time></trkpt><trkpt lat="42.87270750791272" lon="-2.21054761238947"><ele>534.3333333333334</ele><time>2026-03-22T11:58:41.999Z</time></trkpt><trkpt lat="42.87277976564645" lon="-2.210261947593713"><ele>534.6666666666667</ele><time>2026-03-22T11:58:42.999Z</time></trkpt><trkpt lat="42.87285272250259" lon="-2.2099692426332034"><ele>535.0</ele><time>2026-03-22T11:58:43.999Z</time></trkpt><trkpt lat="42.87292862072632" lon="-2.2096718002060025"><ele>536.5</ele><time>2026-03-22T11:58:44.999Z</time></trkpt><trkpt lat="42.87300271990063" lon="-2.209374088518407"><ele>538.0</ele><time>2026-03-22T11:58:45.999Z</time></trkpt><trkpt lat="42.87307910005428" lon="-2.2090702541684615"><ele>537.0</ele><time>2026-03-22T11:58:46.999Z</time></trkpt><trkpt lat="42.873156604229564" lon="-2.2087646354821633"><ele>536.0</ele><time>2026-03-22T11:58:47.999Z</time></trkpt><trkpt lat="42.873236896017346" lon="-2.2084607062031654"><ele>537.5</ele><time>2026-03-22T11:58:48.999Z</time></trkpt><trkpt lat="42.87331923288108" lon="-2.2081566017234913"><ele>539.0</ele><time>2026-03-22T11:58:49.999Z</time></trkpt><trkpt lat="42.87340266957536" lon="-2.2078550839566917"><ele>537.5</ele><time>2026-03-22T11:58:50.999Z</time></trkpt><trkpt lat="42.87348842085172" lon="-2.207557436348636"><ele>536.0</ele><time>2026-03-22T11:58:51.999Z</time></trkpt><trkpt lat="42.87357739055479" lon="-2.2072655126055123"><ele>536.0</ele><time>2026-03-22T11:58:52.999Z</time></trkpt><trkpt lat="42.873666568175615" lon="-2.206980153275647"><ele>536.0</ele><time>2026-03-22T11:58:53.999Z</time></trkpt><trkpt lat="42.87375367452334" lon="-2.206709378002951"><ele>536.0</ele><time>2026-03-22T11:58:54.999Z</time></trkpt><trkpt lat="42.87384089944265" lon="-2.206450004830895"><ele>536.0</ele><time>2026-03-22T11:58:55.999Z</time></trkpt><trkpt lat="42.87392402009155" lon="-2.206198594700615"><ele>536.0</ele><time>2026-03-22T11:58:56.999Z</time></trkpt><trkpt lat="42.87400471051068" lon="-2.2059567292186886"><ele>536.0</ele><time>2026-03-22T11:58:57.999Z</time></trkpt><trkpt lat="42.874082792989526" lon="-2.2057127554828475"><ele>536.0</ele><time>2026-03-22T11:58:58.999Z</time></trkpt><trkpt lat="42.87415534156533" lon="-2.2054741151983115"><ele>536.0</ele><time>2026-03-22T11:58:59.999Z</time></trkpt><trkpt lat="42.874219519145164" lon="-2.205247882946671"><ele>536.0</ele><time>2026-03-22T11:59:00.999Z</time></trkpt><trkpt lat="42.87427804623703" lon="-2.2050407015298887"><ele>535.5</ele><time>2026-03-22T11:59:01.999Z</time></trkpt><trkpt lat="42.8743361780433" lon="-2.204841237093329"><ele>535.0</ele><time>2026-03-22T11:59:02.999Z</time></trkpt><trkpt lat="42.87438210117706" lon="-2.204656927523134"><ele>534.5</ele><time>2026-03-22T11:59:03.999Z</time></trkpt><trkpt lat="42.8744205157549" lon="-2.2044830174421914"><ele>534.0</ele><time>2026-03-22T11:59:04.999Z</time></trkpt><trkpt lat="42.87445644463584" lon="-2.2043051855444276"><ele>534.0</ele><time>2026-03-22T11:59:05.999Z</time></trkpt><trkpt lat="42.87447340757576" lon="-2.2041449402447038"><ele>534.0</ele><time>2026-03-22T11:59:06.999Z</time></trkpt><trkpt lat="42.874470146329024" lon="-2.204012618361096"><ele>534.0</ele><time>2026-03-22T11:59:07.999Z</time></trkpt><trkpt lat="42.87445798049561" lon="-2.203906794124473"><ele>534.0</ele><time>2026-03-22T11:59:08.999Z</time></trkpt><trkpt lat="42.87445760763507" lon="-2.2037494680756153"><ele>534.0</ele><time>2026-03-22T11:59:10.999Z</time></trkpt><trkpt lat="42.87451195687341" lon="-2.203631322207556"><ele>534.4</ele><time>2026-03-22T11:59:12.999Z</time></trkpt><trkpt lat="42.874568376473995" lon="-2.203544243418977"><ele>534.8</ele><time>2026-03-22T11:59:14.999Z</time></trkpt><trkpt lat="42.87460816034242" lon="-2.2034366469692155"><ele>535.2</ele><time>2026-03-22T11:59:16.999Z</time></trkpt><trkpt lat="42.87463713783003" lon="-2.2032608383204306"><ele>535.6</ele><time>2026-03-22T11:59:18.999Z</time></trkpt><trkpt lat="42.874663603608326" lon="-2.203158001954033"><ele>536.0</ele><time>2026-03-22T11:59:19.999Z</time></trkpt><trkpt lat="42.87469796538402" lon="-2.2030510086550747"><ele>537.25</ele><time>2026-03-22T11:59:20.999Z</time></trkpt><trkpt lat="42.87473380480616" lon="-2.202926676246116"><ele>538.5</ele><time>2026-03-22T11:59:21.999Z</time></trkpt><trkpt lat="42.87474737178591" lon="-2.2027821094404216"><ele>539.75</ele><time>2026-03-22T11:59:22.999Z</time></trkpt><trkpt lat="42.87475081486319" lon="-2.2026160463250672"><ele>541.0</ele><time>2026-03-22T11:59:23.999Z</time></trkpt><trkpt lat="42.87474070711723" lon="-2.202431309528495"><ele>541.25</ele><time>2026-03-22T11:59:24.999Z</time></trkpt><trkpt lat="42.874722360644604" lon="-2.2022385000593796"><ele>541.5</ele><time>2026-03-22T11:59:25.999Z</time></trkpt><trkpt lat="42.87469999959325" lon="-2.2020490259775554"><ele>541.75</ele><time>2026-03-22T11:59:26.999Z</time></trkpt><trkpt lat="42.87467296645443" lon="-2.201883343661732"><ele>542.0</ele><time>2026-03-22T11:59:27.999Z</time></trkpt><trkpt lat="42.87465016602963" lon="-2.2017255034289973"><ele>542.0</ele><time>2026-03-22T11:59:28.999Z</time></trkpt><trkpt lat="42.87462225393928" lon="-2.2015829182687976"><ele>542.0</ele><time>2026-03-22T11:59:29.998Z</time></trkpt><trkpt lat="42.874602033113156" lon="-2.201451598284201"><ele>542.0</ele><time>2026-03-22T11:59:30.998Z</time></trkpt><trkpt lat="42.874581996055575" lon="-2.2013102189523384"><ele>542.0</ele><time>2026-03-22T11:59:31.998Z</time></trkpt><trkpt lat="42.87456170143485" lon="-2.201150406803422"><ele>542.0</ele><time>2026-03-22T11:59:32.998Z</time></trkpt><trkpt lat="42.874537730732214" lon="-2.200971282325448"><ele>542.0</ele><time>2026-03-22T11:59:33.998Z</time></trkpt><trkpt lat="42.87450903421888" lon="-2.200784556004949"><ele>542.0</ele><time>2026-03-22T11:59:34.998Z</time></trkpt><trkpt lat="42.87447862120734" lon="-2.20058239911126"><ele>542.0</ele><time>2026-03-22T11:59:35.998Z</time></trkpt><trkpt lat="42.87445924405819" lon="-2.2003746099582715"><ele>542.0</ele><time>2026-03-22T11:59:36.998Z</time></trkpt><trkpt lat="42.87445305949503" lon="-2.2001588711456463"><ele>542.6666666666666</ele><time>2026-03-22T11:59:37.998Z</time></trkpt><trkpt lat="42.87447001493927" lon="-2.199932868607692"><ele>543.3333333333334</ele><time>2026-03-22T11:59:38.998Z</time></trkpt><trkpt lat="42.874509319137545" lon="-2.1997014573573797"><ele>544.0</ele><time>2026-03-22T11:59:39.998Z</time></trkpt><trkpt lat="42.87455593636503" lon="-2.1994628114864"><ele>544.6666666666667</ele><time>2026-03-22T11:59:40.998Z</time></trkpt><trkpt lat="42.87460709108088" lon="-2.1992356380668365"><ele>545.3333333333334</ele><time>2026-03-22T11:59:41.998Z</time></trkpt><trkpt lat="42.874644512971116" lon="-2.1990260094065532"><ele>546.0</ele><time>2026-03-22T11:59:42.998Z</time></trkpt><trkpt lat="42.874676397389905" lon="-2.1988341095195665"><ele>546.25</ele><time>2026-03-22T11:59:43.998Z</time></trkpt><trkpt lat="42.87470627906679" lon="-2.198667166471387"><ele>546.5</ele><time>2026-03-22T11:59:44.998Z</time></trkpt><trkpt lat="42.874735546387114" lon="-2.1985104065366863"><ele>546.75</ele><time>2026-03-22T11:59:45.998Z</time></trkpt><trkpt lat="42.87475878528868" lon="-2.198356024192835"><ele>547.0</ele><time>2026-03-22T11:59:46.998Z</time></trkpt><trkpt lat="42.87479470123534" lon="-2.1981892206755798"><ele>547.5</ele><time>2026-03-22T11:59:47.998Z</time></trkpt><trkpt lat="42.87482338369719" lon="-2.197992485996327"><ele>548.0</ele><time>2026-03-22T11:59:49Z</time></trkpt><trkpt lat="42.87485341778309" lon="-2.197793441301459"><ele>548.5</ele><time>2026-03-22T11:59:50Z</time></trkpt><trkpt lat="42.874885987450114" lon="-2.197597838809852"><ele>549.0</ele><time>2026-03-22T11:59:51Z</time></trkpt><trkpt lat="42.87491458155828" lon="-2.1973997079513157"><ele>549.6666666666666</ele><time>2026-03-22T11:59:52Z</time></trkpt><trkpt lat="42.87496229678627" lon="-2.197206598812112"><ele>550.3333333333333</ele><time>2026-03-22T11:59:53Z</time></trkpt><trkpt lat="42.874982017973196" lon="-2.197000915323672"><ele>551.0</ele><time>2026-03-22T11:59:54Z</time></trkpt><trkpt lat="42.87501673835913" lon="-2.1968034933014304"><ele>551.0</ele><time>2026-03-22T11:59:55Z</time></trkpt><trkpt lat="42.875050594780234" lon="-2.196604943044699"><ele>551.0</ele><time>2026-03-22T11:59:56Z</time></trkpt><trkpt lat="42.87509817003185" lon="-2.196410437684333"><ele>551.0</ele><time>2026-03-22T11:59:57Z</time></trkpt><trkpt lat="42.87518495442674" lon="-2.1962417108715973"><ele>549.75</ele><time>2026-03-22T11:59:58Z</time></trkpt><trkpt lat="42.87527850280876" lon="-2.1960747541246053"><ele>548.5</ele><time>2026-03-22T11:59:59Z</time></trkpt><trkpt lat="42.87538160433681" lon="-2.1959453164131078"><ele>547.25</ele><time>2026-03-22T12:00:00Z</time></trkpt><trkpt lat="42.875457098022935" lon="-2.195811901624949"><ele>546.0</ele><time>2026-03-22T12:00:01Z</time></trkpt><trkpt lat="42.875528715713926" lon="-2.195709708969086"><ele>545.75</ele><time>2026-03-22T12:00:02Z</time></trkpt><trkpt lat="42.875601259411994" lon="-2.195606247082014"><ele>545.5</ele><time>2026-03-22T12:00:03Z</time></trkpt><trkpt lat="42.87568562217614" lon="-2.1954859288425435"><ele>545.25</ele><time>2026-03-22T12:00:04Z</time></trkpt><trkpt lat="42.875792862606296" lon="-2.1953650033587726"><ele>545.0</ele><time>2026-03-22T12:00:05Z</time></trkpt><trkpt lat="42.875883211918534" lon="-2.195198664632614"><ele>545.3333333333333</ele><time>2026-03-22T12:00:06Z</time></trkpt><trkpt lat="42.87599550323256" lon="-2.1950362530288663"><ele>545.6666666666666</ele><time>2026-03-22T12:00:07Z</time></trkpt><trkpt lat="42.876115167078076" lon="-2.1948663440553684"><ele>546.0</ele><time>2026-03-22T12:00:08Z</time></trkpt><trkpt lat="42.87624242081314" lon="-2.19468910331716"><ele>547.0</ele><time>2026-03-22T12:00:09Z</time></trkpt><trkpt lat="42.87637178089169" lon="-2.1945092334158645"><ele>548.0</ele><time>2026-03-22T12:00:10Z</time></trkpt><trkpt lat="42.87649571764607" lon="-2.1943373016119763"><ele>549.0</ele><time>2026-03-22T12:00:11Z</time></trkpt><trkpt lat="42.87660991851449" lon="-2.1941844429859074"><ele>549.0</ele><time>2026-03-22T12:00:12Z</time></trkpt><trkpt lat="42.87672878782887" lon="-2.1940435788783725"><ele>549.0</ele><time>2026-03-22T12:00:13Z</time></trkpt><trkpt lat="42.87685511399918" lon="-2.1939221062223866"><ele>549.0</ele><time>2026-03-22T12:00:14Z</time></trkpt><trkpt lat="42.87699304266529" lon="-2.1938331186420776"><ele>549.5</ele><time>2026-03-22T12:00:15Z</time></trkpt><trkpt lat="42.87713730741545" lon="-2.1937839613254297"><ele>550.0</ele><time>2026-03-22T12:00:16Z</time></trkpt><trkpt lat="42.87727872696083" lon="-2.1937524094335648"><ele>550.5</ele><time>2026-03-22T12:00:17Z</time></trkpt><trkpt lat="42.877403879237946" lon="-2.193723632682357"><ele>551.0</ele><time>2026-03-22T12:00:18Z</time></trkpt><trkpt lat="42.8775070403515" lon="-2.19369236439568"><ele>550.75</ele><time>2026-03-22T12:00:19Z</time></trkpt><trkpt lat="42.877612737035264" lon="-2.1936610911593983"><ele>550.5</ele><time>2026-03-22T12:00:20Z</time></trkpt><trkpt lat="42.87773316501706" lon="-2.193628151680875"><ele>550.25</ele><time>2026-03-22T12:00:21Z</time></trkpt><trkpt lat="42.877855897661796" lon="-2.1935864052655822"><ele>550.0</ele><time>2026-03-22T12:00:22Z</time></trkpt><trkpt lat="42.87798221157189" lon="-2.1935364329987044"><ele>550.0</ele><time>2026-03-22T12:00:23Z</time></trkpt><trkpt lat="42.87809696665235" lon="-2.1934478076870487"><ele>550.0</ele><time>2026-03-22T12:00:24Z</time></trkpt><trkpt lat="42.878195734369974" lon="-2.1933571789268504"><ele>550.0</ele><time>2026-03-22T12:00:25Z</time></trkpt><trkpt lat="42.87827833547604" lon="-2.1932738729918415"><ele>550.0</ele><time>2026-03-22T12:00:26Z</time></trkpt><trkpt lat="42.878348196539086" lon="-2.193228384351758"><ele>550.0</ele><time>2026-03-22T12:00:27Z</time></trkpt><trkpt lat="42.878396109338155" lon="-2.1931496310939314"><ele>548.6</ele><time>2026-03-22T12:00:28Z</time></trkpt><trkpt lat="42.8784658044055" lon="-2.19309428707061"><ele>547.2</ele><time>2026-03-22T12:00:29Z</time></trkpt><trkpt lat="42.87854143426782" lon="-2.193009392648669"><ele>545.8</ele><time>2026-03-22T12:00:30Z</time></trkpt><trkpt lat="42.87862542938679" lon="-2.1929294832169446"><ele>544.4</ele><time>2026-03-22T12:00:31Z</time></trkpt><trkpt lat="42.878719956172915" lon="-2.1928369344631147"><ele>543.0</ele><time>2026-03-22T12:00:31.999Z</time></trkpt><trkpt lat="42.8788160622412" lon="-2.1927160541451336"><ele>543.0</ele><time>2026-03-22T12:00:32.999Z</time></trkpt><trkpt lat="42.87893223648974" lon="-2.192596450335721"><ele>543.0</ele><time>2026-03-22T12:00:33.999Z</time></trkpt><trkpt lat="42.87905668021762" lon="-2.192468332928425"><ele>543.0</ele><time>2026-03-22T12:00:34.999Z</time></trkpt><trkpt lat="42.879199645512145" lon="-2.1923475607221303"><ele>542.6666666666666</ele><time>2026-03-22T12:00:35.999Z</time></trkpt><trkpt lat="42.87932469395561" lon="-2.192217823859174"><ele>542.3333333333333</ele><time>2026-03-22T12:00:36.999Z</time></trkpt><trkpt lat="42.879467429892024" lon="-2.192071150609986"><ele>542.0</ele><time>2026-03-22T12:00:37.999Z</time></trkpt><trkpt lat="42.87959821109475" lon="-2.1919272737905606"><ele>542.0</ele><time>2026-03-22T12:00:38.999Z</time></trkpt><trkpt lat="42.87972492576504" lon="-2.1917749639546176"><ele>542.0</ele><time>2026-03-22T12:00:39.999Z</time></trkpt><trkpt lat="42.87983558225779" lon="-2.1915996422791677"><ele>542.0</ele><time>2026-03-22T12:00:40.999Z</time></trkpt><trkpt lat="42.87993511657825" lon="-2.191388467357129"><ele>542.6666666666666</ele><time>2026-03-22T12:00:41.999Z</time></trkpt><trkpt lat="42.88003839289872" lon="-2.191158860318411"><ele>543.3333333333334</ele><time>2026-03-22T12:00:42.999Z</time></trkpt><trkpt lat="42.88013611290406" lon="-2.1909372806317666"><ele>544.0</ele><time>2026-03-22T12:00:43.999Z</time></trkpt><trkpt lat="42.880238569624275" lon="-2.19070737962902"><ele>541.3333333333334</ele><time>2026-03-22T12:00:44.999Z</time></trkpt><trkpt lat="42.88032489702583" lon="-2.1905004181461725"><ele>538.6666666666666</ele><time>2026-03-22T12:00:45.999Z</time></trkpt><trkpt lat="42.880399428035574" lon="-2.1903190207755774"><ele>536.0</ele><time>2026-03-22T12:00:46.999Z</time></trkpt><trkpt lat="42.880472822294124" lon="-2.190149136256734"><ele>536.0</ele><time>2026-03-22T12:00:47.999Z</time></trkpt><trkpt lat="42.880543248591245" lon="-2.1899877983784912"><ele>536.0</ele><time>2026-03-22T12:00:48.999Z</time></trkpt><trkpt lat="42.88061549837574" lon="-2.189833058279823"><ele>536.0</ele><time>2026-03-22T12:00:49.999Z</time></trkpt><trkpt lat="42.8806846193568" lon="-2.189675960495855"><ele>536.0</ele><time>2026-03-22T12:00:50.999Z</time></trkpt><trkpt lat="42.880751629321274" lon="-2.189513677193257"><ele>535.75</ele><time>2026-03-22T12:00:51.999Z</time></trkpt><trkpt lat="42.880815844487465" lon="-2.189352455051514"><ele>535.5</ele><time>2026-03-22T12:00:52.999Z</time></trkpt><trkpt lat="42.88088412302786" lon="-2.189191738250297"><ele>535.25</ele><time>2026-03-22T12:00:53.999Z</time></trkpt><trkpt lat="42.88095183541445" lon="-2.1890343952034073"><ele>535.0</ele><time>2026-03-22T12:00:54.999Z</time></trkpt><trkpt lat="42.8810211187364" lon="-2.188873700455729"><ele>534.0</ele><time>2026-03-22T12:00:55.999Z</time></trkpt><trkpt lat="42.881089882883" lon="-2.1887127296821234"><ele>533.0</ele><time>2026-03-22T12:00:56.999Z</time></trkpt><trkpt lat="42.88116587451416" lon="-2.188555533723264"><ele>532.0</ele><time>2026-03-22T12:00:57.999Z</time></trkpt><trkpt lat="42.88123775561845" lon="-2.1883941387142687"><ele>531.0</ele><time>2026-03-22T12:00:58.999Z</time></trkpt><trkpt lat="42.88130966289177" lon="-2.1882347707907486"><ele>532.5</ele><time>2026-03-22T12:00:59.999Z</time></trkpt><trkpt lat="42.8813654063442" lon="-2.188065487342067"><ele>534.0</ele><time>2026-03-22T12:01:00.999Z</time></trkpt><trkpt lat="42.8814341779622" lon="-2.187906135368742"><ele>535.5</ele><time>2026-03-22T12:01:01.999Z</time></trkpt><trkpt lat="42.88150057570124" lon="-2.1877522839760357"><ele>537.0</ele><time>2026-03-22T12:01:02.999Z</time></trkpt><trkpt lat="42.88157705874238" lon="-2.1876184315263463"><ele>537.0</ele><time>2026-03-22T12:01:03.999Z</time></trkpt><trkpt lat="42.88163058367845" lon="-2.1874721884594597"><ele>537.0</ele><time>2026-03-22T12:01:04.999Z</time></trkpt><trkpt lat="42.88169247266482" lon="-2.187321981326333"><ele>537.0</ele><time>2026-03-22T12:01:05.999Z</time></trkpt><trkpt lat="42.88175369307738" lon="-2.1871644932053287"><ele>537.0</ele><time>2026-03-22T12:01:06.999Z</time></trkpt><trkpt lat="42.881816671161936" lon="-2.187000594039566"><ele>535.0</ele><time>2026-03-22T12:01:07.999Z</time></trkpt><trkpt lat="42.881881284941855" lon="-2.186826655248548"><ele>533.0</ele><time>2026-03-22T12:01:08.999Z</time></trkpt><trkpt lat="42.88194764284135" lon="-2.186643762898663"><ele>531.0</ele><time>2026-03-22T12:01:09.999Z</time></trkpt><trkpt lat="42.88201736133435" lon="-2.186456871415422"><ele>529.0</ele><time>2026-03-22T12:01:10.999Z</time></trkpt><trkpt lat="42.88208971402059" lon="-2.186260924851593"><ele>529.0</ele><time>2026-03-22T12:01:11.999Z</time></trkpt><trkpt lat="42.882162046594296" lon="-2.186063270149765"><ele>529.0</ele><time>2026-03-22T12:01:12.999Z</time></trkpt><trkpt lat="42.882238843576495" lon="-2.1858655514098757"><ele>529.0</ele><time>2026-03-22T12:01:13.999Z</time></trkpt><trkpt lat="42.88231645002859" lon="-2.1856645224993927"><ele>529.0</ele><time>2026-03-22T12:01:14.999Z</time></trkpt><trkpt lat="42.88239411634858" lon="-2.1854623460546923"><ele>529.0</ele><time>2026-03-22T12:01:15.999Z</time></trkpt><trkpt lat="42.882473359584665" lon="-2.185260093834886"><ele>529.0</ele><time>2026-03-22T12:01:16.999Z</time></trkpt><trkpt lat="42.88255229133197" lon="-2.1850588900938877"><ele>527.6666666666667</ele><time>2026-03-22T12:01:17.999Z</time></trkpt><trkpt lat="42.88263099221477" lon="-2.184857646909078"><ele>526.3333333333334</ele><time>2026-03-22T12:01:18.999Z</time></trkpt><trkpt lat="42.882708470751936" lon="-2.1846550487483274"><ele>525.0</ele><time>2026-03-22T12:01:19.999Z</time></trkpt><trkpt lat="42.88278602140775" lon="-2.1844500126524142"><ele>524.6666666666666</ele><time>2026-03-22T12:01:20.999Z</time></trkpt><trkpt lat="42.88286277691013" lon="-2.184241111230935"><ele>524.3333333333333</ele><time>2026-03-22T12:01:21.999Z</time></trkpt><trkpt lat="42.882939170639" lon="-2.1840302713580684"><ele>524.0</ele><time>2026-03-22T12:01:22.999Z</time></trkpt><trkpt lat="42.88301481006913" lon="-2.1838172357853844"><ele>525.6666666666666</ele><time>2026-03-22T12:01:23.999Z</time></trkpt><trkpt lat="42.8830924209011" lon="-2.183600537327926"><ele>527.3333333333334</ele><time>2026-03-22T12:01:24.999Z</time></trkpt><trkpt lat="42.88317087748991" lon="-2.1833825935274436"><ele>529.0</ele><time>2026-03-22T12:01:25.999Z</time></trkpt><trkpt lat="42.88324988204131" lon="-2.183166118821525"><ele>530.0</ele><time>2026-03-22T12:01:26.999Z</time></trkpt><trkpt lat="42.88332795450896" lon="-2.18295850248932"><ele>531.0</ele><time>2026-03-22T12:01:27.999Z</time></trkpt><trkpt lat="42.883405685671036" lon="-2.1827558339499813"><ele>532.0</ele><time>2026-03-22T12:01:28.999Z</time></trkpt><trkpt lat="42.88348336197722" lon="-2.1825551093765467"><ele>532.0</ele><time>2026-03-22T12:01:29.998Z</time></trkpt><trkpt lat="42.88355905572538" lon="-2.1823555494799205"><ele>532.0</ele><time>2026-03-22T12:01:30.998Z</time></trkpt><trkpt lat="42.883632284718345" lon="-2.1821529895754113"><ele>532.0</ele><time>2026-03-22T12:01:31.998Z</time></trkpt><trkpt lat="42.883705923914285" lon="-2.181950785247295"><ele>531.0</ele><time>2026-03-22T12:01:32.998Z</time></trkpt><trkpt lat="42.88377785054583" lon="-2.1817461062010053"><ele>530.0</ele><time>2026-03-22T12:01:33.998Z</time></trkpt><trkpt lat="42.883849126087526" lon="-2.1815359975357964"><ele>529.0</ele><time>2026-03-22T12:01:34.998Z</time></trkpt><trkpt lat="42.883919694268194" lon="-2.181324899063536"><ele>529.0</ele><time>2026-03-22T12:01:35.998Z</time></trkpt><trkpt lat="42.8839919756897" lon="-2.181113409511357"><ele>529.0</ele><time>2026-03-22T12:01:36.998Z</time></trkpt><trkpt lat="42.88406270051803" lon="-2.1809072428468292"><ele>529.0</ele><time>2026-03-22T12:01:37.998Z</time></trkpt><trkpt lat="42.884128420846906" lon="-2.1807117218760883"><ele>530.6666666666667</ele><time>2026-03-22T12:01:38.998Z</time></trkpt><trkpt lat="42.88419325919784" lon="-2.180525619850792"><ele>532.3333333333334</ele><time>2026-03-22T12:01:39.998Z</time></trkpt><trkpt lat="42.88425460053517" lon="-2.18033884506758"><ele>534.0</ele><time>2026-03-22T12:01:40.998Z</time></trkpt><trkpt lat="42.88431410464515" lon="-2.1801459707686472"><ele>530.6666666666666</ele><time>2026-03-22T12:01:41.998Z</time></trkpt><trkpt lat="42.88436761940945" lon="-2.1799449548085374"><ele>527.3333333333333</ele><time>2026-03-22T12:01:42.998Z</time></trkpt><trkpt lat="42.8844147328688" lon="-2.1797337043511336"><ele>524.0</ele><time>2026-03-22T12:01:43.998Z</time></trkpt><trkpt lat="42.88445437462791" lon="-2.1795162511370325"><ele>524.0</ele><time>2026-03-22T12:01:44.998Z</time></trkpt><trkpt lat="42.88448223500376" lon="-2.1792957104591917"><ele>524.0</ele><time>2026-03-22T12:01:45.998Z</time></trkpt><trkpt lat="42.884494319282766" lon="-2.1790709672551256"><ele>524.0</ele><time>2026-03-22T12:01:46.998Z</time></trkpt><trkpt lat="42.88449263392327" lon="-2.1788455411560235"><ele>525.0</ele><time>2026-03-22T12:01:47.998Z</time></trkpt><trkpt lat="42.88448164387378" lon="-2.178622312435267"><ele>526.0</ele><time>2026-03-22T12:01:48.998Z</time></trkpt><trkpt lat="42.884464760209354" lon="-2.1783977645176114"><ele>527.0</ele><time>2026-03-22T12:01:49.998Z</time></trkpt><trkpt lat="42.88444197858537" lon="-2.1781807896477523"><ele>528.5</ele><time>2026-03-22T12:01:50.998Z</time></trkpt><trkpt lat="42.88441755503508" lon="-2.1779790117282585"><ele>530.0</ele><time>2026-03-22T12:01:51.998Z</time></trkpt><trkpt lat="42.88438780876883" lon="-2.1777874837602726"><ele>531.5</ele><time>2026-03-22T12:01:52.998Z</time></trkpt><trkpt lat="42.884357720717325" lon="-2.177592023353676"><ele>533.0</ele><time>2026-03-22T12:01:53.998Z</time></trkpt><trkpt lat="42.884328660614216" lon="-2.1773891025255674"><ele>533.0</ele><time>2026-03-22T12:01:55Z</time></trkpt><trkpt lat="42.884295869794336" lon="-2.177176984646266"><ele>533.0</ele><time>2026-03-22T12:01:56Z</time></trkpt><trkpt lat="42.88427270438885" lon="-2.1769562117336205"><ele>533.0</ele><time>2026-03-22T12:01:57Z</time></trkpt><trkpt lat="42.88427047421324" lon="-2.1767259063371247"><ele>532.3333333333333</ele><time>2026-03-22T12:01:58Z</time></trkpt><trkpt lat="42.88428946703483" lon="-2.1764935505995053"><ele>531.6666666666666</ele><time>2026-03-22T12:01:59Z</time></trkpt><trkpt lat="42.88429558964759" lon="-2.176253215602392"><ele>531.0</ele><time>2026-03-22T12:02:00Z</time></trkpt><trkpt lat="42.88432919200107" lon="-2.1760152094421823"><ele>531.0</ele><time>2026-03-22T12:02:01Z</time></trkpt><trkpt lat="42.88438934103792" lon="-2.175780445858491"><ele>531.0</ele><time>2026-03-22T12:02:02Z</time></trkpt><trkpt lat="42.88445317883528" lon="-2.1755390627028803"><ele>531.0</ele><time>2026-03-22T12:02:03Z</time></trkpt><trkpt lat="42.88452910410607" lon="-2.1753068509353035"><ele>531.3333333333334</ele><time>2026-03-22T12:02:04Z</time></trkpt><trkpt lat="42.88459883644087" lon="-2.175070012738501"><ele>531.6666666666667</ele><time>2026-03-22T12:02:05Z</time></trkpt><trkpt lat="42.884687121777674" lon="-2.1748556490481126"><ele>532.0</ele><time>2026-03-22T12:02:06Z</time></trkpt><trkpt lat="42.884782018344126" lon="-2.174645020610974"><ele>532.0</ele><time>2026-03-22T12:02:07Z</time></trkpt><trkpt lat="42.88488924119569" lon="-2.1744338851033165"><ele>532.0</ele><time>2026-03-22T12:02:08Z</time></trkpt><trkpt lat="42.88500659166216" lon="-2.1742256603676555"><ele>532.0</ele><time>2026-03-22T12:02:09Z</time></trkpt><trkpt lat="42.885134141243995" lon="-2.1740230171135724"><ele>531.3333333333334</ele><time>2026-03-22T12:02:10Z</time></trkpt><trkpt lat="42.885271139043525" lon="-2.173834948040785"><ele>530.6666666666666</ele><time>2026-03-22T12:02:11Z</time></trkpt><trkpt lat="42.88540545992706" lon="-2.1736565049243937"><ele>530.0</ele><time>2026-03-22T12:02:12Z</time></trkpt><trkpt lat="42.88552980422314" lon="-2.173495544164811"><ele>530.0</ele><time>2026-03-22T12:02:13Z</time></trkpt><trkpt lat="42.88566659316404" lon="-2.173318474023674"><ele>530.0</ele><time>2026-03-22T12:02:14Z</time></trkpt><trkpt lat="42.88579906409834" lon="-2.1731429148672134"><ele>530.0</ele><time>2026-03-22T12:02:15Z</time></trkpt><trkpt lat="42.88592991873669" lon="-2.1729568009787656"><ele>526.0</ele><time>2026-03-22T12:02:16Z</time></trkpt><trkpt lat="42.88605248305659" lon="-2.1727555397040823"><ele>522.0</ele><time>2026-03-22T12:02:17Z</time></trkpt><trkpt lat="42.88615776620556" lon="-2.1725398168244943"><ele>518.0</ele><time>2026-03-22T12:02:18Z</time></trkpt><trkpt lat="42.88624624283428" lon="-2.1723050444881955"><ele>518.0</ele><time>2026-03-22T12:02:19Z</time></trkpt><trkpt lat="42.8863317113739" lon="-2.1720623542374975"><ele>518.0</ele><time>2026-03-22T12:02:20Z</time></trkpt><trkpt lat="42.88638528611618" lon="-2.171802014761071"><ele>518.0</ele><time>2026-03-22T12:02:21Z</time></trkpt><trkpt lat="42.886430255881464" lon="-2.171541744178498"><ele>519.6666666666666</ele><time>2026-03-22T12:02:22Z</time></trkpt><trkpt lat="42.88647169316285" lon="-2.1712983243503694"><ele>521.3333333333334</ele><time>2026-03-22T12:02:23Z</time></trkpt><trkpt lat="42.88652097133509" lon="-2.171070514127122"><ele>523.0</ele><time>2026-03-22T12:02:24Z</time></trkpt><trkpt lat="42.88657889525286" lon="-2.1708591998819466"><ele>523.0</ele><time>2026-03-22T12:02:25Z</time></trkpt><trkpt lat="42.8866569202952" lon="-2.1706641316414217"><ele>523.0</ele><time>2026-03-22T12:02:26Z</time></trkpt><trkpt lat="42.88675641370292" lon="-2.1704818443164298"><ele>523.0</ele><time>2026-03-22T12:02:27Z</time></trkpt><trkpt lat="42.88686557453603" lon="-2.1703162342916955"><ele>521.3333333333334</ele><time>2026-03-22T12:02:28Z</time></trkpt><trkpt lat="42.88699764887368" lon="-2.1701827220912344"><ele>519.6666666666666</ele><time>2026-03-22T12:02:29Z</time></trkpt><trkpt lat="42.887151407305474" lon="-2.170081045712699"><ele>518.0</ele><time>2026-03-22T12:02:30Z</time></trkpt><trkpt lat="42.887310894985966" lon="-2.1700054481862483"><ele>518.0</ele><time>2026-03-22T12:02:31Z</time></trkpt><trkpt lat="42.88747551769155" lon="-2.169972512867414"><ele>518.0</ele><time>2026-03-22T12:02:32Z</time></trkpt><trkpt lat="42.887645970654596" lon="-2.1699458019848"><ele>518.0</ele><time>2026-03-22T12:02:33Z</time></trkpt><trkpt lat="42.88781237701081" lon="-2.169987907975907"><ele>517.3333333333333</ele><time>2026-03-22T12:02:33.999Z</time></trkpt><trkpt lat="42.88797123836511" lon="-2.1700028650729477"><ele>516.6666666666666</ele><time>2026-03-22T12:02:34.999Z</time></trkpt><trkpt lat="42.888127957450294" lon="-2.1700205754590502"><ele>516.0</ele><time>2026-03-22T12:02:35.999Z</time></trkpt><trkpt lat="42.888287053781184" lon="-2.1700403592448256"><ele>515.6666666666666</ele><time>2026-03-22T12:02:36.999Z</time></trkpt><trkpt lat="42.888451306273666" lon="-2.1700496381435133"><ele>515.3333333333333</ele><time>2026-03-22T12:02:37.999Z</time></trkpt><trkpt lat="42.88862280563371" lon="-2.17002682318763"><ele>515.0</ele><time>2026-03-22T12:02:38.999Z</time></trkpt><trkpt lat="42.88879706848418" lon="-2.169983348411953"><ele>515.0</ele><time>2026-03-22T12:02:39.999Z</time></trkpt><trkpt lat="42.88896863246382" lon="-2.169904168286043"><ele>515.0</ele><time>2026-03-22T12:02:40.999Z</time></trkpt><trkpt lat="42.88913499905226" lon="-2.1697960675633197"><ele>515.0</ele><time>2026-03-22T12:02:41.999Z</time></trkpt><trkpt lat="42.88929279733933" lon="-2.169659560879629"><ele>514.6666666666666</ele><time>2026-03-22T12:02:42.999Z</time></trkpt><trkpt lat="42.889433712565136" lon="-2.169490639262646"><ele>514.3333333333334</ele><time>2026-03-22T12:02:43.999Z</time></trkpt><trkpt lat="42.88955955989554" lon="-2.169309994335661"><ele>514.0</ele><time>2026-03-22T12:02:44.999Z</time></trkpt><trkpt lat="42.889683323789576" lon="-2.169125597264341"><ele>513.6666666666667</ele><time>2026-03-22T12:02:45.999Z</time></trkpt><trkpt lat="42.88979377786882" lon="-2.168929586893348"><ele>513.3333333333334</ele><time>2026-03-22T12:02:46.999Z</time></trkpt><trkpt lat="42.88991268392467" lon="-2.1687487674407047"><ele>513.0</ele><time>2026-03-22T12:02:47.999Z</time></trkpt><trkpt lat="42.890032379349364" lon="-2.1685667476148893"><ele>513.3333333333334</ele><time>2026-03-22T12:02:48.999Z</time></trkpt><trkpt lat="42.89015163889689" lon="-2.168388139851701"><ele>513.6666666666667</ele><time>2026-03-22T12:02:49.999Z</time></trkpt><trkpt lat="42.890265081445406" lon="-2.168217432954077"><ele>514.0</ele><time>2026-03-22T12:02:50.999Z</time></trkpt><trkpt lat="42.890371455613995" lon="-2.1680574298744095"><ele>514.25</ele><time>2026-03-22T12:02:51.999Z</time></trkpt><trkpt lat="42.890476036391675" lon="-2.167902064310656"><ele>514.5</ele><time>2026-03-22T12:02:52.999Z</time></trkpt><trkpt lat="42.890576907590855" lon="-2.1677522097279196"><ele>514.75</ele><time>2026-03-22T12:02:53.999Z</time></trkpt><trkpt lat="42.8906752717167" lon="-2.1676060796686643"><ele>515.0</ele><time>2026-03-22T12:02:54.999Z</time></trkpt><trkpt lat="42.89077016465633" lon="-2.1674651064121617"><ele>514.75</ele><time>2026-03-22T12:02:55.999Z</time></trkpt><trkpt lat="42.89086354517389" lon="-2.1673263800112346"><ele>514.5</ele><time>2026-03-22T12:02:56.999Z</time></trkpt><trkpt lat="42.89096970608399" lon="-2.1672003174935788"><ele>514.25</ele><time>2026-03-22T12:02:57.999Z</time></trkpt><trkpt lat="42.89105764605299" lon="-2.167062280636118"><ele>514.0</ele><time>2026-03-22T12:02:58.999Z</time></trkpt><trkpt lat="42.89114111190249" lon="-2.166927613791867"><ele>514.0</ele><time>2026-03-22T12:02:59.999Z</time></trkpt><trkpt lat="42.89122183308348" lon="-2.166799959659958"><ele>514.0</ele><time>2026-03-22T12:03:00.999Z</time></trkpt><trkpt lat="42.89129945570118" lon="-2.166672650856509"><ele>514.0</ele><time>2026-03-22T12:03:01.999Z</time></trkpt><trkpt lat="42.89137511643958" lon="-2.1665500060481726"><ele>514.0</ele><time>2026-03-22T12:03:02.999Z</time></trkpt><trkpt lat="42.89144280362014" lon="-2.1664200849943467"><ele>514.25</ele><time>2026-03-22T12:03:03.999Z</time></trkpt><trkpt lat="42.891500093664426" lon="-2.166270762444114"><ele>514.5</ele><time>2026-03-22T12:03:04.999Z</time></trkpt><trkpt lat="42.89155238861846" lon="-2.166122296557133"><ele>514.75</ele><time>2026-03-22T12:03:05.999Z</time></trkpt><trkpt lat="42.89160440645852" lon="-2.1659678223154035"><ele>515.0</ele><time>2026-03-22T12:03:06.999Z</time></trkpt><trkpt lat="42.89164427878386" lon="-2.1658114530750794"><ele>514.75</ele><time>2026-03-22T12:03:07.999Z</time></trkpt><trkpt lat="42.89167662430902" lon="-2.1656536928963894"><ele>514.5</ele><time>2026-03-22T12:03:08.999Z</time></trkpt><trkpt lat="42.89170516129935" lon="-2.1654893331708522"><ele>514.25</ele><time>2026-03-22T12:03:09.999Z</time></trkpt><trkpt lat="42.891722950827095" lon="-2.1653178518147533"><ele>514.0</ele><time>2026-03-22T12:03:10.999Z</time></trkpt><trkpt lat="42.891727482288864" lon="-2.1651362950611115"><ele>514.0</ele><time>2026-03-22T12:03:11.999Z</time></trkpt><trkpt lat="42.89172618941099" lon="-2.164942388853346"><ele>514.0</ele><time>2026-03-22T12:03:12.999Z</time></trkpt><trkpt lat="42.891717947318" lon="-2.1647426982940203"><ele>514.0</ele><time>2026-03-22T12:03:13.999Z</time></trkpt><trkpt lat="42.891701925625014" lon="-2.1645349610400246"><ele>514.0</ele><time>2026-03-22T12:03:14.999Z</time></trkpt><trkpt lat="42.89168301651334" lon="-2.1643174231264544"><ele>514.0</ele><time>2026-03-22T12:03:15.999Z</time></trkpt><trkpt lat="42.891662565025506" lon="-2.164099098230243"><ele>514.0</ele><time>2026-03-22T12:03:16.999Z</time></trkpt><trkpt lat="42.891639941194505" lon="-2.1638782984039833"><ele>514.0</ele><time>2026-03-22T12:03:17.999Z</time></trkpt><trkpt lat="42.89161796785681" lon="-2.163655604146423"><ele>514.0</ele><time>2026-03-22T12:03:18.999Z</time></trkpt><trkpt lat="42.891593726405716" lon="-2.163427333502764"><ele>514.0</ele><time>2026-03-22T12:03:19.999Z</time></trkpt><trkpt lat="42.891571251508005" lon="-2.163195028249423"><ele>514.0</ele><time>2026-03-22T12:03:20.999Z</time></trkpt><trkpt lat="42.8915487938556" lon="-2.162959144148252"><ele>514.0</ele><time>2026-03-22T12:03:21.999Z</time></trkpt><trkpt lat="42.891522982766844" lon="-2.1627171078962126"><ele>514.0</ele><time>2026-03-22T12:03:22.999Z</time></trkpt><trkpt lat="42.89150008243264" lon="-2.1624724467517997"><ele>514.0</ele><time>2026-03-22T12:03:23.999Z</time></trkpt><trkpt lat="42.89147606428881" lon="-2.162226392827648"><ele>514.0</ele><time>2026-03-22T12:03:24.999Z</time></trkpt><trkpt lat="42.89145195279737" lon="-2.1619768175918432"><ele>514.0</ele><time>2026-03-22T12:03:25.999Z</time></trkpt><trkpt lat="42.89142816394" lon="-2.1617218831004954"><ele>514.0</ele><time>2026-03-22T12:03:26.999Z</time></trkpt><trkpt lat="42.891404140016895" lon="-2.16146368704466"><ele>514.3333333333334</ele><time>2026-03-22T12:03:27.999Z</time></trkpt><trkpt lat="42.8913802938405" lon="-2.16120832447886"><ele>514.6666666666666</ele><time>2026-03-22T12:03:28.999Z</time></trkpt><trkpt lat="42.89135731634701" lon="-2.1609486736127437"><ele>515.0</ele><time>2026-03-22T12:03:29.999Z</time></trkpt><trkpt lat="42.89133561723158" lon="-2.160687229110812"><ele>515.0</ele><time>2026-03-22T12:03:30.999Z</time></trkpt><trkpt lat="42.891311614008785" lon="-2.1604222862990747"><ele>515.0</ele><time>2026-03-22T12:03:31.999Z</time></trkpt><trkpt lat="42.891289376348595" lon="-2.1601513374898236"><ele>515.0</ele><time>2026-03-22T12:03:32.999Z</time></trkpt><trkpt lat="42.89126779776567" lon="-2.1598776576203007"><ele>515.0</ele><time>2026-03-22T12:03:33.998Z</time></trkpt><trkpt lat="42.89124344714379" lon="-2.159599482941514"><ele>515.0</ele><time>2026-03-22T12:03:34.998Z</time></trkpt><trkpt lat="42.89121758374441" lon="-2.1593144680757352"><ele>515.0</ele><time>2026-03-22T12:03:35.998Z</time></trkpt><trkpt lat="42.89118957057454" lon="-2.159024006255651"><ele>514.0</ele><time>2026-03-22T12:03:36.998Z</time></trkpt><trkpt lat="42.89116565724896" lon="-2.1587294362599057"><ele>513.0</ele><time>2026-03-22T12:03:37.998Z</time></trkpt><trkpt lat="42.89114059017672" lon="-2.158429810562081"><ele>512.0</ele><time>2026-03-22T12:03:38.998Z</time></trkpt><trkpt lat="42.89111595014992" lon="-2.158127736951003"><ele>512.0</ele><time>2026-03-22T12:03:39.998Z</time></trkpt><trkpt lat="42.89109218242306" lon="-2.1578228163358735"><ele>512.0</ele><time>2026-03-22T12:03:40.998Z</time></trkpt><trkpt lat="42.891071252732296" lon="-2.1575164923625723"><ele>512.0</ele><time>2026-03-22T12:03:41.998Z</time></trkpt><trkpt lat="42.89105234594762" lon="-2.157206541169009"><ele>512.0</ele><time>2026-03-22T12:03:42.998Z</time></trkpt><trkpt lat="42.89103253177621" lon="-2.1568931233815363"><ele>512.0</ele><time>2026-03-22T12:03:43.998Z</time></trkpt><trkpt lat="42.89101177776179" lon="-2.1565806084009576"><ele>512.0</ele><time>2026-03-22T12:03:44.998Z</time></trkpt><trkpt lat="42.890991733927464" lon="-2.156264898988024"><ele>512.0</ele><time>2026-03-22T12:03:45.998Z</time></trkpt><trkpt lat="42.89097237835647" lon="-2.1559443453101226"><ele>512.0</ele><time>2026-03-22T12:03:46.998Z</time></trkpt><trkpt lat="42.890953656518235" lon="-2.155617626039955"><ele>511.0</ele><time>2026-03-22T12:03:47.998Z</time></trkpt><trkpt lat="42.89093951921172" lon="-2.155287566122634"><ele>510.0</ele><time>2026-03-22T12:03:48.998Z</time></trkpt><trkpt lat="42.89093038348301" lon="-2.154954434481468"><ele>511.5</ele><time>2026-03-22T12:03:49.998Z</time></trkpt><trkpt lat="42.89092962830504" lon="-2.1546281559113263"><ele>513.0</ele><time>2026-03-22T12:03:50.998Z</time></trkpt><trkpt lat="42.89092904282475" lon="-2.154304863467127"><ele>514.0</ele><time>2026-03-22T12:03:51.998Z</time></trkpt><trkpt lat="42.89092813254559" lon="-2.153979650021466"><ele>515.0</ele><time>2026-03-22T12:03:52.998Z</time></trkpt><trkpt lat="42.890927528338864" lon="-2.153661425266299"><ele>515.0</ele><time>2026-03-22T12:03:53.998Z</time></trkpt><trkpt lat="42.89092677643602" lon="-2.15335363781438"><ele>515.0</ele><time>2026-03-22T12:03:54.998Z</time></trkpt><trkpt lat="42.8909325826184" lon="-2.1530547657031303"><ele>515.0</ele><time>2026-03-22T12:03:55.998Z</time></trkpt><trkpt lat="42.890959989247484" lon="-2.152765600793879"><ele>514.6666666666666</ele><time>2026-03-22T12:03:56.998Z</time></trkpt><trkpt lat="42.89101672572526" lon="-2.152488109578588"><ele>514.3333333333334</ele><time>2026-03-22T12:03:57.998Z</time></trkpt><trkpt lat="42.89110082375605" lon="-2.1522229441249388"><ele>514.0</ele><time>2026-03-22T12:03:58.998Z</time></trkpt><trkpt lat="42.8912126119462" lon="-2.1519740230142785"><ele>513.6666666666667</ele><time>2026-03-22T12:03:59.998Z</time></trkpt><trkpt lat="42.89130446500381" lon="-2.1517102581129803"><ele>513.3333333333334</ele><time>2026-03-22T12:04:01Z</time></trkpt><trkpt lat="42.8914108046182" lon="-2.1514583257289694"><ele>513.0</ele><time>2026-03-22T12:04:02Z</time></trkpt><trkpt lat="42.89147972337593" lon="-2.1511686607932625"><ele>514.0</ele><time>2026-03-22T12:04:03Z</time></trkpt><trkpt lat="42.89149066168952" lon="-2.150861609828856"><ele>515.0</ele><time>2026-03-22T12:04:04Z</time></trkpt><trkpt lat="42.89148809523254" lon="-2.150541211255919"><ele>515.0</ele><time>2026-03-22T12:04:05Z</time></trkpt><trkpt lat="42.891483488132096" lon="-2.1502116462035237"><ele>515.0</ele><time>2026-03-22T12:04:06Z</time></trkpt><trkpt lat="42.89147092549172" lon="-2.149876940704503"><ele>514.5</ele><time>2026-03-22T12:04:07Z</time></trkpt><trkpt lat="42.89147304793334" lon="-2.149535342696428"><ele>514.0</ele><time>2026-03-22T12:04:08Z</time></trkpt><trkpt lat="42.8914677551433" lon="-2.149189747841509"><ele>514.0</ele><time>2026-03-22T12:04:09Z</time></trkpt><trkpt lat="42.89145653151964" lon="-2.148848725534537"><ele>514.0</ele><time>2026-03-22T12:04:10Z</time></trkpt><trkpt lat="42.891446854017744" lon="-2.148521692435402"><ele>514.0</ele><time>2026-03-22T12:04:11Z</time></trkpt><trkpt lat="42.891436302971194" lon="-2.1482123930745494"><ele>514.0</ele><time>2026-03-22T12:04:12Z</time></trkpt><trkpt lat="42.89141452067762" lon="-2.1479204050862433"><ele>514.0</ele><time>2026-03-22T12:04:13Z</time></trkpt><trkpt lat="42.89135793805488" lon="-2.147646010479267"><ele>515.0</ele><time>2026-03-22T12:04:14Z</time></trkpt><trkpt lat="42.89126936410471" lon="-2.1473900759768028"><ele>516.0</ele><time>2026-03-22T12:04:15Z</time></trkpt><trkpt lat="42.89115534702379" lon="-2.1471525657279797"><ele>517.0</ele><time>2026-03-22T12:04:16Z</time></trkpt><trkpt lat="42.891024319925855" lon="-2.1469305770723164"><ele>518.0</ele><time>2026-03-22T12:04:17Z</time></trkpt><trkpt lat="42.89089027999042" lon="-2.1467027954507256"><ele>519.0</ele><time>2026-03-22T12:04:18Z</time></trkpt><trkpt lat="42.89075875299203" lon="-2.1464792579216523"><ele>520.0</ele><time>2026-03-22T12:04:19Z</time></trkpt><trkpt lat="42.89063762736291" lon="-2.1462642262398695"><ele>521.6666666666667</ele><time>2026-03-22T12:04:20Z</time></trkpt><trkpt lat="42.89052175407528" lon="-2.1460526388574164"><ele>523.3333333333334</ele><time>2026-03-22T12:04:21.02Z</time></trkpt><trkpt lat="42.89041608772603" lon="-2.1458392328043505"><ele>525.0</ele><time>2026-03-22T12:04:22.022Z</time></trkpt><trkpt lat="42.89032200088693" lon="-2.1456285148050163"><ele>525.3333333333334</ele><time>2026-03-22T12:04:23Z</time></trkpt><trkpt lat="42.89038127143789" lon="-2.145425539690436"><ele>525.6666666666667</ele><time>2026-03-22T12:04:24Z</time></trkpt><trkpt lat="42.890396950458786" lon="-2.14519731013889"><ele>526.0</ele><time>2026-03-22T12:04:25Z</time></trkpt><trkpt lat="42.89044508027202" lon="-2.1449671442727607"><ele>527.0</ele><time>2026-03-22T12:04:26Z</time></trkpt><trkpt lat="42.8904951418732" lon="-2.1447254826867437"><ele>528.0</ele><time>2026-03-22T12:04:27Z</time></trkpt><trkpt lat="42.890543324169926" lon="-2.144479605549081"><ele>529.0</ele><time>2026-03-22T12:04:28Z</time></trkpt><trkpt lat="42.89058642463487" lon="-2.1442116227502606"><ele>528.6666666666667</ele><time>2026-03-22T12:04:29Z</time></trkpt><trkpt lat="42.89061322315891" lon="-2.1439269159619507"><ele>528.3333333333334</ele><time>2026-03-22T12:04:30Z</time></trkpt><trkpt lat="42.89061772388992" lon="-2.1436304373870514"><ele>528.0</ele><time>2026-03-22T12:04:31Z</time></trkpt><trkpt lat="42.89060848605922" lon="-2.1433168844732093"><ele>526.0</ele><time>2026-03-22T12:04:32Z</time></trkpt><trkpt lat="42.89061071145289" lon="-2.1429829764357073"><ele>524.0</ele><time>2026-03-22T12:04:33Z</time></trkpt><trkpt lat="42.89060023017972" lon="-2.1426293627804935"><ele>524.5</ele><time>2026-03-22T12:04:34Z</time></trkpt><trkpt lat="42.890573202510836" lon="-2.1422630269140295"><ele>525.0</ele><time>2026-03-22T12:04:35Z</time></trkpt><trkpt lat="42.89058267933213" lon="-2.1418862697849255"><ele>527.5</ele><time>2026-03-22T12:04:36Z</time></trkpt><trkpt lat="42.89057387155015" lon="-2.1415277542410864"><ele>530.0</ele><time>2026-03-22T12:04:37Z</time></trkpt><trkpt lat="42.890562690021795" lon="-2.141193255814992"><ele>530.0</ele><time>2026-03-22T12:04:38Z</time></trkpt><trkpt lat="42.89055108716543" lon="-2.1408794885125584"><ele>530.0</ele><time>2026-03-22T12:04:39Z</time></trkpt><trkpt lat="42.89054044036614" lon="-2.1405856388392572"><ele>530.0</ele><time>2026-03-22T12:04:39.999Z</time></trkpt><trkpt lat="42.89053414490645" lon="-2.140309925174668"><ele>530.3333333333333</ele><time>2026-03-22T12:04:40.999Z</time></trkpt><trkpt lat="42.89052997086178" lon="-2.14003869391386"><ele>530.6666666666666</ele><time>2026-03-22T12:04:41.999Z</time></trkpt><trkpt lat="42.89052464697089" lon="-2.1397796459812497"><ele>531.0</ele><time>2026-03-22T12:04:42.999Z</time></trkpt><trkpt lat="42.89051782257751" lon="-2.1395258990546036"><ele>529.0</ele><time>2026-03-22T12:04:43.999Z</time></trkpt><trkpt lat="42.89050528096522" lon="-2.1392743736073205"><ele>527.0</ele><time>2026-03-22T12:04:44.999Z</time></trkpt><trkpt lat="42.89050112928524" lon="-2.139017895921001"><ele>525.0</ele><time>2026-03-22T12:04:45.999Z</time></trkpt><trkpt lat="42.890496187206494" lon="-2.1387586131487537"><ele>524.6666666666666</ele><time>2026-03-22T12:04:46.999Z</time></trkpt><trkpt lat="42.8904907695145" lon="-2.1385069411114874"><ele>524.3333333333333</ele><time>2026-03-22T12:04:47.999Z</time></trkpt><trkpt lat="42.89048273361311" lon="-2.138259785077208"><ele>524.0</ele><time>2026-03-22T12:04:48.999Z</time></trkpt><trkpt lat="42.8904737315106" lon="-2.1380188066597547"><ele>524.6666666666666</ele><time>2026-03-22T12:04:49.999Z</time></trkpt><trkpt lat="42.890466909610176" lon="-2.1377966928051366"><ele>525.3333333333334</ele><time>2026-03-22T12:04:50.999Z</time></trkpt><trkpt lat="42.890463784108334" lon="-2.137596622568723"><ele>526.0</ele><time>2026-03-22T12:04:51.999Z</time></trkpt><trkpt lat="42.89045883276688" lon="-2.137402565411454"><ele>526.25</ele><time>2026-03-22T12:04:52.999Z</time></trkpt><trkpt lat="42.89045430594745" lon="-2.1372140961521047"><ele>526.5</ele><time>2026-03-22T12:04:53.999Z</time></trkpt><trkpt lat="42.89044430057966" lon="-2.1370292469406595"><ele>526.75</ele><time>2026-03-22T12:04:54.999Z</time></trkpt><trkpt lat="42.89044002617076" lon="-2.1368560588821044"><ele>527.0</ele><time>2026-03-22T12:04:55.999Z</time></trkpt><trkpt lat="42.8904348739807" lon="-2.1367097485433817"><ele>527.0</ele><time>2026-03-22T12:04:56.999Z</time></trkpt><trkpt lat="42.890431511731926" lon="-2.1365678108624495"><ele>527.0</ele><time>2026-03-22T12:04:57.999Z</time></trkpt><trkpt lat="42.89042984143728" lon="-2.136434601094784"><ele>527.0</ele><time>2026-03-22T12:04:58.999Z</time></trkpt><trkpt lat="42.89042864117137" lon="-2.136322091860748"><ele>527.0</ele><time>2026-03-22T12:04:59.999Z</time></trkpt><trkpt lat="42.89042251368597" lon="-2.1362150064111622"><ele>527.0</ele><time>2026-03-22T12:05:00.999Z</time></trkpt><trkpt lat="42.89041536625736" lon="-2.1360983342446387"><ele>527.0</ele><time>2026-03-22T12:05:01.999Z</time></trkpt><trkpt lat="42.89041456336492" lon="-2.1359590125365706"><ele>526.75</ele><time>2026-03-22T12:05:02.999Z</time></trkpt><trkpt lat="42.89040789656534" lon="-2.135786542333789"><ele>526.5</ele><time>2026-03-22T12:05:03.999Z</time></trkpt><trkpt lat="42.890400265479414" lon="-2.1356191323430553"><ele>526.25</ele><time>2026-03-22T12:05:04.999Z</time></trkpt><trkpt lat="42.890390597356" lon="-2.1354667658503"><ele>526.0</ele><time>2026-03-22T12:05:05.999Z</time></trkpt><trkpt lat="42.89038473976497" lon="-2.1353147583205767"><ele>526.0</ele><time>2026-03-22T12:05:06.999Z</time></trkpt><trkpt lat="42.89038425724996" lon="-2.135142987760938"><ele>526.0</ele><time>2026-03-22T12:05:07.999Z</time></trkpt><trkpt lat="42.89038609709109" lon="-2.1349456478789315"><ele>526.0</ele><time>2026-03-22T12:05:08.999Z</time></trkpt><trkpt lat="42.89038034825732" lon="-2.134720596232806"><ele>526.0</ele><time>2026-03-22T12:05:09.999Z</time></trkpt><trkpt lat="42.89037140488066" lon="-2.1344632716817595"><ele>526.0</ele><time>2026-03-22T12:05:10.999Z</time></trkpt><trkpt lat="42.890359880684265" lon="-2.134179208603268"><ele>526.0</ele><time>2026-03-22T12:05:11.999Z</time></trkpt><trkpt lat="42.890353250258514" lon="-2.1338754244725195"><ele>526.0</ele><time>2026-03-22T12:05:12.999Z</time></trkpt><trkpt lat="42.890348382923484" lon="-2.1335726312758503"><ele>524.5</ele><time>2026-03-22T12:05:13.999Z</time></trkpt><trkpt lat="42.89034162514362" lon="-2.133263102158647"><ele>523.0</ele><time>2026-03-22T12:05:14.999Z</time></trkpt><trkpt lat="42.890334447362235" lon="-2.1329468094881845"><ele>523.0</ele><time>2026-03-22T12:05:15.999Z</time></trkpt><trkpt lat="42.890329071331195" lon="-2.132624196382847"><ele>523.0</ele><time>2026-03-22T12:05:16.999Z</time></trkpt><trkpt lat="42.89032175101075" lon="-2.1322993516035353"><ele>523.0</ele><time>2026-03-22T12:05:17.999Z</time></trkpt><trkpt lat="42.89031228802667" lon="-2.13197282640767"><ele>523.0</ele><time>2026-03-22T12:05:18.999Z</time></trkpt><trkpt lat="42.89030461240729" lon="-2.1316471700318145"><ele>521.0</ele><time>2026-03-22T12:05:19.999Z</time></trkpt><trkpt lat="42.89029586416862" lon="-2.131320529440394"><ele>519.0</ele><time>2026-03-22T12:05:20.999Z</time></trkpt><trkpt lat="42.890289534064834" lon="-2.1309896568085023"><ele>518.5</ele><time>2026-03-22T12:05:21.999Z</time></trkpt><trkpt lat="42.89028254458059" lon="-2.1306571151036406"><ele>518.0</ele><time>2026-03-22T12:05:22.999Z</time></trkpt><trkpt lat="42.89027619222571" lon="-2.1303196218432405"><ele>518.0</ele><time>2026-03-22T12:05:23.999Z</time></trkpt><trkpt lat="42.89026932938902" lon="-2.129975011749312"><ele>518.0</ele><time>2026-03-22T12:05:24.999Z</time></trkpt><trkpt lat="42.89026107942914" lon="-2.12962783448337"><ele>516.5</ele><time>2026-03-22T12:05:25.999Z</time></trkpt><trkpt lat="42.8902534797707" lon="-2.1292804229957314"><ele>515.0</ele><time>2026-03-22T12:05:26.999Z</time></trkpt><trkpt lat="42.89024651778239" lon="-2.128932281494133"><ele>515.0</ele><time>2026-03-22T12:05:27.999Z</time></trkpt><trkpt lat="42.89023999983985" lon="-2.128585086200923"><ele>515.0</ele><time>2026-03-22T12:05:28.999Z</time></trkpt><trkpt lat="42.89023356317062" lon="-2.128236656441622"><ele>513.5</ele><time>2026-03-22T12:05:29.999Z</time></trkpt><trkpt lat="42.89022609813953" lon="-2.1278812594634546"><ele>512.0</ele><time>2026-03-22T12:05:30.999Z</time></trkpt><trkpt lat="42.89021413045458" lon="-2.1275152699660613"><ele>510.0</ele><time>2026-03-22T12:05:31.999Z</time></trkpt><trkpt lat="42.89020256277791" lon="-2.127146547442719"><ele>508.0</ele><time>2026-03-22T12:05:32.999Z</time></trkpt><trkpt lat="42.89019322209914" lon="-2.126778301078486"><ele>508.0</ele><time>2026-03-22T12:05:33.999Z</time></trkpt><trkpt lat="42.89018478623285" lon="-2.126409617616442"><ele>508.0</ele><time>2026-03-22T12:05:34.999Z</time></trkpt><trkpt lat="42.89017694872415" lon="-2.126041505847134"><ele>507.5</ele><time>2026-03-22T12:05:35.999Z</time></trkpt><trkpt lat="42.89017104511667" lon="-2.125681422516472"><ele>507.0</ele><time>2026-03-22T12:05:36.999Z</time></trkpt><trkpt lat="42.890167305311024" lon="-2.1253344736837394"><ele>507.0</ele><time>2026-03-22T12:05:37.999Z</time></trkpt><trkpt lat="42.89016610699768" lon="-2.1250032299710573"><ele>507.0</ele><time>2026-03-22T12:05:38.999Z</time></trkpt><trkpt lat="42.89017095072189" lon="-2.124681711464213"><ele>507.0</ele><time>2026-03-22T12:05:39.999Z</time></trkpt><trkpt lat="42.890164600349216" lon="-2.1243490083101197"><ele>507.0</ele><time>2026-03-22T12:05:40.999Z</time></trkpt><trkpt lat="42.89020464383571" lon="-2.1240102507999414"><ele>507.0</ele><time>2026-03-22T12:05:41.999Z</time></trkpt><trkpt lat="42.89026148236152" lon="-2.1236650010158686"><ele>507.0</ele><time>2026-03-22T12:05:42.999Z</time></trkpt><trkpt lat="42.89033274145911" lon="-2.1233190611661934"><ele>510.0</ele><time>2026-03-22T12:05:43.998Z</time></trkpt><trkpt lat="42.89041545991784" lon="-2.122979686738863"><ele>513.0</ele><time>2026-03-22T12:05:44.998Z</time></trkpt><trkpt lat="42.89049544941884" lon="-2.1226728881666785"><ele>514.0</ele><time>2026-03-22T12:05:45.998Z</time></trkpt><trkpt lat="42.89057194245675" lon="-2.1223817911343774"><ele>515.0</ele><time>2026-03-22T12:05:46.998Z</time></trkpt><trkpt lat="42.89064450762131" lon="-2.1221049580053686"><ele>516.0</ele><time>2026-03-22T12:05:47.998Z</time></trkpt><trkpt lat="42.890713266179496" lon="-2.1218420099720565"><ele>516.0</ele><time>2026-03-22T12:05:48.998Z</time></trkpt><trkpt lat="42.89078132451588" lon="-2.121583577104872"><ele>516.0</ele><time>2026-03-22T12:05:49.998Z</time></trkpt><trkpt lat="42.890849070624405" lon="-2.1213271639236573"><ele>516.0</ele><time>2026-03-22T12:05:50.998Z</time></trkpt><trkpt lat="42.890915889961455" lon="-2.121075089115617"><ele>515.6666666666666</ele><time>2026-03-22T12:05:51.998Z</time></trkpt><trkpt lat="42.890999044471286" lon="-2.1208273918846503"><ele>515.3333333333333</ele><time>2026-03-22T12:05:52.998Z</time></trkpt><trkpt lat="42.891067105038346" lon="-2.1205693314192686"><ele>515.0</ele><time>2026-03-22T12:05:53.998Z</time></trkpt><trkpt lat="42.89113345942801" lon="-2.120314519701329"><ele>515.0</ele><time>2026-03-22T12:05:54.998Z</time></trkpt><trkpt lat="42.89120083171568" lon="-2.1200623033291426"><ele>515.0</ele><time>2026-03-22T12:05:55.998Z</time></trkpt><trkpt lat="42.89125285450933" lon="-2.119802903692313"><ele>515.0</ele><time>2026-03-22T12:05:56.998Z</time></trkpt><trkpt lat="42.89132004160491" lon="-2.119543519618051"><ele>514.6666666666666</ele><time>2026-03-22T12:05:57.998Z</time></trkpt><trkpt lat="42.89138893144141" lon="-2.119273432456885"><ele>514.3333333333334</ele><time>2026-03-22T12:05:58.998Z</time></trkpt><trkpt lat="42.891448646521845" lon="-2.118993098071261"><ele>514.0</ele><time>2026-03-22T12:05:59.998Z</time></trkpt><trkpt lat="42.89149634520676" lon="-2.1186956869873668"><ele>514.0</ele><time>2026-03-22T12:06:00.998Z</time></trkpt><trkpt lat="42.89153434888308" lon="-2.1183852848005813"><ele>514.0</ele><time>2026-03-22T12:06:01.998Z</time></trkpt><trkpt lat="42.89156853482213" lon="-2.1180664433449756"><ele>513.0</ele><time>2026-03-22T12:06:02.998Z</time></trkpt><trkpt lat="42.891603318098376" lon="-2.117745678490523"><ele>512.0</ele><time>2026-03-22T12:06:03.998Z</time></trkpt><trkpt lat="42.891638070670915" lon="-2.1174223557301244"><ele>511.5</ele><time>2026-03-22T12:06:04.998Z</time></trkpt><trkpt lat="42.891687476617825" lon="-2.117097885323739"><ele>511.0</ele><time>2026-03-22T12:06:05.998Z</time></trkpt><trkpt lat="42.89171222392254" lon="-2.116763807337617"><ele>510.5</ele><time>2026-03-22T12:06:07Z</time></trkpt><trkpt lat="42.89172671957024" lon="-2.1164243956872086"><ele>510.0</ele><time>2026-03-22T12:06:08Z</time></trkpt><trkpt lat="42.891720759203125" lon="-2.1160854397180016"><ele>510.0</ele><time>2026-03-22T12:06:09Z</time></trkpt><trkpt lat="42.89172398797889" lon="-2.1157618545729444"><ele>510.0</ele><time>2026-03-22T12:06:10Z</time></trkpt><trkpt lat="42.891718832241914" lon="-2.1154606272938157"><ele>510.0</ele><time>2026-03-22T12:06:11Z</time></trkpt><trkpt lat="42.891712420218596" lon="-2.1151817814414757"><ele>510.0</ele><time>2026-03-22T12:06:12Z</time></trkpt><trkpt lat="42.891708076629115" lon="-2.1149388396942848"><ele>510.0</ele><time>2026-03-22T12:06:13Z</time></trkpt><trkpt lat="42.891704818033524" lon="-2.114726975594199"><ele>510.0</ele><time>2026-03-22T12:06:14Z</time></trkpt><trkpt lat="42.891720283805135" lon="-2.1145509965933194"><ele>510.0</ele><time>2026-03-22T12:06:15Z</time></trkpt><trkpt lat="42.89169687959789" lon="-2.1144135335511645"><ele>510.0</ele><time>2026-03-22T12:06:16Z</time></trkpt><trkpt lat="42.89166232384275" lon="-2.1142928274445887"><ele>510.0</ele><time>2026-03-22T12:06:17Z</time></trkpt><trkpt lat="42.891610323989525" lon="-2.1141828091313744"><ele>510.0</ele><time>2026-03-22T12:06:18Z</time></trkpt><trkpt lat="42.89153567030676" lon="-2.1140723523606173"><ele>510.0</ele><time>2026-03-22T12:06:19Z</time></trkpt><trkpt lat="42.8914404608884" lon="-2.1139754386487404"><ele>510.0</ele><time>2026-03-22T12:06:20Z</time></trkpt><trkpt lat="42.89132276053681" lon="-2.1139060552536835"><ele>510.0</ele><time>2026-03-22T12:06:21Z</time></trkpt><trkpt lat="42.891187514638005" lon="-2.1138604037595705"><ele>510.0</ele><time>2026-03-22T12:06:22Z</time></trkpt><trkpt lat="42.89106652912405" lon="-2.1138348555566147"><ele>510.0</ele><time>2026-03-22T12:06:23Z</time></trkpt><trkpt lat="42.89097522425043" lon="-2.113822405848203"><ele>510.0</ele><time>2026-03-22T12:06:24Z</time></trkpt><trkpt lat="42.89090637390216" lon="-2.113810403089861"><ele>510.0</ele><time>2026-03-22T12:06:25Z</time></trkpt><trkpt lat="42.89083527068036" lon="-2.1137911926534363"><ele>510.0</ele><time>2026-03-22T12:06:27Z</time></trkpt><trkpt lat="42.89076490305967" lon="-2.113770784525103"><ele>510.0</ele><time>2026-03-22T12:06:33Z</time></trkpt><trkpt lat="42.890759824405414" lon="-2.1136289059422895"><ele>510.0</ele><time>2026-03-22T12:06:34Z</time></trkpt><trkpt lat="42.890776444623974" lon="-2.1134952070052915"><ele>510.0</ele><time>2026-03-22T12:06:35Z</time></trkpt><trkpt lat="42.890794154043014" lon="-2.1133319693986645"><ele>510.0</ele><time>2026-03-22T12:06:36Z</time></trkpt><trkpt lat="42.890816054533005" lon="-2.1131347278446126"><ele>510.0</ele><time>2026-03-22T12:06:37Z</time></trkpt><trkpt lat="42.8908258708738" lon="-2.1129017283081017"><ele>510.0</ele><time>2026-03-22T12:06:38Z</time></trkpt><trkpt lat="42.89085380270878" lon="-2.1126672071979624"><ele>510.0</ele><time>2026-03-22T12:06:39Z</time></trkpt><trkpt lat="42.890884927442464" lon="-2.1124098284413306"><ele>510.0</ele><time>2026-03-22T12:06:40Z</time></trkpt><trkpt lat="42.8909183551781" lon="-2.1121334055669734"><ele>510.0</ele><time>2026-03-22T12:06:41Z</time></trkpt><trkpt lat="42.89095435386709" lon="-2.111839055342656"><ele>509.0</ele><time>2026-03-22T12:06:42Z</time></trkpt><trkpt lat="42.89099318610684" lon="-2.1115278365165553"><ele>508.0</ele><time>2026-03-22T12:06:43Z</time></trkpt><trkpt lat="42.891031828446366" lon="-2.1112181395706227"><ele>508.0</ele><time>2026-03-22T12:06:44Z</time></trkpt><trkpt lat="42.89107139141054" lon="-2.11090106437313"><ele>508.0</ele><time>2026-03-22T12:06:45Z</time></trkpt><trkpt lat="42.89111195087451" lon="-2.110570289434728"><ele>508.0</ele><time>2026-03-22T12:06:46Z</time></trkpt><trkpt lat="42.89115255107573" lon="-2.1102326818203996"><ele>508.0</ele><time>2026-03-22T12:06:47Z</time></trkpt><trkpt lat="42.89119222973721" lon="-2.1099041440967388"><ele>509.0</ele><time>2026-03-22T12:06:48Z</time></trkpt><trkpt lat="42.8912295625721" lon="-2.1095950297439194"><ele>510.0</ele><time>2026-03-22T12:06:48.999Z</time></trkpt><trkpt lat="42.891265930573326" lon="-2.10929384012218"><ele>511.33333333333337</ele><time>2026-03-22T12:06:49.999Z</time></trkpt><trkpt lat="42.89130196346028" lon="-2.1089974366498483"><ele>512.6666666666667</ele><time>2026-03-22T12:06:50.999Z</time></trkpt><trkpt lat="42.89133759440075" lon="-2.108704339553651"><ele>514.0</ele><time>2026-03-22T12:06:51.999Z</time></trkpt><trkpt lat="42.891370945636346" lon="-2.1084299950969805"><ele>515.0</ele><time>2026-03-22T12:06:52.999Z</time></trkpt><trkpt lat="42.891400465032746" lon="-2.10818717102367"><ele>516.0</ele><time>2026-03-22T12:06:53.999Z</time></trkpt><trkpt lat="42.89142563970783" lon="-2.1079800694400865"><ele>517.0</ele><time>2026-03-22T12:06:54.999Z</time></trkpt><trkpt lat="42.89144826775084" lon="-2.107793915472497"><ele>517.0</ele><time>2026-03-22T12:06:55.999Z</time></trkpt><trkpt lat="42.89148317035868" lon="-2.1076315390758986"><ele>517.0</ele><time>2026-03-22T12:06:56.999Z</time></trkpt><trkpt lat="42.891498417916644" lon="-2.107479154538527"><ele>517.0</ele><time>2026-03-22T12:06:57.999Z</time></trkpt><trkpt lat="42.89150994659249" lon="-2.10736644038326"><ele>517.0</ele><time>2026-03-22T12:06:58.999Z</time></trkpt><trkpt lat="42.891513861320846" lon="-2.10724416757225"><ele>517.0</ele><time>2026-03-22T12:07:00.999Z</time></trkpt><trkpt lat="42.89152680952463" lon="-2.1071407326335323"><ele>516.8000000000001</ele><time>2026-03-22T12:08:41Z</time></trkpt><trkpt lat="42.891537953943846" lon="-2.107046281503116"><ele>516.6</ele><time>2026-03-22T12:08:42Z</time></trkpt><trkpt lat="42.891553858783794" lon="-2.1069114848644848"><ele>516.4000000000001</ele><time>2026-03-22T12:08:43Z</time></trkpt><trkpt lat="42.8915721991351" lon="-2.1067560467834507"><ele>516.2</ele><time>2026-03-22T12:08:44Z</time></trkpt><trkpt lat="42.89159021851361" lon="-2.106603818248648"><ele>516.0</ele><time>2026-03-22T12:08:45Z</time></trkpt><trkpt lat="42.89161040639693" lon="-2.1064333735173415"><ele>516.0</ele><time>2026-03-22T12:08:46Z</time></trkpt><trkpt lat="42.89163111110974" lon="-2.1062585652211334"><ele>516.0</ele><time>2026-03-22T12:08:47Z</time></trkpt><trkpt lat="42.89165063742362" lon="-2.1060937060731377"><ele>516.0</ele><time>2026-03-22T12:08:48Z</time></trkpt><trkpt lat="42.89166996969633" lon="-2.1059304851866236"><ele>516.0</ele><time>2026-03-22T12:08:49Z</time></trkpt><trkpt lat="42.891690496577404" lon="-2.1057571783120976"><ele>515.75</ele><time>2026-03-22T12:08:50Z</time></trkpt><trkpt lat="42.8917116796939" lon="-2.105578330896109"><ele>515.5</ele><time>2026-03-22T12:08:51Z</time></trkpt><trkpt lat="42.89173225892192" lon="-2.1054054238284072"><ele>515.25</ele><time>2026-03-22T12:08:52Z</time></trkpt><trkpt lat="42.89175248751256" lon="-2.1052390091419104"><ele>515.0</ele><time>2026-03-22T12:08:53Z</time></trkpt><trkpt lat="42.89177504720979" lon="-2.1050534170821313"><ele>513.5</ele><time>2026-03-22T12:08:54Z</time></trkpt><trkpt lat="42.89179678402624" lon="-2.1048745946341088"><ele>512.0</ele><time>2026-03-22T12:08:55Z</time></trkpt><trkpt lat="42.89183198877144" lon="-2.1046950595170064"><ele>510.5</ele><time>2026-03-22T12:08:55.999Z</time></trkpt><trkpt lat="42.89184811557224" lon="-2.1045068011271337"><ele>509.0</ele><time>2026-03-22T12:08:56.999Z</time></trkpt><trkpt lat="42.89185836508233" lon="-2.1043304719113283"><ele>509.0</ele><time>2026-03-22T12:08:57.999Z</time></trkpt><trkpt lat="42.891893894240674" lon="-2.1041697241302737"><ele>509.0</ele><time>2026-03-22T12:08:58.999Z</time></trkpt><trkpt lat="42.89191521601299" lon="-2.104020430250491"><ele>509.0</ele><time>2026-03-22T12:08:59.999Z</time></trkpt><trkpt lat="42.89191868205423" lon="-2.1038862048486213"><ele>509.0</ele><time>2026-03-22T12:09:00.999Z</time></trkpt><trkpt lat="42.89194646387327" lon="-2.10375568046405"><ele>509.0</ele><time>2026-03-22T12:09:01.999Z</time></trkpt><trkpt lat="42.89197113466654" lon="-2.1035954175951446"><ele>510.0</ele><time>2026-03-22T12:09:02.999Z</time></trkpt><trkpt lat="42.89198066659539" lon="-2.103409953377593"><ele>511.0</ele><time>2026-03-22T12:09:03.999Z</time></trkpt><trkpt lat="42.892004593937486" lon="-2.103231862088853"><ele>512.0</ele><time>2026-03-22T12:09:04.999Z</time></trkpt><trkpt lat="42.89203206713204" lon="-2.103062488771722"><ele>513.0</ele><time>2026-03-22T12:09:05.999Z</time></trkpt><trkpt lat="42.89206622621549" lon="-2.1029043352884598"><ele>514.1999999999999</ele><time>2026-03-22T12:09:06.999Z</time></trkpt><trkpt lat="42.89209403525956" lon="-2.102757927950462"><ele>515.4</ele><time>2026-03-22T12:09:07.999Z</time></trkpt><trkpt lat="42.892123159690584" lon="-2.102622818341539"><ele>516.5999999999999</ele><time>2026-03-22T12:09:08.999Z</time></trkpt><trkpt lat="42.89215166717138" lon="-2.102493145883683"><ele>517.8</ele><time>2026-03-22T12:09:09.999Z</time></trkpt><trkpt lat="42.892185459376115" lon="-2.1023709791047196"><ele>519.0</ele><time>2026-03-22T12:09:10.999Z</time></trkpt><trkpt lat="42.8922212023005" lon="-2.102249411012269"><ele>519.4</ele><time>2026-03-22T12:09:11.999Z</time></trkpt><trkpt lat="42.89225152835192" lon="-2.1021283375258837"><ele>519.8</ele><time>2026-03-22T12:09:12.999Z</time></trkpt><trkpt lat="42.89228408987904" lon="-2.102005422860957"><ele>520.2</ele><time>2026-03-22T12:09:13.999Z</time></trkpt><trkpt lat="42.89231473777093" lon="-2.101881463938783"><ele>520.6</ele><time>2026-03-22T12:09:14.999Z</time></trkpt><trkpt lat="42.89234520659841" lon="-2.101753129705436"><ele>521.0</ele><time>2026-03-22T12:09:15.999Z</time></trkpt><trkpt lat="42.89236486648111" lon="-2.1016269639918526"><ele>521.8</ele><time>2026-03-22T12:09:16.999Z</time></trkpt><trkpt lat="42.892384223065285" lon="-2.101493597220752"><ele>522.6</ele><time>2026-03-22T12:09:17.999Z</time></trkpt><trkpt lat="42.89241601069532" lon="-2.1013540242873274"><ele>523.4</ele><time>2026-03-22T12:09:18.999Z</time></trkpt><trkpt lat="42.8924503175091" lon="-2.101206460703332"><ele>524.2</ele><time>2026-03-22T12:09:19.999Z</time></trkpt><trkpt lat="42.892456798191425" lon="-2.101050251841709"><ele>525.0</ele><time>2026-03-22T12:09:20.999Z</time></trkpt><trkpt lat="42.89247487949512" lon="-2.100888331880098"><ele>526.5</ele><time>2026-03-22T12:09:21.999Z</time></trkpt><trkpt lat="42.89249501415368" lon="-2.1007156494922663"><ele>528.0</ele><time>2026-03-22T12:09:22.999Z</time></trkpt><trkpt lat="42.89251730315338" lon="-2.1005376957932445"><ele>529.5</ele><time>2026-03-22T12:09:23.999Z</time></trkpt><trkpt lat="42.8925542319262" lon="-2.100378750463043"><ele>531.0</ele><time>2026-03-22T12:09:24.999Z</time></trkpt><trkpt lat="42.89256914956059" lon="-2.1002345003152874"><ele>531.0</ele><time>2026-03-22T12:09:25.999Z</time></trkpt><trkpt lat="42.89258615944631" lon="-2.100100506911101"><ele>531.0</ele><time>2026-03-22T12:09:26.999Z</time></trkpt><trkpt lat="42.89258912075921" lon="-2.0999703148059434"><ele>531.0</ele><time>2026-03-22T12:09:27.999Z</time></trkpt><trkpt lat="42.89260371903984" lon="-2.099856710977519"><ele>531.0</ele><time>2026-03-22T12:09:28.999Z</time></trkpt><trkpt lat="42.892619219284214" lon="-2.099737766316974"><ele>531.0</ele><time>2026-03-22T12:09:29.999Z</time></trkpt><trkpt lat="42.892636553271196" lon="-2.0995932412950657"><ele>525.75</ele><time>2026-03-22T12:09:30.999Z</time></trkpt><trkpt lat="42.89265433876367" lon="-2.0994259609575256"><ele>520.5</ele><time>2026-03-22T12:09:31.999Z</time></trkpt><trkpt lat="42.89268051073312" lon="-2.099235694049857"><ele>515.25</ele><time>2026-03-22T12:09:32.999Z</time></trkpt><trkpt lat="42.89267111835156" lon="-2.0990199770432527"><ele>510.0</ele><time>2026-03-22T12:09:33.999Z</time></trkpt><trkpt lat="42.89263649158585" lon="-2.098770721857273"><ele>513.3333333333334</ele><time>2026-03-22T12:09:34.999Z</time></trkpt><trkpt lat="42.89257612434872" lon="-2.0985049307707824"><ele>516.6666666666667</ele><time>2026-03-22T12:09:35.999Z</time></trkpt><trkpt lat="42.89253433432094" lon="-2.0982408234195447"><ele>520.0</ele><time>2026-03-22T12:09:36.999Z</time></trkpt><trkpt lat="42.89247047449428" lon="-2.097965757316537"><ele>520.0</ele><time>2026-03-22T12:09:37.999Z</time></trkpt><trkpt lat="42.89241966187401" lon="-2.097701273108747"><ele>520.0</ele><time>2026-03-22T12:09:38.999Z</time></trkpt><trkpt lat="42.89236518245451" lon="-2.09745275999746"><ele>520.0</ele><time>2026-03-22T12:09:39.999Z</time></trkpt><trkpt lat="42.89236004831062" lon="-2.097227074652718"><ele>520.0</ele><time>2026-03-22T12:09:40.999Z</time></trkpt><trkpt lat="42.892389274741504" lon="-2.097024717875781"><ele>520.0</ele><time>2026-03-22T12:09:41.999Z</time></trkpt><trkpt lat="42.89245411544807" lon="-2.096881454393154"><ele>520.0</ele><time>2026-03-22T12:09:42.999Z</time></trkpt><trkpt lat="42.89251185779082" lon="-2.0967612987183246"><ele>520.0</ele><time>2026-03-22T12:09:43.999Z</time></trkpt><trkpt lat="42.89257846949142" lon="-2.0966569015182808"><ele>519.5</ele><time>2026-03-22T12:09:44.999Z</time></trkpt><trkpt lat="42.89266090860171" lon="-2.09655872745509"><ele>519.0</ele><time>2026-03-22T12:09:45.999Z</time></trkpt><trkpt lat="42.89274100698303" lon="-2.096427623905154"><ele>518.5</ele><time>2026-03-22T12:09:46.999Z</time></trkpt><trkpt lat="42.89284167200496" lon="-2.0963003043388055"><ele>518.0</ele><time>2026-03-22T12:09:47.999Z</time></trkpt><trkpt lat="42.89295889842143" lon="-2.096153334944854"><ele>518.0</ele><time>2026-03-22T12:09:48.999Z</time></trkpt><trkpt lat="42.89308374440726" lon="-2.095992979359176"><ele>518.0</ele><time>2026-03-22T12:09:49.999Z</time></trkpt><trkpt lat="42.893198934104134" lon="-2.0958367610031674"><ele>518.0</ele><time>2026-03-22T12:09:50.999Z</time></trkpt><trkpt lat="42.89329339851496" lon="-2.095682969086873"><ele>517.75</ele><time>2026-03-22T12:09:51.999Z</time></trkpt><trkpt lat="42.893359179059004" lon="-2.095520320220737"><ele>517.5</ele><time>2026-03-22T12:09:52.999Z</time></trkpt><trkpt lat="42.89340351086449" lon="-2.0953386686651525"><ele>517.25</ele><time>2026-03-22T12:09:53.999Z</time></trkpt><trkpt lat="42.89342169041764" lon="-2.0951222750125016"><ele>517.0</ele><time>2026-03-22T12:09:54.999Z</time></trkpt><trkpt lat="42.89342499534677" lon="-2.094879114144524"><ele>517.0</ele><time>2026-03-22T12:09:55.999Z</time></trkpt><trkpt lat="42.89342401291433" lon="-2.0946164549036568"><ele>517.0</ele><time>2026-03-22T12:09:56.999Z</time></trkpt><trkpt lat="42.89342209089108" lon="-2.0943367844664174"><ele>517.0</ele><time>2026-03-22T12:09:57.999Z</time></trkpt><trkpt lat="42.893419987348615" lon="-2.0940307016532045"><ele>517.0</ele><time>2026-03-22T12:09:58.999Z</time></trkpt><trkpt lat="42.893418348294674" lon="-2.093703276549286"><ele>517.0</ele><time>2026-03-22T12:09:59.999Z</time></trkpt><trkpt lat="42.89341834829271" lon="-2.0933809705776683"><ele>512.5</ele><time>2026-03-22T12:10:00.999Z</time></trkpt><trkpt lat="42.8934299501692" lon="-2.0930383614914523"><ele>508.0</ele><time>2026-03-22T12:10:01.998Z</time></trkpt><trkpt lat="42.89345929896366" lon="-2.092687286155114"><ele>508.5</ele><time>2026-03-22T12:10:02.998Z</time></trkpt><trkpt lat="42.893499219935244" lon="-2.0923218445960168"><ele>509.0</ele><time>2026-03-22T12:10:03.998Z</time></trkpt><trkpt lat="42.893549611777566" lon="-2.0919517523287716"><ele>511.5</ele><time>2026-03-22T12:10:04.998Z</time></trkpt><trkpt lat="42.893601330938225" lon="-2.0915734378645796"><ele>514.0</ele><time>2026-03-22T12:10:05.998Z</time></trkpt><trkpt lat="42.89366052540716" lon="-2.0911893056222715"><ele>514.0</ele><time>2026-03-22T12:10:06.998Z</time></trkpt><trkpt lat="42.893729804309785" lon="-2.0908052952707994"><ele>514.0</ele><time>2026-03-22T12:10:07.998Z</time></trkpt><trkpt lat="42.89380442276214" lon="-2.0904215267596467"><ele>516.5</ele><time>2026-03-22T12:10:08.998Z</time></trkpt><trkpt lat="42.89388634015781" lon="-2.0900354149212887"><ele>519.0</ele><time>2026-03-22T12:10:09.998Z</time></trkpt><trkpt lat="42.89397153556278" lon="-2.089657055092157"><ele>519.5</ele><time>2026-03-22T12:10:10.998Z</time></trkpt><trkpt lat="42.894062983325824" lon="-2.089287122458579"><ele>520.0</ele><time>2026-03-22T12:10:11.998Z</time></trkpt><trkpt lat="42.89416099853174" lon="-2.0889172767147843"><ele>520.0</ele><time>2026-03-22T12:10:12.998Z</time></trkpt><trkpt lat="42.89426213825234" lon="-2.088550082064671"><ele>520.0</ele><time>2026-03-22T12:10:13.998Z</time></trkpt><trkpt lat="42.894372377853756" lon="-2.088185619811299"><ele>520.0</ele><time>2026-03-22T12:10:14.998Z</time></trkpt><trkpt lat="42.894487653457375" lon="-2.0878256143327065"><ele>520.0</ele><time>2026-03-22T12:10:15.998Z</time></trkpt><trkpt lat="42.89460678047448" lon="-2.08746462559039"><ele>519.0</ele><time>2026-03-22T12:10:16.998Z</time></trkpt><trkpt lat="42.89473243750789" lon="-2.0871014398592473"><ele>518.0</ele><time>2026-03-22T12:10:17.998Z</time></trkpt><trkpt lat="42.8948595931907" lon="-2.0867380611265656"><ele>516.5</ele><time>2026-03-22T12:10:19Z</time></trkpt><trkpt lat="42.89498818895231" lon="-2.08637056720777"><ele>515.0</ele><time>2026-03-22T12:10:20Z</time></trkpt><trkpt lat="42.89511754973824" lon="-2.0860008868343125"><ele>516.0</ele><time>2026-03-22T12:10:21Z</time></trkpt><trkpt lat="42.89524699213775" lon="-2.0856309733517966"><ele>517.0</ele><time>2026-03-22T12:10:22Z</time></trkpt><trkpt lat="42.89537655297184" lon="-2.0852588444198514"><ele>515.5</ele><time>2026-03-22T12:10:23Z</time></trkpt><trkpt lat="42.89550745632877" lon="-2.0848824442721465"><ele>514.0</ele><time>2026-03-22T12:10:24Z</time></trkpt><trkpt lat="42.89563805751518" lon="-2.0845069131478775"><ele>514.0</ele><time>2026-03-22T12:10:25Z</time></trkpt><trkpt lat="42.89576944327107" lon="-2.0841291260359927"><ele>514.0</ele><time>2026-03-22T12:10:26Z</time></trkpt><trkpt lat="42.89590100241956" lon="-2.083752801700561"><ele>514.0</ele><time>2026-03-22T12:10:27Z</time></trkpt><trkpt lat="42.89603495506842" lon="-2.0833701350179017"><ele>514.0</ele><time>2026-03-22T12:10:28Z</time></trkpt><trkpt lat="42.89616590951473" lon="-2.0829960333775697"><ele>514.5</ele><time>2026-03-22T12:10:29Z</time></trkpt><trkpt lat="42.89629822375793" lon="-2.0826180471434563"><ele>515.0</ele><time>2026-03-22T12:10:30Z</time></trkpt><trkpt lat="42.89642950057332" lon="-2.082241263184248"><ele>515.0</ele><time>2026-03-22T12:10:31Z</time></trkpt><trkpt lat="42.896559310242715" lon="-2.0818685357869935"><ele>515.0</ele><time>2026-03-22T12:10:32Z</time></trkpt><trkpt lat="42.89669046362338" lon="-2.0815007947592106"><ele>519.0</ele><time>2026-03-22T12:10:33Z</time></trkpt><trkpt lat="42.89682638418264" lon="-2.081137048673707"><ele>523.0</ele><time>2026-03-22T12:10:34Z</time></trkpt><trkpt lat="42.896968085950604" lon="-2.0807779095835097"><ele>520.5</ele><time>2026-03-22T12:10:35Z</time></trkpt><trkpt lat="42.89711223080909" lon="-2.0804398720574686"><ele>518.0</ele><time>2026-03-22T12:10:36Z</time></trkpt><trkpt lat="42.897249723859346" lon="-2.0801244197458066"><ele>515.0</ele><time>2026-03-22T12:10:37Z</time></trkpt><trkpt lat="42.89739318103791" lon="-2.0798151659654125"><ele>512.0</ele><time>2026-03-22T12:10:38Z</time></trkpt><trkpt lat="42.897538502660915" lon="-2.0795129031603574"><ele>514.5</ele><time>2026-03-22T12:10:39Z</time></trkpt><trkpt lat="42.89768598867537" lon="-2.0792061411372784"><ele>517.0</ele><time>2026-03-22T12:10:40Z</time></trkpt><trkpt lat="42.897836263792534" lon="-2.078898151175124"><ele>517.0</ele><time>2026-03-22T12:10:41Z</time></trkpt><trkpt lat="42.89802917626653" lon="-2.078624946110522"><ele>517.0</ele><time>2026-03-22T12:10:42Z</time></trkpt><trkpt lat="42.89819729374146" lon="-2.0783292173985255"><ele>516.5</ele><time>2026-03-22T12:10:43Z</time></trkpt><trkpt lat="42.89836250261198" lon="-2.0780359223208804"><ele>516.0</ele><time>2026-03-22T12:10:44Z</time></trkpt><trkpt lat="42.89852379356693" lon="-2.077759999325138"><ele>515.5</ele><time>2026-03-22T12:10:45Z</time></trkpt><trkpt lat="42.89867312502236" lon="-2.0774981731955338"><ele>515.0</ele><time>2026-03-22T12:10:46Z</time></trkpt><trkpt lat="42.898805869381285" lon="-2.0772631031492685"><ele>514.3333333333333</ele><time>2026-03-22T12:10:47Z</time></trkpt><trkpt lat="42.898935557903776" lon="-2.077039402862154"><ele>513.6666666666666</ele><time>2026-03-22T12:10:48Z</time></trkpt><trkpt lat="42.899063218304946" lon="-2.0768118725713993"><ele>513.0</ele><time>2026-03-22T12:10:49Z</time></trkpt><trkpt lat="42.899196433139245" lon="-2.0765734832580627"><ele>511.33333333333337</ele><time>2026-03-22T12:10:50Z</time></trkpt><trkpt lat="42.89933119604882" lon="-2.0763330155961914"><ele>509.6666666666667</ele><time>2026-03-22T12:10:51Z</time></trkpt><trkpt lat="42.89946751715119" lon="-2.0760880980507865"><ele>508.0</ele><time>2026-03-22T12:10:52Z</time></trkpt><trkpt lat="42.899606102755016" lon="-2.075844295690231"><ele>508.0</ele><time>2026-03-22T12:10:53Z</time></trkpt><trkpt lat="42.89974579423635" lon="-2.0756002295298788"><ele>508.0</ele><time>2026-03-22T12:10:54Z</time></trkpt><trkpt lat="42.8998857808151" lon="-2.0753568412628063"><ele>508.0</ele><time>2026-03-22T12:10:55Z</time></trkpt><trkpt lat="42.900026986328264" lon="-2.075109841860433"><ele>508.0</ele><time>2026-03-22T12:10:56Z</time></trkpt><trkpt lat="42.90016667793389" lon="-2.074859555028923"><ele>508.0</ele><time>2026-03-22T12:10:57Z</time></trkpt><trkpt lat="42.90030774736123" lon="-2.074608751610311"><ele>508.0</ele><time>2026-03-22T12:10:58Z</time></trkpt><trkpt lat="42.90044840788958" lon="-2.074357182153248"><ele>508.0</ele><time>2026-03-22T12:10:59Z</time></trkpt><trkpt lat="42.900590359021606" lon="-2.0741061135539147"><ele>508.0</ele><time>2026-03-22T12:11:00Z</time></trkpt><trkpt lat="42.90073372976144" lon="-2.073853732530791"><ele>505.5</ele><time>2026-03-22T12:11:01Z</time></trkpt><trkpt lat="42.90087795123596" lon="-2.0735959516872144"><ele>503.0</ele><time>2026-03-22T12:11:02Z</time></trkpt><trkpt lat="42.90102397376643" lon="-2.073338152198726"><ele>501.0</ele><time>2026-03-22T12:11:03Z</time></trkpt><trkpt lat="42.9011695659707" lon="-2.0730796870493893"><ele>499.0</ele><time>2026-03-22T12:11:04Z</time></trkpt><trkpt lat="42.901316886345285" lon="-2.07282090868564"><ele>499.0</ele><time>2026-03-22T12:11:05Z</time></trkpt><trkpt lat="42.901461756778005" lon="-2.072558429086213"><ele>499.0</ele><time>2026-03-22T12:11:06Z</time></trkpt><trkpt lat="42.90160849854219" lon="-2.0722951470382744"><ele>500.0</ele><time>2026-03-22T12:11:07Z</time></trkpt><trkpt lat="42.901754419246345" lon="-2.072029952636105"><ele>501.0</ele><time>2026-03-22T12:11:07.999Z</time></trkpt><trkpt lat="42.901903745892774" lon="-2.071765608674592"><ele>500.0</ele><time>2026-03-22T12:11:08.999Z</time></trkpt><trkpt lat="42.902053710702404" lon="-2.0715033013928554"><ele>499.0</ele><time>2026-03-22T12:11:09.999Z</time></trkpt><trkpt lat="42.902206794561174" lon="-2.071240266295595"><ele>499.0</ele><time>2026-03-22T12:11:10.999Z</time></trkpt><trkpt lat="42.902358131694605" lon="-2.070976210276647"><ele>499.0</ele><time>2026-03-22T12:11:11.999Z</time></trkpt><trkpt lat="42.902506883521255" lon="-2.070710276066407"><ele>498.0</ele><time>2026-03-22T12:11:12.999Z</time></trkpt><trkpt lat="42.90265469308048" lon="-2.070448260548936"><ele>497.0</ele><time>2026-03-22T12:11:13.999Z</time></trkpt><trkpt lat="42.90280084698657" lon="-2.0701889252190684"><ele>497.0</ele><time>2026-03-22T12:11:14.999Z</time></trkpt><trkpt lat="42.9029422274893" lon="-2.0699329925748318"><ele>497.0</ele><time>2026-03-22T12:11:15.999Z</time></trkpt><trkpt lat="42.90308528274808" lon="-2.0696804804955167"><ele>497.0</ele><time>2026-03-22T12:11:16.999Z</time></trkpt><trkpt lat="42.903220826817154" lon="-2.0694335321067427"><ele>497.0</ele><time>2026-03-22T12:11:17.999Z</time></trkpt><trkpt lat="42.90335410419938" lon="-2.069194715694853"><ele>497.0</ele><time>2026-03-22T12:11:18.999Z</time></trkpt><trkpt lat="42.9034803689099" lon="-2.068972288961256"><ele>498.3333333333333</ele><time>2026-03-22T12:11:19.999Z</time></trkpt><trkpt lat="42.9036160404189" lon="-2.0687388853096174"><ele>499.66666666666663</ele><time>2026-03-22T12:11:20.999Z</time></trkpt><trkpt lat="42.9037019328277" lon="-2.068581496668164"><ele>501.0</ele><time>2026-03-22T12:11:21.999Z</time></trkpt><trkpt lat="42.90378886166807" lon="-2.0684376738083503"><ele>501.0</ele><time>2026-03-22T12:11:22.999Z</time></trkpt><trkpt lat="42.90386027953425" lon="-2.0683118289896054"><ele>501.0</ele><time>2026-03-22T12:11:23.999Z</time></trkpt><trkpt lat="42.903939358796286" lon="-2.068175808267927"><ele>501.0</ele><time>2026-03-22T12:11:24.999Z</time></trkpt><trkpt lat="42.90402456867136" lon="-2.068031705538545"><ele>501.0</ele><time>2026-03-22T12:11:25.999Z</time></trkpt><trkpt lat="42.90410714665641" lon="-2.0678762061217726"><ele>501.25</ele><time>2026-03-22T12:11:26.999Z</time></trkpt><trkpt lat="42.9041943872108" lon="-2.0677214251627527"><ele>501.5</ele><time>2026-03-22T12:11:27.999Z</time></trkpt><trkpt lat="42.904281669413386" lon="-2.067564655048434"><ele>501.75</ele><time>2026-03-22T12:11:28.999Z</time></trkpt><trkpt lat="42.90436645945068" lon="-2.067402376145088"><ele>502.0</ele><time>2026-03-22T12:11:29.999Z</time></trkpt><trkpt lat="42.90444626420657" lon="-2.067244654183268"><ele>502.5</ele><time>2026-03-22T12:11:30.999Z</time></trkpt><trkpt lat="42.90454191142126" lon="-2.067079346011251"><ele>503.0</ele><time>2026-03-22T12:11:31.999Z</time></trkpt><trkpt lat="42.90462452020361" lon="-2.0669282592020943"><ele>503.5</ele><time>2026-03-22T12:11:32.999Z</time></trkpt><trkpt lat="42.90470829994672" lon="-2.06677394453909"><ele>504.0</ele><time>2026-03-22T12:11:33.999Z</time></trkpt><trkpt lat="42.90479250662603" lon="-2.066621911696672"><ele>504.0</ele><time>2026-03-22T12:11:34.999Z</time></trkpt><trkpt lat="42.904873583534766" lon="-2.0664761183788625"><ele>504.0</ele><time>2026-03-22T12:11:35.999Z</time></trkpt><trkpt lat="42.90494859287891" lon="-2.066336140762916"><ele>504.0</ele><time>2026-03-22T12:11:36.999Z</time></trkpt><trkpt lat="42.90502425232919" lon="-2.066199645180114"><ele>504.0</ele><time>2026-03-22T12:11:37.999Z</time></trkpt><trkpt lat="42.9050959899186" lon="-2.0660605941409176"><ele>504.0</ele><time>2026-03-22T12:11:38.999Z</time></trkpt><trkpt lat="42.90516646190356" lon="-2.0659166105498747"><ele>504.0</ele><time>2026-03-22T12:11:39.999Z</time></trkpt><trkpt lat="42.9052357630761" lon="-2.065776768948678"><ele>504.0</ele><time>2026-03-22T12:11:40.999Z</time></trkpt><trkpt lat="42.90530865487716" lon="-2.0656353410524955"><ele>504.0</ele><time>2026-03-22T12:11:41.999Z</time></trkpt><trkpt lat="42.905385821687375" lon="-2.0654978367094112"><ele>504.79999999999995</ele><time>2026-03-22T12:11:42.999Z</time></trkpt><trkpt lat="42.905459358541925" lon="-2.0653659174645767"><ele>505.59999999999997</ele><time>2026-03-22T12:11:43.999Z</time></trkpt><trkpt lat="42.905522450443385" lon="-2.0652364933161755"><ele>506.4</ele><time>2026-03-22T12:11:44.999Z</time></trkpt><trkpt lat="42.9055775772335" lon="-2.0651238673226935"><ele>507.2</ele><time>2026-03-22T12:11:45.999Z</time></trkpt><trkpt lat="42.905625149072435" lon="-2.065021888623422"><ele>508.0</ele><time>2026-03-22T12:11:46.999Z</time></trkpt><trkpt lat="42.90567947264838" lon="-2.064916721572979"><ele>508.33333333333337</ele><time>2026-03-22T12:11:47.999Z</time></trkpt><trkpt lat="42.905734453267" lon="-2.0648081717567415"><ele>508.6666666666667</ele><time>2026-03-22T12:11:48.999Z</time></trkpt><trkpt lat="42.905790099549286" lon="-2.064701489706425"><ele>509.0</ele><time>2026-03-22T12:11:49.999Z</time></trkpt><trkpt lat="42.90583799713351" lon="-2.0646022795943266"><ele>509.33333333333337</ele><time>2026-03-22T12:11:50.999Z</time></trkpt><trkpt lat="42.90588160892899" lon="-2.0645135114968247"><ele>509.6666666666667</ele><time>2026-03-22T12:11:51.999Z</time></trkpt><trkpt lat="42.90591548816458" lon="-2.0644326005986655"><ele>510.0</ele><time>2026-03-22T12:11:52.999Z</time></trkpt><trkpt lat="42.905931050417365" lon="-2.064270038229121"><ele>510.0</ele><time>2026-03-22T12:11:54.999Z</time></trkpt><trkpt lat="42.905902588256936" lon="-2.0641852559833134"><ele>510.0</ele><time>2026-03-22T12:11:55.999Z</time></trkpt><trkpt lat="42.90586394380889" lon="-2.0641164849556706"><ele>510.0</ele><time>2026-03-22T12:11:56.999Z</time></trkpt><trkpt lat="42.90576432301842" lon="-2.0640147114629026"><ele>510.0</ele><time>2026-03-22T12:11:58.999Z</time></trkpt><trkpt lat="42.905700928579016" lon="-2.063965625832798"><ele>510.0</ele><time>2026-03-22T12:11:59.999Z</time></trkpt><trkpt lat="42.90563006628471" lon="-2.0639044172828247"><ele>510.0</ele><time>2026-03-22T12:12:00.999Z</time></trkpt><trkpt lat="42.90555374316229" lon="-2.0638167614241656"><ele>509.75</ele><time>2026-03-22T12:12:01.999Z</time></trkpt><trkpt lat="42.90546787108843" lon="-2.063720485104662"><ele>509.5</ele><time>2026-03-22T12:12:02.999Z</time></trkpt><trkpt lat="42.9053609349669" lon="-2.0636375728257135"><ele>509.25</ele><time>2026-03-22T12:12:03.999Z</time></trkpt><trkpt lat="42.90525771999492" lon="-2.063527754391698"><ele>509.0</ele><time>2026-03-22T12:12:04.999Z</time></trkpt><trkpt lat="42.90515879573451" lon="-2.06339628520683"><ele>510.25</ele><time>2026-03-22T12:12:05.999Z</time></trkpt><trkpt lat="42.905053298911234" lon="-2.063289707360545"><ele>511.5</ele><time>2026-03-22T12:12:06.999Z</time></trkpt><trkpt lat="42.90495564698148" lon="-2.0631880188376392"><ele>512.75</ele><time>2026-03-22T12:12:07.999Z</time></trkpt><trkpt lat="42.90487297320654" lon="-2.0630940333187784"><ele>514.0</ele><time>2026-03-22T12:12:08.999Z</time></trkpt><trkpt lat="42.904797564826424" lon="-2.063013604708654"><ele>514.0</ele><time>2026-03-22T12:12:09.999Z</time></trkpt><trkpt lat="42.90473015754879" lon="-2.062938925186218"><ele>514.0</ele><time>2026-03-22T12:12:10.999Z</time></trkpt><trkpt lat="42.90466646925092" lon="-2.062872067415868"><ele>514.0</ele><time>2026-03-22T12:12:11.998Z</time></trkpt><trkpt lat="42.9045969957352" lon="-2.0627998226121718"><ele>514.0</ele><time>2026-03-22T12:12:12.998Z</time></trkpt><trkpt lat="42.90451843611705" lon="-2.0627164429507796"><ele>514.0</ele><time>2026-03-22T12:12:13.998Z</time></trkpt><trkpt lat="42.90443285775102" lon="-2.0626266175376706"><ele>514.0</ele><time>2026-03-22T12:12:14.998Z</time></trkpt><trkpt lat="42.90433072060794" lon="-2.0625511702992236"><ele>514.0</ele><time>2026-03-22T12:12:15.998Z</time></trkpt><trkpt lat="42.90425079420348" lon="-2.062439573626048"><ele>514.0</ele><time>2026-03-22T12:12:16.998Z</time></trkpt><trkpt lat="42.9041670607209" lon="-2.0623527112574003"><ele>514.0</ele><time>2026-03-22T12:12:17.998Z</time></trkpt><trkpt lat="42.90408515685967" lon="-2.0622671756357476"><ele>514.0</ele><time>2026-03-22T12:12:18.998Z</time></trkpt><trkpt lat="42.90400151279869" lon="-2.0621777512403066"><ele>514.8</ele><time>2026-03-22T12:12:19.998Z</time></trkpt><trkpt lat="42.90390760391881" lon="-2.062105226416371"><ele>515.5999999999999</ele><time>2026-03-22T12:12:20.998Z</time></trkpt><trkpt lat="42.903820193372795" lon="-2.0620047605226106"><ele>516.4</ele><time>2026-03-22T12:12:21.998Z</time></trkpt><trkpt lat="42.90373047387164" lon="-2.06190905770868"><ele>517.1999999999999</ele><time>2026-03-22T12:12:22.998Z</time></trkpt><trkpt lat="42.90364083436544" lon="-2.061815782946755"><ele>518.0</ele><time>2026-03-22T12:12:23.998Z</time></trkpt><trkpt lat="42.903553333746416" lon="-2.0617195937369552"><ele>518.0</ele><time>2026-03-22T12:12:25Z</time></trkpt><trkpt lat="42.90346236490214" lon="-2.0616255608697736"><ele>518.0</ele><time>2026-03-22T12:12:26Z</time></trkpt><trkpt lat="42.90336804600898" lon="-2.0615330468807516"><ele>518.0</ele><time>2026-03-22T12:12:27Z</time></trkpt><trkpt lat="42.90327730994169" lon="-2.061440574875895"><ele>518.0</ele><time>2026-03-22T12:12:28Z</time></trkpt><trkpt lat="42.90318412079276" lon="-2.0613493324238044"><ele>517.75</ele><time>2026-03-22T12:12:29Z</time></trkpt><trkpt lat="42.903088164863654" lon="-2.061261051122088"><ele>517.5</ele><time>2026-03-22T12:12:30Z</time></trkpt><trkpt lat="42.90298561938404" lon="-2.0611784454342152"><ele>517.25</ele><time>2026-03-22T12:12:31Z</time></trkpt><trkpt lat="42.902880062708675" lon="-2.0611020236733144"><ele>517.0</ele><time>2026-03-22T12:12:32Z</time></trkpt><trkpt lat="42.90277450582122" lon="-2.0610254501112406"><ele>517.0</ele><time>2026-03-22T12:12:33Z</time></trkpt><trkpt lat="42.90267887467589" lon="-2.060955336109818"><ele>517.0</ele><time>2026-03-22T12:12:34Z</time></trkpt><trkpt lat="42.9025940712302" lon="-2.0608898756298966"><ele>517.0</ele><time>2026-03-22T12:12:35Z</time></trkpt><trkpt lat="42.90252087794176" lon="-2.060830239400259"><ele>517.0</ele><time>2026-03-22T12:12:36Z</time></trkpt><trkpt lat="42.90245266112182" lon="-2.060771975044283"><ele>517.0</ele><time>2026-03-22T12:12:37Z</time></trkpt><trkpt lat="42.90236862656619" lon="-2.0607060561218167"><ele>516.75</ele><time>2026-03-22T12:12:38Z</time></trkpt><trkpt lat="42.902255735316984" lon="-2.060628065074522"><ele>516.5</ele><time>2026-03-22T12:12:39Z</time></trkpt><trkpt lat="42.902127979979" lon="-2.060535143649622"><ele>516.25</ele><time>2026-03-22T12:12:40Z</time></trkpt><trkpt lat="42.90199274258688" lon="-2.060426384849856"><ele>516.0</ele><time>2026-03-22T12:12:41Z</time></trkpt><trkpt lat="42.901833262296954" lon="-2.060303790508915"><ele>516.0</ele><time>2026-03-22T12:12:42Z</time></trkpt><trkpt lat="42.90166360310103" lon="-2.060170927665582"><ele>516.0</ele><time>2026-03-22T12:12:43Z</time></trkpt><trkpt lat="42.90149922023663" lon="-2.060044636145176"><ele>516.0</ele><time>2026-03-22T12:12:44Z</time></trkpt><trkpt lat="42.90134103642293" lon="-2.0599259254154902"><ele>516.6666666666666</ele><time>2026-03-22T12:12:45Z</time></trkpt><trkpt lat="42.901175636682666" lon="-2.059809109111885"><ele>517.3333333333333</ele><time>2026-03-22T12:12:46Z</time></trkpt><trkpt lat="42.90100675706408" lon="-2.0596803295586126"><ele>518.0</ele><time>2026-03-22T12:12:47Z</time></trkpt><trkpt lat="42.90083131235605" lon="-2.0595409441990395"><ele>518.3333333333333</ele><time>2026-03-22T12:12:48Z</time></trkpt><trkpt lat="42.90064770959719" lon="-2.059389953399931"><ele>518.6666666666666</ele><time>2026-03-22T12:12:49Z</time></trkpt><trkpt lat="42.90045688868912" lon="-2.0592275982562347"><ele>519.0</ele><time>2026-03-22T12:12:50Z</time></trkpt><trkpt lat="42.90025364112779" lon="-2.0590617313348036"><ele>516.5</ele><time>2026-03-22T12:12:51Z</time></trkpt><trkpt lat="42.90004046494373" lon="-2.058894273747834"><ele>514.0</ele><time>2026-03-22T12:12:52Z</time></trkpt><trkpt lat="42.89982196399044" lon="-2.0587364733958946"><ele>514.0</ele><time>2026-03-22T12:12:53Z</time></trkpt><trkpt lat="42.89960214824315" lon="-2.0585907181471494"><ele>514.0</ele><time>2026-03-22T12:12:54Z</time></trkpt><trkpt lat="42.89938406611528" lon="-2.058445839599373"><ele>514.3333333333334</ele><time>2026-03-22T12:12:55Z</time></trkpt><trkpt lat="42.899175822412644" lon="-2.0583070238659826"><ele>514.6666666666666</ele><time>2026-03-22T12:12:56Z</time></trkpt><trkpt lat="42.89898116813444" lon="-2.058177286970209"><ele>515.0</ele><time>2026-03-22T12:12:57Z</time></trkpt><trkpt lat="42.898793876647815" lon="-2.0580575411331044"><ele>515.6666666666666</ele><time>2026-03-22T12:12:58Z</time></trkpt><trkpt lat="42.89861388143061" lon="-2.0579446651645066"><ele>516.3333333333334</ele><time>2026-03-22T12:12:59Z</time></trkpt><trkpt lat="42.89843101449645" lon="-2.057845306691566"><ele>517.0</ele><time>2026-03-22T12:13:00Z</time></trkpt><trkpt lat="42.89826261669674" lon="-2.0577706604336106"><ele>519.0</ele><time>2026-03-22T12:13:01Z</time></trkpt><trkpt lat="42.898103799532976" lon="-2.05771234703275"><ele>521.0</ele><time>2026-03-22T12:13:02Z</time></trkpt><trkpt lat="42.8979507675747" lon="-2.0576730868764708"><ele>523.0</ele><time>2026-03-22T12:13:03Z</time></trkpt><trkpt lat="42.89780411526788" lon="-2.057643473795426"><ele>523.0</ele><time>2026-03-22T12:13:04Z</time></trkpt><trkpt lat="42.897650181152635" lon="-2.0576153154643557"><ele>523.0</ele><time>2026-03-22T12:13:05Z</time></trkpt><trkpt lat="42.89749049973793" lon="-2.057586657925082"><ele>523.0</ele><time>2026-03-22T12:13:06Z</time></trkpt><trkpt lat="42.897324597043664" lon="-2.057557302303865"><ele>521.6666666666667</ele><time>2026-03-22T12:13:07Z</time></trkpt><trkpt lat="42.89715985991754" lon="-2.057529315138062"><ele>520.3333333333334</ele><time>2026-03-22T12:13:08Z</time></trkpt><trkpt lat="42.89701357323544" lon="-2.057494833386929"><ele>519.0</ele><time>2026-03-22T12:13:09Z</time></trkpt><trkpt lat="42.89687540607994" lon="-2.057464275936823"><ele>520.25</ele><time>2026-03-22T12:13:10Z</time></trkpt><trkpt lat="42.8967400732052" lon="-2.057438878468323"><ele>521.5</ele><time>2026-03-22T12:13:11Z</time></trkpt><trkpt lat="42.89659484541048" lon="-2.057409208003733"><ele>522.75</ele><time>2026-03-22T12:13:12Z</time></trkpt><trkpt lat="42.896445203950904" lon="-2.057362477041609"><ele>524.0</ele><time>2026-03-22T12:13:13Z</time></trkpt><trkpt lat="42.89629758301228" lon="-2.057300386771088"><ele>524.0</ele><time>2026-03-22T12:13:13.999Z</time></trkpt><trkpt lat="42.89614893775178" lon="-2.0572141944912516"><ele>524.0</ele><time>2026-03-22T12:13:14.999Z</time></trkpt><trkpt lat="42.89599488442154" lon="-2.057100291637537"><ele>524.0</ele><time>2026-03-22T12:13:15.999Z</time></trkpt><trkpt lat="42.89583298685613" lon="-2.0569472072347517"><ele>522.0</ele><time>2026-03-22T12:13:16.999Z</time></trkpt><trkpt lat="42.89564878476936" lon="-2.0567758411615795"><ele>520.0</ele><time>2026-03-22T12:13:17.999Z</time></trkpt><trkpt lat="42.89541684850173" lon="-2.0566426761227152"><ele>519.5</ele><time>2026-03-22T12:13:18.999Z</time></trkpt><trkpt lat="42.89518750197452" lon="-2.056458115088795"><ele>519.0</ele><time>2026-03-22T12:13:19.999Z</time></trkpt><trkpt lat="42.89496375459152" lon="-2.0562582378283563"><ele>519.0</ele><time>2026-03-22T12:13:20.999Z</time></trkpt><trkpt lat="42.89473488229485" lon="-2.056092436040582"><ele>519.0</ele><time>2026-03-22T12:13:21.999Z</time></trkpt><trkpt lat="42.89451725040386" lon="-2.0559241055889146"><ele>520.0</ele><time>2026-03-22T12:13:22.999Z</time></trkpt><trkpt lat="42.89430423974081" lon="-2.05575274658657"><ele>521.0</ele><time>2026-03-22T12:13:23.999Z</time></trkpt><trkpt lat="42.89409343628324" lon="-2.055583218565324"><ele>518.0</ele><time>2026-03-22T12:13:24.999Z</time></trkpt><trkpt lat="42.89388683220432" lon="-2.0554161474247086"><ele>515.0</ele><time>2026-03-22T12:13:25.999Z</time></trkpt><trkpt lat="42.893682519952186" lon="-2.0552487673087483"><ele>515.0</ele><time>2026-03-22T12:13:26.999Z</time></trkpt><trkpt lat="42.89348299432571" lon="-2.055086566379243"><ele>515.0</ele><time>2026-03-22T12:13:27.999Z</time></trkpt><trkpt lat="42.89328183243065" lon="-2.0549249629542206"><ele>514.0</ele><time>2026-03-22T12:13:28.999Z</time></trkpt><trkpt lat="42.89307960726557" lon="-2.054761109248395"><ele>513.0</ele><time>2026-03-22T12:13:29.999Z</time></trkpt><trkpt lat="42.892880187581106" lon="-2.0545992586966104"><ele>513.0</ele><time>2026-03-22T12:13:30.999Z</time></trkpt><trkpt lat="42.892686525327726" lon="-2.0544396168907704"><ele>513.0</ele><time>2026-03-22T12:13:31.999Z</time></trkpt><trkpt lat="42.8924945158404" lon="-2.0542830164859276"><ele>513.0</ele><time>2026-03-22T12:13:32.999Z</time></trkpt><trkpt lat="42.89229613532619" lon="-2.054125788471036"><ele>513.0</ele><time>2026-03-22T12:13:33.999Z</time></trkpt><trkpt lat="42.89209425668486" lon="-2.0539687670121056"><ele>513.0</ele><time>2026-03-22T12:13:34.999Z</time></trkpt><trkpt lat="42.89189111734353" lon="-2.0538018484879004"><ele>513.0</ele><time>2026-03-22T12:13:35.999Z</time></trkpt><trkpt lat="42.891666201287194" lon="-2.053630990737629"><ele>514.0</ele><time>2026-03-22T12:13:36.999Z</time></trkpt><trkpt lat="42.89142522239732" lon="-2.0534363227783503"><ele>515.0</ele><time>2026-03-22T12:13:37.999Z</time></trkpt><trkpt lat="42.891170736316205" lon="-2.0532326686308986"><ele>516.0</ele><time>2026-03-22T12:13:38.999Z</time></trkpt><trkpt lat="42.890911481447326" lon="-2.0530262561761004"><ele>517.0</ele><time>2026-03-22T12:13:39.999Z</time></trkpt><trkpt lat="42.890638651056825" lon="-2.052808459860835"><ele>517.0</ele><time>2026-03-22T12:13:40.999Z</time></trkpt><trkpt lat="42.890355789107225" lon="-2.052579805504883"><ele>517.0</ele><time>2026-03-22T12:13:41.999Z</time></trkpt><trkpt lat="42.89007363663024" lon="-2.052339787611333"><ele>517.0</ele><time>2026-03-22T12:13:42.999Z</time></trkpt><trkpt lat="42.88978057343578" lon="-2.0521045458163134"><ele>517.0</ele><time>2026-03-22T12:13:43.999Z</time></trkpt><trkpt lat="42.88948850919895" lon="-2.051869168611347"><ele>518.0</ele><time>2026-03-22T12:13:44.999Z</time></trkpt><trkpt lat="42.889205142645395" lon="-2.051651236888262"><ele>519.0</ele><time>2026-03-22T12:13:45.999Z</time></trkpt><trkpt lat="42.88892760003314" lon="-2.0514333059818908"><ele>519.0</ele><time>2026-03-22T12:13:46.999Z</time></trkpt><trkpt lat="42.88866156993682" lon="-2.051220614559668"><ele>519.0</ele><time>2026-03-22T12:13:47.999Z</time></trkpt><trkpt lat="42.88840630115391" lon="-2.051010926217596"><ele>519.0</ele><time>2026-03-22T12:13:48.999Z</time></trkpt><trkpt lat="42.88815634400773" lon="-2.0508045084484365"><ele>519.0</ele><time>2026-03-22T12:13:49.999Z</time></trkpt><trkpt lat="42.887909615286084" lon="-2.050600530054376"><ele>519.0</ele><time>2026-03-22T12:13:50.999Z</time></trkpt><trkpt lat="42.887667025440535" lon="-2.0504053935656907"><ele>519.0</ele><time>2026-03-22T12:13:51.999Z</time></trkpt><trkpt lat="42.88742783501912" lon="-2.050216883547248"><ele>519.5</ele><time>2026-03-22T12:13:52.999Z</time></trkpt><trkpt lat="42.88719550438813" lon="-2.0500303662642976"><ele>520.0</ele><time>2026-03-22T12:13:53.999Z</time></trkpt><trkpt lat="42.886967908775375" lon="-2.0498443987652535"><ele>521.0</ele><time>2026-03-22T12:13:54.999Z</time></trkpt><trkpt lat="42.88674548454113" lon="-2.049662825120352"><ele>522.0</ele><time>2026-03-22T12:13:55.999Z</time></trkpt><trkpt lat="42.88652598330671" lon="-2.049501187753392"><ele>522.0</ele><time>2026-03-22T12:13:56.999Z</time></trkpt><trkpt lat="42.8863250710213" lon="-2.049291713859825"><ele>522.0</ele><time>2026-03-22T12:13:57.999Z</time></trkpt><trkpt lat="42.88614442261504" lon="-2.049055742253525"><ele>523.5</ele><time>2026-03-22T12:13:58.999Z</time></trkpt><trkpt lat="42.88596157385768" lon="-2.0488153360022077"><ele>525.0</ele><time>2026-03-22T12:13:59.999Z</time></trkpt><trkpt lat="42.88577888938388" lon="-2.0485751457408985"><ele>525.0</ele><time>2026-03-22T12:14:00.999Z</time></trkpt><trkpt lat="42.88559887103766" lon="-2.048334014259063"><ele>525.0</ele><time>2026-03-22T12:14:01.999Z</time></trkpt><trkpt lat="42.88542065058359" lon="-2.0480942875047425"><ele>525.0</ele><time>2026-03-22T12:14:02.999Z</time></trkpt><trkpt lat="42.88524409462816" lon="-2.047858051245397"><ele>525.0</ele><time>2026-03-22T12:14:03.999Z</time></trkpt><trkpt lat="42.8850667928348" lon="-2.0476265630287904"><ele>525.5</ele><time>2026-03-22T12:14:04.999Z</time></trkpt><trkpt lat="42.88489127344334" lon="-2.0473974019740173"><ele>526.0</ele><time>2026-03-22T12:14:05.999Z</time></trkpt><trkpt lat="42.884714784394426" lon="-2.0471669735586095"><ele>526.0</ele><time>2026-03-22T12:14:06.999Z</time></trkpt><trkpt lat="42.884537013613155" lon="-2.0469348688761473"><ele>526.0</ele><time>2026-03-22T12:14:07.999Z</time></trkpt><trkpt lat="42.88435812265355" lon="-2.046701301642903"><ele>527.5</ele><time>2026-03-22T12:14:08.999Z</time></trkpt><trkpt lat="42.8841797354014" lon="-2.0464655576621618"><ele>529.0</ele><time>2026-03-22T12:14:09.999Z</time></trkpt><trkpt lat="42.88402089381669" lon="-2.04619972499709"><ele>529.0</ele><time>2026-03-22T12:14:10.999Z</time></trkpt><trkpt lat="42.883841144923345" lon="-2.045964569943963"><ele>529.0</ele><time>2026-03-22T12:14:11.999Z</time></trkpt><trkpt lat="42.88366172383702" lon="-2.0457275195516362"><ele>530.0</ele><time>2026-03-22T12:14:12.999Z</time></trkpt><trkpt lat="42.88348186405542" lon="-2.045492935083143"><ele>531.0</ele><time>2026-03-22T12:14:13.999Z</time></trkpt><trkpt lat="42.883300365330314" lon="-2.0452569066015927"><ele>531.0</ele><time>2026-03-22T12:14:14.999Z</time></trkpt><trkpt lat="42.88311838049798" lon="-2.0450190843079263"><ele>531.0</ele><time>2026-03-22T12:14:15.998Z</time></trkpt><trkpt lat="42.88293777726489" lon="-2.0447780037424925"><ele>531.5</ele><time>2026-03-22T12:14:16.998Z</time></trkpt><trkpt lat="42.88275765243208" lon="-2.0445346644668576"><ele>532.0</ele><time>2026-03-22T12:14:17.998Z</time></trkpt><trkpt lat="42.8825797777038" lon="-2.044296194751991"><ele>533.6666666666667</ele><time>2026-03-22T12:14:18.998Z</time></trkpt><trkpt lat="42.88241397852903" lon="-2.0440794915570577"><ele>535.3333333333334</ele><time>2026-03-22T12:14:19.998Z</time></trkpt><trkpt lat="42.882266263707834" lon="-2.043888434228646"><ele>537.0</ele><time>2026-03-22T12:14:20.998Z</time></trkpt><trkpt lat="42.882130714873" lon="-2.043709088811715"><ele>537.0</ele><time>2026-03-22T12:14:21.998Z</time></trkpt><trkpt lat="42.8820002178582" lon="-2.043532854027793"><ele>537.0</ele><time>2026-03-22T12:14:22.998Z</time></trkpt><trkpt lat="42.88187167371998" lon="-2.043359820600664"><ele>537.0</ele><time>2026-03-22T12:14:23.998Z</time></trkpt><trkpt lat="42.88174341287656" lon="-2.043188414027473"><ele>538.6666666666666</ele><time>2026-03-22T12:14:24.998Z</time></trkpt><trkpt lat="42.881608513507466" lon="-2.043008946706967"><ele>540.3333333333333</ele><time>2026-03-22T12:14:25.998Z</time></trkpt><trkpt lat="42.88146700549939" lon="-2.042825329149705"><ele>542.0</ele><time>2026-03-22T12:14:26.998Z</time></trkpt><trkpt lat="42.88131752621249" lon="-2.0426347521560917"><ele>541.6666666666666</ele><time>2026-03-22T12:14:27.998Z</time></trkpt><trkpt lat="42.88116674252711" lon="-2.042432150696092"><ele>541.3333333333334</ele><time>2026-03-22T12:14:28.998Z</time></trkpt><trkpt lat="42.881009921529774" lon="-2.042222595822907"><ele>541.0</ele><time>2026-03-22T12:14:29.998Z</time></trkpt><trkpt lat="42.88085818900213" lon="-2.042019581735858"><ele>541.6666666666667</ele><time>2026-03-22T12:14:31Z</time></trkpt><trkpt lat="42.880713842438354" lon="-2.041820030331245"><ele>542.3333333333334</ele><time>2026-03-22T12:14:32Z</time></trkpt><trkpt lat="42.8805791102382" lon="-2.041617271712342"><ele>543.0</ele><time>2026-03-22T12:14:33Z</time></trkpt><trkpt lat="42.880456061933714" lon="-2.041404824544062"><ele>543.0</ele><time>2026-03-22T12:14:34Z</time></trkpt><trkpt lat="42.880361008381826" lon="-2.0411789656065165"><ele>543.0</ele><time>2026-03-22T12:14:35Z</time></trkpt><trkpt lat="42.88027783566937" lon="-2.040951687106698"><ele>543.0</ele><time>2026-03-22T12:14:36Z</time></trkpt><trkpt lat="42.88018303045302" lon="-2.040740879477936"><ele>546.3333333333334</ele><time>2026-03-22T12:14:37Z</time></trkpt><trkpt lat="42.880075441512" lon="-2.0405471603260854"><ele>549.6666666666667</ele><time>2026-03-22T12:14:38Z</time></trkpt><trkpt lat="42.87994618364865" lon="-2.0403722761444945"><ele>553.0</ele><time>2026-03-22T12:14:39Z</time></trkpt><trkpt lat="42.879796729017855" lon="-2.0402274632250688"><ele>553.0</ele><time>2026-03-22T12:14:40Z</time></trkpt><trkpt lat="42.87962649406496" lon="-2.0401053512245415"><ele>553.0</ele><time>2026-03-22T12:14:41Z</time></trkpt><trkpt lat="42.87944927057112" lon="-2.0399893711481116"><ele>553.0</ele><time>2026-03-22T12:14:42Z</time></trkpt><trkpt lat="42.87926716358421" lon="-2.03985988618612"><ele>553.6666666666667</ele><time>2026-03-22T12:14:43Z</time></trkpt><trkpt lat="42.87907919713271" lon="-2.039724132072939"><ele>554.3333333333334</ele><time>2026-03-22T12:14:44Z</time></trkpt><trkpt lat="42.8788870167815" lon="-2.039590614766097"><ele>555.0</ele><time>2026-03-22T12:14:45Z</time></trkpt><trkpt lat="42.87868904387804" lon="-2.039457578057438"><ele>555.0</ele><time>2026-03-22T12:14:46Z</time></trkpt><trkpt lat="42.87849026789219" lon="-2.0393221493718414"><ele>555.0</ele><time>2026-03-22T12:14:47Z</time></trkpt><trkpt lat="42.87829660240546" lon="-2.0391798069711045"><ele>555.0</ele><time>2026-03-22T12:14:48Z</time></trkpt><trkpt lat="42.87811196954655" lon="-2.0390101370678337"><ele>561.0</ele><time>2026-03-22T12:14:49Z</time></trkpt><trkpt lat="42.87793315981967" lon="-2.0388159035786217"><ele>567.0</ele><time>2026-03-22T12:14:50Z</time></trkpt><trkpt lat="42.87776660742983" lon="-2.0385978012458272"><ele>567.0</ele><time>2026-03-22T12:14:51Z</time></trkpt><trkpt lat="42.87762106830246" lon="-2.038374624641671"><ele>567.0</ele><time>2026-03-22T12:14:52Z</time></trkpt><trkpt lat="42.87749627067226" lon="-2.038162070217071"><ele>567.0</ele><time>2026-03-22T12:14:53Z</time></trkpt><trkpt lat="42.87739054052161" lon="-2.0379641992333806"><ele>570.6666666666666</ele><time>2026-03-22T12:14:54Z</time></trkpt><trkpt lat="42.877280230936904" lon="-2.0378008140158346"><ele>574.3333333333333</ele><time>2026-03-22T12:14:55Z</time></trkpt><trkpt lat="42.877150772160654" lon="-2.037681429664948"><ele>578.0</ele><time>2026-03-22T12:14:56Z</time></trkpt><trkpt lat="42.87699963456447" lon="-2.0375984850956437"><ele>578.0</ele><time>2026-03-22T12:14:57Z</time></trkpt><trkpt lat="42.87683641734239" lon="-2.0375588846012733"><ele>578.0</ele><time>2026-03-22T12:14:58Z</time></trkpt><trkpt lat="42.87666511534861" lon="-2.0375507382971305"><ele>578.0</ele><time>2026-03-22T12:14:59Z</time></trkpt><trkpt lat="42.87648736259342" lon="-2.0375507213909567"><ele>581.0</ele><time>2026-03-22T12:15:00Z</time></trkpt><trkpt lat="42.87630641240598" lon="-2.0375379885400466"><ele>584.0</ele><time>2026-03-22T12:15:01Z</time></trkpt><trkpt lat="42.87612446731113" lon="-2.0375193568110928"><ele>587.0</ele><time>2026-03-22T12:15:02Z</time></trkpt><trkpt lat="42.87595683310922" lon="-2.037504805427371"><ele>586.0</ele><time>2026-03-22T12:15:03Z</time></trkpt><trkpt lat="42.87580386050626" lon="-2.037489676345738"><ele>585.0</ele><time>2026-03-22T12:15:04Z</time></trkpt><trkpt lat="42.87565280292228" lon="-2.0374785548776777"><ele>584.0</ele><time>2026-03-22T12:15:05Z</time></trkpt><trkpt lat="42.87550260261144" lon="-2.0374450053658593"><ele>584.0</ele><time>2026-03-22T12:15:06Z</time></trkpt><trkpt lat="42.875356906247816" lon="-2.037375403397321"><ele>584.0</ele><time>2026-03-22T12:15:07Z</time></trkpt><trkpt lat="42.87521515486147" lon="-2.0373029584547417"><ele>584.0</ele><time>2026-03-22T12:15:08Z</time></trkpt><trkpt lat="42.875088189181824" lon="-2.037234884925428"><ele>584.0</ele><time>2026-03-22T12:15:09Z</time></trkpt><trkpt lat="42.87497669444631" lon="-2.037170220556666"><ele>587.25</ele><time>2026-03-22T12:15:10Z</time></trkpt><trkpt lat="42.87486816224123" lon="-2.0371086202904367"><ele>590.5</ele><time>2026-03-22T12:15:11Z</time></trkpt><trkpt lat="42.87475761321274" lon="-2.0370380256983887"><ele>593.75</ele><time>2026-03-22T12:15:12Z</time></trkpt><trkpt lat="42.87465893782309" lon="-2.036957716149314"><ele>597.0</ele><time>2026-03-22T12:15:13Z</time></trkpt><trkpt lat="42.87455826874627" lon="-2.036852733681943"><ele>597.0</ele><time>2026-03-22T12:15:14Z</time></trkpt><trkpt lat="42.874445041291125" lon="-2.036750443215343"><ele>597.0</ele><time>2026-03-22T12:15:15Z</time></trkpt><trkpt lat="42.874328869874205" lon="-2.036648035093212"><ele>597.0</ele><time>2026-03-22T12:15:16Z</time></trkpt><trkpt lat="42.874220093161895" lon="-2.0365309820689355"><ele>597.0</ele><time>2026-03-22T12:15:17Z</time></trkpt><trkpt lat="42.87412228298595" lon="-2.036377932480084"><ele>598.5</ele><time>2026-03-22T12:15:18Z</time></trkpt><trkpt lat="42.87401628354088" lon="-2.036257119837868"><ele>600.0</ele><time>2026-03-22T12:15:19Z</time></trkpt><trkpt lat="42.8739413584441" lon="-2.0361291466669966"><ele>601.5</ele><time>2026-03-22T12:15:20Z</time></trkpt><trkpt lat="42.873870589108364" lon="-2.036025042394346"><ele>603.0</ele><time>2026-03-22T12:15:20.999Z</time></trkpt><trkpt lat="42.87380203330373" lon="-2.0359226331170044"><ele>601.0</ele><time>2026-03-22T12:15:21.999Z</time></trkpt><trkpt lat="42.873745757942736" lon="-2.035775752031646"><ele>599.0</ele><time>2026-03-22T12:15:22.999Z</time></trkpt><trkpt lat="42.87366093974103" lon="-2.0356482881746443"><ele>597.0</ele><time>2026-03-22T12:15:23.999Z</time></trkpt><trkpt lat="42.873566975365144" lon="-2.0355090211890436"><ele>595.0</ele><time>2026-03-22T12:15:24.999Z</time></trkpt><trkpt lat="42.87347467107959" lon="-2.035377684969466"><ele>597.6</ele><time>2026-03-22T12:15:25.999Z</time></trkpt><trkpt lat="42.873393398756605" lon="-2.0352798978254945"><ele>600.2</ele><time>2026-03-22T12:15:26.999Z</time></trkpt><trkpt lat="42.8733227859309" lon="-2.035223404572795"><ele>602.8</ele><time>2026-03-22T12:15:27.999Z</time></trkpt><trkpt lat="42.87322711415166" lon="-2.035227782005511"><ele>605.4</ele><time>2026-03-22T12:15:29.999Z</time></trkpt><trkpt lat="42.87316509516468" lon="-2.0353412327796687"><ele>608.0</ele><time>2026-03-22T12:15:31.999Z</time></trkpt><trkpt lat="42.8731610248899" lon="-2.0354443748590074"><ele>608.0</ele><time>2026-03-22T12:15:32.999Z</time></trkpt><trkpt lat="42.873168238307656" lon="-2.0355505687009035"><ele>608.0</ele><time>2026-03-22T12:15:33.999Z</time></trkpt><trkpt lat="42.87319802962253" lon="-2.035666640038363"><ele>608.0</ele><time>2026-03-22T12:15:34.999Z</time></trkpt><trkpt lat="42.8732476540938" lon="-2.035792636128433"><ele>608.0</ele><time>2026-03-22T12:15:35.999Z</time></trkpt><trkpt lat="42.87329626387111" lon="-2.0359546500640726"><ele>608.0</ele><time>2026-03-22T12:15:36.999Z</time></trkpt><trkpt lat="42.87334159888253" lon="-2.036153105176481"><ele>608.0</ele><time>2026-03-22T12:15:37.999Z</time></trkpt><trkpt lat="42.87339079192203" lon="-2.036387095403007"><ele>608.0</ele><time>2026-03-22T12:15:38.999Z</time></trkpt><trkpt lat="42.873443513652454" lon="-2.0366521111611906"><ele>608.0</ele><time>2026-03-22T12:15:39.999Z</time></trkpt><trkpt lat="42.87349524307192" lon="-2.03691480918142"><ele>608.0</ele><time>2026-03-22T12:15:40.999Z</time></trkpt><trkpt lat="42.87354233912159" lon="-2.037178423697268"><ele>608.0</ele><time>2026-03-22T12:15:41.999Z</time></trkpt><trkpt lat="42.87357944695211" lon="-2.0374242911295557"><ele>608.0</ele><time>2026-03-22T12:15:42.999Z</time></trkpt><trkpt lat="42.87360659992028" lon="-2.037646347265038"><ele>609.0</ele><time>2026-03-22T12:15:43.999Z</time></trkpt><trkpt lat="42.873620938158574" lon="-2.03784466170738"><ele>610.0</ele><time>2026-03-22T12:15:44.999Z</time></trkpt><trkpt lat="42.873609125746555" lon="-2.038055583948181"><ele>611.0</ele><time>2026-03-22T12:15:45.999Z</time></trkpt><trkpt lat="42.873569748936326" lon="-2.0382821083842027"><ele>612.3333333333333</ele><time>2026-03-22T12:15:46.999Z</time></trkpt><trkpt lat="42.87351266723051" lon="-2.0385170737885003"><ele>613.6666666666666</ele><time>2026-03-22T12:15:47.999Z</time></trkpt><trkpt lat="42.87345791596897" lon="-2.0387733895103137"><ele>615.0</ele><time>2026-03-22T12:15:48.999Z</time></trkpt><trkpt lat="42.87340340199479" lon="-2.0390490041143106"><ele>621.3333333333334</ele><time>2026-03-22T12:15:49.999Z</time></trkpt><trkpt lat="42.87334861984092" lon="-2.039314089717507"><ele>627.6666666666667</ele><time>2026-03-22T12:15:50.999Z</time></trkpt><trkpt lat="42.87330148835403" lon="-2.0395474467432395"><ele>634.0</ele><time>2026-03-22T12:15:51.999Z</time></trkpt><trkpt lat="42.87325922467945" lon="-2.039759264427081"><ele>634.0</ele><time>2026-03-22T12:15:52.999Z</time></trkpt><trkpt lat="42.87322288899972" lon="-2.0399508377683278"><ele>634.0</ele><time>2026-03-22T12:15:53.999Z</time></trkpt><trkpt lat="42.87319280921348" lon="-2.0401151496239094"><ele>634.0</ele><time>2026-03-22T12:15:54.999Z</time></trkpt><trkpt lat="42.873155904834306" lon="-2.040235846019882"><ele>634.0</ele><time>2026-03-22T12:15:55.999Z</time></trkpt><trkpt lat="42.873101266807346" lon="-2.0403110583873927"><ele>634.0</ele><time>2026-03-22T12:15:56.999Z</time></trkpt><trkpt lat="42.8730329475596" lon="-2.040341075908577"><ele>634.0</ele><time>2026-03-22T12:15:57.999Z</time></trkpt><trkpt lat="42.87290848115036" lon="-2.0403068611697033"><ele>634.0</ele><time>2026-03-22T12:15:59.999Z</time></trkpt><trkpt lat="42.87284052519365" lon="-2.0402415162725744"><ele>634.0</ele><time>2026-03-22T12:16:00.999Z</time></trkpt><trkpt lat="42.87280891148308" lon="-2.040104595608966"><ele>634.0</ele><time>2026-03-22T12:16:01.999Z</time></trkpt><trkpt lat="42.87279703903793" lon="-2.039948004204"><ele>634.0</ele><time>2026-03-22T12:16:02.999Z</time></trkpt><trkpt lat="42.872791304721886" lon="-2.0397715518540114"><ele>634.0</ele><time>2026-03-22T12:16:03.999Z</time></trkpt><trkpt lat="42.87279389859153" lon="-2.0395787751973815"><ele>634.0</ele><time>2026-03-22T12:16:04.999Z</time></trkpt><trkpt lat="42.87279897806732" lon="-2.039376722585167"><ele>634.0</ele><time>2026-03-22T12:16:05.999Z</time></trkpt><trkpt lat="42.87281003763908" lon="-2.0391713914607976"><ele>634.0</ele><time>2026-03-22T12:16:06.999Z</time></trkpt><trkpt lat="42.87282609429085" lon="-2.0389643835469875"><ele>634.25</ele><time>2026-03-22T12:16:07.999Z</time></trkpt><trkpt lat="42.872845051466406" lon="-2.0387710214892256"><ele>634.5</ele><time>2026-03-22T12:16:08.999Z</time></trkpt><trkpt lat="42.8728657293986" lon="-2.038574599003714"><ele>634.75</ele><time>2026-03-22T12:16:09.999Z</time></trkpt><trkpt lat="42.87288728431497" lon="-2.0383698459594006"><ele>635.0</ele><time>2026-03-22T12:16:10.999Z</time></trkpt><trkpt lat="42.87289700282185" lon="-2.0381664351177458"><ele>634.3333333333333</ele><time>2026-03-22T12:16:11.999Z</time></trkpt><trkpt lat="42.87288519459383" lon="-2.0379554934019475"><ele>633.6666666666666</ele><time>2026-03-22T12:16:12.999Z</time></trkpt><trkpt lat="42.87283147427655" lon="-2.0377461760864044"><ele>633.0</ele><time>2026-03-22T12:16:13.999Z</time></trkpt><trkpt lat="42.87275565659065" lon="-2.0375388968283628"><ele>629.0</ele><time>2026-03-22T12:16:14.999Z</time></trkpt><trkpt lat="42.87265790405573" lon="-2.037333837357648"><ele>625.0</ele><time>2026-03-22T12:16:15.999Z</time></trkpt><trkpt lat="42.872545291015705" lon="-2.0371203384443772"><ele>621.0</ele><time>2026-03-22T12:16:16.999Z</time></trkpt><trkpt lat="42.87242393860042" lon="-2.0369001574779406"><ele>625.6666666666666</ele><time>2026-03-22T12:16:17.999Z</time></trkpt><trkpt lat="42.87230293051664" lon="-2.0366875993903464"><ele>630.3333333333333</ele><time>2026-03-22T12:16:18.999Z</time></trkpt><trkpt lat="42.8721957748989" lon="-2.036489150568449"><ele>635.0</ele><time>2026-03-22T12:16:19.999Z</time></trkpt><trkpt lat="42.87205841925132" lon="-2.03634620627831"><ele>635.0</ele><time>2026-03-22T12:16:20.999Z</time></trkpt><trkpt lat="42.871920345810594" lon="-2.0362397312893976"><ele>635.0</ele><time>2026-03-22T12:16:21.998Z</time></trkpt><trkpt lat="42.8717792001764" lon="-2.0361601697936"><ele>635.0</ele><time>2026-03-22T12:16:22.998Z</time></trkpt><trkpt lat="42.871624471462525" lon="-2.036115151888315"><ele>641.0</ele><time>2026-03-22T12:16:23.998Z</time></trkpt><trkpt lat="42.87147305259505" lon="-2.036094370509631"><ele>647.0</ele><time>2026-03-22T12:16:24.998Z</time></trkpt><trkpt lat="42.8713314100431" lon="-2.0360562513656633"><ele>653.0</ele><time>2026-03-22T12:16:25.998Z</time></trkpt><trkpt lat="42.8712037750012" lon="-2.035998965755892"><ele>659.0</ele><time>2026-03-22T12:16:26.998Z</time></trkpt><trkpt lat="42.87109758209765" lon="-2.0359150802402772"><ele>659.0</ele><time>2026-03-22T12:16:27.998Z</time></trkpt><trkpt lat="42.87098766729206" lon="-2.035833601054997"><ele>659.0</ele><time>2026-03-22T12:16:28.998Z</time></trkpt><trkpt lat="42.87090366049728" lon="-2.035681268950911"><ele>659.0</ele><time>2026-03-22T12:16:29.998Z</time></trkpt><trkpt lat="42.870878881429306" lon="-2.035495716155649"><ele>659.0</ele><time>2026-03-22T12:16:30.998Z</time></trkpt><trkpt lat="42.87086149454009" lon="-2.035334688153396"><ele>662.0</ele><time>2026-03-22T12:16:31.998Z</time></trkpt><trkpt lat="42.87081355820327" lon="-2.0351819446075137"><ele>665.0</ele><time>2026-03-22T12:16:32.998Z</time></trkpt><trkpt lat="42.87073794723025" lon="-2.035027670682918"><ele>668.0</ele><time>2026-03-22T12:16:33.998Z</time></trkpt><trkpt lat="42.87062964328235" lon="-2.0348902122038255"><ele>671.0</ele><time>2026-03-22T12:16:34.998Z</time></trkpt><trkpt lat="42.87053586088885" lon="-2.0347356779118173"><ele>671.0</ele><time>2026-03-22T12:16:35.998Z</time></trkpt><trkpt lat="42.870447903545376" lon="-2.0345906829128086"><ele>671.0</ele><time>2026-03-22T12:16:37Z</time></trkpt><trkpt lat="42.87039397085715" lon="-2.0344526316420497"><ele>671.0</ele><time>2026-03-22T12:16:38Z</time></trkpt><trkpt lat="42.87035981666812" lon="-2.034318129381112"><ele>671.0</ele><time>2026-03-22T12:16:39Z</time></trkpt><trkpt lat="42.870356413365215" lon="-2.0341713634108736"><ele>673.25</ele><time>2026-03-22T12:16:40Z</time></trkpt><trkpt lat="42.87040290243738" lon="-2.034007948164781"><ele>675.5</ele><time>2026-03-22T12:16:41Z</time></trkpt><trkpt lat="42.87049040931674" lon="-2.033855035848962"><ele>677.75</ele><time>2026-03-22T12:16:42Z</time></trkpt><trkpt lat="42.87061244363095" lon="-2.0337185166045835"><ele>680.0</ele><time>2026-03-22T12:16:43Z</time></trkpt><trkpt lat="42.87072800511516" lon="-2.033603095214789"><ele>680.0</ele><time>2026-03-22T12:16:44Z</time></trkpt><trkpt lat="42.87081014274962" lon="-2.033481230377765"><ele>680.0</ele><time>2026-03-22T12:16:45Z</time></trkpt><trkpt lat="42.87086816916698" lon="-2.0333569006287617"><ele>680.0</ele><time>2026-03-22T12:16:46Z</time></trkpt><trkpt lat="42.870894321310395" lon="-2.033236302152551"><ele>680.0</ele><time>2026-03-22T12:16:47Z</time></trkpt><trkpt lat="42.87089245832749" lon="-2.0331164672716118"><ele>680.0</ele><time>2026-03-22T12:16:48Z</time></trkpt><trkpt lat="42.87083429116034" lon="-2.0330341196953254"><ele>678.2</ele><time>2026-03-22T12:16:49Z</time></trkpt><trkpt lat="42.87075269483078" lon="-2.032975225133101"><ele>676.4</ele><time>2026-03-22T12:16:50Z</time></trkpt><trkpt lat="42.8706561624625" lon="-2.0329209698144717"><ele>674.5999999999999</ele><time>2026-03-22T12:16:51Z</time></trkpt><trkpt lat="42.87054302131966" lon="-2.032883628046209"><ele>672.8</ele><time>2026-03-22T12:16:52Z</time></trkpt><trkpt lat="42.87042775688012" lon="-2.0328638364738794"><ele>671.0</ele><time>2026-03-22T12:16:53Z</time></trkpt><trkpt lat="42.87033064726496" lon="-2.0328348920422856"><ele>671.0</ele><time>2026-03-22T12:16:54Z</time></trkpt><trkpt lat="42.870251514333134" lon="-2.032769590782081"><ele>671.0</ele><time>2026-03-22T12:16:55Z</time></trkpt><trkpt lat="42.87016812226371" lon="-2.0326811855919553"><ele>671.0</ele><time>2026-03-22T12:16:56Z</time></trkpt><trkpt lat="42.87011736739088" lon="-2.0325315814969924"><ele>671.0</ele><time>2026-03-22T12:16:57Z</time></trkpt><trkpt lat="42.87009325978855" lon="-2.0323679867433637"><ele>671.0</ele><time>2026-03-22T12:16:58Z</time></trkpt><trkpt lat="42.87006429866514" lon="-2.0321908316103587"><ele>680.0</ele><time>2026-03-22T12:16:59Z</time></trkpt><trkpt lat="42.870026020364506" lon="-2.0319999654477967"><ele>689.0</ele><time>2026-03-22T12:17:00Z</time></trkpt><trkpt lat="42.869979765845514" lon="-2.0317865313035575"><ele>698.0</ele><time>2026-03-22T12:17:01Z</time></trkpt><trkpt lat="42.86993722776894" lon="-2.031587149484948"><ele>698.0</ele><time>2026-03-22T12:17:02Z</time></trkpt><trkpt lat="42.86989410932148" lon="-2.031371175650924"><ele>698.0</ele><time>2026-03-22T12:17:03Z</time></trkpt><trkpt lat="42.869848481478826" lon="-2.0311426326479447"><ele>698.0</ele><time>2026-03-22T12:17:04Z</time></trkpt><trkpt lat="42.86979908174859" lon="-2.030904821626607"><ele>694.3333333333333</ele><time>2026-03-22T12:17:05Z</time></trkpt><trkpt lat="42.86973971132833" lon="-2.030664329224924"><ele>690.6666666666666</ele><time>2026-03-22T12:17:06Z</time></trkpt><trkpt lat="42.86966388190635" lon="-2.030439544489696"><ele>687.0</ele><time>2026-03-22T12:17:07Z</time></trkpt><trkpt lat="42.86958626587624" lon="-2.0302218792833373"><ele>687.0</ele><time>2026-03-22T12:17:08Z</time></trkpt><trkpt lat="42.869522357781214" lon="-2.0300004031122465"><ele>687.0</ele><time>2026-03-22T12:17:09Z</time></trkpt><trkpt lat="42.86945052750522" lon="-2.029800334782321"><ele>687.0</ele><time>2026-03-22T12:17:10Z</time></trkpt><trkpt lat="42.869381615124034" lon="-2.029606861621849"><ele>687.25</ele><time>2026-03-22T12:17:11Z</time></trkpt><trkpt lat="42.86932059468397" lon="-2.0294150468199663"><ele>687.5</ele><time>2026-03-22T12:17:12Z</time></trkpt><trkpt lat="42.86926273346214" lon="-2.0292222953342343"><ele>687.75</ele><time>2026-03-22T12:17:13Z</time></trkpt><trkpt lat="42.869244842111506" lon="-2.0290310025500817"><ele>688.0</ele><time>2026-03-22T12:17:14Z</time></trkpt><trkpt lat="42.86922699159278" lon="-2.028866516296246"><ele>689.25</ele><time>2026-03-22T12:17:15Z</time></trkpt><trkpt lat="42.86920449851077" lon="-2.028705836849039"><ele>690.5</ele><time>2026-03-22T12:17:16Z</time></trkpt><trkpt lat="42.86917486110491" lon="-2.028534558733304"><ele>691.75</ele><time>2026-03-22T12:17:17Z</time></trkpt><trkpt lat="42.8691007425754" lon="-2.028371231202784"><ele>693.0</ele><time>2026-03-22T12:17:18Z</time></trkpt><trkpt lat="42.86900158878013" lon="-2.028219490706984"><ele>693.0</ele><time>2026-03-22T12:17:19Z</time></trkpt><trkpt lat="42.868888323933305" lon="-2.028078628750536"><ele>693.0</ele><time>2026-03-22T12:17:20Z</time></trkpt><trkpt lat="42.86876636925297" lon="-2.027961931994121"><ele>693.0</ele><time>2026-03-22T12:17:21Z</time></trkpt><trkpt lat="42.868656264114264" lon="-2.0278440243716247"><ele>693.0</ele><time>2026-03-22T12:17:22Z</time></trkpt><trkpt lat="42.868552214211824" lon="-2.027710433576534"><ele>693.0</ele><time>2026-03-22T12:17:23Z</time></trkpt><trkpt lat="42.86847037124521" lon="-2.027563644515868"><ele>693.0</ele><time>2026-03-22T12:17:24Z</time></trkpt><trkpt lat="42.868410832638475" lon="-2.027412787067424"><ele>693.0</ele><time>2026-03-22T12:17:25Z</time></trkpt><trkpt lat="42.86838152271943" lon="-2.02724984819251"><ele>693.0</ele><time>2026-03-22T12:17:25.999Z</time></trkpt><trkpt lat="42.868358343022045" lon="-2.0270816500325157"><ele>697.75</ele><time>2026-03-22T12:17:26.999Z</time></trkpt><trkpt lat="42.86837291104319" lon="-2.0269188624362524"><ele>702.5</ele><time>2026-03-22T12:17:27.999Z</time></trkpt><trkpt lat="42.86838341061008" lon="-2.026753822405425"><ele>707.25</ele><time>2026-03-22T12:17:28.999Z</time></trkpt><trkpt lat="42.868393242382325" lon="-2.026584646187457"><ele>712.0</ele><time>2026-03-22T12:17:29.999Z</time></trkpt><trkpt lat="42.868354912070096" lon="-2.0264269851956382"><ele>712.0</ele><time>2026-03-22T12:17:30.999Z</time></trkpt><trkpt lat="42.86829776701392" lon="-2.0262774403691943"><ele>712.0</ele><time>2026-03-22T12:17:31.999Z</time></trkpt><trkpt lat="42.86823270152454" lon="-2.026148566824956"><ele>712.0</ele><time>2026-03-22T12:17:32.999Z</time></trkpt><trkpt lat="42.86814574608333" lon="-2.026074839314128"><ele>712.0</ele><time>2026-03-22T12:17:33.999Z</time></trkpt><trkpt lat="42.86804119991815" lon="-2.026031359934793"><ele>712.0</ele><time>2026-03-22T12:17:34.999Z</time></trkpt><trkpt lat="42.86793444188143" lon="-2.0259830208401706"><ele>712.0</ele><time>2026-03-22T12:17:35.999Z</time></trkpt><trkpt lat="42.86783118024179" lon="-2.0258926267829085"><ele>712.0</ele><time>2026-03-22T12:17:36.999Z</time></trkpt><trkpt lat="42.867750625002955" lon="-2.025760852987545"><ele>712.0</ele><time>2026-03-22T12:17:37.999Z</time></trkpt><trkpt lat="42.86768908750268" lon="-2.025600715534488"><ele>709.25</ele><time>2026-03-22T12:17:38.999Z</time></trkpt><trkpt lat="42.86763079655701" lon="-2.025416153907243"><ele>706.5</ele><time>2026-03-22T12:17:39.999Z</time></trkpt><trkpt lat="42.86759893698807" lon="-2.0252213356712034"><ele>703.75</ele><time>2026-03-22T12:17:40.999Z</time></trkpt><trkpt lat="42.867576975472296" lon="-2.0250408685217822"><ele>701.0</ele><time>2026-03-22T12:17:41.999Z</time></trkpt><trkpt lat="42.867564803492996" lon="-2.0248602089538803"><ele>707.75</ele><time>2026-03-22T12:17:42.999Z</time></trkpt><trkpt lat="42.86756275362477" lon="-2.0246731823408446"><ele>714.5</ele><time>2026-03-22T12:17:43.999Z</time></trkpt><trkpt lat="42.867567258924375" lon="-2.0244858095624827"><ele>721.25</ele><time>2026-03-22T12:17:44.999Z</time></trkpt><trkpt lat="42.86758453829787" lon="-2.02430935149616"><ele>728.0</ele><time>2026-03-22T12:17:45.999Z</time></trkpt><trkpt lat="42.867611072086646" lon="-2.0241464779493743"><ele>728.0</ele><time>2026-03-22T12:17:46.999Z</time></trkpt><trkpt lat="42.86765771802815" lon="-2.0239786742853574"><ele>728.0</ele><time>2026-03-22T12:17:47.999Z</time></trkpt><trkpt lat="42.867727910250785" lon="-2.0238066614809447"><ele>728.0</ele><time>2026-03-22T12:17:48.999Z</time></trkpt><trkpt lat="42.86781329261822" lon="-2.0236437361516795"><ele>728.0</ele><time>2026-03-22T12:17:49.999Z</time></trkpt><trkpt lat="42.86790412127162" lon="-2.0234952785095306"><ele>728.0</ele><time>2026-03-22T12:17:50.999Z</time></trkpt><trkpt lat="42.867991964480986" lon="-2.0233699923698083"><ele>728.0</ele><time>2026-03-22T12:17:51.999Z</time></trkpt><trkpt lat="42.86807875331012" lon="-2.0232494660384948"><ele>728.0</ele><time>2026-03-22T12:17:52.999Z</time></trkpt><trkpt lat="42.86816054232472" lon="-2.023138495778157"><ele>728.0</ele><time>2026-03-22T12:17:53.999Z</time></trkpt><trkpt lat="42.86821592786434" lon="-2.0230296981814475"><ele>728.8</ele><time>2026-03-22T12:17:54.999Z</time></trkpt><trkpt lat="42.86825465692474" lon="-2.022891611008452"><ele>729.5999999999999</ele><time>2026-03-22T12:17:55.999Z</time></trkpt><trkpt lat="42.86821202246527" lon="-2.0227645772459457"><ele>730.4000000000001</ele><time>2026-03-22T12:17:56.999Z</time></trkpt><trkpt lat="42.86814920429098" lon="-2.0226656727159127"><ele>731.2</ele><time>2026-03-22T12:17:57.999Z</time></trkpt><trkpt lat="42.86806538555082" lon="-2.0225857583118847"><ele>732.0</ele><time>2026-03-22T12:17:58.999Z</time></trkpt><trkpt lat="42.86795212684855" lon="-2.0225133022530417"><ele>735.5</ele><time>2026-03-22T12:17:59.999Z</time></trkpt><trkpt lat="42.86782027267925" lon="-2.0224393626161743"><ele>739.0</ele><time>2026-03-22T12:18:00.999Z</time></trkpt><trkpt lat="42.86768804084272" lon="-2.0223509669671316"><ele>742.5</ele><time>2026-03-22T12:18:01.999Z</time></trkpt><trkpt lat="42.86756513199041" lon="-2.022265120023579"><ele>746.0</ele><time>2026-03-22T12:18:02.999Z</time></trkpt><trkpt lat="42.86744873458337" lon="-2.0221848316149447"><ele>746.0</ele><time>2026-03-22T12:18:03.999Z</time></trkpt><trkpt lat="42.86734108866757" lon="-2.0221059588667463"><ele>746.0</ele><time>2026-03-22T12:18:04.999Z</time></trkpt><trkpt lat="42.867255421362444" lon="-2.0220121777705073"><ele>746.0</ele><time>2026-03-22T12:18:05.999Z</time></trkpt><trkpt lat="42.867206768607886" lon="-2.0218987013412755"><ele>746.0</ele><time>2026-03-22T12:18:06.999Z</time></trkpt><trkpt lat="42.867197943691885" lon="-2.0217775046167583"><ele>746.0</ele><time>2026-03-22T12:18:07.999Z</time></trkpt><trkpt lat="42.8672124673782" lon="-2.021638554812645"><ele>745.5</ele><time>2026-03-22T12:18:08.999Z</time></trkpt><trkpt lat="42.8672452761255" lon="-2.0214866395078492"><ele>745.0</ele><time>2026-03-22T12:18:09.999Z</time></trkpt><trkpt lat="42.86729301525945" lon="-2.0213051068230263"><ele>744.5</ele><time>2026-03-22T12:18:10.999Z</time></trkpt><trkpt lat="42.86730919006024" lon="-2.021119490261366"><ele>744.0</ele><time>2026-03-22T12:18:11.999Z</time></trkpt><trkpt lat="42.867289852972384" lon="-2.0209444019632863"><ele>744.25</ele><time>2026-03-22T12:18:12.999Z</time></trkpt><trkpt lat="42.867252734861424" lon="-2.0207792395769673"><ele>744.5</ele><time>2026-03-22T12:18:13.999Z</time></trkpt><trkpt lat="42.867212932697086" lon="-2.02060784153716"><ele>744.75</ele><time>2026-03-22T12:18:14.999Z</time></trkpt><trkpt lat="42.867188638040105" lon="-2.0204303892709508"><ele>745.0</ele><time>2026-03-22T12:18:15.999Z</time></trkpt><trkpt lat="42.867177788612" lon="-2.020246863010808"><ele>745.0</ele><time>2026-03-22T12:18:16.999Z</time></trkpt><trkpt lat="42.86714995185654" lon="-2.02006811874293"><ele>745.0</ele><time>2026-03-22T12:18:17.999Z</time></trkpt><trkpt lat="42.867138053516115" lon="-2.019895325333878"><ele>745.0</ele><time>2026-03-22T12:18:18.999Z</time></trkpt><trkpt lat="42.86711580966287" lon="-2.019740286909253"><ele>745.0</ele><time>2026-03-22T12:18:19.999Z</time></trkpt><trkpt lat="42.8670449576744" lon="-2.0196167042864315"><ele>743.75</ele><time>2026-03-22T12:18:20.999Z</time></trkpt><trkpt lat="42.86696308998605" lon="-2.019504266192699"><ele>742.5</ele><time>2026-03-22T12:18:21.999Z</time></trkpt><trkpt lat="42.866872307450265" lon="-2.0193816656368258"><ele>741.25</ele><time>2026-03-22T12:18:22.999Z</time></trkpt><trkpt lat="42.8667950890226" lon="-2.0192496029933387"><ele>740.0</ele><time>2026-03-22T12:18:23.998Z</time></trkpt><trkpt lat="42.86675355923873" lon="-2.0191076782715878"><ele>746.5</ele><time>2026-03-22T12:18:24.998Z</time></trkpt><trkpt lat="42.86670460039849" lon="-2.0189554258565194"><ele>753.0</ele><time>2026-03-22T12:18:25.998Z</time></trkpt><trkpt lat="42.86670919888408" lon="-2.0187870756897786"><ele>759.5</ele><time>2026-03-22T12:18:26.998Z</time></trkpt><trkpt lat="42.86671989266122" lon="-2.0186376483963895"><ele>766.0</ele><time>2026-03-22T12:18:27.998Z</time></trkpt><trkpt lat="42.866727617759025" lon="-2.0184917868892103"><ele>766.0</ele><time>2026-03-22T12:18:28.998Z</time></trkpt><trkpt lat="42.86671294651661" lon="-2.0183460496275476"><ele>766.0</ele><time>2026-03-22T12:18:29.998Z</time></trkpt><trkpt lat="42.86668618375402" lon="-2.018189457652302"><ele>766.0</ele><time>2026-03-22T12:18:30.998Z</time></trkpt><trkpt lat="42.866604586328634" lon="-2.0180678339442153"><ele>766.0</ele><time>2026-03-22T12:18:31.998Z</time></trkpt><trkpt lat="42.8665258362055" lon="-2.0179522779029844"><ele>765.5999999999999</ele><time>2026-03-22T12:18:32.998Z</time></trkpt><trkpt lat="42.866454729654244" lon="-2.017831134287757"><ele>765.2</ele><time>2026-03-22T12:18:33.998Z</time></trkpt><trkpt lat="42.86640312015962" lon="-2.0177084328664185"><ele>764.8</ele><time>2026-03-22T12:18:34.998Z</time></trkpt><trkpt lat="42.86636245324213" lon="-2.017579176107431"><ele>764.4000000000001</ele><time>2026-03-22T12:18:35.998Z</time></trkpt><trkpt lat="42.866359126800916" lon="-2.017434487478718"><ele>764.0</ele><time>2026-03-22T12:18:36.998Z</time></trkpt><trkpt lat="42.866392491807524" lon="-2.017290196757862"><ele>765.6</ele><time>2026-03-22T12:18:37.998Z</time></trkpt><trkpt lat="42.86646092143234" lon="-2.0171670012872793"><ele>767.2</ele><time>2026-03-22T12:18:38.998Z</time></trkpt><trkpt lat="42.86654776790039" lon="-2.0170719786453013"><ele>768.8000000000001</ele><time>2026-03-22T12:18:39.998Z</time></trkpt><trkpt lat="42.86663723086207" lon="-2.0169909513236948"><ele>770.4000000000001</ele><time>2026-03-22T12:18:40.998Z</time></trkpt><trkpt lat="42.86672353358428" lon="-2.0169202456421362"><ele>772.0</ele><time>2026-03-22T12:18:41.998Z</time></trkpt><trkpt lat="42.8667984814959" lon="-2.016846527879191"><ele>772.0</ele><time>2026-03-22T12:18:43Z</time></trkpt><trkpt lat="42.86685324057978" lon="-2.016780976904162"><ele>772.0</ele><time>2026-03-22T12:18:44Z</time></trkpt><trkpt lat="42.86689831893806" lon="-2.0166558631573266"><ele>772.0</ele><time>2026-03-22T12:18:46Z</time></trkpt><trkpt lat="42.86681753802207" lon="-2.016562748693933"><ele>772.0</ele><time>2026-03-22T12:18:48Z</time></trkpt><trkpt lat="42.86671182871379" lon="-2.016634481928612"><ele>772.0</ele><time>2026-03-22T12:18:50Z</time></trkpt><trkpt lat="42.86664493859854" lon="-2.0167229175206614"><ele>772.0</ele><time>2026-03-22T12:18:51Z</time></trkpt><trkpt lat="42.866555246468984" lon="-2.016850854958325"><ele>772.0</ele><time>2026-03-22T12:18:52Z</time></trkpt><trkpt lat="42.866441555912786" lon="-2.016987432138555"><ele>772.0</ele><time>2026-03-22T12:18:53Z</time></trkpt><trkpt lat="42.86631846189419" lon="-2.0170977478295757"><ele>772.0</ele><time>2026-03-22T12:18:54Z</time></trkpt><trkpt lat="42.866208234487566" lon="-2.0172103506156356"><ele>772.0</ele><time>2026-03-22T12:18:55Z</time></trkpt><trkpt lat="42.86613167099449" lon="-2.0173480831368944"><ele>772.0</ele><time>2026-03-22T12:18:56Z</time></trkpt><trkpt lat="42.8661075947312" lon="-2.017494788466833"><ele>772.0</ele><time>2026-03-22T12:18:57Z</time></trkpt><trkpt lat="42.866132280747166" lon="-2.017650474269717"><ele>772.0</ele><time>2026-03-22T12:18:58Z</time></trkpt><trkpt lat="42.8661592803604" lon="-2.017828033762869"><ele>770.5</ele><time>2026-03-22T12:18:59Z</time></trkpt><trkpt lat="42.866217741113275" lon="-2.018011593809863"><ele>769.0</ele><time>2026-03-22T12:19:00Z</time></trkpt><trkpt lat="42.8662610041114" lon="-2.0182073636524263"><ele>767.5</ele><time>2026-03-22T12:19:01Z</time></trkpt><trkpt lat="42.86626126156636" lon="-2.0183875812863774"><ele>766.0</ele><time>2026-03-22T12:19:02Z</time></trkpt><trkpt lat="42.86622508740417" lon="-2.0185713286703035"><ele>766.0</ele><time>2026-03-22T12:19:03Z</time></trkpt><trkpt lat="42.866159137783015" lon="-2.0187620629184275"><ele>766.0</ele><time>2026-03-22T12:19:04Z</time></trkpt><trkpt lat="42.86606466800191" lon="-2.018949670109578"><ele>766.0</ele><time>2026-03-22T12:19:05Z</time></trkpt><trkpt lat="42.86595985004512" lon="-2.019147977377518"><ele>776.3333333333334</ele><time>2026-03-22T12:19:06Z</time></trkpt><trkpt lat="42.86587509969234" lon="-2.0193847118763175"><ele>786.6666666666667</ele><time>2026-03-22T12:19:07Z</time></trkpt><trkpt lat="42.865827203198954" lon="-2.0196356891821226"><ele>797.0</ele><time>2026-03-22T12:19:08Z</time></trkpt><trkpt lat="42.86582219879539" lon="-2.019916375512231"><ele>797.0</ele><time>2026-03-22T12:19:09Z</time></trkpt><trkpt lat="42.8658421895534" lon="-2.0202254975440668"><ele>797.0</ele><time>2026-03-22T12:19:10Z</time></trkpt><trkpt lat="42.865862464759715" lon="-2.020569291510387"><ele>799.5</ele><time>2026-03-22T12:19:11Z</time></trkpt><trkpt lat="42.86587230620614" lon="-2.020944860468153"><ele>802.0</ele><time>2026-03-22T12:19:12Z</time></trkpt><trkpt lat="42.86586479624158" lon="-2.02130193256913"><ele>802.0</ele><time>2026-03-22T12:19:13Z</time></trkpt><trkpt lat="42.86585460912947" lon="-2.0216313008556015"><ele>802.0</ele><time>2026-03-22T12:19:14Z</time></trkpt><trkpt lat="42.86586248099571" lon="-2.0219259638104856"><ele>802.3333333333333</ele><time>2026-03-22T12:19:15Z</time></trkpt><trkpt lat="42.86589043972903" lon="-2.0221767029417053"><ele>802.6666666666667</ele><time>2026-03-22T12:19:16Z</time></trkpt><trkpt lat="42.86592425064389" lon="-2.0223908628521166"><ele>803.0</ele><time>2026-03-22T12:19:17Z</time></trkpt><trkpt lat="42.86596727380409" lon="-2.0225824185354835"><ele>798.5</ele><time>2026-03-22T12:19:18Z</time></trkpt><trkpt lat="42.86604531308388" lon="-2.022743847624409"><ele>794.0</ele><time>2026-03-22T12:19:19Z</time></trkpt><trkpt lat="42.86614927723424" lon="-2.0228795243563447"><ele>789.5</ele><time>2026-03-22T12:19:20Z</time></trkpt><trkpt lat="42.866263608903395" lon="-2.0230057845948957"><ele>785.0</ele><time>2026-03-22T12:19:21Z</time></trkpt><trkpt lat="42.866346035327936" lon="-2.023145015415854"><ele>785.0</ele><time>2026-03-22T12:19:21.999Z</time></trkpt><trkpt lat="42.86639099431269" lon="-2.023301780216967"><ele>785.0</ele><time>2026-03-22T12:19:22.999Z</time></trkpt><trkpt lat="42.866406676648715" lon="-2.023453036282051"><ele>785.0</ele><time>2026-03-22T12:19:23.999Z</time></trkpt><trkpt lat="42.866389863790694" lon="-2.0236119019118797"><ele>785.0</ele><time>2026-03-22T12:19:24.999Z</time></trkpt><trkpt lat="42.86633871600355" lon="-2.023774800598362"><ele>785.3333333333334</ele><time>2026-03-22T12:19:25.999Z</time></trkpt><trkpt lat="42.86626149206332" lon="-2.023941239473429"><ele>785.6666666666667</ele><time>2026-03-22T12:19:26.999Z</time></trkpt><trkpt lat="42.86617371898916" lon="-2.0241177109409216"><ele>786.0</ele><time>2026-03-22T12:19:27.999Z</time></trkpt><trkpt lat="42.86607770960074" lon="-2.0243098908308608"><ele>786.0</ele><time>2026-03-22T12:19:28.999Z</time></trkpt><trkpt lat="42.8659812777926" lon="-2.0245170779382096"><ele>786.0</ele><time>2026-03-22T12:19:29.999Z</time></trkpt><trkpt lat="42.86588384021826" lon="-2.0247264887947996"><ele>786.0</ele><time>2026-03-22T12:19:30.999Z</time></trkpt><trkpt lat="42.86579199045186" lon="-2.024922560868908"><ele>795.6666666666667</ele><time>2026-03-22T12:19:31.999Z</time></trkpt><trkpt lat="42.86573196132713" lon="-2.0251447461012058"><ele>805.3333333333334</ele><time>2026-03-22T12:19:32.999Z</time></trkpt><trkpt lat="42.8657008927753" lon="-2.0254078243704416"><ele>815.0</ele><time>2026-03-22T12:19:33.999Z</time></trkpt><trkpt lat="42.86568370432185" lon="-2.0256959668006225"><ele>814.0</ele><time>2026-03-22T12:19:34.999Z</time></trkpt><trkpt lat="42.865651080578544" lon="-2.0259892951374785"><ele>813.0</ele><time>2026-03-22T12:19:35.999Z</time></trkpt><trkpt lat="42.865612727154655" lon="-2.026301578014257"><ele>813.0</ele><time>2026-03-22T12:19:36.999Z</time></trkpt><trkpt lat="42.86557564946249" lon="-2.0266131469406456"><ele>813.0</ele><time>2026-03-22T12:19:37.999Z</time></trkpt><trkpt lat="42.86553471039911" lon="-2.026892101246809"><ele>813.0</ele><time>2026-03-22T12:19:38.999Z</time></trkpt><trkpt lat="42.86549643370088" lon="-2.0271531817395574"><ele>811.6666666666667</ele><time>2026-03-22T12:19:39.999Z</time></trkpt><trkpt lat="42.86546992954635" lon="-2.0273993744823815"><ele>810.3333333333334</ele><time>2026-03-22T12:19:40.999Z</time></trkpt><trkpt lat="42.865476022748275" lon="-2.0276364129856654"><ele>809.0</ele><time>2026-03-22T12:19:41.999Z</time></trkpt><trkpt lat="42.86551470774048" lon="-2.0278862980473575"><ele>808.0</ele><time>2026-03-22T12:19:42.999Z</time></trkpt><trkpt lat="42.86556636761301" lon="-2.0281525205933755"><ele>807.0</ele><time>2026-03-22T12:19:43.999Z</time></trkpt><trkpt lat="42.86562185091584" lon="-2.0284321168505213"><ele>806.0</ele><time>2026-03-22T12:19:44.999Z</time></trkpt><trkpt lat="42.865677266817386" lon="-2.0287262340834684"><ele>811.5</ele><time>2026-03-22T12:19:45.999Z</time></trkpt><trkpt lat="42.86572724882131" lon="-2.0290318409662413"><ele>817.0</ele><time>2026-03-22T12:19:46.999Z</time></trkpt><trkpt lat="42.865791933000565" lon="-2.0293203804866726"><ele>819.6666666666666</ele><time>2026-03-22T12:19:47.999Z</time></trkpt><trkpt lat="42.865854075810674" lon="-2.029576477744487"><ele>822.3333333333333</ele><time>2026-03-22T12:19:48.999Z</time></trkpt><trkpt lat="42.86591728036577" lon="-2.0298061701189263"><ele>825.0</ele><time>2026-03-22T12:19:49.999Z</time></trkpt><trkpt lat="42.865989537261974" lon="-2.030027583575272"><ele>820.25</ele><time>2026-03-22T12:19:50.999Z</time></trkpt><trkpt lat="42.86606812108896" lon="-2.030230873707098"><ele>815.5</ele><time>2026-03-22T12:19:51.999Z</time></trkpt><trkpt lat="42.86613458771525" lon="-2.0303768198956087"><ele>810.75</ele><time>2026-03-22T12:19:52.999Z</time></trkpt><trkpt lat="42.86619283596487" lon="-2.0305618429613257"><ele>806.0</ele><time>2026-03-22T12:19:53.999Z</time></trkpt><trkpt lat="42.866232457149046" lon="-2.0306803815514947"><ele>806.0000000000001</ele><time>2026-03-22T12:19:54.999Z</time></trkpt><trkpt lat="42.86624575658765" lon="-2.0307738544577263"><ele>806.0</ele><time>2026-03-22T12:19:55.999Z</time></trkpt><trkpt lat="42.866190427726025" lon="-2.0308938978279074"><ele>806.0</ele><time>2026-03-22T12:19:57.999Z</time></trkpt><trkpt lat="42.866066718839264" lon="-2.0308628721393163"><ele>806.0</ele><time>2026-03-22T12:19:59.999Z</time></trkpt><trkpt lat="42.86602350102075" lon="-2.0307922993547387"><ele>806.0000000000001</ele><time>2026-03-22T12:20:00.999Z</time></trkpt><trkpt lat="42.86599205029746" lon="-2.0306946742378145"><ele>806.0</ele><time>2026-03-22T12:20:01.999Z</time></trkpt><trkpt lat="42.86595746153723" lon="-2.030563246252835"><ele>819.0</ele><time>2026-03-22T12:20:02.999Z</time></trkpt><trkpt lat="42.86589999045972" lon="-2.030415443100789"><ele>832.0</ele><time>2026-03-22T12:20:03.999Z</time></trkpt><trkpt lat="42.865823282370684" lon="-2.0302362436228383"><ele>845.0</ele><time>2026-03-22T12:20:04.999Z</time></trkpt><trkpt lat="42.86573097396957" lon="-2.0300217843012276"><ele>838.3333333333334</ele><time>2026-03-22T12:20:05.999Z</time></trkpt><trkpt lat="42.86563945208763" lon="-2.029785332643155"><ele>831.6666666666667</ele><time>2026-03-22T12:20:06.999Z</time></trkpt><trkpt lat="42.86556360886734" lon="-2.0295636374517625"><ele>825.0</ele><time>2026-03-22T12:20:07.999Z</time></trkpt><trkpt lat="42.865487788989576" lon="-2.029319221885398"><ele>822.3333333333333</ele><time>2026-03-22T12:20:08.999Z</time></trkpt><trkpt lat="42.86540645260491" lon="-2.029069685229681"><ele>819.6666666666666</ele><time>2026-03-22T12:20:09.999Z</time></trkpt><trkpt lat="42.865312874712664" lon="-2.0288225046406385"><ele>817.0</ele><time>2026-03-22T12:20:10.999Z</time></trkpt><trkpt lat="42.86521090690332" lon="-2.0285929839034815"><ele>817.0</ele><time>2026-03-22T12:20:11.999Z</time></trkpt><trkpt lat="42.86511258406539" lon="-2.0283839285516643"><ele>817.0</ele><time>2026-03-22T12:20:12.999Z</time></trkpt><trkpt lat="42.86502318939111" lon="-2.0281659362275617"><ele>817.0</ele><time>2026-03-22T12:20:13.999Z</time></trkpt><trkpt lat="42.86495756262589" lon="-2.0279119231130767"><ele>828.3333333333333</ele><time>2026-03-22T12:20:14.999Z</time></trkpt><trkpt lat="42.86491599546981" lon="-2.027625553553277"><ele>839.6666666666667</ele><time>2026-03-22T12:20:15.999Z</time></trkpt><trkpt lat="42.864883818691304" lon="-2.0273398910790235"><ele>851.0</ele><time>2026-03-22T12:20:16.998Z</time></trkpt><trkpt lat="42.864829320426786" lon="-2.027101314900323"><ele>851.0</ele><time>2026-03-22T12:20:17.998Z</time></trkpt><trkpt lat="42.86478404985154" lon="-2.0268609913697526"><ele>851.0</ele><time>2026-03-22T12:20:18.998Z</time></trkpt><trkpt lat="42.86473675772337" lon="-2.026620210580457"><ele>851.0</ele><time>2026-03-22T12:20:19.998Z</time></trkpt><trkpt lat="42.86467719295926" lon="-2.0263982572438195"><ele>851.0</ele><time>2026-03-22T12:20:20.998Z</time></trkpt><trkpt lat="42.86464268546765" lon="-2.026167934027214"><ele>851.0</ele><time>2026-03-22T12:20:21.998Z</time></trkpt><trkpt lat="42.864626634695206" lon="-2.025903676145841"><ele>851.0</ele><time>2026-03-22T12:20:22.998Z</time></trkpt><trkpt lat="42.86460755930755" lon="-2.0256089615842243"><ele>851.6666666666667</ele><time>2026-03-22T12:20:23.998Z</time></trkpt><trkpt lat="42.86460456020758" lon="-2.0252870095045905"><ele>852.3333333333333</ele><time>2026-03-22T12:20:24.998Z</time></trkpt><trkpt lat="42.86460538733753" lon="-2.0249998124926294"><ele>853.0</ele><time>2026-03-22T12:20:25.998Z</time></trkpt><trkpt lat="42.86461224483549" lon="-2.0247372729520086"><ele>854.0</ele><time>2026-03-22T12:20:26.998Z</time></trkpt><trkpt lat="42.86462149594605" lon="-2.024497421263484"><ele>855.0</ele><time>2026-03-22T12:20:27.998Z</time></trkpt><trkpt lat="42.86463467501212" lon="-2.0242868920151027"><ele>856.0</ele><time>2026-03-22T12:20:28.998Z</time></trkpt><trkpt lat="42.86463794913748" lon="-2.0241136235297703"><ele>853.5</ele><time>2026-03-22T12:20:29.998Z</time></trkpt><trkpt lat="42.864612033819895" lon="-2.02395173835788"><ele>851.0</ele><time>2026-03-22T12:20:30.998Z</time></trkpt><trkpt lat="42.86453708752524" lon="-2.0237681672266086"><ele>848.5</ele><time>2026-03-22T12:20:31.998Z</time></trkpt><trkpt lat="42.86445349027628" lon="-2.0235915595580516"><ele>846.0</ele><time>2026-03-22T12:20:32.998Z</time></trkpt><trkpt lat="42.864378109904955" lon="-2.0233797305694416"><ele>843.0</ele><time>2026-03-22T12:20:33.998Z</time></trkpt><trkpt lat="42.864301323986496" lon="-2.023138237018592"><ele>840.0</ele><time>2026-03-22T12:20:34.998Z</time></trkpt><trkpt lat="42.86423505100299" lon="-2.022865576378908"><ele>837.0</ele><time>2026-03-22T12:20:35.998Z</time></trkpt><trkpt lat="42.86414512665195" lon="-2.022608644697349"><ele>848.6666666666667</ele><time>2026-03-22T12:20:36.998Z</time></trkpt><trkpt lat="42.86408004518509" lon="-2.022372597636342"><ele>860.3333333333334</ele><time>2026-03-22T12:20:37.998Z</time></trkpt><trkpt lat="42.864015945821016" lon="-2.0221385911625687"><ele>872.0</ele><time>2026-03-22T12:20:38.998Z</time></trkpt><trkpt lat="42.863947973504025" lon="-2.021890138030638"><ele>872.0</ele><time>2026-03-22T12:20:39.998Z</time></trkpt><trkpt lat="42.86387419245857" lon="-2.0216537193234956"><ele>872.0</ele><time>2026-03-22T12:20:40.998Z</time></trkpt><trkpt lat="42.86378885211804" lon="-2.0214039806054718"><ele>872.0</ele><time>2026-03-22T12:20:41.998Z</time></trkpt><trkpt lat="42.86373543391321" lon="-2.0211348711103247"><ele>869.0</ele><time>2026-03-22T12:20:42.998Z</time></trkpt><trkpt lat="42.86369871405211" lon="-2.020853903126919"><ele>866.0</ele><time>2026-03-22T12:20:43.998Z</time></trkpt><trkpt lat="42.86367672852239" lon="-2.020546722899419"><ele>863.0</ele><time>2026-03-22T12:20:44.998Z</time></trkpt><trkpt lat="42.86367044606973" lon="-2.0202172733667165"><ele>865.5</ele><time>2026-03-22T12:20:45.998Z</time></trkpt><trkpt lat="42.86366173606277" lon="-2.0198842244796227"><ele>868.0</ele><time>2026-03-22T12:20:46.998Z</time></trkpt><trkpt lat="42.86366803280232" lon="-2.0195566931877473"><ele>868.0</ele><time>2026-03-22T12:20:47.998Z</time></trkpt><trkpt lat="42.863686356906385" lon="-2.019235237342806"><ele>868.0</ele><time>2026-03-22T12:20:49Z</time></trkpt><trkpt lat="42.863703597365266" lon="-2.01891509377572"><ele>870.0</ele><time>2026-03-22T12:20:50Z</time></trkpt><trkpt lat="42.86371561550797" lon="-2.0186149016056825"><ele>872.0</ele><time>2026-03-22T12:20:51Z</time></trkpt><trkpt lat="42.86372296821763" lon="-2.018336588803576"><ele>874.0</ele><time>2026-03-22T12:20:52Z</time></trkpt><trkpt lat="42.86372788747928" lon="-2.018077767988383"><ele>874.0</ele><time>2026-03-22T12:20:53Z</time></trkpt><trkpt lat="42.86373181704397" lon="-2.0178195486450745"><ele>874.0</ele><time>2026-03-22T12:20:54Z</time></trkpt><trkpt lat="42.86373811094448" lon="-2.017564080959675"><ele>874.0</ele><time>2026-03-22T12:20:55Z</time></trkpt><trkpt lat="42.86373980106862" lon="-2.017326369931228"><ele>874.6666666666666</ele><time>2026-03-22T12:20:56Z</time></trkpt><trkpt lat="42.86373405782526" lon="-2.017106460751523"><ele>875.3333333333333</ele><time>2026-03-22T12:20:57Z</time></trkpt><trkpt lat="42.86371732596428" lon="-2.0168936089054914"><ele>876.0</ele><time>2026-03-22T12:20:58Z</time></trkpt><trkpt lat="42.863683864980494" lon="-2.016670136183868"><ele>873.6666666666667</ele><time>2026-03-22T12:20:59Z</time></trkpt><trkpt lat="42.86363283266227" lon="-2.0164250697707926"><ele>871.3333333333334</ele><time>2026-03-22T12:21:00Z</time></trkpt><trkpt lat="42.863570807316705" lon="-2.0161827311236618"><ele>869.0</ele><time>2026-03-22T12:21:01Z</time></trkpt><trkpt lat="42.863490044076876" lon="-2.0159486600333913"><ele>881.6666666666667</ele><time>2026-03-22T12:21:02Z</time></trkpt><trkpt lat="42.86339975947135" lon="-2.0157139530993833"><ele>894.3333333333333</ele><time>2026-03-22T12:21:03Z</time></trkpt><trkpt lat="42.863308427222805" lon="-2.0154906120351077"><ele>907.0</ele><time>2026-03-22T12:21:04Z</time></trkpt><trkpt lat="42.863231417795426" lon="-2.0152704948282474"><ele>907.0</ele><time>2026-03-22T12:21:05Z</time></trkpt><trkpt lat="42.863164448355846" lon="-2.015040767798344"><ele>907.0</ele><time>2026-03-22T12:21:06Z</time></trkpt><trkpt lat="42.86310875741047" lon="-2.0147992842500644"><ele>907.0</ele><time>2026-03-22T12:21:07Z</time></trkpt><trkpt lat="42.86307111871802" lon="-2.014570905161214"><ele>905.6666666666666</ele><time>2026-03-22T12:21:08Z</time></trkpt><trkpt lat="42.86305372154208" lon="-2.014349138609881"><ele>904.3333333333333</ele><time>2026-03-22T12:21:09Z</time></trkpt><trkpt lat="42.86306817115597" lon="-2.0141173932604186"><ele>903.0</ele><time>2026-03-22T12:21:10Z</time></trkpt><trkpt lat="42.86311362266901" lon="-2.0138872783421213"><ele>906.6666666666667</ele><time>2026-03-22T12:21:11Z</time></trkpt><trkpt lat="42.863176533604516" lon="-2.0136565872432954"><ele>910.3333333333334</ele><time>2026-03-22T12:21:12Z</time></trkpt><trkpt lat="42.863229950437585" lon="-2.0134417779367286"><ele>914.0</ele><time>2026-03-22T12:21:13Z</time></trkpt><trkpt lat="42.86327324276621" lon="-2.013230663014131"><ele>914.6666666666667</ele><time>2026-03-22T12:21:14Z</time></trkpt><trkpt lat="42.86329621445076" lon="-2.0129927076143947"><ele>915.3333333333333</ele><time>2026-03-22T12:21:15Z</time></trkpt><trkpt lat="42.86330797597518" lon="-2.012728264158111"><ele>916.0</ele><time>2026-03-22T12:21:16Z</time></trkpt><trkpt lat="42.863305646296496" lon="-2.0124311574322853"><ele>913.5</ele><time>2026-03-22T12:21:17Z</time></trkpt><trkpt lat="42.863290485824905" lon="-2.0121033343634975"><ele>911.0</ele><time>2026-03-22T12:21:18Z</time></trkpt><trkpt lat="42.863268812316576" lon="-2.0117582292912943"><ele>911.5</ele><time>2026-03-22T12:21:19Z</time></trkpt><trkpt lat="42.86323855411647" lon="-2.011433148146921"><ele>912.0</ele><time>2026-03-22T12:21:20Z</time></trkpt><trkpt lat="42.86320820201745" lon="-2.0111081629127163"><ele>917.0</ele><time>2026-03-22T12:21:21Z</time></trkpt><trkpt lat="42.863205198754784" lon="-2.0107563521267404"><ele>922.0</ele><time>2026-03-22T12:21:22Z</time></trkpt><trkpt lat="42.863217088544445" lon="-2.0103968003524284"><ele>922.0</ele><time>2026-03-22T12:21:23Z</time></trkpt><trkpt lat="42.863229851119485" lon="-2.010043853127899"><ele>922.0</ele><time>2026-03-22T12:21:24Z</time></trkpt><trkpt lat="42.863241792672646" lon="-2.0097311461678147"><ele>923.3333333333333</ele><time>2026-03-22T12:21:25Z</time></trkpt><trkpt lat="42.86326059323692" lon="-2.009427597312143"><ele>924.6666666666667</ele><time>2026-03-22T12:21:26Z</time></trkpt><trkpt lat="42.863280912879105" lon="-2.0091435169352954"><ele>926.0</ele><time>2026-03-22T12:21:27Z</time></trkpt><trkpt lat="42.86329195954149" lon="-2.0088812918737746"><ele>928.3333333333334</ele><time>2026-03-22T12:21:28Z</time></trkpt><trkpt lat="42.86329494928991" lon="-2.0086193812188737"><ele>930.6666666666667</ele><time>2026-03-22T12:21:29Z</time></trkpt><trkpt lat="42.86328979518532" lon="-2.008342808743345"><ele>933.0</ele><time>2026-03-22T12:21:30Z</time></trkpt><trkpt lat="42.86326717347525" lon="-2.00806438275359"><ele>933.3333333333333</ele><time>2026-03-22T12:21:31Z</time></trkpt><trkpt lat="42.86323325515124" lon="-2.0077908245974005"><ele>933.6666666666666</ele><time>2026-03-22T12:21:32Z</time></trkpt><trkpt lat="42.863187152377684" lon="-2.0075207025877937"><ele>934.0</ele><time>2026-03-22T12:21:32.999Z</time></trkpt><trkpt lat="42.8631721416558" lon="-2.007253787413718"><ele>934.0</ele><time>2026-03-22T12:21:33.999Z</time></trkpt><trkpt lat="42.86317246961828" lon="-2.0070454845103916"><ele>934.0000000000001</ele><time>2026-03-22T12:21:34.999Z</time></trkpt><trkpt lat="42.86317389215957" lon="-2.0068909017654417"><ele>934.0000000000001</ele><time>2026-03-22T12:21:35.999Z</time></trkpt><trkpt lat="42.86317518554063" lon="-2.006773937126368"><ele>934.0</ele><time>2026-03-22T12:21:36.999Z</time></trkpt><trkpt lat="42.86317353944591" lon="-2.0066725967394916"><ele>934.0</ele><time>2026-03-22T12:21:37.999Z</time></trkpt><trkpt lat="42.86317085906066" lon="-2.0065075811094912"><ele>935.8000000000001</ele><time>2026-03-22T12:21:39.999Z</time></trkpt><trkpt lat="42.86318942983838" lon="-2.0063421527784016"><ele>937.6000000000001</ele><time>2026-03-22T12:21:41.999Z</time></trkpt><trkpt lat="42.863186214382004" lon="-2.0062559466019234"><ele>939.4</ele><time>2026-03-22T12:21:42.999Z</time></trkpt><trkpt lat="42.86321515286135" lon="-2.0061017362836564"><ele>941.2</ele><time>2026-03-22T12:21:44.999Z</time></trkpt><trkpt lat="42.863239007006925" lon="-2.005924491137834"><ele>943.0</ele><time>2026-03-22T12:21:46.999Z</time></trkpt><trkpt lat="42.86325910322597" lon="-2.0058107525557114"><ele>946.4</ele><time>2026-03-22T12:21:47.999Z</time></trkpt><trkpt lat="42.86328658427635" lon="-2.0056782864539664"><ele>949.8</ele><time>2026-03-22T12:21:48.999Z</time></trkpt><trkpt lat="42.86330443989646" lon="-2.0055443869134004"><ele>953.2</ele><time>2026-03-22T12:21:49.999Z</time></trkpt><trkpt lat="42.86332390654864" lon="-2.0054157939804425"><ele>956.6</ele><time>2026-03-22T12:21:50.999Z</time></trkpt><trkpt lat="42.86334876572616" lon="-2.0052872116912366"><ele>960.0</ele><time>2026-03-22T12:21:51.999Z</time></trkpt><trkpt lat="42.86337573595673" lon="-2.005152676930107"><ele>960.0</ele><time>2026-03-22T12:21:52.999Z</time></trkpt><trkpt lat="42.863401385097234" lon="-2.0050043864886837"><ele>960.0</ele><time>2026-03-22T12:21:53.999Z</time></trkpt><trkpt lat="42.86343226809721" lon="-2.0048453807669917"><ele>960.0</ele><time>2026-03-22T12:21:54.999Z</time></trkpt><trkpt lat="42.86343658642808" lon="-2.0046633823340962"><ele>960.0</ele><time>2026-03-22T12:21:55.999Z</time></trkpt><trkpt lat="42.86345300673799" lon="-2.004467633534835"><ele>963.0</ele><time>2026-03-22T12:21:56.999Z</time></trkpt><trkpt lat="42.863446340430905" lon="-2.0042683017614658"><ele>966.0</ele><time>2026-03-22T12:21:57.999Z</time></trkpt><trkpt lat="42.863434278539515" lon="-2.0040604887748117"><ele>969.0</ele><time>2026-03-22T12:21:58.999Z</time></trkpt><trkpt lat="42.863428144053614" lon="-2.0038470365333576"><ele>970.5</ele><time>2026-03-22T12:21:59.999Z</time></trkpt><trkpt lat="42.863433288147476" lon="-2.0036662306458264"><ele>972.0</ele><time>2026-03-22T12:22:00.999Z</time></trkpt><trkpt lat="42.863419622479825" lon="-2.0034815055986237"><ele>973.5</ele><time>2026-03-22T12:22:01.999Z</time></trkpt><trkpt lat="42.8634277455938" lon="-2.003278964088629"><ele>975.0</ele><time>2026-03-22T12:22:02.999Z</time></trkpt><trkpt lat="42.863440455857265" lon="-2.0030663238412485"><ele>966.0</ele><time>2026-03-22T12:22:03.999Z</time></trkpt><trkpt lat="42.86345628493745" lon="-2.00285522475239"><ele>957.0</ele><time>2026-03-22T12:22:04.999Z</time></trkpt><trkpt lat="42.86347172430613" lon="-2.002649322893323"><ele>948.0</ele><time>2026-03-22T12:22:05.999Z</time></trkpt><trkpt lat="42.86349123521812" lon="-2.002450606456207"><ele>948.0</ele><time>2026-03-22T12:22:06.999Z</time></trkpt><trkpt lat="42.86352296390247" lon="-2.0022628370471263"><ele>948.0</ele><time>2026-03-22T12:22:07.999Z</time></trkpt><trkpt lat="42.863584772882994" lon="-2.00207484733439"><ele>948.0</ele><time>2026-03-22T12:22:08.999Z</time></trkpt><trkpt lat="42.863656015713275" lon="-2.0019054227301076"><ele>948.0</ele><time>2026-03-22T12:22:09.999Z</time></trkpt><trkpt lat="42.863732475750936" lon="-2.0017243533986777"><ele>950.0</ele><time>2026-03-22T12:22:10.999Z</time></trkpt><trkpt lat="42.86379532028127" lon="-2.0015501468520465"><ele>952.0</ele><time>2026-03-22T12:22:11.999Z</time></trkpt><trkpt lat="42.86381361273744" lon="-2.0013532433460375"><ele>954.0</ele><time>2026-03-22T12:22:12.999Z</time></trkpt><trkpt lat="42.8638255445113" lon="-2.001115812314769"><ele>955.3333333333333</ele><time>2026-03-22T12:22:13.999Z</time></trkpt><trkpt lat="42.86383459050713" lon="-2.000829417463006"><ele>956.6666666666666</ele><time>2026-03-22T12:22:14.999Z</time></trkpt><trkpt lat="42.86384281349181" lon="-2.000515721091745"><ele>958.0</ele><time>2026-03-22T12:22:15.999Z</time></trkpt><trkpt lat="42.863849543797826" lon="-2.000175511746001"><ele>958.0</ele><time>2026-03-22T12:22:16.999Z</time></trkpt><trkpt lat="42.863856126048965" lon="-1.9998154422773355"><ele>958.0</ele><time>2026-03-22T12:22:17.999Z</time></trkpt><trkpt lat="42.863861682293276" lon="-1.9994778222914507"><ele>961.0</ele><time>2026-03-22T12:22:18.999Z</time></trkpt><trkpt lat="42.86387614436518" lon="-1.9991343545417537"><ele>964.0</ele><time>2026-03-22T12:22:19.999Z</time></trkpt><trkpt lat="42.86390647405328" lon="-1.998800370392297"><ele>964.0</ele><time>2026-03-22T12:22:20.999Z</time></trkpt><trkpt lat="42.863936857108705" lon="-1.99851121762436"><ele>964.0</ele><time>2026-03-22T12:22:21.999Z</time></trkpt><trkpt lat="42.86396605914469" lon="-1.9982486801201422"><ele>964.0</ele><time>2026-03-22T12:22:22.999Z</time></trkpt><trkpt lat="42.86399163899587" lon="-1.9980203115478026"><ele>966.5</ele><time>2026-03-22T12:22:23.999Z</time></trkpt><trkpt lat="42.86401438245558" lon="-1.9978052342651773"><ele>969.0</ele><time>2026-03-22T12:22:24.999Z</time></trkpt><trkpt lat="42.86403545431151" lon="-1.9976059648257798"><ele>971.5</ele><time>2026-03-22T12:22:25.999Z</time></trkpt><trkpt lat="42.86405036426037" lon="-1.9974424922389074"><ele>974.0</ele><time>2026-03-22T12:22:26.999Z</time></trkpt><trkpt lat="42.86405220057494" lon="-1.9973399107116223"><ele>974.0</ele><time>2026-03-22T12:22:27.999Z</time></trkpt><trkpt lat="42.86401215264724" lon="-1.9972697616277464"><ele>974.0000000000001</ele><time>2026-03-22T12:22:30.998Z</time></trkpt><trkpt lat="42.86395846374969" lon="-1.997390759028626"><ele>974.0000000000001</ele><time>2026-03-22T12:22:32.998Z</time></trkpt><trkpt lat="42.86397009310956" lon="-1.9974947399184688"><ele>974.0</ele><time>2026-03-22T12:22:33.998Z</time></trkpt><trkpt lat="42.86397374050462" lon="-1.9976172711228057"><ele>974.0</ele><time>2026-03-22T12:22:34.998Z</time></trkpt><trkpt lat="42.863967316833886" lon="-1.997778314987532"><ele>974.0</ele><time>2026-03-22T12:22:35.998Z</time></trkpt><trkpt lat="42.86394194750194" lon="-1.9979761426222336"><ele>974.0</ele><time>2026-03-22T12:22:36.998Z</time></trkpt><trkpt lat="42.86389470105328" lon="-1.9982027963959617"><ele>974.0</ele><time>2026-03-22T12:22:37.998Z</time></trkpt><trkpt lat="42.863819289069916" lon="-1.9984581031896451"><ele>970.6666666666667</ele><time>2026-03-22T12:22:38.998Z</time></trkpt><trkpt lat="42.86374501632421" lon="-1.9987368085490602"><ele>967.3333333333333</ele><time>2026-03-22T12:22:39.998Z</time></trkpt><trkpt lat="42.86368754980705" lon="-1.9989973581177165"><ele>964.0</ele><time>2026-03-22T12:22:40.998Z</time></trkpt><trkpt lat="42.86363181730794" lon="-1.999281985130065"><ele>962.0</ele><time>2026-03-22T12:22:41.998Z</time></trkpt><trkpt lat="42.86356243797715" lon="-1.999553420825618"><ele>960.0</ele><time>2026-03-22T12:22:42.998Z</time></trkpt><trkpt lat="42.863500042893314" lon="-1.9998209342302637"><ele>958.0</ele><time>2026-03-22T12:22:43.998Z</time></trkpt><trkpt lat="42.86346949159316" lon="-2.000091248949555"><ele>958.0</ele><time>2026-03-22T12:22:44.998Z</time></trkpt><trkpt lat="42.863454664751316" lon="-2.0003603428403647"><ele>958.0</ele><time>2026-03-22T12:22:45.998Z</time></trkpt><trkpt lat="42.86342824011203" lon="-2.0006206785932124"><ele>958.0</ele><time>2026-03-22T12:22:46.998Z</time></trkpt><trkpt lat="42.86339952307873" lon="-2.000852962854054"><ele>970.3333333333333</ele><time>2026-03-22T12:22:47.998Z</time></trkpt><trkpt lat="42.86336924647249" lon="-2.001061748923735"><ele>982.6666666666667</ele><time>2026-03-22T12:22:48.998Z</time></trkpt><trkpt lat="42.86332429326998" lon="-2.001251844515538"><ele>995.0</ele><time>2026-03-22T12:22:49.998Z</time></trkpt><trkpt lat="42.86325098105146" lon="-2.0014572843718894"><ele>991.3333333333334</ele><time>2026-03-22T12:22:50.998Z</time></trkpt><trkpt lat="42.86315984669777" lon="-2.0016730692433984"><ele>987.6666666666667</ele><time>2026-03-22T12:22:51.998Z</time></trkpt><trkpt lat="42.86307002942027" lon="-2.0019016366588365"><ele>984.0</ele><time>2026-03-22T12:22:52.998Z</time></trkpt><trkpt lat="42.862990304830774" lon="-2.0021505344581323"><ele>984.0</ele><time>2026-03-22T12:22:53.998Z</time></trkpt><trkpt lat="42.86292971402202" lon="-2.0024308196546747"><ele>984.0</ele><time>2026-03-22T12:22:55Z</time></trkpt><trkpt lat="42.86287673268121" lon="-2.002716928081614"><ele>984.0</ele><time>2026-03-22T12:22:56Z</time></trkpt><trkpt lat="42.86283794371227" lon="-2.0029922938880267"><ele>981.6666666666667</ele><time>2026-03-22T12:22:57Z</time></trkpt><trkpt lat="42.86281242425449" lon="-2.003286824116656"><ele>979.3333333333334</ele><time>2026-03-22T12:22:58Z</time></trkpt><trkpt lat="42.8627980338947" lon="-2.0035874108597995"><ele>977.0</ele><time>2026-03-22T12:22:59Z</time></trkpt><trkpt lat="42.862788552739296" lon="-2.003889502124066"><ele>974.3333333333334</ele><time>2026-03-22T12:23:00Z</time></trkpt><trkpt lat="42.862776834625826" lon="-2.0041751562343832"><ele>971.6666666666667</ele><time>2026-03-22T12:23:01Z</time></trkpt><trkpt lat="42.86276135052883" lon="-2.0044430126472625"><ele>969.0</ele><time>2026-03-22T12:23:02Z</time></trkpt><trkpt lat="42.86274385542113" lon="-2.0046901223636873"><ele>969.0</ele><time>2026-03-22T12:23:03Z</time></trkpt><trkpt lat="42.862707624155135" lon="-2.004924568072612"><ele>969.0</ele><time>2026-03-22T12:23:04Z</time></trkpt><trkpt lat="42.862649002972745" lon="-2.005137929115558"><ele>969.0</ele><time>2026-03-22T12:23:05Z</time></trkpt><trkpt lat="42.86259022070365" lon="-2.0053431753205815"><ele>988.0</ele><time>2026-03-22T12:23:06Z</time></trkpt><trkpt lat="42.862554954884224" lon="-2.0055463181736344"><ele>1007.0</ele><time>2026-03-22T12:23:07Z</time></trkpt><trkpt lat="42.86252321037409" lon="-2.005743016678011"><ele>1026.0</ele><time>2026-03-22T12:23:08Z</time></trkpt><trkpt lat="42.86249707415688" lon="-2.0059400013803224"><ele>1045.0</ele><time>2026-03-22T12:23:09Z</time></trkpt><trkpt lat="42.86249178188288" lon="-2.006131550020647"><ele>1045.0</ele><time>2026-03-22T12:23:10Z</time></trkpt><trkpt lat="42.862481909647514" lon="-2.006318950981666"><ele>1045.0</ele><time>2026-03-22T12:23:11Z</time></trkpt><trkpt lat="42.86244624512914" lon="-2.006515562682393"><ele>1045.0</ele><time>2026-03-22T12:23:12Z</time></trkpt><trkpt lat="42.862387590337036" lon="-2.0067170008265074"><ele>1045.0</ele><time>2026-03-22T12:23:13Z</time></trkpt><trkpt lat="42.86231993958663" lon="-2.0069105789865613"><ele>1041.0</ele><time>2026-03-22T12:23:14Z</time></trkpt><trkpt lat="42.86225715018889" lon="-2.007076722963428"><ele>1037.0</ele><time>2026-03-22T12:23:15Z</time></trkpt><trkpt lat="42.86220817380256" lon="-2.0072272888811953"><ele>1033.0</ele><time>2026-03-22T12:23:16Z</time></trkpt><trkpt lat="42.86219848446658" lon="-2.007376184220485"><ele>1029.0</ele><time>2026-03-22T12:23:17Z</time></trkpt><trkpt lat="42.8622277089159" lon="-2.007528640827715"><ele>1025.5</ele><time>2026-03-22T12:23:18Z</time></trkpt><trkpt lat="42.86224512778701" lon="-2.0076995549318126"><ele>1022.0</ele><time>2026-03-22T12:23:19Z</time></trkpt><trkpt lat="42.86223821097742" lon="-2.007872550570096"><ele>1018.5</ele><time>2026-03-22T12:23:20Z</time></trkpt><trkpt lat="42.86221486988951" lon="-2.0080508760795963"><ele>1015.0</ele><time>2026-03-22T12:23:21Z</time></trkpt><trkpt lat="42.86218836577819" lon="-2.008214213576576"><ele>1013.0</ele><time>2026-03-22T12:23:22Z</time></trkpt><trkpt lat="42.86217152374506" lon="-2.0083718593266804"><ele>1011.0</ele><time>2026-03-22T12:23:23Z</time></trkpt><trkpt lat="42.86213563379499" lon="-2.008508003615176"><ele>1009.0</ele><time>2026-03-22T12:23:24Z</time></trkpt><trkpt lat="42.86207151801042" lon="-2.008626491810747"><ele>1007.0</ele><time>2026-03-22T12:23:25Z</time></trkpt><trkpt lat="42.861995107524436" lon="-2.0087686234239173"><ele>1007.0</ele><time>2026-03-22T12:23:26Z</time></trkpt><trkpt lat="42.861911326208215" lon="-2.008918077479408"><ele>1007.0</ele><time>2026-03-22T12:23:27Z</time></trkpt><trkpt lat="42.86182268344271" lon="-2.0090641452238196"><ele>1007.0</ele><time>2026-03-22T12:23:28Z</time></trkpt><trkpt lat="42.86172299093447" lon="-2.009221518805138"><ele>1007.0</ele><time>2026-03-22T12:23:29Z</time></trkpt><trkpt lat="42.861610531911225" lon="-2.0093884416112826"><ele>1026.3333333333335</ele><time>2026-03-22T12:23:30.018Z</time></trkpt><trkpt lat="42.86149409666574" lon="-2.009554340514051"><ele>1045.6666666666667</ele><time>2026-03-22T12:23:31.02Z</time></trkpt><trkpt lat="42.861377599265744" lon="-2.0097150315457792"><ele>1065.0</ele><time>2026-03-22T12:23:32.018Z</time></trkpt><trkpt lat="42.861272090695145" lon="-2.0098553565246373"><ele>1065.0</ele><time>2026-03-22T12:23:33.017Z</time></trkpt><trkpt lat="42.86116871371039" lon="-2.0099915489843916"><ele>1065.0</ele><time>2026-03-22T12:23:34.019Z</time></trkpt><trkpt lat="42.86106893516631" lon="-2.010123000776836"><ele>1065.0</ele><time>2026-03-22T12:23:35.019Z</time></trkpt><trkpt lat="42.860596536745916" lon="-2.0106084794619075"><ele>1047.0</ele><time>2026-03-22T12:23:39.167Z</time></trkpt><trkpt lat="42.86014504734693" lon="-2.0111449621636526"><ele>1044.75</ele><time>2026-03-22T12:23:39.999Z</time></trkpt><trkpt lat="42.860014605717225" lon="-2.0112618692822952"><ele>1042.5</ele><time>2026-03-22T12:23:40.999Z</time></trkpt><trkpt lat="42.859872131049954" lon="-2.011347068927549"><ele>1040.25</ele><time>2026-03-22T12:23:41.999Z</time></trkpt><trkpt lat="42.859750373124314" lon="-2.011424284679556"><ele>1038.0</ele><time>2026-03-22T12:23:42.999Z</time></trkpt><trkpt lat="42.859642295697164" lon="-2.011505550168045"><ele>1038.0</ele><time>2026-03-22T12:23:43.999Z</time></trkpt><trkpt lat="42.85953766578859" lon="-2.011561467297454"><ele>1038.0</ele><time>2026-03-22T12:23:44.999Z</time></trkpt><trkpt lat="42.85942203859105" lon="-2.011646471030493"><ele>1038.0</ele><time>2026-03-22T12:23:45.999Z</time></trkpt><trkpt lat="42.85924951219288" lon="-2.0117555105229505"><ele>1038.0</ele><time>2026-03-22T12:23:46.999Z</time></trkpt><trkpt lat="42.85910252790455" lon="-2.011849660229442"><ele>1034.3333333333333</ele><time>2026-03-22T12:23:47.999Z</time></trkpt><trkpt lat="42.85892875796083" lon="-2.011951883474296"><ele>1030.6666666666665</ele><time>2026-03-22T12:23:48.999Z</time></trkpt><trkpt lat="42.85873329186884" lon="-2.012076590540091"><ele>1027.0</ele><time>2026-03-22T12:23:49.999Z</time></trkpt><trkpt lat="42.858549018186295" lon="-2.01219422492516"><ele>1026.6666666666665</ele><time>2026-03-22T12:23:50.999Z</time></trkpt><trkpt lat="42.85836325088527" lon="-2.0123126078290934"><ele>1026.3333333333333</ele><time>2026-03-22T12:23:51.999Z</time></trkpt><trkpt lat="42.858175769241385" lon="-2.0124198812990737"><ele>1026.0</ele><time>2026-03-22T12:23:52.999Z</time></trkpt><trkpt lat="42.85798981669775" lon="-2.012531779374818"><ele>1024.6666666666667</ele><time>2026-03-22T12:23:53.999Z</time></trkpt><trkpt lat="42.85780396087742" lon="-2.012653425747778"><ele>1023.3333333333334</ele><time>2026-03-22T12:23:54.999Z</time></trkpt><trkpt lat="42.857637072647705" lon="-2.012767428325117"><ele>1022.0</ele><time>2026-03-22T12:23:55.999Z</time></trkpt><trkpt lat="42.85745645209205" lon="-2.01286066473163"><ele>1022.0</ele><time>2026-03-22T12:23:56.999Z</time></trkpt><trkpt lat="42.85726394344305" lon="-2.012921220388913"><ele>1022.0</ele><time>2026-03-22T12:23:57.999Z</time></trkpt><trkpt lat="42.85705320770684" lon="-2.0129689569737304"><ele>1022.0</ele><time>2026-03-22T12:23:58.999Z</time></trkpt><trkpt lat="42.85683134635963" lon="-2.0130219733770733"><ele>1020.5</ele><time>2026-03-22T12:23:59.999Z</time></trkpt><trkpt lat="42.85659823590573" lon="-2.0130799726854662"><ele>1019.0</ele><time>2026-03-22T12:24:00.999Z</time></trkpt><trkpt lat="42.85636725257816" lon="-2.0131211134455795"><ele>1019.0</ele><time>2026-03-22T12:24:01.999Z</time></trkpt><trkpt lat="42.85613443534332" lon="-2.0131607977004276"><ele>1019.0</ele><time>2026-03-22T12:24:02.999Z</time></trkpt><trkpt lat="42.85589282388371" lon="-2.0131741129842537"><ele>1016.5</ele><time>2026-03-22T12:24:03.999Z</time></trkpt><trkpt lat="42.85565008938919" lon="-2.0132105480530536"><ele>1014.0</ele><time>2026-03-22T12:24:04.999Z</time></trkpt><trkpt lat="42.8553981416122" lon="-2.0132742885119326"><ele>1014.0</ele><time>2026-03-22T12:24:05.999Z</time></trkpt><trkpt lat="42.85514866962747" lon="-2.0133100477332286"><ele>1014.0</ele><time>2026-03-22T12:24:06.999Z</time></trkpt><trkpt lat="42.85490534054153" lon="-2.0133581449008977"><ele>1003.5</ele><time>2026-03-22T12:24:07.999Z</time></trkpt><trkpt lat="42.85466916167701" lon="-2.0134186539850343"><ele>993.0</ele><time>2026-03-22T12:24:08.999Z</time></trkpt><trkpt lat="42.854444485185326" lon="-2.013508620557981"><ele>993.0</ele><time>2026-03-22T12:24:09.999Z</time></trkpt><trkpt lat="42.85422410276688" lon="-2.0135968400632605"><ele>993.0</ele><time>2026-03-22T12:24:10.999Z</time></trkpt><trkpt lat="42.85399675087386" lon="-2.013655408996409"><ele>993.0</ele><time>2026-03-22T12:24:11.999Z</time></trkpt><trkpt lat="42.85376392716104" lon="-2.0136904130894058"><ele>993.0</ele><time>2026-03-22T12:24:12.999Z</time></trkpt><trkpt lat="42.85354088293562" lon="-2.0137310585028247"><ele>991.6666666666667</ele><time>2026-03-22T12:24:13.999Z</time></trkpt><trkpt lat="42.85333114987948" lon="-2.0138009946946247"><ele>990.3333333333334</ele><time>2026-03-22T12:24:14.999Z</time></trkpt><trkpt lat="42.853141374082405" lon="-2.0139105262570056"><ele>989.0</ele><time>2026-03-22T12:24:15.999Z</time></trkpt><trkpt lat="42.85297729111967" lon="-2.0140741690544215"><ele>987.6666666666667</ele><time>2026-03-22T12:24:16.999Z</time></trkpt><trkpt lat="42.85283441465941" lon="-2.0142731468372466"><ele>986.3333333333333</ele><time>2026-03-22T12:24:17.999Z</time></trkpt><trkpt lat="42.85269436322129" lon="-2.0145023421498784"><ele>985.0</ele><time>2026-03-22T12:24:18.999Z</time></trkpt><trkpt lat="42.852552146579214" lon="-2.014734560707834"><ele>985.0</ele><time>2026-03-22T12:24:19.999Z</time></trkpt><trkpt lat="42.8523854893541" lon="-2.0149568869222603"><ele>985.0</ele><time>2026-03-22T12:24:20.999Z</time></trkpt><trkpt lat="42.852189511547344" lon="-2.015180142785791"><ele>982.0</ele><time>2026-03-22T12:24:21.999Z</time></trkpt><trkpt lat="42.85197433048259" lon="-2.015402695259433"><ele>979.0</ele><time>2026-03-22T12:24:22.999Z</time></trkpt><trkpt lat="42.85176933259321" lon="-2.015623641454708"><ele>971.5</ele><time>2026-03-22T12:24:23.999Z</time></trkpt><trkpt lat="42.85157635155131" lon="-2.015831472660994"><ele>964.0</ele><time>2026-03-22T12:24:24.999Z</time></trkpt><trkpt lat="42.851391297259944" lon="-2.0160196230919203"><ele>964.0</ele><time>2026-03-22T12:24:25.999Z</time></trkpt><trkpt lat="42.8512218199057" lon="-2.016199828632278"><ele>964.0</ele><time>2026-03-22T12:24:26.999Z</time></trkpt><trkpt lat="42.85106930743312" lon="-2.0163532398180783"><ele>964.0</ele><time>2026-03-22T12:24:27.999Z</time></trkpt><trkpt lat="42.85092629295627" lon="-2.016474821328306"><ele>963.0</ele><time>2026-03-22T12:24:28.999Z</time></trkpt><trkpt lat="42.850765356058744" lon="-2.016569309122809"><ele>962.0</ele><time>2026-03-22T12:24:29.999Z</time></trkpt><trkpt lat="42.850574022878014" lon="-2.016642453146654"><ele>961.0</ele><time>2026-03-22T12:24:30.999Z</time></trkpt><trkpt lat="42.85036510921771" lon="-2.0167011867670985"><ele>961.0</ele><time>2026-03-22T12:24:31.999Z</time></trkpt><trkpt lat="42.85014398817098" lon="-2.016742439071272"><ele>961.0</ele><time>2026-03-22T12:24:32.999Z</time></trkpt><trkpt lat="42.849920162438686" lon="-2.0167608515078608"><ele>961.0</ele><time>2026-03-22T12:24:33.998Z</time></trkpt><trkpt lat="42.84970326196791" lon="-2.0167426746359483"><ele>959.0</ele><time>2026-03-22T12:24:34.998Z</time></trkpt><trkpt lat="42.84948361791151" lon="-2.0166988237968164"><ele>957.0</ele><time>2026-03-22T12:24:35.998Z</time></trkpt><trkpt lat="42.84924888079982" lon="-2.016625900607745"><ele>957.0</ele><time>2026-03-22T12:24:36.998Z</time></trkpt><trkpt lat="42.84899856087438" lon="-2.016540825409372"><ele>957.0</ele><time>2026-03-22T12:24:37.998Z</time></trkpt><trkpt lat="42.84873839189623" lon="-2.016445929237165"><ele>957.0</ele><time>2026-03-22T12:24:38.998Z</time></trkpt><trkpt lat="42.84848598638028" lon="-2.0163460344883863"><ele>957.0</ele><time>2026-03-22T12:24:39.998Z</time></trkpt><trkpt lat="42.84824572432158" lon="-2.016249957093232"><ele>951.5</ele><time>2026-03-22T12:24:40.998Z</time></trkpt><trkpt lat="42.848001994546934" lon="-2.0161540688007564"><ele>946.0</ele><time>2026-03-22T12:24:41.998Z</time></trkpt><trkpt lat="42.847761421077564" lon="-2.0160669869759618"><ele>942.5</ele><time>2026-03-22T12:24:42.998Z</time></trkpt><trkpt lat="42.84752021731589" lon="-2.015993784562782"><ele>939.0</ele><time>2026-03-22T12:24:43.998Z</time></trkpt><trkpt lat="42.84727318839318" lon="-2.015961606600754"><ele>939.0</ele><time>2026-03-22T12:24:44.998Z</time></trkpt><trkpt lat="42.847026125796724" lon="-2.0159566774057627"><ele>939.0</ele><time>2026-03-22T12:24:45.998Z</time></trkpt><trkpt lat="42.84678820610926" lon="-2.01595341520414"><ele>936.6666666666667</ele><time>2026-03-22T12:24:46.998Z</time></trkpt><trkpt lat="42.84656277958124" lon="-2.015945716924659"><ele>934.3333333333334</ele><time>2026-03-22T12:24:47.998Z</time></trkpt><trkpt lat="42.8463493507375" lon="-2.0159374122019074"><ele>932.0</ele><time>2026-03-22T12:24:48.998Z</time></trkpt><trkpt lat="42.84614890555804" lon="-2.015929962176289"><ele>929.6666666666667</ele><time>2026-03-22T12:24:49.998Z</time></trkpt><trkpt lat="42.845961605499454" lon="-2.015920601173056"><ele>927.3333333333333</ele><time>2026-03-22T12:24:50.998Z</time></trkpt><trkpt lat="42.84578554888769" lon="-2.015907721510263"><ele>925.0</ele><time>2026-03-22T12:24:51.998Z</time></trkpt><trkpt lat="42.84562060772895" lon="-2.0158930833727435"><ele>925.0</ele><time>2026-03-22T12:24:52.998Z</time></trkpt><trkpt lat="42.845476414492396" lon="-2.0158821510220433"><ele>925.0</ele><time>2026-03-22T12:24:53.998Z</time></trkpt><trkpt lat="42.845356899144114" lon="-2.015857320935011"><ele>925.0</ele><time>2026-03-22T12:24:54.998Z</time></trkpt><trkpt lat="42.84525481437619" lon="-2.0157962648862275"><ele>925.0</ele><time>2026-03-22T12:24:55.998Z</time></trkpt><trkpt lat="42.84516475478625" lon="-2.015687658416451"><ele>923.0</ele><time>2026-03-22T12:24:56.998Z</time></trkpt><trkpt lat="42.84509861650221" lon="-2.01554524327888"><ele>921.0</ele><time>2026-03-22T12:24:57.998Z</time></trkpt><trkpt lat="42.84506830239912" lon="-2.0153724777397914"><ele>919.0</ele><time>2026-03-22T12:24:58.998Z</time></trkpt><trkpt lat="42.84506195629261" lon="-2.0151775554488545"><ele>917.0</ele><time>2026-03-22T12:24:59.998Z</time></trkpt><trkpt lat="42.84507258338661" lon="-2.0149850634121154"><ele>917.0</ele><time>2026-03-22T12:25:01Z</time></trkpt><trkpt lat="42.845081303307666" lon="-2.0148146951913777"><ele>917.0</ele><time>2026-03-22T12:25:02Z</time></trkpt><trkpt lat="42.84506747971942" lon="-2.0146680448630625"><ele>917.0</ele><time>2026-03-22T12:25:03Z</time></trkpt><trkpt lat="42.84501335204387" lon="-2.0145508418716993"><ele>917.0</ele><time>2026-03-22T12:25:04Z</time></trkpt><trkpt lat="42.84492748857957" lon="-2.014468954669455"><ele>917.0</ele><time>2026-03-22T12:25:05Z</time></trkpt><trkpt lat="42.84481588291235" lon="-2.0144093981825475"><ele>917.0</ele><time>2026-03-22T12:25:06Z</time></trkpt><trkpt lat="42.844689102600796" lon="-2.014358964344214"><ele>917.0</ele><time>2026-03-22T12:25:07Z</time></trkpt><trkpt lat="42.844562169221746" lon="-2.0143088612651487"><ele>917.0</ele><time>2026-03-22T12:25:08Z</time></trkpt><trkpt lat="42.84444812184787" lon="-2.014244271496872"><ele>917.0</ele><time>2026-03-22T12:25:09Z</time></trkpt><trkpt lat="42.84434373838442" lon="-2.014160924826666"><ele>913.5</ele><time>2026-03-22T12:25:10Z</time></trkpt><trkpt lat="42.84427977329855" lon="-2.0140351166164194"><ele>910.0</ele><time>2026-03-22T12:25:11Z</time></trkpt><trkpt lat="42.84422315546808" lon="-2.013881938893961"><ele>906.5</ele><time>2026-03-22T12:25:12Z</time></trkpt><trkpt lat="42.84419381512915" lon="-2.0136866935118674"><ele>903.0</ele><time>2026-03-22T12:25:13Z</time></trkpt><trkpt lat="42.84417986740857" lon="-2.0134852175579927"><ele>903.0</ele><time>2026-03-22T12:25:14Z</time></trkpt><trkpt lat="42.844174975208524" lon="-2.0132902264454375"><ele>903.0</ele><time>2026-03-22T12:25:15Z</time></trkpt><trkpt lat="42.844152170151276" lon="-2.013121283590486"><ele>903.0</ele><time>2026-03-22T12:25:16Z</time></trkpt><trkpt lat="42.8441038565725" lon="-2.012981231442341"><ele>903.0</ele><time>2026-03-22T12:25:17Z</time></trkpt><trkpt lat="42.844034652840975" lon="-2.0128775693574137"><ele>903.0</ele><time>2026-03-22T12:25:18Z</time></trkpt><trkpt lat="42.84396549717991" lon="-2.0128222669694003"><ele>903.0</ele><time>2026-03-22T12:25:19Z</time></trkpt><trkpt lat="42.843843717782235" lon="-2.012845715177228"><ele>903.0</ele><time>2026-03-22T12:25:21Z</time></trkpt><trkpt lat="42.843783756573124" lon="-2.0129143217091428"><ele>903.0</ele><time>2026-03-22T12:25:22Z</time></trkpt><trkpt lat="42.84372779515388" lon="-2.0130141235941967"><ele>903.0</ele><time>2026-03-22T12:25:23Z</time></trkpt><trkpt lat="42.84369744370842" lon="-2.0131552894496303"><ele>903.0</ele><time>2026-03-22T12:25:24Z</time></trkpt><trkpt lat="42.84369200304137" lon="-2.0133347740999095"><ele>903.0</ele><time>2026-03-22T12:25:25Z</time></trkpt><trkpt lat="42.84368825082878" lon="-2.0135345741562736"><ele>903.0</ele><time>2026-03-22T12:25:26Z</time></trkpt><trkpt lat="42.84366179604943" lon="-2.013748501242407"><ele>903.0</ele><time>2026-03-22T12:25:27Z</time></trkpt><trkpt lat="42.84361626985992" lon="-2.0139872582885276"><ele>903.0</ele><time>2026-03-22T12:25:28Z</time></trkpt><trkpt lat="42.84355068274335" lon="-2.0142477397113066"><ele>903.0</ele><time>2026-03-22T12:25:29Z</time></trkpt><trkpt lat="42.843475520114765" lon="-2.0145121323499446"><ele>903.0</ele><time>2026-03-22T12:25:30Z</time></trkpt><trkpt lat="42.843398775061154" lon="-2.0147711171761364"><ele>901.3333333333333</ele><time>2026-03-22T12:25:31Z</time></trkpt><trkpt lat="42.843317164075565" lon="-2.015036855370231"><ele>899.6666666666666</ele><time>2026-03-22T12:25:32Z</time></trkpt><trkpt lat="42.84321776639024" lon="-2.0153167101736376"><ele>898.0</ele><time>2026-03-22T12:25:33Z</time></trkpt><trkpt lat="42.84309345947437" lon="-2.0156066355458435"><ele>895.5</ele><time>2026-03-22T12:25:34Z</time></trkpt><trkpt lat="42.842955305650406" lon="-2.0159043351342003"><ele>893.0</ele><time>2026-03-22T12:25:35Z</time></trkpt><trkpt lat="42.84280891061892" lon="-2.0162117711311773"><ele>893.0</ele><time>2026-03-22T12:25:36Z</time></trkpt><trkpt lat="42.84266612500985" lon="-2.0165224519585756"><ele>893.0</ele><time>2026-03-22T12:25:37Z</time></trkpt><trkpt lat="42.842528960715796" lon="-2.0168358902312047"><ele>891.5</ele><time>2026-03-22T12:25:38Z</time></trkpt><trkpt lat="42.84239309402029" lon="-2.0171438451041372"><ele>890.0</ele><time>2026-03-22T12:25:39Z</time></trkpt><trkpt lat="42.84225922133466" lon="-2.0174388523891613"><ele>889.5</ele><time>2026-03-22T12:25:40Z</time></trkpt><trkpt lat="42.8421297468013" lon="-2.017722800020019"><ele>889.0</ele><time>2026-03-22T12:25:41Z</time></trkpt><trkpt lat="42.842008549496704" lon="-2.017988919775409"><ele>889.0</ele><time>2026-03-22T12:25:42Z</time></trkpt><trkpt lat="42.84189415865982" lon="-2.018242260082249"><ele>889.0</ele><time>2026-03-22T12:25:42.999Z</time></trkpt><trkpt lat="42.8417865117703" lon="-2.018491304102271"><ele>889.0</ele><time>2026-03-22T12:25:43.999Z</time></trkpt><trkpt lat="42.84167646448665" lon="-2.0187254208388277"><ele>888.6666666666666</ele><time>2026-03-22T12:25:44.999Z</time></trkpt><trkpt lat="42.84155066414413" lon="-2.018944922042059"><ele>888.3333333333333</ele><time>2026-03-22T12:25:45.999Z</time></trkpt><trkpt lat="42.841398977164815" lon="-2.0191481417699575"><ele>888.0</ele><time>2026-03-22T12:25:46.999Z</time></trkpt><trkpt lat="42.841247005280536" lon="-2.0193425846078097"><ele>887.6666666666667</ele><time>2026-03-22T12:25:47.999Z</time></trkpt><trkpt lat="42.84110603841182" lon="-2.0195210296300674"><ele>887.3333333333334</ele><time>2026-03-22T12:25:48.999Z</time></trkpt><trkpt lat="42.84096974247591" lon="-2.019684055018963"><ele>887.0</ele><time>2026-03-22T12:25:49.999Z</time></trkpt><trkpt lat="42.84082489973365" lon="-2.0198373741745925"><ele>887.6666666666667</ele><time>2026-03-22T12:25:50.999Z</time></trkpt><trkpt lat="42.84065301411585" lon="-2.019971682765353"><ele>888.3333333333333</ele><time>2026-03-22T12:25:51.999Z</time></trkpt><trkpt lat="42.84045697818838" lon="-2.02009328405085"><ele>889.0</ele><time>2026-03-22T12:25:52.999Z</time></trkpt><trkpt lat="42.84024041146864" lon="-2.0202031432132403"><ele>886.5</ele><time>2026-03-22T12:25:53.999Z</time></trkpt><trkpt lat="42.84000859770236" lon="-2.020327522193917"><ele>884.0</ele><time>2026-03-22T12:25:54.999Z</time></trkpt><trkpt lat="42.83978496164466" lon="-2.020456691588581"><ele>884.0</ele><time>2026-03-22T12:25:55.999Z</time></trkpt><trkpt lat="42.839559868504736" lon="-2.0206004080228976"><ele>884.0</ele><time>2026-03-22T12:25:56.999Z</time></trkpt><trkpt lat="42.839327102681324" lon="-2.0207615527386973"><ele>880.5</ele><time>2026-03-22T12:25:57.999Z</time></trkpt><trkpt lat="42.83909460824212" lon="-2.0209406782785324"><ele>877.0</ele><time>2026-03-22T12:25:58.999Z</time></trkpt><trkpt lat="42.83887201321443" lon="-2.021124245655801"><ele>877.0</ele><time>2026-03-22T12:25:59.999Z</time></trkpt><trkpt lat="42.83867055301796" lon="-2.0213227478792692"><ele>877.0</ele><time>2026-03-22T12:26:00.999Z</time></trkpt><trkpt lat="42.83849740170938" lon="-2.021526339975774"><ele>876.3333333333333</ele><time>2026-03-22T12:26:01.999Z</time></trkpt><trkpt lat="42.83834329115806" lon="-2.0217408091203386"><ele>875.6666666666667</ele><time>2026-03-22T12:26:02.999Z</time></trkpt><trkpt lat="42.83819107525441" lon="-2.0219651776143146"><ele>875.0</ele><time>2026-03-22T12:26:03.999Z</time></trkpt><trkpt lat="42.83803444100479" lon="-2.0222066402831373"><ele>875.0</ele><time>2026-03-22T12:26:04.999Z</time></trkpt><trkpt lat="42.83787442767183" lon="-2.0224650187966713"><ele>875.0</ele><time>2026-03-22T12:26:05.999Z</time></trkpt><trkpt lat="42.83771485508253" lon="-2.0227141753660467"><ele>875.3333333333334</ele><time>2026-03-22T12:26:06.999Z</time></trkpt><trkpt lat="42.83756989406829" lon="-2.022939401317264"><ele>875.6666666666667</ele><time>2026-03-22T12:26:07.999Z</time></trkpt><trkpt lat="42.83743423345518" lon="-2.023145421102971"><ele>876.0</ele><time>2026-03-22T12:26:08.999Z</time></trkpt><trkpt lat="42.837316070376886" lon="-2.0233536250191753"><ele>874.0</ele><time>2026-03-22T12:26:09.999Z</time></trkpt><trkpt lat="42.837205425612474" lon="-2.0235666436924125"><ele>872.0</ele><time>2026-03-22T12:26:10.999Z</time></trkpt><trkpt lat="42.837115813454176" lon="-2.0237933021088867"><ele>870.0</ele><time>2026-03-22T12:26:11.999Z</time></trkpt><trkpt lat="42.837029934498716" lon="-2.024042615598433"><ele>871.0</ele><time>2026-03-22T12:26:12.999Z</time></trkpt><trkpt lat="42.8369663619414" lon="-2.024331355292348"><ele>872.0</ele><time>2026-03-22T12:26:13.999Z</time></trkpt><trkpt lat="42.836891593758395" lon="-2.024626263559418"><ele>872.0</ele><time>2026-03-22T12:26:14.999Z</time></trkpt><trkpt lat="42.83683448021788" lon="-2.0249327253935228"><ele>872.0</ele><time>2026-03-22T12:26:15.999Z</time></trkpt><trkpt lat="42.83678019817565" lon="-2.0252062161400626"><ele>872.0</ele><time>2026-03-22T12:26:16.999Z</time></trkpt><trkpt lat="42.836729014281815" lon="-2.0254514652310944"><ele>869.6666666666667</ele><time>2026-03-22T12:26:17.999Z</time></trkpt><trkpt lat="42.83668236705657" lon="-2.0256751135800872"><ele>867.3333333333333</ele><time>2026-03-22T12:26:18.999Z</time></trkpt><trkpt lat="42.836637219065594" lon="-2.025891110006224"><ele>865.0</ele><time>2026-03-22T12:26:19.999Z</time></trkpt><trkpt lat="42.83659476285938" lon="-2.0260928091567547"><ele>863.5</ele><time>2026-03-22T12:26:20.999Z</time></trkpt><trkpt lat="42.83655695203739" lon="-2.0262900743708405"><ele>862.0</ele><time>2026-03-22T12:26:21.999Z</time></trkpt><trkpt lat="42.83650190750672" lon="-2.0264681354742904"><ele>860.5</ele><time>2026-03-22T12:26:22.999Z</time></trkpt><trkpt lat="42.836434902379295" lon="-2.0266317286199333"><ele>859.0</ele><time>2026-03-22T12:26:23.999Z</time></trkpt><trkpt lat="42.83633985728513" lon="-2.0267761532213933"><ele>858.0</ele><time>2026-03-22T12:26:24.999Z</time></trkpt><trkpt lat="42.836211020920935" lon="-2.026883816703244"><ele>857.0</ele><time>2026-03-22T12:26:25.999Z</time></trkpt><trkpt lat="42.83606127896484" lon="-2.0269691642303274"><ele>856.0</ele><time>2026-03-22T12:26:26.999Z</time></trkpt><trkpt lat="42.83589513762309" lon="-2.0270425478916065"><ele>856.0</ele><time>2026-03-22T12:26:27.999Z</time></trkpt><trkpt lat="42.835705520771135" lon="-2.0271167843832023"><ele>856.0</ele><time>2026-03-22T12:26:28.999Z</time></trkpt><trkpt lat="42.835494495696594" lon="-2.0271928970656488"><ele>856.0</ele><time>2026-03-22T12:26:29.999Z</time></trkpt><trkpt lat="42.835269956418074" lon="-2.027267344532556"><ele>856.5</ele><time>2026-03-22T12:26:30.999Z</time></trkpt><trkpt lat="42.83502605841522" lon="-2.0273613419251486"><ele>857.0</ele><time>2026-03-22T12:26:31.999Z</time></trkpt><trkpt lat="42.834790852949034" lon="-2.027485788653413"><ele>851.5</ele><time>2026-03-22T12:26:32.999Z</time></trkpt><trkpt lat="42.83457853476648" lon="-2.0276250747545967"><ele>846.0</ele><time>2026-03-22T12:26:33.999Z</time></trkpt><trkpt lat="42.83439022515384" lon="-2.027764848974361"><ele>847.6666666666667</ele><time>2026-03-22T12:26:34.999Z</time></trkpt><trkpt lat="42.834213575319744" lon="-2.0278705057198096"><ele>849.3333333333334</ele><time>2026-03-22T12:26:35.999Z</time></trkpt><trkpt lat="42.83402739200033" lon="-2.0279377339497464"><ele>851.0</ele><time>2026-03-22T12:26:36.999Z</time></trkpt><trkpt lat="42.83381405820778" lon="-2.027966599554506"><ele>851.0</ele><time>2026-03-22T12:26:37.999Z</time></trkpt><trkpt lat="42.833580471328396" lon="-2.0279735799357086"><ele>851.0</ele><time>2026-03-22T12:26:38.999Z</time></trkpt><trkpt lat="42.83332453740086" lon="-2.0279704038473545"><ele>851.5</ele><time>2026-03-22T12:26:39.998Z</time></trkpt><trkpt lat="42.83305777406037" lon="-2.0279535398435136"><ele>852.0</ele><time>2026-03-22T12:26:40.998Z</time></trkpt><trkpt lat="42.83278333553555" lon="-2.027923108614349"><ele>851.0</ele><time>2026-03-22T12:26:41.998Z</time></trkpt><trkpt lat="42.8325207420537" lon="-2.0278783607764397"><ele>850.0</ele><time>2026-03-22T12:26:42.998Z</time></trkpt><trkpt lat="42.83225291473089" lon="-2.027835712615004"><ele>850.0</ele><time>2026-03-22T12:26:43.998Z</time></trkpt><trkpt lat="42.83198004826642" lon="-2.0278045930803614"><ele>850.0</ele><time>2026-03-22T12:26:44.998Z</time></trkpt><trkpt lat="42.831703299111766" lon="-2.0277908670453284"><ele>849.5</ele><time>2026-03-22T12:26:45.998Z</time></trkpt><trkpt lat="42.83141427662815" lon="-2.027795918152401"><ele>849.0</ele><time>2026-03-22T12:26:46.998Z</time></trkpt><trkpt lat="42.83112787806802" lon="-2.0278019356791575"><ele>850.5</ele><time>2026-03-22T12:26:47.998Z</time></trkpt><trkpt lat="42.83084889624879" lon="-2.027800726472482"><ele>852.0</ele><time>2026-03-22T12:26:48.998Z</time></trkpt><trkpt lat="42.83057311441721" lon="-2.027798788258766"><ele>852.0</ele><time>2026-03-22T12:26:49.998Z</time></trkpt><trkpt lat="42.830300841622076" lon="-2.0278176009433113"><ele>852.0</ele><time>2026-03-22T12:26:50.998Z</time></trkpt><trkpt lat="42.830033916498145" lon="-2.0278501366818404"><ele>854.0</ele><time>2026-03-22T12:26:51.998Z</time></trkpt><trkpt lat="42.82978438867273" lon="-2.027896146886933"><ele>856.0</ele><time>2026-03-22T12:26:52.998Z</time></trkpt><trkpt lat="42.82954954267192" lon="-2.0279479677118055"><ele>856.0</ele><time>2026-03-22T12:26:53.998Z</time></trkpt><trkpt lat="42.8293302267687" lon="-2.0280144967462372"><ele>856.0</ele><time>2026-03-22T12:26:54.998Z</time></trkpt><trkpt lat="42.82911828704376" lon="-2.0280845031572707"><ele>856.0</ele><time>2026-03-22T12:26:55.998Z</time></trkpt><trkpt lat="42.82890061531053" lon="-2.0281310458583937"><ele>859.0</ele><time>2026-03-22T12:26:56.998Z</time></trkpt><trkpt lat="42.82867596741161" lon="-2.0281602249836146"><ele>862.0</ele><time>2026-03-22T12:26:57.998Z</time></trkpt><trkpt lat="42.82844164706835" lon="-2.0281793151991856"><ele>865.5</ele><time>2026-03-22T12:26:58.998Z</time></trkpt><trkpt lat="42.828200821750706" lon="-2.028193702773814"><ele>869.0</ele><time>2026-03-22T12:26:59.998Z</time></trkpt><trkpt lat="42.82795000724099" lon="-2.0282008065147674"><ele>869.0</ele><time>2026-03-22T12:27:00.998Z</time></trkpt><trkpt lat="42.827688799341004" lon="-2.0281859562140916"><ele>869.0</ele><time>2026-03-22T12:27:01.998Z</time></trkpt><trkpt lat="42.827420346307605" lon="-2.028163203209388"><ele>868.5</ele><time>2026-03-22T12:27:02.998Z</time></trkpt><trkpt lat="42.82714307418752" lon="-2.0281341289667134"><ele>868.0</ele><time>2026-03-22T12:27:03.998Z</time></trkpt><trkpt lat="42.82686262165417" lon="-2.028096815687682"><ele>868.5</ele><time>2026-03-22T12:27:04.998Z</time></trkpt><trkpt lat="42.82659021608879" lon="-2.028067433994178"><ele>869.0</ele><time>2026-03-22T12:27:05.998Z</time></trkpt><trkpt lat="42.8263075670029" lon="-2.028052377114756"><ele>869.0</ele><time>2026-03-22T12:27:07Z</time></trkpt><trkpt lat="42.82602366705155" lon="-2.0280362560238894"><ele>869.0</ele><time>2026-03-22T12:27:08Z</time></trkpt><trkpt lat="42.825736710855786" lon="-2.0280241068156326"><ele>868.0</ele><time>2026-03-22T12:27:09Z</time></trkpt><trkpt lat="42.82544074375989" lon="-2.0280287213778876"><ele>867.0</ele><time>2026-03-22T12:27:10Z</time></trkpt><trkpt lat="42.82513563806074" lon="-2.028041272530216"><ele>863.0</ele><time>2026-03-22T12:27:11Z</time></trkpt><trkpt lat="42.82483296975329" lon="-2.028049602015314"><ele>859.0</ele><time>2026-03-22T12:27:12Z</time></trkpt><trkpt lat="42.82454063753258" lon="-2.0280549913988843"><ele>857.5</ele><time>2026-03-22T12:27:13Z</time></trkpt><trkpt lat="42.824242436214" lon="-2.028063171090002"><ele>856.0</ele><time>2026-03-22T12:27:14Z</time></trkpt><trkpt lat="42.8239387388119" lon="-2.028073841579026"><ele>856.0</ele><time>2026-03-22T12:27:15Z</time></trkpt><trkpt lat="42.82363356791458" lon="-2.02808319621891"><ele>856.0</ele><time>2026-03-22T12:27:16Z</time></trkpt><trkpt lat="42.823337945994204" lon="-2.0280886364252653"><ele>858.0</ele><time>2026-03-22T12:27:17Z</time></trkpt><trkpt lat="42.82306181442554" lon="-2.0280947216230034"><ele>860.0</ele><time>2026-03-22T12:27:18Z</time></trkpt><trkpt lat="42.82279874063844" lon="-2.028101356553085"><ele>861.5</ele><time>2026-03-22T12:27:19Z</time></trkpt><trkpt lat="42.82254959252061" lon="-2.0281076780626486"><ele>863.0</ele><time>2026-03-22T12:27:20Z</time></trkpt><trkpt lat="42.82231888522831" lon="-2.0281214890189725"><ele>863.0</ele><time>2026-03-22T12:27:21Z</time></trkpt><trkpt lat="42.82210592850007" lon="-2.028133099375875"><ele>863.0</ele><time>2026-03-22T12:27:22Z</time></trkpt><trkpt lat="42.82190779131436" lon="-2.028140777954567"><ele>863.0</ele><time>2026-03-22T12:27:23Z</time></trkpt><trkpt lat="42.821714253607674" lon="-2.028136600403399"><ele>863.6666666666667</ele><time>2026-03-22T12:27:24Z</time></trkpt><trkpt lat="42.82151154002782" lon="-2.028114436516829"><ele>864.3333333333333</ele><time>2026-03-22T12:27:25Z</time></trkpt><trkpt lat="42.82130724898772" lon="-2.028064939107191"><ele>865.0</ele><time>2026-03-22T12:27:26Z</time></trkpt><trkpt lat="42.821119838678456" lon="-2.027987638211978"><ele>862.6666666666666</ele><time>2026-03-22T12:27:27Z</time></trkpt><trkpt lat="42.820953068208325" lon="-2.0278836292802844"><ele>860.3333333333333</ele><time>2026-03-22T12:27:28Z</time></trkpt><trkpt lat="42.820800878545114" lon="-2.027764793261294"><ele>858.0</ele><time>2026-03-22T12:27:29Z</time></trkpt><trkpt lat="42.82065520082239" lon="-2.027602272800689"><ele>861.3333333333333</ele><time>2026-03-22T12:27:30Z</time></trkpt><trkpt lat="42.820510005032865" lon="-2.0273949799448623"><ele>864.6666666666666</ele><time>2026-03-22T12:27:31Z</time></trkpt><trkpt lat="42.82035308639355" lon="-2.0271686854448214"><ele>868.0</ele><time>2026-03-22T12:27:32Z</time></trkpt><trkpt lat="42.820183423985085" lon="-2.0269330435824893"><ele>868.5</ele><time>2026-03-22T12:27:33Z</time></trkpt><trkpt lat="42.82000060672488" lon="-2.0266864116288317"><ele>869.0</ele><time>2026-03-22T12:27:34Z</time></trkpt><trkpt lat="42.819810125207276" lon="-2.026428496638591"><ele>869.0</ele><time>2026-03-22T12:27:35Z</time></trkpt><trkpt lat="42.8196290051068" lon="-2.0261792269482757"><ele>869.0</ele><time>2026-03-22T12:27:36Z</time></trkpt><trkpt lat="42.81946493311094" lon="-2.025954174087474"><ele>868.3333333333334</ele><time>2026-03-22T12:27:37Z</time></trkpt><trkpt lat="42.81931053290639" lon="-2.025744317765544"><ele>867.6666666666667</ele><time>2026-03-22T12:27:38Z</time></trkpt><trkpt lat="42.819157654167235" lon="-2.0255529436773245"><ele>867.0</ele><time>2026-03-22T12:27:39Z</time></trkpt><trkpt lat="42.81900208641623" lon="-2.025378025422443"><ele>867.0</ele><time>2026-03-22T12:27:40Z</time></trkpt><trkpt lat="42.81883452293736" lon="-2.0252225813754685"><ele>867.0</ele><time>2026-03-22T12:27:41Z</time></trkpt><trkpt lat="42.81864498229655" lon="-2.025090068355618"><ele>867.0</ele><time>2026-03-22T12:27:42Z</time></trkpt><trkpt lat="42.818432516516694" lon="-2.0249681261940244"><ele>870.0</ele><time>2026-03-22T12:27:43Z</time></trkpt><trkpt lat="42.818200069877854" lon="-2.0248348224598613"><ele>873.0</ele><time>2026-03-22T12:27:44Z</time></trkpt><trkpt lat="42.817950852905724" lon="-2.0246771401455503"><ele>873.0</ele><time>2026-03-22T12:27:45Z</time></trkpt><trkpt lat="42.817694199100366" lon="-2.024519318042722"><ele>873.0</ele><time>2026-03-22T12:27:46Z</time></trkpt><trkpt lat="42.81745488862268" lon="-2.024379661844095"><ele>871.5</ele><time>2026-03-22T12:27:47Z</time></trkpt><trkpt lat="42.81722596383787" lon="-2.0242496515455306"><ele>870.0</ele><time>2026-03-22T12:27:47.999Z</time></trkpt><trkpt lat="42.81701373067017" lon="-2.0241277793970456"><ele>871.3333333333333</ele><time>2026-03-22T12:27:48.999Z</time></trkpt><trkpt lat="42.816808447422716" lon="-2.0240180568027775"><ele>872.6666666666666</ele><time>2026-03-22T12:27:49.999Z</time></trkpt><trkpt lat="42.81659468217309" lon="-2.023915363598426"><ele>874.0</ele><time>2026-03-22T12:27:50.999Z</time></trkpt><trkpt lat="42.816363703370634" lon="-2.023831591590798"><ele>874.0</ele><time>2026-03-22T12:27:51.999Z</time></trkpt><trkpt lat="42.8161273249854" lon="-2.0237532335114294"><ele>874.0</ele><time>2026-03-22T12:27:52.999Z</time></trkpt><trkpt lat="42.81588691576111" lon="-2.0236782031697604"><ele>871.5</ele><time>2026-03-22T12:27:53.999Z</time></trkpt><trkpt lat="42.81565390977324" lon="-2.023605696820887"><ele>869.0</ele><time>2026-03-22T12:27:54.999Z</time></trkpt><trkpt lat="42.81542489803196" lon="-2.0235415090817357"><ele>869.0</ele><time>2026-03-22T12:27:55.999Z</time></trkpt><trkpt lat="42.8151864056659" lon="-2.0234850272382077"><ele>869.0</ele><time>2026-03-22T12:27:56.999Z</time></trkpt><trkpt lat="42.814939003820285" lon="-2.023450442516053"><ele>869.0</ele><time>2026-03-22T12:27:57.999Z</time></trkpt><trkpt lat="42.81469248907909" lon="-2.023424665534852"><ele>869.0</ele><time>2026-03-22T12:27:58.999Z</time></trkpt><trkpt lat="42.814439084983164" lon="-2.023405062469628"><ele>871.5</ele><time>2026-03-22T12:27:59.999Z</time></trkpt><trkpt lat="42.81417944438088" lon="-2.023385977818281"><ele>874.0</ele><time>2026-03-22T12:28:00.999Z</time></trkpt><trkpt lat="42.813918035197496" lon="-2.0233657138436763"><ele>874.0</ele><time>2026-03-22T12:28:01.999Z</time></trkpt><trkpt lat="42.813657764475366" lon="-2.0233447811013905"><ele>874.0</ele><time>2026-03-22T12:28:02.999Z</time></trkpt><trkpt lat="42.813394225182" lon="-2.0233330389730226"><ele>872.5</ele><time>2026-03-22T12:28:03.999Z</time></trkpt><trkpt lat="42.813124084882844" lon="-2.0233174239901377"><ele>871.0</ele><time>2026-03-22T12:28:04.999Z</time></trkpt><trkpt lat="42.81285357412431" lon="-2.023298923762949"><ele>873.0</ele><time>2026-03-22T12:28:05.999Z</time></trkpt><trkpt lat="42.81258582505685" lon="-2.023271961649632"><ele>875.0</ele><time>2026-03-22T12:28:06.999Z</time></trkpt><trkpt lat="42.81231855596824" lon="-2.0232444153226434"><ele>875.0</ele><time>2026-03-22T12:28:07.999Z</time></trkpt><trkpt lat="42.81204747188096" lon="-2.023216257379972"><ele>875.0</ele><time>2026-03-22T12:28:08.999Z</time></trkpt><trkpt lat="42.81176922482373" lon="-2.0231908232760216"><ele>874.5</ele><time>2026-03-22T12:28:09.999Z</time></trkpt><trkpt lat="42.81148568992321" lon="-2.023168157082976"><ele>874.0</ele><time>2026-03-22T12:28:10.999Z</time></trkpt><trkpt lat="42.811196917208115" lon="-2.023148597971119"><ele>869.0</ele><time>2026-03-22T12:28:11.999Z</time></trkpt><trkpt lat="42.810911986386216" lon="-2.0231241990841564"><ele>864.0</ele><time>2026-03-22T12:28:12.999Z</time></trkpt><trkpt lat="42.810633680881296" lon="-2.0230989658432765"><ele>864.0</ele><time>2026-03-22T12:28:13.999Z</time></trkpt><trkpt lat="42.810355960305046" lon="-2.0230718491729927"><ele>864.0</ele><time>2026-03-22T12:28:14.999Z</time></trkpt><trkpt lat="42.81007469233721" lon="-2.023050329824254"><ele>862.5</ele><time>2026-03-22T12:28:15.999Z</time></trkpt><trkpt lat="42.809787848205026" lon="-2.0230485124755915"><ele>861.0</ele><time>2026-03-22T12:28:16.999Z</time></trkpt><trkpt lat="42.80949550530785" lon="-2.023070855494443"><ele>861.0</ele><time>2026-03-22T12:28:17.999Z</time></trkpt><trkpt lat="42.809197547635556" lon="-2.023112888638351"><ele>861.0</ele><time>2026-03-22T12:28:18.999Z</time></trkpt><trkpt lat="42.80889544605739" lon="-2.023164106525655"><ele>861.0</ele><time>2026-03-22T12:28:19.999Z</time></trkpt><trkpt lat="42.80858809797096" lon="-2.023212651871054"><ele>861.0</ele><time>2026-03-22T12:28:20.999Z</time></trkpt><trkpt lat="42.80828480110782" lon="-2.0232460438968554"><ele>861.0</ele><time>2026-03-22T12:28:21.999Z</time></trkpt><trkpt lat="42.80799094652077" lon="-2.0232687100650977"><ele>861.0</ele><time>2026-03-22T12:28:22.999Z</time></trkpt><trkpt lat="42.80770597688747" lon="-2.0232857346290123"><ele>862.0</ele><time>2026-03-22T12:28:23.999Z</time></trkpt><trkpt lat="42.80740175309352" lon="-2.02330215105417"><ele>863.0</ele><time>2026-03-22T12:28:24.999Z</time></trkpt><trkpt lat="42.807074972212256" lon="-2.023329303748898"><ele>856.0</ele><time>2026-03-22T12:28:25.999Z</time></trkpt><trkpt lat="42.80674133229463" lon="-2.0233679663339292"><ele>849.0</ele><time>2026-03-22T12:28:26.999Z</time></trkpt><trkpt lat="42.806397168471285" lon="-2.023412061299496"><ele>849.0</ele><time>2026-03-22T12:28:27.999Z</time></trkpt><trkpt lat="42.80604747491977" lon="-2.0234420835156715"><ele>849.0</ele><time>2026-03-22T12:28:28.999Z</time></trkpt><trkpt lat="42.80568902041476" lon="-2.0234408791591636"><ele>848.0</ele><time>2026-03-22T12:28:29.999Z</time></trkpt><trkpt lat="42.805329048980084" lon="-2.023420516898313"><ele>847.0</ele><time>2026-03-22T12:28:30.999Z</time></trkpt><trkpt lat="42.804972122222146" lon="-2.0234005418157937"><ele>846.5</ele><time>2026-03-22T12:28:31.999Z</time></trkpt><trkpt lat="42.804615617900275" lon="-2.02339269983915"><ele>846.0</ele><time>2026-03-22T12:28:32.999Z</time></trkpt><trkpt lat="42.804266443095024" lon="-2.023379447147796"><ele>843.5</ele><time>2026-03-22T12:28:33.999Z</time></trkpt><trkpt lat="42.80391779931357" lon="-2.0233625977615195"><ele>841.0</ele><time>2026-03-22T12:28:34.999Z</time></trkpt><trkpt lat="42.80356742762417" lon="-2.023346126099225"><ele>840.0</ele><time>2026-03-22T12:28:35.999Z</time></trkpt><trkpt lat="42.80321774520441" lon="-2.0233338578325637"><ele>839.0</ele><time>2026-03-22T12:28:36.999Z</time></trkpt><trkpt lat="42.80286899412253" lon="-2.0233248090694227"><ele>841.0</ele><time>2026-03-22T12:28:37.999Z</time></trkpt><trkpt lat="42.802525468117125" lon="-2.0233123121347707"><ele>843.0</ele><time>2026-03-22T12:28:38.999Z</time></trkpt><trkpt lat="42.802188153860115" lon="-2.0233000231803033"><ele>843.0</ele><time>2026-03-22T12:28:39.999Z</time></trkpt><trkpt lat="42.80185502593934" lon="-2.0232921499109313"><ele>843.0</ele><time>2026-03-22T12:28:40.999Z</time></trkpt><trkpt lat="42.80152982409653" lon="-2.02328491722952"><ele>843.0</ele><time>2026-03-22T12:28:41.999Z</time></trkpt><trkpt lat="42.80121273618924" lon="-2.0232742843059404"><ele>843.0</ele><time>2026-03-22T12:28:42.999Z</time></trkpt><trkpt lat="42.800896357956894" lon="-2.0232554355506496"><ele>843.5</ele><time>2026-03-22T12:28:43.999Z</time></trkpt><trkpt lat="42.80058256989226" lon="-2.0232396462765325"><ele>844.0</ele><time>2026-03-22T12:28:44.999Z</time></trkpt><trkpt lat="42.80027397727328" lon="-2.0232306406639915"><ele>844.5</ele><time>2026-03-22T12:28:45.999Z</time></trkpt><trkpt lat="42.799967613286896" lon="-2.0232213210095193"><ele>845.0</ele><time>2026-03-22T12:28:46.998Z</time></trkpt><trkpt lat="42.79965839084645" lon="-2.023210034319427"><ele>845.0</ele><time>2026-03-22T12:28:47.998Z</time></trkpt><trkpt lat="42.79934524187748" lon="-2.023197011960711"><ele>845.0</ele><time>2026-03-22T12:28:48.998Z</time></trkpt><trkpt lat="42.7990272280944" lon="-2.023187287170325"><ele>845.5</ele><time>2026-03-22T12:28:49.998Z</time></trkpt><trkpt lat="42.79870500891386" lon="-2.023176103011231"><ele>846.0</ele><time>2026-03-22T12:28:50.998Z</time></trkpt><trkpt lat="42.79837693667959" lon="-2.0231614717665516"><ele>845.0</ele><time>2026-03-22T12:28:51.998Z</time></trkpt><trkpt lat="42.79804532460077" lon="-2.023144875904577"><ele>844.0</ele><time>2026-03-22T12:28:52.998Z</time></trkpt><trkpt lat="42.797711356111556" lon="-2.0231297513150746"><ele>843.0</ele><time>2026-03-22T12:28:53.998Z</time></trkpt><trkpt lat="42.79737290270909" lon="-2.023113641689601"><ele>842.0</ele><time>2026-03-22T12:28:54.998Z</time></trkpt><trkpt lat="42.79703028253479" lon="-2.0230989201518588"><ele>839.5</ele><time>2026-03-22T12:28:55.998Z</time></trkpt><trkpt lat="42.796685409447576" lon="-2.0230879261951316"><ele>837.0</ele><time>2026-03-22T12:28:56.998Z</time></trkpt><trkpt lat="42.796341194050314" lon="-2.0230797277171804"><ele>836.5</ele><time>2026-03-22T12:28:57.998Z</time></trkpt><trkpt lat="42.79599696135309" lon="-2.0230667840393957"><ele>836.0</ele><time>2026-03-22T12:28:58.998Z</time></trkpt><trkpt lat="42.79565470812766" lon="-2.023050290501409"><ele>836.0</ele><time>2026-03-22T12:28:59.998Z</time></trkpt><trkpt lat="42.795320630253606" lon="-2.0230334169380995"><ele>836.0</ele><time>2026-03-22T12:29:00.998Z</time></trkpt><trkpt lat="42.79499609935318" lon="-2.0230147389403927"><ele>836.0</ele><time>2026-03-22T12:29:01.998Z</time></trkpt><trkpt lat="42.79467978138865" lon="-2.023001229569352"><ele>836.0</ele><time>2026-03-22T12:29:02.998Z</time></trkpt><trkpt lat="42.79437015385968" lon="-2.0229875243296114"><ele>836.5</ele><time>2026-03-22T12:29:03.998Z</time></trkpt><trkpt lat="42.79407717894367" lon="-2.022977111206946"><ele>837.0</ele><time>2026-03-22T12:29:04.998Z</time></trkpt><trkpt lat="42.79380390136401" lon="-2.022965719877847"><ele>837.0</ele><time>2026-03-22T12:29:05.998Z</time></trkpt><trkpt lat="42.79354286512663" lon="-2.0229555604067078"><ele>837.0</ele><time>2026-03-22T12:29:06.998Z</time></trkpt><trkpt lat="42.7932934351824" lon="-2.0229482206341047"><ele>836.5</ele><time>2026-03-22T12:29:07.998Z</time></trkpt><trkpt lat="42.79304806272348" lon="-2.0229411037098446"><ele>836.0</ele><time>2026-03-22T12:29:08.998Z</time></trkpt><trkpt lat="42.792806269270365" lon="-2.0229297341807206"><ele>833.0</ele><time>2026-03-22T12:29:09.998Z</time></trkpt><trkpt lat="42.792565800052586" lon="-2.022920598354797"><ele>830.0</ele><time>2026-03-22T12:29:10.998Z</time></trkpt><trkpt lat="42.792326579482506" lon="-2.0229100106802167"><ele>830.0</ele><time>2026-03-22T12:29:11.998Z</time></trkpt><trkpt lat="42.792086818522165" lon="-2.022901243173878"><ele>830.0</ele><time>2026-03-22T12:29:13Z</time></trkpt><trkpt lat="42.79184529469637" lon="-2.0228895311606774"><ele>829.0</ele><time>2026-03-22T12:29:14Z</time></trkpt><trkpt lat="42.79160090263605" lon="-2.0228794248361543"><ele>828.0</ele><time>2026-03-22T12:29:15Z</time></trkpt><trkpt lat="42.79135218091672" lon="-2.0228652066736807"><ele>828.0</ele><time>2026-03-22T12:29:16Z</time></trkpt><trkpt lat="42.79110100443637" lon="-2.022850193370005"><ele>828.0</ele><time>2026-03-22T12:29:17Z</time></trkpt><trkpt lat="42.79084662160387" lon="-2.0228324110918265"><ele>828.5</ele><time>2026-03-22T12:29:18Z</time></trkpt><trkpt lat="42.79058933678419" lon="-2.0228198600193124"><ele>829.0</ele><time>2026-03-22T12:29:19Z</time></trkpt><trkpt lat="42.79033368034412" lon="-2.0228079325965385"><ele>827.5</ele><time>2026-03-22T12:29:20Z</time></trkpt><trkpt lat="42.790077320088955" lon="-2.0227981379462814"><ele>826.0</ele><time>2026-03-22T12:29:21Z</time></trkpt><trkpt lat="42.789820794561585" lon="-2.022789794441624"><ele>826.0</ele><time>2026-03-22T12:29:22Z</time></trkpt><trkpt lat="42.78956630881029" lon="-2.0227803329627396"><ele>826.0</ele><time>2026-03-22T12:29:23Z</time></trkpt><trkpt lat="42.78931289554503" lon="-2.022771437502475"><ele>825.0</ele><time>2026-03-22T12:29:24Z</time></trkpt><trkpt lat="42.78906076386364" lon="-2.0227639025636353"><ele>824.0</ele><time>2026-03-22T12:29:25Z</time></trkpt><trkpt lat="42.788809339713985" lon="-2.022754276607947"><ele>824.0</ele><time>2026-03-22T12:29:26Z</time></trkpt><trkpt lat="42.78855957648503" lon="-2.022740843418131"><ele>824.0</ele><time>2026-03-22T12:29:27Z</time></trkpt><trkpt lat="42.78831097182637" lon="-2.0227280189759065"><ele>822.0</ele><time>2026-03-22T12:29:28Z</time></trkpt><trkpt lat="42.78806496101096" lon="-2.0227133038513263"><ele>820.0</ele><time>2026-03-22T12:29:29Z</time></trkpt><trkpt lat="42.78782078512306" lon="-2.022693265098064"><ele>820.5</ele><time>2026-03-22T12:29:30Z</time></trkpt><trkpt lat="42.787577783193726" lon="-2.022662122078397"><ele>821.0</ele><time>2026-03-22T12:29:31Z</time></trkpt><trkpt lat="42.787331810179204" lon="-2.0226149395289306"><ele>821.0</ele><time>2026-03-22T12:29:32Z</time></trkpt><trkpt lat="42.7870825622713" lon="-2.0225501010720084"><ele>821.0</ele><time>2026-03-22T12:29:33Z</time></trkpt><trkpt lat="42.78682743355279" lon="-2.022476036402585"><ele>823.5</ele><time>2026-03-22T12:29:34Z</time></trkpt><trkpt lat="42.786562851299074" lon="-2.0224057102111996"><ele>826.0</ele><time>2026-03-22T12:29:35Z</time></trkpt><trkpt lat="42.78629878962359" lon="-2.0223384553175836"><ele>826.0</ele><time>2026-03-22T12:29:36Z</time></trkpt><trkpt lat="42.786038958719494" lon="-2.0222677363578563"><ele>826.0</ele><time>2026-03-22T12:29:37Z</time></trkpt><trkpt lat="42.785784002499376" lon="-2.0221973064800745"><ele>825.0</ele><time>2026-03-22T12:29:38Z</time></trkpt><trkpt lat="42.785535793060774" lon="-2.0221358867720696"><ele>824.0</ele><time>2026-03-22T12:29:39Z</time></trkpt><trkpt lat="42.78529309642694" lon="-2.022077207071264"><ele>826.0</ele><time>2026-03-22T12:29:40Z</time></trkpt><trkpt lat="42.785057865084156" lon="-2.0220204695324346"><ele>828.0</ele><time>2026-03-22T12:29:41Z</time></trkpt><trkpt lat="42.784832720826884" lon="-2.021957062921006"><ele>828.0</ele><time>2026-03-22T12:29:42Z</time></trkpt><trkpt lat="42.78461427484203" lon="-2.0218692046422357"><ele>828.0</ele><time>2026-03-22T12:29:43Z</time></trkpt><trkpt lat="42.78440051544685" lon="-2.021727745241147"><ele>828.0</ele><time>2026-03-22T12:29:44Z</time></trkpt><trkpt lat="42.784177103436534" lon="-2.021560248169848"><ele>828.0</ele><time>2026-03-22T12:29:45Z</time></trkpt><trkpt lat="42.783942234396875" lon="-2.021391354968256"><ele>828.0</ele><time>2026-03-22T12:29:46Z</time></trkpt><trkpt lat="42.78369695878427" lon="-2.021217412090408"><ele>828.0</ele><time>2026-03-22T12:29:47Z</time></trkpt><trkpt lat="42.78344500230087" lon="-2.021033162713449"><ele>829.0</ele><time>2026-03-22T12:29:48Z</time></trkpt><trkpt lat="42.783182913070256" lon="-2.0208413395276343"><ele>830.0</ele><time>2026-03-22T12:29:49Z</time></trkpt><trkpt lat="42.78291070359146" lon="-2.0206487902037553"><ele>828.5</ele><time>2026-03-22T12:29:50Z</time></trkpt><trkpt lat="42.782637894960736" lon="-2.0204589707866956"><ele>827.0</ele><time>2026-03-22T12:29:51Z</time></trkpt><trkpt lat="42.78237737990643" lon="-2.020279457747053"><ele>827.0</ele><time>2026-03-22T12:29:52Z</time></trkpt><trkpt lat="42.78213217261257" lon="-2.0201113416689824"><ele>827.0</ele><time>2026-03-22T12:29:53Z</time></trkpt><trkpt lat="42.78189936598222" lon="-2.019947036057564"><ele>831.0</ele><time>2026-03-22T12:29:54Z</time></trkpt><trkpt lat="42.78167409286387" lon="-2.0197906746342693"><ele>835.0</ele><time>2026-03-22T12:29:54.999Z</time></trkpt><trkpt lat="42.78145532950584" lon="-2.0196444210948923"><ele>835.0</ele><time>2026-03-22T12:29:55.999Z</time></trkpt><trkpt lat="42.78124812158314" lon="-2.0195069397736334"><ele>835.0</ele><time>2026-03-22T12:29:56.999Z</time></trkpt><trkpt lat="42.78106498169679" lon="-2.01938055593627"><ele>835.0</ele><time>2026-03-22T12:29:57.999Z</time></trkpt><trkpt lat="42.78091361903544" lon="-2.0192577498429003"><ele>835.0</ele><time>2026-03-22T12:29:58.999Z</time></trkpt><trkpt lat="42.78078342713357" lon="-2.019106550855276"><ele>835.0</ele><time>2026-03-22T12:29:59.999Z</time></trkpt><trkpt lat="42.78066726243028" lon="-2.018907628909327"><ele>835.0</ele><time>2026-03-22T12:30:00.999Z</time></trkpt><trkpt lat="42.78055967460544" lon="-2.0186719624694787"><ele>835.0</ele><time>2026-03-22T12:30:01.999Z</time></trkpt><trkpt lat="42.7804492695577" lon="-2.01842893208558"><ele>835.0</ele><time>2026-03-22T12:30:02.999Z</time></trkpt><trkpt lat="42.78034667189332" lon="-2.018195635868443"><ele>835.0</ele><time>2026-03-22T12:30:03.999Z</time></trkpt><trkpt lat="42.7802769457443" lon="-2.0179741723198807"><ele>836.0</ele><time>2026-03-22T12:30:04.999Z</time></trkpt><trkpt lat="42.78023391276551" lon="-2.01772875645836"><ele>837.0</ele><time>2026-03-22T12:30:05.999Z</time></trkpt><trkpt lat="42.78020728646782" lon="-2.0174608193265104"><ele>838.0</ele><time>2026-03-22T12:30:06.999Z</time></trkpt><trkpt lat="42.780186356876676" lon="-2.01717147877629"><ele>833.5</ele><time>2026-03-22T12:30:07.999Z</time></trkpt><trkpt lat="42.78015417946774" lon="-2.0168604235204803"><ele>829.0</ele><time>2026-03-22T12:30:08.999Z</time></trkpt><trkpt lat="42.78011682180695" lon="-2.016522577175217"><ele>829.0</ele><time>2026-03-22T12:30:09.999Z</time></trkpt><trkpt lat="42.780076925607744" lon="-2.0161599548951576"><ele>829.0</ele><time>2026-03-22T12:30:10.999Z</time></trkpt><trkpt lat="42.780030946313815" lon="-2.0157755499830166"><ele>830.5</ele><time>2026-03-22T12:30:11.999Z</time></trkpt><trkpt lat="42.779984510986694" lon="-2.0153706274396135"><ele>832.0</ele><time>2026-03-22T12:30:12.999Z</time></trkpt><trkpt lat="42.77994369516362" lon="-2.014971411159791"><ele>832.5</ele><time>2026-03-22T12:30:13.999Z</time></trkpt><trkpt lat="42.77990751881978" lon="-2.0146023835356632"><ele>833.0</ele><time>2026-03-22T12:30:14.999Z</time></trkpt><trkpt lat="42.77986954598703" lon="-2.01426298171738"><ele>832.5</ele><time>2026-03-22T12:30:15.999Z</time></trkpt><trkpt lat="42.77982131532988" lon="-2.013933256051408"><ele>832.0</ele><time>2026-03-22T12:30:16.999Z</time></trkpt><trkpt lat="42.779754670264786" lon="-2.013605904334736"><ele>834.5</ele><time>2026-03-22T12:30:17.999Z</time></trkpt><trkpt lat="42.77967562863021" lon="-2.01327563904212"><ele>837.0</ele><time>2026-03-22T12:30:18.999Z</time></trkpt><trkpt lat="42.77958283159188" lon="-2.0129587034859084"><ele>837.0</ele><time>2026-03-22T12:30:19.999Z</time></trkpt><trkpt lat="42.77947813453884" lon="-2.0126507208327586"><ele>837.0</ele><time>2026-03-22T12:30:20.999Z</time></trkpt><trkpt lat="42.7793668190175" lon="-2.0123585776969923"><ele>835.0</ele><time>2026-03-22T12:30:21.999Z</time></trkpt><trkpt lat="42.77925891261439" lon="-2.0120789852375096"><ele>833.0</ele><time>2026-03-22T12:30:22.999Z</time></trkpt><trkpt lat="42.77915798688351" lon="-2.011811888252522"><ele>833.6666666666667</ele><time>2026-03-22T12:30:23.999Z</time></trkpt><trkpt lat="42.779061456582674" lon="-2.011556991322094"><ele>834.3333333333333</ele><time>2026-03-22T12:30:24.999Z</time></trkpt><trkpt lat="42.7789631989213" lon="-2.0113138116091163"><ele>835.0</ele><time>2026-03-22T12:30:25.999Z</time></trkpt><trkpt lat="42.778856910728344" lon="-2.011083328310573"><ele>835.0</ele><time>2026-03-22T12:30:26.999Z</time></trkpt><trkpt lat="42.778740714430214" lon="-2.010871319480786"><ele>835.0</ele><time>2026-03-22T12:30:27.999Z</time></trkpt><trkpt lat="42.778606841053126" lon="-2.010681409974906"><ele>835.0</ele><time>2026-03-22T12:30:28.999Z</time></trkpt><trkpt lat="42.778457699576514" lon="-2.01050534258598"><ele>834.6666666666666</ele><time>2026-03-22T12:30:29.999Z</time></trkpt><trkpt lat="42.778293301746956" lon="-2.010327514014656"><ele>834.3333333333333</ele><time>2026-03-22T12:30:30.999Z</time></trkpt><trkpt lat="42.77811531650486" lon="-2.0101525192740315"><ele>834.0</ele><time>2026-03-22T12:30:31.999Z</time></trkpt><trkpt lat="42.77792315202427" lon="-2.0099848528710518"><ele>832.5</ele><time>2026-03-22T12:30:32.999Z</time></trkpt><trkpt lat="42.777718464214885" lon="-2.0098187899886084"><ele>831.0</ele><time>2026-03-22T12:30:33.999Z</time></trkpt><trkpt lat="42.77750736124768" lon="-2.009650600029795"><ele>828.0</ele><time>2026-03-22T12:30:34.999Z</time></trkpt><trkpt lat="42.77729255933281" lon="-2.0094900512257095"><ele>825.0</ele><time>2026-03-22T12:30:35.999Z</time></trkpt><trkpt lat="42.77707617177876" lon="-2.0093243747601495"><ele>823.5</ele><time>2026-03-22T12:30:36.999Z</time></trkpt><trkpt lat="42.776859365250466" lon="-2.0091478352805012"><ele>822.0</ele><time>2026-03-22T12:30:37.999Z</time></trkpt><trkpt lat="42.77664125874072" lon="-2.0089720568469884"><ele>820.0</ele><time>2026-03-22T12:30:38.999Z</time></trkpt><trkpt lat="42.77642228581089" lon="-2.0087886817596328"><ele>818.0</ele><time>2026-03-22T12:30:39.999Z</time></trkpt><trkpt lat="42.776195899415" lon="-2.008606346534846"><ele>818.5</ele><time>2026-03-22T12:30:40.999Z</time></trkpt><trkpt lat="42.77597444661456" lon="-2.008423285524141"><ele>819.0</ele><time>2026-03-22T12:30:41.999Z</time></trkpt><trkpt lat="42.77575449273761" lon="-2.008237026172361"><ele>816.5</ele><time>2026-03-22T12:30:42.999Z</time></trkpt><trkpt lat="42.77553789936589" lon="-2.008047945328095"><ele>814.0</ele><time>2026-03-22T12:30:43.999Z</time></trkpt><trkpt lat="42.77532821576255" lon="-2.00785488447329"><ele>818.5</ele><time>2026-03-22T12:30:44.999Z</time></trkpt><trkpt lat="42.7751307092783" lon="-2.0076686954200933"><ele>823.0</ele><time>2026-03-22T12:30:45.999Z</time></trkpt><trkpt lat="42.774940573747735" lon="-2.0075096493332496"><ele>820.3333333333333</ele><time>2026-03-22T12:30:46.999Z</time></trkpt><trkpt lat="42.7747547771907" lon="-2.0073622092222707"><ele>817.6666666666667</ele><time>2026-03-22T12:30:47.999Z</time></trkpt><trkpt lat="42.77456845472557" lon="-2.007238526496867"><ele>815.0</ele><time>2026-03-22T12:30:48.999Z</time></trkpt><trkpt lat="42.77436852405352" lon="-2.0071413898237123"><ele>819.0</ele><time>2026-03-22T12:30:49.999Z</time></trkpt><trkpt lat="42.774157986670374" lon="-2.0070798226381283"><ele>823.0</ele><time>2026-03-22T12:30:50.999Z</time></trkpt><trkpt lat="42.773931805709594" lon="-2.0070476038551295"><ele>827.0</ele><time>2026-03-22T12:30:51.999Z</time></trkpt><trkpt lat="42.77369694959647" lon="-2.007025005153516"><ele>829.5</ele><time>2026-03-22T12:30:52.999Z</time></trkpt><trkpt lat="42.77345246729554" lon="-2.0069915988023697"><ele>832.0</ele><time>2026-03-22T12:30:53.998Z</time></trkpt><trkpt lat="42.77319843115336" lon="-2.006952452484835"><ele>832.0</ele><time>2026-03-22T12:30:54.998Z</time></trkpt><trkpt lat="42.77293446581111" lon="-2.0069068199380817"><ele>832.0</ele><time>2026-03-22T12:30:55.998Z</time></trkpt><trkpt lat="42.772677991136185" lon="-2.0068689248465374"><ele>834.0</ele><time>2026-03-22T12:30:56.998Z</time></trkpt><trkpt lat="42.772442404078795" lon="-2.006832575507222"><ele>836.0</ele><time>2026-03-22T12:30:57.998Z</time></trkpt><trkpt lat="42.772204627351336" lon="-2.0067960323115615"><ele>836.0</ele><time>2026-03-22T12:30:58.998Z</time></trkpt><trkpt lat="42.77195193131298" lon="-2.0067695698543"><ele>836.0</ele><time>2026-03-22T12:30:59.998Z</time></trkpt><trkpt lat="42.77169140859388" lon="-2.0067532623758555"><ele>837.5</ele><time>2026-03-22T12:31:00.998Z</time></trkpt><trkpt lat="42.77142192478074" lon="-2.0067464339521224"><ele>839.0</ele><time>2026-03-22T12:31:01.998Z</time></trkpt><trkpt lat="42.771163245984845" lon="-2.0067285742411234"><ele>840.5</ele><time>2026-03-22T12:31:02.998Z</time></trkpt><trkpt lat="42.77092510454128" lon="-2.0067120097477367"><ele>842.0</ele><time>2026-03-22T12:31:03.998Z</time></trkpt><trkpt lat="42.77070201774365" lon="-2.0066984604968146"><ele>842.0</ele><time>2026-03-22T12:31:04.998Z</time></trkpt><trkpt lat="42.770492236015826" lon="-2.006691300875749"><ele>842.0</ele><time>2026-03-22T12:31:05.998Z</time></trkpt><trkpt lat="42.770288034280384" lon="-2.006692826365849"><ele>842.0</ele><time>2026-03-22T12:31:06.998Z</time></trkpt><trkpt lat="42.770080225989275" lon="-2.00671877387291"><ele>843.5</ele><time>2026-03-22T12:31:07.998Z</time></trkpt><trkpt lat="42.769862078230396" lon="-2.0067847712313887"><ele>845.0</ele><time>2026-03-22T12:31:08.998Z</time></trkpt><trkpt lat="42.76963405725925" lon="-2.0068829537085326"><ele>845.0</ele><time>2026-03-22T12:31:09.998Z</time></trkpt><trkpt lat="42.769403369261234" lon="-2.0069892705837225"><ele>845.0</ele><time>2026-03-22T12:31:10.998Z</time></trkpt><trkpt lat="42.769188739555965" lon="-2.007090504603336"><ele>843.5</ele><time>2026-03-22T12:31:11.998Z</time></trkpt><trkpt lat="42.768979626659146" lon="-2.0072014022125497"><ele>842.0</ele><time>2026-03-22T12:31:12.998Z</time></trkpt><trkpt lat="42.76876299603015" lon="-2.007327143931802"><ele>842.0</ele><time>2026-03-22T12:31:13.998Z</time></trkpt><trkpt lat="42.768548546809306" lon="-2.0074675177520813"><ele>842.0</ele><time>2026-03-22T12:31:14.998Z</time></trkpt><trkpt lat="42.76833508324208" lon="-2.007610239712894"><ele>841.0</ele><time>2026-03-22T12:31:15.998Z</time></trkpt><trkpt lat="42.768127977780466" lon="-2.00774778563486"><ele>840.0</ele><time>2026-03-22T12:31:16.998Z</time></trkpt><trkpt lat="42.767921071827615" lon="-2.007883341082408"><ele>840.0</ele><time>2026-03-22T12:31:17.998Z</time></trkpt><trkpt lat="42.767718339365324" lon="-2.0080136092551073"><ele>840.0</ele><time>2026-03-22T12:31:19Z</time></trkpt><trkpt lat="42.76752421909264" lon="-2.0081390977142117"><ele>840.0</ele><time>2026-03-22T12:31:20Z</time></trkpt><trkpt lat="42.76733423823483" lon="-2.0082616076812125"><ele>839.0</ele><time>2026-03-22T12:31:21Z</time></trkpt><trkpt lat="42.767146012064764" lon="-2.00838639061781"><ele>838.0</ele><time>2026-03-22T12:31:22Z</time></trkpt><trkpt lat="42.7669611507192" lon="-2.0085034557748505"><ele>837.0</ele><time>2026-03-22T12:31:23Z</time></trkpt><trkpt lat="42.766792497134325" lon="-2.008609699434507"><ele>834.0</ele><time>2026-03-22T12:31:24Z</time></trkpt><trkpt lat="42.76663885221412" lon="-2.008716822455375"><ele>831.0</ele><time>2026-03-22T12:31:25Z</time></trkpt><trkpt lat="42.766495720224945" lon="-2.0088416935364855"><ele>828.0</ele><time>2026-03-22T12:31:26Z</time></trkpt><trkpt lat="42.766373708468976" lon="-2.0089955334292817"><ele>830.3333333333333</ele><time>2026-03-22T12:31:27Z</time></trkpt><trkpt lat="42.76626397612468" lon="-2.0091909690525096"><ele>832.6666666666666</ele><time>2026-03-22T12:31:28Z</time></trkpt><trkpt lat="42.76615123919872" lon="-2.0094071700712375"><ele>835.0</ele><time>2026-03-22T12:31:29Z</time></trkpt><trkpt lat="42.76603782540324" lon="-2.009638961519006"><ele>831.3333333333333</ele><time>2026-03-22T12:31:30Z</time></trkpt><trkpt lat="42.76592338312618" lon="-2.0098535615456403"><ele>827.6666666666667</ele><time>2026-03-22T12:31:31Z</time></trkpt><trkpt lat="42.765806047402734" lon="-2.01006033773514"><ele>824.0</ele><time>2026-03-22T12:31:32Z</time></trkpt><trkpt lat="42.765686433840955" lon="-2.0102350783538405"><ele>824.0</ele><time>2026-03-22T12:31:33Z</time></trkpt><trkpt lat="42.76555358437941" lon="-2.0103812178619074"><ele>824.0</ele><time>2026-03-22T12:31:34Z</time></trkpt><trkpt lat="42.76541500580918" lon="-2.0104962352027367"><ele>824.0</ele><time>2026-03-22T12:31:35Z</time></trkpt><trkpt lat="42.76525356178548" lon="-2.010571945493093"><ele>820.3333333333334</ele><time>2026-03-22T12:31:36Z</time></trkpt><trkpt lat="42.76507391342888" lon="-2.0105814163544844"><ele>816.6666666666667</ele><time>2026-03-22T12:31:37Z</time></trkpt><trkpt lat="42.76486938559537" lon="-2.010564857656754"><ele>813.0</ele><time>2026-03-22T12:31:38Z</time></trkpt><trkpt lat="42.76464544491893" lon="-2.0105481289573532"><ele>813.0</ele><time>2026-03-22T12:31:39Z</time></trkpt><trkpt lat="42.7644133129667" lon="-2.010534663383144"><ele>813.0</ele><time>2026-03-22T12:31:40Z</time></trkpt><trkpt lat="42.76419970286113" lon="-2.010530500492245"><ele>813.0</ele><time>2026-03-22T12:31:41Z</time></trkpt><trkpt lat="42.76399378372715" lon="-2.0105424330828567"><ele>811.0</ele><time>2026-03-22T12:31:42Z</time></trkpt><trkpt lat="42.76379015485459" lon="-2.010580687766809"><ele>809.0</ele><time>2026-03-22T12:31:43Z</time></trkpt><trkpt lat="42.76357836479991" lon="-2.0105637293432923"><ele>807.0</ele><time>2026-03-22T12:31:44Z</time></trkpt><trkpt lat="42.76335246723837" lon="-2.010738474860638"><ele>807.5</ele><time>2026-03-22T12:31:45Z</time></trkpt><trkpt lat="42.76311559483437" lon="-2.010834640208038"><ele>808.0</ele><time>2026-03-22T12:31:46Z</time></trkpt><trkpt lat="42.76286706342048" lon="-2.010917082505317"><ele>803.0</ele><time>2026-03-22T12:31:47Z</time></trkpt><trkpt lat="42.762611617093526" lon="-2.0110083628422935"><ele>798.0</ele><time>2026-03-22T12:31:48Z</time></trkpt><trkpt lat="42.76235044990243" lon="-2.0110971211213795"><ele>798.0</ele><time>2026-03-22T12:31:49Z</time></trkpt><trkpt lat="42.76208547216832" lon="-2.0111800993953306"><ele>798.0</ele><time>2026-03-22T12:31:50Z</time></trkpt><trkpt lat="42.761829193167095" lon="-2.011271511970159"><ele>793.5</ele><time>2026-03-22T12:31:51Z</time></trkpt><trkpt lat="42.76159078789812" lon="-2.0113584642943056"><ele>789.0</ele><time>2026-03-22T12:31:52Z</time></trkpt><trkpt lat="42.761366883765476" lon="-2.0114418510537457"><ele>789.0</ele><time>2026-03-22T12:31:53Z</time></trkpt><trkpt lat="42.76115756531312" lon="-2.011525510066945"><ele>789.0</ele><time>2026-03-22T12:31:54Z</time></trkpt><trkpt lat="42.76097957495098" lon="-2.0116310022954633"><ele>789.0</ele><time>2026-03-22T12:31:55Z</time></trkpt><trkpt lat="42.76081919215453" lon="-2.01176633366861"><ele>790.0</ele><time>2026-03-22T12:31:56Z</time></trkpt><trkpt lat="42.76066953473098" lon="-2.011926419133707"><ele>791.0</ele><time>2026-03-22T12:31:57Z</time></trkpt><trkpt lat="42.76053690241284" lon="-2.012113985194437"><ele>792.0</ele><time>2026-03-22T12:31:58Z</time></trkpt><trkpt lat="42.76043002098019" lon="-2.0123266735481224"><ele>793.0</ele><time>2026-03-22T12:31:59Z</time></trkpt><trkpt lat="42.76031288298539" lon="-2.012508501067681"><ele>794.0</ele><time>2026-03-22T12:32:00Z</time></trkpt><trkpt lat="42.7601792209876" lon="-2.0126624910146647"><ele>795.0</ele><time>2026-03-22T12:32:01Z</time></trkpt><trkpt lat="42.76002084440864" lon="-2.012759942113917"><ele>792.3333333333333</ele><time>2026-03-22T12:32:02Z</time></trkpt><trkpt lat="42.75984641475226" lon="-2.0128090139448545"><ele>789.6666666666666</ele><time>2026-03-22T12:32:03Z</time></trkpt><trkpt lat="42.75965646914166" lon="-2.0128429492766338"><ele>787.0</ele><time>2026-03-22T12:32:04Z</time></trkpt><trkpt lat="42.75945707443998" lon="-2.012861856954298"><ele>786.3333333333333</ele><time>2026-03-22T12:32:05Z</time></trkpt><trkpt lat="42.759248251027316" lon="-2.0128622284912474"><ele>785.6666666666667</ele><time>2026-03-22T12:32:06Z</time></trkpt><trkpt lat="42.75903641293477" lon="-2.012826171899192"><ele>785.0</ele><time>2026-03-22T12:32:06.999Z</time></trkpt><trkpt lat="42.75881491924078" lon="-2.0127484221315366"><ele>785.0</ele><time>2026-03-22T12:32:07.999Z</time></trkpt><trkpt lat="42.75859170881166" lon="-2.0126281257200453"><ele>785.0</ele><time>2026-03-22T12:32:08.999Z</time></trkpt><trkpt lat="42.75836545256515" lon="-2.012479121214537"><ele>784.0</ele><time>2026-03-22T12:32:09.999Z</time></trkpt><trkpt lat="42.75813120721273" lon="-2.01232227805162"><ele>783.0</ele><time>2026-03-22T12:32:10.999Z</time></trkpt><trkpt lat="42.75791834221048" lon="-2.012180710084743"><ele>783.0</ele><time>2026-03-22T12:32:11.999Z</time></trkpt><trkpt lat="42.75772406137634" lon="-2.0120516555081136"><ele>783.0</ele><time>2026-03-22T12:32:12.999Z</time></trkpt><trkpt lat="42.757538573688706" lon="-2.011928972159692"><ele>783.0</ele><time>2026-03-22T12:32:13.999Z</time></trkpt><trkpt lat="42.75735624654642" lon="-2.0118155316981348"><ele>784.3333333333333</ele><time>2026-03-22T12:32:14.999Z</time></trkpt><trkpt lat="42.757172965086184" lon="-2.0117194092035358"><ele>785.6666666666666</ele><time>2026-03-22T12:32:15.999Z</time></trkpt><trkpt lat="42.75698873593536" lon="-2.011641235593621"><ele>787.0</ele><time>2026-03-22T12:32:16.999Z</time></trkpt><trkpt lat="42.75679830919092" lon="-2.011583383827354"><ele>782.3333333333333</ele><time>2026-03-22T12:32:17.999Z</time></trkpt><trkpt lat="42.75661686625035" lon="-2.0115408195078275"><ele>777.6666666666667</ele><time>2026-03-22T12:32:18.999Z</time></trkpt><trkpt lat="42.756442974643704" lon="-2.0115012779282844"><ele>773.0</ele><time>2026-03-22T12:32:19.999Z</time></trkpt><trkpt lat="42.75627399603685" lon="-2.0114624363316005"><ele>773.0</ele><time>2026-03-22T12:32:20.999Z</time></trkpt><trkpt lat="42.7561016912584" lon="-2.011431344841378"><ele>773.0</ele><time>2026-03-22T12:32:21.999Z</time></trkpt><trkpt lat="42.755938185637156" lon="-2.011412230735766"><ele>773.0</ele><time>2026-03-22T12:32:22.999Z</time></trkpt><trkpt lat="42.75576866173056" lon="-2.01142585074741"><ele>770.3333333333334</ele><time>2026-03-22T12:32:23.999Z</time></trkpt><trkpt lat="42.755581399725436" lon="-2.0114558272755683"><ele>767.6666666666667</ele><time>2026-03-22T12:32:24.999Z</time></trkpt><trkpt lat="42.75540173692429" lon="-2.011497543881459"><ele>765.0</ele><time>2026-03-22T12:32:25.999Z</time></trkpt><trkpt lat="42.75522526994801" lon="-2.0115642348825458"><ele>767.3333333333333</ele><time>2026-03-22T12:32:26.999Z</time></trkpt><trkpt lat="42.755046229712285" lon="-2.0116549914729958"><ele>769.6666666666666</ele><time>2026-03-22T12:32:27.999Z</time></trkpt><trkpt lat="42.7548699075003" lon="-2.0117796776722563"><ele>772.0</ele><time>2026-03-22T12:32:28.999Z</time></trkpt><trkpt lat="42.754703617219505" lon="-2.01191810032822"><ele>772.0</ele><time>2026-03-22T12:32:29.999Z</time></trkpt><trkpt lat="42.75454776668933" lon="-2.0120432031460127"><ele>772.0</ele><time>2026-03-22T12:32:30.999Z</time></trkpt><trkpt lat="42.75442097755229" lon="-2.0121685920656285"><ele>772.0</ele><time>2026-03-22T12:32:31.999Z</time></trkpt><trkpt lat="42.754318893743346" lon="-2.012306337794611"><ele>771.5</ele><time>2026-03-22T12:32:32.999Z</time></trkpt><trkpt lat="42.75425565261031" lon="-2.0124609365379653"><ele>771.0</ele><time>2026-03-22T12:32:33.999Z</time></trkpt><trkpt lat="42.75421708537234" lon="-2.0126485393399465"><ele>770.5</ele><time>2026-03-22T12:32:34.999Z</time></trkpt><trkpt lat="42.754172267046556" lon="-2.0128511434448257"><ele>770.0</ele><time>2026-03-22T12:32:35.999Z</time></trkpt><trkpt lat="42.75412352497188" lon="-2.01307246538022"><ele>770.0</ele><time>2026-03-22T12:32:36.999Z</time></trkpt><trkpt lat="42.75408239734952" lon="-2.013303689980948"><ele>770.0</ele><time>2026-03-22T12:32:37.999Z</time></trkpt><trkpt lat="42.75405139870672" lon="-2.013545954876841"><ele>770.0</ele><time>2026-03-22T12:32:38.999Z</time></trkpt><trkpt lat="42.75403009794011" lon="-2.013802192659193"><ele>769.6666666666667</ele><time>2026-03-22T12:32:39.999Z</time></trkpt><trkpt lat="42.75402328873674" lon="-2.014065825162646"><ele>769.3333333333333</ele><time>2026-03-22T12:32:40.999Z</time></trkpt><trkpt lat="42.754032587356704" lon="-2.0143319953566654"><ele>769.0</ele><time>2026-03-22T12:32:41.999Z</time></trkpt><trkpt lat="42.754047129669324" lon="-2.014604140507699"><ele>769.0</ele><time>2026-03-22T12:32:42.999Z</time></trkpt><trkpt lat="42.75406755336606" lon="-2.014873814283616"><ele>769.0</ele><time>2026-03-22T12:32:43.999Z</time></trkpt><trkpt lat="42.754104162396054" lon="-2.015126902416626"><ele>769.0</ele><time>2026-03-22T12:32:44.999Z</time></trkpt><trkpt lat="42.75415772588671" lon="-2.015349943707595"><ele>767.0</ele><time>2026-03-22T12:32:45.999Z</time></trkpt><trkpt lat="42.75420050013904" lon="-2.015564377663332"><ele>765.0</ele><time>2026-03-22T12:32:46.999Z</time></trkpt><trkpt lat="42.7542247101823" lon="-2.015789969764567"><ele>763.0</ele><time>2026-03-22T12:32:47.999Z</time></trkpt><trkpt lat="42.75422199524214" lon="-2.0160202065480277"><ele>762.0</ele><time>2026-03-22T12:32:48.999Z</time></trkpt><trkpt lat="42.75417617522569" lon="-2.016259745807973"><ele>761.0</ele><time>2026-03-22T12:32:49.999Z</time></trkpt><trkpt lat="42.75412206619859" lon="-2.016491321258495"><ele>760.0</ele><time>2026-03-22T12:32:50.999Z</time></trkpt><trkpt lat="42.75405682305472" lon="-2.01670723932286"><ele>760.0</ele><time>2026-03-22T12:32:51.999Z</time></trkpt><trkpt lat="42.75397768543311" lon="-2.016907251353362"><ele>760.0</ele><time>2026-03-22T12:32:52.999Z</time></trkpt><trkpt lat="42.75388232929074" lon="-2.0170880744095054"><ele>760.0</ele><time>2026-03-22T12:32:53.999Z</time></trkpt><trkpt lat="42.7537780520926" lon="-2.0172521860980486"><ele>760.0</ele><time>2026-03-22T12:32:54.999Z</time></trkpt><trkpt lat="42.75367212958556" lon="-2.0174100847118153"><ele>760.0</ele><time>2026-03-22T12:32:55.999Z</time></trkpt><trkpt lat="42.75356571202733" lon="-2.0175589203883986"><ele>760.0</ele><time>2026-03-22T12:32:56.999Z</time></trkpt><trkpt lat="42.75345264328759" lon="-2.0176936338884905"><ele>757.25</ele><time>2026-03-22T12:32:57.999Z</time></trkpt><trkpt lat="42.75333172629212" lon="-2.0178111364293634"><ele>754.5</ele><time>2026-03-22T12:32:58.999Z</time></trkpt><trkpt lat="42.75320477614196" lon="-2.0179068042348622"><ele>751.75</ele><time>2026-03-22T12:32:59.999Z</time></trkpt><trkpt lat="42.75307485867954" lon="-2.017973285783135"><ele>749.0</ele><time>2026-03-22T12:33:00.999Z</time></trkpt><trkpt lat="42.75293770835982" lon="-2.0180106336039367"><ele>749.0</ele><time>2026-03-22T12:33:01.999Z</time></trkpt><trkpt lat="42.75279930420706" lon="-2.018018292064383"><ele>749.0</ele><time>2026-03-22T12:33:02.999Z</time></trkpt><trkpt lat="42.75266222855341" lon="-2.0179969510350904"><ele>749.0</ele><time>2026-03-22T12:33:03.999Z</time></trkpt><trkpt lat="42.752537643491294" lon="-2.0179515378483974"><ele>749.0</ele><time>2026-03-22T12:33:04.999Z</time></trkpt><trkpt lat="42.75242304519418" lon="-2.017895647869265"><ele>747.4000000000001</ele><time>2026-03-22T12:33:05.999Z</time></trkpt><trkpt lat="42.75232286352694" lon="-2.0178268809949134"><ele>745.8</ele><time>2026-03-22T12:33:06.998Z</time></trkpt><trkpt lat="42.75223890337938" lon="-2.0177477831026627"><ele>744.2</ele><time>2026-03-22T12:33:07.998Z</time></trkpt><trkpt lat="42.75217936279392" lon="-2.017664623537001"><ele>742.5999999999999</ele><time>2026-03-22T12:33:08.998Z</time></trkpt><trkpt lat="42.7521266357149" lon="-2.017576269687434"><ele>741.0</ele><time>2026-03-22T12:33:09.998Z</time></trkpt><trkpt lat="42.752074541988335" lon="-2.0174938199237413"><ele>740.1666666666666</ele><time>2026-03-22T12:33:10.998Z</time></trkpt><trkpt lat="42.75202736206458" lon="-2.017404815061753"><ele>739.3333333333334</ele><time>2026-03-22T12:33:11.998Z</time></trkpt><trkpt lat="42.75199895765012" lon="-2.0173045413427357"><ele>738.5</ele><time>2026-03-22T12:33:12.998Z</time></trkpt><trkpt lat="42.75194628025887" lon="-2.0172178590616365"><ele>737.6666666666667</ele><time>2026-03-22T12:33:13.998Z</time></trkpt><trkpt lat="42.751893403499295" lon="-2.017110313651908"><ele>736.8333333333334</ele><time>2026-03-22T12:33:14.998Z</time></trkpt><trkpt lat="42.751843892665974" lon="-2.016985376125624"><ele>736.0</ele><time>2026-03-22T12:33:15.998Z</time></trkpt><trkpt lat="42.751788475564716" lon="-2.016848489353608"><ele>736.0</ele><time>2026-03-22T12:33:16.998Z</time></trkpt><trkpt lat="42.751720778779166" lon="-2.0167047152708175"><ele>736.0</ele><time>2026-03-22T12:33:17.998Z</time></trkpt><trkpt lat="42.75164545063947" lon="-2.016550387491041"><ele>736.0</ele><time>2026-03-22T12:33:18.998Z</time></trkpt><trkpt lat="42.75156816045894" lon="-2.0163703975546974"><ele>736.0</ele><time>2026-03-22T12:33:19.998Z</time></trkpt><trkpt lat="42.75148091822657" lon="-2.01617295996323"><ele>735.6666666666667</ele><time>2026-03-22T12:33:20.998Z</time></trkpt><trkpt lat="42.75139419167802" lon="-2.0159830722504335"><ele>735.3333333333334</ele><time>2026-03-22T12:33:21.998Z</time></trkpt><trkpt lat="42.751303217436906" lon="-2.0157783069491573"><ele>735.0</ele><time>2026-03-22T12:33:22.998Z</time></trkpt><trkpt lat="42.75120725380559" lon="-2.0155655711967357"><ele>734.6666666666666</ele><time>2026-03-22T12:33:23.998Z</time></trkpt><trkpt lat="42.751107141894465" lon="-2.0153464831435812"><ele>734.3333333333333</ele><time>2026-03-22T12:33:25Z</time></trkpt><trkpt lat="42.75100171621135" lon="-2.015125572615088"><ele>734.0</ele><time>2026-03-22T12:33:26Z</time></trkpt><trkpt lat="42.75088835693982" lon="-2.014907407922614"><ele>731.6666666666666</ele><time>2026-03-22T12:33:27Z</time></trkpt><trkpt lat="42.75076877845449" lon="-2.014699429018876"><ele>729.3333333333334</ele><time>2026-03-22T12:33:28Z</time></trkpt><trkpt lat="42.75065279868555" lon="-2.014510308790545"><ele>727.0</ele><time>2026-03-22T12:33:29Z</time></trkpt><trkpt lat="42.75053626655889" lon="-2.014338155159324"><ele>727.0</ele><time>2026-03-22T12:33:30Z</time></trkpt><trkpt lat="42.750418343336094" lon="-2.014173200566145"><ele>727.0</ele><time>2026-03-22T12:33:31Z</time></trkpt><trkpt lat="42.75029714599264" lon="-2.0140305513844448"><ele>727.0</ele><time>2026-03-22T12:33:32Z</time></trkpt><trkpt lat="42.750167772337534" lon="-2.013914538596959"><ele>723.6666666666667</ele><time>2026-03-22T12:33:33Z</time></trkpt><trkpt lat="42.750025287561904" lon="-2.013824646957538"><ele>720.3333333333334</ele><time>2026-03-22T12:33:34Z</time></trkpt><trkpt lat="42.749863890928" lon="-2.013746368654535"><ele>717.0</ele><time>2026-03-22T12:33:35Z</time></trkpt><trkpt lat="42.74969408434884" lon="-2.013681068902905"><ele>717.0</ele><time>2026-03-22T12:33:36Z</time></trkpt><trkpt lat="42.74952316549177" lon="-2.013619493840458"><ele>717.0</ele><time>2026-03-22T12:33:37Z</time></trkpt><trkpt lat="42.749353323811796" lon="-2.013572072736967"><ele>717.0</ele><time>2026-03-22T12:33:38Z</time></trkpt><trkpt lat="42.74919113196058" lon="-2.0135497967191633"><ele>718.6666666666666</ele><time>2026-03-22T12:33:39Z</time></trkpt><trkpt lat="42.74903511488629" lon="-2.0135549284616956"><ele>720.3333333333333</ele><time>2026-03-22T12:33:40Z</time></trkpt><trkpt lat="42.74888245333466" lon="-2.0135844909920535"><ele>722.0</ele><time>2026-03-22T12:33:41Z</time></trkpt><trkpt lat="42.748733109488185" lon="-2.013644382363357"><ele>722.0</ele><time>2026-03-22T12:33:42Z</time></trkpt><trkpt lat="42.748602452869456" lon="-2.013738174102143"><ele>722.0</ele><time>2026-03-22T12:33:43Z</time></trkpt><trkpt lat="42.74848852953864" lon="-2.0138716540217505"><ele>722.0</ele><time>2026-03-22T12:33:44Z</time></trkpt><trkpt lat="42.748393406217225" lon="-2.0140315067530916"><ele>722.0</ele><time>2026-03-22T12:33:45Z</time></trkpt><trkpt lat="42.74831393945014" lon="-2.0142302073408977"><ele>722.0</ele><time>2026-03-22T12:33:46Z</time></trkpt><trkpt lat="42.74823171943373" lon="-2.014437272464379"><ele>722.0</ele><time>2026-03-22T12:33:47Z</time></trkpt><trkpt lat="42.74814717589893" lon="-2.0146672598817035"><ele>722.0</ele><time>2026-03-22T12:33:48Z</time></trkpt><trkpt lat="42.748065619797984" lon="-2.0149011781175252"><ele>722.6666666666666</ele><time>2026-03-22T12:33:49Z</time></trkpt><trkpt lat="42.74798111712601" lon="-2.0151310399173954"><ele>723.3333333333334</ele><time>2026-03-22T12:33:50Z</time></trkpt><trkpt lat="42.74789202095448" lon="-2.0153625876371892"><ele>724.0</ele><time>2026-03-22T12:33:51Z</time></trkpt><trkpt lat="42.74780669096918" lon="-2.015580451142053"><ele>724.0</ele><time>2026-03-22T12:33:52Z</time></trkpt><trkpt lat="42.74771746012969" lon="-2.0157763262145902"><ele>724.0</ele><time>2026-03-22T12:33:53Z</time></trkpt><trkpt lat="42.74761672872151" lon="-2.0159423547455284"><ele>724.0</ele><time>2026-03-22T12:33:54Z</time></trkpt><trkpt lat="42.74749739883297" lon="-2.016090970021708"><ele>720.0</ele><time>2026-03-22T12:33:55Z</time></trkpt><trkpt lat="42.747351980006314" lon="-2.0162209909639697"><ele>716.0</ele><time>2026-03-22T12:33:56Z</time></trkpt><trkpt lat="42.74718422139694" lon="-2.016341363422566"><ele>712.0</ele><time>2026-03-22T12:33:57Z</time></trkpt><trkpt lat="42.747002565535084" lon="-2.0164577251852442"><ele>711.3333333333334</ele><time>2026-03-22T12:33:58Z</time></trkpt><trkpt lat="42.746817879933815" lon="-2.0165776141639737"><ele>710.6666666666666</ele><time>2026-03-22T12:33:59Z</time></trkpt><trkpt lat="42.74664314825414" lon="-2.0166889153126877"><ele>710.0</ele><time>2026-03-22T12:34:00Z</time></trkpt><trkpt lat="42.74647791973254" lon="-2.0167971056569414"><ele>710.0</ele><time>2026-03-22T12:34:01Z</time></trkpt><trkpt lat="42.746319614348764" lon="-2.01690492885492"><ele>710.0</ele><time>2026-03-22T12:34:02Z</time></trkpt><trkpt lat="42.74617024527876" lon="-2.017021214342947"><ele>710.0</ele><time>2026-03-22T12:34:03Z</time></trkpt><trkpt lat="42.74603410878191" lon="-2.017148582959275"><ele>708.0</ele><time>2026-03-22T12:34:04Z</time></trkpt><trkpt lat="42.74591178317872" lon="-2.017287202004959"><ele>706.0</ele><time>2026-03-22T12:34:05Z</time></trkpt><trkpt lat="42.745793133254594" lon="-2.017421287353059"><ele>704.0</ele><time>2026-03-22T12:34:06Z</time></trkpt><trkpt lat="42.745672713205515" lon="-2.0175468548678706"><ele>704.0</ele><time>2026-03-22T12:34:07Z</time></trkpt><trkpt lat="42.7455591299117" lon="-2.017673640174618"><ele>704.0</ele><time>2026-03-22T12:34:08Z</time></trkpt><trkpt lat="42.74544632117563" lon="-2.01778986905615"><ele>704.0</ele><time>2026-03-22T12:34:09Z</time></trkpt><trkpt lat="42.745327255589046" lon="-2.017893203898099"><ele>704.0</ele><time>2026-03-22T12:34:10Z</time></trkpt><trkpt lat="42.74522912123296" lon="-2.017996473821562"><ele>701.25</ele><time>2026-03-22T12:34:11Z</time></trkpt><trkpt lat="42.74513745374748" lon="-2.018090696039669"><ele>698.5</ele><time>2026-03-22T12:34:11.999Z</time></trkpt><trkpt lat="42.74504662243543" lon="-2.018189100230963"><ele>695.75</ele><time>2026-03-22T12:34:12.999Z</time></trkpt><trkpt lat="42.74495386199142" lon="-2.0182836814491942"><ele>693.0</ele><time>2026-03-22T12:34:13.999Z</time></trkpt><trkpt lat="42.74486614726975" lon="-2.0183803844901513"><ele>693.0</ele><time>2026-03-22T12:34:14.999Z</time></trkpt><trkpt lat="42.74478858390058" lon="-2.0184881884168986"><ele>693.0</ele><time>2026-03-22T12:34:15.999Z</time></trkpt><trkpt lat="42.74472265996991" lon="-2.0186093272826255"><ele>693.0</ele><time>2026-03-22T12:34:16.999Z</time></trkpt><trkpt lat="42.74468157863952" lon="-2.018748830793429"><ele>693.0</ele><time>2026-03-22T12:34:17.999Z</time></trkpt><trkpt lat="42.74465686771612" lon="-2.018896993954212"><ele>693.0</ele><time>2026-03-22T12:34:18.999Z</time></trkpt><trkpt lat="42.7446525317635" lon="-2.0190381494879905"><ele>692.1666666666666</ele><time>2026-03-22T12:34:19.999Z</time></trkpt><trkpt lat="42.74467118039498" lon="-2.019155231458327"><ele>691.3333333333334</ele><time>2026-03-22T12:34:20.999Z</time></trkpt><trkpt lat="42.744714080196815" lon="-2.019250626873707"><ele>690.5</ele><time>2026-03-22T12:34:21.999Z</time></trkpt><trkpt lat="42.74479106550539" lon="-2.0192960701452045"><ele>689.6666666666667</ele><time>2026-03-22T12:34:22.999Z</time></trkpt><trkpt lat="42.744873620901316" lon="-2.0193219060366023"><ele>688.8333333333334</ele><time>2026-03-22T12:34:23.999Z</time></trkpt><trkpt lat="42.74497600484623" lon="-2.0193510352361486"><ele>688.0</ele><time>2026-03-22T12:34:24.999Z</time></trkpt><trkpt lat="42.745091747726946" lon="-2.019379688187112"><ele>687.75</ele><time>2026-03-22T12:34:25.999Z</time></trkpt><trkpt lat="42.74521722395084" lon="-2.019406696949724"><ele>687.5</ele><time>2026-03-22T12:34:26.999Z</time></trkpt><trkpt lat="42.74535324439783" lon="-2.019432762077683"><ele>687.25</ele><time>2026-03-22T12:34:27.999Z</time></trkpt><trkpt lat="42.745488671534986" lon="-2.0194584163285607"><ele>687.0</ele><time>2026-03-22T12:34:28.999Z</time></trkpt><trkpt lat="42.74561003822228" lon="-2.0194809267001204"><ele>687.0</ele><time>2026-03-22T12:34:29.999Z</time></trkpt><trkpt lat="42.74572582647273" lon="-2.019502471469079"><ele>687.0</ele><time>2026-03-22T12:34:30.999Z</time></trkpt><trkpt lat="42.74583778555557" lon="-2.0195233037528384"><ele>687.0</ele><time>2026-03-22T12:34:31.999Z</time></trkpt><trkpt lat="42.74594100926078" lon="-2.019542903849775"><ele>687.0</ele><time>2026-03-22T12:34:32.999Z</time></trkpt><trkpt lat="42.7460344179582" lon="-2.019563757349618"><ele>687.0</ele><time>2026-03-22T12:34:33.999Z</time></trkpt><trkpt lat="42.746115152945436" lon="-2.0195887631466873"><ele>687.5</ele><time>2026-03-22T12:34:34.999Z</time></trkpt><trkpt lat="42.74618828348746" lon="-2.0196240487648964"><ele>688.0</ele><time>2026-03-22T12:34:35.999Z</time></trkpt><trkpt lat="42.74625089346606" lon="-2.0196717734625222"><ele>688.5</ele><time>2026-03-22T12:34:36.999Z</time></trkpt><trkpt lat="42.746305930691335" lon="-2.0197380406951373"><ele>689.0</ele><time>2026-03-22T12:34:37.999Z</time></trkpt><trkpt lat="42.74632983216389" lon="-2.0198496177159404"><ele>689.5</ele><time>2026-03-22T12:34:38.999Z</time></trkpt><trkpt lat="42.74634425960003" lon="-2.019946998192561"><ele>690.0</ele><time>2026-03-22T12:34:39.999Z</time></trkpt><trkpt lat="42.74634138867676" lon="-2.0200428250554476"><ele>688.5</ele><time>2026-03-22T12:34:40.999Z</time></trkpt><trkpt lat="42.74632126280104" lon="-2.0201309607918376"><ele>687.0</ele><time>2026-03-22T12:34:41.999Z</time></trkpt><trkpt lat="42.74629063780007" lon="-2.0202218305537767"><ele>685.5</ele><time>2026-03-22T12:34:42.999Z</time></trkpt><trkpt lat="42.74623807639597" lon="-2.0203042022239632"><ele>684.0</ele><time>2026-03-22T12:34:43.999Z</time></trkpt><trkpt lat="42.74616045675072" lon="-2.020361905878181"><ele>682.5</ele><time>2026-03-22T12:34:44.999Z</time></trkpt><trkpt lat="42.74605916666014" lon="-2.020397805239944"><ele>681.0</ele><time>2026-03-22T12:34:45.999Z</time></trkpt><trkpt lat="42.74593683944956" lon="-2.0204298178533735"><ele>678.6666666666666</ele><time>2026-03-22T12:34:46.999Z</time></trkpt><trkpt lat="42.745790299655326" lon="-2.0204624789905488"><ele>676.3333333333333</ele><time>2026-03-22T12:34:47.999Z</time></trkpt><trkpt lat="42.74562358548684" lon="-2.0204989392407473"><ele>674.0</ele><time>2026-03-22T12:34:48.999Z</time></trkpt><trkpt lat="42.74546169907831" lon="-2.020535977034688"><ele>674.0</ele><time>2026-03-22T12:34:49.999Z</time></trkpt><trkpt lat="42.74528780113114" lon="-2.0205786720297145"><ele>674.0</ele><time>2026-03-22T12:34:50.999Z</time></trkpt><trkpt lat="42.745102351194284" lon="-2.0206157008849353"><ele>674.0</ele><time>2026-03-22T12:34:51.999Z</time></trkpt><trkpt lat="42.744908377955454" lon="-2.020651797572636"><ele>674.0</ele><time>2026-03-22T12:34:52.999Z</time></trkpt><trkpt lat="42.744718025951954" lon="-2.0206842526435986"><ele>674.0</ele><time>2026-03-22T12:34:53.999Z</time></trkpt><trkpt lat="42.744534360548656" lon="-2.02070590384688"><ele>674.0</ele><time>2026-03-22T12:34:54.999Z</time></trkpt><trkpt lat="42.744352383571446" lon="-2.020710463808516"><ele>672.3333333333333</ele><time>2026-03-22T12:34:55.999Z</time></trkpt><trkpt lat="42.744172665990526" lon="-2.0207068410460014"><ele>670.6666666666666</ele><time>2026-03-22T12:34:56.999Z</time></trkpt><trkpt lat="42.743995902733246" lon="-2.0206940573453176"><ele>669.0</ele><time>2026-03-22T12:34:57.999Z</time></trkpt><trkpt lat="42.74382099232469" lon="-2.0206751284002586"><ele>669.0</ele><time>2026-03-22T12:34:58.999Z</time></trkpt><trkpt lat="42.74365018638543" lon="-2.0206565490226356"><ele>669.0</ele><time>2026-03-22T12:34:59.999Z</time></trkpt><trkpt lat="42.74348406769085" lon="-2.020639878240194"><ele>669.0</ele><time>2026-03-22T12:35:00.999Z</time></trkpt><trkpt lat="42.743315951871466" lon="-2.020625513551974"><ele>666.0</ele><time>2026-03-22T12:35:01.999Z</time></trkpt><trkpt lat="42.743156694862456" lon="-2.0206171227032046"><ele>663.0</ele><time>2026-03-22T12:35:02.999Z</time></trkpt><trkpt lat="42.74300087663145" lon="-2.020611536970471"><ele>660.0</ele><time>2026-03-22T12:35:03.999Z</time></trkpt><trkpt lat="42.74284613708642" lon="-2.0206139986299014"><ele>658.0</ele><time>2026-03-22T12:35:04.999Z</time></trkpt><trkpt lat="42.742694601625544" lon="-2.0206309324529346"><ele>656.0</ele><time>2026-03-22T12:35:05.999Z</time></trkpt><trkpt lat="42.74254769729266" lon="-2.0206559782788185"><ele>654.0</ele><time>2026-03-22T12:35:06.999Z</time></trkpt><trkpt lat="42.742405384719724" lon="-2.0206843290189176"><ele>652.0</ele><time>2026-03-22T12:35:07.999Z</time></trkpt><trkpt lat="42.74227234142803" lon="-2.020720751308016"><ele>652.0</ele><time>2026-03-22T12:35:08.999Z</time></trkpt><trkpt lat="42.74214478952032" lon="-2.0207557066302004"><ele>652.0</ele><time>2026-03-22T12:35:09.998Z</time></trkpt><trkpt lat="42.74201935797815" lon="-2.02078786601066"><ele>652.0</ele><time>2026-03-22T12:35:10.998Z</time></trkpt><trkpt lat="42.741888145374425" lon="-2.0208126594885782"><ele>652.0</ele><time>2026-03-22T12:35:11.998Z</time></trkpt><trkpt lat="42.741750837708764" lon="-2.020842979032402"><ele>651.0</ele><time>2026-03-22T12:35:12.998Z</time></trkpt><trkpt lat="42.74160889242534" lon="-2.020870316796366"><ele>650.0</ele><time>2026-03-22T12:35:13.998Z</time></trkpt><trkpt lat="42.74146092547928" lon="-2.020902414825635"><ele>649.0</ele><time>2026-03-22T12:35:14.998Z</time></trkpt><trkpt lat="42.74131374270623" lon="-2.020933520223438"><ele>648.0</ele><time>2026-03-22T12:35:15.998Z</time></trkpt><trkpt lat="42.741173698104646" lon="-2.0209639052654533"><ele>646.75</ele><time>2026-03-22T12:35:16.998Z</time></trkpt><trkpt lat="42.74104122300909" lon="-2.0209940093667744"><ele>645.5</ele><time>2026-03-22T12:35:17.998Z</time></trkpt><trkpt lat="42.74091031961413" lon="-2.021019141156229"><ele>644.25</ele><time>2026-03-22T12:35:18.998Z</time></trkpt><trkpt lat="42.74078709776529" lon="-2.0210317656361756"><ele>643.0</ele><time>2026-03-22T12:35:19.998Z</time></trkpt><trkpt lat="42.7406628756561" lon="-2.021019427970039"><ele>643.0</ele><time>2026-03-22T12:35:20.998Z</time></trkpt><trkpt lat="42.74053335808802" lon="-2.0209755318134266"><ele>643.0</ele><time>2026-03-22T12:35:21.998Z</time></trkpt><trkpt lat="42.74041015690188" lon="-2.02088768885854"><ele>643.0</ele><time>2026-03-22T12:35:22.998Z</time></trkpt><trkpt lat="42.74029303889898" lon="-2.02076789482691"><ele>643.0</ele><time>2026-03-22T12:35:23.998Z</time></trkpt><trkpt lat="42.7401901754112" lon="-2.020608980957797"><ele>639.6666666666667</ele><time>2026-03-22T12:35:24.998Z</time></trkpt><trkpt lat="42.74009303724259" lon="-2.0204200379186408"><ele>636.3333333333334</ele><time>2026-03-22T12:35:25.998Z</time></trkpt><trkpt lat="42.73999213577665" lon="-2.0202103471238964"><ele>633.0</ele><time>2026-03-22T12:35:26.998Z</time></trkpt><trkpt lat="42.73988427646378" lon="-2.019991759452162"><ele>631.3333333333334</ele><time>2026-03-22T12:35:27.998Z</time></trkpt><trkpt lat="42.73977190688822" lon="-2.0197668337940438"><ele>629.6666666666667</ele><time>2026-03-22T12:35:28.998Z</time></trkpt><trkpt lat="42.73965684154248" lon="-2.019536206508698"><ele>628.0</ele><time>2026-03-22T12:35:29.998Z</time></trkpt><trkpt lat="42.73952637690742" lon="-2.0193150940746754"><ele>628.0</ele><time>2026-03-22T12:35:31Z</time></trkpt><trkpt lat="42.73940793884765" lon="-2.0190832991170526"><ele>628.0</ele><time>2026-03-22T12:35:32Z</time></trkpt><trkpt lat="42.73929036673612" lon="-2.01885118733509"><ele>628.0</ele><time>2026-03-22T12:35:33Z</time></trkpt><trkpt lat="42.739170683166044" lon="-2.0186149387405186"><ele>627.6666666666667</ele><time>2026-03-22T12:35:34Z</time></trkpt><trkpt lat="42.73904968091421" lon="-2.0183760872876046"><ele>627.3333333333334</ele><time>2026-03-22T12:35:35Z</time></trkpt><trkpt lat="42.73892920381996" lon="-2.0181382527038636"><ele>627.0</ele><time>2026-03-22T12:35:36Z</time></trkpt><trkpt lat="42.73880750156496" lon="-2.017895173295617"><ele>625.0</ele><time>2026-03-22T12:35:37Z</time></trkpt><trkpt lat="42.73867654164254" lon="-2.017633603317184"><ele>623.0</ele><time>2026-03-22T12:35:38Z</time></trkpt><trkpt lat="42.73854041748334" lon="-2.0173645804792595"><ele>623.0</ele><time>2026-03-22T12:35:39Z</time></trkpt><trkpt lat="42.738404825725915" lon="-2.0170910022763247"><ele>623.0</ele><time>2026-03-22T12:35:40Z</time></trkpt><trkpt lat="42.7382350099567" lon="-2.0168648212288325"><ele>622.3333333333333</ele><time>2026-03-22T12:35:41Z</time></trkpt><trkpt lat="42.738083873909176" lon="-2.0166466804461813"><ele>621.6666666666666</ele><time>2026-03-22T12:35:42Z</time></trkpt><trkpt lat="42.73794182651622" lon="-2.0164481430450603"><ele>621.0</ele><time>2026-03-22T12:35:43Z</time></trkpt><trkpt lat="42.737802114778404" lon="-2.0162483857996336"><ele>620.6666666666666</ele><time>2026-03-22T12:35:44Z</time></trkpt><trkpt lat="42.73766640588046" lon="-2.016054351883952"><ele>620.3333333333333</ele><time>2026-03-22T12:35:45Z</time></trkpt><trkpt lat="42.73754775987047" lon="-2.0158568346318373"><ele>620.0</ele><time>2026-03-22T12:35:46Z</time></trkpt><trkpt lat="42.737408329350146" lon="-2.015691831120473"><ele>620.0</ele><time>2026-03-22T12:35:47Z</time></trkpt><trkpt lat="42.73726217613838" lon="-2.015539755103072"><ele>620.0</ele><time>2026-03-22T12:35:48Z</time></trkpt><trkpt lat="42.737114580306745" lon="-2.01540725109265"><ele>620.0</ele><time>2026-03-22T12:35:49Z</time></trkpt><trkpt lat="42.73696448687811" lon="-2.015290558977012"><ele>620.6666666666666</ele><time>2026-03-22T12:35:50Z</time></trkpt><trkpt lat="42.73681330422555" lon="-2.015190778001534"><ele>621.3333333333334</ele><time>2026-03-22T12:35:51Z</time></trkpt><trkpt lat="42.736655882773945" lon="-2.015110399297212"><ele>622.0</ele><time>2026-03-22T12:35:52Z</time></trkpt><trkpt lat="42.73649159811774" lon="-2.0150539165477404"><ele>622.0</ele><time>2026-03-22T12:35:53Z</time></trkpt><trkpt lat="42.736318175324215" lon="-2.0150230927737383"><ele>622.0</ele><time>2026-03-22T12:35:54Z</time></trkpt><trkpt lat="42.73613527255427" lon="-2.015004545673187"><ele>622.0</ele><time>2026-03-22T12:35:55Z</time></trkpt><trkpt lat="42.735945174778884" lon="-2.0149950222036934"><ele>621.6666666666667</ele><time>2026-03-22T12:35:56Z</time></trkpt><trkpt lat="42.735751070226826" lon="-2.0149907470207826"><ele>621.3333333333334</ele><time>2026-03-22T12:35:57Z</time></trkpt><trkpt lat="42.73555194299482" lon="-2.014985324663752"><ele>621.0</ele><time>2026-03-22T12:35:58Z</time></trkpt><trkpt lat="42.73534532640481" lon="-2.014973964750521"><ele>616.3333333333334</ele><time>2026-03-22T12:35:59Z</time></trkpt><trkpt lat="42.73513773222692" lon="-2.0149597971488302"><ele>611.6666666666667</ele><time>2026-03-22T12:36:00Z</time></trkpt><trkpt lat="42.73492607031921" lon="-2.014942552851151"><ele>607.0</ele><time>2026-03-22T12:36:01Z</time></trkpt><trkpt lat="42.734715328618" lon="-2.0149240658062046"><ele>607.0</ele><time>2026-03-22T12:36:02Z</time></trkpt><trkpt lat="42.73450594008886" lon="-2.0149081016076096"><ele>607.0</ele><time>2026-03-22T12:36:03Z</time></trkpt><trkpt lat="42.73429919345163" lon="-2.0148949158005687"><ele>607.0</ele><time>2026-03-22T12:36:04Z</time></trkpt><trkpt lat="42.73409798401692" lon="-2.0148817290477528"><ele>607.6666666666667</ele><time>2026-03-22T12:36:05Z</time></trkpt><trkpt lat="42.73390622962659" lon="-2.014868624013681"><ele>608.3333333333334</ele><time>2026-03-22T12:36:06Z</time></trkpt><trkpt lat="42.733728962400185" lon="-2.014860186927834"><ele>609.0</ele><time>2026-03-22T12:36:07Z</time></trkpt><trkpt lat="42.73356655191845" lon="-2.014858006884678"><ele>608.0</ele><time>2026-03-22T12:36:08Z</time></trkpt><trkpt lat="42.73340985507432" lon="-2.014872809192382"><ele>607.0</ele><time>2026-03-22T12:36:09Z</time></trkpt><trkpt lat="42.73325182241809" lon="-2.0149260548653642"><ele>606.0</ele><time>2026-03-22T12:36:10Z</time></trkpt><trkpt lat="42.7330796723295" lon="-2.015028502069324"><ele>604.6666666666666</ele><time>2026-03-22T12:36:11Z</time></trkpt><trkpt lat="42.73290100466472" lon="-2.0151523932210997"><ele>603.3333333333333</ele><time>2026-03-22T12:36:12Z</time></trkpt><trkpt lat="42.732718391792794" lon="-2.0152760075778766"><ele>602.0</ele><time>2026-03-22T12:36:13Z</time></trkpt><trkpt lat="42.73255252396091" lon="-2.0153984160786207"><ele>602.0</ele><time>2026-03-22T12:36:14Z</time></trkpt><trkpt lat="42.73239928599882" lon="-2.015509474449768"><ele>602.0</ele><time>2026-03-22T12:36:15Z</time></trkpt><trkpt lat="42.73224000221182" lon="-2.015596068585468"><ele>602.0</ele><time>2026-03-22T12:36:15.999Z</time></trkpt><trkpt lat="42.73206030280703" lon="-2.0156374402851402"><ele>597.0</ele><time>2026-03-22T12:36:16.999Z</time></trkpt><trkpt lat="42.73186430526664" lon="-2.015663017462649"><ele>592.0</ele><time>2026-03-22T12:36:17.999Z</time></trkpt><trkpt lat="42.73165472583348" lon="-2.0156785308036227"><ele>587.0</ele><time>2026-03-22T12:36:18.999Z</time></trkpt><trkpt lat="42.73142709030814" lon="-2.015693880261616"><ele>587.0</ele><time>2026-03-22T12:36:19.999Z</time></trkpt><trkpt lat="42.73118430691394" lon="-2.0157148952354036"><ele>587.0</ele><time>2026-03-22T12:36:20.999Z</time></trkpt><trkpt lat="42.730943456097926" lon="-2.015743094664291"><ele>585.5</ele><time>2026-03-22T12:36:21.999Z</time></trkpt><trkpt lat="42.7307056111362" lon="-2.0157753474524815"><ele>584.0</ele><time>2026-03-22T12:36:22.999Z</time></trkpt><trkpt lat="42.7304759532822" lon="-2.0158089700282216"><ele>585.3333333333333</ele><time>2026-03-22T12:36:23.999Z</time></trkpt><trkpt lat="42.730253839523776" lon="-2.0158369620507437"><ele>586.6666666666666</ele><time>2026-03-22T12:36:24.999Z</time></trkpt><trkpt lat="42.7300477593271" lon="-2.0158611890818685"><ele>588.0</ele><time>2026-03-22T12:36:25.999Z</time></trkpt><trkpt lat="42.72985442323778" lon="-2.0158809166653824"><ele>588.0</ele><time>2026-03-22T12:36:26.999Z</time></trkpt><trkpt lat="42.729676026410445" lon="-2.015899904317536"><ele>588.0</ele><time>2026-03-22T12:36:27.999Z</time></trkpt><trkpt lat="42.729520311489736" lon="-2.015926148131363"><ele>588.0</ele><time>2026-03-22T12:36:28.999Z</time></trkpt><trkpt lat="42.729380211621546" lon="-2.015981243881023"><ele>584.6666666666666</ele><time>2026-03-22T12:36:29.999Z</time></trkpt><trkpt lat="42.729255308926625" lon="-2.0160922841618847"><ele>581.3333333333333</ele><time>2026-03-22T12:36:30.999Z</time></trkpt><trkpt lat="42.729130181229365" lon="-2.016233909135907"><ele>578.0</ele><time>2026-03-22T12:36:31.999Z</time></trkpt><trkpt lat="42.7289978743888" lon="-2.0163824300497164"><ele>578.0</ele><time>2026-03-22T12:36:32.999Z</time></trkpt><trkpt lat="42.72886582556956" lon="-2.0165439160265035"><ele>578.0</ele><time>2026-03-22T12:36:33.999Z</time></trkpt><trkpt lat="42.72873837073072" lon="-2.0166921472892776"><ele>578.0</ele><time>2026-03-22T12:36:34.999Z</time></trkpt><trkpt lat="42.72861788593455" lon="-2.0168432606013633"><ele>574.3333333333333</ele><time>2026-03-22T12:36:35.999Z</time></trkpt><trkpt lat="42.7285047559395" lon="-2.0170074867959795"><ele>570.6666666666666</ele><time>2026-03-22T12:36:36.999Z</time></trkpt><trkpt lat="42.72840716507146" lon="-2.0171917458691495"><ele>567.0</ele><time>2026-03-22T12:36:37.999Z</time></trkpt><trkpt lat="42.72831765350745" lon="-2.017390045877136"><ele>569.6666666666666</ele><time>2026-03-22T12:36:38.999Z</time></trkpt><trkpt lat="42.72822789004671" lon="-2.0175896509827265"><ele>572.3333333333333</ele><time>2026-03-22T12:36:39.999Z</time></trkpt><trkpt lat="42.72814177085838" lon="-2.017774994507326"><ele>575.0</ele><time>2026-03-22T12:36:40.999Z</time></trkpt><trkpt lat="42.72806013691608" lon="-2.0179571648846415"><ele>575.0</ele><time>2026-03-22T12:36:41.999Z</time></trkpt><trkpt lat="42.7279806308384" lon="-2.0181326829220967"><ele>575.0</ele><time>2026-03-22T12:36:42.999Z</time></trkpt><trkpt lat="42.727902577491115" lon="-2.0182977692341946"><ele>575.0</ele><time>2026-03-22T12:36:43.999Z</time></trkpt><trkpt lat="42.72783170457468" lon="-2.0184612502902346"><ele>575.0</ele><time>2026-03-22T12:36:44.999Z</time></trkpt><trkpt lat="42.72778617669515" lon="-2.0186193794402105"><ele>575.25</ele><time>2026-03-22T12:36:45.999Z</time></trkpt><trkpt lat="42.72777115370667" lon="-2.018788790774915"><ele>575.5</ele><time>2026-03-22T12:36:46.999Z</time></trkpt><trkpt lat="42.72778290399631" lon="-2.0189764857514847"><ele>575.75</ele><time>2026-03-22T12:36:47.999Z</time></trkpt><trkpt lat="42.72781035870438" lon="-2.01917102737457"><ele>576.0</ele><time>2026-03-22T12:36:48.999Z</time></trkpt><trkpt lat="42.72783485498329" lon="-2.0193527191437535"><ele>575.0</ele><time>2026-03-22T12:36:49.999Z</time></trkpt><trkpt lat="42.72785924548551" lon="-2.0195215377010136"><ele>574.0</ele><time>2026-03-22T12:36:50.999Z</time></trkpt><trkpt lat="42.72788159388623" lon="-2.0196697676871262"><ele>573.0</ele><time>2026-03-22T12:36:51.999Z</time></trkpt><trkpt lat="42.727898881541584" lon="-2.0198005837570014"><ele>572.0</ele><time>2026-03-22T12:36:52.999Z</time></trkpt><trkpt lat="42.7279108267085" lon="-2.019912833972327"><ele>571.0</ele><time>2026-03-22T12:36:53.999Z</time></trkpt><trkpt lat="42.727914307489634" lon="-2.0200112290122756"><ele>569.8</ele><time>2026-03-22T12:36:54.999Z</time></trkpt><trkpt lat="42.72786264509514" lon="-2.0201623199952823"><ele>568.6</ele><time>2026-03-22T12:36:56.999Z</time></trkpt><trkpt lat="42.72781515690713" lon="-2.020232090103492"><ele>567.4</ele><time>2026-03-22T12:36:57.999Z</time></trkpt><trkpt lat="42.72770062484471" lon="-2.0202839405819266"><ele>566.2</ele><time>2026-03-22T12:36:58.999Z</time></trkpt><trkpt lat="42.72759473505658" lon="-2.0203389771789753"><ele>565.0</ele><time>2026-03-22T12:36:59.999Z</time></trkpt><trkpt lat="42.72747010209247" lon="-2.020392888327208"><ele>563.0</ele><time>2026-03-22T12:37:00.999Z</time></trkpt><trkpt lat="42.727342406470285" lon="-2.0204463571970668"><ele>561.0</ele><time>2026-03-22T12:37:01.999Z</time></trkpt><trkpt lat="42.727223497161916" lon="-2.0204918398440093"><ele>559.0</ele><time>2026-03-22T12:37:02.999Z</time></trkpt><trkpt lat="42.72710988464917" lon="-2.020543961402506"><ele>557.0</ele><time>2026-03-22T12:37:03.999Z</time></trkpt><trkpt lat="42.727004103427156" lon="-2.020590453083596"><ele>557.0</ele><time>2026-03-22T12:37:04.999Z</time></trkpt><trkpt lat="42.72690447874784" lon="-2.020633149824008"><ele>557.0</ele><time>2026-03-22T12:37:05.999Z</time></trkpt><trkpt lat="42.726808445951676" lon="-2.0206802996155857"><ele>557.0</ele><time>2026-03-22T12:37:06.999Z</time></trkpt><trkpt lat="42.72671088217798" lon="-2.02072778003289"><ele>557.0</ele><time>2026-03-22T12:37:07.999Z</time></trkpt><trkpt lat="42.72661837210283" lon="-2.0207912991943386"><ele>557.0</ele><time>2026-03-22T12:37:08.999Z</time></trkpt><trkpt lat="42.726533739612286" lon="-2.020870327336393"><ele>556.8000000000001</ele><time>2026-03-22T12:37:09.999Z</time></trkpt><trkpt lat="42.72645207054654" lon="-2.0209493075001315"><ele>556.6</ele><time>2026-03-22T12:37:10.999Z</time></trkpt><trkpt lat="42.72637319926861" lon="-2.0210219326402448"><ele>556.4000000000001</ele><time>2026-03-22T12:37:11.999Z</time></trkpt><trkpt lat="42.72629710197854" lon="-2.0210853679124523"><ele>556.2</ele><time>2026-03-22T12:37:12.999Z</time></trkpt><trkpt lat="42.726223224229955" lon="-2.0211433105465173"><ele>556.0</ele><time>2026-03-22T12:37:13.998Z</time></trkpt><trkpt lat="42.72614894411623" lon="-2.0212058891212887"><ele>556.0</ele><time>2026-03-22T12:37:14.998Z</time></trkpt><trkpt lat="42.72606484799114" lon="-2.021261065719791"><ele>556.0</ele><time>2026-03-22T12:37:15.998Z</time></trkpt><trkpt lat="42.7259695960166" lon="-2.0213095662119342"><ele>556.0</ele><time>2026-03-22T12:37:16.998Z</time></trkpt><trkpt lat="42.72586933877065" lon="-2.0213383349243315"><ele>556.0</ele><time>2026-03-22T12:37:17.998Z</time></trkpt><trkpt lat="42.72577056082117" lon="-2.02135154574262"><ele>556.0</ele><time>2026-03-22T12:37:18.998Z</time></trkpt><trkpt lat="42.725670030968914" lon="-2.021367233049046"><ele>556.2</ele><time>2026-03-22T12:37:19.998Z</time></trkpt><trkpt lat="42.72556571552179" lon="-2.0213907852086344"><ele>556.4000000000001</ele><time>2026-03-22T12:37:20.998Z</time></trkpt><trkpt lat="42.725465442028785" lon="-2.0214189261533178"><ele>556.6</ele><time>2026-03-22T12:37:21.998Z</time></trkpt><trkpt lat="42.72536426722262" lon="-2.0214526798871577"><ele>556.8000000000001</ele><time>2026-03-22T12:37:22.998Z</time></trkpt><trkpt lat="42.72526593012653" lon="-2.021477680124912"><ele>557.0</ele><time>2026-03-22T12:37:23.998Z</time></trkpt><trkpt lat="42.72517110089176" lon="-2.021501584742999"><ele>556.6666666666666</ele><time>2026-03-22T12:37:24.998Z</time></trkpt><trkpt lat="42.72508284652066" lon="-2.0215258801722205"><ele>556.3333333333333</ele><time>2026-03-22T12:37:25.998Z</time></trkpt><trkpt lat="42.72500506554711" lon="-2.0215603657059416"><ele>556.0</ele><time>2026-03-22T12:37:26.998Z</time></trkpt><trkpt lat="42.72494650568718" lon="-2.0216346438665838"><ele>555.6666666666666</ele><time>2026-03-22T12:37:27.998Z</time></trkpt><trkpt lat="42.72489708996198" lon="-2.021724734106597"><ele>555.3333333333334</ele><time>2026-03-22T12:37:28.998Z</time></trkpt><trkpt lat="42.72484356133206" lon="-2.0218299077226987"><ele>555.0</ele><time>2026-03-22T12:37:29.998Z</time></trkpt><trkpt lat="42.724782468133625" lon="-2.0219360919744465"><ele>556.6</ele><time>2026-03-22T12:37:30.998Z</time></trkpt><trkpt lat="42.7247068953377" lon="-2.022022930346724"><ele>558.2</ele><time>2026-03-22T12:37:31.998Z</time></trkpt><trkpt lat="42.72462498799366" lon="-2.0220923291274384"><ele>559.8</ele><time>2026-03-22T12:37:32.998Z</time></trkpt><trkpt lat="42.72453076964482" lon="-2.022156198367508"><ele>561.4</ele><time>2026-03-22T12:37:33.998Z</time></trkpt><trkpt lat="42.72442286132974" lon="-2.0222309584160034"><ele>563.0</ele><time>2026-03-22T12:37:34.998Z</time></trkpt><trkpt lat="42.724302572095084" lon="-2.022304654535862"><ele>563.0</ele><time>2026-03-22T12:37:35.998Z</time></trkpt><trkpt lat="42.72417595551673" lon="-2.022377593859217"><ele>563.0</ele><time>2026-03-22T12:37:37Z</time></trkpt><trkpt lat="42.724053842212506" lon="-2.0224505415109"><ele>563.0</ele><time>2026-03-22T12:37:38Z</time></trkpt><trkpt lat="42.7239224563315" lon="-2.0225275154205886"><ele>563.0</ele><time>2026-03-22T12:37:39Z</time></trkpt><trkpt lat="42.72378837123167" lon="-2.022607744012705"><ele>562.25</ele><time>2026-03-22T12:37:40Z</time></trkpt><trkpt lat="42.72365599234333" lon="-2.0226870783178494"><ele>561.5</ele><time>2026-03-22T12:37:41Z</time></trkpt><trkpt lat="42.72352514243788" lon="-2.0227642246806683"><ele>560.75</ele><time>2026-03-22T12:37:42Z</time></trkpt><trkpt lat="42.723394372373015" lon="-2.0228428702953285"><ele>560.0</ele><time>2026-03-22T12:37:43Z</time></trkpt><trkpt lat="42.72326454925296" lon="-2.0229214066252807"><ele>559.25</ele><time>2026-03-22T12:37:44Z</time></trkpt><trkpt lat="42.72313308960277" lon="-2.0229998917968066"><ele>558.5</ele><time>2026-03-22T12:37:45Z</time></trkpt><trkpt lat="42.72300405488771" lon="-2.0230799283749534"><ele>557.75</ele><time>2026-03-22T12:37:46Z</time></trkpt><trkpt lat="42.72287684488411" lon="-2.023154785792684"><ele>557.0</ele><time>2026-03-22T12:37:47Z</time></trkpt><trkpt lat="42.72274799383198" lon="-2.0232207060052896"><ele>556.6666666666666</ele><time>2026-03-22T12:37:48Z</time></trkpt><trkpt lat="42.72260732427387" lon="-2.0232703984010696"><ele>556.3333333333334</ele><time>2026-03-22T12:37:49Z</time></trkpt><trkpt lat="42.72245682128789" lon="-2.023288167344159"><ele>556.0</ele><time>2026-03-22T12:37:50Z</time></trkpt><trkpt lat="42.72229325835894" lon="-2.0232655932397754"><ele>556.0</ele><time>2026-03-22T12:37:51Z</time></trkpt><trkpt lat="42.72211162445141" lon="-2.023218621080819"><ele>556.0</ele><time>2026-03-22T12:37:52Z</time></trkpt><trkpt lat="42.72191706232278" lon="-2.023156948578633"><ele>556.0</ele><time>2026-03-22T12:37:53Z</time></trkpt><trkpt lat="42.72170858923451" lon="-2.0230968837087224"><ele>553.0</ele><time>2026-03-22T12:37:54Z</time></trkpt><trkpt lat="42.72147696288391" lon="-2.023034257785607"><ele>550.0</ele><time>2026-03-22T12:37:55Z</time></trkpt><trkpt lat="42.721226896196605" lon="-2.022966213366954"><ele>547.0</ele><time>2026-03-22T12:37:56Z</time></trkpt><trkpt lat="42.7209580058979" lon="-2.0228887541365936"><ele>544.0</ele><time>2026-03-22T12:37:57Z</time></trkpt><trkpt lat="42.720672856624034" lon="-2.0227998719806584"><ele>544.0</ele><time>2026-03-22T12:37:58Z</time></trkpt><trkpt lat="42.72038851300781" lon="-2.0227115510236686"><ele>544.0</ele><time>2026-03-22T12:37:59Z</time></trkpt><trkpt lat="42.72013297890753" lon="-2.0226315198341003"><ele>542.0</ele><time>2026-03-22T12:38:00Z</time></trkpt><trkpt lat="42.71990387086228" lon="-2.0225657774854953"><ele>540.0</ele><time>2026-03-22T12:38:01Z</time></trkpt><trkpt lat="42.71969225910561" lon="-2.0225127963769998"><ele>538.0</ele><time>2026-03-22T12:38:02Z</time></trkpt><trkpt lat="42.71949168300366" lon="-2.0224692282556433"><ele>535.0</ele><time>2026-03-22T12:38:03Z</time></trkpt><trkpt lat="42.71929907322418" lon="-2.0224314561676002"><ele>532.0</ele><time>2026-03-22T12:38:04Z</time></trkpt><trkpt lat="42.71910895601078" lon="-2.0223864894960935"><ele>529.0</ele><time>2026-03-22T12:38:05Z</time></trkpt><trkpt lat="42.71891262910032" lon="-2.0223358224935613"><ele>529.0</ele><time>2026-03-22T12:38:06Z</time></trkpt><trkpt lat="42.71870772652442" lon="-2.022282398746781"><ele>529.0</ele><time>2026-03-22T12:38:07Z</time></trkpt><trkpt lat="42.71851392663735" lon="-2.0222168273571905"><ele>529.0</ele><time>2026-03-22T12:38:08Z</time></trkpt><trkpt lat="42.71834110512642" lon="-2.02211232687335"><ele>529.3333333333334</ele><time>2026-03-22T12:38:09Z</time></trkpt><trkpt lat="42.71816355674192" lon="-2.0219860195661905"><ele>529.6666666666666</ele><time>2026-03-22T12:38:10Z</time></trkpt><trkpt lat="42.71798460225798" lon="-2.021847883323834"><ele>530.0</ele><time>2026-03-22T12:38:11Z</time></trkpt><trkpt lat="42.717804393940206" lon="-2.021713295416992"><ele>531.6666666666666</ele><time>2026-03-22T12:38:12Z</time></trkpt><trkpt lat="42.71762057312162" lon="-2.0215804126131447"><ele>533.3333333333334</ele><time>2026-03-22T12:38:13Z</time></trkpt><trkpt lat="42.71744015679227" lon="-2.021450909074737"><ele>535.0</ele><time>2026-03-22T12:38:14Z</time></trkpt><trkpt lat="42.717271443046926" lon="-2.0213273948916597"><ele>535.0</ele><time>2026-03-22T12:38:15Z</time></trkpt><trkpt lat="42.71710409667187" lon="-2.0212092623964857"><ele>535.0</ele><time>2026-03-22T12:38:16Z</time></trkpt><trkpt lat="42.716937208281124" lon="-2.0210964999911414"><ele>535.0</ele><time>2026-03-22T12:38:17Z</time></trkpt><trkpt lat="42.71676781670877" lon="-2.0209906929379167"><ele>536.0</ele><time>2026-03-22T12:38:18Z</time></trkpt><trkpt lat="42.716597803622335" lon="-2.020890354784321"><ele>537.0</ele><time>2026-03-22T12:38:19Z</time></trkpt><trkpt lat="42.71642660416838" lon="-2.02079184931592"><ele>538.0</ele><time>2026-03-22T12:38:20Z</time></trkpt><trkpt lat="42.71625356984698" lon="-2.020697209390771"><ele>538.0</ele><time>2026-03-22T12:38:20.999Z</time></trkpt><trkpt lat="42.71607797389183" lon="-2.0206037733819295"><ele>538.0</ele><time>2026-03-22T12:38:21.999Z</time></trkpt><trkpt lat="42.71590379564969" lon="-2.020510655611116"><ele>538.0</ele><time>2026-03-22T12:38:22.999Z</time></trkpt><trkpt lat="42.71574098829137" lon="-2.020427480611101"><ele>541.0</ele><time>2026-03-22T12:38:23.999Z</time></trkpt><trkpt lat="42.71558863173063" lon="-2.020350615119729"><ele>544.0</ele><time>2026-03-22T12:38:24.999Z</time></trkpt><trkpt lat="42.715437360233395" lon="-2.0202756528520784"><ele>547.0</ele><time>2026-03-22T12:38:25.999Z</time></trkpt><trkpt lat="42.71529487082627" lon="-2.020226089526474"><ele>549.0</ele><time>2026-03-22T12:38:26.999Z</time></trkpt><trkpt lat="42.71514496127462" lon="-2.020213420844855"><ele>551.0</ele><time>2026-03-22T12:38:27.999Z</time></trkpt><trkpt lat="42.71499284754367" lon="-2.020224739855112"><ele>553.0</ele><time>2026-03-22T12:38:28.999Z</time></trkpt><trkpt lat="42.71484380561089" lon="-2.020216597574172"><ele>553.0</ele><time>2026-03-22T12:38:29.999Z</time></trkpt><trkpt lat="42.71471249179612" lon="-2.0201741139882197"><ele>553.0</ele><time>2026-03-22T12:38:30.999Z</time></trkpt><trkpt lat="42.71458041181096" lon="-2.0201362897178843"><ele>553.0</ele><time>2026-03-22T12:38:31.999Z</time></trkpt><trkpt lat="42.71444845451655" lon="-2.0201022123042742"><ele>553.0</ele><time>2026-03-22T12:38:32.999Z</time></trkpt><trkpt lat="42.71431750558591" lon="-2.020062165140824"><ele>556.0</ele><time>2026-03-22T12:38:33.999Z</time></trkpt><trkpt lat="42.71422464795726" lon="-2.01966931456728"><ele>559.0</ele><time>2026-03-22T12:38:34.999Z</time></trkpt><trkpt lat="42.71407879897861" lon="-2.019513587865008"><ele>559.0</ele><time>2026-03-22T12:38:35.999Z</time></trkpt><trkpt lat="42.71392235277886" lon="-2.0193607215160325"><ele>559.0</ele><time>2026-03-22T12:38:36.999Z</time></trkpt><trkpt lat="42.71375476593384" lon="-2.0192128827149727"><ele>559.0</ele><time>2026-03-22T12:38:37.999Z</time></trkpt><trkpt lat="42.713582388517224" lon="-2.019064111961296"><ele>561.0</ele><time>2026-03-22T12:38:38.999Z</time></trkpt><trkpt lat="42.713421458747284" lon="-2.0189232683556906"><ele>563.0</ele><time>2026-03-22T12:38:39.999Z</time></trkpt><trkpt lat="42.71326598963671" lon="-2.0187847957608223"><ele>565.0</ele><time>2026-03-22T12:38:40.999Z</time></trkpt><trkpt lat="42.71311601918603" lon="-2.0186488793304393"><ele>565.0</ele><time>2026-03-22T12:38:41.999Z</time></trkpt><trkpt lat="42.71297270609196" lon="-2.0185167495744243"><ele>565.0</ele><time>2026-03-22T12:38:42.999Z</time></trkpt><trkpt lat="42.712833494929605" lon="-2.0183903483412218"><ele>565.0</ele><time>2026-03-22T12:38:43.999Z</time></trkpt><trkpt lat="42.71270019455005" lon="-2.0182732537127914"><ele>565.5</ele><time>2026-03-22T12:38:44.999Z</time></trkpt><trkpt lat="42.71256784431051" lon="-2.018170044441389"><ele>566.0</ele><time>2026-03-22T12:38:45.999Z</time></trkpt><trkpt lat="42.71244255769236" lon="-2.0180951237431732"><ele>566.5</ele><time>2026-03-22T12:38:46.999Z</time></trkpt><trkpt lat="42.71232730564946" lon="-2.0180349427848885"><ele>567.0</ele><time>2026-03-22T12:38:47.999Z</time></trkpt><trkpt lat="42.71221708283229" lon="-2.0180036852811107"><ele>567.0</ele><time>2026-03-22T12:38:48.999Z</time></trkpt><trkpt lat="42.71209383271544" lon="-2.0180056053358246"><ele>567.0</ele><time>2026-03-22T12:38:49.999Z</time></trkpt><trkpt lat="42.71197608235248" lon="-2.0180250585658777"><ele>567.0</ele><time>2026-03-22T12:38:50.999Z</time></trkpt><trkpt lat="42.71185102005803" lon="-2.0180656066946683"><ele>567.0</ele><time>2026-03-22T12:38:51.999Z</time></trkpt><trkpt lat="42.711711839730306" lon="-2.0181169029106236"><ele>568.6666666666666</ele><time>2026-03-22T12:38:52.999Z</time></trkpt><trkpt lat="42.711555121508184" lon="-2.0181822590060814"><ele>570.3333333333333</ele><time>2026-03-22T12:38:53.999Z</time></trkpt><trkpt lat="42.71139748313297" lon="-2.0182645385576365"><ele>572.0</ele><time>2026-03-22T12:38:54.999Z</time></trkpt><trkpt lat="42.71125218080599" lon="-2.0183404345682843"><ele>574.5</ele><time>2026-03-22T12:38:55.999Z</time></trkpt><trkpt lat="42.71111993279079" lon="-2.018417725188866"><ele>577.0</ele><time>2026-03-22T12:38:56.999Z</time></trkpt><trkpt lat="42.71099559021202" lon="-2.0185190892921763"><ele>579.5</ele><time>2026-03-22T12:38:57.999Z</time></trkpt><trkpt lat="42.710874712939074" lon="-2.0186527525545155"><ele>582.0</ele><time>2026-03-22T12:38:58.999Z</time></trkpt><trkpt lat="42.71076516801936" lon="-2.018815566024906"><ele>582.3333333333334</ele><time>2026-03-22T12:38:59.999Z</time></trkpt><trkpt lat="42.7106606894607" lon="-2.0189974054800377"><ele>582.6666666666667</ele><time>2026-03-22T12:39:00.999Z</time></trkpt><trkpt lat="42.71055350020747" lon="-2.019183067570527"><ele>583.0</ele><time>2026-03-22T12:39:01.999Z</time></trkpt><trkpt lat="42.71044332286128" lon="-2.019362886176864"><ele>583.6666666666667</ele><time>2026-03-22T12:39:02.999Z</time></trkpt><trkpt lat="42.71033578023908" lon="-2.019537181340179"><ele>584.3333333333334</ele><time>2026-03-22T12:39:03.999Z</time></trkpt><trkpt lat="42.710233486912514" lon="-2.0197057550054898"><ele>585.0</ele><time>2026-03-22T12:39:04.999Z</time></trkpt><trkpt lat="42.71013390373029" lon="-2.019860901466234"><ele>586.75</ele><time>2026-03-22T12:39:05.999Z</time></trkpt><trkpt lat="42.71003447360172" lon="-2.0199920084441456"><ele>588.5</ele><time>2026-03-22T12:39:06.999Z</time></trkpt><trkpt lat="42.7099294260637" lon="-2.0201011102973787"><ele>590.25</ele><time>2026-03-22T12:39:07.999Z</time></trkpt><trkpt lat="42.70981465401542" lon="-2.0201804308179647"><ele>592.0</ele><time>2026-03-22T12:39:08.999Z</time></trkpt><trkpt lat="42.709694608694825" lon="-2.0202285337118755"><ele>592.0</ele><time>2026-03-22T12:39:09.999Z</time></trkpt><trkpt lat="42.70955009076216" lon="-2.0202565325187574"><ele>592.0</ele><time>2026-03-22T12:39:10.999Z</time></trkpt><trkpt lat="42.70938747051282" lon="-2.020265012849576"><ele>592.0</ele><time>2026-03-22T12:39:11.999Z</time></trkpt><trkpt lat="42.7092104823248" lon="-2.020269407558183"><ele>593.3333333333334</ele><time>2026-03-22T12:39:12.999Z</time></trkpt><trkpt lat="42.70902014952217" lon="-2.0202721069699283"><ele>594.6666666666666</ele><time>2026-03-22T12:39:13.999Z</time></trkpt><trkpt lat="42.70880138866638" lon="-2.0202847139835867"><ele>596.0</ele><time>2026-03-22T12:39:14.999Z</time></trkpt><trkpt lat="42.708570623705235" lon="-2.020297837986073"><ele>597.0</ele><time>2026-03-22T12:39:15.999Z</time></trkpt><trkpt lat="42.70835083619095" lon="-2.020303145560734"><ele>598.0</ele><time>2026-03-22T12:39:16.999Z</time></trkpt><trkpt lat="42.7081193562454" lon="-2.0203155155418147"><ele>598.0</ele><time>2026-03-22T12:39:17.998Z</time></trkpt><trkpt lat="42.7078842168164" lon="-2.0203255034207532"><ele>598.0</ele><time>2026-03-22T12:39:18.998Z</time></trkpt><trkpt lat="42.7076555723452" lon="-2.020332196130841"><ele>598.3333333333334</ele><time>2026-03-22T12:39:19.998Z</time></trkpt><trkpt lat="42.707451591498874" lon="-2.0203453913206184"><ele>598.6666666666666</ele><time>2026-03-22T12:39:20.998Z</time></trkpt><trkpt lat="42.70725332345848" lon="-2.0203591658967355"><ele>599.0</ele><time>2026-03-22T12:39:21.998Z</time></trkpt><trkpt lat="42.70704794787835" lon="-2.0203660860443047"><ele>600.6666666666666</ele><time>2026-03-22T12:39:22.998Z</time></trkpt><trkpt lat="42.70683722850688" lon="-2.0203629214119845"><ele>602.3333333333334</ele><time>2026-03-22T12:39:23.998Z</time></trkpt><trkpt lat="42.70663448410157" lon="-2.020345656144801"><ele>604.0</ele><time>2026-03-22T12:39:24.998Z</time></trkpt><trkpt lat="42.70643917763145" lon="-2.0203187303330297"><ele>604.0</ele><time>2026-03-22T12:39:25.998Z</time></trkpt><trkpt lat="42.706249529825534" lon="-2.0202909026468787"><ele>604.0</ele><time>2026-03-22T12:39:26.998Z</time></trkpt><trkpt lat="42.70606834372023" lon="-2.0202676786412246"><ele>604.0</ele><time>2026-03-22T12:39:27.998Z</time></trkpt><trkpt lat="42.70589042473875" lon="-2.0202457203908932"><ele>606.0</ele><time>2026-03-22T12:39:28.998Z</time></trkpt><trkpt lat="42.705718406810895" lon="-2.0202227446520604"><ele>608.0</ele><time>2026-03-22T12:39:29.998Z</time></trkpt><trkpt lat="42.7055536076884" lon="-2.020200136783476"><ele>610.0</ele><time>2026-03-22T12:39:30.998Z</time></trkpt><trkpt lat="42.705391159135175" lon="-2.0201799254598622"><ele>611.0</ele><time>2026-03-22T12:39:31.998Z</time></trkpt><trkpt lat="42.70522232156306" lon="-2.020155640415152"><ele>612.0</ele><time>2026-03-22T12:39:32.998Z</time></trkpt><trkpt lat="42.70505004949748" lon="-2.0201305604722752"><ele>613.0</ele><time>2026-03-22T12:39:33.998Z</time></trkpt><trkpt lat="42.70487304747889" lon="-2.020106907378675"><ele>613.0</ele><time>2026-03-22T12:39:34.998Z</time></trkpt><trkpt lat="42.70468955232258" lon="-2.0200848929732826"><ele>613.0</ele><time>2026-03-22T12:39:35.998Z</time></trkpt><trkpt lat="42.70449729945773" lon="-2.020062629457554"><ele>613.0</ele><time>2026-03-22T12:39:36.998Z</time></trkpt><trkpt lat="42.704298540630596" lon="-2.020039170436367"><ele>612.6666666666667</ele><time>2026-03-22T12:39:37.998Z</time></trkpt><trkpt lat="42.70409375928851" lon="-2.0200141831472975"><ele>612.3333333333334</ele><time>2026-03-22T12:39:38.998Z</time></trkpt><trkpt lat="42.703883448212395" lon="-2.0199922379964446"><ele>612.0</ele><time>2026-03-22T12:39:39.998Z</time></trkpt><trkpt lat="42.703680149095334" lon="-2.0199631026515443"><ele>611.0</ele><time>2026-03-22T12:39:40.998Z</time></trkpt><trkpt lat="42.70347184641495" lon="-2.019940172152717"><ele>610.0</ele><time>2026-03-22T12:39:41.998Z</time></trkpt><trkpt lat="42.70326403144024" lon="-2.01991431568595"><ele>609.0</ele><time>2026-03-22T12:39:43Z</time></trkpt><trkpt lat="42.703055216145636" lon="-2.0198878393899395"><ele>609.0</ele><time>2026-03-22T12:39:44Z</time></trkpt><trkpt lat="42.70284505136333" lon="-2.0198628097922113"><ele>609.0</ele><time>2026-03-22T12:39:45Z</time></trkpt><trkpt lat="42.70264025424597" lon="-2.019837189131329"><ele>609.0</ele><time>2026-03-22T12:39:46Z</time></trkpt><trkpt lat="42.702439232181554" lon="-2.019810978456634"><ele>608.3333333333334</ele><time>2026-03-22T12:39:47Z</time></trkpt><trkpt lat="42.702243963717955" lon="-2.019785616317746"><ele>607.6666666666667</ele><time>2026-03-22T12:39:48Z</time></trkpt><trkpt lat="42.70205934967464" lon="-2.019759685276883"><ele>607.0</ele><time>2026-03-22T12:39:49Z</time></trkpt><trkpt lat="42.7018792061018" lon="-2.0197347174155578"><ele>606.6666666666667</ele><time>2026-03-22T12:39:50Z</time></trkpt><trkpt lat="42.701706737522734" lon="-2.019709460160029"><ele>606.3333333333334</ele><time>2026-03-22T12:39:51Z</time></trkpt><trkpt lat="42.70153791343503" lon="-2.0196863321433636"><ele>606.0</ele><time>2026-03-22T12:39:52Z</time></trkpt><trkpt lat="42.701377630761996" lon="-2.019685600945449"><ele>606.0</ele><time>2026-03-22T12:39:53Z</time></trkpt><trkpt lat="42.7012225288629" lon="-2.019718248065101"><ele>606.0</ele><time>2026-03-22T12:39:54Z</time></trkpt><trkpt lat="42.701081361076" lon="-2.0197883085831942"><ele>606.0</ele><time>2026-03-22T12:39:55Z</time></trkpt><trkpt lat="42.70094750993751" lon="-2.019897209178723"><ele>603.3333333333334</ele><time>2026-03-22T12:39:56Z</time></trkpt><trkpt lat="42.70082000181685" lon="-2.020033886378852"><ele>600.6666666666667</ele><time>2026-03-22T12:39:57Z</time></trkpt><trkpt lat="42.70068610404387" lon="-2.020187666608084"><ele>598.0</ele><time>2026-03-22T12:39:58Z</time></trkpt><trkpt lat="42.70054708101222" lon="-2.0203425737776533"><ele>598.0</ele><time>2026-03-22T12:39:59Z</time></trkpt><trkpt lat="42.70040532225907" lon="-2.0205012113323897"><ele>598.0</ele><time>2026-03-22T12:40:00Z</time></trkpt><trkpt lat="42.70026631415648" lon="-2.0206562827536776"><ele>598.0</ele><time>2026-03-22T12:40:01Z</time></trkpt><trkpt lat="42.70013080858453" lon="-2.0208025070005124"><ele>595.0</ele><time>2026-03-22T12:40:02Z</time></trkpt><trkpt lat="42.699999196304326" lon="-2.020945174343811"><ele>592.0</ele><time>2026-03-22T12:40:03Z</time></trkpt><trkpt lat="42.69987787724714" lon="-2.021078851786703"><ele>589.0</ele><time>2026-03-22T12:40:04Z</time></trkpt><trkpt lat="42.69975967777569" lon="-2.021201758647027"><ele>589.0</ele><time>2026-03-22T12:40:05Z</time></trkpt><trkpt lat="42.699653003347" lon="-2.02131518375473"><ele>589.0</ele><time>2026-03-22T12:40:06Z</time></trkpt><trkpt lat="42.69955813741712" lon="-2.021419247600619"><ele>589.0</ele><time>2026-03-22T12:40:07Z</time></trkpt><trkpt lat="42.69946993868017" lon="-2.0215200698523943"><ele>589.0</ele><time>2026-03-22T12:40:08Z</time></trkpt><trkpt lat="42.699398801158814" lon="-2.02161262618556"><ele>587.1666666666667</ele><time>2026-03-22T12:40:09Z</time></trkpt><trkpt lat="42.69934368405015" lon="-2.021699467117913"><ele>585.3333333333334</ele><time>2026-03-22T12:40:10Z</time></trkpt><trkpt lat="42.69930407437613" lon="-2.0217893564928873"><ele>583.5</ele><time>2026-03-22T12:40:11Z</time></trkpt><trkpt lat="42.699275474344624" lon="-2.0218826521909725"><ele>581.6666666666666</ele><time>2026-03-22T12:40:12Z</time></trkpt><trkpt lat="42.69926079053096" lon="-2.0219716364068305"><ele>579.8333333333333</ele><time>2026-03-22T12:40:13Z</time></trkpt><trkpt lat="42.69925123755369" lon="-2.0220790295363256"><ele>578.0</ele><time>2026-03-22T12:40:15Z</time></trkpt><trkpt lat="42.69922848978957" lon="-2.0221754836837804"><ele>578.0</ele><time>2026-03-22T12:40:18Z</time></trkpt><trkpt lat="42.69910653170457" lon="-2.0222108404795196"><ele>578.0</ele><time>2026-03-22T12:40:21Z</time></trkpt><trkpt lat="42.699010025673466" lon="-2.0221606866077817"><ele>578.0</ele><time>2026-03-22T12:40:23Z</time></trkpt><trkpt lat="42.698967453528645" lon="-2.022096454129028"><ele>578.0</ele><time>2026-03-22T12:40:24Z</time></trkpt><trkpt lat="42.698919252574946" lon="-2.0220023630206674"><ele>578.0</ele><time>2026-03-22T12:40:25Z</time></trkpt><trkpt lat="42.69884719018864" lon="-2.0219058982300817"><ele>578.0</ele><time>2026-03-22T12:40:25.999Z</time></trkpt><trkpt lat="42.69877400808131" lon="-2.0217810252528383"><ele>578.0</ele><time>2026-03-22T12:40:26.999Z</time></trkpt><trkpt lat="42.6986878586689" lon="-2.0216295822827277"><ele>578.0</ele><time>2026-03-22T12:40:27.999Z</time></trkpt><trkpt lat="42.69861458313423" lon="-2.0214859427067235"><ele>578.0</ele><time>2026-03-22T12:40:28.999Z</time></trkpt><trkpt lat="42.69853140742016" lon="-2.0213357132603216"><ele>580.0</ele><time>2026-03-22T12:40:29.999Z</time></trkpt><trkpt lat="42.698443037461395" lon="-2.021178178309858"><ele>582.0</ele><time>2026-03-22T12:40:30.999Z</time></trkpt><trkpt lat="42.6983415151905" lon="-2.021001697016359"><ele>584.0</ele><time>2026-03-22T12:40:31.999Z</time></trkpt><trkpt lat="42.69823060029765" lon="-2.020810262769874"><ele>588.0</ele><time>2026-03-22T12:40:32.999Z</time></trkpt><trkpt lat="42.698114059107056" lon="-2.0206072660355145"><ele>592.0</ele><time>2026-03-22T12:40:33.999Z</time></trkpt><trkpt lat="42.69800300960395" lon="-2.0204075044646532"><ele>596.0</ele><time>2026-03-22T12:40:34.999Z</time></trkpt><trkpt lat="42.69787337875994" lon="-2.0202146303631716"><ele>596.0</ele><time>2026-03-22T12:40:35.999Z</time></trkpt><trkpt lat="42.697753571324185" lon="-2.0200071721392536"><ele>596.0</ele><time>2026-03-22T12:40:36.999Z</time></trkpt><trkpt lat="42.69764966731543" lon="-2.0198068403812166"><ele>596.0</ele><time>2026-03-22T12:40:37.999Z</time></trkpt><trkpt lat="42.69754455564391" lon="-2.0196295026216924"><ele>595.3333333333333</ele><time>2026-03-22T12:40:38.999Z</time></trkpt><trkpt lat="42.69744958574291" lon="-2.0194635758121975"><ele>594.6666666666666</ele><time>2026-03-22T12:40:39.999Z</time></trkpt><trkpt lat="42.69735994059056" lon="-2.0192994833780493"><ele>594.0</ele><time>2026-03-22T12:40:40.999Z</time></trkpt><trkpt lat="42.697260041584215" lon="-2.0191357386514723"><ele>596.6666666666666</ele><time>2026-03-22T12:40:41.999Z</time></trkpt><trkpt lat="42.69718513308096" lon="-2.0189475931644947"><ele>599.3333333333333</ele><time>2026-03-22T12:40:42.999Z</time></trkpt><trkpt lat="42.69713905853778" lon="-2.0187598281885806"><ele>602.0</ele><time>2026-03-22T12:40:43.999Z</time></trkpt><trkpt lat="42.69711520121909" lon="-2.0185441823383043"><ele>601.3333333333333</ele><time>2026-03-22T12:40:44.999Z</time></trkpt><trkpt lat="42.697111347936726" lon="-2.018303470408899"><ele>600.6666666666666</ele><time>2026-03-22T12:40:45.999Z</time></trkpt><trkpt lat="42.697119204515715" lon="-2.018038072798654"><ele>600.0</ele><time>2026-03-22T12:40:46.999Z</time></trkpt><trkpt lat="42.697131309436436" lon="-2.017758194914855"><ele>599.6666666666666</ele><time>2026-03-22T12:40:47.999Z</time></trkpt><trkpt lat="42.69714309549204" lon="-2.0174675798687236"><ele>599.3333333333333</ele><time>2026-03-22T12:40:48.999Z</time></trkpt><trkpt lat="42.69715407684098" lon="-2.0171968068171084"><ele>599.0</ele><time>2026-03-22T12:40:49.999Z</time></trkpt><trkpt lat="42.69716494341534" lon="-2.016952548985924"><ele>599.0</ele><time>2026-03-22T12:40:50.999Z</time></trkpt><trkpt lat="42.697178787420945" lon="-2.016729014569155"><ele>599.0</ele><time>2026-03-22T12:40:51.999Z</time></trkpt><trkpt lat="42.697197019425055" lon="-2.016530926751392"><ele>599.0</ele><time>2026-03-22T12:40:52.999Z</time></trkpt><trkpt lat="42.69723551109059" lon="-2.0163301220479353"><ele>599.0</ele><time>2026-03-22T12:40:53.999Z</time></trkpt><trkpt lat="42.69729566535137" lon="-2.0161435536947927"><ele>599.0</ele><time>2026-03-22T12:40:54.999Z</time></trkpt><trkpt lat="42.69736545072887" lon="-2.015985144988013"><ele>599.0</ele><time>2026-03-22T12:40:55.999Z</time></trkpt><trkpt lat="42.697434188114755" lon="-2.0158497416394403"><ele>599.0</ele><time>2026-03-22T12:40:56.999Z</time></trkpt><trkpt lat="42.69750192973288" lon="-2.0157284151336565"><ele>597.75</ele><time>2026-03-22T12:40:57.999Z</time></trkpt><trkpt lat="42.697521338175896" lon="-2.0155791157982295"><ele>596.5</ele><time>2026-03-22T12:40:58.999Z</time></trkpt><trkpt lat="42.69751528763623" lon="-2.015420326574359"><ele>595.25</ele><time>2026-03-22T12:40:59.999Z</time></trkpt><trkpt lat="42.69748249230564" lon="-2.0152666954865093"><ele>594.0</ele><time>2026-03-22T12:41:00.999Z</time></trkpt><trkpt lat="42.69741595906516" lon="-2.015116978576996"><ele>590.5</ele><time>2026-03-22T12:41:01.999Z</time></trkpt><trkpt lat="42.69733730332458" lon="-2.014967047704423"><ele>587.0</ele><time>2026-03-22T12:41:02.999Z</time></trkpt><trkpt lat="42.69725400658847" lon="-2.0148264931303164"><ele>583.5</ele><time>2026-03-22T12:41:03.999Z</time></trkpt><trkpt lat="42.697181463505856" lon="-2.0147092703839355"><ele>580.0</ele><time>2026-03-22T12:41:04.999Z</time></trkpt><trkpt lat="42.69712536195205" lon="-2.0146157404326495"><ele>580.0</ele><time>2026-03-22T12:41:05.999Z</time></trkpt><trkpt lat="42.69705375091817" lon="-2.014502925721537"><ele>580.0</ele><time>2026-03-22T12:41:07.999Z</time></trkpt><trkpt lat="42.69704750331874" lon="-2.014340476263848"><ele>580.0</ele><time>2026-03-22T12:41:09.999Z</time></trkpt><trkpt lat="42.69705498718663" lon="-2.014230462740411"><ele>580.0</ele><time>2026-03-22T12:41:10.999Z</time></trkpt><trkpt lat="42.69703682014372" lon="-2.0141025603347127"><ele>580.0</ele><time>2026-03-22T12:41:11.999Z</time></trkpt><trkpt lat="42.69701999480291" lon="-2.0139439550226013"><ele>581.0</ele><time>2026-03-22T12:41:12.999Z</time></trkpt><trkpt lat="42.69700119747055" lon="-2.0137839940474014"><ele>582.0</ele><time>2026-03-22T12:41:13.999Z</time></trkpt><trkpt lat="42.69696618612664" lon="-2.0136099482072556"><ele>583.0</ele><time>2026-03-22T12:41:14.999Z</time></trkpt><trkpt lat="42.69693144749409" lon="-2.0134144546037653"><ele>584.0</ele><time>2026-03-22T12:41:15.999Z</time></trkpt><trkpt lat="42.69686704175539" lon="-2.013224503309578"><ele>584.0</ele><time>2026-03-22T12:41:16.999Z</time></trkpt><trkpt lat="42.696810515769265" lon="-2.0130282576416696"><ele>584.0</ele><time>2026-03-22T12:41:17.999Z</time></trkpt><trkpt lat="42.69674248385171" lon="-2.0128313054445988"><ele>584.0</ele><time>2026-03-22T12:41:18.999Z</time></trkpt><trkpt lat="42.69664912736853" lon="-2.012640853361405"><ele>581.0</ele><time>2026-03-22T12:41:19.999Z</time></trkpt><trkpt lat="42.69652706434812" lon="-2.01246102040776"><ele>578.0</ele><time>2026-03-22T12:41:20.999Z</time></trkpt><trkpt lat="42.69638977350661" lon="-2.012291921840705"><ele>575.0</ele><time>2026-03-22T12:41:21.998Z</time></trkpt><trkpt lat="42.69625077430996" lon="-2.0121284667239117"><ele>575.0</ele><time>2026-03-22T12:41:22.998Z</time></trkpt><trkpt lat="42.6961165439359" lon="-2.01197758007326"><ele>575.0</ele><time>2026-03-22T12:41:23.998Z</time></trkpt><trkpt lat="42.695983357283126" lon="-2.0118508391013132"><ele>575.0</ele><time>2026-03-22T12:41:24.998Z</time></trkpt><trkpt lat="42.69583721997041" lon="-2.0117442481157166"><ele>572.0</ele><time>2026-03-22T12:41:25.998Z</time></trkpt><trkpt lat="42.6956772881593" lon="-2.0116477787475104"><ele>569.0</ele><time>2026-03-22T12:41:26.998Z</time></trkpt><trkpt lat="42.695528042738026" lon="-2.011580439769305"><ele>566.0</ele><time>2026-03-22T12:41:27.998Z</time></trkpt><trkpt lat="42.69539910827171" lon="-2.011530539685824"><ele>566.0</ele><time>2026-03-22T12:41:28.998Z</time></trkpt><trkpt lat="42.69529364723245" lon="-2.011485810489688"><ele>566.0</ele><time>2026-03-22T12:41:29.998Z</time></trkpt><trkpt lat="42.695195617764035" lon="-2.0114612675404326"><ele>566.0</ele><time>2026-03-22T12:41:30.998Z</time></trkpt><trkpt lat="42.69510398675423" lon="-2.0114601581041547"><ele>566.0</ele><time>2026-03-22T12:41:31.998Z</time></trkpt><trkpt lat="42.695012287814585" lon="-2.0114870908406637"><ele>566.0</ele><time>2026-03-22T12:41:32.998Z</time></trkpt><trkpt lat="42.69491872546138" lon="-2.0115409592134927"><ele>566.0</ele><time>2026-03-22T12:41:33.998Z</time></trkpt><trkpt lat="42.69482838762241" lon="-2.011624499060903"><ele>566.0</ele><time>2026-03-22T12:41:34.998Z</time></trkpt><trkpt lat="42.694749178569985" lon="-2.0117293988232907"><ele>566.0</ele><time>2026-03-22T12:41:35.998Z</time></trkpt><trkpt lat="42.69467483765661" lon="-2.0118198171146275"><ele>566.0</ele><time>2026-03-22T12:41:36.998Z</time></trkpt><trkpt lat="42.69459572035629" lon="-2.011899872053623"><ele>566.0</ele><time>2026-03-22T12:41:37.998Z</time></trkpt><trkpt lat="42.69450386106869" lon="-2.0119612441188583"><ele>566.6</ele><time>2026-03-22T12:41:38.998Z</time></trkpt><trkpt lat="42.69440668060174" lon="-2.011985111689449"><ele>567.2</ele><time>2026-03-22T12:41:39.998Z</time></trkpt><trkpt lat="42.69430185911468" lon="-2.011964819904722"><ele>567.8</ele><time>2026-03-22T12:41:40.998Z</time></trkpt><trkpt lat="42.69419308731077" lon="-2.0119237071412606"><ele>568.4</ele><time>2026-03-22T12:41:41.998Z</time></trkpt><trkpt lat="42.69407488933077" lon="-2.011875125529249"><ele>569.0</ele><time>2026-03-22T12:41:42.998Z</time></trkpt><trkpt lat="42.693957880935905" lon="-2.0117966106725733"><ele>569.0</ele><time>2026-03-22T12:41:43.998Z</time></trkpt><trkpt lat="42.69382900359517" lon="-2.011706500922702"><ele>569.0</ele><time>2026-03-22T12:41:44.998Z</time></trkpt><trkpt lat="42.69371926891986" lon="-2.0115400072448093"><ele>569.0</ele><time>2026-03-22T12:41:45.998Z</time></trkpt><trkpt lat="42.69360388709075" lon="-2.0113512290542515"><ele>567.6666666666666</ele><time>2026-03-22T12:41:46.998Z</time></trkpt><trkpt lat="42.693472886201" lon="-2.0111423193918565"><ele>566.3333333333334</ele><time>2026-03-22T12:41:47.998Z</time></trkpt><trkpt lat="42.69335016113212" lon="-2.01094570468073"><ele>565.0</ele><time>2026-03-22T12:41:49Z</time></trkpt><trkpt lat="42.69324466123455" lon="-2.010776561277375"><ele>563.0</ele><time>2026-03-22T12:41:50Z</time></trkpt><trkpt lat="42.693153853680634" lon="-2.010633826094531"><ele>561.0</ele><time>2026-03-22T12:41:51Z</time></trkpt><trkpt lat="42.693064190009814" lon="-2.0105025430428887"><ele>559.0</ele><time>2026-03-22T12:41:52Z</time></trkpt><trkpt lat="42.69296683077138" lon="-2.0103763525620533"><ele>557.0</ele><time>2026-03-22T12:41:53Z</time></trkpt><trkpt lat="42.692854936575884" lon="-2.010234706246065"><ele>556.0</ele><time>2026-03-22T12:41:54Z</time></trkpt><trkpt lat="42.69270893021457" lon="-2.010120697415192"><ele>555.0</ele><time>2026-03-22T12:41:55Z</time></trkpt><trkpt lat="42.69255212752588" lon="-2.0100143040955105"><ele>554.0</ele><time>2026-03-22T12:41:56Z</time></trkpt><trkpt lat="42.69239041586374" lon="-2.0099174923304695"><ele>554.0</ele><time>2026-03-22T12:41:57Z</time></trkpt><trkpt lat="42.69224457310944" lon="-2.009777873629573"><ele>554.0</ele><time>2026-03-22T12:41:58Z</time></trkpt><trkpt lat="42.69211242002262" lon="-2.0096182734129635"><ele>554.0</ele><time>2026-03-22T12:41:59Z</time></trkpt><trkpt lat="42.69199107678247" lon="-2.0094653636367585"><ele>556.5</ele><time>2026-03-22T12:42:00Z</time></trkpt><trkpt lat="42.691880116517595" lon="-2.0093245615904194"><ele>559.0</ele><time>2026-03-22T12:42:01Z</time></trkpt><trkpt lat="42.69178333489386" lon="-2.009197501158951"><ele>561.5</ele><time>2026-03-22T12:42:02Z</time></trkpt><trkpt lat="42.691696599152756" lon="-2.009072763749039"><ele>564.0</ele><time>2026-03-22T12:42:03Z</time></trkpt><trkpt lat="42.69162470071955" lon="-2.008930021121544"><ele>564.0</ele><time>2026-03-22T12:42:04Z</time></trkpt><trkpt lat="42.69157924094333" lon="-2.0087626862038257"><ele>564.0</ele><time>2026-03-22T12:42:05Z</time></trkpt><trkpt lat="42.69156230240284" lon="-2.0085699335509046"><ele>564.0</ele><time>2026-03-22T12:42:06Z</time></trkpt><trkpt lat="42.691567370043465" lon="-2.0083584084202983"><ele>564.0</ele><time>2026-03-22T12:42:07Z</time></trkpt><trkpt lat="42.69159414028534" lon="-2.008141900078214"><ele>564.3333333333334</ele><time>2026-03-22T12:42:08Z</time></trkpt><trkpt lat="42.69163895237385" lon="-2.0079088058339507"><ele>564.6666666666667</ele><time>2026-03-22T12:42:09Z</time></trkpt><trkpt lat="42.69169106504961" lon="-2.0076688568350387"><ele>565.0</ele><time>2026-03-22T12:42:10Z</time></trkpt><trkpt lat="42.69173989599857" lon="-2.0074496284424974"><ele>564.0</ele><time>2026-03-22T12:42:11Z</time></trkpt><trkpt lat="42.69178822038361" lon="-2.007244826852969"><ele>563.0</ele><time>2026-03-22T12:42:12Z</time></trkpt><trkpt lat="42.69183409445337" lon="-2.0070543560403977"><ele>562.0</ele><time>2026-03-22T12:42:13Z</time></trkpt><trkpt lat="42.691874241698855" lon="-2.006891141624599"><ele>561.0</ele><time>2026-03-22T12:42:14Z</time></trkpt><trkpt lat="42.69190398938973" lon="-2.0067575137855957"><ele>558.8</ele><time>2026-03-22T12:42:15Z</time></trkpt><trkpt lat="42.6919152087081" lon="-2.0066368693788106"><ele>556.6</ele><time>2026-03-22T12:42:16Z</time></trkpt><trkpt lat="42.691905321487184" lon="-2.006524880089993"><ele>554.4</ele><time>2026-03-22T12:42:17Z</time></trkpt><trkpt lat="42.691871137671036" lon="-2.0063753005297293"><ele>552.2</ele><time>2026-03-22T12:42:18Z</time></trkpt><trkpt lat="42.691816738130825" lon="-2.006202109654453"><ele>550.0</ele><time>2026-03-22T12:42:19Z</time></trkpt><trkpt lat="42.691753705839645" lon="-2.0060008197630728"><ele>547.0</ele><time>2026-03-22T12:42:20Z</time></trkpt><trkpt lat="42.691695863610335" lon="-2.0057792979330222"><ele>544.0</ele><time>2026-03-22T12:42:21Z</time></trkpt><trkpt lat="42.69163145945312" lon="-2.005563517347865"><ele>541.0</ele><time>2026-03-22T12:42:22Z</time></trkpt><trkpt lat="42.69157462684268" lon="-2.0053684378070997"><ele>541.0</ele><time>2026-03-22T12:42:23Z</time></trkpt><trkpt lat="42.691517932119886" lon="-2.0052047409297105"><ele>541.0</ele><time>2026-03-22T12:42:24Z</time></trkpt><trkpt lat="42.69144561505688" lon="-2.0050557656921937"><ele>541.0</ele><time>2026-03-22T12:42:25Z</time></trkpt><trkpt lat="42.69135061285541" lon="-2.004915246970945"><ele>541.0</ele><time>2026-03-22T12:42:26Z</time></trkpt><trkpt lat="42.69124493492615" lon="-2.004776806446084"><ele>542.25</ele><time>2026-03-22T12:42:27Z</time></trkpt><trkpt lat="42.691145659031584" lon="-2.004652920337168"><ele>543.5</ele><time>2026-03-22T12:42:28Z</time></trkpt><trkpt lat="42.69106683215806" lon="-2.0045351595573235"><ele>544.75</ele><time>2026-03-22T12:42:29Z</time></trkpt><trkpt lat="42.69100372304387" lon="-2.0043971245818124"><ele>546.0</ele><time>2026-03-22T12:42:30Z</time></trkpt><trkpt lat="42.69094506818606" lon="-2.004236857634431"><ele>544.3333333333334</ele><time>2026-03-22T12:42:31Z</time></trkpt><trkpt lat="42.69092926015446" lon="-2.0040407413612162"><ele>542.6666666666667</ele><time>2026-03-22T12:42:31.999Z</time></trkpt><trkpt lat="42.69094491876762" lon="-2.0038245763059286"><ele>541.0</ele><time>2026-03-22T12:42:32.999Z</time></trkpt><trkpt lat="42.690993413188224" lon="-2.0036076942837333"><ele>541.0</ele><time>2026-03-22T12:42:33.999Z</time></trkpt><trkpt lat="42.69104408092256" lon="-2.003402353962713"><ele>541.0</ele><time>2026-03-22T12:42:34.999Z</time></trkpt><trkpt lat="42.69108664605087" lon="-2.003219647300807"><ele>541.0</ele><time>2026-03-22T12:42:35.999Z</time></trkpt><trkpt lat="42.69111764074336" lon="-2.003060102764581"><ele>541.0</ele><time>2026-03-22T12:42:36.999Z</time></trkpt><trkpt lat="42.691135518673974" lon="-2.0029083417799494"><ele>539.4</ele><time>2026-03-22T12:42:37.999Z</time></trkpt><trkpt lat="42.69113115731392" lon="-2.0027791585356267"><ele>537.8</ele><time>2026-03-22T12:42:38.999Z</time></trkpt><trkpt lat="42.69111472933713" lon="-2.0026490364545237"><ele>536.1999999999999</ele><time>2026-03-22T12:42:39.999Z</time></trkpt><trkpt lat="42.69103496028196" lon="-2.0025376058832904"><ele>534.6</ele><time>2026-03-22T12:42:40.999Z</time></trkpt><trkpt lat="42.69095530360852" lon="-2.0024042472212336"><ele>533.0</ele><time>2026-03-22T12:42:41.999Z</time></trkpt><trkpt lat="42.69087722899563" lon="-2.0022472490241814"><ele>531.25</ele><time>2026-03-22T12:42:42.999Z</time></trkpt><trkpt lat="42.69078741789577" lon="-2.002094656317079"><ele>529.5</ele><time>2026-03-22T12:42:43.999Z</time></trkpt><trkpt lat="42.69070025325088" lon="-2.001935632101728"><ele>527.75</ele><time>2026-03-22T12:42:44.999Z</time></trkpt><trkpt lat="42.69061355690275" lon="-2.0017741120945587"><ele>526.0</ele><time>2026-03-22T12:42:45.999Z</time></trkpt><trkpt lat="42.69051603479" lon="-2.001621700732387"><ele>525.25</ele><time>2026-03-22T12:42:46.999Z</time></trkpt><trkpt lat="42.69043622891658" lon="-2.0014506423887504"><ele>524.5</ele><time>2026-03-22T12:42:47.999Z</time></trkpt><trkpt lat="42.690343395570096" lon="-2.00129091386338"><ele>523.75</ele><time>2026-03-22T12:42:48.999Z</time></trkpt><trkpt lat="42.69025356083876" lon="-2.001133232623471"><ele>523.0</ele><time>2026-03-22T12:42:49.999Z</time></trkpt><trkpt lat="42.69016455230043" lon="-2.0009768511121697"><ele>521.0</ele><time>2026-03-22T12:42:50.999Z</time></trkpt><trkpt lat="42.690075599480124" lon="-2.000826197566501"><ele>519.0</ele><time>2026-03-22T12:42:51.999Z</time></trkpt><trkpt lat="42.68999309975018" lon="-2.0006863973526814"><ele>517.0</ele><time>2026-03-22T12:42:52.999Z</time></trkpt><trkpt lat="42.68991288884158" lon="-2.000563584834611"><ele>515.0</ele><time>2026-03-22T12:42:53.999Z</time></trkpt><trkpt lat="42.68982649044236" lon="-2.0004770663803226"><ele>515.0</ele><time>2026-03-22T12:42:54.999Z</time></trkpt><trkpt lat="42.68973638998169" lon="-2.0004251875497956"><ele>515.0</ele><time>2026-03-22T12:42:55.999Z</time></trkpt><trkpt lat="42.68964811488855" lon="-2.0003760332828007"><ele>515.0</ele><time>2026-03-22T12:42:56.999Z</time></trkpt><trkpt lat="42.68956487943302" lon="-2.0003284953619827"><ele>515.0</ele><time>2026-03-22T12:42:57.999Z</time></trkpt><trkpt lat="42.68948074177172" lon="-2.000290478541941"><ele>515.0</ele><time>2026-03-22T12:42:58.999Z</time></trkpt><trkpt lat="42.689405233764305" lon="-2.0002591628704702"><ele>514.8333333333333</ele><time>2026-03-22T12:42:59.999Z</time></trkpt><trkpt lat="42.689341812242645" lon="-2.000234604776888"><ele>514.6666666666666</ele><time>2026-03-22T12:43:00.999Z</time></trkpt><trkpt lat="42.689279060116455" lon="-2.000207386472933"><ele>514.5</ele><time>2026-03-22T12:43:01.999Z</time></trkpt><trkpt lat="42.689219663875406" lon="-2.000177666905565"><ele>514.3333333333334</ele><time>2026-03-22T12:43:02.999Z</time></trkpt><trkpt lat="42.689126441524415" lon="-2.000119045599303"><ele>514.1666666666667</ele><time>2026-03-22T12:43:04.999Z</time></trkpt><trkpt lat="42.68906138046215" lon="-2.0001269931607415"><ele>514.0</ele><time>2026-03-22T12:43:07.999Z</time></trkpt><trkpt lat="42.689016314235346" lon="-2.0002414135510267"><ele>514.0</ele><time>2026-03-22T12:43:10.999Z</time></trkpt><trkpt lat="42.68899163137273" lon="-2.000323665776196"><ele>514.0</ele><time>2026-03-22T12:43:11.999Z</time></trkpt><trkpt lat="42.688968738252775" lon="-2.0004198953406482"><ele>514.0</ele><time>2026-03-22T12:43:12.999Z</time></trkpt><trkpt lat="42.688940857126994" lon="-2.0005356396410203"><ele>514.0</ele><time>2026-03-22T12:43:13.999Z</time></trkpt><trkpt lat="42.68891076844333" lon="-2.0006624898501966"><ele>514.0</ele><time>2026-03-22T12:43:14.999Z</time></trkpt><trkpt lat="42.68888387975507" lon="-2.0007839211461493"><ele>514.0</ele><time>2026-03-22T12:43:15.999Z</time></trkpt><trkpt lat="42.688859495430684" lon="-2.0008940425798074"><ele>516.6</ele><time>2026-03-22T12:43:16.999Z</time></trkpt><trkpt lat="42.68882873357299" lon="-2.0010090544810297"><ele>519.2</ele><time>2026-03-22T12:43:17.999Z</time></trkpt><trkpt lat="42.68878948883573" lon="-2.001116487276719"><ele>521.8000000000001</ele><time>2026-03-22T12:43:18.999Z</time></trkpt><trkpt lat="42.688739754499125" lon="-2.001225095402265"><ele>524.4</ele><time>2026-03-22T12:43:19.999Z</time></trkpt><trkpt lat="42.688687824249435" lon="-2.001329363160373"><ele>527.0</ele><time>2026-03-22T12:43:20.999Z</time></trkpt><trkpt lat="42.68863579124582" lon="-2.001437879712035"><ele>526.4</ele><time>2026-03-22T12:43:21.999Z</time></trkpt><trkpt lat="42.6885787872388" lon="-2.0015454495907665"><ele>525.8000000000001</ele><time>2026-03-22T12:43:22.999Z</time></trkpt><trkpt lat="42.688517959006084" lon="-2.0016508668236743"><ele>525.2</ele><time>2026-03-22T12:43:23.999Z</time></trkpt><trkpt lat="42.68845814432738" lon="-2.0017568731035156"><ele>524.6</ele><time>2026-03-22T12:43:24.999Z</time></trkpt><trkpt lat="42.688398596247545" lon="-2.001852131016627"><ele>524.0</ele><time>2026-03-22T12:43:25.999Z</time></trkpt><trkpt lat="42.68833872322153" lon="-2.0019398672797255"><ele>525.1666666666666</ele><time>2026-03-22T12:43:26.999Z</time></trkpt><trkpt lat="42.6882748766728" lon="-2.0020039580562736"><ele>526.3333333333333</ele><time>2026-03-22T12:43:27.998Z</time></trkpt><trkpt lat="42.68821334332081" lon="-2.0020759917322146"><ele>527.5</ele><time>2026-03-22T12:43:28.998Z</time></trkpt><trkpt lat="42.6881526677606" lon="-2.002150005117392"><ele>528.6666666666666</ele><time>2026-03-22T12:43:29.998Z</time></trkpt><trkpt lat="42.688091882498895" lon="-2.002227807198047"><ele>529.8333333333334</ele><time>2026-03-22T12:43:30.998Z</time></trkpt><trkpt lat="42.68803321793415" lon="-2.0022930763402718"><ele>531.0</ele><time>2026-03-22T12:43:31.998Z</time></trkpt><trkpt lat="42.687969185746525" lon="-2.002364289652092"><ele>531.0</ele><time>2026-03-22T12:43:32.998Z</time></trkpt><trkpt lat="42.687898698954186" lon="-2.002437565698282"><ele>531.0</ele><time>2026-03-22T12:43:33.998Z</time></trkpt><trkpt lat="42.68782277857452" lon="-2.0025183142727228"><ele>531.0</ele><time>2026-03-22T12:43:34.998Z</time></trkpt><trkpt lat="42.6877479746795" lon="-2.002603384126235"><ele>531.0</ele><time>2026-03-22T12:43:35.998Z</time></trkpt><trkpt lat="42.68767202048234" lon="-2.0026866158375087"><ele>531.0</ele><time>2026-03-22T12:43:36.998Z</time></trkpt><trkpt lat="42.687595438119416" lon="-2.0027690840011236"><ele>532.4</ele><time>2026-03-22T12:43:37.998Z</time></trkpt><trkpt lat="42.6875150055421" lon="-2.002843197830892"><ele>533.8</ele><time>2026-03-22T12:43:38.998Z</time></trkpt><trkpt lat="42.68744366087591" lon="-2.002931942177825"><ele>535.1999999999999</ele><time>2026-03-22T12:43:39.998Z</time></trkpt><trkpt lat="42.68737345279502" lon="-2.0030286114807505"><ele>536.6</ele><time>2026-03-22T12:43:40.998Z</time></trkpt><trkpt lat="42.687299060210634" lon="-2.0031263257639225"><ele>538.0</ele><time>2026-03-22T12:43:41.998Z</time></trkpt><trkpt lat="42.68721695297623" lon="-2.003211682274206"><ele>538.0</ele><time>2026-03-22T12:43:42.998Z</time></trkpt><trkpt lat="42.68714568965271" lon="-2.0033168557526246"><ele>538.0</ele><time>2026-03-22T12:43:43.998Z</time></trkpt><trkpt lat="42.68708226755172" lon="-2.0034305336958766"><ele>538.0</ele><time>2026-03-22T12:43:44.998Z</time></trkpt><trkpt lat="42.68700006374154" lon="-2.0035061876987146"><ele>538.0</ele><time>2026-03-22T12:43:45.998Z</time></trkpt><trkpt lat="42.68692144080178" lon="-2.003586893778336"><ele>538.0</ele><time>2026-03-22T12:43:46.998Z</time></trkpt><trkpt lat="42.68685726731503" lon="-2.0036812476286814"><ele>540.0</ele><time>2026-03-22T12:43:47.998Z</time></trkpt><trkpt lat="42.686803614149184" lon="-2.003753504707911"><ele>542.0</ele><time>2026-03-22T12:43:48.998Z</time></trkpt><trkpt lat="42.68673743971259" lon="-2.003874349988522"><ele>544.0</ele><time>2026-03-22T12:43:50.998Z</time></trkpt><trkpt lat="42.68668738236832" lon="-2.0039974840736323"><ele>546.0</ele><time>2026-03-22T12:43:52.998Z</time></trkpt><trkpt lat="42.68666439974485" lon="-2.0041128554547996"><ele>548.0</ele><time>2026-03-22T12:43:56Z</time></trkpt><trkpt lat="42.68663925737219" lon="-2.0042139622050272"><ele>548.0</ele><time>2026-03-22T12:43:57Z</time></trkpt><trkpt lat="42.68655817466352" lon="-2.004265755570905"><ele>548.0</ele><time>2026-03-22T12:43:58Z</time></trkpt><trkpt lat="42.68647953046991" lon="-2.004232817403378"><ele>548.0</ele><time>2026-03-22T12:43:59Z</time></trkpt><trkpt lat="42.6865982697865" lon="-2.0039334942027525"><ele>548.0</ele><time>2026-03-22T12:44:03Z</time></trkpt><trkpt lat="42.68664023294586" lon="-2.003798363356581"><ele>548.0</ele><time>2026-03-22T12:44:05Z</time></trkpt><trkpt lat="42.68668599631492" lon="-2.003722438063549"><ele>548.0</ele><time>2026-03-22T12:44:06Z</time></trkpt><trkpt lat="42.686732297551" lon="-2.003631801111827"><ele>548.0</ele><time>2026-03-22T12:44:07Z</time></trkpt><trkpt lat="42.686747535610415" lon="-2.003520914732249"><ele>548.0</ele><time>2026-03-22T12:44:08Z</time></trkpt><trkpt lat="42.686762915918045" lon="-2.0034104090021048"><ele>548.0</ele><time>2026-03-22T12:44:09Z</time></trkpt><trkpt lat="42.6867689675161" lon="-2.003299738945582"><ele>548.0</ele><time>2026-03-22T12:44:10Z</time></trkpt><trkpt lat="42.68678500772972" lon="-2.0032056277278225"><ele>548.0</ele><time>2026-03-22T12:44:11Z</time></trkpt><trkpt lat="42.686803126745616" lon="-2.0031228272859454"><ele>548.0</ele><time>2026-03-22T12:44:12Z</time></trkpt><trkpt lat="42.68683067335725" lon="-2.003024084663377"><ele>548.0</ele><time>2026-03-22T12:44:14Z</time></trkpt><trkpt lat="42.68687341470153" lon="-2.0029420823040454"><ele>548.0</ele><time>2026-03-22T12:44:19Z</time></trkpt><trkpt lat="42.68688725328221" lon="-2.0028498288389964"><ele>548.0</ele><time>2026-03-22T12:50:43Z</time></trkpt><trkpt lat="42.686893154479364" lon="-2.002759291049334"><ele>548.0</ele><time>2026-03-22T12:50:55Z</time></trkpt><trkpt lat="42.686761265551986" lon="-2.0024363865863424"><ele>548.0</ele><time>2026-03-22T12:50:59.999Z</time></trkpt><trkpt lat="42.686638369932005" lon="-2.0026112572417554"><ele>548.0</ele><time>2026-03-22T12:51:04.999Z</time></trkpt><trkpt lat="42.686579776639306" lon="-2.002562946122417"><ele>548.0</ele><time>2026-03-22T12:51:10.999Z</time></trkpt><trkpt lat="42.686558726659364" lon="-2.002687675483367"><ele>548.0</ele><time>2026-03-22T12:51:42.999Z</time></trkpt><trkpt lat="42.68648510026868" lon="-2.0025832092959486"><ele>548.0</ele><time>2026-03-22T12:51:52.998Z</time></trkpt><trkpt lat="42.686420288219615" lon="-2.0025304429848423"><ele>548.0</ele><time>2026-03-22T12:51:57.998Z</time></trkpt><trkpt lat="42.68635375788413" lon="-2.0024702410884903"><ele>546.0</ele><time>2026-03-22T12:52:02.998Z</time></trkpt><trkpt lat="42.686437966832735" lon="-2.002457471780713"><ele>546.0</ele><time>2026-03-22T12:52:14.998Z</time></trkpt><trkpt lat="42.68633239558522" lon="-2.00242293871707"><ele>546.0</ele><time>2026-03-22T12:52:57Z</time></trkpt></trkseg><trkseg><trkpt lat="42.686826177963006" lon="-2.0028312943824353"><ele>548.0</ele><time>2026-03-22T15:02:14.999Z</time></trkpt><trkpt lat="42.68674720956332" lon="-2.002796223168012"><ele>548.0</ele><time>2026-03-22T15:02:18.999Z</time></trkpt><trkpt lat="42.68675325960678" lon="-2.002897638981482"><ele>548.0</ele><time>2026-03-22T15:02:23.999Z</time></trkpt><trkpt lat="42.68679632506643" lon="-2.002972525677718"><ele>548.0</ele><time>2026-03-22T15:02:27.999Z</time></trkpt><trkpt lat="42.68680755717547" lon="-2.0030587483297166"><ele>548.0</ele><time>2026-03-22T15:05:24.998Z</time></trkpt><trkpt lat="42.68679647607251" lon="-2.00317114675918"><ele>548.0</ele><time>2026-03-22T15:05:26.998Z</time></trkpt><trkpt lat="42.68678102578121" lon="-2.0033045177313222"><ele>548.0</ele><time>2026-03-22T15:05:28.998Z</time></trkpt><trkpt lat="42.686761612045935" lon="-2.0034271076530135"><ele>548.0</ele><time>2026-03-22T15:05:30.998Z</time></trkpt><trkpt lat="42.68673311230593" lon="-2.003548972554617"><ele>548.0</ele><time>2026-03-22T15:05:32.998Z</time></trkpt><trkpt lat="42.68669400941993" lon="-2.003685418721761"><ele>548.0</ele><time>2026-03-22T15:05:34.998Z</time></trkpt><trkpt lat="42.68664177636918" lon="-2.0038110799910793"><ele>548.0</ele><time>2026-03-22T15:05:37Z</time></trkpt><trkpt lat="42.68659291260009" lon="-2.0039073331018273"><ele>548.0</ele><time>2026-03-22T15:05:39Z</time></trkpt><trkpt lat="42.68655097790356" lon="-2.003972929533731"><ele>548.0</ele><time>2026-03-22T15:05:41Z</time></trkpt><trkpt lat="42.686539466017855" lon="-2.004074157975525"><ele>548.0</ele><time>2026-03-22T15:05:45Z</time></trkpt><trkpt lat="42.68660820455575" lon="-2.0041067029932633"><ele>548.0</ele><time>2026-03-22T15:05:48Z</time></trkpt><trkpt lat="42.6866733677672" lon="-2.004022997716638"><ele>548.0</ele><time>2026-03-22T15:05:50Z</time></trkpt><trkpt lat="42.68672318220469" lon="-2.003900944154749"><ele>548.0</ele><time>2026-03-22T15:05:52Z</time></trkpt><trkpt lat="42.6867739585268" lon="-2.0037853604829716"><ele>548.0</ele><time>2026-03-22T15:05:54Z</time></trkpt><trkpt lat="42.6868463459936" lon="-2.003681591908221"><ele>548.0</ele><time>2026-03-22T15:05:56Z</time></trkpt><trkpt lat="42.68691460862342" lon="-2.003558956134954"><ele>548.0</ele><time>2026-03-22T15:05:58Z</time></trkpt><trkpt lat="42.68699331019872" lon="-2.00347365994349"><ele>548.0</ele><time>2026-03-22T15:06:00Z</time></trkpt><trkpt lat="42.68708115865517" lon="-2.0033968359973313"><ele>548.0</ele><time>2026-03-22T15:06:02Z</time></trkpt><trkpt lat="42.68716022145638" lon="-2.003279327264968"><ele>546.0</ele><time>2026-03-22T15:06:04Z</time></trkpt><trkpt lat="42.68723107593455" lon="-2.0031783685308815"><ele>544.0</ele><time>2026-03-22T15:06:06Z</time></trkpt><trkpt lat="42.687296421614775" lon="-2.0030941844980874"><ele>542.0</ele><time>2026-03-22T15:06:08Z</time></trkpt><trkpt lat="42.68736625757371" lon="-2.003006874862721"><ele>540.0</ele><time>2026-03-22T15:06:10Z</time></trkpt><trkpt lat="42.687444694899575" lon="-2.0029083940102437"><ele>538.0</ele><time>2026-03-22T15:06:12Z</time></trkpt><trkpt lat="42.6875316684327" lon="-2.002815154646232"><ele>538.0</ele><time>2026-03-22T15:06:14Z</time></trkpt><trkpt lat="42.687621271985726" lon="-2.002718026366812"><ele>538.0</ele><time>2026-03-22T15:06:16Z</time></trkpt><trkpt lat="42.68765862955714" lon="-2.002648827795461"><ele>538.0</ele><time>2026-03-22T15:06:17Z</time></trkpt><trkpt lat="42.68771512071233" lon="-2.0026103633205548"><ele>538.0</ele><time>2026-03-22T15:06:18Z</time></trkpt><trkpt lat="42.68776102574486" lon="-2.0025516407368156"><ele>538.0</ele><time>2026-03-22T15:06:18.999Z</time></trkpt><trkpt lat="42.687798861010734" lon="-2.0024771785556794"><ele>538.0</ele><time>2026-03-22T15:06:19.999Z</time></trkpt><trkpt lat="42.68788827236995" lon="-2.0023617864356056"><ele>536.8333333333334</ele><time>2026-03-22T15:06:21.999Z</time></trkpt><trkpt lat="42.6879597950047" lon="-2.0023348754285784"><ele>535.6666666666667</ele><time>2026-03-22T15:06:22.999Z</time></trkpt><trkpt lat="42.68801507110181" lon="-2.002282745593364"><ele>534.5</ele><time>2026-03-22T15:06:23.999Z</time></trkpt><trkpt lat="42.68806503901106" lon="-2.0022264320159184"><ele>533.3333333333334</ele><time>2026-03-22T15:06:24.999Z</time></trkpt><trkpt lat="42.688152766481565" lon="-2.0021406401297703"><ele>532.1666666666666</ele><time>2026-03-22T15:06:26.999Z</time></trkpt><trkpt lat="42.688221055363634" lon="-2.0020309216277594"><ele>531.0</ele><time>2026-03-22T15:06:28.999Z</time></trkpt><trkpt lat="42.68831494314588" lon="-2.001939058676384"><ele>531.0</ele><time>2026-03-22T15:06:30.999Z</time></trkpt><trkpt lat="42.68838767695064" lon="-2.001825536504927"><ele>531.0</ele><time>2026-03-22T15:06:32.999Z</time></trkpt><trkpt lat="42.68842023267087" lon="-2.0017443463364835"><ele>531.0</ele><time>2026-03-22T15:06:33.999Z</time></trkpt><trkpt lat="42.68847288312352" lon="-2.0016571053284227"><ele>531.0</ele><time>2026-03-22T15:06:34.999Z</time></trkpt><trkpt lat="42.688526503323196" lon="-2.0015682575071256"><ele>531.0</ele><time>2026-03-22T15:06:35.999Z</time></trkpt><trkpt lat="42.68858592633052" lon="-2.0014920371262166"><ele>531.0</ele><time>2026-03-22T15:06:36.999Z</time></trkpt><trkpt lat="42.68863216410546" lon="-2.0014011029920487"><ele>530.4285714285714</ele><time>2026-03-22T15:06:37.999Z</time></trkpt><trkpt lat="42.68867965489384" lon="-2.0013164197673285"><ele>529.8571428571429</ele><time>2026-03-22T15:06:38.999Z</time></trkpt><trkpt lat="42.68872399625219" lon="-2.001232118795707"><ele>529.2857142857143</ele><time>2026-03-22T15:06:39.999Z</time></trkpt><trkpt lat="42.68874525400959" lon="-2.00114037634222"><ele>528.7142857142858</ele><time>2026-03-22T15:06:40.999Z</time></trkpt><trkpt lat="42.688779416611325" lon="-2.001053290540038"><ele>528.1428571428571</ele><time>2026-03-22T15:06:41.999Z</time></trkpt><trkpt lat="42.688807450165925" lon="-2.000962640556552"><ele>527.5714285714287</ele><time>2026-03-22T15:06:42.999Z</time></trkpt><trkpt lat="42.68882800451344" lon="-2.00088138842769"><ele>527.0</ele><time>2026-03-22T15:06:43.999Z</time></trkpt><trkpt lat="42.688847832781825" lon="-2.0007896769078646"><ele>524.8333333333333</ele><time>2026-03-22T15:06:44.999Z</time></trkpt><trkpt lat="42.68888363529921" lon="-2.0006978445018966"><ele>522.6666666666666</ele><time>2026-03-22T15:06:45.999Z</time></trkpt><trkpt lat="42.68890262247488" lon="-2.000604201361202"><ele>520.5</ele><time>2026-03-22T15:06:46.999Z</time></trkpt><trkpt lat="42.68892622499285" lon="-2.000519923880089"><ele>518.3333333333334</ele><time>2026-03-22T15:06:47.999Z</time></trkpt><trkpt lat="42.68896202796184" lon="-2.000366764614668"><ele>516.1666666666667</ele><time>2026-03-22T15:06:49.999Z</time></trkpt><trkpt lat="42.688975911563986" lon="-2.00023039820523"><ele>514.0</ele><time>2026-03-22T15:06:51.999Z</time></trkpt><trkpt lat="42.688995620231516" lon="-2.0001281647133182"><ele>514.0</ele><time>2026-03-22T15:06:53.999Z</time></trkpt><trkpt lat="42.68901341433186" lon="-2.000033732026622"><ele>514.0</ele><time>2026-03-22T15:07:00.999Z</time></trkpt><trkpt lat="42.68915119089031" lon="-2.000060288935109"><ele>514.0</ele><time>2026-03-22T15:07:02.999Z</time></trkpt><trkpt lat="42.68927181666199" lon="-2.000138876385068"><ele>514.0</ele><time>2026-03-22T15:07:04.999Z</time></trkpt><trkpt lat="42.68934257988382" lon="-2.0001801937307713"><ele>514.0</ele><time>2026-03-22T15:07:05.999Z</time></trkpt><trkpt lat="42.68940994139813" lon="-2.0002183232488226"><ele>514.1666666666667</ele><time>2026-03-22T15:07:06.999Z</time></trkpt><trkpt lat="42.689480963003085" lon="-2.000252115532099"><ele>514.3333333333334</ele><time>2026-03-22T15:07:07.999Z</time></trkpt><trkpt lat="42.689555438119775" lon="-2.000286986282152"><ele>514.5</ele><time>2026-03-22T15:07:08.999Z</time></trkpt><trkpt lat="42.6896305660091" lon="-2.000328872484184"><ele>514.6666666666666</ele><time>2026-03-22T15:07:09.999Z</time></trkpt><trkpt lat="42.68971358237578" lon="-2.000349734026883"><ele>514.8333333333333</ele><time>2026-03-22T15:07:10.999Z</time></trkpt><trkpt lat="42.6897923246964" lon="-2.0003964474070144"><ele>515.0</ele><time>2026-03-22T15:07:11.999Z</time></trkpt><trkpt lat="42.689872924176214" lon="-2.0004685239993316"><ele>515.0</ele><time>2026-03-22T15:07:12.999Z</time></trkpt><trkpt lat="42.68994133142721" lon="-2.000555282693141"><ele>515.0</ele><time>2026-03-22T15:07:13.999Z</time></trkpt><trkpt lat="42.69000380220749" lon="-2.000654277872827"><ele>515.0</ele><time>2026-03-22T15:07:14.999Z</time></trkpt><trkpt lat="42.69006399821829" lon="-2.0007567913176105"><ele>515.0</ele><time>2026-03-22T15:07:15.999Z</time></trkpt><trkpt lat="42.6901184369154" lon="-2.0008717960921554"><ele>515.0</ele><time>2026-03-22T15:07:16.999Z</time></trkpt><trkpt lat="42.69017368757557" lon="-2.000979627976854"><ele>516.0</ele><time>2026-03-22T15:07:17.999Z</time></trkpt><trkpt lat="42.6902453714041" lon="-2.0010727344860872"><ele>517.0</ele><time>2026-03-22T15:07:18.998Z</time></trkpt><trkpt lat="42.69029761953142" lon="-2.001196515707037"><ele>518.0</ele><time>2026-03-22T15:07:19.998Z</time></trkpt><trkpt lat="42.69036505204181" lon="-2.0013071497718586"><ele>519.0</ele><time>2026-03-22T15:07:20.998Z</time></trkpt><trkpt lat="42.69043410563656" lon="-2.0014186848826405"><ele>520.0</ele><time>2026-03-22T15:07:21.998Z</time></trkpt><trkpt lat="42.69049997699472" lon="-2.001535059580106"><ele>520.6</ele><time>2026-03-22T15:07:22.998Z</time></trkpt><trkpt lat="42.690569347749104" lon="-2.0016525160133782"><ele>521.2</ele><time>2026-03-22T15:07:23.998Z</time></trkpt><trkpt lat="42.6906377189889" lon="-2.0017698702014073"><ele>521.8</ele><time>2026-03-22T15:07:24.998Z</time></trkpt><trkpt lat="42.69070478729766" lon="-2.0018893400828786"><ele>522.4</ele><time>2026-03-22T15:07:25.998Z</time></trkpt><trkpt lat="42.69077097865461" lon="-2.0020105522991303"><ele>523.0</ele><time>2026-03-22T15:07:26.998Z</time></trkpt><trkpt lat="42.69083806421184" lon="-2.0021293719457347"><ele>523.6</ele><time>2026-03-22T15:07:27.998Z</time></trkpt><trkpt lat="42.690904730257756" lon="-2.002242150397746"><ele>524.1999999999999</ele><time>2026-03-22T15:07:28.998Z</time></trkpt><trkpt lat="42.690968168697694" lon="-2.0023542248242925"><ele>524.8</ele><time>2026-03-22T15:07:29.998Z</time></trkpt><trkpt lat="42.69103285293446" lon="-2.002465010359711"><ele>525.4</ele><time>2026-03-22T15:07:30.998Z</time></trkpt><trkpt lat="42.69108798179131" lon="-2.002573449101127"><ele>526.0</ele><time>2026-03-22T15:07:31.998Z</time></trkpt><trkpt lat="42.69113047874077" lon="-2.002683725623981"><ele>526.4</ele><time>2026-03-22T15:07:32.998Z</time></trkpt><trkpt lat="42.691154397507724" lon="-2.0028048890068786"><ele>526.8</ele><time>2026-03-22T15:07:33.998Z</time></trkpt><trkpt lat="42.69115607126339" lon="-2.002930822940682"><ele>527.1999999999999</ele><time>2026-03-22T15:07:34.998Z</time></trkpt><trkpt lat="42.69114326562215" lon="-2.0030645751762415"><ele>527.6</ele><time>2026-03-22T15:07:35.998Z</time></trkpt><trkpt lat="42.69111867291863" lon="-2.003199527473956"><ele>528.0</ele><time>2026-03-22T15:07:36.998Z</time></trkpt><trkpt lat="42.69108683042501" lon="-2.003342373538213"><ele>531.25</ele><time>2026-03-22T15:07:37.998Z</time></trkpt><trkpt lat="42.69105158971763" lon="-2.0034927299122294"><ele>534.5</ele><time>2026-03-22T15:07:38.998Z</time></trkpt><trkpt lat="42.69101755443684" lon="-2.0036474115595033"><ele>537.75</ele><time>2026-03-22T15:07:39.998Z</time></trkpt><trkpt lat="42.6909866812701" lon="-2.003803465773451"><ele>541.0</ele><time>2026-03-22T15:07:40.998Z</time></trkpt><trkpt lat="42.690968165196615" lon="-2.0039522263528293"><ele>541.0</ele><time>2026-03-22T15:07:42Z</time></trkpt><trkpt lat="42.69096353773715" lon="-2.004096526780012"><ele>541.0</ele><time>2026-03-22T15:07:43Z</time></trkpt><trkpt lat="42.69097754666875" lon="-2.0042310063525193"><ele>541.0</ele><time>2026-03-22T15:07:44Z</time></trkpt><trkpt lat="42.69100923722489" lon="-2.0043581250371254"><ele>541.0</ele><time>2026-03-22T15:07:45Z</time></trkpt><trkpt lat="42.69105715799546" lon="-2.004473108068549"><ele>541.0</ele><time>2026-03-22T15:07:46Z</time></trkpt><trkpt lat="42.69111964036414" lon="-2.0045765900366774"><ele>541.0</ele><time>2026-03-22T15:07:47Z</time></trkpt><trkpt lat="42.691197042849254" lon="-2.004668748403552"><ele>541.0</ele><time>2026-03-22T15:07:48Z</time></trkpt><trkpt lat="42.69127482321669" lon="-2.004757760526263"><ele>541.0</ele><time>2026-03-22T15:07:49Z</time></trkpt><trkpt lat="42.69135177392304" lon="-2.004856610551341"><ele>541.0</ele><time>2026-03-22T15:07:50Z</time></trkpt><trkpt lat="42.69142531313899" lon="-2.00496918527205"><ele>541.0</ele><time>2026-03-22T15:07:51Z</time></trkpt><trkpt lat="42.69149109967509" lon="-2.005091344711468"><ele>541.0</ele><time>2026-03-22T15:07:52Z</time></trkpt><trkpt lat="42.691547052368875" lon="-2.0052276762150374"><ele>541.0</ele><time>2026-03-22T15:07:53Z</time></trkpt><trkpt lat="42.69159370157822" lon="-2.0053757133212002"><ele>541.0</ele><time>2026-03-22T15:07:54Z</time></trkpt><trkpt lat="42.69164401297748" lon="-2.005532074032681"><ele>541.0</ele><time>2026-03-22T15:07:55Z</time></trkpt><trkpt lat="42.69168773886567" lon="-2.0056948361061226"><ele>543.25</ele><time>2026-03-22T15:07:56Z</time></trkpt><trkpt lat="42.6917342977468" lon="-2.005863405766669"><ele>545.5</ele><time>2026-03-22T15:07:57Z</time></trkpt><trkpt lat="42.691787901928976" lon="-2.0060242241616963"><ele>547.75</ele><time>2026-03-22T15:07:58Z</time></trkpt><trkpt lat="42.69184414496623" lon="-2.0061781299937196"><ele>550.0</ele><time>2026-03-22T15:07:59Z</time></trkpt><trkpt lat="42.69188630633267" lon="-2.0063223956888323"><ele>550.0</ele><time>2026-03-22T15:08:00Z</time></trkpt><trkpt lat="42.69191811012156" lon="-2.0064564836327516"><ele>550.0</ele><time>2026-03-22T15:08:01Z</time></trkpt><trkpt lat="42.69193636197395" lon="-2.006584781170801"><ele>550.0</ele><time>2026-03-22T15:08:02Z</time></trkpt><trkpt lat="42.691936770715124" lon="-2.0067154783135517"><ele>550.0</ele><time>2026-03-22T15:08:03Z</time></trkpt><trkpt lat="42.69191847712874" lon="-2.006845651495183"><ele>550.0</ele><time>2026-03-22T15:08:04Z</time></trkpt><trkpt lat="42.6918869682695" lon="-2.006982593536266"><ele>552.75</ele><time>2026-03-22T15:08:05Z</time></trkpt><trkpt lat="42.69184812644822" lon="-2.007125571278337"><ele>555.5</ele><time>2026-03-22T15:08:06Z</time></trkpt><trkpt lat="42.69180865525438" lon="-2.0072720090783625"><ele>558.25</ele><time>2026-03-22T15:08:07Z</time></trkpt><trkpt lat="42.6917714678235" lon="-2.0074322361862236"><ele>561.0</ele><time>2026-03-22T15:08:08Z</time></trkpt><trkpt lat="42.69173817702568" lon="-2.007597025528506"><ele>562.0</ele><time>2026-03-22T15:08:09Z</time></trkpt><trkpt lat="42.69170200891734" lon="-2.0077671357746745"><ele>563.0</ele><time>2026-03-22T15:08:10Z</time></trkpt><trkpt lat="42.69166622354198" lon="-2.0079396415436634"><ele>564.0</ele><time>2026-03-22T15:08:11Z</time></trkpt><trkpt lat="42.691629961975394" lon="-2.0081144915200237"><ele>565.0</ele><time>2026-03-22T15:08:12Z</time></trkpt><trkpt lat="42.691601740366245" lon="-2.0082802732979843"><ele>564.8</ele><time>2026-03-22T15:08:13Z</time></trkpt><trkpt lat="42.691587263352666" lon="-2.008431868704861"><ele>564.6</ele><time>2026-03-22T15:08:14Z</time></trkpt><trkpt lat="42.69158665584552" lon="-2.0085719802175483"><ele>564.4</ele><time>2026-03-22T15:08:15Z</time></trkpt><trkpt lat="42.691603160228176" lon="-2.008715499464903"><ele>564.2</ele><time>2026-03-22T15:08:16Z</time></trkpt><trkpt lat="42.69163686843475" lon="-2.00885287620355"><ele>564.0</ele><time>2026-03-22T15:08:17Z</time></trkpt><trkpt lat="42.69168521115331" lon="-2.008985657170971"><ele>564.0</ele><time>2026-03-22T15:08:18Z</time></trkpt><trkpt lat="42.69175030091938" lon="-2.009107163828452"><ele>564.0</ele><time>2026-03-22T15:08:19Z</time></trkpt><trkpt lat="42.69183060764514" lon="-2.009221544843622"><ele>564.0</ele><time>2026-03-22T15:08:20Z</time></trkpt><trkpt lat="42.69192377794327" lon="-2.0093357768441202"><ele>564.0</ele><time>2026-03-22T15:08:20.999Z</time></trkpt><trkpt lat="42.692023386391234" lon="-2.009454715237874"><ele>561.5</ele><time>2026-03-22T15:08:21.999Z</time></trkpt><trkpt lat="42.69212284034246" lon="-2.009583734243067"><ele>559.0</ele><time>2026-03-22T15:08:22.999Z</time></trkpt><trkpt lat="42.69222630972474" lon="-2.009713299560902"><ele>556.5</ele><time>2026-03-22T15:08:23.999Z</time></trkpt><trkpt lat="42.69233622744374" lon="-2.00983693449962"><ele>554.0</ele><time>2026-03-22T15:08:24.999Z</time></trkpt><trkpt lat="42.69245880036789" lon="-2.00993936898464"><ele>554.75</ele><time>2026-03-22T15:08:25.999Z</time></trkpt><trkpt lat="42.69258557517319" lon="-2.010028446444212"><ele>555.5</ele><time>2026-03-22T15:08:26.999Z</time></trkpt><trkpt lat="42.6927050233083" lon="-2.010107452280272"><ele>556.25</ele><time>2026-03-22T15:08:27.999Z</time></trkpt><trkpt lat="42.69281077611873" lon="-2.010180175676893"><ele>557.0</ele><time>2026-03-22T15:08:28.999Z</time></trkpt><trkpt lat="42.69290248854415" lon="-2.010259601954584"><ele>557.0</ele><time>2026-03-22T15:08:29.999Z</time></trkpt><trkpt lat="42.69298652924125" lon="-2.0103560493722363"><ele>557.0</ele><time>2026-03-22T15:08:30.999Z</time></trkpt><trkpt lat="42.693072755477644" lon="-2.0104694444155684"><ele>557.0</ele><time>2026-03-22T15:08:31.999Z</time></trkpt><trkpt lat="42.69315552930113" lon="-2.0105960837760812"><ele>557.0</ele><time>2026-03-22T15:08:32.999Z</time></trkpt><trkpt lat="42.69324742658213" lon="-2.010730105777881"><ele>558.0</ele><time>2026-03-22T15:08:33.999Z</time></trkpt><trkpt lat="42.69333361738033" lon="-2.0108775705359796"><ele>559.0</ele><time>2026-03-22T15:08:34.999Z</time></trkpt><trkpt lat="42.69342973564281" lon="-2.011027251828577"><ele>560.0</ele><time>2026-03-22T15:08:35.999Z</time></trkpt><trkpt lat="42.69352257666737" lon="-2.011182307228513"><ele>561.0</ele><time>2026-03-22T15:08:36.999Z</time></trkpt><trkpt lat="42.69362175823051" lon="-2.0113294495503675"><ele>561.0</ele><time>2026-03-22T15:08:37.999Z</time></trkpt><trkpt lat="42.693707439846776" lon="-2.011467876650983"><ele>561.0</ele><time>2026-03-22T15:08:38.999Z</time></trkpt><trkpt lat="42.69378712463002" lon="-2.0115954554967685"><ele>561.0</ele><time>2026-03-22T15:08:39.999Z</time></trkpt><trkpt lat="42.69386789509207" lon="-2.0116978240231544"><ele>561.0</ele><time>2026-03-22T15:08:40.999Z</time></trkpt><trkpt lat="42.6939557289644" lon="-2.011776583037105"><ele>562.6</ele><time>2026-03-22T15:08:41.999Z</time></trkpt><trkpt lat="42.69405312977955" lon="-2.011834924495696"><ele>564.2</ele><time>2026-03-22T15:08:42.999Z</time></trkpt><trkpt lat="42.69416043264375" lon="-2.011877519902711"><ele>565.8</ele><time>2026-03-22T15:08:43.999Z</time></trkpt><trkpt lat="42.69427564826047" lon="-2.011907605032918"><ele>567.4</ele><time>2026-03-22T15:08:44.999Z</time></trkpt><trkpt lat="42.694386327000736" lon="-2.0119207070418015"><ele>569.0</ele><time>2026-03-22T15:08:45.999Z</time></trkpt><trkpt lat="42.69448905206907" lon="-2.0119097662133014"><ele>568.4</ele><time>2026-03-22T15:08:46.999Z</time></trkpt><trkpt lat="42.69455945142739" lon="-2.01182470468828"><ele>567.8</ele><time>2026-03-22T15:08:47.999Z</time></trkpt><trkpt lat="42.69463174048819" lon="-2.011742167152088"><ele>567.2</ele><time>2026-03-22T15:08:48.999Z</time></trkpt><trkpt lat="42.6947084378515" lon="-2.0116454926570624"><ele>566.6</ele><time>2026-03-22T15:08:49.999Z</time></trkpt><trkpt lat="42.694797933239514" lon="-2.011562919346845"><ele>566.0</ele><time>2026-03-22T15:08:50.999Z</time></trkpt><trkpt lat="42.694883969748496" lon="-2.011479450627508"><ele>566.0</ele><time>2026-03-22T15:08:51.999Z</time></trkpt><trkpt lat="42.69496520160789" lon="-2.0114037685063098"><ele>566.0</ele><time>2026-03-22T15:08:52.999Z</time></trkpt><trkpt lat="42.69506076165828" lon="-2.0113792561435906"><ele>566.0</ele><time>2026-03-22T15:08:53.999Z</time></trkpt><trkpt lat="42.69516580986282" lon="-2.011386331226904"><ele>566.0</ele><time>2026-03-22T15:08:54.999Z</time></trkpt><trkpt lat="42.6952727285196" lon="-2.0114423424229932"><ele>566.0</ele><time>2026-03-22T15:08:55.999Z</time></trkpt><trkpt lat="42.69538114854139" lon="-2.0114930084411964"><ele>566.0</ele><time>2026-03-22T15:08:56.999Z</time></trkpt><trkpt lat="42.69549699493538" lon="-2.011546916840114"><ele>566.0</ele><time>2026-03-22T15:08:57.999Z</time></trkpt><trkpt lat="42.695619312672704" lon="-2.0115934017111177"><ele>566.0</ele><time>2026-03-22T15:08:58.999Z</time></trkpt><trkpt lat="42.6957431987605" lon="-2.011647040055376"><ele>566.0</ele><time>2026-03-22T15:08:59.999Z</time></trkpt><trkpt lat="42.69586829940158" lon="-2.011707265326137"><ele>568.25</ele><time>2026-03-22T15:09:00.999Z</time></trkpt><trkpt lat="42.695984793732926" lon="-2.0117965395485684"><ele>570.5</ele><time>2026-03-22T15:09:01.999Z</time></trkpt><trkpt lat="42.69609326869554" lon="-2.0118983442675717"><ele>572.75</ele><time>2026-03-22T15:09:02.999Z</time></trkpt><trkpt lat="42.69619684730364" lon="-2.01201908465016"><ele>575.0</ele><time>2026-03-22T15:09:03.999Z</time></trkpt><trkpt lat="42.696299996614655" lon="-2.012139760236609"><ele>575.0</ele><time>2026-03-22T15:09:04.999Z</time></trkpt><trkpt lat="42.69640235276158" lon="-2.012262580777612"><ele>575.0</ele><time>2026-03-22T15:09:05.999Z</time></trkpt><trkpt lat="42.69650239875388" lon="-2.012391159957666"><ele>575.0</ele><time>2026-03-22T15:09:06.999Z</time></trkpt><trkpt lat="42.696596148992334" lon="-2.0125270763408754"><ele>575.0</ele><time>2026-03-22T15:09:07.999Z</time></trkpt><trkpt lat="42.69668386343971" lon="-2.0126704033439182"><ele>573.75</ele><time>2026-03-22T15:09:08.999Z</time></trkpt><trkpt lat="42.69676541093212" lon="-2.0128209759507407"><ele>572.5</ele><time>2026-03-22T15:09:09.999Z</time></trkpt><trkpt lat="42.69682966864131" lon="-2.0129813120790154"><ele>571.25</ele><time>2026-03-22T15:09:10.999Z</time></trkpt><trkpt lat="42.69688110618931" lon="-2.0131528225799835"><ele>570.0</ele><time>2026-03-22T15:09:11.999Z</time></trkpt><trkpt lat="42.69692331107134" lon="-2.0133256028209137"><ele>570.0</ele><time>2026-03-22T15:09:12.999Z</time></trkpt><trkpt lat="42.69696281565254" lon="-2.0134975248825953"><ele>570.0</ele><time>2026-03-22T15:09:13.999Z</time></trkpt><trkpt lat="42.69699943415658" lon="-2.0136674044118723"><ele>570.0</ele><time>2026-03-22T15:09:14.999Z</time></trkpt><trkpt lat="42.69703415042861" lon="-2.01383121485046"><ele>570.0</ele><time>2026-03-22T15:09:15.999Z</time></trkpt><trkpt lat="42.69705280141317" lon="-2.0139811863405486"><ele>570.0</ele><time>2026-03-22T15:09:16.999Z</time></trkpt><trkpt lat="42.69706804528691" lon="-2.0140973149712127"><ele>570.0</ele><time>2026-03-22T15:09:17.999Z</time></trkpt><trkpt lat="42.69707782825385" lon="-2.014193873817998"><ele>570.0</ele><time>2026-03-22T15:09:18.999Z</time></trkpt><trkpt lat="42.6970863810149" lon="-2.014319088931282"><ele>570.0</ele><time>2026-03-22T15:09:20.998Z</time></trkpt><trkpt lat="42.697114769872776" lon="-2.0144086014201767"><ele>570.0</ele><time>2026-03-22T15:09:21.998Z</time></trkpt><trkpt lat="42.697128678037906" lon="-2.0144960156710363"><ele>570.0</ele><time>2026-03-22T15:09:22.998Z</time></trkpt><trkpt lat="42.697123501117574" lon="-2.0146037487614055"><ele>572.0</ele><time>2026-03-22T15:09:23.998Z</time></trkpt><trkpt lat="42.69717605251461" lon="-2.014695198704295"><ele>574.0</ele><time>2026-03-22T15:09:24.998Z</time></trkpt><trkpt lat="42.697242362212116" lon="-2.0147935675664543"><ele>576.0</ele><time>2026-03-22T15:09:25.998Z</time></trkpt><trkpt lat="42.69731611433114" lon="-2.0149004664996872"><ele>578.0</ele><time>2026-03-22T15:09:26.998Z</time></trkpt><trkpt lat="42.69738912586692" lon="-2.0150206090880958"><ele>580.0</ele><time>2026-03-22T15:09:27.998Z</time></trkpt><trkpt lat="42.6974494399415" lon="-2.0151387744206777"><ele>582.8</ele><time>2026-03-22T15:09:28.998Z</time></trkpt><trkpt lat="42.69749787057255" lon="-2.0152667515496994"><ele>585.6</ele><time>2026-03-22T15:09:29.998Z</time></trkpt><trkpt lat="42.69752940047041" lon="-2.0154068580481646"><ele>588.4</ele><time>2026-03-22T15:09:30.998Z</time></trkpt><trkpt lat="42.697538917581696" lon="-2.0155482431914624"><ele>591.2</ele><time>2026-03-22T15:09:31.998Z</time></trkpt><trkpt lat="42.69752187537729" lon="-2.015685975293049"><ele>594.0</ele><time>2026-03-22T15:09:32.998Z</time></trkpt><trkpt lat="42.69748546633401" lon="-2.015816436927468"><ele>595.25</ele><time>2026-03-22T15:09:33.998Z</time></trkpt><trkpt lat="42.697437783743425" lon="-2.0159387167965632"><ele>596.5</ele><time>2026-03-22T15:09:34.998Z</time></trkpt><trkpt lat="42.6973756024847" lon="-2.016062323073404"><ele>597.75</ele><time>2026-03-22T15:09:35.998Z</time></trkpt><trkpt lat="42.69731384809683" lon="-2.0162004952595796"><ele>599.0</ele><time>2026-03-22T15:09:36.998Z</time></trkpt><trkpt lat="42.69726349938197" lon="-2.016352247020071"><ele>599.0</ele><time>2026-03-22T15:09:37.998Z</time></trkpt><trkpt lat="42.697225627518826" lon="-2.016513956567948"><ele>599.0</ele><time>2026-03-22T15:09:38.998Z</time></trkpt><trkpt lat="42.697204902035466" lon="-2.0166875772245"><ele>599.0</ele><time>2026-03-22T15:09:39.998Z</time></trkpt><trkpt lat="42.6971887747417" lon="-2.0168635141719395"><ele>599.0</ele><time>2026-03-22T15:09:40.998Z</time></trkpt><trkpt lat="42.69717698779807" lon="-2.017049776446602"><ele>599.0</ele><time>2026-03-22T15:09:41.998Z</time></trkpt><trkpt lat="42.697175047675415" lon="-2.0172355434499334"><ele>599.0</ele><time>2026-03-22T15:09:42.998Z</time></trkpt><trkpt lat="42.69716724396709" lon="-2.0174263226393467"><ele>599.0</ele><time>2026-03-22T15:09:43.998Z</time></trkpt><trkpt lat="42.69716043109808" lon="-2.017619187110519"><ele>599.0</ele><time>2026-03-22T15:09:44.998Z</time></trkpt><trkpt lat="42.69715365626865" lon="-2.017812499623679"><ele>599.25</ele><time>2026-03-22T15:09:45.998Z</time></trkpt><trkpt lat="42.697146601522086" lon="-2.0180032011870863"><ele>599.5</ele><time>2026-03-22T15:09:46.998Z</time></trkpt><trkpt lat="42.69714033754249" lon="-2.0181896445177614"><ele>599.75</ele><time>2026-03-22T15:09:48Z</time></trkpt><trkpt lat="42.69713768614898" lon="-2.018368810259417"><ele>600.0</ele><time>2026-03-22T15:09:49Z</time></trkpt><trkpt lat="42.69714490814976" lon="-2.0185395457274145"><ele>600.5</ele><time>2026-03-22T15:09:50Z</time></trkpt><trkpt lat="42.69716458588232" lon="-2.018698930781102"><ele>601.0</ele><time>2026-03-22T15:09:51Z</time></trkpt><trkpt lat="42.697192400317924" lon="-2.018848026136938"><ele>601.5</ele><time>2026-03-22T15:09:52Z</time></trkpt><trkpt lat="42.69723488678893" lon="-2.0189914941594167"><ele>602.0</ele><time>2026-03-22T15:09:53Z</time></trkpt><trkpt lat="42.697288821973956" lon="-2.0191317493817933"><ele>600.0</ele><time>2026-03-22T15:09:54Z</time></trkpt><trkpt lat="42.6973554825228" lon="-2.0192746819849376"><ele>598.0</ele><time>2026-03-22T15:09:55Z</time></trkpt><trkpt lat="42.697434345827695" lon="-2.019419051149749"><ele>596.0</ele><time>2026-03-22T15:09:56Z</time></trkpt><trkpt lat="42.69752457267756" lon="-2.019563198038712"><ele>594.0</ele><time>2026-03-22T15:09:57Z</time></trkpt><trkpt lat="42.69761711654238" lon="-2.0197127054337436"><ele>594.0</ele><time>2026-03-22T15:09:58Z</time></trkpt><trkpt lat="42.697706410520254" lon="-2.0198713867251885"><ele>594.0</ele><time>2026-03-22T15:09:59Z</time></trkpt><trkpt lat="42.6978011076992" lon="-2.0200306398152863"><ele>594.0</ele><time>2026-03-22T15:10:00Z</time></trkpt><trkpt lat="42.69789395972406" lon="-2.020198392170991"><ele>594.6666666666666</ele><time>2026-03-22T15:10:01Z</time></trkpt><trkpt lat="42.6979875290805" lon="-2.0203688682182763"><ele>595.3333333333333</ele><time>2026-03-22T15:10:02Z</time></trkpt><trkpt lat="42.69808727403473" lon="-2.0205414248874605"><ele>596.0</ele><time>2026-03-22T15:10:03Z</time></trkpt><trkpt lat="42.698189340889684" lon="-2.0207174580788676"><ele>592.0</ele><time>2026-03-22T15:10:04Z</time></trkpt><trkpt lat="42.698289692635385" lon="-2.0208952972966974"><ele>588.0</ele><time>2026-03-22T15:10:05Z</time></trkpt><trkpt lat="42.69839216029672" lon="-2.0210710564749594"><ele>584.0</ele><time>2026-03-22T15:10:06Z</time></trkpt><trkpt lat="42.69848566080622" lon="-2.021233581403571"><ele>584.0</ele><time>2026-03-22T15:10:07Z</time></trkpt><trkpt lat="42.69857646528977" lon="-2.021391542221366"><ele>584.0</ele><time>2026-03-22T15:10:08Z</time></trkpt><trkpt lat="42.69866671343614" lon="-2.0215446160559063"><ele>584.0</ele><time>2026-03-22T15:10:09Z</time></trkpt><trkpt lat="42.69875661912956" lon="-2.021687335109107"><ele>584.0</ele><time>2026-03-22T15:10:10Z</time></trkpt><trkpt lat="42.69883070856171" lon="-2.021813302598628"><ele>583.0</ele><time>2026-03-22T15:10:11Z</time></trkpt><trkpt lat="42.6988934466691" lon="-2.0219188537453947"><ele>582.0</ele><time>2026-03-22T15:10:12Z</time></trkpt><trkpt lat="42.69894712111894" lon="-2.021995653115485"><ele>581.0</ele><time>2026-03-22T15:10:13Z</time></trkpt><trkpt lat="42.69904716944408" lon="-2.0220678195011876"><ele>580.0</ele><time>2026-03-22T15:10:15Z</time></trkpt><trkpt lat="42.6991283669146" lon="-2.022076996014352"><ele>579.0</ele><time>2026-03-22T15:10:17Z</time></trkpt><trkpt lat="42.69918825165058" lon="-2.022117449764658"><ele>578.0</ele><time>2026-03-22T15:10:19Z</time></trkpt><trkpt lat="42.699231021488124" lon="-2.022282660005897"><ele>578.0</ele><time>2026-03-22T15:10:21Z</time></trkpt><trkpt lat="42.69925771791204" lon="-2.022391899344836"><ele>578.0</ele><time>2026-03-22T15:10:22Z</time></trkpt><trkpt lat="42.69927971597962" lon="-2.0225124053781407"><ele>578.0</ele><time>2026-03-22T15:10:23Z</time></trkpt><trkpt lat="42.69929799905722" lon="-2.022643403590634"><ele>578.0</ele><time>2026-03-22T15:10:24Z</time></trkpt><trkpt lat="42.699304629824034" lon="-2.0227895538285194"><ele>578.0</ele><time>2026-03-22T15:10:25Z</time></trkpt><trkpt lat="42.69930110078755" lon="-2.022947421365542"><ele>576.75</ele><time>2026-03-22T15:10:26Z</time></trkpt><trkpt lat="42.699284523811905" lon="-2.0231126049189285"><ele>575.5</ele><time>2026-03-22T15:10:27Z</time></trkpt><trkpt lat="42.69925569140329" lon="-2.0232750676648568"><ele>574.25</ele><time>2026-03-22T15:10:28Z</time></trkpt><trkpt lat="42.69921228544091" lon="-2.0234353925508346"><ele>573.0</ele><time>2026-03-22T15:10:29Z</time></trkpt><trkpt lat="42.699155436083316" lon="-2.023591869400576"><ele>572.75</ele><time>2026-03-22T15:10:30Z</time></trkpt><trkpt lat="42.6990828961353" lon="-2.023739316922702"><ele>572.5</ele><time>2026-03-22T15:10:31Z</time></trkpt><trkpt lat="42.698996134506984" lon="-2.02387443565691"><ele>572.25</ele><time>2026-03-22T15:10:31.999Z</time></trkpt><trkpt lat="42.69889777995219" lon="-2.0239969065086325"><ele>572.0</ele><time>2026-03-22T15:10:32.999Z</time></trkpt><trkpt lat="42.698790909657816" lon="-2.024108809523819"><ele>570.5</ele><time>2026-03-22T15:10:33.999Z</time></trkpt><trkpt lat="42.69868175458483" lon="-2.0242219183230117"><ele>569.0</ele><time>2026-03-22T15:10:34.999Z</time></trkpt><trkpt lat="42.69857189666759" lon="-2.024342039729211"><ele>567.5</ele><time>2026-03-22T15:10:35.999Z</time></trkpt><trkpt lat="42.6984624941877" lon="-2.024457256987479"><ele>566.0</ele><time>2026-03-22T15:10:36.999Z</time></trkpt><trkpt lat="42.698355527629666" lon="-2.0245697465444596"><ele>566.0</ele><time>2026-03-22T15:10:37.999Z</time></trkpt><trkpt lat="42.6982400133315" lon="-2.0246622401697683"><ele>566.0</ele><time>2026-03-22T15:10:38.999Z</time></trkpt><trkpt lat="42.6981220521037" lon="-2.0247432696589227"><ele>566.0</ele><time>2026-03-22T15:10:39.999Z</time></trkpt><trkpt lat="42.69799977680578" lon="-2.024820933473082"><ele>566.0</ele><time>2026-03-22T15:10:40.999Z</time></trkpt><trkpt lat="42.697869188168774" lon="-2.024891622313639"><ele>566.0</ele><time>2026-03-22T15:10:41.999Z</time></trkpt><trkpt lat="42.697732903677995" lon="-2.024952437033811"><ele>566.0</ele><time>2026-03-22T15:10:42.999Z</time></trkpt><trkpt lat="42.69758429111409" lon="-2.024998540379159"><ele>566.0</ele><time>2026-03-22T15:10:43.999Z</time></trkpt><trkpt lat="42.69743677441786" lon="-2.025043877430136"><ele>566.0</ele><time>2026-03-22T15:10:44.999Z</time></trkpt><trkpt lat="42.697280757154225" lon="-2.0250847088539046"><ele>562.6666666666666</ele><time>2026-03-22T15:10:45.999Z</time></trkpt><trkpt lat="42.697120653968916" lon="-2.02512948709084"><ele>559.3333333333334</ele><time>2026-03-22T15:10:46.999Z</time></trkpt><trkpt lat="42.69695924496395" lon="-2.0251776323054234"><ele>556.0</ele><time>2026-03-22T15:10:47.999Z</time></trkpt><trkpt lat="42.696793702595535" lon="-2.0252271183225945"><ele>555.3333333333334</ele><time>2026-03-22T15:10:48.999Z</time></trkpt><trkpt lat="42.696628221756285" lon="-2.0252847208095015"><ele>554.6666666666666</ele><time>2026-03-22T15:10:49.999Z</time></trkpt><trkpt lat="42.69646583436374" lon="-2.025345725441638"><ele>554.0</ele><time>2026-03-22T15:10:50.999Z</time></trkpt><trkpt lat="42.696304287911175" lon="-2.0254089018598314"><ele>554.0</ele><time>2026-03-22T15:10:51.999Z</time></trkpt><trkpt lat="42.696144811375255" lon="-2.0254764874425164"><ele>554.0</ele><time>2026-03-22T15:10:52.999Z</time></trkpt><trkpt lat="42.69598817802398" lon="-2.0255450433167725"><ele>554.0</ele><time>2026-03-22T15:10:53.999Z</time></trkpt><trkpt lat="42.6958283301432" lon="-2.0256118655152635"><ele>553.0</ele><time>2026-03-22T15:10:54.999Z</time></trkpt><trkpt lat="42.695664157644984" lon="-2.025678329837783"><ele>552.0</ele><time>2026-03-22T15:10:55.999Z</time></trkpt><trkpt lat="42.695500017977295" lon="-2.0257436910816"><ele>551.0</ele><time>2026-03-22T15:10:56.999Z</time></trkpt><trkpt lat="42.695335769483485" lon="-2.025807879833333"><ele>547.0</ele><time>2026-03-22T15:10:57.999Z</time></trkpt><trkpt lat="42.695172513551555" lon="-2.02586374978782"><ele>543.0</ele><time>2026-03-22T15:10:58.999Z</time></trkpt><trkpt lat="42.6950072010853" lon="-2.025907331084945"><ele>539.0</ele><time>2026-03-22T15:10:59.999Z</time></trkpt><trkpt lat="42.69484151116651" lon="-2.0259383253161403"><ele>539.0</ele><time>2026-03-22T15:11:00.999Z</time></trkpt><trkpt lat="42.69467384846408" lon="-2.0259615328512073"><ele>539.0</ele><time>2026-03-22T15:11:01.999Z</time></trkpt><trkpt lat="42.69450924090646" lon="-2.025978005606436"><ele>539.0</ele><time>2026-03-22T15:11:02.999Z</time></trkpt><trkpt lat="42.69435012652825" lon="-2.025992574454936"><ele>536.6666666666666</ele><time>2026-03-22T15:11:03.999Z</time></trkpt><trkpt lat="42.6941905625202" lon="-2.0260005092967224"><ele>534.3333333333334</ele><time>2026-03-22T15:11:04.999Z</time></trkpt><trkpt lat="42.69403384218134" lon="-2.0259902838573987"><ele>532.0</ele><time>2026-03-22T15:11:05.999Z</time></trkpt><trkpt lat="42.693880284772604" lon="-2.0259616937716602"><ele>532.0</ele><time>2026-03-22T15:11:06.999Z</time></trkpt><trkpt lat="42.693730584243866" lon="-2.0259149386451063"><ele>532.0</ele><time>2026-03-22T15:11:07.999Z</time></trkpt><trkpt lat="42.693578863318" lon="-2.025860976915246"><ele>532.0</ele><time>2026-03-22T15:11:08.999Z</time></trkpt><trkpt lat="42.69341999168003" lon="-2.0258009483262676"><ele>531.0</ele><time>2026-03-22T15:11:09.999Z</time></trkpt><trkpt lat="42.69325886815827" lon="-2.0257443421177017"><ele>530.0</ele><time>2026-03-22T15:11:10.999Z</time></trkpt><trkpt lat="42.69309194842039" lon="-2.0256975919515354"><ele>529.0</ele><time>2026-03-22T15:11:11.999Z</time></trkpt><trkpt lat="42.692927565351695" lon="-2.0256652485663365"><ele>529.0</ele><time>2026-03-22T15:11:12.999Z</time></trkpt><trkpt lat="42.69276517180972" lon="-2.025648581945075"><ele>529.0</ele><time>2026-03-22T15:11:13.999Z</time></trkpt><trkpt lat="42.69260301723418" lon="-2.025651358411918"><ele>529.0</ele><time>2026-03-22T15:11:14.999Z</time></trkpt><trkpt lat="42.69244191315649" lon="-2.0256625175167193"><ele>526.0</ele><time>2026-03-22T15:11:15.999Z</time></trkpt><trkpt lat="42.69227775366936" lon="-2.0256873803728173"><ele>523.0</ele><time>2026-03-22T15:11:16.999Z</time></trkpt><trkpt lat="42.69211362202388" lon="-2.025727594237994"><ele>520.0</ele><time>2026-03-22T15:11:17.999Z</time></trkpt><trkpt lat="42.69195059349768" lon="-2.025783373471057"><ele>516.3333333333334</ele><time>2026-03-22T15:11:18.999Z</time></trkpt><trkpt lat="42.69178989321966" lon="-2.0258536419270436"><ele>512.6666666666666</ele><time>2026-03-22T15:11:19.999Z</time></trkpt><trkpt lat="42.69163329124442" lon="-2.0259444906277495"><ele>509.0</ele><time>2026-03-22T15:11:20.999Z</time></trkpt><trkpt lat="42.69148358821103" lon="-2.026055510345222"><ele>509.0</ele><time>2026-03-22T15:11:21.999Z</time></trkpt><trkpt lat="42.69134090306827" lon="-2.0261839168109197"><ele>509.0</ele><time>2026-03-22T15:11:22.999Z</time></trkpt><trkpt lat="42.69120190223642" lon="-2.026327297796782"><ele>509.0</ele><time>2026-03-22T15:11:23.999Z</time></trkpt><trkpt lat="42.69106895047925" lon="-2.0264785425283574"><ele>510.0</ele><time>2026-03-22T15:11:24.999Z</time></trkpt><trkpt lat="42.690936971813144" lon="-2.026640472774623"><ele>511.0</ele><time>2026-03-22T15:11:25.999Z</time></trkpt><trkpt lat="42.69080914979135" lon="-2.0268102230330776"><ele>512.0</ele><time>2026-03-22T15:11:26.999Z</time></trkpt><trkpt lat="42.6906824911606" lon="-2.0269855500018363"><ele>509.3333333333333</ele><time>2026-03-22T15:11:27.999Z</time></trkpt><trkpt lat="42.690558693268315" lon="-2.027159867592773"><ele>506.66666666666663</ele><time>2026-03-22T15:11:28.999Z</time></trkpt><trkpt lat="42.690442957083334" lon="-2.027328476489748"><ele>504.0</ele><time>2026-03-22T15:11:29.999Z</time></trkpt><trkpt lat="42.6903271858899" lon="-2.0274923317739235"><ele>503.33333333333337</ele><time>2026-03-22T15:11:30.998Z</time></trkpt><trkpt lat="42.69021258807612" lon="-2.0276554305582564"><ele>502.6666666666667</ele><time>2026-03-22T15:11:31.998Z</time></trkpt><trkpt lat="42.69009725693299" lon="-2.02781639860918"><ele>502.0</ele><time>2026-03-22T15:11:32.998Z</time></trkpt><trkpt lat="42.68998348799713" lon="-2.027969509488194"><ele>502.0</ele><time>2026-03-22T15:11:33.998Z</time></trkpt><trkpt lat="42.68986706093408" lon="-2.028121243337679"><ele>502.0</ele><time>2026-03-22T15:11:34.998Z</time></trkpt><trkpt lat="42.689750165787764" lon="-2.0282646519039855"><ele>502.0</ele><time>2026-03-22T15:11:35.998Z</time></trkpt><trkpt lat="42.689632414702956" lon="-2.028396622630765"><ele>499.33333333333337</ele><time>2026-03-22T15:11:36.998Z</time></trkpt><trkpt lat="42.68950577225601" lon="-2.028521746774558"><ele>496.66666666666663</ele><time>2026-03-22T15:11:37.998Z</time></trkpt><trkpt lat="42.68936564768921" lon="-2.0286331723101156"><ele>494.0</ele><time>2026-03-22T15:11:38.998Z</time></trkpt><trkpt lat="42.68921843767906" lon="-2.0287254166834754"><ele>493.0</ele><time>2026-03-22T15:11:39.998Z</time></trkpt><trkpt lat="42.689060010838524" lon="-2.028803852500099"><ele>492.0</ele><time>2026-03-22T15:11:40.998Z</time></trkpt><trkpt lat="42.688897915501485" lon="-2.028868406673212"><ele>491.0</ele><time>2026-03-22T15:11:41.998Z</time></trkpt><trkpt lat="42.68872504732117" lon="-2.0289201205291896"><ele>489.66666666666663</ele><time>2026-03-22T15:11:42.998Z</time></trkpt><trkpt lat="42.68854587367278" lon="-2.028950532882695"><ele>488.33333333333337</ele><time>2026-03-22T15:11:43.998Z</time></trkpt><trkpt lat="42.68835746845185" lon="-2.028976886090667"><ele>487.0</ele><time>2026-03-22T15:11:44.998Z</time></trkpt><trkpt lat="42.68816260000011" lon="-2.0290017267864986"><ele>487.0</ele><time>2026-03-22T15:11:45.998Z</time></trkpt><trkpt lat="42.68797518492557" lon="-2.0290266797620324"><ele>487.0</ele><time>2026-03-22T15:11:46.998Z</time></trkpt><trkpt lat="42.687781539100186" lon="-2.0290512030570094"><ele>487.0</ele><time>2026-03-22T15:11:47.998Z</time></trkpt><trkpt lat="42.687583730512394" lon="-2.029079645305104"><ele>485.6666666666667</ele><time>2026-03-22T15:11:48.998Z</time></trkpt><trkpt lat="42.68738609789321" lon="-2.0291033098279234"><ele>484.33333333333337</ele><time>2026-03-22T15:11:49.998Z</time></trkpt><trkpt lat="42.68718738539425" lon="-2.029132169556399"><ele>483.0</ele><time>2026-03-22T15:11:50.998Z</time></trkpt><trkpt lat="42.68698611585514" lon="-2.0291625694823794"><ele>481.33333333333337</ele><time>2026-03-22T15:11:51.998Z</time></trkpt><trkpt lat="42.686783194943146" lon="-2.029192299034155"><ele>479.6666666666667</ele><time>2026-03-22T15:11:52.998Z</time></trkpt><trkpt lat="42.68658011642218" lon="-2.0292222536362488"><ele>478.0</ele><time>2026-03-22T15:11:54Z</time></trkpt><trkpt lat="42.686380378674436" lon="-2.0292504818989445"><ele>478.0</ele><time>2026-03-22T15:11:55Z</time></trkpt><trkpt lat="42.68619173357209" lon="-2.029274749676494"><ele>478.0</ele><time>2026-03-22T15:11:56Z</time></trkpt><trkpt lat="42.68600798875001" lon="-2.02929523376396"><ele>478.0</ele><time>2026-03-22T15:11:57Z</time></trkpt><trkpt lat="42.68583524779722" lon="-2.0293224745683527"><ele>478.0</ele><time>2026-03-22T15:11:58Z</time></trkpt><trkpt lat="42.68566313657482" lon="-2.029360585280802"><ele>478.0</ele><time>2026-03-22T15:11:59Z</time></trkpt><trkpt lat="42.68549973507603" lon="-2.0294222298799496"><ele>478.0</ele><time>2026-03-22T15:12:00Z</time></trkpt><trkpt lat="42.68534173922847" lon="-2.0294990041245047"><ele>476.0</ele><time>2026-03-22T15:12:01Z</time></trkpt><trkpt lat="42.68518280172875" lon="-2.0295859378715897"><ele>474.0</ele><time>2026-03-22T15:12:02Z</time></trkpt><trkpt lat="42.68501533516198" lon="-2.029683783385641"><ele>472.0</ele><time>2026-03-22T15:12:03Z</time></trkpt><trkpt lat="42.68484291570758" lon="-2.0297830738227023"><ele>472.0</ele><time>2026-03-22T15:12:04Z</time></trkpt><trkpt lat="42.68466725568999" lon="-2.0298822276291215"><ele>472.0</ele><time>2026-03-22T15:12:05Z</time></trkpt><trkpt lat="42.68448575951101" lon="-2.029982723698303"><ele>472.0</ele><time>2026-03-22T15:12:06Z</time></trkpt><trkpt lat="42.68430683962512" lon="-2.0300798686331807"><ele>470.6666666666667</ele><time>2026-03-22T15:12:07Z</time></trkpt><trkpt lat="42.6841333572791" lon="-2.0301803118139023"><ele>469.33333333333337</ele><time>2026-03-22T15:12:08Z</time></trkpt><trkpt lat="42.683960370408606" lon="-2.0302855559942574"><ele>468.0</ele><time>2026-03-22T15:12:09Z</time></trkpt><trkpt lat="42.68378734433714" lon="-2.030399786104177"><ele>468.0</ele><time>2026-03-22T15:12:10Z</time></trkpt><trkpt lat="42.68361596497572" lon="-2.030521624650267"><ele>468.0</ele><time>2026-03-22T15:12:11Z</time></trkpt><trkpt lat="42.683444944402716" lon="-2.0306504818790683"><ele>468.0</ele><time>2026-03-22T15:12:12Z</time></trkpt><trkpt lat="42.68327184218845" lon="-2.0307820369851552"><ele>468.0</ele><time>2026-03-22T15:12:13Z</time></trkpt><trkpt lat="42.68309580149669" lon="-2.0309114794781635"><ele>468.0</ele><time>2026-03-22T15:12:14Z</time></trkpt><trkpt lat="42.682918291784745" lon="-2.0310408939296076"><ele>468.0</ele><time>2026-03-22T15:12:15Z</time></trkpt><trkpt lat="42.68274517614373" lon="-2.0311704672593187"><ele>467.33333333333337</ele><time>2026-03-22T15:12:16Z</time></trkpt><trkpt lat="42.68257288510998" lon="-2.0313009300274625"><ele>466.6666666666667</ele><time>2026-03-22T15:12:17Z</time></trkpt><trkpt lat="42.682401624165394" lon="-2.031426156812089"><ele>466.0</ele><time>2026-03-22T15:12:18Z</time></trkpt><trkpt lat="42.6822324461883" lon="-2.0315441533087095"><ele>465.6666666666667</ele><time>2026-03-22T15:12:19Z</time></trkpt><trkpt lat="42.68206708777356" lon="-2.0316537295770094"><ele>465.33333333333337</ele><time>2026-03-22T15:12:20Z</time></trkpt><trkpt lat="42.68190462655646" lon="-2.031745257161627"><ele>465.0</ele><time>2026-03-22T15:12:21Z</time></trkpt><trkpt lat="42.68174936119625" lon="-2.031822504107841"><ele>463.5</ele><time>2026-03-22T15:12:22Z</time></trkpt><trkpt lat="42.68161474252548" lon="-2.0318834143246174"><ele>462.0</ele><time>2026-03-22T15:12:23Z</time></trkpt><trkpt lat="42.68149801783484" lon="-2.0319440989836273"><ele>460.5</ele><time>2026-03-22T15:12:24Z</time></trkpt><trkpt lat="42.68140141958236" lon="-2.032015542126868"><ele>459.0</ele><time>2026-03-22T15:12:25Z</time></trkpt><trkpt lat="42.68131548278894" lon="-2.032072789083084"><ele>459.0</ele><time>2026-03-22T15:12:26Z</time></trkpt><trkpt lat="42.68123981985592" lon="-2.0321166822382857"><ele>459.0</ele><time>2026-03-22T15:12:27Z</time></trkpt><trkpt lat="42.68117678830071" lon="-2.032167353729339"><ele>459.0</ele><time>2026-03-22T15:12:28Z</time></trkpt><trkpt lat="42.68113017852466" lon="-2.0322344755783033"><ele>459.0</ele><time>2026-03-22T15:12:29Z</time></trkpt><trkpt lat="42.681091226418054" lon="-2.0323143800401047"><ele>459.0</ele><time>2026-03-22T15:12:30Z</time></trkpt><trkpt lat="42.68105255579291" lon="-2.032394731644514"><ele>459.0</ele><time>2026-03-22T15:12:31Z</time></trkpt><trkpt lat="42.68100866849354" lon="-2.0324634596841427"><ele>459.0</ele><time>2026-03-22T15:12:32Z</time></trkpt><trkpt lat="42.68093916583817" lon="-2.0324997807968863"><ele>458.1666666666667</ele><time>2026-03-22T15:12:33Z</time></trkpt><trkpt lat="42.680862183881636" lon="-2.032517603169966"><ele>457.33333333333337</ele><time>2026-03-22T15:12:34Z</time></trkpt><trkpt lat="42.68078540353515" lon="-2.032537570218979"><ele>456.5</ele><time>2026-03-22T15:12:35Z</time></trkpt><trkpt lat="42.68070668270684" lon="-2.0325755670390295"><ele>455.6666666666667</ele><time>2026-03-22T15:12:36Z</time></trkpt><trkpt lat="42.68062773615956" lon="-2.0326331073269333"><ele>454.83333333333337</ele><time>2026-03-22T15:12:37Z</time></trkpt><trkpt lat="42.680552562759196" lon="-2.032718154899073"><ele>454.0</ele><time>2026-03-22T15:12:38Z</time></trkpt><trkpt lat="42.680478757553516" lon="-2.0328264832466174"><ele>454.0</ele><time>2026-03-22T15:12:39Z</time></trkpt><trkpt lat="42.68039901446655" lon="-2.03295128940044"><ele>454.0</ele><time>2026-03-22T15:12:39.999Z</time></trkpt><trkpt lat="42.680311363921746" lon="-2.0330895512759652"><ele>454.0</ele><time>2026-03-22T15:12:40.999Z</time></trkpt><trkpt lat="42.68021894098308" lon="-2.0332385987287362"><ele>454.0</ele><time>2026-03-22T15:12:41.999Z</time></trkpt><trkpt lat="42.680126093184384" lon="-2.033386351083772"><ele>452.6666666666667</ele><time>2026-03-22T15:12:42.999Z</time></trkpt><trkpt lat="42.68003152600899" lon="-2.033542479095149"><ele>451.33333333333337</ele><time>2026-03-22T15:12:43.999Z</time></trkpt><trkpt lat="42.67993550907162" lon="-2.0337017368343395"><ele>450.0</ele><time>2026-03-22T15:12:44.999Z</time></trkpt><trkpt lat="42.67983872746904" lon="-2.0338674219916353"><ele>450.0</ele><time>2026-03-22T15:12:45.999Z</time></trkpt><trkpt lat="42.67974743839021" lon="-2.034030981595757"><ele>450.0</ele><time>2026-03-22T15:12:46.999Z</time></trkpt><trkpt lat="42.67966344146419" lon="-2.0341894404067715"><ele>450.0</ele><time>2026-03-22T15:12:47.999Z</time></trkpt><trkpt lat="42.67959258808896" lon="-2.0343289535537568"><ele>450.0</ele><time>2026-03-22T15:12:48.999Z</time></trkpt><trkpt lat="42.679528625766565" lon="-2.0344554365298544"><ele>449.0</ele><time>2026-03-22T15:12:49.999Z</time></trkpt><trkpt lat="42.67947636427759" lon="-2.0345614812543333"><ele>448.0</ele><time>2026-03-22T15:12:50.999Z</time></trkpt><trkpt lat="42.679431122850495" lon="-2.0346637725309558"><ele>447.0</ele><time>2026-03-22T15:12:51.999Z</time></trkpt><trkpt lat="42.679382106087694" lon="-2.0347737072408476"><ele>446.0</ele><time>2026-03-22T15:12:52.999Z</time></trkpt><trkpt lat="42.679320749954684" lon="-2.034894731713567"><ele>445.0</ele><time>2026-03-22T15:12:53.999Z</time></trkpt><trkpt lat="42.679252348484326" lon="-2.0350223769489726"><ele>444.0</ele><time>2026-03-22T15:12:54.999Z</time></trkpt><trkpt lat="42.67917870755559" lon="-2.0351564002376668"><ele>443.0</ele><time>2026-03-22T15:12:55.999Z</time></trkpt><trkpt lat="42.67909204773281" lon="-2.035288297172899"><ele>442.0</ele><time>2026-03-22T15:12:56.999Z</time></trkpt><trkpt lat="42.67898986756741" lon="-2.035403083162669"><ele>441.0</ele><time>2026-03-22T15:12:57.999Z</time></trkpt><trkpt lat="42.678881242030556" lon="-2.0355046945292603"><ele>441.0</ele><time>2026-03-22T15:12:58.999Z</time></trkpt><trkpt lat="42.67876297359936" lon="-2.035582574577084"><ele>441.0</ele><time>2026-03-22T15:12:59.999Z</time></trkpt><trkpt lat="42.67864676357027" lon="-2.0356361818484747"><ele>441.0</ele><time>2026-03-22T15:13:00.999Z</time></trkpt><trkpt lat="42.67852608019909" lon="-2.035652874017236"><ele>441.0</ele><time>2026-03-22T15:13:01.999Z</time></trkpt><trkpt lat="42.67840910204345" lon="-2.0356618588842608"><ele>441.1666666666667</ele><time>2026-03-22T15:13:02.999Z</time></trkpt><trkpt lat="42.678307155707174" lon="-2.0356563431022083"><ele>441.33333333333337</ele><time>2026-03-22T15:13:03.999Z</time></trkpt><trkpt lat="42.678222812010695" lon="-2.035651364001382"><ele>441.5</ele><time>2026-03-22T15:13:04.999Z</time></trkpt><trkpt lat="42.678154492001575" lon="-2.0356539868239727"><ele>441.6666666666667</ele><time>2026-03-22T15:13:05.999Z</time></trkpt><trkpt lat="42.67805207739555" lon="-2.0356480367862577"><ele>441.83333333333337</ele><time>2026-03-22T15:13:07.999Z</time></trkpt><trkpt lat="42.677984217083555" lon="-2.0356598861125232"><ele>442.0</ele><time>2026-03-22T15:13:09.999Z</time></trkpt><trkpt lat="42.677925093978494" lon="-2.0356938683290355"><ele>442.0</ele><time>2026-03-22T15:13:13.999Z</time></trkpt><trkpt lat="42.67805140235567" lon="-2.035862253801857"><ele>442.00000000000006</ele><time>2026-03-22T15:19:14.999Z</time></trkpt><trkpt lat="42.67808389270161" lon="-2.0357692025289236"><ele>442.00000000000006</ele><time>2026-03-22T15:19:18.999Z</time></trkpt><trkpt lat="42.678027907545726" lon="-2.035704105442823"><ele>442.0</ele><time>2026-03-22T15:19:21.999Z</time></trkpt><trkpt lat="42.67797037187094" lon="-2.035619461002441"><ele>442.0</ele><time>2026-03-22T15:19:38.999Z</time></trkpt><trkpt lat="42.677904592153794" lon="-2.0356246736150503"><ele>442.00000000000006</ele><time>2026-03-22T15:19:39.999Z</time></trkpt><trkpt lat="42.677838750807155" lon="-2.0356443477911768"><ele>442.0</ele><time>2026-03-22T15:19:40.999Z</time></trkpt><trkpt lat="42.67773209155419" lon="-2.035677529054421"><ele>442.0</ele><time>2026-03-22T15:19:42.999Z</time></trkpt><trkpt lat="42.677651845495745" lon="-2.0357066855922894"><ele>442.0</ele><time>2026-03-22T15:19:44.999Z</time></trkpt><trkpt lat="42.67753199491289" lon="-2.0357023738705204"><ele>442.00000000000006</ele><time>2026-03-22T15:19:46.999Z</time></trkpt><trkpt lat="42.67746691924982" lon="-2.035672287519693"><ele>442.0</ele><time>2026-03-22T15:19:47.999Z</time></trkpt><trkpt lat="42.6773949921934" lon="-2.0356403780290604"><ele>440.8</ele><time>2026-03-22T15:19:48.999Z</time></trkpt><trkpt lat="42.67731151965811" lon="-2.035609021340318"><ele>439.6</ele><time>2026-03-22T15:19:49.999Z</time></trkpt><trkpt lat="42.67721740277148" lon="-2.0355879683382314"><ele>438.40000000000003</ele><time>2026-03-22T15:19:50.999Z</time></trkpt><trkpt lat="42.67712004397314" lon="-2.035584442174531"><ele>437.20000000000005</ele><time>2026-03-22T15:19:51.999Z</time></trkpt><trkpt lat="42.67702382406822" lon="-2.0355876542147033"><ele>436.0</ele><time>2026-03-22T15:19:52.998Z</time></trkpt><trkpt lat="42.676937680317316" lon="-2.035589609944967"><ele>434.83333333333337</ele><time>2026-03-22T15:19:53.998Z</time></trkpt><trkpt lat="42.67684740785782" lon="-2.035585447928199"><ele>433.6666666666667</ele><time>2026-03-22T15:19:54.998Z</time></trkpt><trkpt lat="42.67678369157629" lon="-2.0355765385898663"><ele>432.5</ele><time>2026-03-22T15:19:55.998Z</time></trkpt><trkpt lat="42.67671842493694" lon="-2.035569024101532"><ele>431.33333333333337</ele><time>2026-03-22T15:19:56.998Z</time></trkpt><trkpt lat="42.67664171710875" lon="-2.0355618225841914"><ele>430.1666666666667</ele><time>2026-03-22T15:19:57.998Z</time></trkpt><trkpt lat="42.67655046482175" lon="-2.0355632703694018"><ele>429.0</ele><time>2026-03-22T15:19:58.998Z</time></trkpt><trkpt lat="42.676449399994226" lon="-2.035562400458961"><ele>429.0</ele><time>2026-03-22T15:19:59.998Z</time></trkpt><trkpt lat="42.67634397294107" lon="-2.0355562472514"><ele>429.0</ele><time>2026-03-22T15:20:00.998Z</time></trkpt><trkpt lat="42.67624458092546" lon="-2.0355538523541616"><ele>429.0</ele><time>2026-03-22T15:20:01.998Z</time></trkpt><trkpt lat="42.67615264721654" lon="-2.0355538406265756"><ele>429.0</ele><time>2026-03-22T15:20:02.998Z</time></trkpt><trkpt lat="42.67606769902308" lon="-2.035554509238217"><ele>429.0</ele><time>2026-03-22T15:20:03.998Z</time></trkpt><trkpt lat="42.67598839067056" lon="-2.0355636627967493"><ele>428.7142857142857</ele><time>2026-03-22T15:20:04.998Z</time></trkpt><trkpt lat="42.675920233063735" lon="-2.035563911086704"><ele>428.42857142857144</ele><time>2026-03-22T15:20:05.998Z</time></trkpt><trkpt lat="42.67584774589658" lon="-2.035540371034271"><ele>428.1428571428571</ele><time>2026-03-22T15:20:06.998Z</time></trkpt><trkpt lat="42.675782935220795" lon="-2.035550875649037"><ele>427.8571428571429</ele><time>2026-03-22T15:20:07.998Z</time></trkpt><trkpt lat="42.675756367815374" lon="-2.0356506676437958"><ele>427.57142857142856</ele><time>2026-03-22T15:20:08.998Z</time></trkpt><trkpt lat="42.67572306929992" lon="-2.0357243504798825"><ele>427.2857142857143</ele><time>2026-03-22T15:20:09.998Z</time></trkpt><trkpt lat="42.675683602708425" lon="-2.0358007888616156"><ele>427.0</ele><time>2026-03-22T15:20:10.998Z</time></trkpt><trkpt lat="42.67559458159045" lon="-2.035898978343424"><ele>427.00000000000006</ele><time>2026-03-22T15:20:12.998Z</time></trkpt><trkpt lat="42.675501838200354" lon="-2.0358983278594622"><ele>427.0</ele><time>2026-03-22T15:20:14.998Z</time></trkpt><trkpt lat="42.67541730790247" lon="-2.035794632889188"><ele>427.0</ele><time>2026-03-22T15:20:16.998Z</time></trkpt><trkpt lat="42.67537796217844" lon="-2.0357217775062444"><ele>427.0</ele><time>2026-03-22T15:20:18Z</time></trkpt><trkpt lat="42.675343671179434" lon="-2.035648284194618"><ele>427.00000000000006</ele><time>2026-03-22T15:20:19Z</time></trkpt><trkpt lat="42.67529916739926" lon="-2.035508382338788"><ele>427.0</ele><time>2026-03-22T15:20:21Z</time></trkpt><trkpt lat="42.67519094058872" lon="-2.035508965841081"><ele>427.33333333333337</ele><time>2026-03-22T15:20:22Z</time></trkpt><trkpt lat="42.67511524788094" lon="-2.0354892687748674"><ele>427.6666666666667</ele><time>2026-03-22T15:20:23Z</time></trkpt><trkpt lat="42.675035829471604" lon="-2.035478270197382"><ele>428.0</ele><time>2026-03-22T15:20:24Z</time></trkpt><trkpt lat="42.67495813814698" lon="-2.035473660617286"><ele>428.33333333333337</ele><time>2026-03-22T15:20:25Z</time></trkpt><trkpt lat="42.67488762714501" lon="-2.035469753758558"><ele>428.6666666666667</ele><time>2026-03-22T15:20:26Z</time></trkpt><trkpt lat="42.67479388777181" lon="-2.035464692816806"><ele>429.0</ele><time>2026-03-22T15:20:27Z</time></trkpt><trkpt lat="42.67470149969394" lon="-2.035446646855914"><ele>429.0</ele><time>2026-03-22T15:20:28Z</time></trkpt><trkpt lat="42.6746075166239" lon="-2.0354280643358775"><ele>429.0</ele><time>2026-03-22T15:20:29Z</time></trkpt><trkpt lat="42.674501933626686" lon="-2.035412891538158"><ele>429.0</ele><time>2026-03-22T15:20:30Z</time></trkpt><trkpt lat="42.67438978716229" lon="-2.0353926860532336"><ele>429.0</ele><time>2026-03-22T15:20:31Z</time></trkpt><trkpt lat="42.67427768905456" lon="-2.0353902166698346"><ele>429.0</ele><time>2026-03-22T15:20:32Z</time></trkpt><trkpt lat="42.67418464364934" lon="-2.0353806993297057"><ele>428.8333333333333</ele><time>2026-03-22T15:20:33Z</time></trkpt><trkpt lat="42.67409878147116" lon="-2.035373312260054"><ele>428.66666666666663</ele><time>2026-03-22T15:20:34Z</time></trkpt><trkpt lat="42.67401618052869" lon="-2.035372027706667"><ele>428.5</ele><time>2026-03-22T15:20:35Z</time></trkpt><trkpt lat="42.67394515411665" lon="-2.0353703076487357"><ele>428.3333333333333</ele><time>2026-03-22T15:20:36Z</time></trkpt><trkpt lat="42.67387223671988" lon="-2.035375870476832"><ele>428.16666666666663</ele><time>2026-03-22T15:20:37Z</time></trkpt><trkpt lat="42.67380856664476" lon="-2.0353941267916875"><ele>428.0</ele><time>2026-03-22T15:20:38Z</time></trkpt><trkpt lat="42.67369692029914" lon="-2.0354162118850594"><ele>428.49999999999994</ele><time>2026-03-22T15:20:40Z</time></trkpt><trkpt lat="42.673575981334395" lon="-2.0353833789597453"><ele>429.0</ele><time>2026-03-22T15:20:42Z</time></trkpt><trkpt lat="42.673504295217526" lon="-2.035360754721368"><ele>429.5</ele><time>2026-03-22T15:20:43Z</time></trkpt><trkpt lat="42.673428831858885" lon="-2.035337145616417"><ele>430.0</ele><time>2026-03-22T15:20:44Z</time></trkpt><trkpt lat="42.67334789164692" lon="-2.035316838780226"><ele>430.49999999999994</ele><time>2026-03-22T15:20:45Z</time></trkpt><trkpt lat="42.673260312178314" lon="-2.0353093456030678"><ele>431.0</ele><time>2026-03-22T15:20:46Z</time></trkpt><trkpt lat="42.67316404250658" lon="-2.035308419665696"><ele>431.0</ele><time>2026-03-22T15:20:47Z</time></trkpt><trkpt lat="42.673068450826484" lon="-2.0353086600255903"><ele>431.0</ele><time>2026-03-22T15:20:48Z</time></trkpt><trkpt lat="42.6729800742302" lon="-2.035316030800482"><ele>431.0</ele><time>2026-03-22T15:20:49Z</time></trkpt><trkpt lat="42.67288952157124" lon="-2.035332528278848"><ele>431.0</ele><time>2026-03-22T15:20:50Z</time></trkpt><trkpt lat="42.6728019403822" lon="-2.0353464954850917"><ele>431.0</ele><time>2026-03-22T15:20:51Z</time></trkpt><trkpt lat="42.67271389136605" lon="-2.035361445252118"><ele>431.3333333333333</ele><time>2026-03-22T15:20:52Z</time></trkpt><trkpt lat="42.67262904591191" lon="-2.035351079332523"><ele>431.66666666666663</ele><time>2026-03-22T15:20:53Z</time></trkpt><trkpt lat="42.672551035045004" lon="-2.035360323294937"><ele>432.0</ele><time>2026-03-22T15:20:54Z</time></trkpt><trkpt lat="42.67247837808498" lon="-2.0353660655057726"><ele>432.33333333333337</ele><time>2026-03-22T15:20:55Z</time></trkpt><trkpt lat="42.67240583032841" lon="-2.035373337334654"><ele>432.6666666666667</ele><time>2026-03-22T15:20:56Z</time></trkpt><trkpt lat="42.67229137353807" lon="-2.035408278630375"><ele>433.0</ele><time>2026-03-22T15:20:58Z</time></trkpt><trkpt lat="42.67219053430008" lon="-2.0354180596369638"><ele>433.00000000000006</ele><time>2026-03-22T15:20:59.999Z</time></trkpt><trkpt lat="42.672092036754506" lon="-2.0354601407851405"><ele>433.0</ele><time>2026-03-22T15:21:01.999Z</time></trkpt><trkpt lat="42.67202162259979" lon="-2.035471283625506"><ele>433.0</ele><time>2026-03-22T15:21:02.999Z</time></trkpt><trkpt lat="42.67194812880404" lon="-2.0354857875603427"><ele>433.0</ele><time>2026-03-22T15:21:03.999Z</time></trkpt><trkpt lat="42.67187442273874" lon="-2.035499824004272"><ele>433.00000000000006</ele><time>2026-03-22T15:21:04.999Z</time></trkpt><trkpt lat="42.67179315107982" lon="-2.0355372434936148"><ele>433.0</ele><time>2026-03-22T15:21:05.999Z</time></trkpt><trkpt lat="42.67171059407261" lon="-2.0355426606650466"><ele>432.6666666666667</ele><time>2026-03-22T15:21:06.999Z</time></trkpt><trkpt lat="42.67163101102667" lon="-2.035572362451082"><ele>432.33333333333337</ele><time>2026-03-22T15:21:07.999Z</time></trkpt><trkpt lat="42.67156009894037" lon="-2.0355852993330785"><ele>432.0</ele><time>2026-03-22T15:21:08.999Z</time></trkpt><trkpt lat="42.671496713933074" lon="-2.035596863016694"><ele>431.66666666666663</ele><time>2026-03-22T15:21:09.999Z</time></trkpt><trkpt lat="42.67143258395805" lon="-2.03559485805349"><ele>431.3333333333333</ele><time>2026-03-22T15:21:10.999Z</time></trkpt><trkpt lat="42.67133930522303" lon="-2.035621990529532"><ele>431.0</ele><time>2026-03-22T15:21:12.999Z</time></trkpt><trkpt lat="42.67126977341264" lon="-2.0356877360167833"><ele>430.99999999999994</ele><time>2026-03-22T15:21:14.999Z</time></trkpt><trkpt lat="42.67119546926871" lon="-2.0357197842797223"><ele>431.0</ele><time>2026-03-22T15:21:16.999Z</time></trkpt><trkpt lat="42.67113325820254" lon="-2.0356617565922255"><ele>431.0</ele><time>2026-03-22T15:21:18.999Z</time></trkpt><trkpt lat="42.671121962078914" lon="-2.035516678953026"><ele>431.0</ele><time>2026-03-22T15:21:20.999Z</time></trkpt><trkpt lat="42.67107822521269" lon="-2.035379426259086"><ele>430.99999999999994</ele><time>2026-03-22T15:21:22.999Z</time></trkpt><trkpt lat="42.67104161617228" lon="-2.0353030748175227"><ele>431.0</ele><time>2026-03-22T15:21:23.999Z</time></trkpt><trkpt lat="42.671006740890995" lon="-2.0352252450919566"><ele>430.16666666666663</ele><time>2026-03-22T15:21:24.999Z</time></trkpt><trkpt lat="42.670970811300904" lon="-2.0351450072955357"><ele>429.3333333333333</ele><time>2026-03-22T15:21:25.999Z</time></trkpt><trkpt lat="42.67092742139035" lon="-2.0350644848583146"><ele>428.5</ele><time>2026-03-22T15:21:26.999Z</time></trkpt><trkpt lat="42.67088415223312" lon="-2.034981326414846"><ele>427.66666666666663</ele><time>2026-03-22T15:21:27.999Z</time></trkpt><trkpt lat="42.67083974039419" lon="-2.0348951575439878"><ele>426.8333333333333</ele><time>2026-03-22T15:21:28.999Z</time></trkpt><trkpt lat="42.670800696661914" lon="-2.0348156786737457"><ele>426.0</ele><time>2026-03-22T15:21:29.999Z</time></trkpt><trkpt lat="42.670737240398886" lon="-2.034677166380548"><ele>425.8</ele><time>2026-03-22T15:21:31.999Z</time></trkpt><trkpt lat="42.6706848049586" lon="-2.0345531733835096"><ele>425.6</ele><time>2026-03-22T15:21:33.999Z</time></trkpt><trkpt lat="42.67060066301279" lon="-2.0344590584031104"><ele>425.4</ele><time>2026-03-22T15:21:35.999Z</time></trkpt><trkpt lat="42.670528654912076" lon="-2.034386435443443"><ele>425.2</ele><time>2026-03-22T15:21:37.999Z</time></trkpt><trkpt lat="42.67049702431431" lon="-2.034261449061954"><ele>425.0</ele><time>2026-03-22T15:22:02.998Z</time></trkpt><trkpt lat="42.6704322723858" lon="-2.0341306596803403"><ele>425.3333333333333</ele><time>2026-03-22T15:22:04.998Z</time></trkpt><trkpt lat="42.67039220279055" lon="-2.0340470858685618"><ele>425.66666666666663</ele><time>2026-03-22T15:22:05.998Z</time></trkpt><trkpt lat="42.67035358118602" lon="-2.0339530354714794"><ele>426.0</ele><time>2026-03-22T15:22:06.998Z</time></trkpt><trkpt lat="42.670308410747104" lon="-2.033874075489488"><ele>426.33333333333337</ele><time>2026-03-22T15:22:07.998Z</time></trkpt><trkpt lat="42.67028794595504" lon="-2.033792531509068"><ele>426.6666666666667</ele><time>2026-03-22T15:22:08.998Z</time></trkpt><trkpt lat="42.670147326482464" lon="-2.0337487010064463"><ele>427.0</ele><time>2026-03-22T15:22:10.998Z</time></trkpt><trkpt lat="42.67008333997537" lon="-2.033706160507492"><ele>426.83333333333337</ele><time>2026-03-22T15:22:11.998Z</time></trkpt><trkpt lat="42.670024821760194" lon="-2.0336551319218463"><ele>426.6666666666667</ele><time>2026-03-22T15:22:12.998Z</time></trkpt><trkpt lat="42.66997234566271" lon="-2.033583073625168"><ele>426.5</ele><time>2026-03-22T15:22:13.998Z</time></trkpt><trkpt lat="42.66992996486705" lon="-2.0334993561663057"><ele>426.33333333333337</ele><time>2026-03-22T15:22:14.998Z</time></trkpt><trkpt lat="42.669893375676516" lon="-2.033428174669388"><ele>426.1666666666667</ele><time>2026-03-22T15:22:15.998Z</time></trkpt><trkpt lat="42.669841416622184" lon="-2.0332869498789448"><ele>426.0</ele><time>2026-03-22T15:22:17.998Z</time></trkpt><trkpt lat="42.669831365468106" lon="-2.033142929225665"><ele>426.0</ele><time>2026-03-22T15:22:19.998Z</time></trkpt><trkpt lat="42.66984686930426" lon="-2.0330016153653943"><ele>426.0</ele><time>2026-03-22T15:22:21.998Z</time></trkpt><trkpt lat="42.669899930027675" lon="-2.0328625785239813"><ele>426.0</ele><time>2026-03-22T15:22:24Z</time></trkpt><trkpt lat="42.669962544884896" lon="-2.0327451652387674"><ele>426.0</ele><time>2026-03-22T15:22:26Z</time></trkpt><trkpt lat="42.66997274065704" lon="-2.0326063410851156"><ele>426.0</ele><time>2026-03-22T15:22:28Z</time></trkpt><trkpt lat="42.669913663631554" lon="-2.0324505809311555"><ele>425.8333333333333</ele><time>2026-03-22T15:22:30Z</time></trkpt><trkpt lat="42.66987350431339" lon="-2.032360170116842"><ele>425.66666666666663</ele><time>2026-03-22T15:22:31Z</time></trkpt><trkpt lat="42.669830879917434" lon="-2.0322738305794443"><ele>425.5</ele><time>2026-03-22T15:22:32Z</time></trkpt><trkpt lat="42.66978362252876" lon="-2.0321788536408616"><ele>425.3333333333333</ele><time>2026-03-22T15:22:33Z</time></trkpt><trkpt lat="42.66973760705724" lon="-2.0320777267469596"><ele>425.16666666666663</ele><time>2026-03-22T15:22:34Z</time></trkpt><trkpt lat="42.669687319554754" lon="-2.0319702073243424"><ele>425.0</ele><time>2026-03-22T15:22:35Z</time></trkpt><trkpt lat="42.669639981894086" lon="-2.0318662022966207"><ele>424.99999999999994</ele><time>2026-03-22T15:22:36Z</time></trkpt><trkpt lat="42.66959805335129" lon="-2.031771774854182"><ele>425.0</ele><time>2026-03-22T15:22:37Z</time></trkpt><trkpt lat="42.66955555836236" lon="-2.03168584314658"><ele>425.0</ele><time>2026-03-22T15:22:38Z</time></trkpt><trkpt lat="42.66951377700996" lon="-2.031597182391215"><ele>425.0</ele><time>2026-03-22T15:22:39Z</time></trkpt><trkpt lat="42.66947234815501" lon="-2.0315099835295714"><ele>424.99999999999994</ele><time>2026-03-22T15:22:40Z</time></trkpt><trkpt lat="42.66943531733905" lon="-2.0314206410090176"><ele>425.0</ele><time>2026-03-22T15:22:41Z</time></trkpt><trkpt lat="42.66939911853325" lon="-2.031324933426727"><ele>424.99999999999994</ele><time>2026-03-22T15:22:42Z</time></trkpt><trkpt lat="42.66935992053959" lon="-2.0312288930573588"><ele>425.0</ele><time>2026-03-22T15:22:43Z</time></trkpt><trkpt lat="42.669323467334166" lon="-2.031138302649283"><ele>425.0</ele><time>2026-03-22T15:22:44Z</time></trkpt><trkpt lat="42.66928629946135" lon="-2.03105607822939"><ele>425.0</ele><time>2026-03-22T15:22:45Z</time></trkpt><trkpt lat="42.66923542775926" lon="-2.0309864618958793"><ele>424.99999999999994</ele><time>2026-03-22T15:22:46Z</time></trkpt><trkpt lat="42.66919876572396" lon="-2.030908397558111"><ele>425.0</ele><time>2026-03-22T15:22:47Z</time></trkpt><trkpt lat="42.66914318928423" lon="-2.030772072193113"><ele>424.99999999999994</ele><time>2026-03-22T15:22:49Z</time></trkpt><trkpt lat="42.66904344362446" lon="-2.030710624277849"><ele>425.0</ele><time>2026-03-22T15:22:51Z</time></trkpt><trkpt lat="42.668977272749906" lon="-2.0307045469004725"><ele>425.0</ele><time>2026-03-22T15:22:52Z</time></trkpt><trkpt lat="42.66890019993646" lon="-2.0307123237698996"><ele>425.0</ele><time>2026-03-22T15:22:53Z</time></trkpt><trkpt lat="42.668822167644066" lon="-2.0307336672918996"><ele>424.99999999999994</ele><time>2026-03-22T15:22:54Z</time></trkpt><trkpt lat="42.66874907010459" lon="-2.0307685381768086"><ele>425.0</ele><time>2026-03-22T15:22:55Z</time></trkpt><trkpt lat="42.66868360556935" lon="-2.030815588376251"><ele>424.99999999999994</ele><time>2026-03-22T15:22:56Z</time></trkpt><trkpt lat="42.66862925791275" lon="-2.030871478852673"><ele>425.0</ele><time>2026-03-22T15:22:57Z</time></trkpt><trkpt lat="42.66852338374204" lon="-2.030962877701306"><ele>425.0</ele><time>2026-03-22T15:22:59Z</time></trkpt><trkpt lat="42.6684761494283" lon="-2.031031234589273"><ele>425.0</ele><time>2026-03-22T15:23:00Z</time></trkpt><trkpt lat="42.66841567503762" lon="-2.0310902309249563"><ele>424.99999999999994</ele><time>2026-03-22T15:23:01Z</time></trkpt><trkpt lat="42.668348484463436" lon="-2.0311531814931785"><ele>425.0</ele><time>2026-03-22T15:23:02Z</time></trkpt><trkpt lat="42.6682747878222" lon="-2.0312167178630034"><ele>425.0</ele><time>2026-03-22T15:23:03Z</time></trkpt><trkpt lat="42.66819138131181" lon="-2.0312744045121423"><ele>425.0</ele><time>2026-03-22T15:23:04Z</time></trkpt><trkpt lat="42.668103911438266" lon="-2.031327180039009"><ele>425.0</ele><time>2026-03-22T15:23:04.999Z</time></trkpt><trkpt lat="42.66801877872255" lon="-2.0313751936306823"><ele>425.0</ele><time>2026-03-22T15:23:05.999Z</time></trkpt><trkpt lat="42.667929275112286" lon="-2.031420216634956"><ele>425.0</ele><time>2026-03-22T15:23:06.999Z</time></trkpt><trkpt lat="42.66783918391978" lon="-2.031452689156138"><ele>425.49999999999994</ele><time>2026-03-22T15:23:07.999Z</time></trkpt><trkpt lat="42.66775116923261" lon="-2.0314980893868593"><ele>426.0</ele><time>2026-03-22T15:23:08.999Z</time></trkpt><trkpt lat="42.66767151815242" lon="-2.0315380016865725"><ele>426.5</ele><time>2026-03-22T15:23:09.999Z</time></trkpt><trkpt lat="42.66760327055052" lon="-2.0315792975892935"><ele>427.0</ele><time>2026-03-22T15:23:10.999Z</time></trkpt><trkpt lat="42.667529930205426" lon="-2.0316131851863375"><ele>427.49999999999994</ele><time>2026-03-22T15:23:11.999Z</time></trkpt><trkpt lat="42.66745338796306" lon="-2.0316719971080524"><ele>428.0</ele><time>2026-03-22T15:23:12.999Z</time></trkpt><trkpt lat="42.6673662443116" lon="-2.0317124804637774"><ele>428.0</ele><time>2026-03-22T15:23:13.999Z</time></trkpt><trkpt lat="42.667268948307694" lon="-2.0317508556685606"><ele>427.99999999999994</ele><time>2026-03-22T15:23:14.999Z</time></trkpt><trkpt lat="42.66717281553395" lon="-2.0317971410864937"><ele>427.99999999999994</ele><time>2026-03-22T15:23:15.999Z</time></trkpt><trkpt lat="42.6670779162671" lon="-2.0318653975712917"><ele>428.0</ele><time>2026-03-22T15:23:16.999Z</time></trkpt><trkpt lat="42.666985175421104" lon="-2.031893661076695"><ele>428.0</ele><time>2026-03-22T15:23:17.999Z</time></trkpt><trkpt lat="42.66690660885916" lon="-2.031961579799273"><ele>429.16666666666663</ele><time>2026-03-22T15:23:18.999Z</time></trkpt><trkpt lat="42.666831759272284" lon="-2.031988226754932"><ele>430.3333333333333</ele><time>2026-03-22T15:23:19.999Z</time></trkpt><trkpt lat="42.666781303692794" lon="-2.0320460835957803"><ele>431.5</ele><time>2026-03-22T15:23:20.999Z</time></trkpt><trkpt lat="42.666698435213135" lon="-2.0320930364186114"><ele>432.66666666666663</ele><time>2026-03-22T15:23:22.999Z</time></trkpt><trkpt lat="42.6665968976098" lon="-2.032150566901183"><ele>433.8333333333333</ele><time>2026-03-22T15:23:24.999Z</time></trkpt><trkpt lat="42.66653846231173" lon="-2.0321836759255656"><ele>435.0</ele><time>2026-03-22T15:23:25.999Z</time></trkpt><trkpt lat="42.66643766532048" lon="-2.032087845394779"><ele>435.0</ele><time>2026-03-22T15:23:26.999Z</time></trkpt><trkpt lat="42.66635647046004" lon="-2.0320690157495513"><ele>435.0</ele><time>2026-03-22T15:23:27.999Z</time></trkpt><trkpt lat="42.66627188389436" lon="-2.0320444879812327"><ele>435.0</ele><time>2026-03-22T15:23:28.999Z</time></trkpt><trkpt lat="42.66617522680725" lon="-2.0320328033025774"><ele>435.0</ele><time>2026-03-22T15:23:29.999Z</time></trkpt><trkpt lat="42.666070130064575" lon="-2.0320300423536892"><ele>435.0</ele><time>2026-03-22T15:23:30.999Z</time></trkpt><trkpt lat="42.665964803117625" lon="-2.0320246214796693"><ele>435.2</ele><time>2026-03-22T15:23:31.999Z</time></trkpt><trkpt lat="42.66585242690167" lon="-2.0320359638253365"><ele>435.4</ele><time>2026-03-22T15:23:32.999Z</time></trkpt><trkpt lat="42.66573847793246" lon="-2.0320453002681207"><ele>435.6</ele><time>2026-03-22T15:23:33.999Z</time></trkpt><trkpt lat="42.66563421127756" lon="-2.032051690719264"><ele>435.8</ele><time>2026-03-22T15:23:34.999Z</time></trkpt><trkpt lat="42.665531715768424" lon="-2.032100895862964"><ele>436.0</ele><time>2026-03-22T15:23:35.999Z</time></trkpt><trkpt lat="42.66542797376654" lon="-2.0321179215731133"><ele>436.0</ele><time>2026-03-22T15:23:36.999Z</time></trkpt><trkpt lat="42.66531976725154" lon="-2.0320769160150527"><ele>436.0</ele><time>2026-03-22T15:23:37.999Z</time></trkpt><trkpt lat="42.665210784258925" lon="-2.032091266559154"><ele>436.0</ele><time>2026-03-22T15:23:38.999Z</time></trkpt><trkpt lat="42.6651033568254" lon="-2.032115582905688"><ele>436.0</ele><time>2026-03-22T15:23:39.999Z</time></trkpt><trkpt lat="42.66499603596987" lon="-2.032151738616276"><ele>436.0</ele><time>2026-03-22T15:23:40.999Z</time></trkpt><trkpt lat="42.66489333819898" lon="-2.0321892013902016"><ele>436.00000000000006</ele><time>2026-03-22T15:23:41.999Z</time></trkpt><trkpt lat="42.664799048075025" lon="-2.0322213013274455"><ele>436.0</ele><time>2026-03-22T15:23:42.999Z</time></trkpt><trkpt lat="42.66471742205826" lon="-2.032248223148599"><ele>436.0</ele><time>2026-03-22T15:23:43.999Z</time></trkpt><trkpt lat="42.664645301817956" lon="-2.0322682903296525"><ele>436.0</ele><time>2026-03-22T15:23:44.999Z</time></trkpt><trkpt lat="42.664557211731776" lon="-2.032320551972089"><ele>436.00000000000006</ele><time>2026-03-22T15:23:46.999Z</time></trkpt><trkpt lat="42.664524457514915" lon="-2.032394016789507"><ele>436.0</ele><time>2026-03-22T15:23:48.999Z</time></trkpt><trkpt lat="42.664530711817356" lon="-2.032500708204922"><ele>436.50000000000006</ele><time>2026-03-22T15:23:51.999Z</time></trkpt><trkpt lat="42.664528864645526" lon="-2.032602225078213"><ele>437.0</ele><time>2026-03-22T15:23:54.999Z</time></trkpt><trkpt lat="42.664552783088844" lon="-2.032692268067769"><ele>437.5</ele><time>2026-03-22T15:24:10.998Z</time></trkpt><trkpt lat="42.66444379448101" lon="-2.0327232204625587"><ele>438.0</ele><time>2026-03-22T15:24:12.998Z</time></trkpt><trkpt lat="42.66437505986263" lon="-2.0327751035523622"><ele>438.50000000000006</ele><time>2026-03-22T15:24:15.998Z</time></trkpt><trkpt lat="42.66431913242782" lon="-2.0328173193770525"><ele>439.0</ele><time>2026-03-22T15:24:18.998Z</time></trkpt><trkpt lat="42.66427335949406" lon="-2.032999573233805"><ele>439.0</ele><time>2026-03-22T15:24:21.998Z</time></trkpt><trkpt lat="42.664274542229066" lon="-2.0329079504797787"><ele>439.0</ele><time>2026-03-22T15:36:31.999Z</time></trkpt><trkpt lat="42.664331835160255" lon="-2.033051256474583"><ele>439.0</ele><time>2026-03-22T15:43:29Z</time></trkpt><trkpt lat="42.664288355050836" lon="-2.03316487794478"><ele>439.0</ele><time>2026-03-22T15:43:31Z</time></trkpt><trkpt lat="42.66423146062431" lon="-2.033279055443406"><ele>439.0</ele><time>2026-03-22T15:43:33Z</time></trkpt><trkpt lat="42.664147404753855" lon="-2.033211239737424"><ele>439.0</ele><time>2026-03-22T15:43:35Z</time></trkpt><trkpt lat="42.66407479009249" lon="-2.033200905749861"><ele>439.0</ele><time>2026-03-22T15:43:40Z</time></trkpt><trkpt lat="42.66399211078501" lon="-2.0329882047563923"><ele>439.0</ele><time>2026-03-22T15:43:41Z</time></trkpt><trkpt lat="42.66393024632952" lon="-2.0329250472250067"><ele>439.0</ele><time>2026-03-22T15:43:44Z</time></trkpt><trkpt lat="42.66382437963932" lon="-2.032849328492363"><ele>439.0</ele><time>2026-03-22T15:43:46Z</time></trkpt><trkpt lat="42.66375628447248" lon="-2.03281935978031"><ele>439.00000000000006</ele><time>2026-03-22T15:43:47Z</time></trkpt><trkpt lat="42.66368026763729" lon="-2.0327996856050774"><ele>439.0</ele><time>2026-03-22T15:43:48Z</time></trkpt><trkpt lat="42.66359831649303" lon="-2.032801267725813"><ele>439.0</ele><time>2026-03-22T15:43:49Z</time></trkpt><trkpt lat="42.663513625491774" lon="-2.032809580711132"><ele>439.0</ele><time>2026-03-22T15:43:50Z</time></trkpt><trkpt lat="42.66342461050654" lon="-2.032828711228828"><ele>439.00000000000006</ele><time>2026-03-22T15:43:51Z</time></trkpt><trkpt lat="42.66331708996273" lon="-2.0328623966167685"><ele>439.0</ele><time>2026-03-22T15:43:52Z</time></trkpt><trkpt lat="42.66319784044699" lon="-2.032905572246721"><ele>440.25</ele><time>2026-03-22T15:43:53Z</time></trkpt><trkpt lat="42.663073167333025" lon="-2.0329496585586098"><ele>441.5</ele><time>2026-03-22T15:43:54Z</time></trkpt><trkpt lat="42.66295004566741" lon="-2.0329965807117145"><ele>442.75</ele><time>2026-03-22T15:43:55Z</time></trkpt><trkpt lat="42.66281496344142" lon="-2.0330613776844806"><ele>444.0</ele><time>2026-03-22T15:43:56Z</time></trkpt><trkpt lat="42.66267112547661" lon="-2.033125382800962"><ele>445.0</ele><time>2026-03-22T15:43:57Z</time></trkpt><trkpt lat="42.66252802474253" lon="-2.033194704109318"><ele>446.0</ele><time>2026-03-22T15:43:58Z</time></trkpt><trkpt lat="42.662391147647696" lon="-2.033260670060014"><ele>447.0</ele><time>2026-03-22T15:43:59Z</time></trkpt><trkpt lat="42.66225450641082" lon="-2.033322413226716"><ele>448.0</ele><time>2026-03-22T15:44:00Z</time></trkpt><trkpt lat="42.662131136043655" lon="-2.033383818339157"><ele>448.2</ele><time>2026-03-22T15:44:01Z</time></trkpt><trkpt lat="42.6620227872956" lon="-2.033434513186047"><ele>448.4</ele><time>2026-03-22T15:44:02Z</time></trkpt><trkpt lat="42.661932984759844" lon="-2.033478643251144"><ele>448.59999999999997</ele><time>2026-03-22T15:44:03Z</time></trkpt><trkpt lat="42.66185785181471" lon="-2.0335224022007714"><ele>448.79999999999995</ele><time>2026-03-22T15:44:04Z</time></trkpt><trkpt lat="42.661797043872355" lon="-2.0335758027464497"><ele>449.0</ele><time>2026-03-22T15:44:05Z</time></trkpt><trkpt lat="42.66172518841878" lon="-2.03371456190495"><ele>449.79999999999995</ele><time>2026-03-22T15:44:06.999Z</time></trkpt><trkpt lat="42.66167308132004" lon="-2.0337839880563506"><ele>450.59999999999997</ele><time>2026-03-22T15:44:07.999Z</time></trkpt><trkpt lat="42.66159258464483" lon="-2.0338436710152106"><ele>451.4</ele><time>2026-03-22T15:44:08.999Z</time></trkpt><trkpt lat="42.661486032715956" lon="-2.033880917960567"><ele>452.2</ele><time>2026-03-22T15:44:09.999Z</time></trkpt><trkpt lat="42.66137130140675" lon="-2.033911635056363"><ele>453.0</ele><time>2026-03-22T15:44:10.999Z</time></trkpt><trkpt lat="42.66125149399022" lon="-2.033954206255862"><ele>453.0</ele><time>2026-03-22T15:44:11.999Z</time></trkpt><trkpt lat="42.661132596133854" lon="-2.034001764586326"><ele>452.99999999999994</ele><time>2026-03-22T15:44:12.999Z</time></trkpt><trkpt lat="42.661021397632354" lon="-2.034036821208999"><ele>452.99999999999994</ele><time>2026-03-22T15:44:13.999Z</time></trkpt><trkpt lat="42.66091677982603" lon="-2.0340504552574377"><ele>453.0</ele><time>2026-03-22T15:44:14.999Z</time></trkpt><trkpt lat="42.660829251122934" lon="-2.0340423635210043"><ele>453.0</ele><time>2026-03-22T15:44:15.999Z</time></trkpt><trkpt lat="42.660754104945305" lon="-2.034002303272703"><ele>454.4</ele><time>2026-03-22T15:44:16.999Z</time></trkpt><trkpt lat="42.66070004945168" lon="-2.0339069704396224"><ele>455.79999999999995</ele><time>2026-03-22T15:44:17.999Z</time></trkpt><trkpt lat="42.66059717677722" lon="-2.0339027971775883"><ele>457.2</ele><time>2026-03-22T15:44:18.999Z</time></trkpt><trkpt lat="42.660501713208326" lon="-2.0339039026891585"><ele>458.6</ele><time>2026-03-22T15:44:19.999Z</time></trkpt><trkpt lat="42.66040436933822" lon="-2.033922304666437"><ele>460.0</ele><time>2026-03-22T15:44:20.999Z</time></trkpt><trkpt lat="42.6603003338663" lon="-2.0339488990615204"><ele>461.75</ele><time>2026-03-22T15:44:21.999Z</time></trkpt><trkpt lat="42.66018921060532" lon="-2.0339832362305166"><ele>463.5</ele><time>2026-03-22T15:44:22.999Z</time></trkpt><trkpt lat="42.660071248630935" lon="-2.0340197145503383"><ele>465.25</ele><time>2026-03-22T15:44:23.999Z</time></trkpt><trkpt lat="42.659950813690294" lon="-2.0340690882292183"><ele>467.0</ele><time>2026-03-22T15:44:24.999Z</time></trkpt><trkpt lat="42.65982742778914" lon="-2.0341634606763423"><ele>467.0</ele><time>2026-03-22T15:44:25.999Z</time></trkpt><trkpt lat="42.659715386279736" lon="-2.034288851881137"><ele>467.0</ele><time>2026-03-22T15:44:26.999Z</time></trkpt><trkpt lat="42.65961727269842" lon="-2.0344391606505727"><ele>467.0</ele><time>2026-03-22T15:44:27.999Z</time></trkpt><trkpt lat="42.6595270483831" lon="-2.034599613198144"><ele>467.0</ele><time>2026-03-22T15:44:28.999Z</time></trkpt><trkpt lat="42.65944457129054" lon="-2.0347742502077133"><ele>468.25</ele><time>2026-03-22T15:44:29.999Z</time></trkpt><trkpt lat="42.65937117985157" lon="-2.034938661604501"><ele>469.5</ele><time>2026-03-22T15:44:30.999Z</time></trkpt><trkpt lat="42.659307757022994" lon="-2.0350800415629364"><ele>470.75</ele><time>2026-03-22T15:44:31.999Z</time></trkpt><trkpt lat="42.65925181238378" lon="-2.0352141504601327"><ele>472.0</ele><time>2026-03-22T15:44:32.999Z</time></trkpt><trkpt lat="42.6591925546126" lon="-2.0353256411414327"><ele>472.20000000000005</ele><time>2026-03-22T15:44:33.999Z</time></trkpt><trkpt lat="42.659132773284256" lon="-2.035414028172966"><ele>472.40000000000003</ele><time>2026-03-22T15:44:34.999Z</time></trkpt><trkpt lat="42.65906981390167" lon="-2.035497746688955"><ele>472.59999999999997</ele><time>2026-03-22T15:44:35.999Z</time></trkpt><trkpt lat="42.65900095264572" lon="-2.0355805698129785"><ele>472.79999999999995</ele><time>2026-03-22T15:44:36.999Z</time></trkpt><trkpt lat="42.658926348744934" lon="-2.0356615104478233"><ele>473.0</ele><time>2026-03-22T15:44:37.999Z</time></trkpt><trkpt lat="42.65884370568192" lon="-2.035741177015405"><ele>474.2</ele><time>2026-03-22T15:44:38.999Z</time></trkpt><trkpt lat="42.65877000067946" lon="-2.035827774876781"><ele>475.4</ele><time>2026-03-22T15:44:39.999Z</time></trkpt><trkpt lat="42.658700818402686" lon="-2.035921883026244"><ele>476.59999999999997</ele><time>2026-03-22T15:44:40.999Z</time></trkpt><trkpt lat="42.65862237739202" lon="-2.0360115140127943"><ele>477.79999999999995</ele><time>2026-03-22T15:44:41.999Z</time></trkpt><trkpt lat="42.65853633245966" lon="-2.036093497509113"><ele>479.0</ele><time>2026-03-22T15:44:42.999Z</time></trkpt><trkpt lat="42.65844998498775" lon="-2.036173671413572"><ele>479.16666666666663</ele><time>2026-03-22T15:44:43.999Z</time></trkpt><trkpt lat="42.65837778850218" lon="-2.036254731895177"><ele>479.3333333333333</ele><time>2026-03-22T15:44:44.999Z</time></trkpt><trkpt lat="42.65832298506141" lon="-2.036339864539003"><ele>479.5</ele><time>2026-03-22T15:44:45.999Z</time></trkpt><trkpt lat="42.658274216219006" lon="-2.036396273541124"><ele>479.66666666666663</ele><time>2026-03-22T15:44:46.999Z</time></trkpt><trkpt lat="42.65818580301817" lon="-2.036468043215904"><ele>479.8333333333333</ele><time>2026-03-22T15:45:54Z</time></trkpt><trkpt lat="42.6581277936318" lon="-2.036504207471079"><ele>480.0</ele><time>2026-03-22T15:45:55Z</time></trkpt><trkpt lat="42.65805690826947" lon="-2.0365619953427405"><ele>480.4</ele><time>2026-03-22T15:45:56Z</time></trkpt><trkpt lat="42.65797458680911" lon="-2.036642869581478"><ele>480.8</ele><time>2026-03-22T15:45:57Z</time></trkpt><trkpt lat="42.65788648384823" lon="-2.0367282849820554"><ele>481.20000000000005</ele><time>2026-03-22T15:45:58Z</time></trkpt><trkpt lat="42.6577930104722" lon="-2.036811778624166"><ele>481.6</ele><time>2026-03-22T15:45:59Z</time></trkpt><trkpt lat="42.65769123654279" lon="-2.0368993823380634"><ele>482.0</ele><time>2026-03-22T15:46:00Z</time></trkpt><trkpt lat="42.65758797281777" lon="-2.037003022395591"><ele>482.0</ele><time>2026-03-22T15:46:01Z</time></trkpt><trkpt lat="42.65748803285932" lon="-2.0371054359164327"><ele>482.0</ele><time>2026-03-22T15:46:02Z</time></trkpt><trkpt lat="42.65739568638734" lon="-2.0372012457134416"><ele>482.0</ele><time>2026-03-22T15:46:03Z</time></trkpt><trkpt lat="42.65730760053713" lon="-2.037287209525965"><ele>482.0</ele><time>2026-03-22T15:46:04Z</time></trkpt><trkpt lat="42.65722442024041" lon="-2.0373673949414384"><ele>481.99999999999994</ele><time>2026-03-22T15:46:05Z</time></trkpt><trkpt lat="42.657143309572746" lon="-2.037445705150718"><ele>482.0</ele><time>2026-03-22T15:46:06Z</time></trkpt><trkpt lat="42.65706834980384" lon="-2.0375175675145765"><ele>482.0</ele><time>2026-03-22T15:46:07Z</time></trkpt><trkpt lat="42.65699992418828" lon="-2.0375870691653564"><ele>482.0</ele><time>2026-03-22T15:46:08Z</time></trkpt><trkpt lat="42.65693670801003" lon="-2.037650648087321"><ele>481.99999999999994</ele><time>2026-03-22T15:46:08.999Z</time></trkpt><trkpt lat="42.65687663579955" lon="-2.0377096406088797"><ele>482.0</ele><time>2026-03-22T15:46:09.999Z</time></trkpt><trkpt lat="42.65681942139583" lon="-2.037762615731753"><ele>482.8</ele><time>2026-03-22T15:46:10.999Z</time></trkpt><trkpt lat="42.65672698601411" lon="-2.0378528814586905"><ele>483.6</ele><time>2026-03-22T15:46:12.999Z</time></trkpt><trkpt lat="42.65665511568538" lon="-2.037941459320435"><ele>484.40000000000003</ele><time>2026-03-22T15:46:14.999Z</time></trkpt><trkpt lat="42.65656187805222" lon="-2.0380286966676606"><ele>485.20000000000005</ele><time>2026-03-22T15:46:16.999Z</time></trkpt><trkpt lat="42.65650655916798" lon="-2.038106655954131"><ele>486.0</ele><time>2026-03-22T15:46:17.999Z</time></trkpt><trkpt lat="42.65642867071416" lon="-2.038154396269731"><ele>486.0</ele><time>2026-03-22T15:46:18.999Z</time></trkpt><trkpt lat="42.65634365413568" lon="-2.0382207913955384"><ele>486.0</ele><time>2026-03-22T15:46:19.999Z</time></trkpt><trkpt lat="42.65624914015234" lon="-2.038305808764881"><ele>486.0</ele><time>2026-03-22T15:46:20.999Z</time></trkpt><trkpt lat="42.65614476391444" lon="-2.038404548278126"><ele>486.0</ele><time>2026-03-22T15:46:21.999Z</time></trkpt><trkpt lat="42.65604076432612" lon="-2.0384952968339705"><ele>487.0</ele><time>2026-03-22T15:46:22.999Z</time></trkpt><trkpt lat="42.655928431150606" lon="-2.0385819841195016"><ele>488.0</ele><time>2026-03-22T15:46:23.999Z</time></trkpt><trkpt lat="42.65582060260475" lon="-2.0386913631098853"><ele>489.0</ele><time>2026-03-22T15:46:24.999Z</time></trkpt><trkpt lat="42.65571581592263" lon="-2.038800373324883"><ele>490.0</ele><time>2026-03-22T15:46:25.999Z</time></trkpt><trkpt lat="42.65562503332498" lon="-2.0389043290610642"><ele>490.0</ele><time>2026-03-22T15:46:26.999Z</time></trkpt><trkpt lat="42.655543586758625" lon="-2.0390125808291835"><ele>490.0</ele><time>2026-03-22T15:46:27.999Z</time></trkpt><trkpt lat="42.6554638309195" lon="-2.039131332479565"><ele>490.0</ele><time>2026-03-22T15:46:28.999Z</time></trkpt><trkpt lat="42.65538206546214" lon="-2.0392619050699823"><ele>490.0</ele><time>2026-03-22T15:46:29.999Z</time></trkpt><trkpt lat="42.65529797303431" lon="-2.039397008697657"><ele>490.0</ele><time>2026-03-22T15:46:30.999Z</time></trkpt><trkpt lat="42.65521764809951" lon="-2.039526191143138"><ele>490.0</ele><time>2026-03-22T15:46:31.999Z</time></trkpt><trkpt lat="42.65514097479775" lon="-2.0396502507909524"><ele>490.0</ele><time>2026-03-22T15:46:32.999Z</time></trkpt><trkpt lat="42.65506861254723" lon="-2.0397724280793335"><ele>490.0</ele><time>2026-03-22T15:46:33.999Z</time></trkpt><trkpt lat="42.654999529704355" lon="-2.0398846915437012"><ele>490.5</ele><time>2026-03-22T15:46:34.999Z</time></trkpt><trkpt lat="42.65492214582906" lon="-2.040001924704259"><ele>491.0</ele><time>2026-03-22T15:46:35.999Z</time></trkpt><trkpt lat="42.65484062969683" lon="-2.0401306030228152"><ele>491.5</ele><time>2026-03-22T15:46:36.999Z</time></trkpt><trkpt lat="42.65475469402536" lon="-2.0402737959209216"><ele>492.0</ele><time>2026-03-22T15:46:37.999Z</time></trkpt><trkpt lat="42.65466156887722" lon="-2.040421953934742"><ele>492.0</ele><time>2026-03-22T15:46:38.999Z</time></trkpt><trkpt lat="42.65456298503036" lon="-2.040570438844703"><ele>492.0</ele><time>2026-03-22T15:46:39.999Z</time></trkpt><trkpt lat="42.65446399959299" lon="-2.040716563751509"><ele>492.0</ele><time>2026-03-22T15:46:40.999Z</time></trkpt><trkpt lat="42.65436901883127" lon="-2.0408698114787422"><ele>492.0</ele><time>2026-03-22T15:46:41.999Z</time></trkpt><trkpt lat="42.654275863988275" lon="-2.04101961837262"><ele>491.25</ele><time>2026-03-22T15:46:42.999Z</time></trkpt><trkpt lat="42.654185513429596" lon="-2.0411602280496908"><ele>490.5</ele><time>2026-03-22T15:46:43.999Z</time></trkpt><trkpt lat="42.65409877917139" lon="-2.0412924991677537"><ele>489.75</ele><time>2026-03-22T15:46:44.999Z</time></trkpt><trkpt lat="42.65402404478974" lon="-2.041414523852893"><ele>489.0</ele><time>2026-03-22T15:46:45.999Z</time></trkpt><trkpt lat="42.653954109700464" lon="-2.041530377455567"><ele>488.75</ele><time>2026-03-22T15:46:46.999Z</time></trkpt><trkpt lat="42.65387881858457" lon="-2.041642896950736"><ele>488.5</ele><time>2026-03-22T15:46:47.999Z</time></trkpt><trkpt lat="42.65380518021076" lon="-2.041754599956166"><ele>488.25</ele><time>2026-03-22T15:46:48.999Z</time></trkpt><trkpt lat="42.65373058506658" lon="-2.0418672050157456"><ele>488.0</ele><time>2026-03-22T15:46:49.999Z</time></trkpt><trkpt lat="42.65365738999798" lon="-2.0419906554224667"><ele>488.75</ele><time>2026-03-22T15:46:50.999Z</time></trkpt><trkpt lat="42.65357888889925" lon="-2.042121933039868"><ele>489.5</ele><time>2026-03-22T15:46:51.999Z</time></trkpt><trkpt lat="42.65349731820398" lon="-2.0422543325353693"><ele>490.25</ele><time>2026-03-22T15:46:52.999Z</time></trkpt><trkpt lat="42.65341588829971" lon="-2.042391042099425"><ele>491.0</ele><time>2026-03-22T15:46:53.999Z</time></trkpt><trkpt lat="42.653337728348106" lon="-2.0425296326339617"><ele>491.0</ele><time>2026-03-22T15:46:54.999Z</time></trkpt><trkpt lat="42.65326334403671" lon="-2.0426727461749934"><ele>491.0</ele><time>2026-03-22T15:46:55.999Z</time></trkpt><trkpt lat="42.65318718796638" lon="-2.0428167116394746"><ele>491.0</ele><time>2026-03-22T15:46:56.999Z</time></trkpt><trkpt lat="42.65310118882645" lon="-2.042968326349465"><ele>491.0</ele><time>2026-03-22T15:46:57.999Z</time></trkpt><trkpt lat="42.65300912622922" lon="-2.0431309163519726"><ele>491.3333333333333</ele><time>2026-03-22T15:46:58.999Z</time></trkpt><trkpt lat="42.652909626856854" lon="-2.0433167069502702"><ele>491.66666666666663</ele><time>2026-03-22T15:46:59.999Z</time></trkpt><trkpt lat="42.65279909314531" lon="-2.043520389804278"><ele>492.0</ele><time>2026-03-22T15:47:00.999Z</time></trkpt><trkpt lat="42.65267364749816" lon="-2.0437530199338227"><ele>493.5</ele><time>2026-03-22T15:47:01.999Z</time></trkpt><trkpt lat="42.65253401151742" lon="-2.0440074376410515"><ele>495.0</ele><time>2026-03-22T15:47:02.999Z</time></trkpt><trkpt lat="42.65238613952373" lon="-2.044272630386243"><ele>497.0</ele><time>2026-03-22T15:47:03.999Z</time></trkpt><trkpt lat="42.65224458026501" lon="-2.044526894278729"><ele>499.0</ele><time>2026-03-22T15:47:04.999Z</time></trkpt><trkpt lat="42.652096688192955" lon="-2.0447986077806792"><ele>503.0</ele><time>2026-03-22T15:47:05.999Z</time></trkpt><trkpt lat="42.651948722897394" lon="-2.045071027503543"><ele>507.0</ele><time>2026-03-22T15:47:06.999Z</time></trkpt><trkpt lat="42.651802136695906" lon="-2.045339474985933"><ele>507.0</ele><time>2026-03-22T15:47:07.999Z</time></trkpt><trkpt lat="42.65165569860655" lon="-2.045605840495515"><ele>507.0</ele><time>2026-03-22T15:47:08.999Z</time></trkpt><trkpt lat="42.651509002951045" lon="-2.0458713142232843"><ele>511.0</ele><time>2026-03-22T15:47:09.998Z</time></trkpt><trkpt lat="42.65135796388845" lon="-2.0461435099904723"><ele>515.0</ele><time>2026-03-22T15:47:10.998Z</time></trkpt><trkpt lat="42.65119994015987" lon="-2.0464166711521474"><ele>519.5</ele><time>2026-03-22T15:47:11.998Z</time></trkpt><trkpt lat="42.65103332280086" lon="-2.046687539678823"><ele>524.0</ele><time>2026-03-22T15:47:12.998Z</time></trkpt><trkpt lat="42.65085289182324" lon="-2.0469561385417983"><ele>524.0</ele><time>2026-03-22T15:47:13.998Z</time></trkpt><trkpt lat="42.65066379111872" lon="-2.0472302964096336"><ele>524.0</ele><time>2026-03-22T15:47:14.998Z</time></trkpt><trkpt lat="42.65047323916141" lon="-2.0475092466703257"><ele>525.5</ele><time>2026-03-22T15:47:15.998Z</time></trkpt><trkpt lat="42.650277172994265" lon="-2.047800903267642"><ele>527.0</ele><time>2026-03-22T15:47:16.998Z</time></trkpt><trkpt lat="42.650086058264975" lon="-2.0480945775114314"><ele>527.5</ele><time>2026-03-22T15:47:17.998Z</time></trkpt><trkpt lat="42.64989357894327" lon="-2.04837787936668"><ele>528.0</ele><time>2026-03-22T15:47:18.998Z</time></trkpt><trkpt lat="42.64970063545108" lon="-2.0486553456945287"><ele>528.0</ele><time>2026-03-22T15:47:19.998Z</time></trkpt><trkpt lat="42.64951919480716" lon="-2.048912355887258"><ele>528.0</ele><time>2026-03-22T15:47:20.998Z</time></trkpt><trkpt lat="42.64934812498288" lon="-2.049167785573606"><ele>530.0</ele><time>2026-03-22T15:47:21.998Z</time></trkpt><trkpt lat="42.64917782832836" lon="-2.049424573600184"><ele>532.0</ele><time>2026-03-22T15:47:22.998Z</time></trkpt><trkpt lat="42.64900515166733" lon="-2.0496793689423756"><ele>532.0</ele><time>2026-03-22T15:47:23.998Z</time></trkpt><trkpt lat="42.64883261818018" lon="-2.049935973225669"><ele>532.0</ele><time>2026-03-22T15:47:24.998Z</time></trkpt><trkpt lat="42.64866243050991" lon="-2.0502004596183228"><ele>535.0</ele><time>2026-03-22T15:47:25.998Z</time></trkpt><trkpt lat="42.64849177051002" lon="-2.0504649339915857"><ele>538.0</ele><time>2026-03-22T15:47:26.998Z</time></trkpt><trkpt lat="42.64832260111093" lon="-2.050729855727803"><ele>540.5</ele><time>2026-03-22T15:47:27.998Z</time></trkpt><trkpt lat="42.648156972747536" lon="-2.05100900310768"><ele>543.0</ele><time>2026-03-22T15:47:28.998Z</time></trkpt><trkpt lat="42.64799354446019" lon="-2.0513021736623767"><ele>543.0</ele><time>2026-03-22T15:47:29.998Z</time></trkpt><trkpt lat="42.64783747172831" lon="-2.051608441642419"><ele>543.0</ele><time>2026-03-22T15:47:30.998Z</time></trkpt><trkpt lat="42.64769347045068" lon="-2.05191008775987"><ele>545.5</ele><time>2026-03-22T15:47:31.998Z</time></trkpt><trkpt lat="42.64756375942163" lon="-2.052187839862868"><ele>548.0</ele><time>2026-03-22T15:47:32.998Z</time></trkpt><trkpt lat="42.64744376506843" lon="-2.0524558216560367"><ele>549.5</ele><time>2026-03-22T15:47:33.998Z</time></trkpt><trkpt lat="42.64733080501526" lon="-2.0527213107741398"><ele>551.0</ele><time>2026-03-22T15:47:34.998Z</time></trkpt><trkpt lat="42.64721524938614" lon="-2.052984358721275"><ele>551.0</ele><time>2026-03-22T15:47:36Z</time></trkpt><trkpt lat="42.647100502302195" lon="-2.053246021832868"><ele>551.0</ele><time>2026-03-22T15:47:37Z</time></trkpt><trkpt lat="42.64698767803436" lon="-2.053503451316958"><ele>551.0</ele><time>2026-03-22T15:47:38Z</time></trkpt><trkpt lat="42.646882094529005" lon="-2.053763273436194"><ele>554.0</ele><time>2026-03-22T15:47:39Z</time></trkpt><trkpt lat="42.646778142836" lon="-2.0540192685236436"><ele>557.0</ele><time>2026-03-22T15:47:40Z</time></trkpt><trkpt lat="42.646671723639656" lon="-2.0542695375571833"><ele>560.0</ele><time>2026-03-22T15:47:41Z</time></trkpt><trkpt lat="42.64656935162688" lon="-2.0545232820302064"><ele>560.0</ele><time>2026-03-22T15:47:42Z</time></trkpt><trkpt lat="42.64646520707163" lon="-2.054778783477105"><ele>560.0</ele><time>2026-03-22T15:47:43Z</time></trkpt><trkpt lat="42.64636328116696" lon="-2.0550365976796163"><ele>560.0</ele><time>2026-03-22T15:47:44Z</time></trkpt><trkpt lat="42.64626288997443" lon="-2.055295939453223"><ele>560.6666666666666</ele><time>2026-03-22T15:47:45Z</time></trkpt><trkpt lat="42.64616038505477" lon="-2.0555603598002246"><ele>561.3333333333334</ele><time>2026-03-22T15:47:46Z</time></trkpt><trkpt lat="42.64605456169961" lon="-2.055825468635676"><ele>562.0</ele><time>2026-03-22T15:47:47Z</time></trkpt><trkpt lat="42.6459472687194" lon="-2.0560914634385963"><ele>565.5</ele><time>2026-03-22T15:47:48Z</time></trkpt><trkpt lat="42.64583997865254" lon="-2.056361651114064"><ele>569.0</ele><time>2026-03-22T15:47:49Z</time></trkpt><trkpt lat="42.64573137885996" lon="-2.0566338800603856"><ele>569.0</ele><time>2026-03-22T15:47:50Z</time></trkpt><trkpt lat="42.645622975035444" lon="-2.0569094133046124"><ele>569.0</ele><time>2026-03-22T15:47:51Z</time></trkpt><trkpt lat="42.6455157195834" lon="-2.057189349492846"><ele>569.5</ele><time>2026-03-22T15:47:52Z</time></trkpt><trkpt lat="42.6454023094039" lon="-2.0574696487723294"><ele>570.0</ele><time>2026-03-22T15:47:53Z</time></trkpt><trkpt lat="42.64528684641119" lon="-2.057752346325396"><ele>571.5</ele><time>2026-03-22T15:47:54Z</time></trkpt><trkpt lat="42.645172551796385" lon="-2.0580285767053903"><ele>573.0</ele><time>2026-03-22T15:47:55Z</time></trkpt><trkpt lat="42.64506419703047" lon="-2.058301707165443"><ele>573.5</ele><time>2026-03-22T15:47:56Z</time></trkpt><trkpt lat="42.6449599014797" lon="-2.0585733143762357"><ele>574.0</ele><time>2026-03-22T15:47:57Z</time></trkpt><trkpt lat="42.6448557689595" lon="-2.0588436078752483"><ele>574.0</ele><time>2026-03-22T15:47:58Z</time></trkpt><trkpt lat="42.644753276274315" lon="-2.059108174208187"><ele>574.0</ele><time>2026-03-22T15:47:59Z</time></trkpt><trkpt lat="42.64465087444132" lon="-2.0593615983474773"><ele>574.0</ele><time>2026-03-22T15:48:00Z</time></trkpt><trkpt lat="42.644550129102" lon="-2.0596104194696014"><ele>574.6666666666667</ele><time>2026-03-22T15:48:01Z</time></trkpt><trkpt lat="42.6444524889008" lon="-2.059856866586716"><ele>575.3333333333334</ele><time>2026-03-22T15:48:02Z</time></trkpt><trkpt lat="42.64435462493279" lon="-2.0601022277515155"><ele>576.0</ele><time>2026-03-22T15:48:03Z</time></trkpt><trkpt lat="42.644259186958806" lon="-2.0603439549831446"><ele>576.0</ele><time>2026-03-22T15:48:04Z</time></trkpt><trkpt lat="42.64416756732563" lon="-2.0605716164623753"><ele>576.0</ele><time>2026-03-22T15:48:05Z</time></trkpt><trkpt lat="42.64408557562702" lon="-2.0607880583851195"><ele>576.0</ele><time>2026-03-22T15:48:06Z</time></trkpt><trkpt lat="42.64401844972534" lon="-2.06098998907556"><ele>576.75</ele><time>2026-03-22T15:48:07Z</time></trkpt><trkpt lat="42.64396352393517" lon="-2.0611717529726743"><ele>577.5</ele><time>2026-03-22T15:48:08Z</time></trkpt><trkpt lat="42.643919653827076" lon="-2.061332375247444"><ele>578.25</ele><time>2026-03-22T15:48:09Z</time></trkpt><trkpt lat="42.64388957560353" lon="-2.0614695794076106"><ele>579.0</ele><time>2026-03-22T15:48:10Z</time></trkpt><trkpt lat="42.6438713785757" lon="-2.0615904980811526"><ele>579.2857142857142</ele><time>2026-03-22T15:48:10.999Z</time></trkpt><trkpt lat="42.643853166373496" lon="-2.0616993668301156"><ele>579.5714285714286</ele><time>2026-03-22T15:48:11.999Z</time></trkpt><trkpt lat="42.64382147281654" lon="-2.06179054411022"><ele>579.8571428571429</ele><time>2026-03-22T15:48:12.999Z</time></trkpt><trkpt lat="42.6437741494841" lon="-2.0618598084257354"><ele>580.1428571428571</ele><time>2026-03-22T15:48:13.999Z</time></trkpt><trkpt lat="42.64371456136684" lon="-2.0619012895129964"><ele>580.4285714285714</ele><time>2026-03-22T15:48:14.999Z</time></trkpt><trkpt lat="42.643649732141846" lon="-2.06190571736226"><ele>580.7142857142857</ele><time>2026-03-22T15:48:15.999Z</time></trkpt><trkpt lat="42.64358289317085" lon="-2.0618766322330626"><ele>581.0</ele><time>2026-03-22T15:48:16.999Z</time></trkpt><trkpt lat="42.64352402177607" lon="-2.0618076863394403"><ele>581.4</ele><time>2026-03-22T15:48:17.999Z</time></trkpt><trkpt lat="42.64346725532837" lon="-2.0617121485784633"><ele>581.8</ele><time>2026-03-22T15:48:18.999Z</time></trkpt><trkpt lat="42.643390299536804" lon="-2.0616222995344926"><ele>582.1999999999999</ele><time>2026-03-22T15:48:19.999Z</time></trkpt><trkpt lat="42.643285852605864" lon="-2.061554534352355"><ele>582.6</ele><time>2026-03-22T15:48:20.999Z</time></trkpt><trkpt lat="42.643165774439936" lon="-2.0615095430457417"><ele>583.0</ele><time>2026-03-22T15:48:21.999Z</time></trkpt><trkpt lat="42.6430304909786" lon="-2.061471869418999"><ele>583.0</ele><time>2026-03-22T15:48:22.999Z</time></trkpt><trkpt lat="42.64288072209612" lon="-2.061432597453348"><ele>583.0</ele><time>2026-03-22T15:48:23.999Z</time></trkpt><trkpt lat="42.642717969430194" lon="-2.061386916185883"><ele>583.0</ele><time>2026-03-22T15:48:24.999Z</time></trkpt><trkpt lat="42.64253223828514" lon="-2.061330416610212"><ele>584.6666666666667</ele><time>2026-03-22T15:48:25.999Z</time></trkpt><trkpt lat="42.64232487990551" lon="-2.061264911274415"><ele>586.3333333333334</ele><time>2026-03-22T15:48:26.999Z</time></trkpt><trkpt lat="42.642107329974706" lon="-2.0612011313176826"><ele>588.0</ele><time>2026-03-22T15:48:27.999Z</time></trkpt><trkpt lat="42.641896626054695" lon="-2.0611456504939123"><ele>590.0</ele><time>2026-03-22T15:48:28.999Z</time></trkpt><trkpt lat="42.64171756896581" lon="-2.0610974082764306"><ele>592.0</ele><time>2026-03-22T15:48:29.999Z</time></trkpt><trkpt lat="42.64156004343084" lon="-2.0610518602993433"><ele>594.0</ele><time>2026-03-22T15:48:30.999Z</time></trkpt><trkpt lat="42.64142551117639" lon="-2.0610148334545975"><ele>594.0</ele><time>2026-03-22T15:48:31.999Z</time></trkpt><trkpt lat="42.641302968836236" lon="-2.0610003940139054"><ele>594.0</ele><time>2026-03-22T15:48:32.999Z</time></trkpt><trkpt lat="42.64118490630584" lon="-2.0610180914912144"><ele>594.0</ele><time>2026-03-22T15:48:33.999Z</time></trkpt><trkpt lat="42.6410712308525" lon="-2.0610704686575705"><ele>594.0</ele><time>2026-03-22T15:48:34.999Z</time></trkpt><trkpt lat="42.64096767180171" lon="-2.061163333603931"><ele>595.75</ele><time>2026-03-22T15:48:35.999Z</time></trkpt><trkpt lat="42.640877160034805" lon="-2.061293227741238"><ele>597.5</ele><time>2026-03-22T15:48:36.999Z</time></trkpt><trkpt lat="42.64080440092488" lon="-2.061447084040098"><ele>599.25</ele><time>2026-03-22T15:48:37.999Z</time></trkpt><trkpt lat="42.64074430201126" lon="-2.0616240741192415"><ele>601.0</ele><time>2026-03-22T15:48:38.999Z</time></trkpt><trkpt lat="42.64069642233259" lon="-2.0618264498673327"><ele>601.0</ele><time>2026-03-22T15:48:39.999Z</time></trkpt><trkpt lat="42.640637328379135" lon="-2.0620432559805884"><ele>601.0</ele><time>2026-03-22T15:48:40.999Z</time></trkpt><trkpt lat="42.64056256346722" lon="-2.0622747676992197"><ele>601.0</ele><time>2026-03-22T15:48:41.999Z</time></trkpt><trkpt lat="42.640484381784624" lon="-2.0625161932557683"><ele>601.6666666666667</ele><time>2026-03-22T15:48:42.999Z</time></trkpt><trkpt lat="42.640410367779836" lon="-2.0627790770978067"><ele>602.3333333333334</ele><time>2026-03-22T15:48:43.999Z</time></trkpt><trkpt lat="42.64034015015094" lon="-2.0630634025125762"><ele>603.0</ele><time>2026-03-22T15:48:44.999Z</time></trkpt><trkpt lat="42.640269583231" lon="-2.0633669773824495"><ele>603.0</ele><time>2026-03-22T15:48:45.999Z</time></trkpt><trkpt lat="42.640203509030364" lon="-2.0636680534425054"><ele>603.0</ele><time>2026-03-22T15:48:46.999Z</time></trkpt><trkpt lat="42.640131632427924" lon="-2.0639809046738216"><ele>603.0</ele><time>2026-03-22T15:48:47.999Z</time></trkpt><trkpt lat="42.64005307778986" lon="-2.0643025563116613"><ele>603.0</ele><time>2026-03-22T15:48:48.999Z</time></trkpt><trkpt lat="42.639972194546765" lon="-2.0646333951511555"><ele>601.0</ele><time>2026-03-22T15:48:49.999Z</time></trkpt><trkpt lat="42.63989522590766" lon="-2.0649746175965875"><ele>599.0</ele><time>2026-03-22T15:48:50.999Z</time></trkpt><trkpt lat="42.63982500553601" lon="-2.0653268872988217"><ele>599.0</ele><time>2026-03-22T15:48:51.999Z</time></trkpt><trkpt lat="42.6397564534578" lon="-2.0656757712299707"><ele>599.0</ele><time>2026-03-22T15:48:52.999Z</time></trkpt><trkpt lat="42.63968803533405" lon="-2.066018045830478"><ele>598.0</ele><time>2026-03-22T15:48:53.999Z</time></trkpt><trkpt lat="42.63961657230874" lon="-2.066367228284035"><ele>597.0</ele><time>2026-03-22T15:48:54.999Z</time></trkpt><trkpt lat="42.63954173606219" lon="-2.0667192028116457"><ele>597.0</ele><time>2026-03-22T15:48:55.999Z</time></trkpt><trkpt lat="42.6394673181893" lon="-2.067073925005642"><ele>597.0</ele><time>2026-03-22T15:48:56.999Z</time></trkpt><trkpt lat="42.63939271927035" lon="-2.0674346037802773"><ele>598.5</ele><time>2026-03-22T15:48:57.999Z</time></trkpt><trkpt lat="42.63931845002722" lon="-2.067798928142015"><ele>600.0</ele><time>2026-03-22T15:48:58.999Z</time></trkpt><trkpt lat="42.63924127270337" lon="-2.0681639381017303"><ele>599.0</ele><time>2026-03-22T15:48:59.999Z</time></trkpt><trkpt lat="42.63916225210228" lon="-2.0685333825319394"><ele>598.0</ele><time>2026-03-22T15:49:00.999Z</time></trkpt><trkpt lat="42.63908180901014" lon="-2.068908212431709"><ele>597.0</ele><time>2026-03-22T15:49:01.999Z</time></trkpt><trkpt lat="42.63900012397039" lon="-2.0692844949206473"><ele>596.0</ele><time>2026-03-22T15:49:02.999Z</time></trkpt><trkpt lat="42.638917501463254" lon="-2.0696618839287004"><ele>594.5</ele><time>2026-03-22T15:49:03.999Z</time></trkpt><trkpt lat="42.63883890120078" lon="-2.070039677589487"><ele>593.0</ele><time>2026-03-22T15:49:04.999Z</time></trkpt><trkpt lat="42.63876155489266" lon="-2.070421202953127"><ele>594.0</ele><time>2026-03-22T15:49:05.999Z</time></trkpt><trkpt lat="42.63868479768102" lon="-2.070802928889073"><ele>595.0</ele><time>2026-03-22T15:49:06.999Z</time></trkpt><trkpt lat="42.63860427875279" lon="-2.0711887747272066"><ele>595.0</ele><time>2026-03-22T15:49:07.999Z</time></trkpt><trkpt lat="42.638521005817665" lon="-2.071573373282533"><ele>595.0</ele><time>2026-03-22T15:49:08.999Z</time></trkpt><trkpt lat="42.63843796717058" lon="-2.0719583147090206"><ele>594.5</ele><time>2026-03-22T15:49:09.999Z</time></trkpt><trkpt lat="42.6383561908648" lon="-2.072344989540502"><ele>594.0</ele><time>2026-03-22T15:49:10.999Z</time></trkpt><trkpt lat="42.63827228405617" lon="-2.0727319130395623"><ele>596.0</ele><time>2026-03-22T15:49:11.999Z</time></trkpt><trkpt lat="42.63819076450935" lon="-2.0731217709067367"><ele>598.0</ele><time>2026-03-22T15:49:12.999Z</time></trkpt><trkpt lat="42.63811290308769" lon="-2.073511363926131"><ele>599.5</ele><time>2026-03-22T15:49:13.999Z</time></trkpt><trkpt lat="42.638032382030396" lon="-2.073900625325188"><ele>601.0</ele><time>2026-03-22T15:49:14.999Z</time></trkpt><trkpt lat="42.63794908040884" lon="-2.0742893199328973"><ele>601.5</ele><time>2026-03-22T15:49:15.998Z</time></trkpt><trkpt lat="42.63786499586667" lon="-2.0746765548755413"><ele>602.0</ele><time>2026-03-22T15:49:16.998Z</time></trkpt><trkpt lat="42.63778260496958" lon="-2.0750660718686267"><ele>602.0</ele><time>2026-03-22T15:49:17.998Z</time></trkpt><trkpt lat="42.6376990249953" lon="-2.075453625032803"><ele>602.0</ele><time>2026-03-22T15:49:18.998Z</time></trkpt><trkpt lat="42.63761670883456" lon="-2.0758439649972136"><ele>599.5</ele><time>2026-03-22T15:49:19.998Z</time></trkpt><trkpt lat="42.63753221931775" lon="-2.076234740181857"><ele>597.0</ele><time>2026-03-22T15:49:20.998Z</time></trkpt><trkpt lat="42.63744519700023" lon="-2.0766260886269996"><ele>595.5</ele><time>2026-03-22T15:49:21.998Z</time></trkpt><trkpt lat="42.63736213540113" lon="-2.077019507025061"><ele>594.0</ele><time>2026-03-22T15:49:22.998Z</time></trkpt><trkpt lat="42.637278536854325" lon="-2.0774094211091385"><ele>592.5</ele><time>2026-03-22T15:49:23.998Z</time></trkpt><trkpt lat="42.637191906725725" lon="-2.0777949336383625"><ele>591.0</ele><time>2026-03-22T15:49:24.998Z</time></trkpt><trkpt lat="42.63710461617718" lon="-2.0781817103142237"><ele>589.0</ele><time>2026-03-22T15:49:25.998Z</time></trkpt><trkpt lat="42.63701906318675" lon="-2.0785736928033915"><ele>587.0</ele><time>2026-03-22T15:49:26.998Z</time></trkpt><trkpt lat="42.63693777245196" lon="-2.0789670491287198"><ele>583.0</ele><time>2026-03-22T15:49:27.998Z</time></trkpt><trkpt lat="42.636857040817205" lon="-2.0793557704658654"><ele>579.0</ele><time>2026-03-22T15:49:28.998Z</time></trkpt><trkpt lat="42.63676850507015" lon="-2.0797434322598303"><ele>578.0</ele><time>2026-03-22T15:49:29.998Z</time></trkpt><trkpt lat="42.63666934209041" lon="-2.080128337103042"><ele>577.0</ele><time>2026-03-22T15:49:30.998Z</time></trkpt><trkpt lat="42.63655086567168" lon="-2.0805104816691817"><ele>575.5</ele><time>2026-03-22T15:49:31.998Z</time></trkpt><trkpt lat="42.63642047333617" lon="-2.0808906523124238"><ele>574.0</ele><time>2026-03-22T15:49:32.998Z</time></trkpt><trkpt lat="42.63627622392502" lon="-2.081261797132736"><ele>581.0</ele><time>2026-03-22T15:49:33.998Z</time></trkpt><trkpt lat="42.6361226080756" lon="-2.081627281528928"><ele>588.0</ele><time>2026-03-22T15:49:34.998Z</time></trkpt><trkpt lat="42.635955296951664" lon="-2.0819808547219223"><ele>588.0</ele><time>2026-03-22T15:49:35.998Z</time></trkpt><trkpt lat="42.635780201166476" lon="-2.082328758540091"><ele>588.0</ele><time>2026-03-22T15:49:36.998Z</time></trkpt><trkpt lat="42.63559503416201" lon="-2.08266609148308"><ele>586.5</ele><time>2026-03-22T15:49:37.998Z</time></trkpt><trkpt lat="42.63539815495914" lon="-2.082990723346247"><ele>585.0</ele><time>2026-03-22T15:49:38.998Z</time></trkpt><trkpt lat="42.6351885349752" lon="-2.0833015860629116"><ele>590.0</ele><time>2026-03-22T15:49:39.998Z</time></trkpt><trkpt lat="42.63496821920667" lon="-2.0836003553173126"><ele>595.0</ele><time>2026-03-22T15:49:40.998Z</time></trkpt><trkpt lat="42.63474607731323" lon="-2.0838848516680994"><ele>590.0</ele><time>2026-03-22T15:49:42Z</time></trkpt><trkpt lat="42.63451418095546" lon="-2.0841612219548264"><ele>585.0</ele><time>2026-03-22T15:49:43Z</time></trkpt><trkpt lat="42.63427857368626" lon="-2.084430366875897"><ele>584.0</ele><time>2026-03-22T15:49:44Z</time></trkpt><trkpt lat="42.6340409001437" lon="-2.0847003799138784"><ele>583.0</ele><time>2026-03-22T15:49:45Z</time></trkpt><trkpt lat="42.63380333256569" lon="-2.0849772810749294"><ele>588.5</ele><time>2026-03-22T15:49:46Z</time></trkpt><trkpt lat="42.63356623445917" lon="-2.085256662175987"><ele>594.0</ele><time>2026-03-22T15:49:47Z</time></trkpt><trkpt lat="42.633325247350896" lon="-2.0855379789012494"><ele>595.5</ele><time>2026-03-22T15:49:48Z</time></trkpt><trkpt lat="42.63307903850211" lon="-2.085816576852478"><ele>597.0</ele><time>2026-03-22T15:49:49Z</time></trkpt><trkpt lat="42.6328305555595" lon="-2.0860989811101467"><ele>595.0</ele><time>2026-03-22T15:49:50Z</time></trkpt><trkpt lat="42.63258100297001" lon="-2.0863870241472013"><ele>593.0</ele><time>2026-03-22T15:49:51Z</time></trkpt><trkpt lat="42.63232944032207" lon="-2.0866838667630154"><ele>593.0</ele><time>2026-03-22T15:49:52Z</time></trkpt><trkpt lat="42.6320809511705" lon="-2.0869929447359676"><ele>593.0</ele><time>2026-03-22T15:49:53Z</time></trkpt><trkpt lat="42.631835897169296" lon="-2.087312429915376"><ele>594.0</ele><time>2026-03-22T15:49:54Z</time></trkpt><trkpt lat="42.63159612074229" lon="-2.0876414782693526"><ele>595.0</ele><time>2026-03-22T15:49:55Z</time></trkpt><trkpt lat="42.631359018377715" lon="-2.087972010651423"><ele>595.5</ele><time>2026-03-22T15:49:56Z</time></trkpt><trkpt lat="42.631122612133" lon="-2.088305370000341"><ele>596.0</ele><time>2026-03-22T15:49:57Z</time></trkpt><trkpt lat="42.63088778944717" lon="-2.088641749540332"><ele>596.0</ele><time>2026-03-22T15:49:58Z</time></trkpt><trkpt lat="42.63065453997132" lon="-2.0889795274044305"><ele>596.0</ele><time>2026-03-22T15:49:59Z</time></trkpt><trkpt lat="42.63042329103809" lon="-2.089322021449308"><ele>593.5</ele><time>2026-03-22T15:50:00Z</time></trkpt><trkpt lat="42.63019934693064" lon="-2.0896670164790727"><ele>591.0</ele><time>2026-03-22T15:50:01Z</time></trkpt><trkpt lat="42.629976392960856" lon="-2.0900106486394536"><ele>588.5</ele><time>2026-03-22T15:50:02Z</time></trkpt><trkpt lat="42.62975330943956" lon="-2.0903507120695326"><ele>586.0</ele><time>2026-03-22T15:50:03Z</time></trkpt><trkpt lat="42.62953549581495" lon="-2.090687078716058"><ele>589.5</ele><time>2026-03-22T15:50:04Z</time></trkpt><trkpt lat="42.62932088569453" lon="-2.091021939103531"><ele>593.0</ele><time>2026-03-22T15:50:05Z</time></trkpt><trkpt lat="42.62910703880562" lon="-2.0913521184023116"><ele>592.0</ele><time>2026-03-22T15:50:06Z</time></trkpt><trkpt lat="42.62889459221928" lon="-2.091682045514732"><ele>591.0</ele><time>2026-03-22T15:50:07Z</time></trkpt><trkpt lat="42.62868085242776" lon="-2.0920089989961097"><ele>592.5</ele><time>2026-03-22T15:50:08Z</time></trkpt><trkpt lat="42.62846849788145" lon="-2.092336405900447"><ele>594.0</ele><time>2026-03-22T15:50:09Z</time></trkpt><trkpt lat="42.628256689323564" lon="-2.092663072231818"><ele>594.0</ele><time>2026-03-22T15:50:10Z</time></trkpt><trkpt lat="42.628046889902336" lon="-2.0929889038041485"><ele>594.0</ele><time>2026-03-22T15:50:11Z</time></trkpt><trkpt lat="42.62783905189869" lon="-2.0933111159179774"><ele>597.0</ele><time>2026-03-22T15:50:12Z</time></trkpt><trkpt lat="42.62762954773769" lon="-2.093630847949712"><ele>600.0</ele><time>2026-03-22T15:50:13Z</time></trkpt><trkpt lat="42.62741928844103" lon="-2.093952491965568"><ele>601.5</ele><time>2026-03-22T15:50:14Z</time></trkpt><trkpt lat="42.627208427686476" lon="-2.0942773538559245"><ele>603.0</ele><time>2026-03-22T15:50:15Z</time></trkpt><trkpt lat="42.62699872374826" lon="-2.0946048667518555"><ele>604.0</ele><time>2026-03-22T15:50:16Z</time></trkpt><trkpt lat="42.62678779993254" lon="-2.094936527603166"><ele>605.0</ele><time>2026-03-22T15:50:17Z</time></trkpt><trkpt lat="42.62657660736333" lon="-2.0952728900641704"><ele>605.0</ele><time>2026-03-22T15:50:18Z</time></trkpt><trkpt lat="42.62636248706454" lon="-2.0956095718583225"><ele>605.0</ele><time>2026-03-22T15:50:19Z</time></trkpt><trkpt lat="42.626143230629225" lon="-2.09594667383447"><ele>608.0</ele><time>2026-03-22T15:50:20Z</time></trkpt><trkpt lat="42.62591943525799" lon="-2.0962779409274646"><ele>611.0</ele><time>2026-03-22T15:50:21Z</time></trkpt><trkpt lat="42.625688642185104" lon="-2.0966041648124145"><ele>611.0</ele><time>2026-03-22T15:50:22Z</time></trkpt><trkpt lat="42.625451085603494" lon="-2.096922980595911"><ele>611.0</ele><time>2026-03-22T15:50:22.999Z</time></trkpt><trkpt lat="42.62520193357574" lon="-2.097227950798929"><ele>611.0</ele><time>2026-03-22T15:50:23.999Z</time></trkpt><trkpt lat="42.6249463014389" lon="-2.097521163216142"><ele>611.0</ele><time>2026-03-22T15:50:24.999Z</time></trkpt><trkpt lat="42.624671352039755" lon="-2.0977847201406927"><ele>611.0</ele><time>2026-03-22T15:50:25.999Z</time></trkpt><trkpt lat="42.62438711941646" lon="-2.098030778408808"><ele>611.0</ele><time>2026-03-22T15:50:26.999Z</time></trkpt><trkpt lat="42.624093728586125" lon="-2.0982602514832798"><ele>608.5</ele><time>2026-03-22T15:50:27.999Z</time></trkpt><trkpt lat="42.6237924882372" lon="-2.0984710966448943"><ele>606.0</ele><time>2026-03-22T15:50:28.999Z</time></trkpt><trkpt lat="42.62348711009194" lon="-2.098664586654903"><ele>606.0</ele><time>2026-03-22T15:50:29.999Z</time></trkpt><trkpt lat="42.62317414139598" lon="-2.0988458581306686"><ele>606.0</ele><time>2026-03-22T15:50:30.999Z</time></trkpt><trkpt lat="42.62286229122805" lon="-2.0990254886321718"><ele>604.5</ele><time>2026-03-22T15:50:31.999Z</time></trkpt><trkpt lat="42.622553503251424" lon="-2.099209838345381"><ele>603.0</ele><time>2026-03-22T15:50:32.999Z</time></trkpt><trkpt lat="42.622248030074644" lon="-2.0993994282014175"><ele>600.0</ele><time>2026-03-22T15:50:33.999Z</time></trkpt><trkpt lat="42.621946323106776" lon="-2.0995969589205106"><ele>597.0</ele><time>2026-03-22T15:50:34.999Z</time></trkpt><trkpt lat="42.62164800101631" lon="-2.099803902685195"><ele>597.0</ele><time>2026-03-22T15:50:35.999Z</time></trkpt><trkpt lat="42.62135486989124" lon="-2.1000251868747166"><ele>597.0</ele><time>2026-03-22T15:50:36.999Z</time></trkpt><trkpt lat="42.621072462889906" lon="-2.100266540461721"><ele>594.0</ele><time>2026-03-22T15:50:37.999Z</time></trkpt><trkpt lat="42.62080210746461" lon="-2.1005276577540983"><ele>591.0</ele><time>2026-03-22T15:50:38.999Z</time></trkpt><trkpt lat="42.62054612676414" lon="-2.1008105801192816"><ele>592.0</ele><time>2026-03-22T15:50:39.999Z</time></trkpt><trkpt lat="42.62030199522044" lon="-2.1011122878414086"><ele>593.0</ele><time>2026-03-22T15:50:40.999Z</time></trkpt><trkpt lat="42.62006825552788" lon="-2.1014306406030294"><ele>590.0</ele><time>2026-03-22T15:50:41.999Z</time></trkpt><trkpt lat="42.61984592872401" lon="-2.101762763335575"><ele>587.0</ele><time>2026-03-22T15:50:42.999Z</time></trkpt><trkpt lat="42.619633598179504" lon="-2.102108524979053"><ele>588.5</ele><time>2026-03-22T15:50:43.999Z</time></trkpt><trkpt lat="42.61943203057308" lon="-2.1024679700427074"><ele>590.0</ele><time>2026-03-22T15:50:44.999Z</time></trkpt><trkpt lat="42.61924747265345" lon="-2.1028444445128924"><ele>590.0</ele><time>2026-03-22T15:50:45.999Z</time></trkpt><trkpt lat="42.61907985878551" lon="-2.1032345693693872"><ele>590.0</ele><time>2026-03-22T15:50:46.999Z</time></trkpt><trkpt lat="42.6189265264106" lon="-2.103634852804171"><ele>588.5</ele><time>2026-03-22T15:50:47.999Z</time></trkpt><trkpt lat="42.618782757121494" lon="-2.1040451334790147"><ele>587.0</ele><time>2026-03-22T15:50:48.999Z</time></trkpt><trkpt lat="42.618643702119506" lon="-2.1044600577402557"><ele>587.0</ele><time>2026-03-22T15:50:49.999Z</time></trkpt><trkpt lat="42.618498732573016" lon="-2.104872632556027"><ele>587.0</ele><time>2026-03-22T15:50:50.999Z</time></trkpt><trkpt lat="42.61835360648937" lon="-2.105281941886436"><ele>584.0</ele><time>2026-03-22T15:50:51.999Z</time></trkpt><trkpt lat="42.61820543485906" lon="-2.1056906076370003"><ele>581.0</ele><time>2026-03-22T15:50:52.999Z</time></trkpt><trkpt lat="42.61805161943434" lon="-2.106102115667114"><ele>579.0</ele><time>2026-03-22T15:50:53.999Z</time></trkpt><trkpt lat="42.61789246234734" lon="-2.106509281412447"><ele>577.0</ele><time>2026-03-22T15:50:54.999Z</time></trkpt><trkpt lat="42.61772525150708" lon="-2.1069114298063862"><ele>577.0</ele><time>2026-03-22T15:50:55.999Z</time></trkpt><trkpt lat="42.61755107433511" lon="-2.1073062376631344"><ele>577.0</ele><time>2026-03-22T15:50:56.999Z</time></trkpt><trkpt lat="42.617367185409904" lon="-2.1076917777909974"><ele>575.0</ele><time>2026-03-22T15:50:57.999Z</time></trkpt><trkpt lat="42.61716983126283" lon="-2.10806872605879"><ele>573.0</ele><time>2026-03-22T15:50:58.999Z</time></trkpt><trkpt lat="42.61695991425312" lon="-2.1084319898711614"><ele>573.0</ele><time>2026-03-22T15:50:59.999Z</time></trkpt><trkpt lat="42.61673774919409" lon="-2.1087862404633"><ele>573.0</ele><time>2026-03-22T15:51:00.999Z</time></trkpt><trkpt lat="42.616502511388326" lon="-2.1091289766424217"><ele>570.0</ele><time>2026-03-22T15:51:01.999Z</time></trkpt><trkpt lat="42.61625512237907" lon="-2.109456384031218"><ele>567.0</ele><time>2026-03-22T15:51:02.999Z</time></trkpt><trkpt lat="42.61599538071235" lon="-2.1097683914670173"><ele>564.0</ele><time>2026-03-22T15:51:03.999Z</time></trkpt><trkpt lat="42.61572373777077" lon="-2.1100654041708626"><ele>561.0</ele><time>2026-03-22T15:51:04.999Z</time></trkpt><trkpt lat="42.61544022481508" lon="-2.1103404190543618"><ele>563.5</ele><time>2026-03-22T15:51:05.999Z</time></trkpt><trkpt lat="42.615145903294255" lon="-2.110596621815023"><ele>566.0</ele><time>2026-03-22T15:51:06.999Z</time></trkpt><trkpt lat="42.61484117023747" lon="-2.1108326170552827"><ele>566.0</ele><time>2026-03-22T15:51:07.999Z</time></trkpt><trkpt lat="42.614528406506885" lon="-2.1110465934112077"><ele>566.0</ele><time>2026-03-22T15:51:08.999Z</time></trkpt><trkpt lat="42.614211109334704" lon="-2.111243389335273"><ele>567.0</ele><time>2026-03-22T15:51:09.999Z</time></trkpt><trkpt lat="42.613891835966115" lon="-2.111428200395033"><ele>568.0</ele><time>2026-03-22T15:51:10.999Z</time></trkpt><trkpt lat="42.61356950434297" lon="-2.1115970460645457"><ele>560.0</ele><time>2026-03-22T15:51:11.999Z</time></trkpt><trkpt lat="42.61324518190628" lon="-2.111751823364822"><ele>552.0</ele><time>2026-03-22T15:51:12.999Z</time></trkpt><trkpt lat="42.612917122317064" lon="-2.111896510070847"><ele>554.0</ele><time>2026-03-22T15:51:13.999Z</time></trkpt><trkpt lat="42.612589118882106" lon="-2.112031240343705"><ele>556.0</ele><time>2026-03-22T15:51:14.999Z</time></trkpt><trkpt lat="42.61226079924214" lon="-2.1121625132449973"><ele>551.0</ele><time>2026-03-22T15:51:15.999Z</time></trkpt><trkpt lat="42.611930316011154" lon="-2.1122864129011556"><ele>546.0</ele><time>2026-03-22T15:51:16.999Z</time></trkpt><trkpt lat="42.6115975359942" lon="-2.1124040342353285"><ele>543.5</ele><time>2026-03-22T15:51:17.999Z</time></trkpt><trkpt lat="42.61126373260691" lon="-2.112522661839343"><ele>541.0</ele><time>2026-03-22T15:51:18.999Z</time></trkpt><trkpt lat="42.610932043660625" lon="-2.1126429997924037"><ele>541.0</ele><time>2026-03-22T15:51:19.999Z</time></trkpt><trkpt lat="42.61060083421115" lon="-2.11276663713224"><ele>541.0</ele><time>2026-03-22T15:51:20.999Z</time></trkpt><trkpt lat="42.6102708521806" lon="-2.1128919673811124"><ele>540.0</ele><time>2026-03-22T15:51:21.999Z</time></trkpt><trkpt lat="42.60994111405281" lon="-2.1130210919464436"><ele>539.0</ele><time>2026-03-22T15:51:22.999Z</time></trkpt><trkpt lat="42.60961277304647" lon="-2.1131535785719504"><ele>539.5</ele><time>2026-03-22T15:51:23.999Z</time></trkpt><trkpt lat="42.60928536692199" lon="-2.1132869640797005"><ele>540.0</ele><time>2026-03-22T15:51:24.999Z</time></trkpt><trkpt lat="42.608959389819546" lon="-2.1134219650141266"><ele>540.0</ele><time>2026-03-22T15:51:25.998Z</time></trkpt><trkpt lat="42.608634782155065" lon="-2.1135576699818075"><ele>540.0</ele><time>2026-03-22T15:51:26.998Z</time></trkpt><trkpt lat="42.60831259438421" lon="-2.113697244729508"><ele>540.0</ele><time>2026-03-22T15:51:27.998Z</time></trkpt><trkpt lat="42.607992509389625" lon="-2.11383813697479"><ele>540.0</ele><time>2026-03-22T15:51:28.998Z</time></trkpt><trkpt lat="42.60767397004009" lon="-2.113984195965827"><ele>540.0</ele><time>2026-03-22T15:51:29.998Z</time></trkpt><trkpt lat="42.607357392652695" lon="-2.1141367083790654"><ele>540.0</ele><time>2026-03-22T15:51:30.998Z</time></trkpt><trkpt lat="42.607042551255894" lon="-2.114296269262282"><ele>541.0</ele><time>2026-03-22T15:51:31.998Z</time></trkpt><trkpt lat="42.60673211728486" lon="-2.1144634228348114"><ele>542.0</ele><time>2026-03-22T15:51:32.998Z</time></trkpt><trkpt lat="42.60642399167633" lon="-2.1146417845803334"><ele>542.0</ele><time>2026-03-22T15:51:33.998Z</time></trkpt><trkpt lat="42.60611898132708" lon="-2.1148263171800394"><ele>542.0</ele><time>2026-03-22T15:51:34.998Z</time></trkpt><trkpt lat="42.60581533341721" lon="-2.1150191386659762"><ele>542.0</ele><time>2026-03-22T15:51:35.998Z</time></trkpt><trkpt lat="42.60551271218562" lon="-2.1152136391933656"><ele>542.0</ele><time>2026-03-22T15:51:36.998Z</time></trkpt><trkpt lat="42.605211877471156" lon="-2.11541402173059"><ele>540.0</ele><time>2026-03-22T15:51:37.998Z</time></trkpt><trkpt lat="42.60491460371879" lon="-2.1156225709054852"><ele>538.0</ele><time>2026-03-22T15:51:38.998Z</time></trkpt><trkpt lat="42.604620790574664" lon="-2.1158400535730655"><ele>535.0</ele><time>2026-03-22T15:51:39.998Z</time></trkpt><trkpt lat="42.604332828727465" lon="-2.116066303684748"><ele>532.0</ele><time>2026-03-22T15:51:40.998Z</time></trkpt><trkpt lat="42.60405129911724" lon="-2.1163031667562704"><ele>532.0</ele><time>2026-03-22T15:51:41.998Z</time></trkpt><trkpt lat="42.603777135138316" lon="-2.1165535021934723"><ele>532.0</ele><time>2026-03-22T15:51:42.998Z</time></trkpt><trkpt lat="42.60350667740237" lon="-2.1168130487676766"><ele>528.0</ele><time>2026-03-22T15:51:43.998Z</time></trkpt><trkpt lat="42.60324227583883" lon="-2.1170790511944757"><ele>524.0</ele><time>2026-03-22T15:51:44.998Z</time></trkpt><trkpt lat="42.60298068741687" lon="-2.1173442743856796"><ele>527.0</ele><time>2026-03-22T15:51:45.998Z</time></trkpt><trkpt lat="42.60272295958115" lon="-2.1176159246893684"><ele>530.0</ele><time>2026-03-22T15:51:46.998Z</time></trkpt><trkpt lat="42.602470050519656" lon="-2.117893834006497"><ele>530.0</ele><time>2026-03-22T15:51:48Z</time></trkpt><trkpt lat="42.6022215104329" lon="-2.1181797181159494"><ele>530.0</ele><time>2026-03-22T15:51:49Z</time></trkpt><trkpt lat="42.60197620684094" lon="-2.1184719454071117"><ele>530.0</ele><time>2026-03-22T15:51:50Z</time></trkpt><trkpt lat="42.60173708504002" lon="-2.1187738388378103"><ele>530.0</ele><time>2026-03-22T15:51:51Z</time></trkpt><trkpt lat="42.601503467083546" lon="-2.119089341978374"><ele>530.0</ele><time>2026-03-22T15:51:52Z</time></trkpt><trkpt lat="42.6012769559722" lon="-2.1194105559770797"><ele>530.0</ele><time>2026-03-22T15:51:53Z</time></trkpt><trkpt lat="42.60105544145805" lon="-2.1197418660595027"><ele>526.0</ele><time>2026-03-22T15:51:54Z</time></trkpt><trkpt lat="42.60083576716265" lon="-2.1200793381641496"><ele>522.0</ele><time>2026-03-22T15:51:55Z</time></trkpt><trkpt lat="42.600618601538606" lon="-2.1204202539767083"><ele>522.0</ele><time>2026-03-22T15:51:56Z</time></trkpt><trkpt lat="42.60040792507707" lon="-2.120768033607893"><ele>522.0</ele><time>2026-03-22T15:51:57Z</time></trkpt><trkpt lat="42.60020155894581" lon="-2.1211234463582542"><ele>522.0</ele><time>2026-03-22T15:51:58Z</time></trkpt><trkpt lat="42.6000038833058" lon="-2.121487075977762"><ele>522.0</ele><time>2026-03-22T15:51:59Z</time></trkpt><trkpt lat="42.59981406130656" lon="-2.1218580735345847"><ele>523.5</ele><time>2026-03-22T15:52:00Z</time></trkpt><trkpt lat="42.599630012579766" lon="-2.122232043123783"><ele>525.0</ele><time>2026-03-22T15:52:01Z</time></trkpt><trkpt lat="42.59945062200326" lon="-2.122611336619211"><ele>527.0</ele><time>2026-03-22T15:52:02Z</time></trkpt><trkpt lat="42.59927659699376" lon="-2.1229953972803277"><ele>529.0</ele><time>2026-03-22T15:52:03Z</time></trkpt><trkpt lat="42.59911220937656" lon="-2.123388067962516"><ele>529.0</ele><time>2026-03-22T15:52:04Z</time></trkpt><trkpt lat="42.59895195830767" lon="-2.1237871114017386"><ele>529.0</ele><time>2026-03-22T15:52:05Z</time></trkpt><trkpt lat="42.59879437639948" lon="-2.1241892067409336"><ele>528.5</ele><time>2026-03-22T15:52:06Z</time></trkpt><trkpt lat="42.598638890612285" lon="-2.124594053843179"><ele>528.0</ele><time>2026-03-22T15:52:07Z</time></trkpt><trkpt lat="42.59848975859361" lon="-2.1250023210697577"><ele>528.0</ele><time>2026-03-22T15:52:08Z</time></trkpt><trkpt lat="42.59834708295888" lon="-2.1254131125399436"><ele>528.0</ele><time>2026-03-22T15:52:09Z</time></trkpt><trkpt lat="42.59820696570004" lon="-2.1258258175222258"><ele>528.0</ele><time>2026-03-22T15:52:10Z</time></trkpt><trkpt lat="42.598072078725636" lon="-2.1262442640521675"><ele>528.0</ele><time>2026-03-22T15:52:11Z</time></trkpt><trkpt lat="42.59794114781243" lon="-2.1266623493823817"><ele>525.0</ele><time>2026-03-22T15:52:12Z</time></trkpt><trkpt lat="42.5978158755573" lon="-2.127080490044982"><ele>522.0</ele><time>2026-03-22T15:52:13Z</time></trkpt><trkpt lat="42.59769516026043" lon="-2.127497546480164"><ele>520.0</ele><time>2026-03-22T15:52:14Z</time></trkpt><trkpt lat="42.59757790368508" lon="-2.1279091434609825"><ele>518.0</ele><time>2026-03-22T15:52:15Z</time></trkpt><trkpt lat="42.59746286319322" lon="-2.128320299591811"><ele>518.0</ele><time>2026-03-22T15:52:16Z</time></trkpt><trkpt lat="42.59735059696" lon="-2.1287274208510287"><ele>518.0</ele><time>2026-03-22T15:52:17Z</time></trkpt><trkpt lat="42.59724225352851" lon="-2.1291387362472753"><ele>517.0</ele><time>2026-03-22T15:52:18Z</time></trkpt><trkpt lat="42.597132755179324" lon="-2.1295486254754357"><ele>516.0</ele><time>2026-03-22T15:52:19Z</time></trkpt><trkpt lat="42.59702257408478" lon="-2.129958294347313"><ele>514.0</ele><time>2026-03-22T15:52:20Z</time></trkpt><trkpt lat="42.596908328716" lon="-2.1303697120705616"><ele>512.0</ele><time>2026-03-22T15:52:21Z</time></trkpt><trkpt lat="42.596794917809945" lon="-2.130783509139846"><ele>512.0</ele><time>2026-03-22T15:52:22Z</time></trkpt><trkpt lat="42.596681707788456" lon="-2.1312014184937196"><ele>512.0</ele><time>2026-03-22T15:52:23Z</time></trkpt><trkpt lat="42.59656552925086" lon="-2.1316175886412583"><ele>512.5</ele><time>2026-03-22T15:52:24Z</time></trkpt><trkpt lat="42.596442509025344" lon="-2.1320327769979026"><ele>513.0</ele><time>2026-03-22T15:52:25Z</time></trkpt><trkpt lat="42.596312427150664" lon="-2.1324442710812916"><ele>513.5</ele><time>2026-03-22T15:52:26Z</time></trkpt><trkpt lat="42.596170476003316" lon="-2.1328516770442185"><ele>514.0</ele><time>2026-03-22T15:52:27Z</time></trkpt><trkpt lat="42.596012493898925" lon="-2.1332502341018564"><ele>514.0</ele><time>2026-03-22T15:52:28Z</time></trkpt><trkpt lat="42.595841188532226" lon="-2.133636665282697"><ele>514.0</ele><time>2026-03-22T15:52:29Z</time></trkpt><trkpt lat="42.595655323242674" lon="-2.134010122518082"><ele>515.0</ele><time>2026-03-22T15:52:30Z</time></trkpt><trkpt lat="42.59545612927857" lon="-2.1343709221576965"><ele>516.0</ele><time>2026-03-22T15:52:31Z</time></trkpt><trkpt lat="42.595246393123915" lon="-2.134720074603648"><ele>510.5</ele><time>2026-03-22T15:52:32Z</time></trkpt><trkpt lat="42.595029584939724" lon="-2.1350549879754275"><ele>505.0</ele><time>2026-03-22T15:52:33Z</time></trkpt><trkpt lat="42.59480642270156" lon="-2.1353772689542283"><ele>505.0</ele><time>2026-03-22T15:52:34Z</time></trkpt><trkpt lat="42.594573156064605" lon="-2.135680093442448"><ele>505.0</ele><time>2026-03-22T15:52:35Z</time></trkpt><trkpt lat="42.59432496090449" lon="-2.135958609762342"><ele>502.0</ele><time>2026-03-22T15:52:36Z</time></trkpt><trkpt lat="42.59406582483143" lon="-2.136212345205639"><ele>499.0</ele><time>2026-03-22T15:52:36.999Z</time></trkpt><trkpt lat="42.593796442775805" lon="-2.1364526069555545"><ele>497.5</ele><time>2026-03-22T15:52:37.999Z</time></trkpt><trkpt lat="42.59352722621075" lon="-2.1366841423719563"><ele>496.0</ele><time>2026-03-22T15:52:38.999Z</time></trkpt><trkpt lat="42.59325373029415" lon="-2.136906554280965"><ele>496.0</ele><time>2026-03-22T15:52:39.999Z</time></trkpt><trkpt lat="42.59297680025368" lon="-2.137113565828851"><ele>496.0</ele><time>2026-03-22T15:52:40.999Z</time></trkpt><trkpt lat="42.59268975042068" lon="-2.137297792425137"><ele>496.5</ele><time>2026-03-22T15:52:41.999Z</time></trkpt><trkpt lat="42.59240078955288" lon="-2.1374642369906525"><ele>497.0</ele><time>2026-03-22T15:52:42.999Z</time></trkpt><trkpt lat="42.592107882761916" lon="-2.137617621109765"><ele>496.0</ele><time>2026-03-22T15:52:43.999Z</time></trkpt><trkpt lat="42.59181169349681" lon="-2.137756036002341"><ele>495.0</ele><time>2026-03-22T15:52:44.999Z</time></trkpt><trkpt lat="42.591510982217734" lon="-2.1378803181595254"><ele>495.0</ele><time>2026-03-22T15:52:45.999Z</time></trkpt><trkpt lat="42.59120654917889" lon="-2.137992332900305"><ele>495.0</ele><time>2026-03-22T15:52:46.999Z</time></trkpt><trkpt lat="42.590899846165826" lon="-2.1380982898056664"><ele>493.5</ele><time>2026-03-22T15:52:47.999Z</time></trkpt><trkpt lat="42.59058912654353" lon="-2.1381964886002334"><ele>492.0</ele><time>2026-03-22T15:52:48.999Z</time></trkpt><trkpt lat="42.590277306619" lon="-2.138290038946985"><ele>496.5</ele><time>2026-03-22T15:52:49.999Z</time></trkpt><trkpt lat="42.58996353956299" lon="-2.1383850322535296"><ele>501.0</ele><time>2026-03-22T15:52:50.999Z</time></trkpt><trkpt lat="42.589648927568724" lon="-2.138485113271216"><ele>507.0</ele><time>2026-03-22T15:52:51.999Z</time></trkpt><trkpt lat="42.58933417636332" lon="-2.138593690073199"><ele>513.0</ele><time>2026-03-22T15:52:52.999Z</time></trkpt><trkpt lat="42.58901802261849" lon="-2.138711132756727"><ele>513.0</ele><time>2026-03-22T15:52:53.999Z</time></trkpt><trkpt lat="42.58870440692068" lon="-2.1388421121447156"><ele>513.0</ele><time>2026-03-22T15:52:54.999Z</time></trkpt><trkpt lat="42.588395068461736" lon="-2.138999032937934"><ele>511.5</ele><time>2026-03-22T15:52:55.999Z</time></trkpt><trkpt lat="42.588091065269076" lon="-2.1391796159368277"><ele>510.0</ele><time>2026-03-22T15:52:56.999Z</time></trkpt><trkpt lat="42.58779591801664" lon="-2.139395514073955"><ele>509.0</ele><time>2026-03-22T15:52:57.999Z</time></trkpt><trkpt lat="42.58751024658192" lon="-2.13963144684721"><ele>508.0</ele><time>2026-03-22T15:52:58.999Z</time></trkpt><trkpt lat="42.587234861934284" lon="-2.139893180716587"><ele>507.5</ele><time>2026-03-22T15:52:59.999Z</time></trkpt><trkpt lat="42.58696883444186" lon="-2.1401731351570987"><ele>507.0</ele><time>2026-03-22T15:53:00.999Z</time></trkpt><trkpt lat="42.58670889268114" lon="-2.1404625116377374"><ele>506.5</ele><time>2026-03-22T15:53:01.999Z</time></trkpt><trkpt lat="42.58646034786307" lon="-2.140769635911825"><ele>506.0</ele><time>2026-03-22T15:53:02.999Z</time></trkpt><trkpt lat="42.58622617578129" lon="-2.141094687696579"><ele>505.0</ele><time>2026-03-22T15:53:03.999Z</time></trkpt><trkpt lat="42.58600641125358" lon="-2.1414337666947607"><ele>504.0</ele><time>2026-03-22T15:53:04.999Z</time></trkpt><trkpt lat="42.58579702834749" lon="-2.141783234743581"><ele>504.0</ele><time>2026-03-22T15:53:05.999Z</time></trkpt><trkpt lat="42.58559097359495" lon="-2.142140286396951"><ele>504.0</ele><time>2026-03-22T15:53:06.999Z</time></trkpt><trkpt lat="42.58538172637627" lon="-2.142492978784582"><ele>504.0</ele><time>2026-03-22T15:53:07.999Z</time></trkpt><trkpt lat="42.585166897184756" lon="-2.142839800518877"><ele>504.0</ele><time>2026-03-22T15:53:08.999Z</time></trkpt><trkpt lat="42.584950714040595" lon="-2.1431835291179335"><ele>505.0</ele><time>2026-03-22T15:53:09.999Z</time></trkpt><trkpt lat="42.584735348284404" lon="-2.1435251492595393"><ele>506.0</ele><time>2026-03-22T15:53:10.999Z</time></trkpt><trkpt lat="42.584520524821826" lon="-2.1438688996776913"><ele>507.5</ele><time>2026-03-22T15:53:11.999Z</time></trkpt><trkpt lat="42.584304587360414" lon="-2.1442127623591283"><ele>509.0</ele><time>2026-03-22T15:53:12.999Z</time></trkpt><trkpt lat="42.58408773516368" lon="-2.144557230210341"><ele>509.0</ele><time>2026-03-22T15:53:13.999Z</time></trkpt><trkpt lat="42.58386845996011" lon="-2.144902571323127"><ele>509.0</ele><time>2026-03-22T15:53:14.999Z</time></trkpt><trkpt lat="42.58364734440732" lon="-2.14524652948298"><ele>508.5</ele><time>2026-03-22T15:53:15.999Z</time></trkpt><trkpt lat="42.58342847055172" lon="-2.145591460744009"><ele>508.0</ele><time>2026-03-22T15:53:16.999Z</time></trkpt><trkpt lat="42.58320975355354" lon="-2.145933954286135"><ele>508.0</ele><time>2026-03-22T15:53:17.999Z</time></trkpt><trkpt lat="42.58299099263381" lon="-2.1462719105860963"><ele>508.0</ele><time>2026-03-22T15:53:18.999Z</time></trkpt><trkpt lat="42.58277060426137" lon="-2.1466096151873684"><ele>506.5</ele><time>2026-03-22T15:53:19.999Z</time></trkpt><trkpt lat="42.582548036502054" lon="-2.146943872789824"><ele>505.0</ele><time>2026-03-22T15:53:20.999Z</time></trkpt><trkpt lat="42.58232470574467" lon="-2.147278629205558"><ele>503.5</ele><time>2026-03-22T15:53:21.999Z</time></trkpt><trkpt lat="42.58210127575842" lon="-2.147610058117435"><ele>502.0</ele><time>2026-03-22T15:53:22.999Z</time></trkpt><trkpt lat="42.58187704888808" lon="-2.1479425705955966"><ele>499.0</ele><time>2026-03-22T15:53:23.999Z</time></trkpt><trkpt lat="42.58165278024406" lon="-2.148274010598652"><ele>496.0</ele><time>2026-03-22T15:53:24.999Z</time></trkpt><trkpt lat="42.58142869616347" lon="-2.1486005788748783"><ele>496.0</ele><time>2026-03-22T15:53:25.999Z</time></trkpt><trkpt lat="42.58120403682988" lon="-2.1489278583170384"><ele>496.0</ele><time>2026-03-22T15:53:26.999Z</time></trkpt><trkpt lat="42.58097734743788" lon="-2.1492526045662776"><ele>497.5</ele><time>2026-03-22T15:53:27.999Z</time></trkpt><trkpt lat="42.58075217295576" lon="-2.1495768072748453"><ele>499.0</ele><time>2026-03-22T15:53:28.999Z</time></trkpt><trkpt lat="42.58052655329419" lon="-2.14989966099834"><ele>498.0</ele><time>2026-03-22T15:53:29.999Z</time></trkpt><trkpt lat="42.5803011786854" lon="-2.1502199093909797"><ele>497.0</ele><time>2026-03-22T15:53:30.999Z</time></trkpt><trkpt lat="42.580076213326755" lon="-2.150539063713256"><ele>497.0</ele><time>2026-03-22T15:53:31.999Z</time></trkpt><trkpt lat="42.57985066378681" lon="-2.150856862611023"><ele>497.0</ele><time>2026-03-22T15:53:32.999Z</time></trkpt><trkpt lat="42.57962079876993" lon="-2.1511731695162633"><ele>493.0</ele><time>2026-03-22T15:53:33.999Z</time></trkpt><trkpt lat="42.57939088946258" lon="-2.1514832738487524"><ele>489.0</ele><time>2026-03-22T15:53:34.999Z</time></trkpt><trkpt lat="42.57915726022676" lon="-2.151792892067004"><ele>489.0</ele><time>2026-03-22T15:53:35.999Z</time></trkpt><trkpt lat="42.57892267709265" lon="-2.1521026317829124"><ele>489.0</ele><time>2026-03-22T15:53:36.999Z</time></trkpt><trkpt lat="42.578690815216554" lon="-2.1524164079359016"><ele>488.0</ele><time>2026-03-22T15:53:37.999Z</time></trkpt><trkpt lat="42.57845790439243" lon="-2.152724726041427"><ele>487.0</ele><time>2026-03-22T15:53:38.998Z</time></trkpt><trkpt lat="42.57822318395721" lon="-2.153029244375606"><ele>489.0</ele><time>2026-03-22T15:53:39.998Z</time></trkpt><trkpt lat="42.577989155408304" lon="-2.153331788431658"><ele>491.0</ele><time>2026-03-22T15:53:40.998Z</time></trkpt><trkpt lat="42.577755194205125" lon="-2.153636264430166"><ele>491.0</ele><time>2026-03-22T15:53:41.998Z</time></trkpt><trkpt lat="42.57752454641691" lon="-2.1539439807436955"><ele>491.0</ele><time>2026-03-22T15:53:42.998Z</time></trkpt><trkpt lat="42.577292779296954" lon="-2.154252455489838"><ele>493.0</ele><time>2026-03-22T15:53:43.998Z</time></trkpt><trkpt lat="42.57705736949067" lon="-2.154554319160182"><ele>495.0</ele><time>2026-03-22T15:53:44.998Z</time></trkpt><trkpt lat="42.576818105184785" lon="-2.1548545512610806"><ele>491.0</ele><time>2026-03-22T15:53:45.998Z</time></trkpt><trkpt lat="42.57657595963001" lon="-2.1551519968675503"><ele>487.0</ele><time>2026-03-22T15:53:46.998Z</time></trkpt><trkpt lat="42.57633271039438" lon="-2.1554474734061206"><ele>482.0</ele><time>2026-03-22T15:53:47.998Z</time></trkpt><trkpt lat="42.57609351167593" lon="-2.1557412485346528"><ele>477.0</ele><time>2026-03-22T15:53:48.998Z</time></trkpt><trkpt lat="42.57585423630926" lon="-2.1560386114810015"><ele>477.0</ele><time>2026-03-22T15:53:49.998Z</time></trkpt><trkpt lat="42.57561621388581" lon="-2.156336605224833"><ele>477.0</ele><time>2026-03-22T15:53:50.998Z</time></trkpt><trkpt lat="42.57537814381811" lon="-2.156633640816534"><ele>474.5</ele><time>2026-03-22T15:53:51.998Z</time></trkpt><trkpt lat="42.57513745681557" lon="-2.156930350283781"><ele>472.0</ele><time>2026-03-22T15:53:52.998Z</time></trkpt><trkpt lat="42.574893273090055" lon="-2.1572245180581664"><ele>471.5</ele><time>2026-03-22T15:53:54Z</time></trkpt><trkpt lat="42.57464969553217" lon="-2.1575165489059027"><ele>471.0</ele><time>2026-03-22T15:53:55Z</time></trkpt><trkpt lat="42.574407072196585" lon="-2.157809810343208"><ele>470.0</ele><time>2026-03-22T15:53:56Z</time></trkpt><trkpt lat="42.57416863954385" lon="-2.158105512737026"><ele>469.0</ele><time>2026-03-22T15:53:57Z</time></trkpt><trkpt lat="42.57393531772448" lon="-2.1584029432175855"><ele>469.0</ele><time>2026-03-22T15:53:58Z</time></trkpt><trkpt lat="42.57370647229734" lon="-2.1587018037942216"><ele>469.0</ele><time>2026-03-22T15:53:59Z</time></trkpt><trkpt lat="42.57347953640492" lon="-2.158999131362645"><ele>469.0</ele><time>2026-03-22T15:54:00Z</time></trkpt><trkpt lat="42.5732537756876" lon="-2.159296847999678"><ele>469.0</ele><time>2026-03-22T15:54:01Z</time></trkpt><trkpt lat="42.57303088961007" lon="-2.1595964665700964"><ele>470.5</ele><time>2026-03-22T15:54:02Z</time></trkpt><trkpt lat="42.57280709802424" lon="-2.1598969934148897"><ele>472.0</ele><time>2026-03-22T15:54:03Z</time></trkpt><trkpt lat="42.572585285442244" lon="-2.1601965354440646"><ele>472.0</ele><time>2026-03-22T15:54:04Z</time></trkpt><trkpt lat="42.572362369208655" lon="-2.1605025609514574"><ele>472.0</ele><time>2026-03-22T15:54:05Z</time></trkpt><trkpt lat="42.57214139430536" lon="-2.1608098079607037"><ele>467.5</ele><time>2026-03-22T15:54:06Z</time></trkpt><trkpt lat="42.571920369239166" lon="-2.1611220066107224"><ele>463.0</ele><time>2026-03-22T15:54:07Z</time></trkpt><trkpt lat="42.57169916383579" lon="-2.161437865804365"><ele>463.5</ele><time>2026-03-22T15:54:08Z</time></trkpt><trkpt lat="42.5714778842463" lon="-2.1617590740634953"><ele>464.0</ele><time>2026-03-22T15:54:09Z</time></trkpt><trkpt lat="42.57125839529598" lon="-2.162081297321143"><ele>459.0</ele><time>2026-03-22T15:54:10Z</time></trkpt><trkpt lat="42.5710407282984" lon="-2.1624032810079914"><ele>454.0</ele><time>2026-03-22T15:54:11Z</time></trkpt><trkpt lat="42.5708256468941" lon="-2.1627266624939674"><ele>454.0</ele><time>2026-03-22T15:54:12Z</time></trkpt><trkpt lat="42.57061544677037" lon="-2.1630519949166715"><ele>454.0</ele><time>2026-03-22T15:54:13Z</time></trkpt><trkpt lat="42.570412265067134" lon="-2.1633792349957854"><ele>452.5</ele><time>2026-03-22T15:54:14Z</time></trkpt><trkpt lat="42.570211751910215" lon="-2.163707095722211"><ele>451.0</ele><time>2026-03-22T15:54:15Z</time></trkpt><trkpt lat="42.57001090758531" lon="-2.164038018331178"><ele>450.5</ele><time>2026-03-22T15:54:16Z</time></trkpt><trkpt lat="42.569808995727406" lon="-2.164367828672287"><ele>450.0</ele><time>2026-03-22T15:54:17Z</time></trkpt><trkpt lat="42.56960706931798" lon="-2.164691899526487"><ele>449.0</ele><time>2026-03-22T15:54:18Z</time></trkpt><trkpt lat="42.56940488562268" lon="-2.165015662014627"><ele>448.0</ele><time>2026-03-22T15:54:19Z</time></trkpt><trkpt lat="42.569205612686666" lon="-2.165342683347066"><ele>448.0</ele><time>2026-03-22T15:54:20Z</time></trkpt><trkpt lat="42.569011356834544" lon="-2.1656686578672697"><ele>448.0</ele><time>2026-03-22T15:54:21Z</time></trkpt><trkpt lat="42.568822677112216" lon="-2.1659957108442223"><ele>448.0</ele><time>2026-03-22T15:54:22Z</time></trkpt><trkpt lat="42.56863972304825" lon="-2.1663236079899164"><ele>448.0</ele><time>2026-03-22T15:54:23Z</time></trkpt><trkpt lat="42.56845905297836" lon="-2.166652100378334"><ele>448.0</ele><time>2026-03-22T15:54:24Z</time></trkpt><trkpt lat="42.568274823965794" lon="-2.1669795445516975"><ele>448.0</ele><time>2026-03-22T15:54:25Z</time></trkpt><trkpt lat="42.568088502678734" lon="-2.1673073282933277"><ele>448.0</ele><time>2026-03-22T15:54:26Z</time></trkpt><trkpt lat="42.567905409417584" lon="-2.16763952264766"><ele>448.0</ele><time>2026-03-22T15:54:27Z</time></trkpt><trkpt lat="42.56772368134228" lon="-2.1679694847585775"><ele>449.0</ele><time>2026-03-22T15:54:28Z</time></trkpt><trkpt lat="42.567548078986235" lon="-2.1683041661543245"><ele>450.0</ele><time>2026-03-22T15:54:29Z</time></trkpt><trkpt lat="42.56737532590443" lon="-2.1686443956375907"><ele>450.0</ele><time>2026-03-22T15:54:30Z</time></trkpt><trkpt lat="42.567202478284464" lon="-2.168980797139863"><ele>450.0</ele><time>2026-03-22T15:54:31Z</time></trkpt><trkpt lat="42.567032404006454" lon="-2.169323056897351"><ele>449.5</ele><time>2026-03-22T15:54:32Z</time></trkpt><trkpt lat="42.566864756308206" lon="-2.169665802552847"><ele>449.0</ele><time>2026-03-22T15:54:33Z</time></trkpt><trkpt lat="42.56669668998882" lon="-2.1700012640451445"><ele>448.5</ele><time>2026-03-22T15:54:34Z</time></trkpt><trkpt lat="42.56652743856203" lon="-2.1703323334961704"><ele>448.0</ele><time>2026-03-22T15:54:35Z</time></trkpt><trkpt lat="42.566362991665386" lon="-2.170664641984515"><ele>447.0</ele><time>2026-03-22T15:54:36Z</time></trkpt><trkpt lat="42.566201694110056" lon="-2.1710028868594042"><ele>446.0</ele><time>2026-03-22T15:54:37Z</time></trkpt><trkpt lat="42.56604171078884" lon="-2.1713393180943092"><ele>446.5</ele><time>2026-03-22T15:54:38Z</time></trkpt><trkpt lat="42.56587907537382" lon="-2.171673558732229"><ele>447.0</ele><time>2026-03-22T15:54:39Z</time></trkpt><trkpt lat="42.56571485891208" lon="-2.172004482941263"><ele>447.0</ele><time>2026-03-22T15:54:40Z</time></trkpt><trkpt lat="42.56554802855817" lon="-2.1723355401196787"><ele>447.0</ele><time>2026-03-22T15:54:41Z</time></trkpt><trkpt lat="42.56537972634239" lon="-2.172664420249062"><ele>447.0</ele><time>2026-03-22T15:54:42Z</time></trkpt><trkpt lat="42.565208676627854" lon="-2.1729934323219604"><ele>447.0</ele><time>2026-03-22T15:54:43Z</time></trkpt><trkpt lat="42.56503690883083" lon="-2.173320581204292"><ele>446.0</ele><time>2026-03-22T15:54:43.999Z</time></trkpt><trkpt lat="42.56486356006056" lon="-2.173648282616127"><ele>445.0</ele><time>2026-03-22T15:54:44.999Z</time></trkpt><trkpt lat="42.56469210984879" lon="-2.17397728174668"><ele>443.5</ele><time>2026-03-22T15:54:45.999Z</time></trkpt><trkpt lat="42.56451967901121" lon="-2.1743051311596537"><ele>442.0</ele><time>2026-03-22T15:54:46.999Z</time></trkpt><trkpt lat="42.56434455423217" lon="-2.174630929269713"><ele>440.5</ele><time>2026-03-22T15:54:47.999Z</time></trkpt><trkpt lat="42.564167909572404" lon="-2.1749533694279544"><ele>439.0</ele><time>2026-03-22T15:54:48.999Z</time></trkpt><trkpt lat="42.56399025382706" lon="-2.1752740910509307"><ele>439.0</ele><time>2026-03-22T15:54:49.999Z</time></trkpt><trkpt lat="42.5638165950097" lon="-2.1755960404401"><ele>439.0</ele><time>2026-03-22T15:54:50.999Z</time></trkpt><trkpt lat="42.56364515593864" lon="-2.1759235578117995"><ele>438.0</ele><time>2026-03-22T15:54:51.999Z</time></trkpt><trkpt lat="42.56348155194848" lon="-2.176247070010428"><ele>437.0</ele><time>2026-03-22T15:54:52.999Z</time></trkpt><trkpt lat="42.56329705395833" lon="-2.1765638554827205"><ele>437.0</ele><time>2026-03-22T15:54:53.999Z</time></trkpt><trkpt lat="42.56312067937705" lon="-2.1768779779224854"><ele>437.0</ele><time>2026-03-22T15:54:54.999Z</time></trkpt><trkpt lat="42.562944794269754" lon="-2.1771833695345606"><ele>437.5</ele><time>2026-03-22T15:54:55.999Z</time></trkpt><trkpt lat="42.56277369923907" lon="-2.177485758984613"><ele>438.0</ele><time>2026-03-22T15:54:56.999Z</time></trkpt><trkpt lat="42.562601211469115" lon="-2.1777931308273817"><ele>438.0</ele><time>2026-03-22T15:54:57.999Z</time></trkpt><trkpt lat="42.56242782967425" lon="-2.1780967231198316"><ele>438.0</ele><time>2026-03-22T15:54:58.999Z</time></trkpt><trkpt lat="42.56225825994449" lon="-2.1784001694091213"><ele>439.0</ele><time>2026-03-22T15:54:59.999Z</time></trkpt><trkpt lat="42.56209352774749" lon="-2.1787034438440487"><ele>440.0</ele><time>2026-03-22T15:55:00.999Z</time></trkpt><trkpt lat="42.56192793449229" lon="-2.179000924631223"><ele>440.5</ele><time>2026-03-22T15:55:01.999Z</time></trkpt><trkpt lat="42.56176089090175" lon="-2.179291820431745"><ele>441.0</ele><time>2026-03-22T15:55:02.999Z</time></trkpt><trkpt lat="42.561593867626684" lon="-2.179578444696978"><ele>441.0</ele><time>2026-03-22T15:55:03.999Z</time></trkpt><trkpt lat="42.56143643442295" lon="-2.1798463332840248"><ele>441.0</ele><time>2026-03-22T15:55:04.999Z</time></trkpt><trkpt lat="42.56129396449335" lon="-2.180091480798465"><ele>441.0</ele><time>2026-03-22T15:55:05.999Z</time></trkpt><trkpt lat="42.56116232800908" lon="-2.1803118680189946"><ele>441.0</ele><time>2026-03-22T15:55:06.999Z</time></trkpt><trkpt lat="42.561038585304075" lon="-2.180521172722064"><ele>441.0</ele><time>2026-03-22T15:55:07.999Z</time></trkpt><trkpt lat="42.56092178097598" lon="-2.1807239445640993"><ele>441.0</ele><time>2026-03-22T15:55:08.999Z</time></trkpt><trkpt lat="42.5608188746638" lon="-2.1808914473105534"><ele>441.0</ele><time>2026-03-22T15:55:09.999Z</time></trkpt><trkpt lat="42.56077844390656" lon="-2.1810970126241016"><ele>441.0</ele><time>2026-03-22T15:55:10.999Z</time></trkpt><trkpt lat="42.56074186683698" lon="-2.1812824347417505"><ele>441.0</ele><time>2026-03-22T15:55:11.999Z</time></trkpt><trkpt lat="42.56072663620168" lon="-2.181475464700302"><ele>441.0</ele><time>2026-03-22T15:55:12.999Z</time></trkpt><trkpt lat="42.56073754948055" lon="-2.1816772885744995"><ele>441.0</ele><time>2026-03-22T15:55:13.999Z</time></trkpt><trkpt lat="42.56076607007455" lon="-2.181865662496289"><ele>441.0</ele><time>2026-03-22T15:55:14.999Z</time></trkpt><trkpt lat="42.560790612002435" lon="-2.182042596300872"><ele>441.0</ele><time>2026-03-22T15:55:15.999Z</time></trkpt><trkpt lat="42.56078942288861" lon="-2.1822180041983725"><ele>441.0</ele><time>2026-03-22T15:55:16.999Z</time></trkpt><trkpt lat="42.56075916556178" lon="-2.1823845275204627"><ele>441.0</ele><time>2026-03-22T15:55:17.999Z</time></trkpt><trkpt lat="42.56070386073252" lon="-2.1825500096145247"><ele>441.0</ele><time>2026-03-22T15:55:18.999Z</time></trkpt><trkpt lat="42.56063328474191" lon="-2.18271354540426"><ele>441.0</ele><time>2026-03-22T15:55:19.999Z</time></trkpt><trkpt lat="42.560568891523836" lon="-2.182884439287501"><ele>441.0</ele><time>2026-03-22T15:55:20.999Z</time></trkpt><trkpt lat="42.560528802976144" lon="-2.1830578608900852"><ele>441.0</ele><time>2026-03-22T15:55:21.999Z</time></trkpt><trkpt lat="42.56049859260072" lon="-2.183220471436495"><ele>441.0</ele><time>2026-03-22T15:55:22.999Z</time></trkpt><trkpt lat="42.560513245843865" lon="-2.1833796405207915"><ele>440.5</ele><time>2026-03-22T15:55:23.999Z</time></trkpt><trkpt lat="42.560539729326855" lon="-2.18351884523764"><ele>440.0</ele><time>2026-03-22T15:55:24.999Z</time></trkpt><trkpt lat="42.560597468417825" lon="-2.1835973784881384"><ele>439.5</ele><time>2026-03-22T15:55:25.999Z</time></trkpt><trkpt lat="42.56062543541786" lon="-2.1836956561973193"><ele>439.0</ele><time>2026-03-22T15:55:27.999Z</time></trkpt><trkpt lat="42.56068374553217" lon="-2.1837304625032194"><ele>438.5</ele><time>2026-03-22T15:55:28.999Z</time></trkpt><trkpt lat="42.56072309409537" lon="-2.183810338788085"><ele>438.0</ele><time>2026-03-22T15:55:29.999Z</time></trkpt><trkpt lat="42.56074866749508" lon="-2.183920301331845"><ele>437.5</ele><time>2026-03-22T15:55:30.999Z</time></trkpt><trkpt lat="42.56075409049869" lon="-2.1840367272009598"><ele>437.0</ele><time>2026-03-22T15:55:31.999Z</time></trkpt><trkpt lat="42.560728468365504" lon="-2.18413744140625"><ele>436.5</ele><time>2026-03-22T15:55:32.999Z</time></trkpt><trkpt lat="42.56067850472937" lon="-2.184213796727398"><ele>436.0</ele><time>2026-03-22T15:55:33.999Z</time></trkpt><trkpt lat="42.56061235659316" lon="-2.184254628093952"><ele>435.5</ele><time>2026-03-22T15:55:34.999Z</time></trkpt><trkpt lat="42.5605412015466" lon="-2.184258325311846"><ele>435.0</ele><time>2026-03-22T15:55:35.999Z</time></trkpt><trkpt lat="42.56047093632924" lon="-2.184230657862635"><ele>435.0</ele><time>2026-03-22T15:55:36.999Z</time></trkpt><trkpt lat="42.56040282692006" lon="-2.184170343352527"><ele>435.0</ele><time>2026-03-22T15:55:37.999Z</time></trkpt><trkpt lat="42.560340353528964" lon="-2.184075551747753"><ele>435.0</ele><time>2026-03-22T15:55:38.999Z</time></trkpt><trkpt lat="42.56029275660781" lon="-2.18395752987264"><ele>435.0</ele><time>2026-03-22T15:55:39.999Z</time></trkpt><trkpt lat="42.560287683895254" lon="-2.183830338071898"><ele>435.0</ele><time>2026-03-22T15:55:40.999Z</time></trkpt><trkpt lat="42.56016130018415" lon="-2.183749783988004"><ele>435.5</ele><time>2026-03-22T15:55:41.999Z</time></trkpt><trkpt lat="42.56004247845275" lon="-2.1837019011030883"><ele>436.0</ele><time>2026-03-22T15:55:42.998Z</time></trkpt><trkpt lat="42.559915449780796" lon="-2.1836207007043664"><ele>436.5</ele><time>2026-03-22T15:55:43.998Z</time></trkpt><trkpt lat="42.55977587207777" lon="-2.183556048914418"><ele>437.0</ele><time>2026-03-22T15:55:44.998Z</time></trkpt><trkpt lat="42.55963174133573" lon="-2.183478978563941"><ele>436.3333333333333</ele><time>2026-03-22T15:55:45.998Z</time></trkpt><trkpt lat="42.55947304953144" lon="-2.1833887685882867"><ele>435.66666666666663</ele><time>2026-03-22T15:55:46.998Z</time></trkpt><trkpt lat="42.55930413639287" lon="-2.183295125867074"><ele>435.0</ele><time>2026-03-22T15:55:47.998Z</time></trkpt><trkpt lat="42.559127013416436" lon="-2.1831998180440526"><ele>435.33333333333337</ele><time>2026-03-22T15:55:48.998Z</time></trkpt><trkpt lat="42.558947087951374" lon="-2.18309845635595"><ele>435.6666666666667</ele><time>2026-03-22T15:55:49.998Z</time></trkpt><trkpt lat="42.558771122122636" lon="-2.1829822237802197"><ele>436.0</ele><time>2026-03-22T15:55:50.998Z</time></trkpt><trkpt lat="42.55860525528189" lon="-2.1828515918186713"><ele>436.0</ele><time>2026-03-22T15:55:51.998Z</time></trkpt><trkpt lat="42.55844084835611" lon="-2.1827365347724075"><ele>436.0</ele><time>2026-03-22T15:55:52.998Z</time></trkpt><trkpt lat="42.55829360844159" lon="-2.1826083422874722"><ele>436.0</ele><time>2026-03-22T15:55:53.998Z</time></trkpt><trkpt lat="42.55816664053492" lon="-2.1824914553850303"><ele>436.0</ele><time>2026-03-22T15:55:54.998Z</time></trkpt><trkpt lat="42.55806120959794" lon="-2.182388968514942"><ele>436.0</ele><time>2026-03-22T15:55:55.998Z</time></trkpt><trkpt lat="42.55797433692239" lon="-2.1823037520978805"><ele>436.0</ele><time>2026-03-22T15:55:56.998Z</time></trkpt><trkpt lat="42.55788114485059" lon="-2.1822616813243716"><ele>436.0</ele><time>2026-03-22T15:55:57.998Z</time></trkpt><trkpt lat="42.557803410301375" lon="-2.1822180759656966"><ele>436.0</ele><time>2026-03-22T15:55:58.998Z</time></trkpt><trkpt lat="42.55768438219466" lon="-2.182261277655979"><ele>435.8</ele><time>2026-03-22T15:56:00Z</time></trkpt><trkpt lat="42.557587449144904" lon="-2.1822627405003443"><ele>435.6</ele><time>2026-03-22T15:56:01Z</time></trkpt><trkpt lat="42.55749642089009" lon="-2.1822126736955183"><ele>435.4</ele><time>2026-03-22T15:56:02Z</time></trkpt><trkpt lat="42.557428655809545" lon="-2.182104931529614"><ele>435.2</ele><time>2026-03-22T15:56:03Z</time></trkpt><trkpt lat="42.55735628887872" lon="-2.1819914750948577"><ele>435.0</ele><time>2026-03-22T15:56:04Z</time></trkpt><trkpt lat="42.55729629052734" lon="-2.181850114008301"><ele>435.0</ele><time>2026-03-22T15:56:05Z</time></trkpt><trkpt lat="42.5572037121873" lon="-2.1817277537941604"><ele>435.0</ele><time>2026-03-22T15:56:06Z</time></trkpt><trkpt lat="42.55708911430047" lon="-2.18162042651979"><ele>435.0</ele><time>2026-03-22T15:56:07Z</time></trkpt><trkpt lat="42.55696289951139" lon="-2.1815135336680527"><ele>435.0</ele><time>2026-03-22T15:56:08Z</time></trkpt><trkpt lat="42.55683542014648" lon="-2.18140004528626"><ele>435.25</ele><time>2026-03-22T15:56:09Z</time></trkpt><trkpt lat="42.55670834338024" lon="-2.1812910675459376"><ele>435.5</ele><time>2026-03-22T15:56:10Z</time></trkpt><trkpt lat="42.55658548091276" lon="-2.181191704448275"><ele>435.75</ele><time>2026-03-22T15:56:11Z</time></trkpt><trkpt lat="42.556465235404396" lon="-2.1811005651348863"><ele>436.0</ele><time>2026-03-22T15:56:12Z</time></trkpt><trkpt lat="42.55635208151254" lon="-2.1810187892687054"><ele>436.0</ele><time>2026-03-22T15:56:13Z</time></trkpt><trkpt lat="42.55624789998259" lon="-2.1809482489452092"><ele>436.0</ele><time>2026-03-22T15:56:14Z</time></trkpt><trkpt lat="42.55615996708974" lon="-2.1808849572350044"><ele>436.0</ele><time>2026-03-22T15:56:15Z</time></trkpt><trkpt lat="42.556088637409985" lon="-2.180835719207688"><ele>436.0</ele><time>2026-03-22T15:56:16Z</time></trkpt><trkpt lat="42.55602679289444" lon="-2.180803043826437"><ele>436.0</ele><time>2026-03-22T15:56:17Z</time></trkpt><trkpt lat="42.555934835951085" lon="-2.1807548905260252"><ele>434.4</ele><time>2026-03-22T15:56:19Z</time></trkpt><trkpt lat="42.55585654834874" lon="-2.180699021217243"><ele>432.8</ele><time>2026-03-22T15:56:22Z</time></trkpt><trkpt lat="42.555754332569634" lon="-2.180813917155725"><ele>431.19999999999993</ele><time>2026-03-22T15:56:24Z</time></trkpt><trkpt lat="42.555691518426556" lon="-2.180802515084421"><ele>429.59999999999997</ele><time>2026-03-22T15:56:26Z</time></trkpt><trkpt lat="42.55557291216005" lon="-2.1807399720545937"><ele>428.0</ele><time>2026-03-22T15:56:28Z</time></trkpt><trkpt lat="42.555501967870505" lon="-2.180684931646668"><ele>427.59999999999997</ele><time>2026-03-22T15:56:29Z</time></trkpt><trkpt lat="42.555436192735606" lon="-2.180634986614947"><ele>427.19999999999993</ele><time>2026-03-22T15:56:30Z</time></trkpt><trkpt lat="42.55534529712518" lon="-2.1805934023153752"><ele>426.8</ele><time>2026-03-22T15:56:32Z</time></trkpt><trkpt lat="42.555291835473504" lon="-2.18066776208359"><ele>426.4</ele><time>2026-03-22T15:56:35Z</time></trkpt><trkpt lat="42.55530137532438" lon="-2.180758813506529"><ele>426.0</ele><time>2026-03-22T15:56:37Z</time></trkpt><trkpt lat="42.55505344022863" lon="-2.1806296660234974"><ele>427.0</ele><time>2026-03-22T15:56:38Z</time></trkpt><trkpt lat="42.555425271585094" lon="-2.1808106300960497"><ele>428.0</ele><time>2026-03-22T15:56:42Z</time></trkpt><trkpt lat="42.555496299512505" lon="-2.180765429625679"><ele>427.99999999999994</ele><time>2026-03-22T15:56:44Z</time></trkpt><trkpt lat="42.55556316925748" lon="-2.1808283238709225"><ele>428.0</ele><time>2026-03-22T15:56:46.999Z</time></trkpt><trkpt lat="42.555526449647786" lon="-2.1809185097475403"><ele>428.0</ele><time>2026-03-22T15:56:49.999Z</time></trkpt><trkpt lat="42.55545561039335" lon="-2.1808786513400684"><ele>428.0</ele><time>2026-03-22T15:59:58.998Z</time></trkpt><trkpt lat="42.55537808971648" lon="-2.1808174068761157"><ele>427.99999999999994</ele><time>2026-03-22T16:00:00.998Z</time></trkpt><trkpt lat="42.555300249008596" lon="-2.180708264108008"><ele>428.0</ele><time>2026-03-22T16:00:02.998Z</time></trkpt><trkpt lat="42.55519269618815" lon="-2.180602088600418"><ele>427.59999999999997</ele><time>2026-03-22T16:00:04.998Z</time></trkpt><trkpt lat="42.555183308674984" lon="-2.180425530925141"><ele>427.19999999999993</ele><time>2026-03-22T16:00:05.998Z</time></trkpt><trkpt lat="42.555094480545115" lon="-2.1803595244807537"><ele>426.8</ele><time>2026-03-22T16:00:07.998Z</time></trkpt><trkpt lat="42.555031688008846" lon="-2.1803406567638253"><ele>426.4</ele><time>2026-03-22T16:00:12Z</time></trkpt><trkpt lat="42.555074440090245" lon="-2.1801805261521983"><ele>426.0</ele><time>2026-03-22T16:02:08.998Z</time></trkpt><trkpt lat="42.55506744225423" lon="-2.180066282293515"><ele>426.0</ele><time>2026-03-22T16:02:10.998Z</time></trkpt><trkpt lat="42.55494813196588" lon="-2.1800188631049116"><ele>426.0</ele><time>2026-03-22T16:02:11.998Z</time></trkpt><trkpt lat="42.554873590826176" lon="-2.1799716269125167"><ele>426.0</ele><time>2026-03-22T16:02:12.998Z</time></trkpt><trkpt lat="42.554795338829685" lon="-2.1799158167322754"><ele>426.0</ele><time>2026-03-22T16:02:13.998Z</time></trkpt><trkpt lat="42.55470283894484" lon="-2.179848571430561"><ele>426.0</ele><time>2026-03-22T16:02:14.998Z</time></trkpt><trkpt lat="42.554600459544" lon="-2.1797720726847096"><ele>426.5</ele><time>2026-03-22T16:02:15.998Z</time></trkpt><trkpt lat="42.55448774767999" lon="-2.179685764447"><ele>427.0</ele><time>2026-03-22T16:02:16.998Z</time></trkpt><trkpt lat="42.55436942671806" lon="-2.179596961358935"><ele>427.5</ele><time>2026-03-22T16:02:18Z</time></trkpt><trkpt lat="42.55425186716412" lon="-2.1795138872714204"><ele>428.0</ele><time>2026-03-22T16:02:19Z</time></trkpt><trkpt lat="42.554143294555004" lon="-2.1794484575275095"><ele>428.0</ele><time>2026-03-22T16:02:20Z</time></trkpt><trkpt lat="42.55404271443859" lon="-2.1794146877169815"><ele>427.99999999999994</ele><time>2026-03-22T16:02:21Z</time></trkpt><trkpt lat="42.553943961104565" lon="-2.1794153985960967"><ele>427.99999999999994</ele><time>2026-03-22T16:02:22Z</time></trkpt><trkpt lat="42.55383406365475" lon="-2.17943263129368"><ele>428.0</ele><time>2026-03-22T16:02:23Z</time></trkpt><trkpt lat="42.55375103268212" lon="-2.1794318169501965"><ele>428.0</ele><time>2026-03-22T16:02:24Z</time></trkpt><trkpt lat="42.55366525310379" lon="-2.1794115130946246"><ele>428.3333333333333</ele><time>2026-03-22T16:02:25Z</time></trkpt><trkpt lat="42.55358558239437" lon="-2.1793773643264456"><ele>428.66666666666663</ele><time>2026-03-22T16:02:26Z</time></trkpt><trkpt lat="42.5535128104722" lon="-2.1793251901992323"><ele>429.0</ele><time>2026-03-22T16:02:27Z</time></trkpt><trkpt lat="42.553454003868126" lon="-2.179241017810666"><ele>429.33333333333337</ele><time>2026-03-22T16:02:28Z</time></trkpt><trkpt lat="42.55342053805327" lon="-2.1791414326382346"><ele>429.6666666666667</ele><time>2026-03-22T16:02:29Z</time></trkpt><trkpt lat="42.55341654820788" lon="-2.179032318920461"><ele>430.0</ele><time>2026-03-22T16:02:30Z</time></trkpt><trkpt lat="42.55343542414231" lon="-2.1789294046902583"><ele>430.00000000000006</ele><time>2026-03-22T16:02:31Z</time></trkpt><trkpt lat="42.553476321424135" lon="-2.1788364672590137"><ele>430.0</ele><time>2026-03-22T16:02:32Z</time></trkpt><trkpt lat="42.55353493683049" lon="-2.17877276650401"><ele>430.0</ele><time>2026-03-22T16:02:33Z</time></trkpt><trkpt lat="42.553608778666344" lon="-2.1787271561160235"><ele>430.0</ele><time>2026-03-22T16:02:34Z</time></trkpt><trkpt lat="42.553691529259154" lon="-2.1787138111452924"><ele>430.00000000000006</ele><time>2026-03-22T16:02:35Z</time></trkpt><trkpt lat="42.5537770458255" lon="-2.1787407251032285"><ele>430.0</ele><time>2026-03-22T16:02:36Z</time></trkpt><trkpt lat="42.553852583616845" lon="-2.178801393493602"><ele>430.4</ele><time>2026-03-22T16:02:37Z</time></trkpt><trkpt lat="42.55391304700803" lon="-2.178893449055052"><ele>430.8</ele><time>2026-03-22T16:02:38Z</time></trkpt><trkpt lat="42.553964496378526" lon="-2.179004193788978"><ele>431.20000000000005</ele><time>2026-03-22T16:02:39Z</time></trkpt><trkpt lat="42.55402464827886" lon="-2.1791366424733867"><ele>431.6</ele><time>2026-03-22T16:02:40Z</time></trkpt><trkpt lat="42.554112840991316" lon="-2.1792602445935794"><ele>432.0</ele><time>2026-03-22T16:02:41Z</time></trkpt><trkpt lat="42.55420736876312" lon="-2.179407457659278"><ele>432.33333333333337</ele><time>2026-03-22T16:02:42Z</time></trkpt><trkpt lat="42.55438027009249" lon="-2.1794809604099865"><ele>432.6666666666667</ele><time>2026-03-22T16:02:43Z</time></trkpt><trkpt lat="42.55453780737509" lon="-2.1795875089228103"><ele>433.0</ele><time>2026-03-22T16:02:44Z</time></trkpt><trkpt lat="42.55468706196883" lon="-2.1796959169953505"><ele>433.0</ele><time>2026-03-22T16:02:45Z</time></trkpt><trkpt lat="42.55484681437259" lon="-2.1798220962835093"><ele>433.0</ele><time>2026-03-22T16:02:46Z</time></trkpt><trkpt lat="42.555017154657605" lon="-2.1799515721768374"><ele>433.0</ele><time>2026-03-22T16:02:47Z</time></trkpt><trkpt lat="42.55520091679902" lon="-2.1800816057420747"><ele>433.6666666666667</ele><time>2026-03-22T16:02:48Z</time></trkpt><trkpt lat="42.55539032127756" lon="-2.18021382201615"><ele>434.33333333333337</ele><time>2026-03-22T16:02:49Z</time></trkpt><trkpt lat="42.55557767848228" lon="-2.1803482949729474"><ele>435.0</ele><time>2026-03-22T16:02:50Z</time></trkpt><trkpt lat="42.55575881037602" lon="-2.1804865646177456"><ele>435.0</ele><time>2026-03-22T16:02:51Z</time></trkpt><trkpt lat="42.55594626069765" lon="-2.1806277191709613"><ele>435.0</ele><time>2026-03-22T16:02:52Z</time></trkpt><trkpt lat="42.556138848375696" lon="-2.180762953974934"><ele>435.0</ele><time>2026-03-22T16:02:53Z</time></trkpt><trkpt lat="42.556329754843155" lon="-2.1808996270860597"><ele>435.33333333333337</ele><time>2026-03-22T16:02:54Z</time></trkpt><trkpt lat="42.556509242848044" lon="-2.1810334736509462"><ele>435.6666666666667</ele><time>2026-03-22T16:02:55Z</time></trkpt><trkpt lat="42.5566728386839" lon="-2.1811599045424725"><ele>436.0</ele><time>2026-03-22T16:02:56Z</time></trkpt><trkpt lat="42.5568245106921" lon="-2.1812794877478496"><ele>436.0</ele><time>2026-03-22T16:02:57Z</time></trkpt><trkpt lat="42.55696309873247" lon="-2.181397221102307"><ele>436.0</ele><time>2026-03-22T16:02:58Z</time></trkpt><trkpt lat="42.557088480087195" lon="-2.181500131985101"><ele>436.0</ele><time>2026-03-22T16:02:59Z</time></trkpt><trkpt lat="42.55721400109459" lon="-2.1815834146112496"><ele>435.75</ele><time>2026-03-22T16:03:00Z</time></trkpt><trkpt lat="42.557336212635114" lon="-2.181628391457028"><ele>435.5</ele><time>2026-03-22T16:03:00.999Z</time></trkpt><trkpt lat="42.55745364167963" lon="-2.1816607027974486"><ele>435.25</ele><time>2026-03-22T16:03:01.999Z</time></trkpt><trkpt lat="42.55756641440007" lon="-2.1816897075684736"><ele>435.0</ele><time>2026-03-22T16:03:02.999Z</time></trkpt><trkpt lat="42.557663086169214" lon="-2.1817239279005674"><ele>435.0</ele><time>2026-03-22T16:03:03.999Z</time></trkpt><trkpt lat="42.55774101213175" lon="-2.1817927822390497"><ele>435.0</ele><time>2026-03-22T16:03:04.999Z</time></trkpt><trkpt lat="42.55780139907011" lon="-2.1818956158009706"><ele>435.0</ele><time>2026-03-22T16:03:05.999Z</time></trkpt><trkpt lat="42.5578468321711" lon="-2.18201540061163"><ele>435.0</ele><time>2026-03-22T16:03:06.999Z</time></trkpt><trkpt lat="42.5579034362998" lon="-2.1821459105362995"><ele>435.0</ele><time>2026-03-22T16:03:07.999Z</time></trkpt><trkpt lat="42.55799335657257" lon="-2.182274196369203"><ele>435.33333333333337</ele><time>2026-03-22T16:03:08.999Z</time></trkpt><trkpt lat="42.55811824537731" lon="-2.1823940815015423"><ele>435.6666666666667</ele><time>2026-03-22T16:03:09.999Z</time></trkpt><trkpt lat="42.55825124210793" lon="-2.182523805424"><ele>436.0</ele><time>2026-03-22T16:03:10.999Z</time></trkpt><trkpt lat="42.55839761325602" lon="-2.1826709918929548"><ele>436.0</ele><time>2026-03-22T16:03:11.999Z</time></trkpt><trkpt lat="42.55857024478662" lon="-2.1827908209761655"><ele>436.0</ele><time>2026-03-22T16:03:12.999Z</time></trkpt><trkpt lat="42.55873416491663" lon="-2.18293519813799"><ele>436.0</ele><time>2026-03-22T16:03:13.999Z</time></trkpt><trkpt lat="42.558912515375205" lon="-2.1830498393286457"><ele>435.6666666666667</ele><time>2026-03-22T16:03:14.999Z</time></trkpt><trkpt lat="42.55909024127432" lon="-2.183160383373103"><ele>435.33333333333337</ele><time>2026-03-22T16:03:15.999Z</time></trkpt><trkpt lat="42.55927764821872" lon="-2.18326937123359"><ele>435.0</ele><time>2026-03-22T16:03:16.999Z</time></trkpt><trkpt lat="42.559469649153556" lon="-2.1833518655049837"><ele>435.66666666666663</ele><time>2026-03-22T16:03:17.999Z</time></trkpt><trkpt lat="42.55964232167362" lon="-2.1834423652661608"><ele>436.3333333333333</ele><time>2026-03-22T16:03:18.999Z</time></trkpt><trkpt lat="42.55979882362184" lon="-2.183524957081641"><ele>437.0</ele><time>2026-03-22T16:03:19.999Z</time></trkpt><trkpt lat="42.55993569189922" lon="-2.1836149557975855"><ele>437.0</ele><time>2026-03-22T16:03:20.999Z</time></trkpt><trkpt lat="42.56007035814318" lon="-2.183659934523868"><ele>437.0</ele><time>2026-03-22T16:03:21.999Z</time></trkpt><trkpt lat="42.56019654806325" lon="-2.1836795531086173"><ele>437.0</ele><time>2026-03-22T16:03:22.999Z</time></trkpt><trkpt lat="42.560304545073706" lon="-2.1837072126765764"><ele>437.0</ele><time>2026-03-22T16:03:23.999Z</time></trkpt><trkpt lat="42.56041793102359" lon="-2.183671585862827"><ele>437.20000000000005</ele><time>2026-03-22T16:03:24.999Z</time></trkpt><trkpt lat="42.56052265303827" lon="-2.1836879609772257"><ele>437.40000000000003</ele><time>2026-03-22T16:03:25.999Z</time></trkpt><trkpt lat="42.56061630098522" lon="-2.1837422790274212"><ele>437.59999999999997</ele><time>2026-03-22T16:03:26.999Z</time></trkpt><trkpt lat="42.560690645951425" lon="-2.1838302467441606"><ele>437.79999999999995</ele><time>2026-03-22T16:03:27.999Z</time></trkpt><trkpt lat="42.560746725476406" lon="-2.183940775674804"><ele>438.0</ele><time>2026-03-22T16:03:28.999Z</time></trkpt><trkpt lat="42.560767106943466" lon="-2.1840287870606065"><ele>437.4</ele><time>2026-03-22T16:03:29.999Z</time></trkpt><trkpt lat="42.56073803652316" lon="-2.1841708987196866"><ele>436.79999999999995</ele><time>2026-03-22T16:03:31.999Z</time></trkpt><trkpt lat="42.56062098866321" lon="-2.184250101723715"><ele>436.2</ele><time>2026-03-22T16:03:33.999Z</time></trkpt><trkpt lat="42.56053188434949" lon="-2.184264508161604"><ele>435.6</ele><time>2026-03-22T16:03:34.999Z</time></trkpt><trkpt lat="42.560425537576236" lon="-2.1842472915395947"><ele>435.0</ele><time>2026-03-22T16:03:35.999Z</time></trkpt><trkpt lat="42.56031053489284" lon="-2.1842032390822586"><ele>433.66666666666663</ele><time>2026-03-22T16:03:36.999Z</time></trkpt><trkpt lat="42.56018181870955" lon="-2.1841557531912175"><ele>432.3333333333333</ele><time>2026-03-22T16:03:37.999Z</time></trkpt><trkpt lat="42.56003405842012" lon="-2.184116929280132"><ele>431.0</ele><time>2026-03-22T16:03:38.999Z</time></trkpt><trkpt lat="42.559869521891834" lon="-2.1840836548174836"><ele>431.0</ele><time>2026-03-22T16:03:39.999Z</time></trkpt><trkpt lat="42.559695174081405" lon="-2.1840528441716747"><ele>431.0</ele><time>2026-03-22T16:03:40.999Z</time></trkpt><trkpt lat="42.559526059468084" lon="-2.184037435801567"><ele>431.0</ele><time>2026-03-22T16:03:41.999Z</time></trkpt><trkpt lat="42.55934700596357" lon="-2.18404778325694"><ele>430.3333333333333</ele><time>2026-03-22T16:03:42.999Z</time></trkpt><trkpt lat="42.55915969138669" lon="-2.1840868593176936"><ele>429.66666666666663</ele><time>2026-03-22T16:03:43.999Z</time></trkpt><trkpt lat="42.55897236398303" lon="-2.1841582815158374"><ele>429.0</ele><time>2026-03-22T16:03:44.999Z</time></trkpt><trkpt lat="42.55879400126053" lon="-2.184256777922619"><ele>429.0</ele><time>2026-03-22T16:03:45.999Z</time></trkpt><trkpt lat="42.55862706657433" lon="-2.1843850852594326"><ele>429.0</ele><time>2026-03-22T16:03:46.999Z</time></trkpt><trkpt lat="42.55846507965279" lon="-2.1845445068497513"><ele>429.0</ele><time>2026-03-22T16:03:47.999Z</time></trkpt><trkpt lat="42.55830853078516" lon="-2.1847398184488123"><ele>429.5</ele><time>2026-03-22T16:03:48.999Z</time></trkpt><trkpt lat="42.558155116242034" lon="-2.1849703950200743"><ele>430.0</ele><time>2026-03-22T16:03:49.999Z</time></trkpt><trkpt lat="42.55799281251218" lon="-2.185204833899666"><ele>429.0</ele><time>2026-03-22T16:03:50.999Z</time></trkpt><trkpt lat="42.55782665140114" lon="-2.185435151489888"><ele>428.0</ele><time>2026-03-22T16:03:51.999Z</time></trkpt><trkpt lat="42.557649610352094" lon="-2.1856721825728247"><ele>429.5</ele><time>2026-03-22T16:03:52.999Z</time></trkpt><trkpt lat="42.55746998648543" lon="-2.185920548860401"><ele>431.0</ele><time>2026-03-22T16:03:53.999Z</time></trkpt><trkpt lat="42.557285822040896" lon="-2.1861723764691727"><ele>431.0</ele><time>2026-03-22T16:03:54.999Z</time></trkpt><trkpt lat="42.55709994808624" lon="-2.1864286431862583"><ele>431.0</ele><time>2026-03-22T16:03:55.999Z</time></trkpt><trkpt lat="42.556914672214305" lon="-2.186689877338293"><ele>434.0</ele><time>2026-03-22T16:03:56.999Z</time></trkpt><trkpt lat="42.556733082476306" lon="-2.1869544850226186"><ele>437.0</ele><time>2026-03-22T16:03:57.998Z</time></trkpt><trkpt lat="42.55654463129952" lon="-2.1872239144280883"><ele>437.0</ele><time>2026-03-22T16:03:58.998Z</time></trkpt><trkpt lat="42.55634790389845" lon="-2.1874972311298775"><ele>437.0</ele><time>2026-03-22T16:03:59.998Z</time></trkpt><trkpt lat="42.556146277322405" lon="-2.18777226159198"><ele>437.0</ele><time>2026-03-22T16:04:00.998Z</time></trkpt><trkpt lat="42.55594245825228" lon="-2.1880543031669264"><ele>437.0</ele><time>2026-03-22T16:04:01.998Z</time></trkpt><trkpt lat="42.555736824971156" lon="-2.1883400848723684"><ele>440.0</ele><time>2026-03-22T16:04:02.998Z</time></trkpt><trkpt lat="42.555528762122364" lon="-2.188628233222844"><ele>443.0</ele><time>2026-03-22T16:04:03.998Z</time></trkpt><trkpt lat="42.55531803716843" lon="-2.1889168825146674"><ele>444.5</ele><time>2026-03-22T16:04:04.998Z</time></trkpt><trkpt lat="42.55510416164163" lon="-2.189204310782773"><ele>446.0</ele><time>2026-03-22T16:04:05.998Z</time></trkpt><trkpt lat="42.55488778697081" lon="-2.189489425008479"><ele>446.0</ele><time>2026-03-22T16:04:06.998Z</time></trkpt><trkpt lat="42.55467099576258" lon="-2.189775100881496"><ele>446.0</ele><time>2026-03-22T16:04:07.998Z</time></trkpt><trkpt lat="42.554452940670075" lon="-2.1900622465849464"><ele>444.5</ele><time>2026-03-22T16:04:08.998Z</time></trkpt><trkpt lat="42.55423363213837" lon="-2.1903525326587703"><ele>443.0</ele><time>2026-03-22T16:04:09.998Z</time></trkpt><trkpt lat="42.554012006123564" lon="-2.190638646424334"><ele>440.0</ele><time>2026-03-22T16:04:10.998Z</time></trkpt><trkpt lat="42.55378872585017" lon="-2.19092359270055"><ele>437.0</ele><time>2026-03-22T16:04:11.998Z</time></trkpt><trkpt lat="42.55356252529982" lon="-2.1912063302353295"><ele>435.0</ele><time>2026-03-22T16:04:12.998Z</time></trkpt><trkpt lat="42.55333370060672" lon="-2.19149029640894"><ele>433.0</ele><time>2026-03-22T16:04:13.998Z</time></trkpt><trkpt lat="42.55310581775982" lon="-2.1917744251285174"><ele>430.0</ele><time>2026-03-22T16:04:14.998Z</time></trkpt><trkpt lat="42.55287572466212" lon="-2.192058914527567"><ele>427.0</ele><time>2026-03-22T16:04:15.998Z</time></trkpt><trkpt lat="42.55264587176232" lon="-2.192343381114746"><ele>424.5</ele><time>2026-03-22T16:04:16.998Z</time></trkpt><trkpt lat="42.552416523507965" lon="-2.192626461923244"><ele>422.0</ele><time>2026-03-22T16:04:17.998Z</time></trkpt><trkpt lat="42.55219427223541" lon="-2.1929043980288228"><ele>421.0</ele><time>2026-03-22T16:04:18.998Z</time></trkpt><trkpt lat="42.55197439286299" lon="-2.1931789812077382"><ele>420.0</ele><time>2026-03-22T16:04:19.998Z</time></trkpt><trkpt lat="42.55175468913175" lon="-2.1934462584688226"><ele>420.0</ele><time>2026-03-22T16:04:20.998Z</time></trkpt><trkpt lat="42.551534333893656" lon="-2.1937149154430715"><ele>420.0</ele><time>2026-03-22T16:04:21.998Z</time></trkpt><trkpt lat="42.551316087047645" lon="-2.1939870048963708"><ele>421.0</ele><time>2026-03-22T16:04:22.998Z</time></trkpt><trkpt lat="42.55109773094492" lon="-2.1942651924248695"><ele>422.0</ele><time>2026-03-22T16:04:24Z</time></trkpt><trkpt lat="42.55088222763348" lon="-2.194549028063795"><ele>422.0</ele><time>2026-03-22T16:04:25Z</time></trkpt><trkpt lat="42.55066414246315" lon="-2.1948325080927837"><ele>422.0</ele><time>2026-03-22T16:04:26Z</time></trkpt><trkpt lat="42.55044399659626" lon="-2.1951184419948517"><ele>421.0</ele><time>2026-03-22T16:04:27Z</time></trkpt><trkpt lat="42.55022159455037" lon="-2.1954059509355437"><ele>420.0</ele><time>2026-03-22T16:04:28Z</time></trkpt><trkpt lat="42.55000128817412" lon="-2.19569699510924"><ele>418.5</ele><time>2026-03-22T16:04:29Z</time></trkpt><trkpt lat="42.54978159239887" lon="-2.1959922384297723"><ele>417.0</ele><time>2026-03-22T16:04:30Z</time></trkpt><trkpt lat="42.54956498218671" lon="-2.1962906465202026"><ele>415.5</ele><time>2026-03-22T16:04:31Z</time></trkpt><trkpt lat="42.549350006628735" lon="-2.196590943936594"><ele>414.0</ele><time>2026-03-22T16:04:32Z</time></trkpt><trkpt lat="42.549134433554514" lon="-2.1968916983345594"><ele>414.0</ele><time>2026-03-22T16:04:33Z</time></trkpt><trkpt lat="42.54891961921264" lon="-2.1971945500311403"><ele>414.0</ele><time>2026-03-22T16:04:34Z</time></trkpt><trkpt lat="42.54870701636961" lon="-2.197500050560608"><ele>413.0</ele><time>2026-03-22T16:04:35Z</time></trkpt><trkpt lat="42.54849720088527" lon="-2.1978057257719854"><ele>412.0</ele><time>2026-03-22T16:04:36Z</time></trkpt><trkpt lat="42.54828859156997" lon="-2.1981096282148957"><ele>411.5</ele><time>2026-03-22T16:04:37Z</time></trkpt><trkpt lat="42.54808166417389" lon="-2.1984150618050364"><ele>411.0</ele><time>2026-03-22T16:04:38Z</time></trkpt><trkpt lat="42.547878112254445" lon="-2.1987238198137056"><ele>411.0</ele><time>2026-03-22T16:04:39Z</time></trkpt><trkpt lat="42.547675280373994" lon="-2.199030468790307"><ele>411.0</ele><time>2026-03-22T16:04:40Z</time></trkpt><trkpt lat="42.547473450419126" lon="-2.199338497061654"><ele>411.0</ele><time>2026-03-22T16:04:41Z</time></trkpt><trkpt lat="42.54727504911647" lon="-2.199646694296677"><ele>411.0</ele><time>2026-03-22T16:04:42Z</time></trkpt><trkpt lat="42.54707853782692" lon="-2.199955968270647"><ele>412.0</ele><time>2026-03-22T16:04:43Z</time></trkpt><trkpt lat="42.54688373509248" lon="-2.2002667596302308"><ele>413.0</ele><time>2026-03-22T16:04:44Z</time></trkpt><trkpt lat="42.54669056979558" lon="-2.2005784294626363"><ele>413.0</ele><time>2026-03-22T16:04:45Z</time></trkpt><trkpt lat="42.54650027011429" lon="-2.200891456132591"><ele>413.0</ele><time>2026-03-22T16:04:46Z</time></trkpt><trkpt lat="42.54630963708041" lon="-2.201207372525216"><ele>413.0</ele><time>2026-03-22T16:04:47Z</time></trkpt><trkpt lat="42.546118297848814" lon="-2.201525594894698"><ele>413.0</ele><time>2026-03-22T16:04:48Z</time></trkpt><trkpt lat="42.545928662019705" lon="-2.201846112746231"><ele>413.0</ele><time>2026-03-22T16:04:49Z</time></trkpt><trkpt lat="42.545739033062425" lon="-2.2021655252377483"><ele>413.0</ele><time>2026-03-22T16:04:50Z</time></trkpt><trkpt lat="42.54554965779783" lon="-2.2024857294181435"><ele>410.5</ele><time>2026-03-22T16:04:51Z</time></trkpt><trkpt lat="42.54536254299025" lon="-2.202807651379399"><ele>408.0</ele><time>2026-03-22T16:04:52Z</time></trkpt><trkpt lat="42.54517841846626" lon="-2.2031313758025615"><ele>409.0</ele><time>2026-03-22T16:04:53Z</time></trkpt><trkpt lat="42.54499996861617" lon="-2.203455351245617"><ele>410.0</ele><time>2026-03-22T16:04:54Z</time></trkpt><trkpt lat="42.544822170893475" lon="-2.203778633208232"><ele>411.0</ele><time>2026-03-22T16:04:55Z</time></trkpt><trkpt lat="42.54464518491306" lon="-2.2041017351924777"><ele>412.0</ele><time>2026-03-22T16:04:56Z</time></trkpt><trkpt lat="42.544470047994565" lon="-2.2044307553526234"><ele>413.0</ele><time>2026-03-22T16:04:57Z</time></trkpt><trkpt lat="42.544295385803" lon="-2.2047603360179338"><ele>414.0</ele><time>2026-03-22T16:04:58Z</time></trkpt><trkpt lat="42.5441201596412" lon="-2.2050879092354263"><ele>414.0</ele><time>2026-03-22T16:04:59Z</time></trkpt><trkpt lat="42.543948608275365" lon="-2.2054186019939186"><ele>414.0</ele><time>2026-03-22T16:05:00Z</time></trkpt><trkpt lat="42.5437783290511" lon="-2.2057548380492498"><ele>415.5</ele><time>2026-03-22T16:05:01Z</time></trkpt><trkpt lat="42.5436090092321" lon="-2.206092642994564"><ele>417.0</ele><time>2026-03-22T16:05:02Z</time></trkpt><trkpt lat="42.543437829324674" lon="-2.206430426580114"><ele>416.0</ele><time>2026-03-22T16:05:03Z</time></trkpt><trkpt lat="42.54326668161471" lon="-2.2067716688116907"><ele>415.0</ele><time>2026-03-22T16:05:04Z</time></trkpt><trkpt lat="42.543095685148955" lon="-2.2071150864532103"><ele>413.0</ele><time>2026-03-22T16:05:05Z</time></trkpt><trkpt lat="42.5429256604739" lon="-2.207459298525175"><ele>411.0</ele><time>2026-03-22T16:05:06Z</time></trkpt><trkpt lat="42.54275696184187" lon="-2.2078029021763625"><ele>410.5</ele><time>2026-03-22T16:05:07Z</time></trkpt><trkpt lat="42.5425909072532" lon="-2.208149461346166"><ele>410.0</ele><time>2026-03-22T16:05:07.999Z</time></trkpt><trkpt lat="42.54242581729001" lon="-2.208497307952141"><ele>410.0</ele><time>2026-03-22T16:05:08.999Z</time></trkpt><trkpt lat="42.54226429992527" lon="-2.2088471352876367"><ele>410.0</ele><time>2026-03-22T16:05:09.999Z</time></trkpt><trkpt lat="42.54210272544224" lon="-2.2091977571925034"><ele>410.5</ele><time>2026-03-22T16:05:10.999Z</time></trkpt><trkpt lat="42.54194188595977" lon="-2.2095485809570032"><ele>411.0</ele><time>2026-03-22T16:05:11.999Z</time></trkpt><trkpt lat="42.54178175551462" lon="-2.2098991837684028"><ele>411.0</ele><time>2026-03-22T16:05:12.999Z</time></trkpt><trkpt lat="42.541620049068506" lon="-2.2102462630753523"><ele>411.0</ele><time>2026-03-22T16:05:13.999Z</time></trkpt><trkpt lat="42.541461838429555" lon="-2.21058525155747"><ele>410.0</ele><time>2026-03-22T16:05:14.999Z</time></trkpt><trkpt lat="42.54129293473119" lon="-2.2109281587861744"><ele>409.0</ele><time>2026-03-22T16:05:15.999Z</time></trkpt><trkpt lat="42.54111479932917" lon="-2.2112667610254815"><ele>408.0</ele><time>2026-03-22T16:05:16.999Z</time></trkpt><trkpt lat="42.54093349623889" lon="-2.2115983918590896"><ele>407.0</ele><time>2026-03-22T16:05:17.999Z</time></trkpt><trkpt lat="42.540753450235194" lon="-2.2119258591896918"><ele>407.0</ele><time>2026-03-22T16:05:18.999Z</time></trkpt><trkpt lat="42.540570200486066" lon="-2.212250924248415"><ele>407.0</ele><time>2026-03-22T16:05:19.999Z</time></trkpt><trkpt lat="42.54037929625121" lon="-2.2125704972405775"><ele>407.0</ele><time>2026-03-22T16:05:20.999Z</time></trkpt><trkpt lat="42.54018070514574" lon="-2.2128814418713367"><ele>407.0</ele><time>2026-03-22T16:05:21.999Z</time></trkpt><trkpt lat="42.5399746774762" lon="-2.213184086285579"><ele>405.5</ele><time>2026-03-22T16:05:22.999Z</time></trkpt><trkpt lat="42.53976700549526" lon="-2.2134860847891127"><ele>404.0</ele><time>2026-03-22T16:05:23.999Z</time></trkpt><trkpt lat="42.5395536990048" lon="-2.2137816131220975"><ele>404.0</ele><time>2026-03-22T16:05:24.999Z</time></trkpt><trkpt lat="42.53933603246951" lon="-2.214066926560142"><ele>404.0</ele><time>2026-03-22T16:05:25.999Z</time></trkpt><trkpt lat="42.53911422780644" lon="-2.2143472144558762"><ele>404.0</ele><time>2026-03-22T16:05:26.999Z</time></trkpt><trkpt lat="42.53888568926093" lon="-2.214614933775516"><ele>404.0</ele><time>2026-03-22T16:05:27.999Z</time></trkpt><trkpt lat="42.53865149694444" lon="-2.214875748075461"><ele>403.5</ele><time>2026-03-22T16:05:28.999Z</time></trkpt><trkpt lat="42.53841099277009" lon="-2.2151257396066795"><ele>403.0</ele><time>2026-03-22T16:05:29.999Z</time></trkpt><trkpt lat="42.5381662019468" lon="-2.215369856010714"><ele>403.0</ele><time>2026-03-22T16:05:30.999Z</time></trkpt><trkpt lat="42.53791851767836" lon="-2.2156083045760924"><ele>403.0</ele><time>2026-03-22T16:05:31.999Z</time></trkpt><trkpt lat="42.53766777154824" lon="-2.2158446753481655"><ele>404.5</ele><time>2026-03-22T16:05:32.999Z</time></trkpt><trkpt lat="42.53741373845286" lon="-2.2160749407479656"><ele>406.0</ele><time>2026-03-22T16:05:33.999Z</time></trkpt><trkpt lat="42.53715468828306" lon="-2.2162977598315834"><ele>406.0</ele><time>2026-03-22T16:05:34.999Z</time></trkpt><trkpt lat="42.53689128954575" lon="-2.2165078227189015"><ele>406.0</ele><time>2026-03-22T16:05:35.999Z</time></trkpt><trkpt lat="42.53662362614519" lon="-2.2167070860751616"><ele>406.0</ele><time>2026-03-22T16:05:36.999Z</time></trkpt><trkpt lat="42.53635409818718" lon="-2.21689829848342"><ele>406.0</ele><time>2026-03-22T16:05:37.999Z</time></trkpt><trkpt lat="42.536081275823385" lon="-2.2170823581162984"><ele>405.5</ele><time>2026-03-22T16:05:38.999Z</time></trkpt><trkpt lat="42.53580790062859" lon="-2.217259658162578"><ele>405.0</ele><time>2026-03-22T16:05:39.999Z</time></trkpt><trkpt lat="42.53553315641152" lon="-2.217434790065077"><ele>403.5</ele><time>2026-03-22T16:05:40.999Z</time></trkpt><trkpt lat="42.535258144352724" lon="-2.2176071953806598"><ele>402.0</ele><time>2026-03-22T16:05:41.999Z</time></trkpt><trkpt lat="42.53498279939337" lon="-2.217777066425723"><ele>402.0</ele><time>2026-03-22T16:05:42.999Z</time></trkpt><trkpt lat="42.534709130457856" lon="-2.217950338641807"><ele>402.0</ele><time>2026-03-22T16:05:43.999Z</time></trkpt><trkpt lat="42.534438518821666" lon="-2.218129739024481"><ele>402.5</ele><time>2026-03-22T16:05:44.999Z</time></trkpt><trkpt lat="42.53417165126846" lon="-2.2183076201489795"><ele>403.0</ele><time>2026-03-22T16:05:45.999Z</time></trkpt><trkpt lat="42.53391008011388" lon="-2.218490761310383"><ele>402.5</ele><time>2026-03-22T16:05:46.999Z</time></trkpt><trkpt lat="42.53365123441203" lon="-2.2186774877028017"><ele>402.0</ele><time>2026-03-22T16:05:47.999Z</time></trkpt><trkpt lat="42.53339644465576" lon="-2.2188645957870774"><ele>402.0</ele><time>2026-03-22T16:05:48.999Z</time></trkpt><trkpt lat="42.5331474755754" lon="-2.219054641360094"><ele>402.0</ele><time>2026-03-22T16:05:49.999Z</time></trkpt><trkpt lat="42.53290463380787" lon="-2.2192639573668966"><ele>401.5</ele><time>2026-03-22T16:05:50.999Z</time></trkpt><trkpt lat="42.53266927167663" lon="-2.219490078012682"><ele>401.0</ele><time>2026-03-22T16:05:51.999Z</time></trkpt><trkpt lat="42.532437600034946" lon="-2.219724909754483"><ele>401.5</ele><time>2026-03-22T16:05:52.999Z</time></trkpt><trkpt lat="42.532212628896474" lon="-2.2199805070131724"><ele>402.0</ele><time>2026-03-22T16:05:53.999Z</time></trkpt><trkpt lat="42.53199438606598" lon="-2.2202532275883584"><ele>402.0</ele><time>2026-03-22T16:05:54.999Z</time></trkpt><trkpt lat="42.531779978923105" lon="-2.220538605685519"><ele>402.0</ele><time>2026-03-22T16:05:55.999Z</time></trkpt><trkpt lat="42.5315712708462" lon="-2.220833364164833"><ele>402.5</ele><time>2026-03-22T16:05:56.999Z</time></trkpt><trkpt lat="42.53136736142634" lon="-2.221140952613652"><ele>403.0</ele><time>2026-03-22T16:05:57.999Z</time></trkpt><trkpt lat="42.531172474839934" lon="-2.221459044088492"><ele>403.5</ele><time>2026-03-22T16:05:58.999Z</time></trkpt><trkpt lat="42.53098890069366" lon="-2.221789536241741"><ele>404.0</ele><time>2026-03-22T16:05:59.999Z</time></trkpt><trkpt lat="42.530816944895115" lon="-2.2221302982488624"><ele>403.5</ele><time>2026-03-22T16:06:00.999Z</time></trkpt><trkpt lat="42.530657021247656" lon="-2.222477390052918"><ele>403.0</ele><time>2026-03-22T16:06:01.999Z</time></trkpt><trkpt lat="42.53050005235655" lon="-2.222825542034355"><ele>402.0</ele><time>2026-03-22T16:06:02.999Z</time></trkpt><trkpt lat="42.530341703204066" lon="-2.223169138722239"><ele>401.0</ele><time>2026-03-22T16:06:03.999Z</time></trkpt><trkpt lat="42.530177477127715" lon="-2.2235084539255676"><ele>401.0</ele><time>2026-03-22T16:06:04.999Z</time></trkpt><trkpt lat="42.53000929533713" lon="-2.223840666262323"><ele>401.0</ele><time>2026-03-22T16:06:05.999Z</time></trkpt><trkpt lat="42.52983702770267" lon="-2.224167375579585"><ele>401.5</ele><time>2026-03-22T16:06:06.998Z</time></trkpt><trkpt lat="42.529668661786545" lon="-2.224496014854601"><ele>402.0</ele><time>2026-03-22T16:06:07.998Z</time></trkpt><trkpt lat="42.529506350172554" lon="-2.2248305109295794"><ele>402.0</ele><time>2026-03-22T16:06:08.998Z</time></trkpt><trkpt lat="42.52934266739613" lon="-2.2251658116353044"><ele>402.0</ele><time>2026-03-22T16:06:09.998Z</time></trkpt><trkpt lat="42.52916943433302" lon="-2.2254936892110018"><ele>404.0</ele><time>2026-03-22T16:06:10.998Z</time></trkpt><trkpt lat="42.5289914264325" lon="-2.225823337293108"><ele>406.0</ele><time>2026-03-22T16:06:11.998Z</time></trkpt><trkpt lat="42.52880898799506" lon="-2.2261504105743946"><ele>404.5</ele><time>2026-03-22T16:06:12.998Z</time></trkpt><trkpt lat="42.528621423974485" lon="-2.2264726531279346"><ele>403.0</ele><time>2026-03-22T16:06:13.998Z</time></trkpt><trkpt lat="42.528427577040446" lon="-2.226790075021379"><ele>403.0</ele><time>2026-03-22T16:06:14.998Z</time></trkpt><trkpt lat="42.528231420202296" lon="-2.2271015927235864"><ele>403.0</ele><time>2026-03-22T16:06:15.998Z</time></trkpt><trkpt lat="42.528034739730835" lon="-2.227410454410486"><ele>405.5</ele><time>2026-03-22T16:06:16.998Z</time></trkpt><trkpt lat="42.52783525086452" lon="-2.2277173887070516"><ele>408.0</ele><time>2026-03-22T16:06:17.998Z</time></trkpt><trkpt lat="42.52763291172905" lon="-2.228022792650467"><ele>408.5</ele><time>2026-03-22T16:06:18.998Z</time></trkpt><trkpt lat="42.52742877971099" lon="-2.2283291660936766"><ele>409.0</ele><time>2026-03-22T16:06:19.998Z</time></trkpt><trkpt lat="42.52721859614306" lon="-2.228629642983077"><ele>407.5</ele><time>2026-03-22T16:06:20.998Z</time></trkpt><trkpt lat="42.527001908794524" lon="-2.2289231651934758"><ele>406.0</ele><time>2026-03-22T16:06:21.998Z</time></trkpt><trkpt lat="42.52677894362106" lon="-2.2292096593634216"><ele>406.0</ele><time>2026-03-22T16:06:22.998Z</time></trkpt><trkpt lat="42.52655251452511" lon="-2.2294885050035487"><ele>406.0</ele><time>2026-03-22T16:06:23.998Z</time></trkpt><trkpt lat="42.52632423794956" lon="-2.2297654516653087"><ele>405.5</ele><time>2026-03-22T16:06:24.998Z</time></trkpt><trkpt lat="42.5260959107285" lon="-2.2300432392440235"><ele>405.0</ele><time>2026-03-22T16:06:25.998Z</time></trkpt><trkpt lat="42.52586584152496" lon="-2.2303173413570243"><ele>405.0</ele><time>2026-03-22T16:06:26.998Z</time></trkpt><trkpt lat="42.52563283799054" lon="-2.230586379827312"><ele>405.0</ele><time>2026-03-22T16:06:27.998Z</time></trkpt><trkpt lat="42.52539957791456" lon="-2.230853304760712"><ele>404.0</ele><time>2026-03-22T16:06:28.998Z</time></trkpt><trkpt lat="42.525163048392976" lon="-2.2311188303869174"><ele>403.0</ele><time>2026-03-22T16:06:30Z</time></trkpt><trkpt lat="42.52492334556452" lon="-2.231374734657882"><ele>404.0</ele><time>2026-03-22T16:06:31Z</time></trkpt><trkpt lat="42.52467990893989" lon="-2.2316233254165567"><ele>405.0</ele><time>2026-03-22T16:06:32Z</time></trkpt><trkpt lat="42.52443326556015" lon="-2.231865203021141"><ele>405.5</ele><time>2026-03-22T16:06:33Z</time></trkpt><trkpt lat="42.52418520765934" lon="-2.2321057656825825"><ele>406.0</ele><time>2026-03-22T16:06:34Z</time></trkpt><trkpt lat="42.52393432855767" lon="-2.232341136076756"><ele>409.0</ele><time>2026-03-22T16:06:35Z</time></trkpt><trkpt lat="42.523680879747474" lon="-2.232572606990798"><ele>412.0</ele><time>2026-03-22T16:06:36Z</time></trkpt><trkpt lat="42.52342476162655" lon="-2.23280233445139"><ele>412.0</ele><time>2026-03-22T16:06:37Z</time></trkpt><trkpt lat="42.523164995844574" lon="-2.2330296434617027"><ele>412.0</ele><time>2026-03-22T16:06:38Z</time></trkpt><trkpt lat="42.522900269544344" lon="-2.2332501438352117"><ele>412.0</ele><time>2026-03-22T16:06:39Z</time></trkpt><trkpt lat="42.52263020305723" lon="-2.233461945246212"><ele>412.0</ele><time>2026-03-22T16:06:40Z</time></trkpt><trkpt lat="42.52235655924955" lon="-2.23366934853093"><ele>412.0</ele><time>2026-03-22T16:06:41Z</time></trkpt><trkpt lat="42.52208060583772" lon="-2.233870730140496"><ele>412.0</ele><time>2026-03-22T16:06:42Z</time></trkpt><trkpt lat="42.5218020730951" lon="-2.234074203130772"><ele>411.0</ele><time>2026-03-22T16:06:43Z</time></trkpt><trkpt lat="42.52152170182679" lon="-2.2342734973216203"><ele>410.0</ele><time>2026-03-22T16:06:44Z</time></trkpt><trkpt lat="42.521236401223945" lon="-2.2344682518120482"><ele>411.0</ele><time>2026-03-22T16:06:45Z</time></trkpt><trkpt lat="42.52094814468801" lon="-2.2346560834592792"><ele>412.0</ele><time>2026-03-22T16:06:46Z</time></trkpt><trkpt lat="42.52065635247974" lon="-2.234835449596854"><ele>411.0</ele><time>2026-03-22T16:06:47Z</time></trkpt><trkpt lat="42.52036042032611" lon="-2.235010519298365"><ele>410.0</ele><time>2026-03-22T16:06:48Z</time></trkpt><trkpt lat="42.520062119172" lon="-2.235182456208693"><ele>410.0</ele><time>2026-03-22T16:06:49Z</time></trkpt><trkpt lat="42.51976305586796" lon="-2.235351174433802"><ele>410.0</ele><time>2026-03-22T16:06:50Z</time></trkpt><trkpt lat="42.51946289060857" lon="-2.235514623748392"><ele>409.0</ele><time>2026-03-22T16:06:51Z</time></trkpt><trkpt lat="42.519160467260726" lon="-2.2356684940161116"><ele>408.0</ele><time>2026-03-22T16:06:52Z</time></trkpt><trkpt lat="42.51885646908706" lon="-2.2358153377881163"><ele>405.5</ele><time>2026-03-22T16:06:53Z</time></trkpt><trkpt lat="42.518549175490186" lon="-2.2359538514957222"><ele>403.0</ele><time>2026-03-22T16:06:54Z</time></trkpt><trkpt lat="42.51824060421787" lon="-2.2360859447846746"><ele>403.0</ele><time>2026-03-22T16:06:55Z</time></trkpt><trkpt lat="42.51793172595418" lon="-2.2362156658488175"><ele>403.0</ele><time>2026-03-22T16:06:56Z</time></trkpt><trkpt lat="42.517623747225514" lon="-2.2363436719319094"><ele>401.5</ele><time>2026-03-22T16:06:57Z</time></trkpt><trkpt lat="42.5173165328671" lon="-2.2364658063509912"><ele>400.0</ele><time>2026-03-22T16:06:58Z</time></trkpt><trkpt lat="42.51700968002233" lon="-2.236584487849193"><ele>397.0</ele><time>2026-03-22T16:06:59Z</time></trkpt><trkpt lat="42.51670155855939" lon="-2.236700611436929"><ele>394.0</ele><time>2026-03-22T16:07:00Z</time></trkpt><trkpt lat="42.5163942921159" lon="-2.236813275995597"><ele>393.5</ele><time>2026-03-22T16:07:01Z</time></trkpt><trkpt lat="42.516087249868704" lon="-2.236924737556069"><ele>393.0</ele><time>2026-03-22T16:07:02Z</time></trkpt><trkpt lat="42.515778345936674" lon="-2.2370301757488074"><ele>393.0</ele><time>2026-03-22T16:07:03Z</time></trkpt><trkpt lat="42.51546666262876" lon="-2.237132469086864"><ele>393.0</ele><time>2026-03-22T16:07:04Z</time></trkpt><trkpt lat="42.51515687870575" lon="-2.2372337774214883"><ele>394.5</ele><time>2026-03-22T16:07:05Z</time></trkpt><trkpt lat="42.51484317668466" lon="-2.2373311153797935"><ele>396.0</ele><time>2026-03-22T16:07:06Z</time></trkpt><trkpt lat="42.514530422550834" lon="-2.237428632714902"><ele>396.0</ele><time>2026-03-22T16:07:07Z</time></trkpt><trkpt lat="42.51421570530376" lon="-2.237520383453975"><ele>396.0</ele><time>2026-03-22T16:07:08Z</time></trkpt><trkpt lat="42.5139022881778" lon="-2.2376125146741854"><ele>394.0</ele><time>2026-03-22T16:07:09Z</time></trkpt><trkpt lat="42.513589104575225" lon="-2.2377018907982156"><ele>392.0</ele><time>2026-03-22T16:07:10Z</time></trkpt><trkpt lat="42.513275259795606" lon="-2.237789080491744"><ele>392.0</ele><time>2026-03-22T16:07:11Z</time></trkpt><trkpt lat="42.5129610584803" lon="-2.2378782359651024"><ele>392.0</ele><time>2026-03-22T16:07:12Z</time></trkpt><trkpt lat="42.512648556257126" lon="-2.2379689691099496"><ele>393.0</ele><time>2026-03-22T16:07:13Z</time></trkpt><trkpt lat="42.51233658554122" lon="-2.2380619963442947"><ele>394.0</ele><time>2026-03-22T16:07:13.999Z</time></trkpt><trkpt lat="42.51202106565288" lon="-2.2381619966281474"><ele>394.0</ele><time>2026-03-22T16:07:14.999Z</time></trkpt><trkpt lat="42.51170723241215" lon="-2.2382558336730214"><ele>394.0</ele><time>2026-03-22T16:07:15.999Z</time></trkpt><trkpt lat="42.51139173256209" lon="-2.23834438342342"><ele>392.5</ele><time>2026-03-22T16:07:16.999Z</time></trkpt><trkpt lat="42.51107621812406" lon="-2.2384345849708196"><ele>391.0</ele><time>2026-03-22T16:07:17.999Z</time></trkpt><trkpt lat="42.510762856456765" lon="-2.238528552580901"><ele>391.0</ele><time>2026-03-22T16:07:18.999Z</time></trkpt><trkpt lat="42.510452742159465" lon="-2.238628693191101"><ele>391.0</ele><time>2026-03-22T16:07:19.999Z</time></trkpt><trkpt lat="42.51014378387721" lon="-2.238732229185253"><ele>390.5</ele><time>2026-03-22T16:07:20.999Z</time></trkpt><trkpt lat="42.50983730834768" lon="-2.2388419766534358"><ele>390.0</ele><time>2026-03-22T16:07:21.999Z</time></trkpt><trkpt lat="42.50953328302093" lon="-2.238953674648021"><ele>393.5</ele><time>2026-03-22T16:07:22.999Z</time></trkpt><trkpt lat="42.50922979403768" lon="-2.2390698050082105"><ele>397.0</ele><time>2026-03-22T16:07:23.999Z</time></trkpt><trkpt lat="42.508928775110995" lon="-2.2391854983852624"><ele>396.0</ele><time>2026-03-22T16:07:24.999Z</time></trkpt><trkpt lat="42.50862886036633" lon="-2.2393033277407928"><ele>395.0</ele><time>2026-03-22T16:07:25.999Z</time></trkpt><trkpt lat="42.50833238873406" lon="-2.239427921066493"><ele>395.0</ele><time>2026-03-22T16:07:26.999Z</time></trkpt><trkpt lat="42.508038510293304" lon="-2.239558685323771"><ele>395.0</ele><time>2026-03-22T16:07:27.999Z</time></trkpt><trkpt lat="42.5077485409461" lon="-2.239694326464463"><ele>395.5</ele><time>2026-03-22T16:07:28.999Z</time></trkpt><trkpt lat="42.50746053382539" lon="-2.2398357716193433"><ele>396.0</ele><time>2026-03-22T16:07:29.999Z</time></trkpt><trkpt lat="42.507175550710116" lon="-2.239985140872877"><ele>395.0</ele><time>2026-03-22T16:07:30.999Z</time></trkpt><trkpt lat="42.50689671740963" lon="-2.2401435776428116"><ele>394.0</ele><time>2026-03-22T16:07:31.999Z</time></trkpt><trkpt lat="42.506621305364554" lon="-2.240310161506678"><ele>394.0</ele><time>2026-03-22T16:07:32.999Z</time></trkpt><trkpt lat="42.506348885217925" lon="-2.2404859591558477"><ele>394.0</ele><time>2026-03-22T16:07:33.999Z</time></trkpt><trkpt lat="42.506079420120265" lon="-2.240666199048113"><ele>405.5</ele><time>2026-03-22T16:07:34.999Z</time></trkpt><trkpt lat="42.50581291994687" lon="-2.240854648785383"><ele>417.0</ele><time>2026-03-22T16:07:35.999Z</time></trkpt><trkpt lat="42.50554907427806" lon="-2.2410519141486493"><ele>420.0</ele><time>2026-03-22T16:07:36.999Z</time></trkpt><trkpt lat="42.505285280301806" lon="-2.241257095265748"><ele>423.0</ele><time>2026-03-22T16:07:37.999Z</time></trkpt><trkpt lat="42.50502356937374" lon="-2.241470009138418"><ele>423.0</ele><time>2026-03-22T16:07:38.999Z</time></trkpt><trkpt lat="42.50476383115109" lon="-2.2416920759379884"><ele>423.0</ele><time>2026-03-22T16:07:39.999Z</time></trkpt><trkpt lat="42.50450947324269" lon="-2.241924867369206"><ele>425.5</ele><time>2026-03-22T16:07:40.999Z</time></trkpt><trkpt lat="42.50426044299922" lon="-2.2421690817927313"><ele>428.0</ele><time>2026-03-22T16:07:41.999Z</time></trkpt><trkpt lat="42.50401453020447" lon="-2.2424199583568405"><ele>435.0</ele><time>2026-03-22T16:07:42.999Z</time></trkpt><trkpt lat="42.50377455827105" lon="-2.2426851968378285"><ele>442.0</ele><time>2026-03-22T16:07:43.999Z</time></trkpt><trkpt lat="42.50353878057793" lon="-2.2429598989545836"><ele>447.5</ele><time>2026-03-22T16:07:44.999Z</time></trkpt><trkpt lat="42.50330812996777" lon="-2.243239213046018"><ele>453.0</ele><time>2026-03-22T16:07:45.999Z</time></trkpt><trkpt lat="42.503080861808584" lon="-2.243523510185303"><ele>449.0</ele><time>2026-03-22T16:07:46.999Z</time></trkpt><trkpt lat="42.50285678248603" lon="-2.243815010612764"><ele>445.0</ele><time>2026-03-22T16:07:47.999Z</time></trkpt><trkpt lat="42.5026374863378" lon="-2.244112400608523"><ele>442.5</ele><time>2026-03-22T16:07:48.999Z</time></trkpt><trkpt lat="42.50242428372383" lon="-2.244419366370298"><ele>440.0</ele><time>2026-03-22T16:07:49.999Z</time></trkpt><trkpt lat="42.50221810584185" lon="-2.2447333099395137"><ele>435.0</ele><time>2026-03-22T16:07:50.999Z</time></trkpt><trkpt lat="42.50201616427414" lon="-2.2450515383054004"><ele>430.0</ele><time>2026-03-22T16:07:51.999Z</time></trkpt><trkpt lat="42.50182135755583" lon="-2.2453801264439424"><ele>430.5</ele><time>2026-03-22T16:07:52.999Z</time></trkpt><trkpt lat="42.50163384771581" lon="-2.2457194651374537"><ele>431.0</ele><time>2026-03-22T16:07:53.999Z</time></trkpt><trkpt lat="42.50145549894747" lon="-2.246066592986025"><ele>431.0</ele><time>2026-03-22T16:07:54.999Z</time></trkpt><trkpt lat="42.501285133679424" lon="-2.2464214784821603"><ele>431.0</ele><time>2026-03-22T16:07:55.999Z</time></trkpt><trkpt lat="42.50111833334741" lon="-2.246783673084429"><ele>425.5</ele><time>2026-03-22T16:07:56.999Z</time></trkpt><trkpt lat="42.50095590392192" lon="-2.247151217612738"><ele>420.0</ele><time>2026-03-22T16:07:57.999Z</time></trkpt><trkpt lat="42.50079893723138" lon="-2.2475223549510415"><ele>420.0</ele><time>2026-03-22T16:07:58.999Z</time></trkpt><trkpt lat="42.50064514719766" lon="-2.2479005051919447"><ele>420.0</ele><time>2026-03-22T16:07:59.999Z</time></trkpt><trkpt lat="42.50050355540706" lon="-2.248287145108378"><ele>414.5</ele><time>2026-03-22T16:08:00.999Z</time></trkpt><trkpt lat="42.500369004419525" lon="-2.248677707359769"><ele>409.0</ele><time>2026-03-22T16:08:01.999Z</time></trkpt><trkpt lat="42.50024324409158" lon="-2.2490732540029668"><ele>408.5</ele><time>2026-03-22T16:08:02.999Z</time></trkpt><trkpt lat="42.500121608141974" lon="-2.249472482385456"><ele>408.0</ele><time>2026-03-22T16:08:03.999Z</time></trkpt><trkpt lat="42.500007573691335" lon="-2.2498776115840586"><ele>408.0</ele><time>2026-03-22T16:08:04.999Z</time></trkpt><trkpt lat="42.49990211414361" lon="-2.2502892348642645"><ele>408.0</ele><time>2026-03-22T16:08:05.999Z</time></trkpt><trkpt lat="42.499805811966745" lon="-2.250703808393043"><ele>406.5</ele><time>2026-03-22T16:08:06.999Z</time></trkpt><trkpt lat="42.49972067145213" lon="-2.251126323449756"><ele>405.0</ele><time>2026-03-22T16:08:07.999Z</time></trkpt><trkpt lat="42.499642462052215" lon="-2.2515508170479186"><ele>401.0</ele><time>2026-03-22T16:08:08.999Z</time></trkpt><trkpt lat="42.49957251633303" lon="-2.2519788593844403"><ele>397.0</ele><time>2026-03-22T16:08:09.999Z</time></trkpt><trkpt lat="42.49950455054219" lon="-2.2524090386868476"><ele>395.0</ele><time>2026-03-22T16:08:10.998Z</time></trkpt><trkpt lat="42.49943808797937" lon="-2.2528396220874733"><ele>393.0</ele><time>2026-03-22T16:08:11.998Z</time></trkpt><trkpt lat="42.49937661546109" lon="-2.2532741569605452"><ele>392.0</ele><time>2026-03-22T16:08:12.998Z</time></trkpt><trkpt lat="42.49932598158498" lon="-2.253713127723032"><ele>391.0</ele><time>2026-03-22T16:08:13.998Z</time></trkpt><trkpt lat="42.499291573236654" lon="-2.2541511778224255"><ele>390.5</ele><time>2026-03-22T16:08:14.998Z</time></trkpt><trkpt lat="42.4992752644839" lon="-2.254587676509113"><ele>390.0</ele><time>2026-03-22T16:08:15.998Z</time></trkpt><trkpt lat="42.4992705120415" lon="-2.2550228459362187"><ele>391.0</ele><time>2026-03-22T16:08:16.998Z</time></trkpt><trkpt lat="42.49926922575261" lon="-2.255454571301324"><ele>392.0</ele><time>2026-03-22T16:08:17.998Z</time></trkpt><trkpt lat="42.49925915106097" lon="-2.2558848813366374"><ele>393.0</ele><time>2026-03-22T16:08:18.998Z</time></trkpt><trkpt lat="42.49924944356902" lon="-2.256312063636814"><ele>394.0</ele><time>2026-03-22T16:08:19.998Z</time></trkpt><trkpt lat="42.49924956597238" lon="-2.2567367050624516"><ele>395.5</ele><time>2026-03-22T16:08:20.998Z</time></trkpt><trkpt lat="42.499260943408885" lon="-2.2571604013826194"><ele>397.0</ele><time>2026-03-22T16:08:21.998Z</time></trkpt><trkpt lat="42.499276807327696" lon="-2.257580031895309"><ele>400.5</ele><time>2026-03-22T16:08:22.998Z</time></trkpt><trkpt lat="42.499297507789755" lon="-2.257998068023735"><ele>404.0</ele><time>2026-03-22T16:08:23.998Z</time></trkpt><trkpt lat="42.499318107769334" lon="-2.2584152423623944"><ele>408.0</ele><time>2026-03-22T16:08:24.998Z</time></trkpt><trkpt lat="42.49933987894687" lon="-2.258828860280856"><ele>412.0</ele><time>2026-03-22T16:08:25.998Z</time></trkpt><trkpt lat="42.49936460420634" lon="-2.259240428000629"><ele>414.5</ele><time>2026-03-22T16:08:26.998Z</time></trkpt><trkpt lat="42.49938755719082" lon="-2.259648674359027"><ele>417.0</ele><time>2026-03-22T16:08:27.998Z</time></trkpt><trkpt lat="42.499407543564764" lon="-2.2600581627045933"><ele>418.0</ele><time>2026-03-22T16:08:28.998Z</time></trkpt><trkpt lat="42.49942449058012" lon="-2.2604661261631254"><ele>419.0</ele><time>2026-03-22T16:08:29.998Z</time></trkpt><trkpt lat="42.49944953078218" lon="-2.260875298686099"><ele>417.0</ele><time>2026-03-22T16:08:30.998Z</time></trkpt><trkpt lat="42.4994852302873" lon="-2.261285395387054"><ele>415.0</ele><time>2026-03-22T16:08:31.998Z</time></trkpt><trkpt lat="42.49952372024756" lon="-2.261697406284639"><ele>414.5</ele><time>2026-03-22T16:08:32.998Z</time></trkpt><trkpt lat="42.4995591279659" lon="-2.2621100332050967"><ele>414.0</ele><time>2026-03-22T16:08:33.998Z</time></trkpt><trkpt lat="42.49958983360388" lon="-2.2625229725344562"><ele>411.0</ele><time>2026-03-22T16:08:34.998Z</time></trkpt><trkpt lat="42.49961788379342" lon="-2.2629394244779326"><ele>408.0</ele><time>2026-03-22T16:08:36Z</time></trkpt><trkpt lat="42.499645217435244" lon="-2.263354279893174"><ele>408.0</ele><time>2026-03-22T16:08:37Z</time></trkpt><trkpt lat="42.49967588232997" lon="-2.2637719130636227"><ele>408.0</ele><time>2026-03-22T16:08:38Z</time></trkpt><trkpt lat="42.49970741303796" lon="-2.2641911064573246"><ele>408.5</ele><time>2026-03-22T16:08:39Z</time></trkpt><trkpt lat="42.49973703788862" lon="-2.264613451112804"><ele>409.0</ele><time>2026-03-22T16:08:40Z</time></trkpt><trkpt lat="42.49976338252499" lon="-2.265038996689235"><ele>410.5</ele><time>2026-03-22T16:08:41Z</time></trkpt><trkpt lat="42.499787628285674" lon="-2.265464871095465"><ele>412.0</ele><time>2026-03-22T16:08:42Z</time></trkpt><trkpt lat="42.49980965805787" lon="-2.265894150588916"><ele>414.5</ele><time>2026-03-22T16:08:43Z</time></trkpt><trkpt lat="42.49982828274" lon="-2.2663245876959"><ele>417.0</ele><time>2026-03-22T16:08:44Z</time></trkpt><trkpt lat="42.49984390175798" lon="-2.266756319091764"><ele>420.5</ele><time>2026-03-22T16:08:45Z</time></trkpt><trkpt lat="42.49986077547429" lon="-2.2671893662389215"><ele>424.0</ele><time>2026-03-22T16:08:46Z</time></trkpt><trkpt lat="42.49987616653952" lon="-2.2676207072541508"><ele>424.5</ele><time>2026-03-22T16:08:47Z</time></trkpt><trkpt lat="42.49988856179361" lon="-2.2680531426326427"><ele>425.0</ele><time>2026-03-22T16:08:48Z</time></trkpt><trkpt lat="42.49989809719953" lon="-2.2684845857322653"><ele>431.5</ele><time>2026-03-22T16:08:49Z</time></trkpt><trkpt lat="42.49990129447211" lon="-2.268915585978147"><ele>438.0</ele><time>2026-03-22T16:08:50Z</time></trkpt><trkpt lat="42.4998986613132" lon="-2.2693457016141134"><ele>441.5</ele><time>2026-03-22T16:08:51Z</time></trkpt><trkpt lat="42.49988769593076" lon="-2.2697714080823825"><ele>445.0</ele><time>2026-03-22T16:08:52Z</time></trkpt><trkpt lat="42.49987047364633" lon="-2.2701926339209146"><ele>445.0</ele><time>2026-03-22T16:08:53Z</time></trkpt><trkpt lat="42.49984828237911" lon="-2.270610914940816"><ele>445.0</ele><time>2026-03-22T16:08:54Z</time></trkpt><trkpt lat="42.49982229494167" lon="-2.2710288583944487"><ele>445.5</ele><time>2026-03-22T16:08:55Z</time></trkpt><trkpt lat="42.49979230759947" lon="-2.2714423295423116"><ele>446.0</ele><time>2026-03-22T16:08:56Z</time></trkpt><trkpt lat="42.49976391988589" lon="-2.2718528006294374"><ele>446.0</ele><time>2026-03-22T16:08:57Z</time></trkpt><trkpt lat="42.49972900096698" lon="-2.272269436379953"><ele>446.0</ele><time>2026-03-22T16:08:58Z</time></trkpt><trkpt lat="42.49969069616963" lon="-2.2726819505264255"><ele>445.0</ele><time>2026-03-22T16:08:59Z</time></trkpt><trkpt lat="42.49964829190145" lon="-2.2730922731594747"><ele>444.0</ele><time>2026-03-22T16:09:00Z</time></trkpt><trkpt lat="42.49959940921951" lon="-2.2735044366042647"><ele>445.0</ele><time>2026-03-22T16:09:01Z</time></trkpt><trkpt lat="42.49954598069977" lon="-2.273915767188758"><ele>446.0</ele><time>2026-03-22T16:09:02Z</time></trkpt><trkpt lat="42.499487570293105" lon="-2.2743268350668058"><ele>447.5</ele><time>2026-03-22T16:09:03Z</time></trkpt><trkpt lat="42.49942577081444" lon="-2.2747385482288838"><ele>449.0</ele><time>2026-03-22T16:09:04Z</time></trkpt><trkpt lat="42.49936006951682" lon="-2.2751493595846006"><ele>450.5</ele><time>2026-03-22T16:09:05Z</time></trkpt><trkpt lat="42.49929488561331" lon="-2.275562304893853"><ele>452.0</ele><time>2026-03-22T16:09:06Z</time></trkpt><trkpt lat="42.49922637756358" lon="-2.2759767266749256"><ele>454.0</ele><time>2026-03-22T16:09:07Z</time></trkpt><trkpt lat="42.499149718595305" lon="-2.276390491547849"><ele>456.0</ele><time>2026-03-22T16:09:08Z</time></trkpt><trkpt lat="42.499065583735685" lon="-2.2768023269614326"><ele>457.0</ele><time>2026-03-22T16:09:09Z</time></trkpt><trkpt lat="42.49897389944858" lon="-2.2772146058932408"><ele>458.0</ele><time>2026-03-22T16:09:10Z</time></trkpt><trkpt lat="42.49887718357061" lon="-2.2776247216236896"><ele>458.0</ele><time>2026-03-22T16:09:11Z</time></trkpt><trkpt lat="42.49877765234388" lon="-2.2780314259082677"><ele>458.0</ele><time>2026-03-22T16:09:12Z</time></trkpt><trkpt lat="42.49867079594316" lon="-2.278433998423672"><ele>458.0</ele><time>2026-03-22T16:09:13Z</time></trkpt><trkpt lat="42.498560365041314" lon="-2.278835553422617"><ele>458.0</ele><time>2026-03-22T16:09:14Z</time></trkpt><trkpt lat="42.49844918480897" lon="-2.2792355165000187"><ele>457.0</ele><time>2026-03-22T16:09:15Z</time></trkpt><trkpt lat="42.49832784224928" lon="-2.279628176344946"><ele>456.0</ele><time>2026-03-22T16:09:16Z</time></trkpt><trkpt lat="42.4982244746008" lon="-2.2800313992511194"><ele>454.0</ele><time>2026-03-22T16:09:17Z</time></trkpt><trkpt lat="42.49811015290684" lon="-2.2804317657243307"><ele>452.0</ele><time>2026-03-22T16:09:18Z</time></trkpt><trkpt lat="42.49799135963283" lon="-2.2808274570036438"><ele>449.0</ele><time>2026-03-22T16:09:18.999Z</time></trkpt><trkpt lat="42.49786887153551" lon="-2.2812180535661026"><ele>446.0</ele><time>2026-03-22T16:09:19.999Z</time></trkpt><trkpt lat="42.49774727103531" lon="-2.281610187669109"><ele>444.0</ele><time>2026-03-22T16:09:20.999Z</time></trkpt><trkpt lat="42.49762607395023" lon="-2.2820002678235456"><ele>442.0</ele><time>2026-03-22T16:09:21.999Z</time></trkpt><trkpt lat="42.49750209265952" lon="-2.282390274134174"><ele>442.0</ele><time>2026-03-22T16:09:22.999Z</time></trkpt><trkpt lat="42.497375854848144" lon="-2.282783926999847"><ele>442.0</ele><time>2026-03-22T16:09:23.999Z</time></trkpt><trkpt lat="42.497249228698976" lon="-2.2831781284742076"><ele>442.0</ele><time>2026-03-22T16:09:24.999Z</time></trkpt><trkpt lat="42.497120810325455" lon="-2.2835726807541405"><ele>442.0</ele><time>2026-03-22T16:09:25.999Z</time></trkpt><trkpt lat="42.49699108604302" lon="-2.283966130700454"><ele>440.5</ele><time>2026-03-22T16:09:26.999Z</time></trkpt><trkpt lat="42.496862548809844" lon="-2.2843611594439834"><ele>439.0</ele><time>2026-03-22T16:09:27.999Z</time></trkpt><trkpt lat="42.49673796095775" lon="-2.284757175742051"><ele>438.0</ele><time>2026-03-22T16:09:28.999Z</time></trkpt><trkpt lat="42.49661307314483" lon="-2.2851535551093543"><ele>437.0</ele><time>2026-03-22T16:09:29.999Z</time></trkpt><trkpt lat="42.49648611920756" lon="-2.285549287611469"><ele>437.0</ele><time>2026-03-22T16:09:30.999Z</time></trkpt><trkpt lat="42.49635502714485" lon="-2.2859427202391034"><ele>437.0</ele><time>2026-03-22T16:09:31.999Z</time></trkpt><trkpt lat="42.496215566796565" lon="-2.2863310815668667"><ele>434.5</ele><time>2026-03-22T16:09:32.999Z</time></trkpt><trkpt lat="42.49607753656413" lon="-2.2867212581072516"><ele>432.0</ele><time>2026-03-22T16:09:33.999Z</time></trkpt><trkpt lat="42.495938589774234" lon="-2.287112470295209"><ele>432.5</ele><time>2026-03-22T16:09:34.999Z</time></trkpt><trkpt lat="42.49579867542178" lon="-2.287508482158765"><ele>433.0</ele><time>2026-03-22T16:09:35.999Z</time></trkpt><trkpt lat="42.49565708057485" lon="-2.2879037682065326"><ele>433.0</ele><time>2026-03-22T16:09:36.999Z</time></trkpt><trkpt lat="42.49551507171784" lon="-2.2883027061790293"><ele>433.0</ele><time>2026-03-22T16:09:37.999Z</time></trkpt><trkpt lat="42.495372745327145" lon="-2.288702602796433"><ele>431.5</ele><time>2026-03-22T16:09:38.999Z</time></trkpt><trkpt lat="42.49522178933068" lon="-2.2891026243399715"><ele>430.0</ele><time>2026-03-22T16:09:39.999Z</time></trkpt><trkpt lat="42.495068604800636" lon="-2.2895010703381216"><ele>430.0</ele><time>2026-03-22T16:09:40.999Z</time></trkpt><trkpt lat="42.49491421795442" lon="-2.2898967030845685"><ele>430.0</ele><time>2026-03-22T16:09:41.999Z</time></trkpt><trkpt lat="42.49476162126293" lon="-2.290290916321624"><ele>427.5</ele><time>2026-03-22T16:09:42.999Z</time></trkpt><trkpt lat="42.494611183406484" lon="-2.2906875319970594"><ele>425.0</ele><time>2026-03-22T16:09:43.999Z</time></trkpt><trkpt lat="42.49446057692688" lon="-2.2910839003201993"><ele>420.5</ele><time>2026-03-22T16:09:44.999Z</time></trkpt><trkpt lat="42.494304772822595" lon="-2.291476368366817"><ele>416.0</ele><time>2026-03-22T16:09:45.999Z</time></trkpt><trkpt lat="42.4941466624555" lon="-2.291867287527604"><ele>416.0</ele><time>2026-03-22T16:09:46.999Z</time></trkpt><trkpt lat="42.493984535493695" lon="-2.2922557840177635"><ele>416.0</ele><time>2026-03-22T16:09:47.999Z</time></trkpt><trkpt lat="42.49382151091192" lon="-2.2926460669920057"><ele>415.5</ele><time>2026-03-22T16:09:48.999Z</time></trkpt><trkpt lat="42.49366198945586" lon="-2.2930399091624536"><ele>415.0</ele><time>2026-03-22T16:09:49.999Z</time></trkpt><trkpt lat="42.493502404217026" lon="-2.2934345006987114"><ele>414.5</ele><time>2026-03-22T16:09:50.999Z</time></trkpt><trkpt lat="42.49334530460012" lon="-2.293830594896969"><ele>414.0</ele><time>2026-03-22T16:09:51.999Z</time></trkpt><trkpt lat="42.4931867502929" lon="-2.294227834154999"><ele>414.0</ele><time>2026-03-22T16:09:52.999Z</time></trkpt><trkpt lat="42.49302408817467" lon="-2.294624108435356"><ele>414.0</ele><time>2026-03-22T16:09:53.999Z</time></trkpt><trkpt lat="42.49285852174154" lon="-2.2950210663514152"><ele>412.0</ele><time>2026-03-22T16:09:54.999Z</time></trkpt><trkpt lat="42.49269037136313" lon="-2.2954206858574984"><ele>410.0</ele><time>2026-03-22T16:09:55.999Z</time></trkpt><trkpt lat="42.49252075147202" lon="-2.295820793248381"><ele>414.0</ele><time>2026-03-22T16:09:56.999Z</time></trkpt><trkpt lat="42.49234866690941" lon="-2.2962210116032025"><ele>418.0</ele><time>2026-03-22T16:09:57.999Z</time></trkpt><trkpt lat="42.492171911458186" lon="-2.296622564527492"><ele>416.0</ele><time>2026-03-22T16:09:58.999Z</time></trkpt><trkpt lat="42.491989986979156" lon="-2.297016040455046"><ele>414.0</ele><time>2026-03-22T16:09:59.999Z</time></trkpt><trkpt lat="42.491813946748096" lon="-2.2974195999328346"><ele>414.0</ele><time>2026-03-22T16:10:00.999Z</time></trkpt><trkpt lat="42.49163365238625" lon="-2.2978176340396543"><ele>414.0</ele><time>2026-03-22T16:10:01.999Z</time></trkpt><trkpt lat="42.49145302735732" lon="-2.298214785257384"><ele>414.0</ele><time>2026-03-22T16:10:02.999Z</time></trkpt><trkpt lat="42.49127221107117" lon="-2.2986087217325415"><ele>414.0</ele><time>2026-03-22T16:10:03.999Z</time></trkpt><trkpt lat="42.49108822598701" lon="-2.299001395460855"><ele>410.0</ele><time>2026-03-22T16:10:04.999Z</time></trkpt><trkpt lat="42.49090127172203" lon="-2.299388644606699"><ele>406.0</ele><time>2026-03-22T16:10:05.999Z</time></trkpt><trkpt lat="42.49071269491132" lon="-2.2997721464724687"><ele>405.5</ele><time>2026-03-22T16:10:06.999Z</time></trkpt><trkpt lat="42.49052090305367" lon="-2.300151792879084"><ele>405.0</ele><time>2026-03-22T16:10:07.999Z</time></trkpt><trkpt lat="42.49032693472272" lon="-2.300526676753679"><ele>401.0</ele><time>2026-03-22T16:10:08.999Z</time></trkpt><trkpt lat="42.490136592569975" lon="-2.300905713934246"><ele>397.0</ele><time>2026-03-22T16:10:09.999Z</time></trkpt><trkpt lat="42.48995181956374" lon="-2.301286404239119"><ele>395.5</ele><time>2026-03-22T16:10:10.999Z</time></trkpt><trkpt lat="42.489770627059116" lon="-2.301666174262558"><ele>394.0</ele><time>2026-03-22T16:10:11.999Z</time></trkpt><trkpt lat="42.4895916237432" lon="-2.302046610106471"><ele>395.0</ele><time>2026-03-22T16:10:12.999Z</time></trkpt><trkpt lat="42.489410787357805" lon="-2.3024252830206318"><ele>396.0</ele><time>2026-03-22T16:10:13.999Z</time></trkpt><trkpt lat="42.48922779167847" lon="-2.3028024872300046"><ele>396.0</ele><time>2026-03-22T16:10:14.999Z</time></trkpt><trkpt lat="42.489044755845356" lon="-2.303177696792619"><ele>396.0</ele><time>2026-03-22T16:10:15.998Z</time></trkpt><trkpt lat="42.48885547003194" lon="-2.3035488224518184"><ele>398.5</ele><time>2026-03-22T16:10:16.998Z</time></trkpt><trkpt lat="42.48866286790141" lon="-2.3039187581141873"><ele>401.0</ele><time>2026-03-22T16:10:17.998Z</time></trkpt><trkpt lat="42.48847011363242" lon="-2.3042872686966223"><ele>401.0</ele><time>2026-03-22T16:10:18.998Z</time></trkpt><trkpt lat="42.48827683762161" lon="-2.304658894029449"><ele>401.0</ele><time>2026-03-22T16:10:19.998Z</time></trkpt><trkpt lat="42.48808236467368" lon="-2.3050314310139726"><ele>402.0</ele><time>2026-03-22T16:10:20.998Z</time></trkpt><trkpt lat="42.48788801218338" lon="-2.305406259220823"><ele>403.0</ele><time>2026-03-22T16:10:21.998Z</time></trkpt><trkpt lat="42.48769044397199" lon="-2.305786118116357"><ele>404.0</ele><time>2026-03-22T16:10:22.998Z</time></trkpt><trkpt lat="42.487486468343846" lon="-2.3061593878322"><ele>405.0</ele><time>2026-03-22T16:10:23.998Z</time></trkpt><trkpt lat="42.48728100377452" lon="-2.306536439419038"><ele>403.0</ele><time>2026-03-22T16:10:24.998Z</time></trkpt><trkpt lat="42.48707166088577" lon="-2.3069129668426633"><ele>401.0</ele><time>2026-03-22T16:10:25.998Z</time></trkpt><trkpt lat="42.48686214091127" lon="-2.3072910731366343"><ele>401.0</ele><time>2026-03-22T16:10:26.998Z</time></trkpt><trkpt lat="42.486647567351056" lon="-2.3076701014934144"><ele>401.0</ele><time>2026-03-22T16:10:27.998Z</time></trkpt><trkpt lat="42.48643010535041" lon="-2.3080457804903807"><ele>398.0</ele><time>2026-03-22T16:10:28.998Z</time></trkpt><trkpt lat="42.48621329782282" lon="-2.3084227544596763"><ele>395.0</ele><time>2026-03-22T16:10:29.998Z</time></trkpt><trkpt lat="42.48599585381929" lon="-2.3087992286103365"><ele>396.5</ele><time>2026-03-22T16:10:30.998Z</time></trkpt><trkpt lat="42.485774163662214" lon="-2.3091757173361427"><ele>398.0</ele><time>2026-03-22T16:10:31.998Z</time></trkpt><trkpt lat="42.48555434306975" lon="-2.309555099765832"><ele>396.0</ele><time>2026-03-22T16:10:32.998Z</time></trkpt><trkpt lat="42.48533605941793" lon="-2.3099340091654104"><ele>394.0</ele><time>2026-03-22T16:10:33.998Z</time></trkpt><trkpt lat="42.48511499419111" lon="-2.3103154419386116"><ele>394.5</ele><time>2026-03-22T16:10:34.998Z</time></trkpt><trkpt lat="42.48489156003666" lon="-2.310693441913934"><ele>395.0</ele><time>2026-03-22T16:10:35.998Z</time></trkpt><trkpt lat="42.48466668557805" lon="-2.31107244117999"><ele>387.0</ele><time>2026-03-22T16:10:36.998Z</time></trkpt><trkpt lat="42.4844412122236" lon="-2.311449660768303"><ele>379.0</ele><time>2026-03-22T16:10:37.998Z</time></trkpt><trkpt lat="42.48421335148124" lon="-2.311826130722208"><ele>379.0</ele><time>2026-03-22T16:10:38.998Z</time></trkpt><trkpt lat="42.48398403674133" lon="-2.3122000745992697"><ele>379.0</ele><time>2026-03-22T16:10:39.998Z</time></trkpt><trkpt lat="42.4837566271836" lon="-2.3125710690862347"><ele>379.5</ele><time>2026-03-22T16:10:40.998Z</time></trkpt><trkpt lat="42.483530627242544" lon="-2.3129457447653237"><ele>380.0</ele><time>2026-03-22T16:10:42Z</time></trkpt><trkpt lat="42.48330835746005" lon="-2.3133190266233092"><ele>383.5</ele><time>2026-03-22T16:10:43Z</time></trkpt><trkpt lat="42.48308908331931" lon="-2.313691587924797"><ele>387.0</ele><time>2026-03-22T16:10:44Z</time></trkpt><trkpt lat="42.48287277300642" lon="-2.314069779312489"><ele>387.0</ele><time>2026-03-22T16:10:45Z</time></trkpt><trkpt lat="42.48266053579928" lon="-2.314448551425584"><ele>387.0</ele><time>2026-03-22T16:10:46Z</time></trkpt><trkpt lat="42.4824502011991" lon="-2.3148283290975575"><ele>385.0</ele><time>2026-03-22T16:10:47Z</time></trkpt><trkpt lat="42.48223794844" lon="-2.3152030245751556"><ele>383.0</ele><time>2026-03-22T16:10:48Z</time></trkpt><trkpt lat="42.48202598620082" lon="-2.315577672755855"><ele>383.0</ele><time>2026-03-22T16:10:49Z</time></trkpt><trkpt lat="42.48181556697271" lon="-2.3159522853732306"><ele>383.0</ele><time>2026-03-22T16:10:50Z</time></trkpt><trkpt lat="42.48160491872397" lon="-2.316326099546219"><ele>383.0</ele><time>2026-03-22T16:10:51Z</time></trkpt><trkpt lat="42.481396546819944" lon="-2.3167002315037997"><ele>383.0</ele><time>2026-03-22T16:10:52Z</time></trkpt><trkpt lat="42.48119024842341" lon="-2.3170760153802403"><ele>382.5</ele><time>2026-03-22T16:10:53Z</time></trkpt><trkpt lat="42.480987856503" lon="-2.3174566092783278"><ele>382.0</ele><time>2026-03-22T16:10:54Z</time></trkpt><trkpt lat="42.48079013520168" lon="-2.3178388412290225"><ele>381.5</ele><time>2026-03-22T16:10:55Z</time></trkpt><trkpt lat="42.48059850529808" lon="-2.318223934648274"><ele>381.0</ele><time>2026-03-22T16:10:56Z</time></trkpt><trkpt lat="42.48041110498168" lon="-2.318610451443545"><ele>380.0</ele><time>2026-03-22T16:10:57Z</time></trkpt><trkpt lat="42.480226727543766" lon="-2.3190003915301123"><ele>379.0</ele><time>2026-03-22T16:10:58Z</time></trkpt><trkpt lat="42.48004658315995" lon="-2.319392867457116"><ele>378.5</ele><time>2026-03-22T16:10:59Z</time></trkpt><trkpt lat="42.4798707947709" lon="-2.3197882305758792"><ele>378.0</ele><time>2026-03-22T16:11:00Z</time></trkpt><trkpt lat="42.4796984389846" lon="-2.320186140230069"><ele>379.0</ele><time>2026-03-22T16:11:01Z</time></trkpt><trkpt lat="42.47953028267278" lon="-2.3205857087322044"><ele>380.0</ele><time>2026-03-22T16:11:02Z</time></trkpt><trkpt lat="42.479362923740744" lon="-2.320987641974036"><ele>380.0</ele><time>2026-03-22T16:11:03Z</time></trkpt><trkpt lat="42.479195873084734" lon="-2.321389017808188"><ele>380.0</ele><time>2026-03-22T16:11:04Z</time></trkpt><trkpt lat="42.47903369680625" lon="-2.321790890755414"><ele>378.0</ele><time>2026-03-22T16:11:05Z</time></trkpt><trkpt lat="42.478875423717355" lon="-2.32219969012989"><ele>376.0</ele><time>2026-03-22T16:11:06Z</time></trkpt><trkpt lat="42.47872318169301" lon="-2.322609734094414"><ele>376.0</ele><time>2026-03-22T16:11:07Z</time></trkpt><trkpt lat="42.478574591493796" lon="-2.3230238348013437"><ele>376.0</ele><time>2026-03-22T16:11:08Z</time></trkpt><trkpt lat="42.478429745491106" lon="-2.323442435516052"><ele>378.5</ele><time>2026-03-22T16:11:09Z</time></trkpt><trkpt lat="42.47828778138844" lon="-2.3238623008406205"><ele>381.0</ele><time>2026-03-22T16:11:10Z</time></trkpt><trkpt lat="42.47814937793765" lon="-2.3242848871124737"><ele>381.5</ele><time>2026-03-22T16:11:11Z</time></trkpt><trkpt lat="42.478010645969384" lon="-2.3247101961114303"><ele>382.0</ele><time>2026-03-22T16:11:12Z</time></trkpt><trkpt lat="42.477876874346435" lon="-2.3251382813248993"><ele>379.5</ele><time>2026-03-22T16:11:13Z</time></trkpt><trkpt lat="42.47774504330272" lon="-2.3255669789307154"><ele>377.0</ele><time>2026-03-22T16:11:14Z</time></trkpt><trkpt lat="42.47761818499234" lon="-2.326000469713049"><ele>377.5</ele><time>2026-03-22T16:11:15Z</time></trkpt><trkpt lat="42.47749537938774" lon="-2.3264358003477223"><ele>378.0</ele><time>2026-03-22T16:11:16Z</time></trkpt><trkpt lat="42.47737596813313" lon="-2.3268706833099873"><ele>376.5</ele><time>2026-03-22T16:11:17Z</time></trkpt><trkpt lat="42.47726009792852" lon="-2.327306945249672"><ele>375.0</ele><time>2026-03-22T16:11:18Z</time></trkpt><trkpt lat="42.477148836884886" lon="-2.3277449755443023"><ele>374.5</ele><time>2026-03-22T16:11:19Z</time></trkpt><trkpt lat="42.47704400529038" lon="-2.3281835590849007"><ele>374.0</ele><time>2026-03-22T16:11:20Z</time></trkpt><trkpt lat="42.47694483142644" lon="-2.328624892989471"><ele>374.0</ele><time>2026-03-22T16:11:21Z</time></trkpt><trkpt lat="42.47685075859822" lon="-2.329065962805099"><ele>374.0</ele><time>2026-03-22T16:11:22Z</time></trkpt><trkpt lat="42.47676113178618" lon="-2.3295061090204854"><ele>373.5</ele><time>2026-03-22T16:11:23Z</time></trkpt><trkpt lat="42.47667400018055" lon="-2.3299447228462493"><ele>373.0</ele><time>2026-03-22T16:11:24Z</time></trkpt><trkpt lat="42.47659016357345" lon="-2.3303848478103992"><ele>374.5</ele><time>2026-03-22T16:11:25Z</time></trkpt><trkpt lat="42.476511025273346" lon="-2.3308234059295208"><ele>376.0</ele><time>2026-03-22T16:11:26Z</time></trkpt><trkpt lat="42.47643696078715" lon="-2.3312636810014356"><ele>377.0</ele><time>2026-03-22T16:11:27Z</time></trkpt><trkpt lat="42.4763646728873" lon="-2.331700665393351"><ele>378.0</ele><time>2026-03-22T16:11:28Z</time></trkpt><trkpt lat="42.4762939951956" lon="-2.33213762175422"><ele>376.0</ele><time>2026-03-22T16:11:29Z</time></trkpt><trkpt lat="42.47622754284916" lon="-2.332571361288523"><ele>374.0</ele><time>2026-03-22T16:11:30Z</time></trkpt><trkpt lat="42.47616488883909" lon="-2.3330030063642755"><ele>374.0</ele><time>2026-03-22T16:11:31Z</time></trkpt><trkpt lat="42.47610793785947" lon="-2.3334315534738503"><ele>374.0</ele><time>2026-03-22T16:11:32Z</time></trkpt><trkpt lat="42.47605693832821" lon="-2.3338584153066355"><ele>374.5</ele><time>2026-03-22T16:11:33Z</time></trkpt><trkpt lat="42.47601179796132" lon="-2.334286053478729"><ele>375.0</ele><time>2026-03-22T16:11:33.999Z</time></trkpt><trkpt lat="42.4759709145872" lon="-2.3347093790499294"><ele>375.0</ele><time>2026-03-22T16:11:34.999Z</time></trkpt><trkpt lat="42.475936397084965" lon="-2.3351331034108123"><ele>375.0</ele><time>2026-03-22T16:11:35.999Z</time></trkpt><trkpt lat="42.475903518569496" lon="-2.3355538992664333"><ele>375.0</ele><time>2026-03-22T16:11:36.999Z</time></trkpt><trkpt lat="42.47586928900393" lon="-2.335974196698903"><ele>375.0</ele><time>2026-03-22T16:11:37.999Z</time></trkpt><trkpt lat="42.475834744481325" lon="-2.336392649695891"><ele>376.5</ele><time>2026-03-22T16:11:38.999Z</time></trkpt><trkpt lat="42.47580183516722" lon="-2.3368108832448597"><ele>378.0</ele><time>2026-03-22T16:11:39.999Z</time></trkpt><trkpt lat="42.475770190809186" lon="-2.337229026986805"><ele>378.0</ele><time>2026-03-22T16:11:40.999Z</time></trkpt><trkpt lat="42.4757421909076" lon="-2.337647045874959"><ele>378.0</ele><time>2026-03-22T16:11:41.999Z</time></trkpt><trkpt lat="42.47571956147313" lon="-2.338068303101361"><ele>378.0</ele><time>2026-03-22T16:11:42.999Z</time></trkpt><trkpt lat="42.47570262783918" lon="-2.338489341687813"><ele>378.0</ele><time>2026-03-22T16:11:43.999Z</time></trkpt><trkpt lat="42.47569065823743" lon="-2.338912148373351"><ele>378.0</ele><time>2026-03-22T16:11:44.999Z</time></trkpt><trkpt lat="42.475683354932066" lon="-2.339337091357101"><ele>378.0</ele><time>2026-03-22T16:11:45.999Z</time></trkpt><trkpt lat="42.47568237783101" lon="-2.3397659125057513"><ele>378.0</ele><time>2026-03-22T16:11:46.999Z</time></trkpt><trkpt lat="42.47568302614654" lon="-2.3401962891800396"><ele>378.0</ele><time>2026-03-22T16:11:47.999Z</time></trkpt><trkpt lat="42.475684976168" lon="-2.340625940833476"><ele>378.0</ele><time>2026-03-22T16:11:48.999Z</time></trkpt><trkpt lat="42.47569192065028" lon="-2.3410551534979236"><ele>378.0</ele><time>2026-03-22T16:11:49.999Z</time></trkpt><trkpt lat="42.47570324140856" lon="-2.341479050003718"><ele>378.0</ele><time>2026-03-22T16:11:50.999Z</time></trkpt><trkpt lat="42.47572864835481" lon="-2.3419024357655136"><ele>378.0</ele><time>2026-03-22T16:11:51.999Z</time></trkpt><trkpt lat="42.47576003494666" lon="-2.3423237369164465"><ele>378.0</ele><time>2026-03-22T16:11:52.999Z</time></trkpt><trkpt lat="42.47578734070634" lon="-2.3427478793079155"><ele>378.0</ele><time>2026-03-22T16:11:53.999Z</time></trkpt><trkpt lat="42.47580682048406" lon="-2.3431745414048555"><ele>377.5</ele><time>2026-03-22T16:11:54.999Z</time></trkpt><trkpt lat="42.4758203198087" lon="-2.343601766881373"><ele>377.0</ele><time>2026-03-22T16:11:55.999Z</time></trkpt><trkpt lat="42.47584331268541" lon="-2.344025546784403"><ele>376.5</ele><time>2026-03-22T16:11:56.999Z</time></trkpt><trkpt lat="42.47586925945218" lon="-2.34444891367905"><ele>376.0</ele><time>2026-03-22T16:11:57.999Z</time></trkpt><trkpt lat="42.47589580640409" lon="-2.3448741583216965"><ele>375.5</ele><time>2026-03-22T16:11:58.999Z</time></trkpt><trkpt lat="42.47592075442207" lon="-2.345299797471998"><ele>375.0</ele><time>2026-03-22T16:11:59.999Z</time></trkpt><trkpt lat="42.47594074270915" lon="-2.3457288246862262"><ele>374.5</ele><time>2026-03-22T16:12:00.999Z</time></trkpt><trkpt lat="42.47595452599876" lon="-2.3461574454246565"><ele>374.0</ele><time>2026-03-22T16:12:01.999Z</time></trkpt><trkpt lat="42.475964622564895" lon="-2.3465890320253022"><ele>376.5</ele><time>2026-03-22T16:12:02.999Z</time></trkpt><trkpt lat="42.47596706228031" lon="-2.347022411049603"><ele>379.0</ele><time>2026-03-22T16:12:03.999Z</time></trkpt><trkpt lat="42.475967529002844" lon="-2.347453780677548"><ele>380.5</ele><time>2026-03-22T16:12:04.999Z</time></trkpt><trkpt lat="42.475964061105685" lon="-2.347887580535206"><ele>382.0</ele><time>2026-03-22T16:12:05.999Z</time></trkpt><trkpt lat="42.47595345599414" lon="-2.3483228585109166"><ele>383.5</ele><time>2026-03-22T16:12:06.999Z</time></trkpt><trkpt lat="42.475934958405354" lon="-2.3487547906987665"><ele>385.0</ele><time>2026-03-22T16:12:07.999Z</time></trkpt><trkpt lat="42.475908242714745" lon="-2.3491820850614804"><ele>387.0</ele><time>2026-03-22T16:12:08.999Z</time></trkpt><trkpt lat="42.47587435613529" lon="-2.3496050371123713"><ele>389.0</ele><time>2026-03-22T16:12:09.999Z</time></trkpt><trkpt lat="42.47582807184021" lon="-2.350025251983133"><ele>392.0</ele><time>2026-03-22T16:12:10.999Z</time></trkpt><trkpt lat="42.475768900490635" lon="-2.350444323462072"><ele>395.0</ele><time>2026-03-22T16:12:11.999Z</time></trkpt><trkpt lat="42.4757020217961" lon="-2.3508576667788765"><ele>396.0</ele><time>2026-03-22T16:12:12.999Z</time></trkpt><trkpt lat="42.47563057352552" lon="-2.351268009591959"><ele>397.0</ele><time>2026-03-22T16:12:13.999Z</time></trkpt><trkpt lat="42.475551741848875" lon="-2.3516656544926913"><ele>395.0</ele><time>2026-03-22T16:12:14.999Z</time></trkpt><trkpt lat="42.47546311060563" lon="-2.3520508780680496"><ele>393.0</ele><time>2026-03-22T16:12:15.999Z</time></trkpt><trkpt lat="42.475373536609844" lon="-2.352421343735599"><ele>385.5</ele><time>2026-03-22T16:12:16.999Z</time></trkpt><trkpt lat="42.47529157665458" lon="-2.3527796764166555"><ele>378.0</ele><time>2026-03-22T16:12:17.999Z</time></trkpt><trkpt lat="42.475209181248005" lon="-2.3531195934176172"><ele>377.5</ele><time>2026-03-22T16:12:18.999Z</time></trkpt><trkpt lat="42.475119897196784" lon="-2.353442366981272"><ele>377.0</ele><time>2026-03-22T16:12:19.999Z</time></trkpt><trkpt lat="42.475024179378835" lon="-2.353748782877391"><ele>376.0</ele><time>2026-03-22T16:12:20.999Z</time></trkpt><trkpt lat="42.47492476114458" lon="-2.354048655090836"><ele>375.0</ele><time>2026-03-22T16:12:21.999Z</time></trkpt><trkpt lat="42.474827396874666" lon="-2.354340057903858"><ele>375.0</ele><time>2026-03-22T16:12:22.999Z</time></trkpt><trkpt lat="42.47473480902174" lon="-2.3546092130412695"><ele>375.0</ele><time>2026-03-22T16:12:23.999Z</time></trkpt><trkpt lat="42.47465128080606" lon="-2.3548677103451916"><ele>375.0</ele><time>2026-03-22T16:12:24.999Z</time></trkpt><trkpt lat="42.47457729043741" lon="-2.35511927374894"><ele>373.3333333333333</ele><time>2026-03-22T16:12:25.999Z</time></trkpt><trkpt lat="42.47451416906703" lon="-2.355376174080819"><ele>371.66666666666663</ele><time>2026-03-22T16:12:26.999Z</time></trkpt><trkpt lat="42.474460639852005" lon="-2.3556522908947124"><ele>370.0</ele><time>2026-03-22T16:12:27.999Z</time></trkpt><trkpt lat="42.47442615946843" lon="-2.3559486972911214"><ele>370.0</ele><time>2026-03-22T16:12:28.999Z</time></trkpt><trkpt lat="42.47440995181106" lon="-2.3562617811697275"><ele>370.0</ele><time>2026-03-22T16:12:29.999Z</time></trkpt><trkpt lat="42.474409063807755" lon="-2.356581015188626"><ele>368.5</ele><time>2026-03-22T16:12:30.999Z</time></trkpt><trkpt lat="42.47443812787218" lon="-2.3568958817621604"><ele>367.0</ele><time>2026-03-22T16:12:31.999Z</time></trkpt><trkpt lat="42.47448028017934" lon="-2.357202772550188"><ele>366.66666666666663</ele><time>2026-03-22T16:12:32.998Z</time></trkpt><trkpt lat="42.474530818563856" lon="-2.3574980390197355"><ele>366.3333333333333</ele><time>2026-03-22T16:12:33.998Z</time></trkpt><trkpt lat="42.47458847220201" lon="-2.3577630982357407"><ele>366.0</ele><time>2026-03-22T16:12:34.998Z</time></trkpt><trkpt lat="42.474639197322" lon="-2.357999490153884"><ele>367.0</ele><time>2026-03-22T16:12:35.998Z</time></trkpt><trkpt lat="42.47467462250443" lon="-2.3582116322358253"><ele>368.0</ele><time>2026-03-22T16:12:36.998Z</time></trkpt><trkpt lat="42.47469694989941" lon="-2.358417333567459"><ele>369.0</ele><time>2026-03-22T16:12:37.998Z</time></trkpt><trkpt lat="42.47469371217085" lon="-2.358610921888968"><ele>369.0</ele><time>2026-03-22T16:12:38.998Z</time></trkpt><trkpt lat="42.47466416486778" lon="-2.3587894324534178"><ele>369.0</ele><time>2026-03-22T16:12:39.998Z</time></trkpt><trkpt lat="42.474618500406386" lon="-2.3589438520822243"><ele>369.0</ele><time>2026-03-22T16:12:40.998Z</time></trkpt><trkpt lat="42.47455631711625" lon="-2.3591043928813025"><ele>369.0</ele><time>2026-03-22T16:12:41.998Z</time></trkpt><trkpt lat="42.47449015243946" lon="-2.359281394547482"><ele>367.0</ele><time>2026-03-22T16:12:42.998Z</time></trkpt><trkpt lat="42.474443387585914" lon="-2.359479841160477"><ele>365.0</ele><time>2026-03-22T16:12:43.998Z</time></trkpt><trkpt lat="42.47442110997511" lon="-2.3596963022695294"><ele>363.0</ele><time>2026-03-22T16:12:44.998Z</time></trkpt><trkpt lat="42.474427486093056" lon="-2.3599266977332185"><ele>362.6666666666667</ele><time>2026-03-22T16:12:45.998Z</time></trkpt><trkpt lat="42.474454609331076" lon="-2.360170072185923"><ele>362.33333333333337</ele><time>2026-03-22T16:12:46.998Z</time></trkpt><trkpt lat="42.474489335027954" lon="-2.3604311885479285"><ele>362.0</ele><time>2026-03-22T16:12:48Z</time></trkpt><trkpt lat="42.47451785280147" lon="-2.360715551567982"><ele>362.0</ele><time>2026-03-22T16:12:49Z</time></trkpt><trkpt lat="42.474539616090084" lon="-2.3610237254747144"><ele>362.0</ele><time>2026-03-22T16:12:50Z</time></trkpt><trkpt lat="42.47457738547175" lon="-2.3613463182431027"><ele>364.0</ele><time>2026-03-22T16:12:51Z</time></trkpt><trkpt lat="42.47460650709475" lon="-2.361671342825853"><ele>366.0</ele><time>2026-03-22T16:12:52Z</time></trkpt><trkpt lat="42.474635705842125" lon="-2.361997228366667"><ele>365.0</ele><time>2026-03-22T16:12:53Z</time></trkpt><trkpt lat="42.47466555940136" lon="-2.362335341549795"><ele>364.0</ele><time>2026-03-22T16:12:54Z</time></trkpt><trkpt lat="42.47468354237721" lon="-2.3626870195516885"><ele>363.5</ele><time>2026-03-22T16:12:55Z</time></trkpt><trkpt lat="42.474715151174664" lon="-2.363044600018315"><ele>363.0</ele><time>2026-03-22T16:12:56Z</time></trkpt><trkpt lat="42.47476155220951" lon="-2.363410716444188"><ele>363.0</ele><time>2026-03-22T16:12:57Z</time></trkpt><trkpt lat="42.4747940323197" lon="-2.3637859273485398"><ele>363.0</ele><time>2026-03-22T16:12:58Z</time></trkpt><trkpt lat="42.47482606597706" lon="-2.3641559809526957"><ele>363.0</ele><time>2026-03-22T16:12:59Z</time></trkpt><trkpt lat="42.47484341662777" lon="-2.3645209896645287"><ele>363.0</ele><time>2026-03-22T16:13:00Z</time></trkpt><trkpt lat="42.474881129062304" lon="-2.3648922535970693"><ele>363.0</ele><time>2026-03-22T16:13:01Z</time></trkpt><trkpt lat="42.47491877327367" lon="-2.3652663811555388"><ele>363.0</ele><time>2026-03-22T16:13:02Z</time></trkpt><trkpt lat="42.474953781517826" lon="-2.3656365894651263"><ele>363.5</ele><time>2026-03-22T16:13:03Z</time></trkpt><trkpt lat="42.474984699942944" lon="-2.366011930366394"><ele>364.0</ele><time>2026-03-22T16:13:04Z</time></trkpt><trkpt lat="42.475009094551574" lon="-2.3663910626346047"><ele>363.0</ele><time>2026-03-22T16:13:05Z</time></trkpt><trkpt lat="42.47504872220631" lon="-2.3667737807727947"><ele>362.0</ele><time>2026-03-22T16:13:06Z</time></trkpt><trkpt lat="42.47503975341652" lon="-2.3671626724395622"><ele>363.5</ele><time>2026-03-22T16:13:07Z</time></trkpt><trkpt lat="42.47503740716957" lon="-2.3675560016915633"><ele>365.0</ele><time>2026-03-22T16:13:08Z</time></trkpt><trkpt lat="42.47501671959054" lon="-2.367951296046512"><ele>366.0</ele><time>2026-03-22T16:13:09Z</time></trkpt><trkpt lat="42.474978760613055" lon="-2.36834638364837"><ele>367.0</ele><time>2026-03-22T16:13:10Z</time></trkpt><trkpt lat="42.474944280228044" lon="-2.368744888710871"><ele>367.0</ele><time>2026-03-22T16:13:11Z</time></trkpt><trkpt lat="42.474916225238154" lon="-2.369147059807253"><ele>367.0</ele><time>2026-03-22T16:13:12Z</time></trkpt><trkpt lat="42.474889008586075" lon="-2.3695509702915056"><ele>366.5</ele><time>2026-03-22T16:13:13Z</time></trkpt><trkpt lat="42.474858426372634" lon="-2.369955665175932"><ele>366.0</ele><time>2026-03-22T16:13:14Z</time></trkpt><trkpt lat="42.4748250613322" lon="-2.370355884001944"><ele>365.5</ele><time>2026-03-22T16:13:15Z</time></trkpt><trkpt lat="42.47480888909902" lon="-2.3707502603078745"><ele>365.0</ele><time>2026-03-22T16:13:16Z</time></trkpt><trkpt lat="42.47477980902043" lon="-2.371140953275975"><ele>365.0</ele><time>2026-03-22T16:13:17Z</time></trkpt><trkpt lat="42.47473498635332" lon="-2.371530060455421"><ele>365.0</ele><time>2026-03-22T16:13:18Z</time></trkpt><trkpt lat="42.47470695390298" lon="-2.3719201319551204"><ele>367.0</ele><time>2026-03-22T16:13:19Z</time></trkpt><trkpt lat="42.47469451392382" lon="-2.372309888475886"><ele>369.0</ele><time>2026-03-22T16:13:20Z</time></trkpt><trkpt lat="42.4746525886685" lon="-2.372695216012505"><ele>370.0</ele><time>2026-03-22T16:13:21Z</time></trkpt><trkpt lat="42.47463573546659" lon="-2.3730881724580835"><ele>371.0</ele><time>2026-03-22T16:13:22Z</time></trkpt><trkpt lat="42.474633122257174" lon="-2.3734849295507625"><ele>370.0</ele><time>2026-03-22T16:13:23Z</time></trkpt><trkpt lat="42.47465178190817" lon="-2.3738864448250325"><ele>369.0</ele><time>2026-03-22T16:13:24Z</time></trkpt><trkpt lat="42.47469066105575" lon="-2.3742913331854507"><ele>366.5</ele><time>2026-03-22T16:13:25Z</time></trkpt><trkpt lat="42.47473691768765" lon="-2.374694574817668"><ele>364.0</ele><time>2026-03-22T16:13:26Z</time></trkpt><trkpt lat="42.47478368441704" lon="-2.3751014102845143"><ele>364.0</ele><time>2026-03-22T16:13:27Z</time></trkpt><trkpt lat="42.474829004730104" lon="-2.375507454779672"><ele>364.0</ele><time>2026-03-22T16:13:28Z</time></trkpt><trkpt lat="42.47487804293674" lon="-2.3759146646766203"><ele>364.5</ele><time>2026-03-22T16:13:29Z</time></trkpt><trkpt lat="42.47492840389347" lon="-2.3763213279012954"><ele>365.0</ele><time>2026-03-22T16:13:30Z</time></trkpt><trkpt lat="42.47497650060006" lon="-2.3767243848686364"><ele>365.0</ele><time>2026-03-22T16:13:31Z</time></trkpt><trkpt lat="42.47502296234787" lon="-2.3771235535502813"><ele>365.0</ele><time>2026-03-22T16:13:32Z</time></trkpt><trkpt lat="42.47506890493228" lon="-2.3775174477576515"><ele>364.0</ele><time>2026-03-22T16:13:33Z</time></trkpt><trkpt lat="42.475114820866146" lon="-2.377905509125358"><ele>363.0</ele><time>2026-03-22T16:13:34Z</time></trkpt><trkpt lat="42.475159653112506" lon="-2.3782905694516225"><ele>362.5</ele><time>2026-03-22T16:13:35Z</time></trkpt><trkpt lat="42.47520109343246" lon="-2.3786745522026465"><ele>362.0</ele><time>2026-03-22T16:13:35.999Z</time></trkpt><trkpt lat="42.475240032410255" lon="-2.3790582085141914"><ele>361.5</ele><time>2026-03-22T16:13:36.999Z</time></trkpt><trkpt lat="42.47528962432298" lon="-2.379440125469563"><ele>361.0</ele><time>2026-03-22T16:13:37.999Z</time></trkpt><trkpt lat="42.47531027395867" lon="-2.379836602403848"><ele>360.5</ele><time>2026-03-22T16:13:38.999Z</time></trkpt><trkpt lat="42.47531215549321" lon="-2.3802355610343318"><ele>360.0</ele><time>2026-03-22T16:13:39.999Z</time></trkpt><trkpt lat="42.47528380582966" lon="-2.380635924673826"><ele>361.5</ele><time>2026-03-22T16:13:40.999Z</time></trkpt><trkpt lat="42.4752650455366" lon="-2.3810367730749644"><ele>363.0</ele><time>2026-03-22T16:13:41.999Z</time></trkpt><trkpt lat="42.475239209158204" lon="-2.381438443880269"><ele>363.0</ele><time>2026-03-22T16:13:42.999Z</time></trkpt><trkpt lat="42.47523315998199" lon="-2.381841758962328"><ele>363.0</ele><time>2026-03-22T16:13:43.999Z</time></trkpt><trkpt lat="42.475210802278845" lon="-2.382238744974773"><ele>362.5</ele><time>2026-03-22T16:13:44.999Z</time></trkpt><trkpt lat="42.47517299672946" lon="-2.382626781680166"><ele>362.0</ele><time>2026-03-22T16:13:45.999Z</time></trkpt><trkpt lat="42.4751532575961" lon="-2.383020494611882"><ele>361.5</ele><time>2026-03-22T16:13:46.999Z</time></trkpt><trkpt lat="42.47512902378926" lon="-2.3834201180698553"><ele>361.0</ele><time>2026-03-22T16:13:47.999Z</time></trkpt><trkpt lat="42.47512169729776" lon="-2.383826180555076"><ele>360.5</ele><time>2026-03-22T16:13:48.999Z</time></trkpt><trkpt lat="42.47509937885659" lon="-2.3842349907008336"><ele>360.0</ele><time>2026-03-22T16:13:49.999Z</time></trkpt><trkpt lat="42.475077305758624" lon="-2.384646722200644"><ele>361.0</ele><time>2026-03-22T16:13:50.999Z</time></trkpt><trkpt lat="42.47505525593727" lon="-2.3850580196224573"><ele>362.0</ele><time>2026-03-22T16:13:51.999Z</time></trkpt><trkpt lat="42.47502106593886" lon="-2.38546344685784"><ele>362.5</ele><time>2026-03-22T16:13:52.999Z</time></trkpt><trkpt lat="42.47500200344321" lon="-2.385864381496925"><ele>363.0</ele><time>2026-03-22T16:13:53.999Z</time></trkpt><trkpt lat="42.47497792683856" lon="-2.386258378306234"><ele>362.5</ele><time>2026-03-22T16:13:54.999Z</time></trkpt><trkpt lat="42.47495680815865" lon="-2.386644445074851"><ele>362.0</ele><time>2026-03-22T16:13:55.999Z</time></trkpt><trkpt lat="42.474955989913944" lon="-2.3870301472056297"><ele>362.5</ele><time>2026-03-22T16:13:56.999Z</time></trkpt><trkpt lat="42.47492377269786" lon="-2.3874128972227067"><ele>363.0</ele><time>2026-03-22T16:13:57.999Z</time></trkpt><trkpt lat="42.4749097754275" lon="-2.387794840825385"><ele>362.5</ele><time>2026-03-22T16:13:58.999Z</time></trkpt><trkpt lat="42.47489693510346" lon="-2.3881766259722794"><ele>362.0</ele><time>2026-03-22T16:13:59.999Z</time></trkpt><trkpt lat="42.47488465997192" lon="-2.388561702202848"><ele>362.5</ele><time>2026-03-22T16:14:00.999Z</time></trkpt><trkpt lat="42.474870033011385" lon="-2.3889495509262213"><ele>363.0</ele><time>2026-03-22T16:14:01.999Z</time></trkpt><trkpt lat="42.47485179500859" lon="-2.389336364806513"><ele>361.5</ele><time>2026-03-22T16:14:02.999Z</time></trkpt><trkpt lat="42.47483106399655" lon="-2.3897175964235458"><ele>360.0</ele><time>2026-03-22T16:14:03.999Z</time></trkpt><trkpt lat="42.47483232473131" lon="-2.390093555505522"><ele>360.0</ele><time>2026-03-22T16:14:04.999Z</time></trkpt><trkpt lat="42.474818312842004" lon="-2.3904648456968056"><ele>360.0</ele><time>2026-03-22T16:14:05.999Z</time></trkpt><trkpt lat="42.47480490944643" lon="-2.390836926145591"><ele>359.5</ele><time>2026-03-22T16:14:06.999Z</time></trkpt><trkpt lat="42.47479096124488" lon="-2.3912091383537146"><ele>359.0</ele><time>2026-03-22T16:14:07.999Z</time></trkpt><trkpt lat="42.47476288144784" lon="-2.3915799613496325"><ele>360.5</ele><time>2026-03-22T16:14:08.999Z</time></trkpt><trkpt lat="42.47476308541739" lon="-2.391942521329712"><ele>362.0</ele><time>2026-03-22T16:14:09.999Z</time></trkpt><trkpt lat="42.47474956613794" lon="-2.3922842143434044"><ele>362.5</ele><time>2026-03-22T16:14:10.999Z</time></trkpt><trkpt lat="42.474736858949164" lon="-2.392607691844058"><ele>363.0</ele><time>2026-03-22T16:14:11.999Z</time></trkpt><trkpt lat="42.47472499155621" lon="-2.392909785106327"><ele>363.0</ele><time>2026-03-22T16:14:12.999Z</time></trkpt><trkpt lat="42.47471379293808" lon="-2.3931948542185006"><ele>363.0</ele><time>2026-03-22T16:14:13.999Z</time></trkpt><trkpt lat="42.474695374220715" lon="-2.393468953329047"><ele>363.0</ele><time>2026-03-22T16:14:14.999Z</time></trkpt><trkpt lat="42.4746963958424" lon="-2.393750154742466"><ele>363.3333333333333</ele><time>2026-03-22T16:14:15.999Z</time></trkpt><trkpt lat="42.47470598939687" lon="-2.3940388559150576"><ele>363.66666666666663</ele><time>2026-03-22T16:14:16.999Z</time></trkpt><trkpt lat="42.47471815419935" lon="-2.394330188631292"><ele>364.0</ele><time>2026-03-22T16:14:17.999Z</time></trkpt><trkpt lat="42.47473003312175" lon="-2.3946205700845478"><ele>364.3333333333333</ele><time>2026-03-22T16:14:18.999Z</time></trkpt><trkpt lat="42.474741969370456" lon="-2.3949125567799254"><ele>364.6666666666667</ele><time>2026-03-22T16:14:19.999Z</time></trkpt><trkpt lat="42.47475083881196" lon="-2.3952034233620854"><ele>365.0</ele><time>2026-03-22T16:14:20.999Z</time></trkpt><trkpt lat="42.47475699415056" lon="-2.3954820817320095"><ele>364.33333333333337</ele><time>2026-03-22T16:14:21.999Z</time></trkpt><trkpt lat="42.474758430675784" lon="-2.395750509266616"><ele>363.6666666666667</ele><time>2026-03-22T16:14:22.999Z</time></trkpt><trkpt lat="42.474752305165694" lon="-2.3960157406050056"><ele>363.0</ele><time>2026-03-22T16:14:23.999Z</time></trkpt><trkpt lat="42.47473892411741" lon="-2.396285044758395"><ele>363.0</ele><time>2026-03-22T16:14:24.999Z</time></trkpt><trkpt lat="42.474718930014006" lon="-2.3965532665929095"><ele>363.0</ele><time>2026-03-22T16:14:25.999Z</time></trkpt><trkpt lat="42.47469414688259" lon="-2.3968234496384055"><ele>363.0</ele><time>2026-03-22T16:14:26.999Z</time></trkpt><trkpt lat="42.474666156517394" lon="-2.3970953035055107"><ele>363.0</ele><time>2026-03-22T16:14:27.999Z</time></trkpt><trkpt lat="42.47463706657347" lon="-2.3973701067031867"><ele>363.0</ele><time>2026-03-22T16:14:28.999Z</time></trkpt><trkpt lat="42.474608562177096" lon="-2.397649368931185"><ele>363.0</ele><time>2026-03-22T16:14:29.999Z</time></trkpt><trkpt lat="42.47458199577586" lon="-2.397932573516839"><ele>363.0</ele><time>2026-03-22T16:14:30.999Z</time></trkpt><trkpt lat="42.474557413293134" lon="-2.3982202027637243"><ele>363.0</ele><time>2026-03-22T16:14:31.998Z</time></trkpt><trkpt lat="42.47453636722273" lon="-2.398510833880304"><ele>363.0</ele><time>2026-03-22T16:14:32.998Z</time></trkpt><trkpt lat="42.474519189199754" lon="-2.3988032912924915"><ele>363.3333333333333</ele><time>2026-03-22T16:14:33.998Z</time></trkpt><trkpt lat="42.474505158821586" lon="-2.3990975710334657"><ele>363.66666666666663</ele><time>2026-03-22T16:14:34.998Z</time></trkpt><trkpt lat="42.474492341645124" lon="-2.3993818630864028"><ele>364.0</ele><time>2026-03-22T16:14:35.998Z</time></trkpt><trkpt lat="42.47448142083206" lon="-2.3996559096445416"><ele>364.0</ele><time>2026-03-22T16:14:36.998Z</time></trkpt><trkpt lat="42.4744725325609" lon="-2.3999181266444616"><ele>364.0</ele><time>2026-03-22T16:14:37.998Z</time></trkpt><trkpt lat="42.47446222133787" lon="-2.4001668032677386"><ele>364.0</ele><time>2026-03-22T16:14:38.998Z</time></trkpt><trkpt lat="42.47445038119261" lon="-2.400401995359419"><ele>364.0</ele><time>2026-03-22T16:14:39.998Z</time></trkpt><trkpt lat="42.47444047112789" lon="-2.4006169723292685"><ele>364.0</ele><time>2026-03-22T16:14:40.998Z</time></trkpt><trkpt lat="42.47443318706977" lon="-2.400814242811943"><ele>364.0</ele><time>2026-03-22T16:14:41.998Z</time></trkpt><trkpt lat="42.47442494036657" lon="-2.40100586391153"><ele>364.0</ele><time>2026-03-22T16:14:42.998Z</time></trkpt><trkpt lat="42.47441406765772" lon="-2.4011897581359416"><ele>364.25</ele><time>2026-03-22T16:14:43.998Z</time></trkpt><trkpt lat="42.47440210634493" lon="-2.4013660271706025"><ele>364.5</ele><time>2026-03-22T16:14:44.998Z</time></trkpt><trkpt lat="42.474383345297724" lon="-2.4015291791413134"><ele>364.75</ele><time>2026-03-22T16:14:45.998Z</time></trkpt><trkpt lat="42.47436010051482" lon="-2.4016841031225473"><ele>365.0</ele><time>2026-03-22T16:14:46.998Z</time></trkpt><trkpt lat="42.47434536979105" lon="-2.4018348072492244"><ele>365.0</ele><time>2026-03-22T16:14:47.998Z</time></trkpt><trkpt lat="42.47435193994472" lon="-2.4019777448368305"><ele>365.0</ele><time>2026-03-22T16:14:48.998Z</time></trkpt><trkpt lat="42.4743762313421" lon="-2.4021123993015046"><ele>365.0</ele><time>2026-03-22T16:14:49.998Z</time></trkpt><trkpt lat="42.474393221216474" lon="-2.4022390192995964"><ele>365.0</ele><time>2026-03-22T16:14:50.998Z</time></trkpt><trkpt lat="42.47437672913572" lon="-2.402354097591627"><ele>365.0</ele><time>2026-03-22T16:14:51.998Z</time></trkpt><trkpt lat="42.4743314000645" lon="-2.4024553959176007"><ele>365.5</ele><time>2026-03-22T16:14:52.998Z</time></trkpt><trkpt lat="42.474263966387596" lon="-2.4025493025342635"><ele>366.0</ele><time>2026-03-22T16:14:54Z</time></trkpt><trkpt lat="42.474192543967185" lon="-2.4026636535257175"><ele>366.5</ele><time>2026-03-22T16:14:55Z</time></trkpt><trkpt lat="42.47412558978173" lon="-2.402816509790934"><ele>367.0</ele><time>2026-03-22T16:14:56Z</time></trkpt><trkpt lat="42.47407206058212" lon="-2.403004184896447"><ele>367.0</ele><time>2026-03-22T16:14:57Z</time></trkpt><trkpt lat="42.474027150639856" lon="-2.4032199271919263"><ele>367.0</ele><time>2026-03-22T16:14:58Z</time></trkpt><trkpt lat="42.47398443395825" lon="-2.4034514081466853"><ele>367.0</ele><time>2026-03-22T16:14:59Z</time></trkpt><trkpt lat="42.47393610993226" lon="-2.4037032822859192"><ele>367.3333333333333</ele><time>2026-03-22T16:15:00Z</time></trkpt><trkpt lat="42.47388315187158" lon="-2.4039733884770618"><ele>367.6666666666667</ele><time>2026-03-22T16:15:01Z</time></trkpt><trkpt lat="42.473828167863395" lon="-2.4042346785511777"><ele>368.0</ele><time>2026-03-22T16:15:02Z</time></trkpt><trkpt lat="42.473765118383646" lon="-2.4045111025881813"><ele>367.5</ele><time>2026-03-22T16:15:03Z</time></trkpt><trkpt lat="42.473700552300315" lon="-2.404799150285865"><ele>367.0</ele><time>2026-03-22T16:15:04Z</time></trkpt><trkpt lat="42.47364508958087" lon="-2.4051038259062367"><ele>367.0</ele><time>2026-03-22T16:15:05Z</time></trkpt><trkpt lat="42.473596738227066" lon="-2.4054233802222327"><ele>367.0</ele><time>2026-03-22T16:15:06Z</time></trkpt><trkpt lat="42.47354281875406" lon="-2.4057524332868927"><ele>369.0</ele><time>2026-03-22T16:15:07Z</time></trkpt><trkpt lat="42.47348789586288" lon="-2.4060825153672383"><ele>371.0</ele><time>2026-03-22T16:15:08Z</time></trkpt><trkpt lat="42.473431273902726" lon="-2.4064082575434194"><ele>371.0</ele><time>2026-03-22T16:15:09Z</time></trkpt><trkpt lat="42.47337288014782" lon="-2.4067258249829373"><ele>371.0</ele><time>2026-03-22T16:15:10Z</time></trkpt><trkpt lat="42.473316370997075" lon="-2.407037256303436"><ele>370.6666666666667</ele><time>2026-03-22T16:15:11Z</time></trkpt><trkpt lat="42.47326286605707" lon="-2.4073317912741605"><ele>370.3333333333333</ele><time>2026-03-22T16:15:12Z</time></trkpt><trkpt lat="42.47321032255759" lon="-2.4076074978317172"><ele>370.0</ele><time>2026-03-22T16:15:13Z</time></trkpt><trkpt lat="42.47316399959698" lon="-2.407860843843434"><ele>370.3333333333333</ele><time>2026-03-22T16:15:14Z</time></trkpt><trkpt lat="42.47312105812047" lon="-2.408095762662497"><ele>370.6666666666667</ele><time>2026-03-22T16:15:15Z</time></trkpt><trkpt lat="42.473081059745056" lon="-2.4083072422437564"><ele>371.0</ele><time>2026-03-22T16:15:16Z</time></trkpt><trkpt lat="42.47304741976882" lon="-2.40849617549812"><ele>371.0</ele><time>2026-03-22T16:15:17Z</time></trkpt><trkpt lat="42.473013084960606" lon="-2.4086769652746813"><ele>371.0</ele><time>2026-03-22T16:15:18Z</time></trkpt><trkpt lat="42.47299093089293" lon="-2.4088464183383684"><ele>371.0</ele><time>2026-03-22T16:15:19Z</time></trkpt><trkpt lat="42.4729849229081" lon="-2.4090190663402957"><ele>371.0</ele><time>2026-03-22T16:15:20Z</time></trkpt><trkpt lat="42.4729944283577" lon="-2.4091809750683844"><ele>370.8</ele><time>2026-03-22T16:15:21Z</time></trkpt><trkpt lat="42.472995038499526" lon="-2.409325746914946"><ele>370.6</ele><time>2026-03-22T16:15:22Z</time></trkpt><trkpt lat="42.47297519861194" lon="-2.409464219643681"><ele>370.4</ele><time>2026-03-22T16:15:23Z</time></trkpt><trkpt lat="42.47293018120081" lon="-2.4095923775313124"><ele>370.2</ele><time>2026-03-22T16:15:24Z</time></trkpt><trkpt lat="42.47286238752747" lon="-2.4097317660754016"><ele>370.0</ele><time>2026-03-22T16:15:25Z</time></trkpt><trkpt lat="42.4728013945769" lon="-2.409891329963248"><ele>370.0</ele><time>2026-03-22T16:15:26Z</time></trkpt><trkpt lat="42.47275461719185" lon="-2.4100926900936614"><ele>370.0</ele><time>2026-03-22T16:15:27Z</time></trkpt><trkpt lat="42.472714472748926" lon="-2.4103164315739165"><ele>370.0</ele><time>2026-03-22T16:15:28Z</time></trkpt><trkpt lat="42.472672471576345" lon="-2.410564577461087"><ele>370.0</ele><time>2026-03-22T16:15:29Z</time></trkpt><trkpt lat="42.472624791964385" lon="-2.4108302413428278"><ele>370.0</ele><time>2026-03-22T16:15:30Z</time></trkpt><trkpt lat="42.472570395728305" lon="-2.41110931585266"><ele>370.0</ele><time>2026-03-22T16:15:31Z</time></trkpt><trkpt lat="42.47251697966126" lon="-2.411377802093691"><ele>370.3333333333333</ele><time>2026-03-22T16:15:32Z</time></trkpt><trkpt lat="42.472466611483036" lon="-2.411655019011871"><ele>370.6666666666667</ele><time>2026-03-22T16:15:33Z</time></trkpt><trkpt lat="42.47241795726285" lon="-2.4119371988178036"><ele>371.0</ele><time>2026-03-22T16:15:34Z</time></trkpt><trkpt lat="42.472366949644034" lon="-2.4122251493915616"><ele>372.0</ele><time>2026-03-22T16:15:35Z</time></trkpt><trkpt lat="42.47231450213036" lon="-2.4125226373374056"><ele>373.0</ele><time>2026-03-22T16:15:36Z</time></trkpt><trkpt lat="42.472268169656" lon="-2.412826065378871"><ele>372.0</ele><time>2026-03-22T16:15:37Z</time></trkpt><trkpt lat="42.4722271448756" lon="-2.413136690961497"><ele>371.0</ele><time>2026-03-22T16:15:37.999Z</time></trkpt><trkpt lat="42.47219592391172" lon="-2.4134476286483175"><ele>371.0</ele><time>2026-03-22T16:15:38.999Z</time></trkpt><trkpt lat="42.47217259050633" lon="-2.4137574136818007"><ele>371.0</ele><time>2026-03-22T16:15:39.999Z</time></trkpt><trkpt lat="42.47215370977981" lon="-2.414065329817379"><ele>371.33333333333337</ele><time>2026-03-22T16:15:40.999Z</time></trkpt><trkpt lat="42.47214064265763" lon="-2.414366824762469"><ele>371.6666666666667</ele><time>2026-03-22T16:15:41.999Z</time></trkpt><trkpt lat="42.472133381017514" lon="-2.414645411210809"><ele>372.0</ele><time>2026-03-22T16:15:42.999Z</time></trkpt><trkpt lat="42.47213150100965" lon="-2.4149036075619836"><ele>372.0</ele><time>2026-03-22T16:15:43.999Z</time></trkpt><trkpt lat="42.472134084570015" lon="-2.4151281715765687"><ele>372.0</ele><time>2026-03-22T16:15:44.999Z</time></trkpt><trkpt lat="42.472143916091014" lon="-2.4153151546390688"><ele>372.0</ele><time>2026-03-22T16:15:45.999Z</time></trkpt><trkpt lat="42.47217312462562" lon="-2.415465836399023"><ele>372.0</ele><time>2026-03-22T16:15:46.999Z</time></trkpt><trkpt lat="42.47222357306792" lon="-2.4156010376865824"><ele>372.5</ele><time>2026-03-22T16:15:47.999Z</time></trkpt><trkpt lat="42.47229088347504" lon="-2.415713502177577"><ele>373.0</ele><time>2026-03-22T16:15:48.999Z</time></trkpt><trkpt lat="42.47238979542769" lon="-2.415825804983537"><ele>373.5</ele><time>2026-03-22T16:15:49.999Z</time></trkpt><trkpt lat="42.47250189204298" lon="-2.415904155728398"><ele>374.0</ele><time>2026-03-22T16:15:50.999Z</time></trkpt><trkpt lat="42.47261842637877" lon="-2.4159435406140926"><ele>374.0</ele><time>2026-03-22T16:15:51.999Z</time></trkpt><trkpt lat="42.47275341269896" lon="-2.4159454006020584"><ele>374.0</ele><time>2026-03-22T16:15:52.999Z</time></trkpt><trkpt lat="42.47289751667038" lon="-2.415924600902945"><ele>374.0</ele><time>2026-03-22T16:15:53.999Z</time></trkpt><trkpt lat="42.47306635813379" lon="-2.415882186939841"><ele>374.6666666666667</ele><time>2026-03-22T16:15:54.999Z</time></trkpt><trkpt lat="42.47325475697034" lon="-2.415835042584023"><ele>375.3333333333333</ele><time>2026-03-22T16:15:55.999Z</time></trkpt><trkpt lat="42.47346629632315" lon="-2.4157866752178707"><ele>376.0</ele><time>2026-03-22T16:15:56.999Z</time></trkpt><trkpt lat="42.47369904281312" lon="-2.4157255287918256"><ele>379.0</ele><time>2026-03-22T16:15:57.999Z</time></trkpt><trkpt lat="42.47394326300151" lon="-2.4156361091984464"><ele>382.0</ele><time>2026-03-22T16:15:58.999Z</time></trkpt><trkpt lat="42.474177791667174" lon="-2.415523951892327"><ele>383.5</ele><time>2026-03-22T16:15:59.999Z</time></trkpt><trkpt lat="42.474410264327794" lon="-2.4154058129067892"><ele>385.0</ele><time>2026-03-22T16:16:00.999Z</time></trkpt><trkpt lat="42.47464257190116" lon="-2.4152926639125263"><ele>385.0</ele><time>2026-03-22T16:16:01.999Z</time></trkpt><trkpt lat="42.47487233811627" lon="-2.415190873937349"><ele>385.0</ele><time>2026-03-22T16:16:02.999Z</time></trkpt><trkpt lat="42.475111161485636" lon="-2.4150887623866386"><ele>385.0</ele><time>2026-03-22T16:16:03.999Z</time></trkpt><trkpt lat="42.475358603099565" lon="-2.4149868830210357"><ele>385.0</ele><time>2026-03-22T16:16:04.999Z</time></trkpt><trkpt lat="42.47561664788611" lon="-2.414890745940558"><ele>391.0</ele><time>2026-03-22T16:16:05.999Z</time></trkpt><trkpt lat="42.47588495092082" lon="-2.4148092712837554"><ele>397.0</ele><time>2026-03-22T16:16:06.999Z</time></trkpt><trkpt lat="42.47616109924707" lon="-2.414748569578849"><ele>401.5</ele><time>2026-03-22T16:16:07.999Z</time></trkpt><trkpt lat="42.47644408055352" lon="-2.4147165762541647"><ele>406.0</ele><time>2026-03-22T16:16:08.999Z</time></trkpt><trkpt lat="42.47672821334779" lon="-2.41471323652349"><ele>406.0</ele><time>2026-03-22T16:16:09.999Z</time></trkpt><trkpt lat="42.477017629962695" lon="-2.414738024151729"><ele>406.0</ele><time>2026-03-22T16:16:10.999Z</time></trkpt><trkpt lat="42.47730543278373" lon="-2.414789597629514"><ele>407.0</ele><time>2026-03-22T16:16:11.999Z</time></trkpt><trkpt lat="42.477593208109724" lon="-2.414854632147656"><ele>408.0</ele><time>2026-03-22T16:16:12.999Z</time></trkpt><trkpt lat="42.47787154186016" lon="-2.414953670681475"><ele>409.0</ele><time>2026-03-22T16:16:13.999Z</time></trkpt><trkpt lat="42.47814259637461" lon="-2.4150790704874963"><ele>410.0</ele><time>2026-03-22T16:16:14.999Z</time></trkpt><trkpt lat="42.47840956159531" lon="-2.415235300468031"><ele>410.0</ele><time>2026-03-22T16:16:15.999Z</time></trkpt><trkpt lat="42.47867077936209" lon="-2.4154036544010737"><ele>410.0</ele><time>2026-03-22T16:16:16.999Z</time></trkpt><trkpt lat="42.47893211627192" lon="-2.4155835503811747"><ele>411.5</ele><time>2026-03-22T16:16:17.999Z</time></trkpt><trkpt lat="42.47919061335918" lon="-2.415759335227623"><ele>413.0</ele><time>2026-03-22T16:16:18.999Z</time></trkpt><trkpt lat="42.479440675104236" lon="-2.415925556496295"><ele>413.5</ele><time>2026-03-22T16:16:19.999Z</time></trkpt><trkpt lat="42.47969612346518" lon="-2.416088213885735"><ele>414.0</ele><time>2026-03-22T16:16:20.999Z</time></trkpt><trkpt lat="42.479956756663846" lon="-2.4162558017739966"><ele>414.0</ele><time>2026-03-22T16:16:21.999Z</time></trkpt><trkpt lat="42.48021797123641" lon="-2.416428918290516"><ele>414.0</ele><time>2026-03-22T16:16:22.999Z</time></trkpt><trkpt lat="42.48048065940593" lon="-2.4166055511857594"><ele>413.0</ele><time>2026-03-22T16:16:23.999Z</time></trkpt><trkpt lat="42.48074282121313" lon="-2.41678497055704"><ele>412.0</ele><time>2026-03-22T16:16:24.999Z</time></trkpt><trkpt lat="42.48100101844518" lon="-2.4169627949980605"><ele>412.0</ele><time>2026-03-22T16:16:25.999Z</time></trkpt><trkpt lat="42.481252467669464" lon="-2.417132309977354"><ele>412.0</ele><time>2026-03-22T16:16:26.999Z</time></trkpt><trkpt lat="42.481504957044" lon="-2.417295319468763"><ele>414.0</ele><time>2026-03-22T16:16:27.999Z</time></trkpt><trkpt lat="42.481750089046045" lon="-2.417454705288426"><ele>416.0</ele><time>2026-03-22T16:16:28.999Z</time></trkpt><trkpt lat="42.48199644841147" lon="-2.4176163473685373"><ele>411.0</ele><time>2026-03-22T16:16:29.999Z</time></trkpt><trkpt lat="42.482241667757314" lon="-2.4177784611245405"><ele>406.0</ele><time>2026-03-22T16:16:30.999Z</time></trkpt><trkpt lat="42.48248709008744" lon="-2.417945057444801"><ele>408.5</ele><time>2026-03-22T16:16:31.999Z</time></trkpt><trkpt lat="42.48273411048877" lon="-2.418110258091011"><ele>411.0</ele><time>2026-03-22T16:16:32.998Z</time></trkpt><trkpt lat="42.48297800236371" lon="-2.418273197871283"><ele>412.0</ele><time>2026-03-22T16:16:33.998Z</time></trkpt><trkpt lat="42.48322635389145" lon="-2.4184266174977362"><ele>413.0</ele><time>2026-03-22T16:16:34.998Z</time></trkpt><trkpt lat="42.48346951067878" lon="-2.418583058715049"><ele>413.0</ele><time>2026-03-22T16:16:35.998Z</time></trkpt><trkpt lat="42.48369297089694" lon="-2.418726774072901"><ele>413.0</ele><time>2026-03-22T16:16:36.998Z</time></trkpt><trkpt lat="42.48390722040552" lon="-2.4188667919520093"><ele>411.3333333333333</ele><time>2026-03-22T16:16:37.998Z</time></trkpt><trkpt lat="42.48411292417886" lon="-2.4190043186454324"><ele>409.66666666666663</ele><time>2026-03-22T16:16:38.998Z</time></trkpt><trkpt lat="42.484305712320754" lon="-2.419131233712587"><ele>408.0</ele><time>2026-03-22T16:16:39.998Z</time></trkpt><trkpt lat="42.48449153409458" lon="-2.419238370159481"><ele>406.66666666666663</ele><time>2026-03-22T16:16:40.998Z</time></trkpt><trkpt lat="42.48467626790585" lon="-2.419324942501579"><ele>405.3333333333333</ele><time>2026-03-22T16:16:41.998Z</time></trkpt><trkpt lat="42.484873257617124" lon="-2.419414225683165"><ele>404.0</ele><time>2026-03-22T16:16:42.998Z</time></trkpt><trkpt lat="42.485075751059426" lon="-2.4194959080267155"><ele>404.0</ele><time>2026-03-22T16:16:43.998Z</time></trkpt><trkpt lat="42.48528118308271" lon="-2.4195554052302386"><ele>404.0</ele><time>2026-03-22T16:16:44.998Z</time></trkpt><trkpt lat="42.48547779269819" lon="-2.4195969778995594"><ele>404.0</ele><time>2026-03-22T16:16:45.998Z</time></trkpt><trkpt lat="42.48568182705198" lon="-2.419615721991038"><ele>402.3333333333333</ele><time>2026-03-22T16:16:46.998Z</time></trkpt><trkpt lat="42.48588756372914" lon="-2.419605469047795"><ele>400.66666666666663</ele><time>2026-03-22T16:16:47.998Z</time></trkpt><trkpt lat="42.486088114926574" lon="-2.4195766998939288"><ele>399.0</ele><time>2026-03-22T16:16:48.998Z</time></trkpt><trkpt lat="42.48628810167057" lon="-2.4195037372178834"><ele>398.0</ele><time>2026-03-22T16:16:49.998Z</time></trkpt><trkpt lat="42.48648371852775" lon="-2.4193963506581895"><ele>397.0</ele><time>2026-03-22T16:16:50.998Z</time></trkpt><trkpt lat="42.486666309025466" lon="-2.4192666016108024"><ele>396.0</ele><time>2026-03-22T16:16:51.998Z</time></trkpt><trkpt lat="42.4868416102145" lon="-2.419104782780544"><ele>396.0</ele><time>2026-03-22T16:16:52.998Z</time></trkpt><trkpt lat="42.4870040585162" lon="-2.41891816443459"><ele>396.0</ele><time>2026-03-22T16:16:53.998Z</time></trkpt><trkpt lat="42.48716075548914" lon="-2.418717743951962"><ele>396.0</ele><time>2026-03-22T16:16:54.998Z</time></trkpt><trkpt lat="42.487314988755045" lon="-2.4185117795084348"><ele>395.0</ele><time>2026-03-22T16:16:55.998Z</time></trkpt><trkpt lat="42.4874560493731" lon="-2.41832829364417"><ele>394.0</ele><time>2026-03-22T16:16:56.998Z</time></trkpt><trkpt lat="42.48759648114161" lon="-2.4181637882519977"><ele>393.0</ele><time>2026-03-22T16:16:57.998Z</time></trkpt><trkpt lat="42.48773685653363" lon="-2.418023718574887"><ele>391.66666666666663</ele><time>2026-03-22T16:16:58.998Z</time></trkpt><trkpt lat="42.48788274856032" lon="-2.4179099004562388"><ele>390.3333333333333</ele><time>2026-03-22T16:17:00Z</time></trkpt><trkpt lat="42.48803963190781" lon="-2.4178386983830835"><ele>389.0</ele><time>2026-03-22T16:17:01Z</time></trkpt><trkpt lat="42.48820607253222" lon="-2.417798924959142"><ele>389.0</ele><time>2026-03-22T16:17:02Z</time></trkpt><trkpt lat="42.48837741941898" lon="-2.4177933609306095"><ele>389.0</ele><time>2026-03-22T16:17:03Z</time></trkpt><trkpt lat="42.48855250613146" lon="-2.4178176889264114"><ele>389.0</ele><time>2026-03-22T16:17:04Z</time></trkpt><trkpt lat="42.48872704443588" lon="-2.4178748557986185"><ele>389.0</ele><time>2026-03-22T16:17:05Z</time></trkpt><trkpt lat="42.48889368311055" lon="-2.417981007146978"><ele>389.0</ele><time>2026-03-22T16:17:06Z</time></trkpt><trkpt lat="42.48903942224764" lon="-2.4181243653909865"><ele>389.0</ele><time>2026-03-22T16:17:07Z</time></trkpt><trkpt lat="42.48918510906273" lon="-2.418286847980791"><ele>390.3333333333333</ele><time>2026-03-22T16:17:08Z</time></trkpt><trkpt lat="42.48929482046452" lon="-2.418498063871783"><ele>391.66666666666663</ele><time>2026-03-22T16:17:09Z</time></trkpt><trkpt lat="42.48937645629855" lon="-2.4187341726153204"><ele>393.0</ele><time>2026-03-22T16:17:10Z</time></trkpt><trkpt lat="42.489428136066415" lon="-2.418973608584939"><ele>393.0</ele><time>2026-03-22T16:17:11Z</time></trkpt><trkpt lat="42.489446587239144" lon="-2.419224843998059"><ele>393.0</ele><time>2026-03-22T16:17:12Z</time></trkpt><trkpt lat="42.48942362091681" lon="-2.419495312767315"><ele>393.0</ele><time>2026-03-22T16:17:13Z</time></trkpt><trkpt lat="42.48938635862531" lon="-2.4197647367213446"><ele>393.0</ele><time>2026-03-22T16:17:14Z</time></trkpt><trkpt lat="42.489319432293215" lon="-2.4200402947273836"><ele>393.0</ele><time>2026-03-22T16:17:15Z</time></trkpt><trkpt lat="42.48923685707561" lon="-2.4203259104525436"><ele>393.0</ele><time>2026-03-22T16:17:16Z</time></trkpt><trkpt lat="42.489155613631226" lon="-2.420629238685254"><ele>397.5</ele><time>2026-03-22T16:17:17Z</time></trkpt><trkpt lat="42.48908129147396" lon="-2.4209498688563884"><ele>402.0</ele><time>2026-03-22T16:17:18Z</time></trkpt><trkpt lat="42.48901342031989" lon="-2.4212914218750416"><ele>404.0</ele><time>2026-03-22T16:17:19Z</time></trkpt><trkpt lat="42.4889532581813" lon="-2.421640102706868"><ele>406.0</ele><time>2026-03-22T16:17:20Z</time></trkpt><trkpt lat="42.48890539864072" lon="-2.421963810132963"><ele>406.0</ele><time>2026-03-22T16:17:21Z</time></trkpt><trkpt lat="42.48886693936933" lon="-2.4222909817922873"><ele>406.0</ele><time>2026-03-22T16:17:22Z</time></trkpt><trkpt lat="42.488833961655196" lon="-2.4226315599995374"><ele>406.0</ele><time>2026-03-22T16:17:23Z</time></trkpt><trkpt lat="42.4887967994238" lon="-2.4229773366422567"><ele>406.0</ele><time>2026-03-22T16:17:24Z</time></trkpt><trkpt lat="42.488755463825996" lon="-2.42332687154972"><ele>405.5</ele><time>2026-03-22T16:17:25Z</time></trkpt><trkpt lat="42.48871187523625" lon="-2.4236786859564377"><ele>405.0</ele><time>2026-03-22T16:17:26Z</time></trkpt><trkpt lat="42.48867005136715" lon="-2.4240243593783855"><ele>405.0</ele><time>2026-03-22T16:17:27Z</time></trkpt><trkpt lat="42.48863410109607" lon="-2.4243520074051403"><ele>405.0</ele><time>2026-03-22T16:17:28Z</time></trkpt><trkpt lat="42.488605772744755" lon="-2.4246584165330693"><ele>405.33333333333337</ele><time>2026-03-22T16:17:29Z</time></trkpt><trkpt lat="42.48858236369844" lon="-2.424941892357866"><ele>405.6666666666667</ele><time>2026-03-22T16:17:30Z</time></trkpt><trkpt lat="42.488555705094235" lon="-2.425204383530988"><ele>406.0</ele><time>2026-03-22T16:17:31Z</time></trkpt><trkpt lat="42.48853567923004" lon="-2.4254140577628776"><ele>406.75</ele><time>2026-03-22T16:17:32Z</time></trkpt><trkpt lat="42.488527435821986" lon="-2.4255917931573134"><ele>407.5</ele><time>2026-03-22T16:17:33Z</time></trkpt><trkpt lat="42.48853443427365" lon="-2.4257458783773758"><ele>408.25</ele><time>2026-03-22T16:17:34Z</time></trkpt><trkpt lat="42.48856676323816" lon="-2.425887156329934"><ele>409.0</ele><time>2026-03-22T16:17:35Z</time></trkpt><trkpt lat="42.48863637621847" lon="-2.4260071005282904"><ele>409.0</ele><time>2026-03-22T16:17:36Z</time></trkpt><trkpt lat="42.48872028580004" lon="-2.4261248567844054"><ele>409.0</ele><time>2026-03-22T16:17:37Z</time></trkpt><trkpt lat="42.48879216276584" lon="-2.426258221823397"><ele>409.0</ele><time>2026-03-22T16:17:38Z</time></trkpt><trkpt lat="42.48883188392129" lon="-2.426407881639274"><ele>409.0</ele><time>2026-03-22T16:17:39Z</time></trkpt><trkpt lat="42.48884821996821" lon="-2.426573585707109"><ele>409.25</ele><time>2026-03-22T16:17:40Z</time></trkpt><trkpt lat="42.4888419786015" lon="-2.426743591380493"><ele>409.5</ele><time>2026-03-22T16:17:41Z</time></trkpt><trkpt lat="42.48879985259402" lon="-2.4268983734554745"><ele>409.75</ele><time>2026-03-22T16:17:41.999Z</time></trkpt><trkpt lat="42.488720556363575" lon="-2.427033089746679"><ele>410.0</ele><time>2026-03-22T16:17:42.999Z</time></trkpt><trkpt lat="42.48861433259882" lon="-2.4271435246131574"><ele>409.75</ele><time>2026-03-22T16:17:43.999Z</time></trkpt><trkpt lat="42.48848741829739" lon="-2.4272234037078717"><ele>409.5</ele><time>2026-03-22T16:17:44.999Z</time></trkpt><trkpt lat="42.48833998634355" lon="-2.427278461106504"><ele>409.25</ele><time>2026-03-22T16:17:45.999Z</time></trkpt><trkpt lat="42.48820531084831" lon="-2.427328361130845"><ele>409.0</ele><time>2026-03-22T16:17:46.999Z</time></trkpt><trkpt lat="42.48809623355819" lon="-2.427403168529257"><ele>409.0</ele><time>2026-03-22T16:17:47.999Z</time></trkpt><trkpt lat="42.488012680408765" lon="-2.4275074362213664"><ele>409.0</ele><time>2026-03-22T16:17:48.999Z</time></trkpt><trkpt lat="42.48796889826528" lon="-2.427638169937212"><ele>409.0</ele><time>2026-03-22T16:17:49.999Z</time></trkpt><trkpt lat="42.48794572491876" lon="-2.427803960986636"><ele>409.0</ele><time>2026-03-22T16:17:50.999Z</time></trkpt><trkpt lat="42.48793876424807" lon="-2.428000580215067"><ele>411.0</ele><time>2026-03-22T16:17:51.999Z</time></trkpt><trkpt lat="42.48792350901769" lon="-2.4282200321280194"><ele>413.0</ele><time>2026-03-22T16:17:52.999Z</time></trkpt><trkpt lat="42.48789639437145" lon="-2.4284714016557944"><ele>415.0</ele><time>2026-03-22T16:17:53.999Z</time></trkpt><trkpt lat="42.48785432477165" lon="-2.428752182077298"><ele>415.5</ele><time>2026-03-22T16:17:54.999Z</time></trkpt><trkpt lat="42.48779290695191" lon="-2.4290559489298986"><ele>416.0</ele><time>2026-03-22T16:17:55.999Z</time></trkpt><trkpt lat="42.48771851630157" lon="-2.429378805131912"><ele>415.5</ele><time>2026-03-22T16:17:56.999Z</time></trkpt><trkpt lat="42.48763642781165" lon="-2.429718133890421"><ele>415.0</ele><time>2026-03-22T16:17:57.999Z</time></trkpt><trkpt lat="42.48755876477701" lon="-2.4300381672932274"><ele>415.0</ele><time>2026-03-22T16:17:58.999Z</time></trkpt><trkpt lat="42.48747427136751" lon="-2.4303678775508892"><ele>415.0</ele><time>2026-03-22T16:17:59.999Z</time></trkpt><trkpt lat="42.4873786155841" lon="-2.430692718204419"><ele>415.5</ele><time>2026-03-22T16:18:00.999Z</time></trkpt><trkpt lat="42.48727761637209" lon="-2.4310054097339093"><ele>416.0</ele><time>2026-03-22T16:18:01.999Z</time></trkpt><trkpt lat="42.48716984679726" lon="-2.43130498898683"><ele>418.0</ele><time>2026-03-22T16:18:02.999Z</time></trkpt><trkpt lat="42.487054968846" lon="-2.431584016037187"><ele>420.0</ele><time>2026-03-22T16:18:03.999Z</time></trkpt><trkpt lat="42.48693726135839" lon="-2.4318346178629078"><ele>420.0</ele><time>2026-03-22T16:18:04.999Z</time></trkpt><trkpt lat="42.48682078053128" lon="-2.432063814673124"><ele>420.0</ele><time>2026-03-22T16:18:05.999Z</time></trkpt><trkpt lat="42.486708712437995" lon="-2.432281213658308"><ele>420.0</ele><time>2026-03-22T16:18:06.999Z</time></trkpt><trkpt lat="42.486600029858884" lon="-2.4324905058996062"><ele>420.33333333333337</ele><time>2026-03-22T16:18:07.999Z</time></trkpt><trkpt lat="42.486486959874455" lon="-2.4326992791362154"><ele>420.6666666666667</ele><time>2026-03-22T16:18:08.999Z</time></trkpt><trkpt lat="42.486362560167926" lon="-2.432910533250004"><ele>421.0</ele><time>2026-03-22T16:18:09.999Z</time></trkpt><trkpt lat="42.486231903126445" lon="-2.433118049075803"><ele>421.0</ele><time>2026-03-22T16:18:10.999Z</time></trkpt><trkpt lat="42.48609209100714" lon="-2.4333244029969867"><ele>421.0</ele><time>2026-03-22T16:18:11.999Z</time></trkpt><trkpt lat="42.48594887687691" lon="-2.4335295196876174"><ele>421.0</ele><time>2026-03-22T16:18:12.999Z</time></trkpt><trkpt lat="42.485806142513724" lon="-2.43373706641559"><ele>419.0</ele><time>2026-03-22T16:18:13.999Z</time></trkpt><trkpt lat="42.485676171556285" lon="-2.4339407533833457"><ele>417.0</ele><time>2026-03-22T16:18:14.999Z</time></trkpt><trkpt lat="42.48555150193955" lon="-2.4341236109605133"><ele>415.0</ele><time>2026-03-22T16:18:15.999Z</time></trkpt><trkpt lat="42.485437016601175" lon="-2.4342839310321773"><ele>414.6</ele><time>2026-03-22T16:18:16.999Z</time></trkpt><trkpt lat="42.485336294643744" lon="-2.434419677052158"><ele>414.2</ele><time>2026-03-22T16:18:17.999Z</time></trkpt><trkpt lat="42.485247300168524" lon="-2.4345334128898255"><ele>413.79999999999995</ele><time>2026-03-22T16:18:18.999Z</time></trkpt><trkpt lat="42.48517592722622" lon="-2.434627417204477"><ele>413.4</ele><time>2026-03-22T16:18:19.999Z</time></trkpt><trkpt lat="42.48512968155908" lon="-2.434711830267193"><ele>413.0</ele><time>2026-03-22T16:18:20.999Z</time></trkpt><trkpt lat="42.48509778768726" lon="-2.4347886441877824"><ele>413.0</ele><time>2026-03-22T16:18:21.999Z</time></trkpt><trkpt lat="42.48508346428018" lon="-2.4349352783935916"><ele>413.0</ele><time>2026-03-22T16:18:23.999Z</time></trkpt><trkpt lat="42.485156103901964" lon="-2.435065435185938"><ele>413.0</ele><time>2026-03-22T16:18:25.999Z</time></trkpt><trkpt lat="42.485232049824496" lon="-2.4351080285127633"><ele>413.0</ele><time>2026-03-22T16:18:26.999Z</time></trkpt><trkpt lat="42.4853315551476" lon="-2.43509772282887"><ele>413.0</ele><time>2026-03-22T16:18:27.999Z</time></trkpt><trkpt lat="42.485453222632195" lon="-2.4350996234033695"><ele>412.5</ele><time>2026-03-22T16:18:28.999Z</time></trkpt><trkpt lat="42.48558824071999" lon="-2.435119786209676"><ele>412.0</ele><time>2026-03-22T16:18:29.999Z</time></trkpt><trkpt lat="42.485717934844025" lon="-2.43511285085618"><ele>411.5</ele><time>2026-03-22T16:18:30.999Z</time></trkpt><trkpt lat="42.485864432785775" lon="-2.4351164245723047"><ele>411.0</ele><time>2026-03-22T16:18:31.999Z</time></trkpt><trkpt lat="42.48603213847112" lon="-2.4351280803327953"><ele>411.0</ele><time>2026-03-22T16:18:32.999Z</time></trkpt><trkpt lat="42.486212053322184" lon="-2.435139989282271"><ele>411.0</ele><time>2026-03-22T16:18:33.999Z</time></trkpt><trkpt lat="42.48639268008542" lon="-2.435140424217433"><ele>411.0</ele><time>2026-03-22T16:18:34.999Z</time></trkpt><trkpt lat="42.48658671035127" lon="-2.4351414814851275"><ele>410.33333333333337</ele><time>2026-03-22T16:18:35.999Z</time></trkpt><trkpt lat="42.48679490512297" lon="-2.43514965657724"><ele>409.6666666666667</ele><time>2026-03-22T16:18:36.999Z</time></trkpt><trkpt lat="42.487013870514076" lon="-2.435159983669436"><ele>409.0</ele><time>2026-03-22T16:18:37.998Z</time></trkpt><trkpt lat="42.48723537064191" lon="-2.4351705148779725"><ele>409.0</ele><time>2026-03-22T16:18:38.998Z</time></trkpt><trkpt lat="42.4874547623881" lon="-2.435180671838264"><ele>409.0</ele><time>2026-03-22T16:18:39.998Z</time></trkpt><trkpt lat="42.48766809923548" lon="-2.435188912734513"><ele>409.0</ele><time>2026-03-22T16:18:40.998Z</time></trkpt><trkpt lat="42.48788519189537" lon="-2.4352010215643505"><ele>408.5</ele><time>2026-03-22T16:18:41.998Z</time></trkpt><trkpt lat="42.48810862891116" lon="-2.4352125729047476"><ele>408.0</ele><time>2026-03-22T16:18:42.998Z</time></trkpt><trkpt lat="42.48833648925892" lon="-2.43522230830863"><ele>408.0</ele><time>2026-03-22T16:18:43.998Z</time></trkpt><trkpt lat="42.488565564928386" lon="-2.4352305573230244"><ele>408.0</ele><time>2026-03-22T16:18:44.998Z</time></trkpt><trkpt lat="42.488799602849596" lon="-2.4352381896596333"><ele>409.0</ele><time>2026-03-22T16:18:45.998Z</time></trkpt><trkpt lat="42.48904174329148" lon="-2.435245473451058"><ele>410.0</ele><time>2026-03-22T16:18:46.998Z</time></trkpt><trkpt lat="42.48928543433452" lon="-2.4352565640512767"><ele>410.0</ele><time>2026-03-22T16:18:47.998Z</time></trkpt><trkpt lat="42.48953249253428" lon="-2.4352678433385853"><ele>410.0</ele><time>2026-03-22T16:18:48.998Z</time></trkpt><trkpt lat="42.48978053486942" lon="-2.435283263779677"><ele>410.0</ele><time>2026-03-22T16:18:49.998Z</time></trkpt><trkpt lat="42.49002858255204" lon="-2.435296494984823"><ele>410.0</ele><time>2026-03-22T16:18:50.998Z</time></trkpt><trkpt lat="42.4902787686325" lon="-2.435285764177046"><ele>410.0</ele><time>2026-03-22T16:18:51.998Z</time></trkpt><trkpt lat="42.490527148058455" lon="-2.4353209693711966"><ele>410.0</ele><time>2026-03-22T16:18:52.998Z</time></trkpt><trkpt lat="42.490776419894196" lon="-2.4353260835659616"><ele>410.0</ele><time>2026-03-22T16:18:53.998Z</time></trkpt><trkpt lat="42.49102577935304" lon="-2.4353306201847973"><ele>410.0</ele><time>2026-03-22T16:18:54.998Z</time></trkpt><trkpt lat="42.491271724390344" lon="-2.435342667267658"><ele>410.0</ele><time>2026-03-22T16:18:55.998Z</time></trkpt><trkpt lat="42.491518578566925" lon="-2.435352572134421"><ele>410.0</ele><time>2026-03-22T16:18:56.998Z</time></trkpt><trkpt lat="42.49176309272808" lon="-2.43536144527605"><ele>410.0</ele><time>2026-03-22T16:18:57.998Z</time></trkpt><trkpt lat="42.49200149410891" lon="-2.435368603129936"><ele>410.0</ele><time>2026-03-22T16:18:58.998Z</time></trkpt><trkpt lat="42.492232946434726" lon="-2.4353785859799224"><ele>411.0</ele><time>2026-03-22T16:18:59.998Z</time></trkpt><trkpt lat="42.492447135201196" lon="-2.4353650139281946"><ele>412.0</ele><time>2026-03-22T16:19:00.998Z</time></trkpt><trkpt lat="42.49264464994021" lon="-2.4353716997766073"><ele>413.0</ele><time>2026-03-22T16:19:01.998Z</time></trkpt><trkpt lat="42.492841637123455" lon="-2.435378367604582"><ele>413.3333333333333</ele><time>2026-03-22T16:19:02.998Z</time></trkpt><trkpt lat="42.49304598332113" lon="-2.435408872822534"><ele>413.66666666666663</ele><time>2026-03-22T16:19:03.998Z</time></trkpt><trkpt lat="42.49325582568919" lon="-2.4354173797154433"><ele>414.0</ele><time>2026-03-22T16:19:04.998Z</time></trkpt><trkpt lat="42.4934701101306" lon="-2.4354240402184675"><ele>414.0</ele><time>2026-03-22T16:19:06Z</time></trkpt><trkpt lat="42.493693053051324" lon="-2.435426604415558"><ele>414.0</ele><time>2026-03-22T16:19:07Z</time></trkpt><trkpt lat="42.4939144849558" lon="-2.4354316130285674"><ele>414.0</ele><time>2026-03-22T16:19:08Z</time></trkpt><trkpt lat="42.49411770907861" lon="-2.435437507290303"><ele>414.0</ele><time>2026-03-22T16:19:09Z</time></trkpt><trkpt lat="42.49431320689268" lon="-2.4354465665455645"><ele>414.0</ele><time>2026-03-22T16:19:10Z</time></trkpt><trkpt lat="42.49450085192858" lon="-2.435462071722354"><ele>414.0</ele><time>2026-03-22T16:19:11Z</time></trkpt><trkpt lat="42.49467295690334" lon="-2.43547815947196"><ele>413.75</ele><time>2026-03-22T16:19:12Z</time></trkpt><trkpt lat="42.49482808984023" lon="-2.435455829794914"><ele>413.5</ele><time>2026-03-22T16:19:13Z</time></trkpt><trkpt lat="42.494964473114656" lon="-2.435477707818808"><ele>413.25</ele><time>2026-03-22T16:19:14Z</time></trkpt><trkpt lat="42.49508986759226" lon="-2.4354666916234735"><ele>413.0</ele><time>2026-03-22T16:19:15Z</time></trkpt><trkpt lat="42.49519392133143" lon="-2.43544533236658"><ele>412.99999999999994</ele><time>2026-03-22T16:19:16Z</time></trkpt><trkpt lat="42.495270907389944" lon="-2.4354124438636364"><ele>413.0</ele><time>2026-03-22T16:19:17Z</time></trkpt><trkpt lat="42.49534235707226" lon="-2.435372172375164"><ele>413.0</ele><time>2026-03-22T16:19:18Z</time></trkpt><trkpt lat="42.49540645590048" lon="-2.4353275375815744"><ele>413.0</ele><time>2026-03-22T16:19:19Z</time></trkpt><trkpt lat="42.49547578095928" lon="-2.435308179794379"><ele>412.99999999999994</ele><time>2026-03-22T16:19:20Z</time></trkpt><trkpt lat="42.49554331340207" lon="-2.435326811657884"><ele>413.0</ele><time>2026-03-22T16:19:21Z</time></trkpt><trkpt lat="42.495607475481584" lon="-2.4354098914227538"><ele>413.2</ele><time>2026-03-22T16:19:22Z</time></trkpt><trkpt lat="42.49569561539843" lon="-2.4354800835261803"><ele>413.4</ele><time>2026-03-22T16:19:23Z</time></trkpt><trkpt lat="42.49579642418478" lon="-2.4355173274656243"><ele>413.59999999999997</ele><time>2026-03-22T16:19:24Z</time></trkpt><trkpt lat="42.49590099852514" lon="-2.4355247014511736"><ele>413.79999999999995</ele><time>2026-03-22T16:19:25Z</time></trkpt><trkpt lat="42.49602453204897" lon="-2.435523759648328"><ele>414.0</ele><time>2026-03-22T16:19:26Z</time></trkpt><trkpt lat="42.496153327244585" lon="-2.4355214662256452"><ele>414.25</ele><time>2026-03-22T16:19:27Z</time></trkpt><trkpt lat="42.49629188459908" lon="-2.4355296960418777"><ele>414.5</ele><time>2026-03-22T16:19:28Z</time></trkpt><trkpt lat="42.496433402949854" lon="-2.4355373101678794"><ele>414.75</ele><time>2026-03-22T16:19:29Z</time></trkpt><trkpt lat="42.49657375534582" lon="-2.4355418249907603"><ele>415.0</ele><time>2026-03-22T16:19:30Z</time></trkpt><trkpt lat="42.49670942442464" lon="-2.4355452134859337"><ele>415.0</ele><time>2026-03-22T16:19:31Z</time></trkpt><trkpt lat="42.49683326014384" lon="-2.43554769131762"><ele>415.0</ele><time>2026-03-22T16:19:32Z</time></trkpt><trkpt lat="42.496963130373906" lon="-2.4355537264273273"><ele>415.0</ele><time>2026-03-22T16:19:33Z</time></trkpt><trkpt lat="42.49710098149147" lon="-2.435556642340671"><ele>415.0</ele><time>2026-03-22T16:19:34Z</time></trkpt><trkpt lat="42.497246496131034" lon="-2.4355587944524406"><ele>415.33333333333337</ele><time>2026-03-22T16:19:35Z</time></trkpt><trkpt lat="42.49739703629772" lon="-2.4355629295015415"><ele>415.66666666666663</ele><time>2026-03-22T16:19:36Z</time></trkpt><trkpt lat="42.497553245590325" lon="-2.435569068572666"><ele>416.0</ele><time>2026-03-22T16:19:37Z</time></trkpt><trkpt lat="42.497708824240924" lon="-2.4355756330286185"><ele>416.0</ele><time>2026-03-22T16:19:38Z</time></trkpt><trkpt lat="42.49786328468201" lon="-2.435578843567822"><ele>416.0</ele><time>2026-03-22T16:19:39Z</time></trkpt><trkpt lat="42.498024335436334" lon="-2.435582622321706"><ele>416.0</ele><time>2026-03-22T16:19:40Z</time></trkpt><trkpt lat="42.49818712875174" lon="-2.4355916232541226"><ele>417.66666666666663</ele><time>2026-03-22T16:19:41Z</time></trkpt><trkpt lat="42.498348654282715" lon="-2.4356018074340042"><ele>419.33333333333337</ele><time>2026-03-22T16:19:42Z</time></trkpt><trkpt lat="42.49850195397256" lon="-2.435597298330381"><ele>421.0</ele><time>2026-03-22T16:19:43Z</time></trkpt><trkpt lat="42.49864003286574" lon="-2.4355960576656313"><ele>420.75</ele><time>2026-03-22T16:19:44Z</time></trkpt><trkpt lat="42.4987643052641" lon="-2.435622378187242"><ele>420.5</ele><time>2026-03-22T16:19:45Z</time></trkpt><trkpt lat="42.49887928774062" lon="-2.4356042522769394"><ele>420.25</ele><time>2026-03-22T16:19:46Z</time></trkpt><trkpt lat="42.49898721649052" lon="-2.435607948897344"><ele>420.0</ele><time>2026-03-22T16:19:47Z</time></trkpt><trkpt lat="42.499090541752885" lon="-2.435611487845194"><ele>420.0</ele><time>2026-03-22T16:19:47.999Z</time></trkpt><trkpt lat="42.49918432407028" lon="-2.435614699942739"><ele>420.0</ele><time>2026-03-22T16:19:48.999Z</time></trkpt><trkpt lat="42.49927728375426" lon="-2.435637937676898"><ele>420.0</ele><time>2026-03-22T16:19:49.999Z</time></trkpt><trkpt lat="42.499373960970075" lon="-2.435635680707165"><ele>420.0</ele><time>2026-03-22T16:19:50.999Z</time></trkpt><trkpt lat="42.499464504791966" lon="-2.4356362557961746"><ele>420.0</ele><time>2026-03-22T16:19:51.999Z</time></trkpt><trkpt lat="42.49955607707194" lon="-2.4356409642875896"><ele>420.0</ele><time>2026-03-22T16:19:52.999Z</time></trkpt><trkpt lat="42.49964860346252" lon="-2.4356497016871446"><ele>420.0</ele><time>2026-03-22T16:19:53.999Z</time></trkpt><trkpt lat="42.499753602180085" lon="-2.4356498033627147"><ele>420.0</ele><time>2026-03-22T16:19:54.999Z</time></trkpt><trkpt lat="42.49987168103151" lon="-2.4356495735256547"><ele>420.0</ele><time>2026-03-22T16:19:55.999Z</time></trkpt><trkpt lat="42.49999604606736" lon="-2.4356466597673405"><ele>420.0</ele><time>2026-03-22T16:19:56.999Z</time></trkpt><trkpt lat="42.500109691735645" lon="-2.4356470903596157"><ele>420.0</ele><time>2026-03-22T16:19:57.999Z</time></trkpt><trkpt lat="42.50020303431509" lon="-2.4356485638293743"><ele>420.0</ele><time>2026-03-22T16:19:58.999Z</time></trkpt><trkpt lat="42.50026948147259" lon="-2.4356460084049703"><ele>420.0</ele><time>2026-03-22T16:19:59.999Z</time></trkpt><trkpt lat="42.500367443990584" lon="-2.4356432044729552"><ele>420.0</ele><time>2026-03-22T16:20:01.999Z</time></trkpt><trkpt lat="42.50045198535714" lon="-2.4356582367361015"><ele>420.0</ele><time>2026-03-22T16:20:03.999Z</time></trkpt><trkpt lat="42.5005479788242" lon="-2.4356730874013093"><ele>420.0</ele><time>2026-03-22T16:20:05.999Z</time></trkpt><trkpt lat="42.50064090781816" lon="-2.4356953730567996"><ele>420.6</ele><time>2026-03-22T16:20:07.999Z</time></trkpt><trkpt lat="42.50069970585557" lon="-2.435889947181094"><ele>421.2</ele><time>2026-03-22T16:20:10.999Z</time></trkpt><trkpt lat="42.500692016350214" lon="-2.435995662957413"><ele>421.79999999999995</ele><time>2026-03-22T16:20:11.999Z</time></trkpt><trkpt lat="42.500702488488194" lon="-2.436127779855996"><ele>422.4</ele><time>2026-03-22T16:20:12.999Z</time></trkpt><trkpt lat="42.50070004422817" lon="-2.4362782101041502"><ele>423.0</ele><time>2026-03-22T16:20:13.999Z</time></trkpt><trkpt lat="42.50069769738567" lon="-2.4364226448337294"><ele>423.0</ele><time>2026-03-22T16:20:14.999Z</time></trkpt><trkpt lat="42.500695249536776" lon="-2.436573295979631"><ele>423.0</ele><time>2026-03-22T16:20:15.999Z</time></trkpt><trkpt lat="42.500677967319845" lon="-2.436729679116989"><ele>423.0</ele><time>2026-03-22T16:20:16.999Z</time></trkpt><trkpt lat="42.50069013991531" lon="-2.4368877640831093"><ele>423.0</ele><time>2026-03-22T16:20:17.999Z</time></trkpt><trkpt lat="42.50068759322649" lon="-2.4370444982587163"><ele>423.4</ele><time>2026-03-22T16:20:18.999Z</time></trkpt><trkpt lat="42.50068522284567" lon="-2.437190381683894"><ele>423.79999999999995</ele><time>2026-03-22T16:20:19.999Z</time></trkpt><trkpt lat="42.50068305213703" lon="-2.4373239764414314"><ele>424.2</ele><time>2026-03-22T16:20:20.999Z</time></trkpt><trkpt lat="42.50067248975324" lon="-2.4374517932797275"><ele>424.6</ele><time>2026-03-22T16:20:21.999Z</time></trkpt><trkpt lat="42.50066859779326" lon="-2.4375729568303237"><ele>425.0</ele><time>2026-03-22T16:20:22.999Z</time></trkpt><trkpt lat="42.500665749737024" lon="-2.4376936230119126"><ele>425.0</ele><time>2026-03-22T16:20:23.999Z</time></trkpt><trkpt lat="42.500665118136396" lon="-2.4378168575796453"><ele>425.0</ele><time>2026-03-22T16:20:24.999Z</time></trkpt><trkpt lat="42.5006653366682" lon="-2.437944935494365"><ele>425.0</ele><time>2026-03-22T16:20:25.999Z</time></trkpt><trkpt lat="42.50066441437226" lon="-2.4380811238543947"><ele>425.0</ele><time>2026-03-22T16:20:26.999Z</time></trkpt><trkpt lat="42.500655886576176" lon="-2.4382151882842584"><ele>425.0</ele><time>2026-03-22T16:20:27.999Z</time></trkpt><trkpt lat="42.50066679688578" lon="-2.4383364856749856"><ele>424.6</ele><time>2026-03-22T16:20:28.999Z</time></trkpt><trkpt lat="42.500664973084" lon="-2.4384507255366987"><ele>424.2</ele><time>2026-03-22T16:20:29.999Z</time></trkpt><trkpt lat="42.500663446061836" lon="-2.4385463755996843"><ele>423.79999999999995</ele><time>2026-03-22T16:20:30.999Z</time></trkpt><trkpt lat="42.50065765876238" lon="-2.4386713496819534"><ele>423.4</ele><time>2026-03-22T16:20:32.999Z</time></trkpt><trkpt lat="42.50068384161877" lon="-2.438766726652113"><ele>423.0</ele><time>2026-03-22T16:20:35.999Z</time></trkpt><trkpt lat="42.50081010404606" lon="-2.438798700264224"><ele>423.0</ele><time>2026-03-22T16:20:36.999Z</time></trkpt><trkpt lat="42.500896180298525" lon="-2.4387826523384017"><ele>423.0</ele><time>2026-03-22T16:20:37.999Z</time></trkpt><trkpt lat="42.50099671122083" lon="-2.438777714234191"><ele>423.0</ele><time>2026-03-22T16:20:38.999Z</time></trkpt><trkpt lat="42.501121220753944" lon="-2.438773921327263"><ele>423.0</ele><time>2026-03-22T16:20:39.999Z</time></trkpt><trkpt lat="42.501258563818304" lon="-2.4387893850441515"><ele>423.0</ele><time>2026-03-22T16:20:40.999Z</time></trkpt><trkpt lat="42.50141334537467" lon="-2.4387772514570902"><ele>423.0</ele><time>2026-03-22T16:20:41.999Z</time></trkpt><trkpt lat="42.501574950011936" lon="-2.438781955063831"><ele>423.0</ele><time>2026-03-22T16:20:42.999Z</time></trkpt><trkpt lat="42.501750529807154" lon="-2.438759313341298"><ele>423.0</ele><time>2026-03-22T16:20:43.998Z</time></trkpt><trkpt lat="42.50193395809886" lon="-2.438772286365864"><ele>423.0</ele><time>2026-03-22T16:20:44.998Z</time></trkpt><trkpt lat="42.50211467572538" lon="-2.4387686770813266"><ele>423.0</ele><time>2026-03-22T16:20:45.998Z</time></trkpt><trkpt lat="42.50230556663001" lon="-2.438776175846352"><ele>422.66666666666663</ele><time>2026-03-22T16:20:46.998Z</time></trkpt><trkpt lat="42.50250081373088" lon="-2.4387881644156497"><ele>422.3333333333333</ele><time>2026-03-22T16:20:47.998Z</time></trkpt><trkpt lat="42.502694244964054" lon="-2.4388003115251085"><ele>422.0</ele><time>2026-03-22T16:20:48.998Z</time></trkpt><trkpt lat="42.50288858870454" lon="-2.4388108457333706"><ele>422.66666666666663</ele><time>2026-03-22T16:20:49.998Z</time></trkpt><trkpt lat="42.503084466815835" lon="-2.4388142291270025"><ele>423.33333333333337</ele><time>2026-03-22T16:20:50.998Z</time></trkpt><trkpt lat="42.50327680054962" lon="-2.4387786514036955"><ele>424.0</ele><time>2026-03-22T16:20:51.998Z</time></trkpt><trkpt lat="42.50346202027131" lon="-2.4387605679620448"><ele>424.0</ele><time>2026-03-22T16:20:52.998Z</time></trkpt><trkpt lat="42.50363711158539" lon="-2.438762571829081"><ele>424.0</ele><time>2026-03-22T16:20:53.998Z</time></trkpt><trkpt lat="42.503791340042994" lon="-2.4387409392188077"><ele>424.0</ele><time>2026-03-22T16:20:54.998Z</time></trkpt><trkpt lat="42.50392711253626" lon="-2.4387039545614755"><ele>424.0</ele><time>2026-03-22T16:20:55.998Z</time></trkpt><trkpt lat="42.504048856930844" lon="-2.4386949857572646"><ele>424.0</ele><time>2026-03-22T16:20:56.998Z</time></trkpt><trkpt lat="42.50415594144013" lon="-2.4386920019769036"><ele>424.0</ele><time>2026-03-22T16:20:57.998Z</time></trkpt><trkpt lat="42.50424735248378" lon="-2.4386916372932324"><ele>424.0</ele><time>2026-03-22T16:20:58.998Z</time></trkpt><trkpt lat="42.50433255175449" lon="-2.4386923818559847"><ele>424.0</ele><time>2026-03-22T16:20:59.998Z</time></trkpt><trkpt lat="42.50440281894196" lon="-2.4387072334556983"><ele>424.0</ele><time>2026-03-22T16:21:00.998Z</time></trkpt><trkpt lat="42.50450046217626" lon="-2.438683435968837"><ele>424.0</ele><time>2026-03-22T16:21:02.998Z</time></trkpt><trkpt lat="42.50455367147714" lon="-2.438740308458319"><ele>424.0</ele><time>2026-03-22T16:21:17Z</time></trkpt><trkpt lat="42.50459780616756" lon="-2.438833793035851"><ele>424.0</ele><time>2026-03-22T16:21:19Z</time></trkpt><trkpt lat="42.50447030537518" lon="-2.438941130137664"><ele>424.0</ele><time>2026-03-22T16:21:20Z</time></trkpt><trkpt lat="42.50440436553719" lon="-2.43902476837992"><ele>424.75</ele><time>2026-03-22T16:21:21Z</time></trkpt><trkpt lat="42.50432837374942" lon="-2.43913983861014"><ele>425.5</ele><time>2026-03-22T16:21:22Z</time></trkpt><trkpt lat="42.504245118748386" lon="-2.439273479329015"><ele>426.25</ele><time>2026-03-22T16:21:23Z</time></trkpt><trkpt lat="42.504156929326115" lon="-2.439401952023154"><ele>427.0</ele><time>2026-03-22T16:21:24Z</time></trkpt><trkpt lat="42.50405242880944" lon="-2.4395549309377382"><ele>428.0</ele><time>2026-03-22T16:21:25Z</time></trkpt><trkpt lat="42.50394089432544" lon="-2.4397163167597755"><ele>429.0</ele><time>2026-03-22T16:21:26Z</time></trkpt><trkpt lat="42.5038170786049" lon="-2.4399039990721714"><ele>430.0</ele><time>2026-03-22T16:21:27Z</time></trkpt><trkpt lat="42.503684709586835" lon="-2.4401194104455213"><ele>430.0</ele><time>2026-03-22T16:21:28Z</time></trkpt><trkpt lat="42.503570496575385" lon="-2.44035243138095"><ele>430.0</ele><time>2026-03-22T16:21:29Z</time></trkpt><trkpt lat="42.503440944735274" lon="-2.4405836167169"><ele>430.0</ele><time>2026-03-22T16:21:30Z</time></trkpt><trkpt lat="42.503290174244725" lon="-2.440819840370959"><ele>430.0</ele><time>2026-03-22T16:21:31Z</time></trkpt><trkpt lat="42.50314720374079" lon="-2.4410693147359463"><ele>430.0</ele><time>2026-03-22T16:21:32Z</time></trkpt><trkpt lat="42.5030086687003" lon="-2.441313783025451"><ele>430.0</ele><time>2026-03-22T16:21:33Z</time></trkpt><trkpt lat="42.502918425218596" lon="-2.4415411994170264"><ele>430.0</ele><time>2026-03-22T16:21:34Z</time></trkpt><trkpt lat="42.50284341267558" lon="-2.441747952242217"><ele>430.0</ele><time>2026-03-22T16:21:35Z</time></trkpt><trkpt lat="42.50282154971386" lon="-2.441949386655325"><ele>430.6666666666667</ele><time>2026-03-22T16:21:36Z</time></trkpt><trkpt lat="42.50279515453168" lon="-2.442165206085656"><ele>431.33333333333337</ele><time>2026-03-22T16:21:37Z</time></trkpt><trkpt lat="42.502756019161765" lon="-2.442397434627008"><ele>432.0</ele><time>2026-03-22T16:21:38Z</time></trkpt><trkpt lat="42.50273037083108" lon="-2.4426426681874274"><ele>432.0</ele><time>2026-03-22T16:21:39Z</time></trkpt><trkpt lat="42.50270054206668" lon="-2.4428921593480686"><ele>432.0</ele><time>2026-03-22T16:21:40Z</time></trkpt><trkpt lat="42.50268391628574" lon="-2.443161603635382"><ele>432.0</ele><time>2026-03-22T16:21:41Z</time></trkpt><trkpt lat="42.502651641228105" lon="-2.443439872429171"><ele>431.0</ele><time>2026-03-22T16:21:42Z</time></trkpt><trkpt lat="42.50261879451796" lon="-2.443723069870752"><ele>430.0</ele><time>2026-03-22T16:21:43Z</time></trkpt><trkpt lat="42.50258544561172" lon="-2.4440105971563555"><ele>429.0</ele><time>2026-03-22T16:21:44Z</time></trkpt><trkpt lat="42.5025376165073" lon="-2.44430222248214"><ele>428.5</ele><time>2026-03-22T16:21:45Z</time></trkpt><trkpt lat="42.502506532323515" lon="-2.4446052097019253"><ele>428.0</ele><time>2026-03-22T16:21:46Z</time></trkpt><trkpt lat="42.502471301178346" lon="-2.4449111210328915"><ele>428.0</ele><time>2026-03-22T16:21:47Z</time></trkpt><trkpt lat="42.502453039898825" lon="-2.4452146849412677"><ele>428.0</ele><time>2026-03-22T16:21:48Z</time></trkpt><trkpt lat="42.50242269399045" lon="-2.445507503719996"><ele>428.0</ele><time>2026-03-22T16:21:49Z</time></trkpt><trkpt lat="42.50240458976999" lon="-2.4457890658452914"><ele>428.3333333333333</ele><time>2026-03-22T16:21:50Z</time></trkpt><trkpt lat="42.502406239393515" lon="-2.4460692209653843"><ele>428.66666666666663</ele><time>2026-03-22T16:21:51Z</time></trkpt><trkpt lat="42.502415560315974" lon="-2.446353367992346"><ele>429.0</ele><time>2026-03-22T16:21:52Z</time></trkpt><trkpt lat="42.50241590112302" lon="-2.4466459002486416"><ele>430.0</ele><time>2026-03-22T16:21:53Z</time></trkpt><trkpt lat="42.5024354850492" lon="-2.4469525724029837"><ele>431.0</ele><time>2026-03-22T16:21:53.999Z</time></trkpt><trkpt lat="42.50244819441604" lon="-2.4472618837576867"><ele>433.0</ele><time>2026-03-22T16:21:54.999Z</time></trkpt><trkpt lat="42.50245870600894" lon="-2.447584701856759"><ele>435.0</ele><time>2026-03-22T16:21:55.999Z</time></trkpt><trkpt lat="42.50248503365778" lon="-2.4479058338419812"><ele>437.0</ele><time>2026-03-22T16:21:56.999Z</time></trkpt><trkpt lat="42.50249991484882" lon="-2.4482018649345676"><ele>439.0</ele><time>2026-03-22T16:21:57.999Z</time></trkpt><trkpt lat="42.50251140093768" lon="-2.4484750623029736"><ele>441.0</ele><time>2026-03-22T16:21:58.999Z</time></trkpt><trkpt lat="42.50250626383221" lon="-2.44873206713508"><ele>442.0</ele><time>2026-03-22T16:21:59.999Z</time></trkpt><trkpt lat="42.50245953598818" lon="-2.4489776500457023"><ele>443.0</ele><time>2026-03-22T16:22:00.999Z</time></trkpt><trkpt lat="42.502402156123715" lon="-2.4492396154141263"><ele>444.0</ele><time>2026-03-22T16:22:01.999Z</time></trkpt><trkpt lat="42.502325676785304" lon="-2.4495069864800225"><ele>445.0</ele><time>2026-03-22T16:22:02.999Z</time></trkpt><trkpt lat="42.502231979209604" lon="-2.4497712833817338"><ele>446.0</ele><time>2026-03-22T16:22:03.999Z</time></trkpt><trkpt lat="42.50216195584824" lon="-2.4500556940170055"><ele>447.0</ele><time>2026-03-22T16:22:04.999Z</time></trkpt><trkpt lat="42.50208052864657" lon="-2.4503200849975886"><ele>449.0</ele><time>2026-03-22T16:22:05.999Z</time></trkpt><trkpt lat="42.50199421127218" lon="-2.4505532677418618"><ele>451.0</ele><time>2026-03-22T16:22:06.999Z</time></trkpt><trkpt lat="42.501927514876485" lon="-2.450774364901108"><ele>453.0</ele><time>2026-03-22T16:22:07.999Z</time></trkpt><trkpt lat="42.50185548933792" lon="-2.451006644037567"><ele>453.0</ele><time>2026-03-22T16:22:08.999Z</time></trkpt><trkpt lat="42.501777408278805" lon="-2.4512518835863943"><ele>453.0</ele><time>2026-03-22T16:22:09.999Z</time></trkpt><trkpt lat="42.501697215787466" lon="-2.4515052915309687"><ele>453.0</ele><time>2026-03-22T16:22:10.999Z</time></trkpt><trkpt lat="42.501657138858754" lon="-2.451774620644034"><ele>452.33333333333337</ele><time>2026-03-22T16:22:11.999Z</time></trkpt><trkpt lat="42.501627000338694" lon="-2.4520508212636924"><ele>451.6666666666667</ele><time>2026-03-22T16:22:12.999Z</time></trkpt><trkpt lat="42.50161383744944" lon="-2.4523378084059058"><ele>451.0</ele><time>2026-03-22T16:22:13.999Z</time></trkpt><trkpt lat="42.501602646462764" lon="-2.4526344101070334"><ele>451.0</ele><time>2026-03-22T16:22:14.999Z</time></trkpt><trkpt lat="42.501592285734354" lon="-2.4529021768929513"><ele>451.0</ele><time>2026-03-22T16:22:15.999Z</time></trkpt><trkpt lat="42.50156614351897" lon="-2.4531413523442174"><ele>451.0</ele><time>2026-03-22T16:22:16.999Z</time></trkpt><trkpt lat="42.501544810712986" lon="-2.4533598328602166"><ele>451.33333333333337</ele><time>2026-03-22T16:22:17.999Z</time></trkpt><trkpt lat="42.50151052628856" lon="-2.4535624845060213"><ele>451.66666666666663</ele><time>2026-03-22T16:22:18.999Z</time></trkpt><trkpt lat="42.50149055901844" lon="-2.4537840217607205"><ele>452.0</ele><time>2026-03-22T16:22:19.999Z</time></trkpt><trkpt lat="42.501451091566665" lon="-2.454028272452596"><ele>451.0</ele><time>2026-03-22T16:22:20.999Z</time></trkpt><trkpt lat="42.50140931373021" lon="-2.4542868213348354"><ele>450.0</ele><time>2026-03-22T16:22:21.999Z</time></trkpt><trkpt lat="42.501365813897436" lon="-2.4545560270618725"><ele>449.0</ele><time>2026-03-22T16:22:22.999Z</time></trkpt><trkpt lat="42.501319366451234" lon="-2.454843474576815"><ele>449.0</ele><time>2026-03-22T16:22:23.999Z</time></trkpt><trkpt lat="42.50127251029182" lon="-2.4551325741712855"><ele>449.0</ele><time>2026-03-22T16:22:24.999Z</time></trkpt><trkpt lat="42.50122380061795" lon="-2.4554305061333004"><ele>449.0</ele><time>2026-03-22T16:22:25.999Z</time></trkpt><trkpt lat="42.50115713796654" lon="-2.4557395552131056"><ele>444.5</ele><time>2026-03-22T16:22:26.999Z</time></trkpt><trkpt lat="42.501107361303" lon="-2.456057312940768"><ele>440.0</ele><time>2026-03-22T16:22:27.999Z</time></trkpt><trkpt lat="42.501049624223015" lon="-2.4563940598253646"><ele>438.0</ele><time>2026-03-22T16:22:28.999Z</time></trkpt><trkpt lat="42.501009243281885" lon="-2.4567434690124945"><ele>436.0</ele><time>2026-03-22T16:22:29.999Z</time></trkpt><trkpt lat="42.50095284286523" lon="-2.457088819413775"><ele>433.0</ele><time>2026-03-22T16:22:30.999Z</time></trkpt><trkpt lat="42.50089598595969" lon="-2.4574369649833723"><ele>430.0</ele><time>2026-03-22T16:22:31.999Z</time></trkpt><trkpt lat="42.500839023362886" lon="-2.457785757706552"><ele>428.0</ele><time>2026-03-22T16:22:32.999Z</time></trkpt><trkpt lat="42.50076646575334" lon="-2.458128041029821"><ele>426.0</ele><time>2026-03-22T16:22:33.999Z</time></trkpt><trkpt lat="42.50071683275873" lon="-2.4584811226421013"><ele>425.5</ele><time>2026-03-22T16:22:34.999Z</time></trkpt><trkpt lat="42.500658119857206" lon="-2.4588340328167577"><ele>425.0</ele><time>2026-03-22T16:22:35.999Z</time></trkpt><trkpt lat="42.500594946582126" lon="-2.459185023057658"><ele>425.0</ele><time>2026-03-22T16:22:36.999Z</time></trkpt><trkpt lat="42.500552836312764" lon="-2.459541253240971"><ele>425.0</ele><time>2026-03-22T16:22:37.999Z</time></trkpt><trkpt lat="42.50049371660625" lon="-2.4598984424523054"><ele>422.0</ele><time>2026-03-22T16:22:38.999Z</time></trkpt><trkpt lat="42.50043357333682" lon="-2.460261815827787"><ele>419.0</ele><time>2026-03-22T16:22:39.999Z</time></trkpt><trkpt lat="42.50035651092065" lon="-2.460628898100476"><ele>416.5</ele><time>2026-03-22T16:22:40.999Z</time></trkpt><trkpt lat="42.500293178871885" lon="-2.461006531443298"><ele>414.0</ele><time>2026-03-22T16:22:41.999Z</time></trkpt><trkpt lat="42.50024504758517" lon="-2.4613944683076463"><ele>414.0</ele><time>2026-03-22T16:22:42.999Z</time></trkpt><trkpt lat="42.50018078076166" lon="-2.461773670997181"><ele>414.0</ele><time>2026-03-22T16:22:43.999Z</time></trkpt><trkpt lat="42.50010381838352" lon="-2.4621424471532394"><ele>416.0</ele><time>2026-03-22T16:22:44.999Z</time></trkpt><trkpt lat="42.50005156969858" lon="-2.4625054157921813"><ele>418.0</ele><time>2026-03-22T16:22:45.999Z</time></trkpt><trkpt lat="42.499999116478484" lon="-2.4628522144253178"><ele>419.5</ele><time>2026-03-22T16:22:46.999Z</time></trkpt><trkpt lat="42.49994418563323" lon="-2.4631866924627386"><ele>421.0</ele><time>2026-03-22T16:22:47.999Z</time></trkpt><trkpt lat="42.49988880122249" lon="-2.463520940892662"><ele>423.5</ele><time>2026-03-22T16:22:48.999Z</time></trkpt><trkpt lat="42.49983481089668" lon="-2.4638508496197367"><ele>426.0</ele><time>2026-03-22T16:22:49.998Z</time></trkpt><trkpt lat="42.49978241261844" lon="-2.4641542386549884"><ele>426.0</ele><time>2026-03-22T16:22:50.998Z</time></trkpt><trkpt lat="42.49973515183126" lon="-2.4644257565476004"><ele>426.0</ele><time>2026-03-22T16:22:51.998Z</time></trkpt><trkpt lat="42.49969581683149" lon="-2.464676599661038"><ele>426.0</ele><time>2026-03-22T16:22:52.998Z</time></trkpt><trkpt lat="42.49966400641795" lon="-2.4649279219529787"><ele>426.0</ele><time>2026-03-22T16:22:53.998Z</time></trkpt><trkpt lat="42.49965226048929" lon="-2.4651717287584525"><ele>426.0</ele><time>2026-03-22T16:22:54.998Z</time></trkpt><trkpt lat="42.49967202608431" lon="-2.465405537052606"><ele>426.0</ele><time>2026-03-22T16:22:55.998Z</time></trkpt><trkpt lat="42.499711085274164" lon="-2.4656399087164065"><ele>426.0</ele><time>2026-03-22T16:22:56.998Z</time></trkpt><trkpt lat="42.49978343201909" lon="-2.4658739470285687"><ele>426.0</ele><time>2026-03-22T16:22:57.998Z</time></trkpt><trkpt lat="42.49986865223883" lon="-2.4661049915563154"><ele>426.0</ele><time>2026-03-22T16:22:58.998Z</time></trkpt><trkpt lat="42.499960324436024" lon="-2.466354270067321"><ele>424.66666666666663</ele><time>2026-03-22T16:22:59.998Z</time></trkpt><trkpt lat="42.50003981312015" lon="-2.46661288793093"><ele>423.3333333333333</ele><time>2026-03-22T16:23:00.998Z</time></trkpt><trkpt lat="42.50011520808523" lon="-2.466879229038032"><ele>422.0</ele><time>2026-03-22T16:23:01.998Z</time></trkpt><trkpt lat="42.500192617884835" lon="-2.4671363028809274"><ele>420.66666666666663</ele><time>2026-03-22T16:23:02.998Z</time></trkpt><trkpt lat="42.500260276499496" lon="-2.46739327030852"><ele>419.33333333333337</ele><time>2026-03-22T16:23:03.998Z</time></trkpt><trkpt lat="42.50031269081304" lon="-2.4676624036143617"><ele>418.0</ele><time>2026-03-22T16:23:04.998Z</time></trkpt><trkpt lat="42.50033935428347" lon="-2.467953516811619"><ele>417.33333333333337</ele><time>2026-03-22T16:23:05.998Z</time></trkpt><trkpt lat="42.50035259879087" lon="-2.4682506910444197"><ele>416.66666666666663</ele><time>2026-03-22T16:23:06.998Z</time></trkpt><trkpt lat="42.500362366536706" lon="-2.4685585173301803"><ele>416.0</ele><time>2026-03-22T16:23:07.998Z</time></trkpt><trkpt lat="42.50038378982224" lon="-2.46887788496023"><ele>415.0</ele><time>2026-03-22T16:23:08.998Z</time></trkpt><trkpt lat="42.50040329145636" lon="-2.469209949107027"><ele>414.0</ele><time>2026-03-22T16:23:09.998Z</time></trkpt><trkpt lat="42.500422852455955" lon="-2.4695454671987807"><ele>417.0</ele><time>2026-03-22T16:23:10.998Z</time></trkpt><trkpt lat="42.50044365357474" lon="-2.469886347454873"><ele>420.0</ele><time>2026-03-22T16:23:11.998Z</time></trkpt><trkpt lat="42.50046750336697" lon="-2.470228890047913"><ele>418.5</ele><time>2026-03-22T16:23:12.998Z</time></trkpt><trkpt lat="42.50048999842136" lon="-2.4705702990747933"><ele>417.0</ele><time>2026-03-22T16:23:13.998Z</time></trkpt><trkpt lat="42.500510045109" lon="-2.470894554487239"><ele>417.0</ele><time>2026-03-22T16:23:14.998Z</time></trkpt><trkpt lat="42.50053254228373" lon="-2.471200411878213"><ele>417.0</ele><time>2026-03-22T16:23:15.998Z</time></trkpt><trkpt lat="42.50056130966671" lon="-2.471481096459393"><ele>417.0</ele><time>2026-03-22T16:23:16.998Z</time></trkpt><trkpt lat="42.5006028783147" lon="-2.471757871449631"><ele>417.66666666666663</ele><time>2026-03-22T16:23:18Z</time></trkpt><trkpt lat="42.500658609439284" lon="-2.4720275348417444"><ele>418.3333333333333</ele><time>2026-03-22T16:23:19Z</time></trkpt><trkpt lat="42.500723227828466" lon="-2.472292335088477"><ele>419.0</ele><time>2026-03-22T16:23:20Z</time></trkpt><trkpt lat="42.50078896781275" lon="-2.4725361630597904"><ele>419.0</ele><time>2026-03-22T16:23:21Z</time></trkpt><trkpt lat="42.500845582807365" lon="-2.472780008728342"><ele>419.0</ele><time>2026-03-22T16:23:22Z</time></trkpt><trkpt lat="42.500896485926226" lon="-2.4730236266560794"><ele>419.0</ele><time>2026-03-22T16:23:23Z</time></trkpt><trkpt lat="42.500949072641546" lon="-2.473261036664596"><ele>417.0</ele><time>2026-03-22T16:23:24Z</time></trkpt><trkpt lat="42.50100369422055" lon="-2.473494223747466"><ele>415.0</ele><time>2026-03-22T16:23:25Z</time></trkpt><trkpt lat="42.501050999941356" lon="-2.4737091392255492"><ele>413.0</ele><time>2026-03-22T16:23:26Z</time></trkpt><trkpt lat="42.501081300528874" lon="-2.473905142007968"><ele>410.66666666666663</ele><time>2026-03-22T16:23:27Z</time></trkpt><trkpt lat="42.5010841273392" lon="-2.4741140933702805"><ele>408.33333333333337</ele><time>2026-03-22T16:23:28Z</time></trkpt><trkpt lat="42.50105317716856" lon="-2.474327696143353"><ele>406.0</ele><time>2026-03-22T16:23:29Z</time></trkpt><trkpt lat="42.50098752833688" lon="-2.4745655385587577"><ele>404.0</ele><time>2026-03-22T16:23:30Z</time></trkpt><trkpt lat="42.50090348724562" lon="-2.4748163557258915"><ele>402.0</ele><time>2026-03-22T16:23:31Z</time></trkpt><trkpt lat="42.50080356859127" lon="-2.4750835628967485"><ele>400.0</ele><time>2026-03-22T16:23:32Z</time></trkpt><trkpt lat="42.5007233541287" lon="-2.475365516725225"><ele>401.0</ele><time>2026-03-22T16:23:33Z</time></trkpt><trkpt lat="42.50061430521826" lon="-2.475644798614629"><ele>402.0</ele><time>2026-03-22T16:23:34Z</time></trkpt><trkpt lat="42.50053616206934" lon="-2.4759460745162976"><ele>402.0</ele><time>2026-03-22T16:23:35Z</time></trkpt><trkpt lat="42.500503907667536" lon="-2.4762581122614415"><ele>402.0</ele><time>2026-03-22T16:23:36Z</time></trkpt><trkpt lat="42.50048575024802" lon="-2.476578463699427"><ele>404.5</ele><time>2026-03-22T16:23:37Z</time></trkpt><trkpt lat="42.50047167356419" lon="-2.4769024650024427"><ele>407.0</ele><time>2026-03-22T16:23:38Z</time></trkpt><trkpt lat="42.500447999122855" lon="-2.477228807937105"><ele>408.0</ele><time>2026-03-22T16:23:39Z</time></trkpt><trkpt lat="42.50043742474669" lon="-2.4775551612362783"><ele>409.0</ele><time>2026-03-22T16:23:40Z</time></trkpt><trkpt lat="42.5004188258917" lon="-2.477876185464418"><ele>411.33333333333337</ele><time>2026-03-22T16:23:41Z</time></trkpt><trkpt lat="42.50040763849957" lon="-2.4781664079720187"><ele>413.66666666666663</ele><time>2026-03-22T16:23:42Z</time></trkpt><trkpt lat="42.50041166933077" lon="-2.478396311382007"><ele>416.0</ele><time>2026-03-22T16:23:43Z</time></trkpt><trkpt lat="42.500443105896274" lon="-2.4786035934585184"><ele>418.0</ele><time>2026-03-22T16:23:44Z</time></trkpt><trkpt lat="42.500505451637615" lon="-2.478798299070554"><ele>420.0</ele><time>2026-03-22T16:23:45Z</time></trkpt><trkpt lat="42.50059651827959" lon="-2.4789803861529514"><ele>422.0</ele><time>2026-03-22T16:23:46Z</time></trkpt><trkpt lat="42.500700058994106" lon="-2.4791714239648757"><ele>422.0</ele><time>2026-03-22T16:23:47Z</time></trkpt><trkpt lat="42.50080419639642" lon="-2.4793733551692627"><ele>422.0</ele><time>2026-03-22T16:23:48Z</time></trkpt><trkpt lat="42.50089477623375" lon="-2.479563990349795"><ele>422.0</ele><time>2026-03-22T16:23:49Z</time></trkpt><trkpt lat="42.500959398202575" lon="-2.4797464455365117"><ele>423.0</ele><time>2026-03-22T16:23:50Z</time></trkpt><trkpt lat="42.50098452554651" lon="-2.4799338339270727"><ele>424.0</ele><time>2026-03-22T16:23:51Z</time></trkpt><trkpt lat="42.500986811942475" lon="-2.4801305701815552"><ele>425.0</ele><time>2026-03-22T16:23:52Z</time></trkpt><trkpt lat="42.500964159201516" lon="-2.480347345281464"><ele>426.0</ele><time>2026-03-22T16:23:53Z</time></trkpt><trkpt lat="42.50091124680739" lon="-2.4805664433983106"><ele>426.0</ele><time>2026-03-22T16:23:54Z</time></trkpt><trkpt lat="42.500846501103176" lon="-2.48079014090228"><ele>426.0</ele><time>2026-03-22T16:23:55Z</time></trkpt><trkpt lat="42.50078642061521" lon="-2.4810222416585197"><ele>426.0</ele><time>2026-03-22T16:23:56Z</time></trkpt><trkpt lat="42.500730868426864" lon="-2.481265036315485"><ele>426.66666666666663</ele><time>2026-03-22T16:23:57Z</time></trkpt><trkpt lat="42.500675519416475" lon="-2.4815155471811754"><ele>427.3333333333333</ele><time>2026-03-22T16:23:58Z</time></trkpt><trkpt lat="42.500632854132235" lon="-2.4817528846281554"><ele>428.0</ele><time>2026-03-22T16:23:58.999Z</time></trkpt><trkpt lat="42.50064150349863" lon="-2.4819679580141516"><ele>429.66666666666663</ele><time>2026-03-22T16:23:59.999Z</time></trkpt><trkpt lat="42.50067922168337" lon="-2.4821756736542375"><ele>431.33333333333337</ele><time>2026-03-22T16:24:00.999Z</time></trkpt><trkpt lat="42.5007250359465" lon="-2.4823936310934314"><ele>433.0</ele><time>2026-03-22T16:24:01.999Z</time></trkpt><trkpt lat="42.50079791422977" lon="-2.482609771530483"><ele>433.0</ele><time>2026-03-22T16:24:02.999Z</time></trkpt><trkpt lat="42.50087235607328" lon="-2.482840325394677"><ele>433.0</ele><time>2026-03-22T16:24:03.999Z</time></trkpt><trkpt lat="42.50094335375536" lon="-2.483080358540045"><ele>433.0</ele><time>2026-03-22T16:24:04.999Z</time></trkpt><trkpt lat="42.50101032568563" lon="-2.4833258075466893"><ele>433.6666666666667</ele><time>2026-03-22T16:24:05.999Z</time></trkpt><trkpt lat="42.50107353513502" lon="-2.4835812655428477"><ele>434.33333333333337</ele><time>2026-03-22T16:24:06.999Z</time></trkpt><trkpt lat="42.50113297148779" lon="-2.4838575816683464"><ele>435.0</ele><time>2026-03-22T16:24:07.999Z</time></trkpt><trkpt lat="42.50119420205712" lon="-2.4841500285704456"><ele>435.0</ele><time>2026-03-22T16:24:08.999Z</time></trkpt><trkpt lat="42.50126433205646" lon="-2.48444520914804"><ele>435.0</ele><time>2026-03-22T16:24:09.999Z</time></trkpt><trkpt lat="42.50132834927959" lon="-2.4847312451342964"><ele>435.0</ele><time>2026-03-22T16:24:10.999Z</time></trkpt><trkpt lat="42.501385581094766" lon="-2.4849974004710833"><ele>435.0</ele><time>2026-03-22T16:24:11.999Z</time></trkpt><trkpt lat="42.50144912835267" lon="-2.485258862979623"><ele>435.0</ele><time>2026-03-22T16:24:12.999Z</time></trkpt><trkpt lat="42.501526081808834" lon="-2.4855134237509118"><ele>435.0</ele><time>2026-03-22T16:24:13.999Z</time></trkpt><trkpt lat="42.50162042439478" lon="-2.4857658722932103"><ele>434.33333333333337</ele><time>2026-03-22T16:24:14.999Z</time></trkpt><trkpt lat="42.501740476224526" lon="-2.486004513011242"><ele>433.6666666666667</ele><time>2026-03-22T16:24:15.999Z</time></trkpt><trkpt lat="42.5018595552742" lon="-2.486230810596201"><ele>433.0</ele><time>2026-03-22T16:24:16.999Z</time></trkpt><trkpt lat="42.50196707643076" lon="-2.486441665774831"><ele>433.0</ele><time>2026-03-22T16:24:17.999Z</time></trkpt><trkpt lat="42.50206805353584" lon="-2.4866401543370125"><ele>433.0</ele><time>2026-03-22T16:24:18.999Z</time></trkpt><trkpt lat="42.50216720683234" lon="-2.4868345423621485"><ele>433.0</ele><time>2026-03-22T16:24:19.999Z</time></trkpt><trkpt lat="42.50226628628622" lon="-2.4870302131178903"><ele>434.0</ele><time>2026-03-22T16:24:20.999Z</time></trkpt><trkpt lat="42.502363423430026" lon="-2.487231294715749"><ele>435.0</ele><time>2026-03-22T16:24:21.999Z</time></trkpt><trkpt lat="42.50245209828211" lon="-2.487445213151771"><ele>436.0</ele><time>2026-03-22T16:24:22.999Z</time></trkpt><trkpt lat="42.50252809034493" lon="-2.487681692130988"><ele>436.33333333333337</ele><time>2026-03-22T16:24:23.999Z</time></trkpt><trkpt lat="42.50258041982095" lon="-2.487952868151394"><ele>436.66666666666663</ele><time>2026-03-22T16:24:24.999Z</time></trkpt><trkpt lat="42.502626505210145" lon="-2.4882418143659915"><ele>437.0</ele><time>2026-03-22T16:24:25.999Z</time></trkpt><trkpt lat="42.50267981847128" lon="-2.488524943637295"><ele>438.0</ele><time>2026-03-22T16:24:26.999Z</time></trkpt><trkpt lat="42.50273896297116" lon="-2.488815101467811"><ele>439.0</ele><time>2026-03-22T16:24:27.999Z</time></trkpt><trkpt lat="42.50279299341742" lon="-2.4891018252389596"><ele>440.0</ele><time>2026-03-22T16:24:28.999Z</time></trkpt><trkpt lat="42.502834381967766" lon="-2.489375672516958"><ele>438.3333333333333</ele><time>2026-03-22T16:24:29.999Z</time></trkpt><trkpt lat="42.50285590357258" lon="-2.4896291857936235"><ele>436.66666666666663</ele><time>2026-03-22T16:24:30.999Z</time></trkpt><trkpt lat="42.50285682286083" lon="-2.4898766603993887"><ele>435.0</ele><time>2026-03-22T16:24:31.999Z</time></trkpt><trkpt lat="42.50282849254449" lon="-2.4901344574040176"><ele>435.0</ele><time>2026-03-22T16:24:32.999Z</time></trkpt><trkpt lat="42.502801916817766" lon="-2.490410180803628"><ele>435.0</ele><time>2026-03-22T16:24:33.999Z</time></trkpt><trkpt lat="42.50278194331643" lon="-2.490693221187745"><ele>435.0</ele><time>2026-03-22T16:24:34.999Z</time></trkpt><trkpt lat="42.50276235883862" lon="-2.4909835709926402"><ele>433.0</ele><time>2026-03-22T16:24:35.999Z</time></trkpt><trkpt lat="42.50274584495005" lon="-2.491279462979735"><ele>431.0</ele><time>2026-03-22T16:24:36.999Z</time></trkpt><trkpt lat="42.50273491071203" lon="-2.491558811735084"><ele>429.0</ele><time>2026-03-22T16:24:37.999Z</time></trkpt><trkpt lat="42.50271728287109" lon="-2.4918192335240374"><ele>429.0</ele><time>2026-03-22T16:24:38.999Z</time></trkpt><trkpt lat="42.502700200639346" lon="-2.4920684197709395"><ele>429.0</ele><time>2026-03-22T16:24:39.999Z</time></trkpt><trkpt lat="42.50267933359226" lon="-2.492309475926497"><ele>429.0</ele><time>2026-03-22T16:24:40.999Z</time></trkpt><trkpt lat="42.50264945762535" lon="-2.4925306018130944"><ele>428.66666666666663</ele><time>2026-03-22T16:24:41.999Z</time></trkpt><trkpt lat="42.50258897010453" lon="-2.4927283911103983"><ele>428.3333333333333</ele><time>2026-03-22T16:24:42.999Z</time></trkpt><trkpt lat="42.50249039497509" lon="-2.4929105351490546"><ele>428.0</ele><time>2026-03-22T16:24:43.999Z</time></trkpt><trkpt lat="42.50236417148149" lon="-2.4930820522299304"><ele>428.0</ele><time>2026-03-22T16:24:44.999Z</time></trkpt><trkpt lat="42.5022052510526" lon="-2.493244683604158"><ele>428.0</ele><time>2026-03-22T16:24:45.999Z</time></trkpt><trkpt lat="42.50204654563743" lon="-2.4934095269206997"><ele>428.0</ele><time>2026-03-22T16:24:46.999Z</time></trkpt><trkpt lat="42.50190164844916" lon="-2.493598232948857"><ele>427.66666666666663</ele><time>2026-03-22T16:24:47.999Z</time></trkpt><trkpt lat="42.50177786068812" lon="-2.4937902700883323"><ele>427.33333333333337</ele><time>2026-03-22T16:24:48.999Z</time></trkpt><trkpt lat="42.501678875524945" lon="-2.493969486694226"><ele>427.0</ele><time>2026-03-22T16:24:49.999Z</time></trkpt><trkpt lat="42.50159226726576" lon="-2.494127587599945"><ele>427.0</ele><time>2026-03-22T16:24:50.999Z</time></trkpt><trkpt lat="42.501529564663166" lon="-2.49425887116177"><ele>427.00000000000006</ele><time>2026-03-22T16:24:51.999Z</time></trkpt><trkpt lat="42.501472512387274" lon="-2.4943833193858262"><ele>427.00000000000006</ele><time>2026-03-22T16:24:52.999Z</time></trkpt><trkpt lat="42.50142558081023" lon="-2.4944891411625245"><ele>427.0</ele><time>2026-03-22T16:24:53.999Z</time></trkpt><trkpt lat="42.5013898907427" lon="-2.4945891070818385"><ele>427.0</ele><time>2026-03-22T16:24:54.998Z</time></trkpt><trkpt lat="42.50137189735662" lon="-2.4946856341530643"><ele>426.75</ele><time>2026-03-22T16:24:55.998Z</time></trkpt><trkpt lat="42.50139743258269" lon="-2.494838506472847"><ele>426.5</ele><time>2026-03-22T16:24:57.998Z</time></trkpt><trkpt lat="42.50146195042334" lon="-2.4950064196461037"><ele>426.25</ele><time>2026-03-22T16:24:59.998Z</time></trkpt><trkpt lat="42.50159050440933" lon="-2.4950726462489805"><ele>426.0</ele><time>2026-03-22T16:25:00.998Z</time></trkpt><trkpt lat="42.50168481769834" lon="-2.495161688920879"><ele>426.0</ele><time>2026-03-22T16:25:01.998Z</time></trkpt><trkpt lat="42.50177800398815" lon="-2.4952736033778304"><ele>426.0</ele><time>2026-03-22T16:25:02.998Z</time></trkpt><trkpt lat="42.50187820320838" lon="-2.495396173557066"><ele>426.0</ele><time>2026-03-22T16:25:03.998Z</time></trkpt><trkpt lat="42.50198226283895" lon="-2.495524208312888"><ele>426.0</ele><time>2026-03-22T16:25:04.998Z</time></trkpt><trkpt lat="42.502076857912755" lon="-2.4956539264189526"><ele>425.25</ele><time>2026-03-22T16:25:05.998Z</time></trkpt><trkpt lat="42.50216836416225" lon="-2.495784668050334"><ele>424.5</ele><time>2026-03-22T16:25:06.998Z</time></trkpt><trkpt lat="42.50225985311862" lon="-2.495906834715374"><ele>423.75</ele><time>2026-03-22T16:25:07.998Z</time></trkpt><trkpt lat="42.5023463728961" lon="-2.4960260322171925"><ele>423.0</ele><time>2026-03-22T16:25:08.998Z</time></trkpt><trkpt lat="42.502435908518535" lon="-2.496149299409199"><ele>423.5</ele><time>2026-03-22T16:25:09.998Z</time></trkpt><trkpt lat="42.502538476686375" lon="-2.49627015569017"><ele>424.0</ele><time>2026-03-22T16:25:10.998Z</time></trkpt><trkpt lat="42.502639969500535" lon="-2.4963999495530143"><ele>424.5</ele><time>2026-03-22T16:25:11.998Z</time></trkpt><trkpt lat="42.502744003071726" lon="-2.4965428832429635"><ele>425.0</ele><time>2026-03-22T16:25:12.998Z</time></trkpt><trkpt lat="42.50285096124624" lon="-2.49668378467206"><ele>423.0</ele><time>2026-03-22T16:25:13.998Z</time></trkpt><trkpt lat="42.50296558591162" lon="-2.4968209001104444"><ele>421.0</ele><time>2026-03-22T16:25:14.998Z</time></trkpt><trkpt lat="42.50308528345911" lon="-2.4969622717552533"><ele>419.0</ele><time>2026-03-22T16:25:15.998Z</time></trkpt><trkpt lat="42.50320817383826" lon="-2.497108649932301"><ele>419.0</ele><time>2026-03-22T16:25:16.998Z</time></trkpt><trkpt lat="42.503335906024574" lon="-2.497260343697802"><ele>419.0</ele><time>2026-03-22T16:25:17.998Z</time></trkpt><trkpt lat="42.50346236643198" lon="-2.4974128525390777"><ele>419.0</ele><time>2026-03-22T16:25:18.998Z</time></trkpt><trkpt lat="42.50359141470168" lon="-2.4975605707933477"><ele>419.0</ele><time>2026-03-22T16:25:19.998Z</time></trkpt><trkpt lat="42.503723467523784" lon="-2.4977099431250567"><ele>419.0</ele><time>2026-03-22T16:25:20.998Z</time></trkpt><trkpt lat="42.503848099855254" lon="-2.4978525107652447"><ele>419.0</ele><time>2026-03-22T16:25:21.998Z</time></trkpt><trkpt lat="42.50396724623727" lon="-2.497985915765154"><ele>417.75</ele><time>2026-03-22T16:25:22.998Z</time></trkpt><trkpt lat="42.504084006108755" lon="-2.4981148698097986"><ele>416.5</ele><time>2026-03-22T16:25:24Z</time></trkpt><trkpt lat="42.50419524446875" lon="-2.4982378826324334"><ele>415.25</ele><time>2026-03-22T16:25:25Z</time></trkpt><trkpt lat="42.50430152140864" lon="-2.4983640659626922"><ele>414.0</ele><time>2026-03-22T16:25:26Z</time></trkpt><trkpt lat="42.50441036086471" lon="-2.498489956757937"><ele>414.0</ele><time>2026-03-22T16:25:27Z</time></trkpt><trkpt lat="42.50451470518429" lon="-2.4986141809357036"><ele>414.0</ele><time>2026-03-22T16:25:28Z</time></trkpt><trkpt lat="42.5046179768634" lon="-2.498735197627571"><ele>414.0</ele><time>2026-03-22T16:25:29Z</time></trkpt><trkpt lat="42.504717392356056" lon="-2.4988470644897465"><ele>414.0</ele><time>2026-03-22T16:25:30Z</time></trkpt><trkpt lat="42.504815888510834" lon="-2.498959921168411"><ele>414.75</ele><time>2026-03-22T16:25:31Z</time></trkpt><trkpt lat="42.504914867035595" lon="-2.4990761838965985"><ele>415.5</ele><time>2026-03-22T16:25:32Z</time></trkpt><trkpt lat="42.50501601809987" lon="-2.499191109299789"><ele>416.25</ele><time>2026-03-22T16:25:33Z</time></trkpt><trkpt lat="42.50511660640762" lon="-2.4993006499844457"><ele>417.0</ele><time>2026-03-22T16:25:34Z</time></trkpt><trkpt lat="42.505220465087795" lon="-2.4994085639667305"><ele>417.0</ele><time>2026-03-22T16:25:35Z</time></trkpt><trkpt lat="42.50532116369366" lon="-2.499517907663037"><ele>417.0</ele><time>2026-03-22T16:25:36Z</time></trkpt><trkpt lat="42.5054225068508" lon="-2.499624863337298"><ele>417.0</ele><time>2026-03-22T16:25:37Z</time></trkpt><trkpt lat="42.50552650337737" lon="-2.499734683023737"><ele>417.0</ele><time>2026-03-22T16:25:38Z</time></trkpt><trkpt lat="42.50563322518392" lon="-2.49985092004231"><ele>417.0</ele><time>2026-03-22T16:25:39Z</time></trkpt><trkpt lat="42.505743294854554" lon="-2.499968713011462"><ele>417.0</ele><time>2026-03-22T16:25:40Z</time></trkpt><trkpt lat="42.50586140193619" lon="-2.5000810006485934"><ele>417.0</ele><time>2026-03-22T16:25:41Z</time></trkpt><trkpt lat="42.5059887169253" lon="-2.5001904459292406"><ele>417.0</ele><time>2026-03-22T16:25:42Z</time></trkpt><trkpt lat="42.506124336275654" lon="-2.500301367785845"><ele>418.0</ele><time>2026-03-22T16:25:43Z</time></trkpt><trkpt lat="42.50626348563197" lon="-2.500412996635601"><ele>419.0</ele><time>2026-03-22T16:25:44Z</time></trkpt><trkpt lat="42.506411996154945" lon="-2.5005265749201424"><ele>420.0</ele><time>2026-03-22T16:25:45Z</time></trkpt><trkpt lat="42.506568123683756" lon="-2.50063395258971"><ele>420.33333333333337</ele><time>2026-03-22T16:25:46Z</time></trkpt><trkpt lat="42.50673000309354" lon="-2.5007377519588343"><ele>420.6666666666667</ele><time>2026-03-22T16:25:47Z</time></trkpt><trkpt lat="42.50689870661102" lon="-2.500835663950695"><ele>421.0</ele><time>2026-03-22T16:25:48Z</time></trkpt><trkpt lat="42.50707274932058" lon="-2.5009283340713986"><ele>420.6666666666667</ele><time>2026-03-22T16:25:49Z</time></trkpt><trkpt lat="42.50725359508264" lon="-2.501016266125477"><ele>420.33333333333337</ele><time>2026-03-22T16:25:50Z</time></trkpt><trkpt lat="42.50743802418289" lon="-2.501098644219293"><ele>420.0</ele><time>2026-03-22T16:25:51Z</time></trkpt><trkpt lat="42.507626473399235" lon="-2.501171400613079"><ele>420.0</ele><time>2026-03-22T16:25:52Z</time></trkpt><trkpt lat="42.50781434099741" lon="-2.501235454640816"><ele>420.0</ele><time>2026-03-22T16:25:53Z</time></trkpt><trkpt lat="42.508006900901314" lon="-2.501286757593109"><ele>420.0</ele><time>2026-03-22T16:25:54Z</time></trkpt><trkpt lat="42.50820239944344" lon="-2.5013287070114756"><ele>416.66666666666663</ele><time>2026-03-22T16:25:55Z</time></trkpt><trkpt lat="42.50840221919779" lon="-2.5013622411235734"><ele>413.3333333333333</ele><time>2026-03-22T16:25:56Z</time></trkpt><trkpt lat="42.50860632441708" lon="-2.5013853055970894"><ele>410.0</ele><time>2026-03-22T16:25:57Z</time></trkpt><trkpt lat="42.50881567805219" lon="-2.501404900256115"><ele>410.0</ele><time>2026-03-22T16:25:58Z</time></trkpt><trkpt lat="42.50901895848542" lon="-2.5014159229405206"><ele>410.0</ele><time>2026-03-22T16:25:59Z</time></trkpt><trkpt lat="42.50921817068961" lon="-2.501413927448041"><ele>410.0</ele><time>2026-03-22T16:26:00Z</time></trkpt><trkpt lat="42.509410303372306" lon="-2.501409687734654"><ele>409.0</ele><time>2026-03-22T16:26:01Z</time></trkpt><trkpt lat="42.50959896360201" lon="-2.501402054179269"><ele>408.0</ele><time>2026-03-22T16:26:02Z</time></trkpt><trkpt lat="42.50978680184297" lon="-2.501398519807621"><ele>407.0</ele><time>2026-03-22T16:26:03Z</time></trkpt><trkpt lat="42.509969310762614" lon="-2.5013964629167744"><ele>407.0</ele><time>2026-03-22T16:26:04Z</time></trkpt><trkpt lat="42.510148727943815" lon="-2.501386122641855"><ele>407.0</ele><time>2026-03-22T16:26:05Z</time></trkpt><trkpt lat="42.5103307360921" lon="-2.5013713999950413"><ele>407.0</ele><time>2026-03-22T16:26:05.999Z</time></trkpt><trkpt lat="42.510515330182805" lon="-2.5013551338713644"><ele>404.0</ele><time>2026-03-22T16:26:06.999Z</time></trkpt><trkpt lat="42.51070138829137" lon="-2.501342202214423"><ele>401.0</ele><time>2026-03-22T16:26:07.999Z</time></trkpt><trkpt lat="42.51088831321734" lon="-2.501332098928404"><ele>398.0</ele><time>2026-03-22T16:26:08.999Z</time></trkpt><trkpt lat="42.51108012348655" lon="-2.5013266041312523"><ele>396.3333333333333</ele><time>2026-03-22T16:26:09.999Z</time></trkpt><trkpt lat="42.511271783692905" lon="-2.501331107300506"><ele>394.66666666666663</ele><time>2026-03-22T16:26:10.999Z</time></trkpt><trkpt lat="42.511467222040864" lon="-2.50134755028115"><ele>393.0</ele><time>2026-03-22T16:26:11.999Z</time></trkpt><trkpt lat="42.51166546690089" lon="-2.501363724088238"><ele>393.0</ele><time>2026-03-22T16:26:12.999Z</time></trkpt><trkpt lat="42.5118650968138" lon="-2.501385817373882"><ele>393.0</ele><time>2026-03-22T16:26:13.999Z</time></trkpt><trkpt lat="42.51206443909829" lon="-2.501408401605238"><ele>393.0</ele><time>2026-03-22T16:26:14.999Z</time></trkpt><trkpt lat="42.51225915840803" lon="-2.501439539091564"><ele>393.66666666666663</ele><time>2026-03-22T16:26:15.999Z</time></trkpt><trkpt lat="42.51245500098989" lon="-2.5014936774980763"><ele>394.3333333333333</ele><time>2026-03-22T16:26:16.999Z</time></trkpt><trkpt lat="42.51265121110584" lon="-2.5015568616332353"><ele>395.0</ele><time>2026-03-22T16:26:17.999Z</time></trkpt><trkpt lat="42.51284793161668" lon="-2.501632182740603"><ele>396.3333333333333</ele><time>2026-03-22T16:26:18.999Z</time></trkpt><trkpt lat="42.513046167586964" lon="-2.501717552676668"><ele>397.66666666666663</ele><time>2026-03-22T16:26:19.999Z</time></trkpt><trkpt lat="42.51324246974912" lon="-2.501813652724976"><ele>399.0</ele><time>2026-03-22T16:26:20.999Z</time></trkpt><trkpt lat="42.51343363703418" lon="-2.5019099527432975"><ele>399.0</ele><time>2026-03-22T16:26:21.999Z</time></trkpt><trkpt lat="42.5136132157201" lon="-2.5020127567151778"><ele>399.0</ele><time>2026-03-22T16:26:22.999Z</time></trkpt><trkpt lat="42.51379414716743" lon="-2.502132318619247"><ele>399.0</ele><time>2026-03-22T16:26:23.999Z</time></trkpt><trkpt lat="42.513976882676914" lon="-2.5022565056995587"><ele>394.66666666666663</ele><time>2026-03-22T16:26:24.999Z</time></trkpt><trkpt lat="42.514156573388696" lon="-2.5023922540292363"><ele>390.3333333333333</ele><time>2026-03-22T16:26:25.999Z</time></trkpt><trkpt lat="42.51433378879855" lon="-2.502532271252101"><ele>386.0</ele><time>2026-03-22T16:26:26.999Z</time></trkpt><trkpt lat="42.51450921903696" lon="-2.502676811685847"><ele>385.3333333333333</ele><time>2026-03-22T16:26:27.999Z</time></trkpt><trkpt lat="42.51468209852142" lon="-2.5028297955433403"><ele>384.66666666666663</ele><time>2026-03-22T16:26:28.999Z</time></trkpt><trkpt lat="42.51485456336868" lon="-2.502977320030541"><ele>384.0</ele><time>2026-03-22T16:26:29.999Z</time></trkpt><trkpt lat="42.51502280987639" lon="-2.5031298125743966"><ele>384.0</ele><time>2026-03-22T16:26:30.999Z</time></trkpt><trkpt lat="42.51518803403906" lon="-2.503282308943359"><ele>384.0</ele><time>2026-03-22T16:26:31.999Z</time></trkpt><trkpt lat="42.51535398624063" lon="-2.503436151452564"><ele>384.0</ele><time>2026-03-22T16:26:32.999Z</time></trkpt><trkpt lat="42.51551976713251" lon="-2.503587166329444"><ele>383.3333333333333</ele><time>2026-03-22T16:26:33.999Z</time></trkpt><trkpt lat="42.51568758991528" lon="-2.5037389770974317"><ele>382.66666666666663</ele><time>2026-03-22T16:26:34.999Z</time></trkpt><trkpt lat="42.51585430510997" lon="-2.503889019101379"><ele>382.0</ele><time>2026-03-22T16:26:35.999Z</time></trkpt><trkpt lat="42.516024147680746" lon="-2.504037884362085"><ele>382.0</ele><time>2026-03-22T16:26:36.999Z</time></trkpt><trkpt lat="42.51618968851468" lon="-2.5041846250407325"><ele>382.0</ele><time>2026-03-22T16:26:37.999Z</time></trkpt><trkpt lat="42.516353756799376" lon="-2.5043337352328674"><ele>382.0</ele><time>2026-03-22T16:26:38.999Z</time></trkpt><trkpt lat="42.51651892078359" lon="-2.5044829535014625"><ele>382.3333333333333</ele><time>2026-03-22T16:26:39.999Z</time></trkpt><trkpt lat="42.51668498239332" lon="-2.5046305501952753"><ele>382.6666666666667</ele><time>2026-03-22T16:26:40.999Z</time></trkpt><trkpt lat="42.516850407949754" lon="-2.5047752912998673"><ele>383.0</ele><time>2026-03-22T16:26:41.999Z</time></trkpt><trkpt lat="42.51701339871692" lon="-2.504921373744199"><ele>384.33333333333337</ele><time>2026-03-22T16:26:42.999Z</time></trkpt><trkpt lat="42.51717493855139" lon="-2.5050690957652084"><ele>385.6666666666667</ele><time>2026-03-22T16:26:43.999Z</time></trkpt><trkpt lat="42.51733698346079" lon="-2.505215304278806"><ele>387.0</ele><time>2026-03-22T16:26:44.999Z</time></trkpt><trkpt lat="42.51749859757836" lon="-2.5053605756388837"><ele>385.6666666666667</ele><time>2026-03-22T16:26:45.999Z</time></trkpt><trkpt lat="42.51765907825078" lon="-2.5055074533505586"><ele>384.33333333333337</ele><time>2026-03-22T16:26:46.999Z</time></trkpt><trkpt lat="42.51781971975934" lon="-2.505655667416821"><ele>383.0</ele><time>2026-03-22T16:26:47.999Z</time></trkpt><trkpt lat="42.51797996016525" lon="-2.5058022076823576"><ele>383.0</ele><time>2026-03-22T16:26:48.999Z</time></trkpt><trkpt lat="42.5181394810898" lon="-2.5059464639319615"><ele>383.0</ele><time>2026-03-22T16:26:49.999Z</time></trkpt><trkpt lat="42.518298666442185" lon="-2.506091206641591"><ele>383.0</ele><time>2026-03-22T16:26:50.999Z</time></trkpt><trkpt lat="42.518456719788034" lon="-2.5062342577697585"><ele>383.6666666666667</ele><time>2026-03-22T16:26:51.999Z</time></trkpt><trkpt lat="42.51861248226149" lon="-2.506375539844666"><ele>384.33333333333337</ele><time>2026-03-22T16:26:52.999Z</time></trkpt><trkpt lat="42.51876573937321" lon="-2.5065183754300278"><ele>385.0</ele><time>2026-03-22T16:26:53.999Z</time></trkpt><trkpt lat="42.51891492999846" lon="-2.506654823162321"><ele>385.0</ele><time>2026-03-22T16:26:54.999Z</time></trkpt><trkpt lat="42.51905425745834" lon="-2.5067929146162773"><ele>385.0</ele><time>2026-03-22T16:26:55.999Z</time></trkpt><trkpt lat="42.51918586984736" lon="-2.5069376155374807"><ele>385.0</ele><time>2026-03-22T16:26:56.999Z</time></trkpt><trkpt lat="42.519308103152895" lon="-2.5070954295587944"><ele>383.6666666666667</ele><time>2026-03-22T16:26:57.999Z</time></trkpt><trkpt lat="42.51941749310201" lon="-2.5072653814344035"><ele>382.33333333333337</ele><time>2026-03-22T16:26:58.999Z</time></trkpt><trkpt lat="42.51951876529003" lon="-2.5074436090794103"><ele>381.0</ele><time>2026-03-22T16:26:59.999Z</time></trkpt><trkpt lat="42.51961143184078" lon="-2.507631571824114"><ele>384.33333333333337</ele><time>2026-03-22T16:27:00.999Z</time></trkpt><trkpt lat="42.51969133201559" lon="-2.5078293279716437"><ele>387.6666666666667</ele><time>2026-03-22T16:27:01.998Z</time></trkpt><trkpt lat="42.519760361150226" lon="-2.5080359024455685"><ele>391.0</ele><time>2026-03-22T16:27:02.998Z</time></trkpt><trkpt lat="42.519824977530696" lon="-2.508250219794237"><ele>391.0</ele><time>2026-03-22T16:27:03.998Z</time></trkpt><trkpt lat="42.51989309502362" lon="-2.508470577700136"><ele>391.0</ele><time>2026-03-22T16:27:04.998Z</time></trkpt><trkpt lat="42.519961850856625" lon="-2.5086960252193267"><ele>391.0</ele><time>2026-03-22T16:27:05.998Z</time></trkpt><trkpt lat="42.52003011129932" lon="-2.5089260820061643"><ele>389.0</ele><time>2026-03-22T16:27:06.998Z</time></trkpt><trkpt lat="42.52009815740747" lon="-2.5091540475102674"><ele>387.0</ele><time>2026-03-22T16:27:07.998Z</time></trkpt><trkpt lat="42.52016625362709" lon="-2.50938307281157"><ele>385.0</ele><time>2026-03-22T16:27:08.998Z</time></trkpt><trkpt lat="42.52022832931085" lon="-2.5096140757409304"><ele>383.0</ele><time>2026-03-22T16:27:09.998Z</time></trkpt><trkpt lat="42.520278272241555" lon="-2.509850689412787"><ele>381.0</ele><time>2026-03-22T16:27:10.998Z</time></trkpt><trkpt lat="42.520317239065726" lon="-2.5100932239197578"><ele>379.0</ele><time>2026-03-22T16:27:11.998Z</time></trkpt><trkpt lat="42.52034144051807" lon="-2.5103397036741155"><ele>378.0</ele><time>2026-03-22T16:27:12.998Z</time></trkpt><trkpt lat="42.520351327365496" lon="-2.5105919985592964"><ele>377.0</ele><time>2026-03-22T16:27:13.998Z</time></trkpt><trkpt lat="42.52034614023335" lon="-2.510845220628583"><ele>376.0</ele><time>2026-03-22T16:27:14.998Z</time></trkpt><trkpt lat="42.52032675960868" lon="-2.5111009198958745"><ele>377.66666666666663</ele><time>2026-03-22T16:27:15.998Z</time></trkpt><trkpt lat="42.52031883864343" lon="-2.5113611978379002"><ele>379.3333333333333</ele><time>2026-03-22T16:27:16.998Z</time></trkpt><trkpt lat="42.52027157075833" lon="-2.5116127027646864"><ele>381.0</ele><time>2026-03-22T16:27:17.998Z</time></trkpt><trkpt lat="42.520203814448195" lon="-2.511858582707342"><ele>384.33333333333337</ele><time>2026-03-22T16:27:18.998Z</time></trkpt><trkpt lat="42.5201242716908" lon="-2.5121011309362267"><ele>387.6666666666667</ele><time>2026-03-22T16:27:19.998Z</time></trkpt><trkpt lat="42.52003338200444" lon="-2.512337893664875"><ele>391.0</ele><time>2026-03-22T16:27:20.998Z</time></trkpt><trkpt lat="42.51992019261733" lon="-2.512560370836657"><ele>391.0</ele><time>2026-03-22T16:27:21.998Z</time></trkpt><trkpt lat="42.519792704879784" lon="-2.5127795631064096"><ele>391.0</ele><time>2026-03-22T16:27:22.998Z</time></trkpt><trkpt lat="42.51966015378974" lon="-2.5129995615945284"><ele>391.0</ele><time>2026-03-22T16:27:23.998Z</time></trkpt><trkpt lat="42.51952437459416" lon="-2.5132235172572748"><ele>391.33333333333337</ele><time>2026-03-22T16:27:24.998Z</time></trkpt><trkpt lat="42.51938932858896" lon="-2.5134541549265164"><ele>391.66666666666663</ele><time>2026-03-22T16:27:25.998Z</time></trkpt><trkpt lat="42.51926053917067" lon="-2.5136941713586776"><ele>392.0</ele><time>2026-03-22T16:27:26.998Z</time></trkpt><trkpt lat="42.519160017468394" lon="-2.513956082356825"><ele>392.0</ele><time>2026-03-22T16:27:27.998Z</time></trkpt><trkpt lat="42.51906072438278" lon="-2.5142203117871147"><ele>392.0</ele><time>2026-03-22T16:27:28.998Z</time></trkpt><trkpt lat="42.51895843307492" lon="-2.514479965051572"><ele>392.0</ele><time>2026-03-22T16:27:30Z</time></trkpt><trkpt lat="42.51887807318302" lon="-2.5147475066390057"><ele>390.0</ele><time>2026-03-22T16:27:31Z</time></trkpt><trkpt lat="42.51880041955" lon="-2.515017723675491"><ele>388.0</ele><time>2026-03-22T16:27:32Z</time></trkpt><trkpt lat="42.51872172043366" lon="-2.5152892003114657"><ele>386.0</ele><time>2026-03-22T16:27:33Z</time></trkpt><trkpt lat="42.51863918833478" lon="-2.515557943284276"><ele>386.0</ele><time>2026-03-22T16:27:34Z</time></trkpt><trkpt lat="42.518555685792386" lon="-2.5158262232255235"><ele>386.0</ele><time>2026-03-22T16:27:35Z</time></trkpt><trkpt lat="42.51847241653991" lon="-2.516091965364613"><ele>386.0</ele><time>2026-03-22T16:27:36Z</time></trkpt><trkpt lat="42.51837845383766" lon="-2.516355104178099"><ele>387.3333333333333</ele><time>2026-03-22T16:27:37Z</time></trkpt><trkpt lat="42.518273016488315" lon="-2.5166093878245324"><ele>388.66666666666663</ele><time>2026-03-22T16:27:38Z</time></trkpt><trkpt lat="42.51815684676457" lon="-2.516855931749216"><ele>390.0</ele><time>2026-03-22T16:27:39Z</time></trkpt><trkpt lat="42.51803013601664" lon="-2.5170995364570907"><ele>388.5</ele><time>2026-03-22T16:27:40Z</time></trkpt><trkpt lat="42.5178923532106" lon="-2.5173403875101497"><ele>387.0</ele><time>2026-03-22T16:27:41Z</time></trkpt><trkpt lat="42.517752692856156" lon="-2.517583536037054"><ele>387.0</ele><time>2026-03-22T16:27:42Z</time></trkpt><trkpt lat="42.5176074830311" lon="-2.5178293273577754"><ele>387.0</ele><time>2026-03-22T16:27:43Z</time></trkpt><trkpt lat="42.5174603485389" lon="-2.518076692942209"><ele>388.5</ele><time>2026-03-22T16:27:44Z</time></trkpt><trkpt lat="42.51731231852586" lon="-2.5183286040838198"><ele>390.0</ele><time>2026-03-22T16:27:45Z</time></trkpt><trkpt lat="42.51716478876989" lon="-2.518581730363041"><ele>388.0</ele><time>2026-03-22T16:27:46Z</time></trkpt><trkpt lat="42.5170285219994" lon="-2.518837187594528"><ele>386.0</ele><time>2026-03-22T16:27:47Z</time></trkpt><trkpt lat="42.516928408743425" lon="-2.5191161533381967"><ele>386.0</ele><time>2026-03-22T16:27:48Z</time></trkpt><trkpt lat="42.51684176627081" lon="-2.519382288432661"><ele>386.0</ele><time>2026-03-22T16:27:49Z</time></trkpt><trkpt lat="42.51675837942387" lon="-2.519625805582317"><ele>386.0</ele><time>2026-03-22T16:27:50Z</time></trkpt><trkpt lat="42.51669431880552" lon="-2.519884809418652"><ele>386.66666666666663</ele><time>2026-03-22T16:27:51Z</time></trkpt><trkpt lat="42.51663597628155" lon="-2.5201249873323657"><ele>387.33333333333337</ele><time>2026-03-22T16:27:52Z</time></trkpt><trkpt lat="42.51657847912892" lon="-2.520337107874171"><ele>388.0</ele><time>2026-03-22T16:27:53Z</time></trkpt><trkpt lat="42.51652342006307" lon="-2.520532161272757"><ele>390.0</ele><time>2026-03-22T16:27:54Z</time></trkpt><trkpt lat="42.51646794121192" lon="-2.5207304600293803"><ele>392.0</ele><time>2026-03-22T16:27:55Z</time></trkpt><trkpt lat="42.51641329009996" lon="-2.520934260175861"><ele>394.0</ele><time>2026-03-22T16:27:56Z</time></trkpt><trkpt lat="42.51636255916577" lon="-2.521144712654276"><ele>396.33333333333337</ele><time>2026-03-22T16:27:57Z</time></trkpt><trkpt lat="42.51631505377044" lon="-2.521360810539687"><ele>398.66666666666663</ele><time>2026-03-22T16:27:58Z</time></trkpt><trkpt lat="42.51628780631057" lon="-2.521585822152281"><ele>401.0</ele><time>2026-03-22T16:27:59Z</time></trkpt><trkpt lat="42.51625561463257" lon="-2.521793509810056"><ele>400.6</ele><time>2026-03-22T16:28:00Z</time></trkpt><trkpt lat="42.51623034169391" lon="-2.5219769504005276"><ele>400.20000000000005</ele><time>2026-03-22T16:28:01Z</time></trkpt><trkpt lat="42.516201069955905" lon="-2.52213369754553"><ele>399.79999999999995</ele><time>2026-03-22T16:28:02Z</time></trkpt><trkpt lat="42.51618947149829" lon="-2.522265421834247"><ele>399.4</ele><time>2026-03-22T16:28:03Z</time></trkpt><trkpt lat="42.51617832012384" lon="-2.5223678814558625"><ele>399.0</ele><time>2026-03-22T16:28:04Z</time></trkpt><trkpt lat="42.516167239370745" lon="-2.522487917820313"><ele>399.0</ele><time>2026-03-22T16:28:06Z</time></trkpt><trkpt lat="42.5161505330912" lon="-2.522615560370332"><ele>399.0</ele><time>2026-03-22T16:28:09Z</time></trkpt><trkpt lat="42.51604149570096" lon="-2.522697727035607"><ele>399.0</ele><time>2026-03-22T16:28:11Z</time></trkpt><trkpt lat="42.51595486454483" lon="-2.5227128279127404"><ele>399.0</ele><time>2026-03-22T16:28:12Z</time></trkpt><trkpt lat="42.51585200708284" lon="-2.522729758492252"><ele>399.0</ele><time>2026-03-22T16:28:12.999Z</time></trkpt><trkpt lat="42.51574312730022" lon="-2.522785565809383"><ele>399.0</ele><time>2026-03-22T16:28:13.999Z</time></trkpt><trkpt lat="42.51561204203344" lon="-2.522815710582595"><ele>399.0</ele><time>2026-03-22T16:28:14.999Z</time></trkpt><trkpt lat="42.515487474115815" lon="-2.522868145054205"><ele>399.0</ele><time>2026-03-22T16:28:15.999Z</time></trkpt><trkpt lat="42.515346024591054" lon="-2.52291981806907"><ele>399.0</ele><time>2026-03-22T16:28:16.999Z</time></trkpt><trkpt lat="42.51519246535418" lon="-2.522975627973103"><ele>399.0</ele><time>2026-03-22T16:28:17.999Z</time></trkpt><trkpt lat="42.51503087115707" lon="-2.5230329394046027"><ele>399.0</ele><time>2026-03-22T16:28:18.999Z</time></trkpt><trkpt lat="42.514854683536505" lon="-2.523068027791177"><ele>399.0</ele><time>2026-03-22T16:28:19.999Z</time></trkpt><trkpt lat="42.51467410002287" lon="-2.5230891658357595"><ele>399.33333333333337</ele><time>2026-03-22T16:28:20.999Z</time></trkpt><trkpt lat="42.514493730380565" lon="-2.523096517592312"><ele>399.6666666666667</ele><time>2026-03-22T16:28:21.999Z</time></trkpt><trkpt lat="42.51430140848305" lon="-2.5230987065145607"><ele>400.0</ele><time>2026-03-22T16:28:22.999Z</time></trkpt><trkpt lat="42.51409916409362" lon="-2.523106633470391"><ele>400.0</ele><time>2026-03-22T16:28:23.999Z</time></trkpt><trkpt lat="42.5138874651608" lon="-2.5231198435065174"><ele>400.0</ele><time>2026-03-22T16:28:24.999Z</time></trkpt><trkpt lat="42.51366555768375" lon="-2.5231331746916976"><ele>400.0</ele><time>2026-03-22T16:28:25.999Z</time></trkpt><trkpt lat="42.51343530178757" lon="-2.523141254449841"><ele>397.0</ele><time>2026-03-22T16:28:26.999Z</time></trkpt><trkpt lat="42.51319483736289" lon="-2.523149962351492"><ele>394.0</ele><time>2026-03-22T16:28:27.999Z</time></trkpt><trkpt lat="42.51295572569413" lon="-2.5231571875047987"><ele>393.0</ele><time>2026-03-22T16:28:28.999Z</time></trkpt><trkpt lat="42.512713806314174" lon="-2.5231638059977746"><ele>392.0</ele><time>2026-03-22T16:28:29.999Z</time></trkpt><trkpt lat="42.51246748846848" lon="-2.523171770588195"><ele>392.0</ele><time>2026-03-22T16:28:30.999Z</time></trkpt><trkpt lat="42.51222088129713" lon="-2.5231788615432187"><ele>392.0</ele><time>2026-03-22T16:28:31.999Z</time></trkpt><trkpt lat="42.51197941528401" lon="-2.52317066922286"><ele>393.3333333333333</ele><time>2026-03-22T16:28:32.999Z</time></trkpt><trkpt lat="42.51175272637101" lon="-2.5231401187763045"><ele>394.66666666666663</ele><time>2026-03-22T16:28:33.999Z</time></trkpt><trkpt lat="42.5115503284026" lon="-2.5231106660352394"><ele>396.0</ele><time>2026-03-22T16:28:34.999Z</time></trkpt><trkpt lat="42.51136665046679" lon="-2.5230885687391713"><ele>397.0</ele><time>2026-03-22T16:28:35.999Z</time></trkpt><trkpt lat="42.511198745691686" lon="-2.5230679618256087"><ele>398.0</ele><time>2026-03-22T16:28:36.999Z</time></trkpt><trkpt lat="42.51104341599064" lon="-2.523052404020406"><ele>399.0</ele><time>2026-03-22T16:28:37.999Z</time></trkpt><trkpt lat="42.51089811256942" lon="-2.523059820680284"><ele>399.0</ele><time>2026-03-22T16:28:38.999Z</time></trkpt><trkpt lat="42.51076546363334" lon="-2.5231147742299402"><ele>399.0</ele><time>2026-03-22T16:28:39.999Z</time></trkpt><trkpt lat="42.5106360134961" lon="-2.5232089796990222"><ele>399.0</ele><time>2026-03-22T16:28:40.999Z</time></trkpt><trkpt lat="42.51051072460259" lon="-2.523327831088712"><ele>399.0</ele><time>2026-03-22T16:28:41.999Z</time></trkpt><trkpt lat="42.51037789281091" lon="-2.5234462508990925"><ele>399.33333333333337</ele><time>2026-03-22T16:28:42.999Z</time></trkpt><trkpt lat="42.510233186542045" lon="-2.523561332075178"><ele>399.6666666666667</ele><time>2026-03-22T16:28:43.999Z</time></trkpt><trkpt lat="42.510079108930945" lon="-2.523684402640875"><ele>400.0</ele><time>2026-03-22T16:28:44.999Z</time></trkpt><trkpt lat="42.5099147792958" lon="-2.523805831020655"><ele>400.6666666666667</ele><time>2026-03-22T16:28:45.999Z</time></trkpt><trkpt lat="42.50973868790935" lon="-2.5239315153238526"><ele>401.33333333333337</ele><time>2026-03-22T16:28:46.999Z</time></trkpt><trkpt lat="42.50955856227613" lon="-2.524067094168469"><ele>402.0</ele><time>2026-03-22T16:28:47.999Z</time></trkpt><trkpt lat="42.50938129350246" lon="-2.5242040087398157"><ele>402.33333333333337</ele><time>2026-03-22T16:28:48.999Z</time></trkpt><trkpt lat="42.509206447497505" lon="-2.5243300645031828"><ele>402.6666666666667</ele><time>2026-03-22T16:28:49.999Z</time></trkpt><trkpt lat="42.50901215970333" lon="-2.5244368075797294"><ele>403.0</ele><time>2026-03-22T16:28:50.999Z</time></trkpt><trkpt lat="42.5088042491371" lon="-2.524523736450547"><ele>403.0</ele><time>2026-03-22T16:28:51.999Z</time></trkpt><trkpt lat="42.508586989775345" lon="-2.524616930716717"><ele>403.0</ele><time>2026-03-22T16:28:52.999Z</time></trkpt><trkpt lat="42.508361214762445" lon="-2.524718772808914"><ele>403.0</ele><time>2026-03-22T16:28:53.999Z</time></trkpt><trkpt lat="42.50812355967868" lon="-2.5248182307495757"><ele>403.0</ele><time>2026-03-22T16:28:54.999Z</time></trkpt><trkpt lat="42.50787637713554" lon="-2.5249120802086487"><ele>402.5</ele><time>2026-03-22T16:28:55.999Z</time></trkpt><trkpt lat="42.50763144087344" lon="-2.5250028711869783"><ele>402.0</ele><time>2026-03-22T16:28:56.999Z</time></trkpt><trkpt lat="42.50740776731727" lon="-2.525094755127723"><ele>402.0</ele><time>2026-03-22T16:28:57.999Z</time></trkpt><trkpt lat="42.50719504789408" lon="-2.5252045711555304"><ele>402.0</ele><time>2026-03-22T16:28:58.999Z</time></trkpt><trkpt lat="42.5069851558841" lon="-2.525330463798436"><ele>402.5</ele><time>2026-03-22T16:28:59.999Z</time></trkpt><trkpt lat="42.50678224810052" lon="-2.5254740835949936"><ele>403.0</ele><time>2026-03-22T16:29:00.999Z</time></trkpt><trkpt lat="42.50657871487221" lon="-2.5256318812701237"><ele>403.0</ele><time>2026-03-22T16:29:01.999Z</time></trkpt><trkpt lat="42.50636573805695" lon="-2.525791557602926"><ele>403.0</ele><time>2026-03-22T16:29:02.999Z</time></trkpt><trkpt lat="42.50614413171327" lon="-2.525950090659325"><ele>402.0</ele><time>2026-03-22T16:29:03.999Z</time></trkpt><trkpt lat="42.505922301254344" lon="-2.5261040448299443"><ele>401.0</ele><time>2026-03-22T16:29:04.999Z</time></trkpt><trkpt lat="42.505723872479344" lon="-2.5262533465302126"><ele>400.3333333333333</ele><time>2026-03-22T16:29:05.999Z</time></trkpt><trkpt lat="42.50554792663855" lon="-2.526423072562983"><ele>399.66666666666663</ele><time>2026-03-22T16:29:06.999Z</time></trkpt><trkpt lat="42.505388483216066" lon="-2.5266180351716176"><ele>399.0</ele><time>2026-03-22T16:29:07.999Z</time></trkpt><trkpt lat="42.50524515885767" lon="-2.5268389536765996"><ele>402.0</ele><time>2026-03-22T16:29:08.999Z</time></trkpt><trkpt lat="42.505108608196906" lon="-2.5270722001184915"><ele>405.0</ele><time>2026-03-22T16:29:09.998Z</time></trkpt><trkpt lat="42.5049655673115" lon="-2.5273007765814013"><ele>408.0</ele><time>2026-03-22T16:29:10.998Z</time></trkpt><trkpt lat="42.504820324786934" lon="-2.5275315521130666"><ele>408.0</ele><time>2026-03-22T16:29:11.998Z</time></trkpt><trkpt lat="42.50468380266842" lon="-2.5277508917896094"><ele>408.0</ele><time>2026-03-22T16:29:12.998Z</time></trkpt><trkpt lat="42.50456179055384" lon="-2.5279632542812682"><ele>408.0</ele><time>2026-03-22T16:29:13.998Z</time></trkpt><trkpt lat="42.50444965233828" lon="-2.5281869425966854"><ele>408.0</ele><time>2026-03-22T16:29:14.998Z</time></trkpt><trkpt lat="42.50434585053957" lon="-2.5284306552309754"><ele>408.0</ele><time>2026-03-22T16:29:15.998Z</time></trkpt><trkpt lat="42.504240106124485" lon="-2.5286798514138384"><ele>408.0</ele><time>2026-03-22T16:29:16.998Z</time></trkpt><trkpt lat="42.50413179037622" lon="-2.5289422262003707"><ele>408.0</ele><time>2026-03-22T16:29:17.998Z</time></trkpt><trkpt lat="42.50402360700823" lon="-2.529213180498948"><ele>408.0</ele><time>2026-03-22T16:29:18.998Z</time></trkpt><trkpt lat="42.50390972873727" lon="-2.529489866857648"><ele>410.0</ele><time>2026-03-22T16:29:19.998Z</time></trkpt><trkpt lat="42.50379298107818" lon="-2.5297644755779634"><ele>412.0</ele><time>2026-03-22T16:29:20.998Z</time></trkpt><trkpt lat="42.50368356803259" lon="-2.5300241644011012"><ele>409.0</ele><time>2026-03-22T16:29:21.998Z</time></trkpt><trkpt lat="42.50359285960352" lon="-2.530265532106994"><ele>406.0</ele><time>2026-03-22T16:29:22.998Z</time></trkpt><trkpt lat="42.503526199847784" lon="-2.530493465276521"><ele>403.0</ele><time>2026-03-22T16:29:23.998Z</time></trkpt><trkpt lat="42.50348675595047" lon="-2.530738448306521"><ele>403.0</ele><time>2026-03-22T16:29:24.998Z</time></trkpt><trkpt lat="42.50347054995438" lon="-2.531003549919636"><ele>403.0</ele><time>2026-03-22T16:29:25.998Z</time></trkpt><trkpt lat="42.50346832539533" lon="-2.5312836927280014"><ele>403.0</ele><time>2026-03-22T16:29:26.998Z</time></trkpt><trkpt lat="42.503451229805385" lon="-2.5315727558713226"><ele>403.0</ele><time>2026-03-22T16:29:27.998Z</time></trkpt><trkpt lat="42.503429628303365" lon="-2.5318732539982727"><ele>403.0</ele><time>2026-03-22T16:29:28.998Z</time></trkpt><trkpt lat="42.50341791577208" lon="-2.5321828324868667"><ele>403.5</ele><time>2026-03-22T16:29:29.998Z</time></trkpt><trkpt lat="42.50340647642754" lon="-2.532502722802578"><ele>404.0</ele><time>2026-03-22T16:29:30.998Z</time></trkpt><trkpt lat="42.50338766812188" lon="-2.532833095546167"><ele>404.0</ele><time>2026-03-22T16:29:31.998Z</time></trkpt><trkpt lat="42.503372614513246" lon="-2.5331707093025786"><ele>404.0</ele><time>2026-03-22T16:29:32.998Z</time></trkpt><trkpt lat="42.503356079788325" lon="-2.533518910293054"><ele>404.5</ele><time>2026-03-22T16:29:33.998Z</time></trkpt><trkpt lat="42.50333639287582" lon="-2.5338740133227082"><ele>405.0</ele><time>2026-03-22T16:29:34.998Z</time></trkpt><trkpt lat="42.50331548991009" lon="-2.534234640207707"><ele>407.0</ele><time>2026-03-22T16:29:36Z</time></trkpt><trkpt lat="42.503292560364024" lon="-2.534596589997216"><ele>409.0</ele><time>2026-03-22T16:29:37Z</time></trkpt><trkpt lat="42.50326885601637" lon="-2.5349627111232818"><ele>409.0</ele><time>2026-03-22T16:29:38Z</time></trkpt><trkpt lat="42.5032505884747" lon="-2.5353333881942968"><ele>409.0</ele><time>2026-03-22T16:29:39Z</time></trkpt><trkpt lat="42.503235964560865" lon="-2.535703771582832"><ele>409.5</ele><time>2026-03-22T16:29:40Z</time></trkpt><trkpt lat="42.50322031981259" lon="-2.5360728200535734"><ele>410.0</ele><time>2026-03-22T16:29:41Z</time></trkpt><trkpt lat="42.50320121208578" lon="-2.5364293783871803"><ele>410.0</ele><time>2026-03-22T16:29:42Z</time></trkpt><trkpt lat="42.50318154783764" lon="-2.536769522150985"><ele>410.0</ele><time>2026-03-22T16:29:43Z</time></trkpt><trkpt lat="42.50316053421437" lon="-2.537083341072203"><ele>410.3333333333333</ele><time>2026-03-22T16:29:44Z</time></trkpt><trkpt lat="42.50313384094504" lon="-2.5373730598030355"><ele>410.66666666666663</ele><time>2026-03-22T16:29:45Z</time></trkpt><trkpt lat="42.50310125044758" lon="-2.5376503547236657"><ele>411.0</ele><time>2026-03-22T16:29:46Z</time></trkpt><trkpt lat="42.50306489184092" lon="-2.537927467047097"><ele>411.33333333333337</ele><time>2026-03-22T16:29:47Z</time></trkpt><trkpt lat="42.503026317919044" lon="-2.5382055064411593"><ele>411.6666666666667</ele><time>2026-03-22T16:29:48Z</time></trkpt><trkpt lat="42.502986141427556" lon="-2.5384722941523337"><ele>412.0</ele><time>2026-03-22T16:29:49Z</time></trkpt><trkpt lat="42.50294057549174" lon="-2.5387197888090682"><ele>409.33333333333337</ele><time>2026-03-22T16:29:50Z</time></trkpt><trkpt lat="42.50288007657481" lon="-2.538954022462457"><ele>406.66666666666663</ele><time>2026-03-22T16:29:51Z</time></trkpt><trkpt lat="42.502800743744366" lon="-2.539174490082894"><ele>404.0</ele><time>2026-03-22T16:29:52Z</time></trkpt><trkpt lat="42.50269519996165" lon="-2.5393908806776015"><ele>405.3333333333333</ele><time>2026-03-22T16:29:53Z</time></trkpt><trkpt lat="42.502567186233165" lon="-2.5395985880538077"><ele>406.66666666666663</ele><time>2026-03-22T16:29:54Z</time></trkpt><trkpt lat="42.502425079507" lon="-2.5397995677703156"><ele>408.0</ele><time>2026-03-22T16:29:55Z</time></trkpt><trkpt lat="42.50228037387307" lon="-2.539998106514766"><ele>408.0</ele><time>2026-03-22T16:29:56Z</time></trkpt><trkpt lat="42.50213356791539" lon="-2.540194742190728"><ele>408.0</ele><time>2026-03-22T16:29:57Z</time></trkpt><trkpt lat="42.501987097238526" lon="-2.5403978804659806"><ele>408.0</ele><time>2026-03-22T16:29:58Z</time></trkpt><trkpt lat="42.501840897828345" lon="-2.5406100398997107"><ele>407.66666666666663</ele><time>2026-03-22T16:29:59Z</time></trkpt><trkpt lat="42.50169123280944" lon="-2.5408297376268267"><ele>407.3333333333333</ele><time>2026-03-22T16:30:00Z</time></trkpt><trkpt lat="42.501540014552525" lon="-2.541047557873892"><ele>407.0</ele><time>2026-03-22T16:30:01Z</time></trkpt><trkpt lat="42.50138596893979" lon="-2.54126791705336"><ele>408.0</ele><time>2026-03-22T16:30:02Z</time></trkpt><trkpt lat="42.50122506654459" lon="-2.5414907531192528"><ele>409.0</ele><time>2026-03-22T16:30:03Z</time></trkpt><trkpt lat="42.501049713988095" lon="-2.5417024029297726"><ele>409.0</ele><time>2026-03-22T16:30:04Z</time></trkpt><trkpt lat="42.50085273535098" lon="-2.541899119500105"><ele>409.0</ele><time>2026-03-22T16:30:05Z</time></trkpt><trkpt lat="42.50064157103419" lon="-2.542098219007201"><ele>408.5</ele><time>2026-03-22T16:30:06Z</time></trkpt><trkpt lat="42.50043860094155" lon="-2.54231445434201"><ele>408.0</ele><time>2026-03-22T16:30:07Z</time></trkpt><trkpt lat="42.500231298260175" lon="-2.542538126716719"><ele>408.0</ele><time>2026-03-22T16:30:08Z</time></trkpt><trkpt lat="42.50001809059859" lon="-2.542762096773676"><ele>408.0</ele><time>2026-03-22T16:30:09Z</time></trkpt><trkpt lat="42.49980480513072" lon="-2.54299337702909"><ele>408.0</ele><time>2026-03-22T16:30:10Z</time></trkpt><trkpt lat="42.49958947078893" lon="-2.5432304990065444"><ele>408.0</ele><time>2026-03-22T16:30:11Z</time></trkpt><trkpt lat="42.49937538721894" lon="-2.5434601166362656"><ele>408.0</ele><time>2026-03-22T16:30:12Z</time></trkpt><trkpt lat="42.499167136840654" lon="-2.5436752324837624"><ele>408.0</ele><time>2026-03-22T16:30:13Z</time></trkpt><trkpt lat="42.49895901810624" lon="-2.5438905913057956"><ele>407.5</ele><time>2026-03-22T16:30:14Z</time></trkpt><trkpt lat="42.498752132308375" lon="-2.5441152305596266"><ele>407.0</ele><time>2026-03-22T16:30:15Z</time></trkpt><trkpt lat="42.49854279344378" lon="-2.5443352839739433"><ele>409.0</ele><time>2026-03-22T16:30:16Z</time></trkpt><trkpt lat="42.49833200664004" lon="-2.544554478591476"><ele>411.0</ele><time>2026-03-22T16:30:17Z</time></trkpt><trkpt lat="42.49812234522468" lon="-2.5447770997195427"><ele>411.5</ele><time>2026-03-22T16:30:18Z</time></trkpt><trkpt lat="42.497915199830985" lon="-2.545002332608975"><ele>412.0</ele><time>2026-03-22T16:30:18.999Z</time></trkpt><trkpt lat="42.49770760775197" lon="-2.5452282603898184"><ele>412.5</ele><time>2026-03-22T16:30:19.999Z</time></trkpt><trkpt lat="42.49750130915653" lon="-2.545454378373487"><ele>413.0</ele><time>2026-03-22T16:30:20.999Z</time></trkpt><trkpt lat="42.49730922451194" lon="-2.5456579772141192"><ele>413.0</ele><time>2026-03-22T16:30:21.999Z</time></trkpt><trkpt lat="42.497141141576506" lon="-2.5458397330635587"><ele>413.0</ele><time>2026-03-22T16:30:22.999Z</time></trkpt><trkpt lat="42.496984186968476" lon="-2.546014479950605"><ele>413.0</ele><time>2026-03-22T16:30:23.999Z</time></trkpt><trkpt lat="42.496845348714366" lon="-2.546190629118074"><ele>414.66666666666663</ele><time>2026-03-22T16:30:24.999Z</time></trkpt><trkpt lat="42.49672480479655" lon="-2.546387607603431"><ele>416.33333333333337</ele><time>2026-03-22T16:30:25.999Z</time></trkpt><trkpt lat="42.49662990304673" lon="-2.546628430918828"><ele>418.0</ele><time>2026-03-22T16:30:26.999Z</time></trkpt><trkpt lat="42.49653227498212" lon="-2.5468809245838644"><ele>418.33333333333337</ele><time>2026-03-22T16:30:27.999Z</time></trkpt><trkpt lat="42.49642477627708" lon="-2.5471447342214755"><ele>418.66666666666663</ele><time>2026-03-22T16:30:28.999Z</time></trkpt><trkpt lat="42.49631419989408" lon="-2.5474123414859515"><ele>419.0</ele><time>2026-03-22T16:30:29.999Z</time></trkpt><trkpt lat="42.49619992721452" lon="-2.5476927665242597"><ele>419.0</ele><time>2026-03-22T16:30:30.999Z</time></trkpt><trkpt lat="42.49608182661402" lon="-2.5479785601510576"><ele>419.0</ele><time>2026-03-22T16:30:31.999Z</time></trkpt><trkpt lat="42.49596321740386" lon="-2.548251674514042"><ele>419.0</ele><time>2026-03-22T16:30:32.999Z</time></trkpt><trkpt lat="42.49585028200026" lon="-2.548498188806064"><ele>419.0</ele><time>2026-03-22T16:30:33.999Z</time></trkpt><trkpt lat="42.49574267360902" lon="-2.5487239681702962"><ele>419.0</ele><time>2026-03-22T16:30:34.999Z</time></trkpt><trkpt lat="42.495622165382755" lon="-2.5489221941907263"><ele>420.0</ele><time>2026-03-22T16:30:35.999Z</time></trkpt><trkpt lat="42.49546217966315" lon="-2.5490912809955457"><ele>421.0</ele><time>2026-03-22T16:30:36.999Z</time></trkpt><trkpt lat="42.495277694925086" lon="-2.5492487494932337"><ele>422.0</ele><time>2026-03-22T16:30:37.999Z</time></trkpt><trkpt lat="42.495089970347124" lon="-2.5494144952671536"><ele>423.0</ele><time>2026-03-22T16:30:38.999Z</time></trkpt><trkpt lat="42.494900623960056" lon="-2.5495982971140054"><ele>424.0</ele><time>2026-03-22T16:30:39.999Z</time></trkpt><trkpt lat="42.49471068383022" lon="-2.5497908326784784"><ele>425.5</ele><time>2026-03-22T16:30:40.999Z</time></trkpt><trkpt lat="42.49451530674229" lon="-2.549984739914876"><ele>427.0</ele><time>2026-03-22T16:30:41.999Z</time></trkpt><trkpt lat="42.49430789732807" lon="-2.5501872164898285"><ele>427.5</ele><time>2026-03-22T16:30:42.999Z</time></trkpt><trkpt lat="42.49410197628779" lon="-2.55039313269546"><ele>428.0</ele><time>2026-03-22T16:30:43.999Z</time></trkpt><trkpt lat="42.49389190971116" lon="-2.5505978846342403"><ele>426.0</ele><time>2026-03-22T16:30:44.999Z</time></trkpt><trkpt lat="42.493687490556304" lon="-2.5507910981512754"><ele>424.0</ele><time>2026-03-22T16:30:45.999Z</time></trkpt><trkpt lat="42.49349311539873" lon="-2.5509824632309863"><ele>424.0</ele><time>2026-03-22T16:30:46.999Z</time></trkpt><trkpt lat="42.49331056316817" lon="-2.5511665928378737"><ele>424.0</ele><time>2026-03-22T16:30:47.999Z</time></trkpt><trkpt lat="42.493140245195406" lon="-2.551338856033139"><ele>424.0</ele><time>2026-03-22T16:30:48.999Z</time></trkpt><trkpt lat="42.49298355917777" lon="-2.5514967822503034"><ele>423.33333333333337</ele><time>2026-03-22T16:30:49.999Z</time></trkpt><trkpt lat="42.49283528547534" lon="-2.5516539690089055"><ele>422.66666666666663</ele><time>2026-03-22T16:30:50.999Z</time></trkpt><trkpt lat="42.49271113780292" lon="-2.5518592267593054"><ele>422.0</ele><time>2026-03-22T16:30:51.999Z</time></trkpt><trkpt lat="42.492571442079935" lon="-2.5520737910943025"><ele>422.0</ele><time>2026-03-22T16:30:52.999Z</time></trkpt><trkpt lat="42.49245367562326" lon="-2.552327202066874"><ele>422.0</ele><time>2026-03-22T16:30:53.999Z</time></trkpt><trkpt lat="42.49231837195671" lon="-2.5525791496143775"><ele>422.0</ele><time>2026-03-22T16:30:54.999Z</time></trkpt><trkpt lat="42.49216779080552" lon="-2.552833684235277"><ele>422.0</ele><time>2026-03-22T16:30:55.999Z</time></trkpt><trkpt lat="42.49201531091808" lon="-2.5531010484906607"><ele>418.5</ele><time>2026-03-22T16:30:56.999Z</time></trkpt><trkpt lat="42.49186490565441" lon="-2.553370230378816"><ele>415.0</ele><time>2026-03-22T16:30:57.999Z</time></trkpt><trkpt lat="42.49172253264583" lon="-2.553621578666247"><ele>415.0</ele><time>2026-03-22T16:30:58.999Z</time></trkpt><trkpt lat="42.491593475758236" lon="-2.553857244133112"><ele>415.0</ele><time>2026-03-22T16:30:59.999Z</time></trkpt><trkpt lat="42.49148229132027" lon="-2.55409668268748"><ele>415.0</ele><time>2026-03-22T16:31:00.999Z</time></trkpt><trkpt lat="42.49140983760442" lon="-2.5543596480223005"><ele>414.0</ele><time>2026-03-22T16:31:01.999Z</time></trkpt><trkpt lat="42.49132320151094" lon="-2.5546303024367663"><ele>413.0</ele><time>2026-03-22T16:31:02.999Z</time></trkpt><trkpt lat="42.491243656229386" lon="-2.5549184555858404"><ele>412.0</ele><time>2026-03-22T16:31:03.999Z</time></trkpt><trkpt lat="42.491154916887595" lon="-2.5552137092119676"><ele>411.5</ele><time>2026-03-22T16:31:04.999Z</time></trkpt><trkpt lat="42.49106986797467" lon="-2.555508353771953"><ele>411.0</ele><time>2026-03-22T16:31:05.999Z</time></trkpt><trkpt lat="42.49097976905015" lon="-2.5558121090724737"><ele>411.0</ele><time>2026-03-22T16:31:06.999Z</time></trkpt><trkpt lat="42.49089497434359" lon="-2.5561186343546156"><ele>411.0</ele><time>2026-03-22T16:31:07.999Z</time></trkpt><trkpt lat="42.4908114140288" lon="-2.556415050913092"><ele>412.0</ele><time>2026-03-22T16:31:08.999Z</time></trkpt><trkpt lat="42.49072821084227" lon="-2.5567130109673295"><ele>413.0</ele><time>2026-03-22T16:31:09.999Z</time></trkpt><trkpt lat="42.490643864071316" lon="-2.557007848376088"><ele>413.3333333333333</ele><time>2026-03-22T16:31:10.999Z</time></trkpt><trkpt lat="42.49055728474668" lon="-2.5572874513432717"><ele>413.66666666666663</ele><time>2026-03-22T16:31:11.999Z</time></trkpt><trkpt lat="42.49048032826714" lon="-2.55753598307002"><ele>414.0</ele><time>2026-03-22T16:31:12.999Z</time></trkpt><trkpt lat="42.49041345960361" lon="-2.557757130223967"><ele>411.0</ele><time>2026-03-22T16:31:13.999Z</time></trkpt><trkpt lat="42.49036016325383" lon="-2.557954696202067"><ele>408.0</ele><time>2026-03-22T16:31:14.998Z</time></trkpt><trkpt lat="42.49031438647169" lon="-2.55812787799205"><ele>405.0</ele><time>2026-03-22T16:31:15.998Z</time></trkpt><trkpt lat="42.49027862554119" lon="-2.558276146334911"><ele>402.0</ele><time>2026-03-22T16:31:16.998Z</time></trkpt><trkpt lat="42.490265842005535" lon="-2.5583982761256716"><ele>402.0</ele><time>2026-03-22T16:31:17.998Z</time></trkpt><trkpt lat="42.490281139028745" lon="-2.558522590590326"><ele>402.0</ele><time>2026-03-22T16:31:18.998Z</time></trkpt><trkpt lat="42.490323753283135" lon="-2.558647434365653"><ele>402.0</ele><time>2026-03-22T16:31:19.998Z</time></trkpt><trkpt lat="42.49039822248317" lon="-2.5587801520919693"><ele>402.0</ele><time>2026-03-22T16:31:20.998Z</time></trkpt><trkpt lat="42.49048164194991" lon="-2.558924337104487"><ele>404.25</ele><time>2026-03-22T16:31:21.998Z</time></trkpt><trkpt lat="42.490577388909806" lon="-2.5590702055443315"><ele>406.5</ele><time>2026-03-22T16:31:22.998Z</time></trkpt><trkpt lat="42.490689659367796" lon="-2.559211466615662"><ele>408.75</ele><time>2026-03-22T16:31:23.998Z</time></trkpt><trkpt lat="42.490822963948666" lon="-2.559311092577313"><ele>411.0</ele><time>2026-03-22T16:31:24.998Z</time></trkpt><trkpt lat="42.49096263452622" lon="-2.5593833912019095"><ele>411.0</ele><time>2026-03-22T16:31:25.998Z</time></trkpt><trkpt lat="42.49107973505446" lon="-2.5594828357348667"><ele>411.0</ele><time>2026-03-22T16:31:26.998Z</time></trkpt><trkpt lat="42.49117677114274" lon="-2.5596037467534423"><ele>411.0</ele><time>2026-03-22T16:31:27.998Z</time></trkpt><trkpt lat="42.49125077354225" lon="-2.559745805338736"><ele>411.0</ele><time>2026-03-22T16:31:28.998Z</time></trkpt><trkpt lat="42.49129048065601" lon="-2.5599149604208193"><ele>410.33333333333337</ele><time>2026-03-22T16:31:29.998Z</time></trkpt><trkpt lat="42.49129454637939" lon="-2.5601178494622405"><ele>409.6666666666667</ele><time>2026-03-22T16:31:30.998Z</time></trkpt><trkpt lat="42.49126797665551" lon="-2.560345306125339"><ele>409.0</ele><time>2026-03-22T16:31:31.998Z</time></trkpt><trkpt lat="42.49126742673561" lon="-2.5605640842240462"><ele>409.0</ele><time>2026-03-22T16:31:32.998Z</time></trkpt><trkpt lat="42.49128497291359" lon="-2.560784803613765"><ele>409.0</ele><time>2026-03-22T16:31:33.998Z</time></trkpt><trkpt lat="42.491334348066886" lon="-2.5610064067942218"><ele>409.0</ele><time>2026-03-22T16:31:34.998Z</time></trkpt><trkpt lat="42.49139875983319" lon="-2.5612480571039318"><ele>408.6666666666667</ele><time>2026-03-22T16:31:35.998Z</time></trkpt><trkpt lat="42.49145746561637" lon="-2.5614963074546258"><ele>408.33333333333337</ele><time>2026-03-22T16:31:36.998Z</time></trkpt><trkpt lat="42.49153708897301" lon="-2.561747549400639"><ele>408.0</ele><time>2026-03-22T16:31:37.998Z</time></trkpt><trkpt lat="42.49165178785256" lon="-2.561990517508006"><ele>403.5</ele><time>2026-03-22T16:31:38.998Z</time></trkpt><trkpt lat="42.49178166326935" lon="-2.562233743399861"><ele>399.0</ele><time>2026-03-22T16:31:39.998Z</time></trkpt><trkpt lat="42.49189543376003" lon="-2.5625047363603857"><ele>399.0</ele><time>2026-03-22T16:31:40.998Z</time></trkpt><trkpt lat="42.492004597410315" lon="-2.562789332968707"><ele>399.0</ele><time>2026-03-22T16:31:42Z</time></trkpt><trkpt lat="42.49210861322351" lon="-2.5630505327096738"><ele>399.0</ele><time>2026-03-22T16:31:43Z</time></trkpt><trkpt lat="42.49220388172223" lon="-2.563300722969442"><ele>399.0</ele><time>2026-03-22T16:31:44Z</time></trkpt><trkpt lat="42.49228907709866" lon="-2.5635220683094526"><ele>399.0</ele><time>2026-03-22T16:31:45Z</time></trkpt><trkpt lat="42.49237791284074" lon="-2.5637106774311125"><ele>399.0</ele><time>2026-03-22T16:31:46Z</time></trkpt><trkpt lat="42.49248688989432" lon="-2.563872738135497"><ele>399.0</ele><time>2026-03-22T16:31:47Z</time></trkpt><trkpt lat="42.492621708164705" lon="-2.5640305012488818"><ele>399.0</ele><time>2026-03-22T16:31:48Z</time></trkpt><trkpt lat="42.49276912495512" lon="-2.564191987752484"><ele>399.0</ele><time>2026-03-22T16:31:49Z</time></trkpt><trkpt lat="42.49291124068407" lon="-2.564379144683404"><ele>399.0</ele><time>2026-03-22T16:31:50Z</time></trkpt><trkpt lat="42.49304547804818" lon="-2.564587433892453"><ele>399.0</ele><time>2026-03-22T16:31:51Z</time></trkpt><trkpt lat="42.49317946788612" lon="-2.564821757529626"><ele>405.5</ele><time>2026-03-22T16:31:52Z</time></trkpt><trkpt lat="42.49331787281527" lon="-2.565062064438847"><ele>412.0</ele><time>2026-03-22T16:31:53Z</time></trkpt><trkpt lat="42.493460368663264" lon="-2.565316061512379"><ele>407.0</ele><time>2026-03-22T16:31:54Z</time></trkpt><trkpt lat="42.49359975553521" lon="-2.565558165303318"><ele>402.0</ele><time>2026-03-22T16:31:55Z</time></trkpt><trkpt lat="42.493728509924715" lon="-2.5657808499817514"><ele>397.0</ele><time>2026-03-22T16:31:56Z</time></trkpt><trkpt lat="42.493850880984965" lon="-2.5659904252499977"><ele>401.0</ele><time>2026-03-22T16:31:57Z</time></trkpt><trkpt lat="42.49397376233161" lon="-2.5661834320919317"><ele>405.0</ele><time>2026-03-22T16:31:58Z</time></trkpt><trkpt lat="42.49408505746325" lon="-2.566358200358022"><ele>409.0</ele><time>2026-03-22T16:31:59Z</time></trkpt><trkpt lat="42.4941897312253" lon="-2.566511647446476"><ele>409.0</ele><time>2026-03-22T16:32:00Z</time></trkpt><trkpt lat="42.49429069587387" lon="-2.5666837695117977"><ele>409.0</ele><time>2026-03-22T16:32:01Z</time></trkpt><trkpt lat="42.494398232593944" lon="-2.566864598789061"><ele>409.0</ele><time>2026-03-22T16:32:02Z</time></trkpt><trkpt lat="42.49448831740932" lon="-2.5670684958390733"><ele>411.0</ele><time>2026-03-22T16:32:03Z</time></trkpt><trkpt lat="42.49456190155108" lon="-2.567306424426948"><ele>413.0</ele><time>2026-03-22T16:32:04Z</time></trkpt><trkpt lat="42.49461041002751" lon="-2.567566934091216"><ele>415.0</ele><time>2026-03-22T16:32:05Z</time></trkpt><trkpt lat="42.49465581871203" lon="-2.5678381159134105"><ele>410.0</ele><time>2026-03-22T16:32:06Z</time></trkpt><trkpt lat="42.494713956397376" lon="-2.568090976894229"><ele>405.0</ele><time>2026-03-22T16:32:07Z</time></trkpt><trkpt lat="42.494787872550226" lon="-2.568320237206976"><ele>400.0</ele><time>2026-03-22T16:32:08Z</time></trkpt><trkpt lat="42.49485496865016" lon="-2.568516027857436"><ele>399.75</ele><time>2026-03-22T16:32:09Z</time></trkpt><trkpt lat="42.494892554968835" lon="-2.568707344678069"><ele>399.5</ele><time>2026-03-22T16:32:10Z</time></trkpt><trkpt lat="42.4948922563136" lon="-2.5688932093025176"><ele>399.25</ele><time>2026-03-22T16:32:11Z</time></trkpt><trkpt lat="42.49485697778866" lon="-2.5690860750154063"><ele>399.0</ele><time>2026-03-22T16:32:12Z</time></trkpt><trkpt lat="42.494796614785784" lon="-2.5692827962937566"><ele>399.0</ele><time>2026-03-22T16:32:13Z</time></trkpt><trkpt lat="42.494709868165415" lon="-2.569494183055629"><ele>399.0</ele><time>2026-03-22T16:32:14Z</time></trkpt><trkpt lat="42.494619963514914" lon="-2.5697146535821327"><ele>399.0</ele><time>2026-03-22T16:32:15Z</time></trkpt><trkpt lat="42.49453310963044" lon="-2.5699450036238582"><ele>397.33333333333337</ele><time>2026-03-22T16:32:16Z</time></trkpt><trkpt lat="42.49444720993696" lon="-2.570183041644478"><ele>395.6666666666667</ele><time>2026-03-22T16:32:17Z</time></trkpt><trkpt lat="42.49434468374757" lon="-2.5704148785266954"><ele>394.0</ele><time>2026-03-22T16:32:18Z</time></trkpt><trkpt lat="42.49422436357964" lon="-2.5706172592140604"><ele>398.33333333333337</ele><time>2026-03-22T16:32:19Z</time></trkpt><trkpt lat="42.49411568922977" lon="-2.570803584794938"><ele>402.66666666666663</ele><time>2026-03-22T16:32:20Z</time></trkpt><trkpt lat="42.494018950087465" lon="-2.5709712808216527"><ele>407.0</ele><time>2026-03-22T16:32:21Z</time></trkpt><trkpt lat="42.49394247057925" lon="-2.571106579364657"><ele>411.0</ele><time>2026-03-22T16:32:22Z</time></trkpt><trkpt lat="42.4938906331981" lon="-2.5712397867206334"><ele>415.0</ele><time>2026-03-22T16:32:23Z</time></trkpt><trkpt lat="42.49385045376045" lon="-2.571394119602844"><ele>419.0</ele><time>2026-03-22T16:32:23.999Z</time></trkpt><trkpt lat="42.49381859455767" lon="-2.5715683589245413"><ele>423.0</ele><time>2026-03-22T16:32:24.999Z</time></trkpt><trkpt lat="42.49378173422225" lon="-2.571761624063075"><ele>418.0</ele><time>2026-03-22T16:32:25.999Z</time></trkpt><trkpt lat="42.49372511099642" lon="-2.5719594424199026"><ele>413.0</ele><time>2026-03-22T16:32:26.999Z</time></trkpt><trkpt lat="42.49364833928729" lon="-2.5721481871993794"><ele>408.0</ele><time>2026-03-22T16:32:27.999Z</time></trkpt><trkpt lat="42.49355396167133" lon="-2.572314093295033"><ele>408.0</ele><time>2026-03-22T16:32:28.999Z</time></trkpt><trkpt lat="42.493471700177814" lon="-2.5724664792621668"><ele>408.0</ele><time>2026-03-22T16:32:29.999Z</time></trkpt><trkpt lat="42.49341753490821" lon="-2.572604751143928"><ele>408.0</ele><time>2026-03-22T16:32:30.999Z</time></trkpt><trkpt lat="42.4933639734176" lon="-2.5727323976263654"><ele>408.0</ele><time>2026-03-22T16:32:31.999Z</time></trkpt><trkpt lat="42.49334564222136" lon="-2.5728724546650095"><ele>410.3333333333333</ele><time>2026-03-22T16:32:32.999Z</time></trkpt><trkpt lat="42.493311994727456" lon="-2.572981815408664"><ele>412.66666666666663</ele><time>2026-03-22T16:32:33.999Z</time></trkpt><trkpt lat="42.493281885751486" lon="-2.5730788845329218"><ele>415.0</ele><time>2026-03-22T16:32:34.999Z</time></trkpt><trkpt lat="42.493248985372226" lon="-2.5731842546594437"><ele>417.3333333333333</ele><time>2026-03-22T16:32:35.999Z</time></trkpt><trkpt lat="42.493205444495786" lon="-2.5732960859900857"><ele>419.66666666666663</ele><time>2026-03-22T16:32:36.999Z</time></trkpt><trkpt lat="42.493153356702784" lon="-2.5734160270967146"><ele>422.0</ele><time>2026-03-22T16:32:37.999Z</time></trkpt><trkpt lat="42.493114335052226" lon="-2.5735516878790317"><ele>424.25</ele><time>2026-03-22T16:32:38.999Z</time></trkpt><trkpt lat="42.49308860325037" lon="-2.573712346707654"><ele>426.5</ele><time>2026-03-22T16:32:39.999Z</time></trkpt><trkpt lat="42.49307525123709" lon="-2.5738849819634693"><ele>428.75</ele><time>2026-03-22T16:32:40.999Z</time></trkpt><trkpt lat="42.49306917320249" lon="-2.574071274599956"><ele>431.0</ele><time>2026-03-22T16:32:41.999Z</time></trkpt><trkpt lat="42.49307398537071" lon="-2.574231566318431"><ele>431.0</ele><time>2026-03-22T16:32:42.999Z</time></trkpt><trkpt lat="42.493080287887324" lon="-2.57436945780972"><ele>431.0</ele><time>2026-03-22T16:32:43.999Z</time></trkpt><trkpt lat="42.493131359404614" lon="-2.5744646864840357"><ele>431.0</ele><time>2026-03-22T16:32:44.999Z</time></trkpt><trkpt lat="42.49320049245455" lon="-2.5745587078422796"><ele>431.0</ele><time>2026-03-22T16:32:46.999Z</time></trkpt><trkpt lat="42.49325764140661" lon="-2.574430655991429"><ele>431.0</ele><time>2026-03-22T16:32:50.999Z</time></trkpt><trkpt lat="42.49330881331319" lon="-2.574353619788461"><ele>431.0</ele><time>2026-03-22T16:32:51.999Z</time></trkpt><trkpt lat="42.49337094598875" lon="-2.5742582152162004"><ele>431.0</ele><time>2026-03-22T16:32:52.999Z</time></trkpt><trkpt lat="42.49342210719811" lon="-2.5741303959175217"><ele>431.0</ele><time>2026-03-22T16:32:53.999Z</time></trkpt><trkpt lat="42.49346676072843" lon="-2.5740104185992396"><ele>431.0</ele><time>2026-03-22T16:32:54.999Z</time></trkpt><trkpt lat="42.49349578969606" lon="-2.5739056054536555"><ele>431.0</ele><time>2026-03-22T16:32:55.999Z</time></trkpt><trkpt lat="42.49352663809454" lon="-2.5737998380015585"><ele>430.99999999999994</ele><time>2026-03-22T16:32:56.999Z</time></trkpt><trkpt lat="42.493555815598654" lon="-2.573702734008749"><ele>431.0</ele><time>2026-03-22T16:32:57.999Z</time></trkpt><trkpt lat="42.493590690992356" lon="-2.573622594561075"><ele>431.0</ele><time>2026-03-22T16:32:58.999Z</time></trkpt><trkpt lat="42.493619773822246" lon="-2.573543488227214"><ele>431.0</ele><time>2026-03-22T16:32:59.999Z</time></trkpt><trkpt lat="42.49365377172054" lon="-2.5734632861928057"><ele>430.99999999999994</ele><time>2026-03-22T16:33:00.999Z</time></trkpt><trkpt lat="42.49371011188186" lon="-2.5733845936919986"><ele>431.0</ele><time>2026-03-22T16:33:01.999Z</time></trkpt><trkpt lat="42.49373444248242" lon="-2.573261926730241"><ele>431.75</ele><time>2026-03-22T16:33:02.999Z</time></trkpt><trkpt lat="42.493907842531485" lon="-2.573343480508805"><ele>432.5</ele><time>2026-03-22T16:33:03.999Z</time></trkpt><trkpt lat="42.4940179564294" lon="-2.5733361376629653"><ele>433.25</ele><time>2026-03-22T16:33:04.999Z</time></trkpt><trkpt lat="42.49413308401683" lon="-2.573321525795849"><ele>434.0</ele><time>2026-03-22T16:33:05.999Z</time></trkpt><trkpt lat="42.49426177827548" lon="-2.5732570152131515"><ele>434.0</ele><time>2026-03-22T16:33:06.999Z</time></trkpt><trkpt lat="42.494397842404915" lon="-2.573215766968798"><ele>434.0</ele><time>2026-03-22T16:33:07.999Z</time></trkpt><trkpt lat="42.49453270711237" lon="-2.57318072347538"><ele>434.0</ele><time>2026-03-22T16:33:08.999Z</time></trkpt><trkpt lat="42.494656294534266" lon="-2.573136959772773"><ele>434.0</ele><time>2026-03-22T16:33:09.999Z</time></trkpt><trkpt lat="42.49478349729894" lon="-2.573098905218693"><ele>435.0</ele><time>2026-03-22T16:33:10.999Z</time></trkpt><trkpt lat="42.49489333717505" lon="-2.57302969747664"><ele>436.0</ele><time>2026-03-22T16:33:11.999Z</time></trkpt><trkpt lat="42.495008707186315" lon="-2.5729965223526983"><ele>437.0</ele><time>2026-03-22T16:33:12.999Z</time></trkpt><trkpt lat="42.49513315238362" lon="-2.5729785894631108"><ele>438.0</ele><time>2026-03-22T16:33:13.999Z</time></trkpt><trkpt lat="42.495269740971956" lon="-2.5730047900872663"><ele>439.75</ele><time>2026-03-22T16:33:14.999Z</time></trkpt><trkpt lat="42.49542087874785" lon="-2.573037476191851"><ele>441.5</ele><time>2026-03-22T16:33:15.999Z</time></trkpt><trkpt lat="42.49556040593977" lon="-2.5730633756371355"><ele>443.25</ele><time>2026-03-22T16:33:16.999Z</time></trkpt><trkpt lat="42.49567194463745" lon="-2.573032713205709"><ele>445.0</ele><time>2026-03-22T16:33:17.999Z</time></trkpt><trkpt lat="42.49574999806897" lon="-2.572996193060223"><ele>445.00000000000006</ele><time>2026-03-22T16:33:18.999Z</time></trkpt><trkpt lat="42.49580348581663" lon="-2.5729355302725043"><ele>445.0</ele><time>2026-03-22T16:33:19.998Z</time></trkpt><trkpt lat="42.49582547963163" lon="-2.572847250903969"><ele>445.0</ele><time>2026-03-22T16:33:20.998Z</time></trkpt><trkpt lat="42.49584605762989" lon="-2.57273320989404"><ele>445.0</ele><time>2026-03-22T16:33:21.998Z</time></trkpt><trkpt lat="42.49589271073904" lon="-2.5726215711556426"><ele>445.00000000000006</ele><time>2026-03-22T16:33:22.998Z</time></trkpt><trkpt lat="42.495926235509366" lon="-2.5724961441170127"><ele>445.0</ele><time>2026-03-22T16:33:23.998Z</time></trkpt><trkpt lat="42.49594821364478" lon="-2.5723597382551135"><ele>444.83333333333337</ele><time>2026-03-22T16:33:24.998Z</time></trkpt><trkpt lat="42.496001196803256" lon="-2.572244377773906"><ele>444.6666666666667</ele><time>2026-03-22T16:33:25.998Z</time></trkpt><trkpt lat="42.496052554552264" lon="-2.572136786684318"><ele>444.5</ele><time>2026-03-22T16:33:26.998Z</time></trkpt><trkpt lat="42.49611976758824" lon="-2.572064444267223"><ele>444.33333333333337</ele><time>2026-03-22T16:33:27.998Z</time></trkpt><trkpt lat="42.496189357534085" lon="-2.572028147636774"><ele>444.1666666666667</ele><time>2026-03-22T16:33:28.998Z</time></trkpt><trkpt lat="42.496269463260795" lon="-2.5719682405955084"><ele>444.0</ele><time>2026-03-22T16:33:30.998Z</time></trkpt><trkpt lat="42.49637098352865" lon="-2.5720787458222087"><ele>445.79999999999995</ele><time>2026-03-22T16:33:32.998Z</time></trkpt><trkpt lat="42.496456961541945" lon="-2.572139539479098"><ele>447.59999999999997</ele><time>2026-03-22T16:33:34.998Z</time></trkpt><trkpt lat="42.49653518966349" lon="-2.572198430732785"><ele>449.4</ele><time>2026-03-22T16:33:36.998Z</time></trkpt><trkpt lat="42.49661237643486" lon="-2.572256538043618"><ele>451.2</ele><time>2026-03-22T16:34:44Z</time></trkpt><trkpt lat="42.49667857535527" lon="-2.572346417945607"><ele>453.0</ele><time>2026-03-22T16:35:11.999Z</time></trkpt><trkpt lat="42.496643134488984" lon="-2.572740786273592"><ele>453.0</ele><time>2026-03-22T16:35:15.999Z</time></trkpt><trkpt lat="42.496704303352786" lon="-2.5723807627875197"><ele>453.0</ele><time>2026-03-22T16:35:17.999Z</time></trkpt><trkpt lat="42.496578487624916" lon="-2.5722402603416166"><ele>453.0</ele><time>2026-03-22T16:37:41.021Z</time></trkpt><trkpt lat="42.49657101465655" lon="-2.5723295769736523"><ele>453.0</ele><time>2026-03-22T16:38:36Z</time></trkpt><trkpt lat="42.49657101465655" lon="-2.5723295769736523"><ele>453.0</ele><time>2026-03-22T16:38:36Z</time></trkpt><trkpt lat="42.49657101465655" lon="-2.5723295769736523"><ele>453.0</ele><time>2026-03-22T16:38:36Z</time></trkpt><trkpt lat="42.49657101465655" lon="-2.5723295769736523"><ele>453.0</ele><time>2026-03-22T16:38:36Z</time></trkpt><trkpt lat="42.49657101465655" lon="-2.5723295769736523"><ele>453.0</ele><time>2026-03-22T16:38:36Z</time></trkpt></trkseg></trk></gpx>